
Distance (Route):
Temperature : 19.0°C
Humidity : 70.0%
Pressure : 0hPa| Receiver | Frames | First received | Last received |
|---|---|---|---|
| OM5KV | 711 | 2026-09-01 01:25:37 | 2026-09-01 02:50:05 |
| PETON7-10 | 524 | 2026-09-01 00:11:41 | 2026-09-01 02:41:06 |
| HA6NAB-11 | 360 | 2026-09-01 00:31:16 | 2026-09-01 02:40:35 |
| OE5MMP-10 | 294 | 2026-09-01 01:04:28 | 2026-09-01 02:10:44 |
| OE3JTB-15 | 262 | 2026-09-01 00:10:30 | 2026-09-01 02:47:58 |
| PG1ADW-2 | 261 | 2026-09-01 00:20:02 | 2026-09-01 02:28:55 |
| OE5DRO-10 | 249 | 2026-09-01 00:25:04 | 2026-09-01 02:28:58 |
| DO3MHA-11 | 170 | 2026-09-01 00:51:29 | 2026-09-01 02:18:37 |
| S52SK | 152 | 2026-09-01 00:16:26 | 2026-09-01 02:40:42 |
| OE3OSB-13 | 124 | 2026-09-01 01:12:43 | 2026-09-01 02:43:56 |
| ATIDSZ-14 | 123 | 2026-09-01 01:43:19 | 2026-09-01 02:49:21 |
| OE5DXL-15 | 117 | 2026-09-01 01:01:02 | 2026-09-01 02:19:53 |
| OK1ALN | 57 | 2026-09-01 01:22:57 | 2026-09-01 02:03:14 |
| GYPAP8-17 | 50 | 2026-09-01 00:58:58 | 2026-09-01 02:25:17 |
| SONDE2-11 | 48 | 2026-09-01 01:27:00 | 2026-09-01 02:02:43 |
| DO3MHA-12 | 45 | 2026-09-01 00:52:45 | 2026-09-01 02:15:34 |
| SP3BTT-10 | 13 | 2026-09-01 01:48:23 | 2026-09-01 01:58:06 |
| EDDB2-12 | 8 | 2026-09-01 01:58:17 | 2026-09-01 02:02:57 |
| OK1SLM-15 | 5 | 2026-09-01 01:45:50 | 2026-09-01 01:52:10 |
| OE5WHR-10 | 5 | 2026-09-01 01:53:18 | 2026-09-01 01:55:10 |
| DB0UT-7 | 4 | 2026-09-01 01:50:34 | 2026-09-01 01:55:32 |
| SQ9EZE-14 | 3 | 2026-09-01 02:03:26 | 2026-09-01 02:03:58 |
| SQ9EZE-15 | 2 | 2026-09-01 01:24:34 | 2026-09-01 01:36:32 |
| DB0NH | 1 | 2026-09-01 01:47:44 | 2026-09-01 01:47:44 |
| SQ9EZE-16 | 1 | 2026-09-01 01:54:10 | 2026-09-01 01:54:10 |
| Receiver | Date | Latitude | Longitude | Direction | Speed | Altitude | Climb | Temperature | Humidity | Pressure | Voltage | Killtimer | Uptime | BKT | XDATA |
|---|---|---|---|---|---|---|---|---|---|---|---|---|---|---|---|
| OM5KV | 2026-09-01 02:50:05 | 48.26249 | 18.19745 | 125° | 15km/h | 256m | -4.9m/s | 19.0°C | 70.0% | 0hPa | 2.7V | 07:35:00 | 00:00:00 | 00:00:00 | |
| OM5KV | 2026-09-01 02:49:59 | 48.26262 | 18.19716 | 126° | 16km/h | 284m | -4.5m/s | 19.0°C | 68.4% | 0hPa | 2.7V | 07:35:00 | 00:00:00 | 00:00:00 | |
| OM5KV | 2026-09-01 02:49:43 | 48.26315 | 18.19627 | 136° | 24km/h | 360m | -5.0m/s | 19.6°C | 56.2% | 0hPa | 2.7V | 07:35:00 | 00:00:00 | 00:00:00 | |
| OM5KV | 2026-09-01 02:49:37 | 48.26342 | 18.19587 | 135° | 26km/h | 388m | -4.8m/s | 19.6°C | 55.5% | 0hPa | 2.7V | 07:35:00 | 00:00:00 | 00:00:00 | |
| OM5KV | 2026-09-01 02:49:32 | 48.26365 | 18.19549 | 134° | 29km/h | 413m | -4.7m/s | 19.5°C | 55.7% | 0hPa | 2.7V | 07:35:00 | 00:00:00 | 00:00:00 | |
| OM5KV | 2026-09-01 02:49:26 | 48.26395 | 18.19498 | 129° | 31km/h | 441m | -4.9m/s | 19.4°C | 55.8% | 0hPa | 2.7V | 07:36:00 | 00:00:00 | 00:00:00 | |
| ATIDSZ-14 | 2026-09-01 02:49:21 | 48.26419 | 18.19451 | 127° | 33km/h | 466m | -4.6m/s | 19.4°C | 55.6% | 0hPa | 2.7V | 07:36:00 | 00:00:00 | 00:00:00 | |
| OM5KV | 2026-09-01 02:49:20 | 48.26423 | 18.19440 | 128° | 33km/h | 470m | -5.0m/s | 19.4°C | 0% | 0hPa | 2.7V | 07:36:00 | 00:00:00 | 00:00:00 | |
| OM5KV | 2026-09-01 02:49:14 | 48.26454 | 18.19379 | 127° | 33km/h | 498m | -5.0m/s | 19.3°C | 0% | 0hPa | 2.7V | 07:36:00 | 00:00:00 | 00:00:00 | |
| OM5KV | 2026-09-01 02:49:10 | 48.26474 | 18.19336 | 126° | 33km/h | 518m | -4.6m/s | 19.3°C | 56.1% | 0hPa | 2.7V | 07:36:00 | 00:00:00 | 00:00:00 | |
| OM5KV | 2026-09-01 02:49:04 | 48.26506 | 18.19269 | 125° | 37km/h | 548m | -5.1m/s | 19.2°C | 56.0% | 0hPa | 2.7V | 07:36:00 | 00:00:00 | 00:00:00 | |
| OM5KV | 2026-09-01 02:49:03 | 48.26511 | 18.19258 | 125° | 38km/h | 554m | -4.6m/s | 19.2°C | 0% | 0hPa | 2.7V | 07:36:00 | 00:00:00 | 00:00:00 | |
| ATIDSZ-14 | 2026-09-01 02:49:00 | 48.26528 | 18.19222 | 128° | 38km/h | 567m | -4.3m/s | 19.2°C | 55.4% | 0hPa | 2.7V | 07:36:00 | 00:00:00 | 00:00:00 | |
| OM5KV | 2026-09-01 02:48:58 | 48.26538 | 18.19200 | 128° | 37km/h | 577m | -4.8m/s | 19.3°C | 54.0% | 0hPa | 2.7V | 07:36:00 | 00:00:00 | 00:00:00 | |
| OM5KV | 2026-09-01 02:48:57 | 48.26544 | 18.19189 | 126° | 35km/h | 581m | -4.8m/s | 19.4°C | 0% | 0hPa | 2.7V | 07:36:00 | 00:00:00 | 00:00:00 | |
| OM5KV | 2026-09-01 02:48:53 | 48.26565 | 18.19147 | 130° | 35km/h | 601m | -4.4m/s | 19.5°C | 0% | 0hPa | 2.7V | 07:36:00 | 00:00:00 | 00:00:00 | |
| OM5KV | 2026-09-01 02:48:47 | 48.26597 | 18.19086 | 129° | 33km/h | 628m | -4.6m/s | 19.6°C | 0% | 0hPa | 2.7V | 07:36:00 | 00:00:00 | 00:00:00 | |
| OM5KV | 2026-09-01 02:48:45 | 48.26607 | 18.19067 | 130° | 31km/h | 637m | -4.3m/s | 19.5°C | 0% | 0hPa | 2.7V | 07:36:00 | 00:00:00 | 00:00:00 | |
| OM5KV | 2026-09-01 02:48:42 | 48.26623 | 18.19038 | 133° | 33km/h | 650m | -4.4m/s | 0°C | 0% | 0hPa | 2.7V | 07:36:00 | 00:00:00 | 00:00:00 | |
| OM5KV | 2026-09-01 02:48:40 | 48.26634 | 18.19020 | 132° | 33km/h | 659m | -4.7m/s | 0°C | 0% | 0hPa | 2.7V | 07:36:00 | 00:00:00 | 00:00:00 | |
| ATIDSZ-14 | 2026-09-01 02:48:38 | 48.26645 | 18.19001 | 131° | 33km/h | 668m | -4.6m/s | 19.4°C | 51.3% | 0hPa | 2.7V | 07:36:00 | 00:00:00 | 00:00:00 | |
| OM5KV | 2026-09-01 02:48:36 | 48.26656 | 18.18982 | 132° | 31km/h | 678m | -4.8m/s | 0°C | 0% | 0hPa | 2.7V | 00:00:00 | 00:00:00 | 00:00:00 | |
| OM5KV | 2026-09-01 02:48:34 | 48.26666 | 18.18965 | 133° | 31km/h | 687m | -4.1m/s | 0°C | 0% | 0hPa | 2.7V | 00:00:00 | 00:00:00 | 00:00:00 | |
| OM5KV | 2026-09-01 02:48:30 | 48.26688 | 18.18930 | 136° | 31km/h | 704m | -4.8m/s | 0°C | 0% | 0hPa | 2.7V | 00:00:00 | 00:00:00 | 00:00:00 | |
| OM5KV | 2026-09-01 02:48:29 | 48.26693 | 18.18923 | 137° | 29km/h | 709m | -4.5m/s | 0°C | 0% | 0hPa | 2.7V | 00:00:00 | 00:00:00 | 00:00:00 | |
| OM5KV | 2026-09-01 02:48:24 | 48.26722 | 18.18883 | 139° | 31km/h | 731m | -4.4m/s | 0°C | 0% | 0hPa | 2.7V | 00:00:00 | 00:00:00 | 00:00:00 | |
| OM5KV | 2026-09-01 02:48:23 | 48.26728 | 18.18875 | 139° | 31km/h | 735m | -4.9m/s | 0°C | 0% | 0hPa | 2.7V | 00:00:00 | 00:00:00 | 00:00:00 | |
| ATIDSZ-14 | 2026-09-01 02:48:17 | 48.26764 | 18.18829 | 140° | 31km/h | 761m | -4.6m/s | 19.0°C | 50.5% | 0hPa | 2.7V | 07:37:00 | 00:00:00 | 00:00:00 | |
| OM5KV | 2026-09-01 02:48:17 | 48.26764 | 18.18829 | 140° | 31km/h | 761m | -4.6m/s | 0°C | 0% | 0hPa | 2.7V | 00:00:00 | 00:00:00 | 00:00:00 | |
| OE3JTB-15 | 2026-09-01 02:47:58 | 48.26890 | 18.18697 | 150° | 31km/h | 849m | -4.3m/s | 18.3°C | 50.3% | 0hPa | 2.7V | 00:00:00 | 02:47:38 | 00:00:00 | |
| ATIDSZ-14 | 2026-09-01 02:47:57 | 48.26890 | 18.18697 | 151° | 31km/h | 849m | -4.3m/s | 18.4°C | 50.8% | 0hPa | 2.7V | 07:37:00 | 00:00:00 | 00:00:00 | |
| OE3JTB-15 | 2026-09-01 02:47:55 | 48.26910 | 18.18679 | 148° | 31km/h | 862m | -4.8m/s | 18.2°C | 50.5% | 0hPa | 2.7V | 00:00:00 | 00:00:00 | 00:00:00 | |
| OE3JTB-15 | 2026-09-01 02:47:48 | 48.26957 | 18.18636 | 152° | 31km/h | 893m | -4.2m/s | 18.0°C | 49.6% | 0hPa | 2.7V | 00:00:00 | 00:00:00 | 00:00:00 | |
| OE3JTB-15 | 2026-09-01 02:47:46 | 48.26971 | 18.18624 | 151° | 31km/h | 903m | -4.6m/s | 18.0°C | 49.6% | 0hPa | 2.7V | 00:00:00 | 02:47:26 | 00:00:00 | |
| OE3JTB-15 | 2026-09-01 02:47:44 | 48.26985 | 18.18612 | 153° | 33km/h | 912m | -4.5m/s | 17.9°C | 49.2% | 0hPa | 2.7V | 00:00:00 | 00:00:00 | 00:00:00 | |
| OE3JTB-15 | 2026-09-01 02:47:41 | 48.27006 | 18.18594 | 150° | 33km/h | 926m | -4.6m/s | 17.8°C | 49.1% | 0hPa | 2.7V | 07:37:00 | 00:00:00 | 00:00:00 | |
| OE3JTB-15 | 2026-09-01 02:47:39 | 48.27021 | 18.18582 | 151° | 33km/h | 935m | -5.1m/s | 17.7°C | 49.2% | 0hPa | 2.7V | 00:00:00 | 02:47:19 | 00:00:00 | |
| OE3JTB-15 | 2026-09-01 02:47:37 | 48.27035 | 18.18570 | 151° | 33km/h | 945m | -4.3m/s | 17.6°C | 49.3% | 0hPa | 2.7V | 00:00:00 | 00:00:00 | 00:00:00 | |
| ATIDSZ-14 | 2026-09-01 02:47:36 | 48.27035 | 18.18570 | 152° | 33km/h | 945m | -4.4m/s | 17.7°C | 49.7% | 0hPa | 2.7V | 07:38:00 | 00:00:00 | 00:00:00 | |
| OE3JTB-15 | 2026-09-01 02:47:35 | 48.27049 | 18.18557 | 149° | 33km/h | 954m | -4.8m/s | 17.6°C | 49.5% | 0hPa | 2.7V | 00:00:00 | 00:00:00 | 00:00:00 | |
| OE3JTB-15 | 2026-09-01 02:47:33 | 48.27064 | 18.18544 | 148° | 33km/h | 963m | -4.2m/s | 17.5°C | 49.7% | 0hPa | 2.7V | 00:00:00 | 02:47:13 | 00:00:00 | |
| OE3JTB-15 | 2026-09-01 02:47:31 | 48.27079 | 18.18531 | 149° | 33km/h | 972m | -4.5m/s | 17.4°C | 49.9% | 0hPa | 2.7V | 00:00:00 | 00:00:00 | 00:00:00 | |
| OE3JTB-15 | 2026-09-01 02:47:29 | 48.27093 | 18.18517 | 150° | 33km/h | 981m | -4.1m/s | 17.3°C | 50.1% | 0hPa | 2.7V | 00:00:00 | 00:00:00 | 00:00:00 | |
| OE3JTB-15 | 2026-09-01 02:47:27 | 48.27108 | 18.18504 | 149° | 35km/h | 990m | -4.7m/s | 17.2°C | 50.8% | 0hPa | 2.7V | 00:00:00 | 02:47:07 | 00:00:00 | |
| OE3JTB-15 | 2026-09-01 02:47:25 | 48.27122 | 18.18490 | 149° | 35km/h | 999m | -4.3m/s | 17.1°C | 51.1% | 0hPa | 2.7V | 07:37:00 | 00:00:00 | 00:00:00 | |
| OE3JTB-15 | 2026-09-01 02:47:23 | 48.27137 | 18.18477 | 151° | 35km/h | 1007m | -4.0m/s | 17.0°C | 51.3% | 0hPa | 2.7V | 00:00:00 | 00:00:00 | 00:00:00 | |
| OE3JTB-15 | 2026-09-01 02:47:21 | 48.27152 | 18.18464 | 150° | 35km/h | 1015m | -4.2m/s | 17.0°C | 51.6% | 0hPa | 2.7V | 00:00:00 | 02:47:01 | 00:00:00 | |
| ATIDSZ-14 | 2026-09-01 02:47:16 | 48.27182 | 18.18435 | 147° | 37km/h | 1034m | -4.4m/s | 16.9°C | 52.7% | 0hPa | 2.7V | 07:38:00 | 00:00:00 | 00:00:00 | |
| OE3JTB-15 | 2026-09-01 02:47:14 | 48.27205 | 18.18412 | 147° | 38km/h | 1047m | -4.9m/s | 16.7°C | 52.9% | 0hPa | 2.7V | 00:00:00 | 00:00:00 | 00:00:00 | |
| OM5KV | 2026-09-01 02:47:02 | 48.27291 | 18.18325 | 145° | 38km/h | 1097m | -4.4m/s | 16.3°C | 55.5% | 0hPa | 2.6V | 07:38:00 | 00:00:00 | 00:00:00 | |
| OM5KV | 2026-09-01 02:47:00 | 48.27307 | 18.18308 | 145° | 38km/h | 1107m | -4.8m/s | 16.3°C | 55.8% | 0hPa | 2.6V | 07:38:00 | 00:00:00 | 00:00:00 | |
| OM5KV | 2026-09-01 02:46:56 | 48.27338 | 18.18273 | 143° | 38km/h | 1125m | -4.1m/s | 16.1°C | 56.5% | 0hPa | 2.6V | 07:38:00 | 00:00:00 | 00:00:00 | |
| ATIDSZ-14 | 2026-09-01 02:46:56 | 48.27338 | 18.18273 | 143° | 38km/h | 1125m | -4.1m/s | 16.1°C | 56.5% | 0hPa | 2.6V | 07:38:00 | 00:00:00 | 00:00:00 | |
| OM5KV | 2026-09-01 02:46:55 | 48.27346 | 18.18264 | 144° | 40km/h | 1129m | -4.4m/s | 16.1°C | 56.7% | 0hPa | 2.6V | 07:38:00 | 00:00:00 | 00:00:00 | |
| OM5KV | 2026-09-01 02:46:49 | 48.27394 | 18.18210 | 143° | 40km/h | 1156m | -4.9m/s | 15.8°C | 57.8% | 0hPa | 2.6V | 07:39:00 | 00:00:00 | 00:00:00 | |
| OM5KV | 2026-09-01 02:46:45 | 48.27425 | 18.18171 | 140° | 40km/h | 1174m | -4.8m/s | 15.7°C | 58.5% | 0hPa | 2.6V | 07:39:00 | 00:00:00 | 00:00:00 | |
| OE3JTB-15 | 2026-09-01 02:46:44 | 48.27440 | 18.18151 | 139° | 40km/h | 1184m | -4.3m/s | 15.6°C | 58.5% | 0hPa | 2.6V | 00:00:00 | 00:00:00 | 00:00:00 | |
| OM5KV | 2026-09-01 02:46:43 | 48.27440 | 18.18151 | 139° | 40km/h | 1184m | -4.4m/s | 15.6°C | 58.8% | 0hPa | 2.6V | 07:39:00 | 00:00:00 | 00:00:00 | |
| OE3JTB-15 | 2026-09-01 02:46:42 | 48.27456 | 18.18130 | 138° | 40km/h | 1192m | -4.6m/s | 15.5°C | 58.7% | 0hPa | 2.6V | 00:00:00 | 02:46:22 | 00:00:00 | |
| OE3JTB-15 | 2026-09-01 02:46:40 | 48.27471 | 18.18110 | 139° | 40km/h | 1202m | -4.7m/s | 15.5°C | 59.1% | 0hPa | 2.6V | 00:00:00 | 00:00:00 | 00:00:00 | |
| OM5KV | 2026-09-01 02:46:39 | 48.27471 | 18.18110 | 139° | 40km/h | 1202m | -4.7m/s | 15.5°C | 59.5% | 0hPa | 2.7V | 07:39:00 | 00:00:00 | 00:00:00 | |
| OE3JTB-15 | 2026-09-01 02:46:38 | 48.27486 | 18.18089 | 138° | 42km/h | 1210m | -4.7m/s | 15.5°C | 59.6% | 0hPa | 2.7V | 00:00:00 | 00:00:00 | 00:00:00 | |
| OM5KV | 2026-09-01 02:46:37 | 48.27486 | 18.18089 | 138° | 42km/h | 1210m | -4.7m/s | 15.5°C | 60.0% | 0hPa | 2.7V | 07:39:00 | 00:00:00 | 00:00:00 | |
| OE3JTB-15 | 2026-09-01 02:46:36 | 48.27502 | 18.18067 | 138° | 40km/h | 1220m | -4.8m/s | 15.4°C | 59.8% | 0hPa | 2.7V | 07:38:00 | 02:46:16 | 00:00:00 | |
| ATIDSZ-14 | 2026-09-01 02:46:35 | 48.27502 | 18.18067 | 139° | 42km/h | 1220m | -4.9m/s | 15.5°C | 60.1% | 0hPa | 2.7V | 07:39:00 | 00:00:00 | 00:00:00 | |
| OE3JTB-15 | 2026-09-01 02:46:34 | 48.27517 | 18.18046 | 138° | 42km/h | 1229m | -4.6m/s | 15.3°C | 60.1% | 0hPa | 2.7V | 00:00:00 | 00:00:00 | 00:00:00 | |
| OM5KV | 2026-09-01 02:46:33 | 48.27517 | 18.18046 | 138° | 42km/h | 1229m | -4.7m/s | 15.4°C | 60.5% | 0hPa | 2.7V | 07:39:00 | 00:00:00 | 00:00:00 | |
| OE3JTB-15 | 2026-09-01 02:46:31 | 48.27540 | 18.18014 | 136° | 42km/h | 1243m | -5.0m/s | 15.2°C | 60.5% | 0hPa | 2.7V | 00:00:00 | 00:00:00 | 00:00:00 | |
| OE3JTB-15 | 2026-09-01 02:46:28 | 48.27562 | 18.17981 | 137° | 42km/h | 1256m | -4.7m/s | 15.1°C | 60.8% | 0hPa | 2.7V | 00:00:00 | 02:46:08 | 00:00:00 | |
| OM5KV | 2026-09-01 02:46:26 | 48.27570 | 18.17970 | 139° | 42km/h | 1261m | -4.4m/s | 15.1°C | 61.4% | 0hPa | 2.7V | 07:39:00 | 00:00:00 | 00:00:00 | |
| OE3JTB-15 | 2026-09-01 02:46:26 | 48.27578 | 18.17959 | 137° | 42km/h | 1265m | -4.5m/s | 15.0°C | 61.2% | 0hPa | 2.7V | 00:00:00 | 00:00:00 | 00:00:00 | |
| OM5KV | 2026-09-01 02:46:21 | 48.27608 | 18.17916 | 137° | 42km/h | 1283m | -4.4m/s | 14.9°C | 62.1% | 0hPa | 2.7V | 07:39:00 | 00:00:00 | 00:00:00 | |
| OE3JTB-15 | 2026-09-01 02:46:19 | 48.27631 | 18.17883 | 136° | 40km/h | 1297m | -4.6m/s | 14.7°C | 62.2% | 0hPa | 2.7V | 00:00:00 | 00:00:00 | 00:00:00 | |
| OM5KV | 2026-09-01 02:46:15 | 48.27653 | 18.17850 | 136° | 40km/h | 1311m | -4.7m/s | 14.6°C | 63.2% | 0hPa | 2.7V | 07:39:00 | 00:00:00 | 00:00:00 | |
| ATIDSZ-14 | 2026-09-01 02:46:15 | 48.27653 | 18.17850 | 136° | 40km/h | 1311m | -4.7m/s | 14.6°C | 63.2% | 0hPa | 2.7V | 07:39:00 | 00:00:00 | 00:00:00 | |
| OE3JTB-15 | 2026-09-01 02:46:12 | 48.27682 | 18.17807 | 136° | 40km/h | 1330m | -4.4m/s | 14.4°C | 63.4% | 0hPa | 2.7V | 00:00:00 | 02:45:52 | 00:00:00 | |
| OM5KV | 2026-09-01 02:46:10 | 48.27690 | 18.17796 | 136° | 40km/h | 1335m | -4.7m/s | 14.4°C | 63.8% | 0hPa | 2.7V | 07:39:00 | 00:00:00 | 00:00:00 | |
| OE3JTB-15 | 2026-09-01 02:46:10 | 48.27697 | 18.17785 | 137° | 42km/h | 1340m | -4.5m/s | 14.3°C | 63.6% | 0hPa | 2.7V | 00:00:00 | 00:00:00 | 00:00:00 | |
| OM5KV | 2026-09-01 02:46:09 | 48.27697 | 18.17785 | 137° | 42km/h | 1340m | -4.5m/s | 14.3°C | 63.9% | 0hPa | 2.6V | 07:39:00 | 00:00:00 | 00:00:00 | |
| OE3JTB-15 | 2026-09-01 02:46:08 | 48.27712 | 18.17762 | 136° | 44km/h | 1350m | -4.8m/s | 14.2°C | 63.8% | 0hPa | 2.6V | 07:39:00 | 00:00:00 | 00:00:00 | |
| OE3JTB-15 | 2026-09-01 02:46:06 | 48.27728 | 18.17740 | 139° | 44km/h | 1359m | -4.3m/s | 14.1°C | 64.1% | 0hPa | 2.6V | 00:00:00 | 02:45:46 | 00:00:00 | |
| OM5KV | 2026-09-01 02:46:05 | 48.27728 | 18.17740 | 139° | 44km/h | 1359m | -4.4m/s | 14.1°C | 64.4% | 0hPa | 2.6V | 07:39:00 | 00:00:00 | 00:00:00 | |
| OE3JTB-15 | 2026-09-01 02:46:04 | 48.27744 | 18.17717 | 136° | 42km/h | 1368m | -4.2m/s | 14.0°C | 64.3% | 0hPa | 2.6V | 00:00:00 | 00:00:00 | 00:00:00 | |
| OM5KV | 2026-09-01 02:46:03 | 48.27744 | 18.17717 | 136° | 42km/h | 1368m | -4.3m/s | 14.1°C | 64.6% | 0hPa | 2.7V | 07:39:00 | 00:00:00 | 00:00:00 | |
| OE3JTB-15 | 2026-09-01 02:46:02 | 48.27760 | 18.17694 | 138° | 44km/h | 1377m | -4.4m/s | 13.9°C | 64.5% | 0hPa | 2.7V | 00:00:00 | 00:00:00 | 00:00:00 | |
| OE3JTB-15 | 2026-09-01 02:46:00 | 48.27775 | 18.17672 | 136° | 44km/h | 1387m | -4.2m/s | 13.9°C | 64.5% | 0hPa | 2.7V | 00:00:00 | 02:45:40 | 00:00:00 | |
| OM5KV | 2026-09-01 02:46:00 | 48.27775 | 18.17671 | 137° | 44km/h | 1387m | -4.2m/s | 13.9°C | 64.8% | 0hPa | 2.7V | 07:39:00 | 00:00:00 | 00:00:00 | |
| OE3JTB-15 | 2026-09-01 02:45:58 | 48.27791 | 18.17649 | 137° | 44km/h | 1396m | -4.5m/s | 13.8°C | 64.5% | 0hPa | 2.7V | 00:00:00 | 00:00:00 | 00:00:00 | |
| OM5KV | 2026-09-01 02:45:57 | 48.27791 | 18.17649 | 138° | 44km/h | 1396m | -4.5m/s | 13.8°C | 64.8% | 0hPa | 2.7V | 07:39:00 | 00:00:00 | 00:00:00 | |
| OE3JTB-15 | 2026-09-01 02:45:56 | 48.27807 | 18.17625 | 136° | 44km/h | 1405m | -4.7m/s | 13.7°C | 63.7% | 0hPa | 2.7V | 00:00:00 | 00:00:00 | 00:00:00 | |
| ATIDSZ-14 | 2026-09-01 02:45:54 | 48.27815 | 18.17613 | 136° | 46km/h | 1410m | -4.8m/s | 13.7°C | 64.0% | 0hPa | 2.7V | 07:39:00 | 00:00:00 | 00:00:00 | |
| OE3JTB-15 | 2026-09-01 02:45:54 | 48.27823 | 18.17602 | 139° | 44km/h | 1415m | -4.4m/s | 13.6°C | 63.2% | 0hPa | 2.7V | 00:00:00 | 02:45:34 | 00:00:00 | |
| OM5KV | 2026-09-01 02:45:53 | 48.27823 | 18.17602 | 139° | 46km/h | 1415m | -4.4m/s | 13.7°C | 63.4% | 0hPa | 2.7V | 07:39:00 | 00:00:00 | 00:00:00 | |
| OE3JTB-15 | 2026-09-01 02:45:52 | 48.27839 | 18.17579 | 136° | 44km/h | 1424m | -4.3m/s | 13.6°C | 63.0% | 0hPa | 2.7V | 07:39:00 | 00:00:00 | 00:00:00 | |
| OM5KV | 2026-09-01 02:45:48 | 48.27863 | 18.17542 | 136° | 44km/h | 1437m | -4.7m/s | 13.5°C | 64.5% | 0hPa | 2.6V | 07:39:00 | 00:00:00 | 00:00:00 | |
| OE3JTB-15 | 2026-09-01 02:45:48 | 48.27871 | 18.17530 | 136° | 46km/h | 1442m | -4.5m/s | 13.4°C | 63.9% | 0hPa | 2.6V | 00:00:00 | 02:45:28 | 00:00:00 | |
| OM5KV | 2026-09-01 02:45:46 | 48.27880 | 18.17518 | 135° | 46km/h | 1447m | -4.5m/s | 13.4°C | 63.7% | 0hPa | 2.6V | 07:39:00 | 00:00:00 | 00:00:00 | |
| OE3JTB-15 | 2026-09-01 02:45:46 | 48.27888 | 18.17506 | 137° | 46km/h | 1451m | -4.2m/s | 13.4°C | 61.4% | 0hPa | 2.6V | 00:00:00 | 00:00:00 | 00:00:00 | |
| OE3JTB-15 | 2026-09-01 02:45:44 | 48.27905 | 18.17482 | 137° | 46km/h | 1459m | -4.5m/s | 13.3°C | 60.4% | 0hPa | 2.7V | 00:00:00 | 00:00:00 | 00:00:00 | |
| OM5KV | 2026-09-01 02:45:42 | 48.27913 | 18.17469 | 137° | 46km/h | 1464m | -5.0m/s | 13.3°C | 60.2% | 0hPa | 2.7V | 07:39:00 | 00:00:00 | 00:00:00 | |
| OE3JTB-15 | 2026-09-01 02:45:42 | 48.27921 | 18.17457 | 136° | 46km/h | 1469m | -4.9m/s | 13.3°C | 59.6% | 0hPa | 2.7V | 00:00:00 | 02:45:22 | 00:00:00 | |
| OE3JTB-15 | 2026-09-01 02:45:40 | 48.27938 | 18.17432 | 136° | 46km/h | 1478m | -4.7m/s | 13.2°C | 58.2% | 0hPa | 2.7V | 00:00:00 | 00:00:00 | 00:00:00 | |
| OE3JTB-15 | 2026-09-01 02:45:38 | 48.27954 | 18.17408 | 135° | 46km/h | 1488m | -5.0m/s | 13.2°C | 57.7% | 0hPa | 2.7V | 00:00:00 | 00:00:00 | 00:00:00 | |
| OM5KV | 2026-09-01 02:45:37 | 48.27954 | 18.17408 | 136° | 46km/h | 1488m | -5.0m/s | 13.2°C | 58.0% | 0hPa | 2.7V | 07:39:00 | 00:00:00 | 00:00:00 | |
| OE3JTB-15 | 2026-09-01 02:45:36 | 48.27970 | 18.17383 | 135° | 46km/h | 1498m | -5.0m/s | 13.1°C | 55.0% | 0hPa | 2.7V | 07:39:00 | 02:45:16 | 00:00:00 | |
| OM5KV | 2026-09-01 02:45:35 | 48.27970 | 18.17383 | 135° | 46km/h | 1498m | -5.1m/s | 13.2°C | 55.3% | 0hPa | 2.7V | 07:39:00 | 00:00:00 | 00:00:00 | |
| OE3JTB-15 | 2026-09-01 02:45:34 | 48.27986 | 18.17358 | 134° | 46km/h | 1508m | -4.9m/s | 13.1°C | 54.7% | 0hPa | 2.7V | 00:00:00 | 00:00:00 | 00:00:00 | |
| ATIDSZ-14 | 2026-09-01 02:45:33 | 48.27986 | 18.17358 | 135° | 46km/h | 1508m | -4.9m/s | 13.1°C | 54.9% | 0hPa | 2.6V | 07:39:00 | 00:00:00 | 00:00:00 | |
| OE3JTB-15 | 2026-09-01 02:45:32 | 48.28002 | 18.17333 | 135° | 46km/h | 1518m | -4.7m/s | 13.1°C | 52.1% | 0hPa | 2.6V | 00:00:00 | 00:00:00 | 00:00:00 | |
| OM5KV | 2026-09-01 02:45:31 | 48.28002 | 18.17333 | 136° | 46km/h | 1518m | -4.8m/s | 13.1°C | 52.3% | 0hPa | 2.6V | 07:39:00 | 00:00:00 | 00:00:00 | |
| OM5KV | 2026-09-01 02:45:30 | 48.28010 | 18.17321 | 136° | 46km/h | 1522m | -4.7m/s | 13.1°C | 52.0% | 0hPa | 2.6V | 07:39:00 | 00:00:00 | 00:00:00 | |
| OE3JTB-15 | 2026-09-01 02:45:30 | 48.28018 | 18.17308 | 136° | 46km/h | 1527m | -4.4m/s | 13.0°C | 51.5% | 0hPa | 2.6V | 00:00:00 | 02:45:10 | 00:00:00 | |
| OE3JTB-15 | 2026-09-01 02:45:28 | 48.28035 | 18.17284 | 136° | 46km/h | 1536m | -4.4m/s | 12.9°C | 51.8% | 0hPa | 2.6V | 00:00:00 | 00:00:00 | 00:00:00 | |
| OE3JTB-15 | 2026-09-01 02:45:26 | 48.28051 | 18.17258 | 134° | 46km/h | 1545m | -5.0m/s | 12.8°C | 51.9% | 0hPa | 2.7V | 00:00:00 | 00:00:00 | 00:00:00 | |
| OM5KV | 2026-09-01 02:45:25 | 48.28051 | 18.17258 | 134° | 47km/h | 1545m | -5.0m/s | 12.9°C | 52.1% | 0hPa | 2.7V | 07:39:00 | 00:00:00 | 00:00:00 | |
| OM5KV | 2026-09-01 02:45:24 | 48.28060 | 18.17245 | 135° | 46km/h | 1550m | -4.8m/s | 12.9°C | 52.2% | 0hPa | 2.7V | 07:39:00 | 00:00:00 | 00:00:00 | |
| OE3JTB-15 | 2026-09-01 02:45:24 | 48.28068 | 18.17233 | 134° | 44km/h | 1555m | -4.5m/s | 12.8°C | 52.0% | 0hPa | 2.7V | 00:00:00 | 02:45:04 | 00:00:00 | |
| OE3JTB-15 | 2026-09-01 02:45:22 | 48.28083 | 18.17208 | 134° | 44km/h | 1564m | -5.1m/s | 12.7°C | 52.1% | 0hPa | 2.7V | 00:00:00 | 00:00:00 | 00:00:00 | |
| OE3JTB-15 | 2026-09-01 02:45:20 | 48.28099 | 18.17184 | 135° | 46km/h | 1575m | -4.9m/s | 12.6°C | 52.1% | 0hPa | 2.6V | 07:39:00 | 00:00:00 | 00:00:00 | |
| OM5KV | 2026-09-01 02:45:19 | 48.28099 | 18.17183 | 136° | 46km/h | 1575m | -4.9m/s | 12.7°C | 52.3% | 0hPa | 2.6V | 07:39:00 | 00:00:00 | 00:00:00 | |
| OE3JTB-15 | 2026-09-01 02:45:18 | 48.28115 | 18.17159 | 135° | 46km/h | 1584m | -4.8m/s | 12.5°C | 52.3% | 0hPa | 2.6V | 00:00:00 | 02:44:58 | 00:00:00 | |
| OE3JTB-15 | 2026-09-01 02:45:16 | 48.28131 | 18.17134 | 135° | 44km/h | 1594m | -5.1m/s | 12.5°C | 52.4% | 0hPa | 2.6V | 00:00:00 | 00:00:00 | 00:00:00 | |
| OE3JTB-15 | 2026-09-01 02:45:14 | 48.28147 | 18.17110 | 133° | 42km/h | 1604m | -4.7m/s | 12.4°C | 52.4% | 0hPa | 2.7V | 00:00:00 | 00:00:00 | 00:00:00 | |
| OM5KV | 2026-09-01 02:45:13 | 48.28147 | 18.17110 | 133° | 42km/h | 1604m | -4.7m/s | 12.4°C | 52.6% | 0hPa | 2.7V | 07:39:00 | 00:00:00 | 00:00:00 | |
| OM5KV | 2026-09-01 02:45:12 | 48.28154 | 18.17098 | 134° | 42km/h | 1609m | -4.3m/s | 12.4°C | 52.7% | 0hPa | 2.7V | 07:40:00 | 00:00:00 | 00:00:00 | |
| ATIDSZ-14 | 2026-09-01 02:45:12 | 48.28154 | 18.17098 | 134° | 42km/h | 1609m | -4.3m/s | 12.4°C | 52.7% | 0hPa | 2.7V | 07:40:00 | 00:00:00 | 00:00:00 | |
| OE3JTB-15 | 2026-09-01 02:45:12 | 48.28162 | 18.17086 | 134° | 44km/h | 1614m | -4.4m/s | 12.3°C | 52.5% | 0hPa | 2.7V | 00:00:00 | 02:44:52 | 00:00:00 | |
| OE3JTB-15 | 2026-09-01 02:45:10 | 48.28177 | 18.17062 | 134° | 44km/h | 1623m | -4.4m/s | 12.2°C | 52.8% | 0hPa | 2.7V | 00:00:00 | 00:00:00 | 00:00:00 | |
| OE3JTB-15 | 2026-09-01 02:45:08 | 48.28192 | 18.17039 | 134° | 42km/h | 1632m | -4.1m/s | 12.1°C | 53.2% | 0hPa | 2.7V | 00:00:00 | 00:00:00 | 00:00:00 | |
| OM5KV | 2026-09-01 02:45:06 | 48.28200 | 18.17027 | 134° | 42km/h | 1636m | -4.8m/s | 12.1°C | 53.5% | 0hPa | 2.7V | 07:40:00 | 00:00:00 | 00:00:00 | |
| OE3JTB-15 | 2026-09-01 02:45:06 | 48.28207 | 18.17015 | 133° | 42km/h | 1641m | -4.8m/s | 12.0°C | 53.5% | 0hPa | 2.7V | 00:00:00 | 02:44:46 | 00:00:00 | |
| OE3JTB-15 | 2026-09-01 02:45:04 | 48.28222 | 18.16992 | 136° | 44km/h | 1651m | -4.8m/s | 11.9°C | 53.7% | 0hPa | 2.7V | 07:40:00 | 00:00:00 | 00:00:00 | |
| OE3JTB-15 | 2026-09-01 02:45:02 | 48.28238 | 18.16968 | 135° | 44km/h | 1661m | -5.4m/s | 11.9°C | 53.8% | 0hPa | 2.6V | 00:00:00 | 00:00:00 | 00:00:00 | |
| OM5KV | 2026-09-01 02:45:01 | 48.28238 | 18.16968 | 136° | 44km/h | 1661m | -5.4m/s | 11.9°C | 54.0% | 0hPa | 2.6V | 07:40:00 | 00:00:00 | 00:00:00 | |
| OE3JTB-15 | 2026-09-01 02:45:00 | 48.28253 | 18.16944 | 134° | 44km/h | 1671m | -5.0m/s | 11.8°C | 53.3% | 0hPa | 2.6V | 00:00:00 | 02:44:40 | 00:00:00 | |
| OM5KV | 2026-09-01 02:44:59 | 48.28253 | 18.16944 | 134° | 44km/h | 1671m | -5.0m/s | 11.9°C | 53.5% | 0hPa | 2.6V | 07:40:00 | 00:00:00 | 00:00:00 | |
| OE3JTB-15 | 2026-09-01 02:44:58 | 48.28269 | 18.16920 | 134° | 42km/h | 1681m | -4.7m/s | 11.7°C | 53.6% | 0hPa | 2.6V | 00:00:00 | 00:00:00 | 00:00:00 | |
| OE3JTB-15 | 2026-09-01 02:44:56 | 48.28284 | 18.16897 | 135° | 44km/h | 1690m | -4.6m/s | 11.6°C | 53.6% | 0hPa | 2.7V | 00:00:00 | 00:00:00 | 00:00:00 | |
| OM5KV | 2026-09-01 02:44:55 | 48.28284 | 18.16897 | 135° | 42km/h | 1690m | -4.6m/s | 11.7°C | 53.8% | 0hPa | 2.7V | 07:40:00 | 00:00:00 | 00:00:00 | |
| OE3JTB-15 | 2026-09-01 02:44:54 | 48.28299 | 18.16873 | 135° | 44km/h | 1700m | -5.1m/s | 11.5°C | 54.0% | 0hPa | 2.7V | 00:00:00 | 02:44:34 | 00:00:00 | |
| OM5KV | 2026-09-01 02:44:53 | 48.28299 | 18.16873 | 135° | 44km/h | 1700m | -5.1m/s | 11.6°C | 54.2% | 0hPa | 2.7V | 07:40:00 | 00:00:00 | 00:00:00 | |
| OE3JTB-15 | 2026-09-01 02:44:52 | 48.28315 | 18.16849 | 137° | 44km/h | 1709m | -4.3m/s | 11.4°C | 54.3% | 0hPa | 2.7V | 00:00:00 | 00:00:00 | 00:00:00 | |
| ATIDSZ-14 | 2026-09-01 02:44:51 | 48.28315 | 18.16850 | 137° | 44km/h | 1709m | -4.4m/s | 11.5°C | 54.5% | 0hPa | 2.7V | 07:40:00 | 00:00:00 | 00:00:00 | |
| OE3JTB-15 | 2026-09-01 02:44:50 | 48.28330 | 18.16826 | 134° | 42km/h | 1718m | -4.8m/s | 11.4°C | 54.6% | 0hPa | 2.7V | 00:00:00 | 00:00:00 | 00:00:00 | |
| OM5KV | 2026-09-01 02:44:48 | 48.28338 | 18.16814 | 136° | 42km/h | 1723m | -4.6m/s | 11.4°C | 54.9% | 0hPa | 2.7V | 07:40:00 | 00:00:00 | 00:00:00 | |
| OE3JTB-15 | 2026-09-01 02:44:48 | 48.28346 | 18.16803 | 135° | 44km/h | 1728m | -5.1m/s | 11.3°C | 54.9% | 0hPa | 2.7V | 07:40:00 | 02:44:28 | 00:00:00 | |
| OE3JTB-15 | 2026-09-01 02:44:46 | 48.28362 | 18.16780 | 136° | 44km/h | 1737m | -5.1m/s | 11.2°C | 55.0% | 0hPa | 2.7V | 00:00:00 | 00:00:00 | 00:00:00 | |
| OM5KV | 2026-09-01 02:44:44 | 48.28370 | 18.16768 | 137° | 44km/h | 1742m | -4.5m/s | 11.2°C | 55.2% | 0hPa | 2.6V | 07:40:00 | 00:00:00 | 00:00:00 | |
| OE3JTB-15 | 2026-09-01 02:44:44 | 48.28377 | 18.16757 | 135° | 44km/h | 1747m | -4.7m/s | 11.1°C | 55.0% | 0hPa | 2.6V | 00:00:00 | 00:00:00 | 00:00:00 | |
| OE3JTB-15 | 2026-09-01 02:44:42 | 48.28394 | 18.16734 | 136° | 44km/h | 1756m | -5.0m/s | 11.0°C | 54.1% | 0hPa | 2.6V | 00:00:00 | 02:44:22 | 00:00:00 | |
| OM5KV | 2026-09-01 02:44:39 | 48.28409 | 18.16711 | 137° | 44km/h | 1765m | -4.7m/s | 11.0°C | 55.0% | 0hPa | 2.6V | 07:40:00 | 00:00:00 | 00:00:00 | |
| OM5KV | 2026-09-01 02:44:33 | 48.28458 | 18.16640 | 136° | 44km/h | 1794m | -4.9m/s | 10.7°C | 54.7% | 0hPa | 2.6V | 07:40:00 | 00:00:00 | 00:00:00 | |
| OE3JTB-15 | 2026-09-01 02:44:33 | 48.28466 | 18.16629 | 137° | 46km/h | 1799m | -4.7m/s | 10.6°C | 55.0% | 0hPa | 2.6V | 00:00:00 | 00:00:00 | 00:00:00 | |
| ATIDSZ-14 | 2026-09-01 02:44:30 | 48.28482 | 18.16605 | 137° | 46km/h | 1808m | -4.8m/s | 10.6°C | 55.3% | 0hPa | 2.7V | 07:40:00 | 00:00:00 | 00:00:00 | |
| OM5KV | 2026-09-01 02:44:27 | 48.28508 | 18.16570 | 138° | 46km/h | 1822m | -4.9m/s | 10.5°C | 53.8% | 0hPa | 2.7V | 07:40:00 | 00:00:00 | 00:00:00 | |
| OM5KV | 2026-09-01 02:44:24 | 48.28532 | 18.16535 | 137° | 44km/h | 1836m | -4.6m/s | 10.4°C | 53.0% | 0hPa | 2.7V | 07:40:00 | 00:00:00 | 00:00:00 | |
| OE3JTB-15 | 2026-09-01 02:44:24 | 48.28540 | 18.16524 | 137° | 46km/h | 1841m | -4.7m/s | 10.3°C | 52.8% | 0hPa | 2.7V | 00:00:00 | 00:00:00 | 00:00:00 | |
| OM5KV | 2026-09-01 02:44:22 | 48.28548 | 18.16512 | 138° | 46km/h | 1845m | -4.9m/s | 10.3°C | 54.5% | 0hPa | 2.7V | 07:40:00 | 00:00:00 | 00:00:00 | |
| OM5KV | 2026-09-01 02:44:18 | 48.28582 | 18.16464 | 137° | 47km/h | 1864m | -5.0m/s | 10.1°C | 54.8% | 0hPa | 2.7V | 07:41:00 | 00:00:00 | 00:00:00 | |
| OM5KV | 2026-09-01 02:44:16 | 48.28599 | 18.16439 | 137° | 47km/h | 1874m | -5.2m/s | 10.0°C | 55.2% | 0hPa | 2.7V | 07:41:00 | 00:00:00 | 00:00:00 | |
| OE3JTB-15 | 2026-09-01 02:44:15 | 48.28617 | 18.16414 | 137° | 47km/h | 1884m | -4.9m/s | 9.8°C | 54.3% | 0hPa | 2.7V | 00:00:00 | 02:43:55 | 00:00:00 | |
| OM5KV | 2026-09-01 02:44:12 | 48.28634 | 18.16390 | 137° | 47km/h | 1894m | -4.9m/s | 9.8°C | 53.8% | 0hPa | 2.7V | 07:41:00 | 00:00:00 | 00:00:00 | |
| ATIDSZ-14 | 2026-09-01 02:44:10 | 48.28652 | 18.16366 | 137° | 46km/h | 1904m | -5.2m/s | 9.8°C | 51.0% | 0hPa | 2.7V | 07:41:00 | 00:00:00 | 00:00:00 | |
| OM5KV | 2026-09-01 02:44:07 | 48.28678 | 18.16329 | 139° | 47km/h | 1918m | -4.4m/s | 9.6°C | 51.8% | 0hPa | 2.7V | 07:41:00 | 00:00:00 | 00:00:00 | |
| OE3OSB-13 | 2026-09-01 02:43:56 | 48.28780 | 18.16180 | 135° | 47km/h | 1972m | -4.3m/s | 9.3°C | 47.2% | -1.0hPa | 2.7V | 00:00:00 | 00:00:00 | 00:00:00 | |
| OM5KV | 2026-09-01 02:43:53 | 48.28797 | 18.16154 | 135° | 47km/h | 1981m | -4.9m/s | 9.2°C | 47.3% | 0hPa | 2.7V | 07:41:00 | 00:00:00 | 00:00:00 | |
| ATIDSZ-14 | 2026-09-01 02:43:49 | 48.28831 | 18.16102 | 134° | 47km/h | 1999m | -5.0m/s | 9.1°C | 47.0% | 0hPa | 2.7V | 07:41:00 | 00:00:00 | 00:00:00 | |
| OE3JTB-15 | 2026-09-01 02:43:48 | 48.28847 | 18.16076 | 133° | 46km/h | 2009m | -4.7m/s | 9.0°C | 47.0% | 0hPa | 2.7V | 00:00:00 | 02:43:28 | 00:00:00 | |
| OM5KV | 2026-09-01 02:43:47 | 48.28847 | 18.16076 | 134° | 47km/h | 2009m | -4.8m/s | 9.0°C | 47.0% | 0hPa | 2.7V | 07:41:00 | 00:00:00 | 00:00:00 | |
| OM5KV | 2026-09-01 02:43:43 | 48.28879 | 18.16024 | 135° | 47km/h | 2027m | -4.1m/s | 8.9°C | 47.2% | 0hPa | 2.7V | 07:41:00 | 00:00:00 | 00:00:00 | |
| OM5KV | 2026-09-01 02:43:41 | 48.28895 | 18.15999 | 135° | 46km/h | 2035m | -4.2m/s | 8.8°C | 47.4% | 0hPa | 2.7V | 07:41:00 | 00:00:00 | 00:00:00 | |
| OE3JTB-15 | 2026-09-01 02:43:39 | 48.28919 | 18.15960 | 133° | 46km/h | 2048m | -4.5m/s | 8.7°C | 47.9% | 0hPa | 2.7V | 00:00:00 | 00:00:00 | 00:00:00 | |
| OM5KV | 2026-09-01 02:43:37 | 48.28927 | 18.15947 | 133° | 44km/h | 2053m | -4.2m/s | 8.7°C | 48.3% | 0hPa | 2.7V | 07:41:00 | 00:00:00 | 00:00:00 | |
| OM5KV | 2026-09-01 02:43:36 | 48.28935 | 18.15935 | 135° | 46km/h | 2057m | -4.2m/s | 8.6°C | 48.4% | 0hPa | 2.7V | 07:41:00 | 00:00:00 | 00:00:00 | |
| OE3JTB-15 | 2026-09-01 02:43:30 | 48.28988 | 18.15847 | 134° | 42km/h | 2087m | -4.5m/s | 8.3°C | 51.9% | 0hPa | 2.7V | 00:00:00 | 00:00:00 | 00:00:00 | |
| ATIDSZ-14 | 2026-09-01 02:43:29 | 48.28988 | 18.15847 | 134° | 44km/h | 2087m | -4.6m/s | 8.3°C | 51.9% | 0hPa | 2.7V | 07:42:00 | 00:00:00 | 00:00:00 | |
| OM5KV | 2026-09-01 02:43:23 | 48.29032 | 18.15777 | 134° | 42km/h | 2114m | -4.7m/s | 8.2°C | 56.9% | 0hPa | 2.7V | 00:00:00 | 00:00:00 | 00:00:00 | |
| OE3JTB-15 | 2026-09-01 02:43:21 | 48.29055 | 18.15742 | 134° | 40km/h | 2128m | -4.7m/s | 8.0°C | 57.0% | 0hPa | 2.7V | 00:00:00 | 02:43:01 | 00:00:00 | |
| OM5KV | 2026-09-01 02:43:18 | 48.29069 | 18.15719 | 135° | 40km/h | 2137m | -5.0m/s | 8.0°C | 56.7% | 0hPa | 2.7V | 00:00:00 | 00:00:00 | 00:00:00 | |
| OM5KV | 2026-09-01 02:43:13 | 48.29104 | 18.15664 | 134° | 40km/h | 2161m | -4.7m/s | 7.9°C | 55.8% | 0hPa | 2.7V | 00:00:00 | 00:00:00 | 00:00:00 | |
| OE3JTB-15 | 2026-09-01 02:43:12 | 48.29118 | 18.15643 | 135° | 38km/h | 2170m | -4.5m/s | 7.8°C | 55.5% | 0hPa | 2.7V | 00:00:00 | 00:00:00 | 00:00:00 | |
| ATIDSZ-14 | 2026-09-01 02:43:08 | 48.29138 | 18.15612 | 134° | 38km/h | 2184m | -4.9m/s | 7.8°C | 55.6% | 0hPa | 2.6V | 07:42:00 | 00:00:00 | 00:00:00 | |
| OM5KV | 2026-09-01 02:43:07 | 48.29145 | 18.15601 | 135° | 38km/h | 2189m | -5.0m/s | 7.7°C | 55.6% | 0hPa | 2.6V | 00:00:00 | 00:00:00 | 00:00:00 | |
| OE3JTB-15 | 2026-09-01 02:43:03 | 48.29179 | 18.15549 | 135° | 38km/h | 2213m | -4.7m/s | 7.5°C | 56.0% | 0hPa | 2.6V | 00:00:00 | 00:00:00 | 00:00:00 | |
| OM5KV | 2026-09-01 02:43:02 | 48.29179 | 18.15549 | 135° | 38km/h | 2213m | -4.8m/s | 7.6°C | 55.9% | 0hPa | 2.6V | 00:00:00 | 00:00:00 | 00:00:00 | |
| OM5KV | 2026-09-01 02:42:56 | 48.29218 | 18.15486 | 133° | 37km/h | 2242m | -4.8m/s | 7.3°C | 56.1% | 0hPa | 2.6V | 00:00:00 | 00:00:00 | 00:00:00 | |
| OE3JTB-15 | 2026-09-01 02:42:54 | 48.29237 | 18.15454 | 133° | 37km/h | 2257m | -5.0m/s | 7.2°C | 56.2% | 0hPa | 2.6V | 00:00:00 | 02:42:34 | 00:00:00 | |
| ATIDSZ-14 | 2026-09-01 02:42:48 | 48.29268 | 18.15401 | 132° | 37km/h | 2281m | -4.5m/s | 7.0°C | 56.7% | 0hPa | 2.6V | 07:42:00 | 00:00:00 | 00:00:00 | |
| OE3JTB-15 | 2026-09-01 02:42:42 | 48.29311 | 18.15328 | 131° | 38km/h | 2315m | -4.9m/s | 6.8°C | 56.0% | 0hPa | 2.6V | 07:42:00 | 00:00:00 | 00:00:00 | |
| ATIDSZ-14 | 2026-09-01 02:42:27 | 48.29399 | 18.15179 | 133° | 37km/h | 2385m | -5.5m/s | 6.5°C | 49.6% | 0hPa | 2.7V | 07:43:00 | 00:00:00 | 00:00:00 | |
| OE3JTB-15 | 2026-09-01 02:42:23 | 48.29431 | 18.15126 | 132° | 37km/h | 2411m | -4.9m/s | 6.3°C | 49.0% | 0hPa | 2.7V | 00:00:00 | 00:00:00 | 00:00:00 | |
| ATIDSZ-14 | 2026-09-01 02:42:06 | 48.29535 | 18.14963 | 136° | 37km/h | 2491m | -5.0m/s | 5.6°C | 61.1% | 0hPa | 2.7V | 07:43:00 | 00:00:00 | 00:00:00 | |
| OE3JTB-15 | 2026-09-01 02:42:04 | 48.29554 | 18.14934 | 134° | 35km/h | 2506m | -5.0m/s | 5.4°C | 61.7% | 0hPa | 2.7V | 00:00:00 | 02:41:44 | 00:00:00 | |
| OE3OSB-13 | 2026-09-01 02:41:52 | 48.29627 | 18.14818 | 130° | 33km/h | 2566m | -5.1m/s | 4.9°C | 63.8% | -1.0hPa | 2.7V | 00:00:00 | 00:00:00 | 00:00:00 | |
| ATIDSZ-14 | 2026-09-01 02:41:46 | 48.29655 | 18.14769 | 130° | 33km/h | 2593m | -5.4m/s | 4.6°C | 64.6% | 0hPa | 2.7V | 07:44:00 | 00:00:00 | 00:00:00 | |
| OE3JTB-15 | 2026-09-01 02:41:45 | 48.29666 | 18.14750 | 129° | 35km/h | 2604m | -5.2m/s | 4.5°C | 65.1% | 0hPa | 2.7V | 00:00:00 | 00:00:00 | 00:00:00 | |
| OE3JTB-15 | 2026-09-01 02:41:26 | 48.29767 | 18.14555 | 125° | 37km/h | 2706m | -5.2m/s | 3.8°C | 68.2% | 0hPa | 2.7V | 00:00:00 | 00:00:00 | 00:00:00 | |
| OE3OSB-13 | 2026-09-01 02:41:21 | 48.29792 | 18.14498 | 123° | 35km/h | 2732m | -5.1m/s | 3.7°C | 67.4% | -1.0hPa | 2.7V | 00:00:00 | 00:00:00 | 00:00:00 | |
| OE3JTB-15 | 2026-09-01 02:41:07 | 48.29860 | 18.14328 | 120° | 38km/h | 2804m | -5.5m/s | 4.0°C | 48.7% | 0hPa | 2.7V | 00:00:00 | 02:40:47 | 00:00:00 | |
| PETON7-10 | 2026-09-01 02:41:06 | 48.29865 | 18.14316 | 122° | 38km/h | 2810m | -5.2m/s | 4.0°C | 47.8% | 0hPa | 2.7V | 00:00:00 | 00:00:00 | 00:00:00 | |
| ATIDSZ-14 | 2026-09-01 02:41:05 | 48.29866 | 18.14316 | 122° | 38km/h | 2810m | -5.2m/s | 4.0°C | 47.6% | 0hPa | 2.7V | 07:44:00 | 00:00:00 | 00:00:00 | |
| OE3OSB-13 | 2026-09-01 02:40:50 | 48.29941 | 18.14110 | 118° | 38km/h | 2895m | -5.2m/s | 3.6°C | 38.4% | -1.0hPa | 2.7V | 00:00:00 | 00:00:00 | 00:00:00 | |
| OE3JTB-15 | 2026-09-01 02:40:48 | 48.29951 | 18.14083 | 119° | 38km/h | 2905m | -5.5m/s | 3.4°C | 37.7% | 0hPa | 2.7V | 00:00:00 | 00:00:00 | 00:00:00 | |
| ATIDSZ-14 | 2026-09-01 02:40:44 | 48.29965 | 18.14045 | 120° | 38km/h | 2921m | -5.2m/s | 3.3°C | 38.5% | 0hPa | 2.6V | 07:45:00 | 00:00:00 | 00:00:00 | |
| S52SK | 2026-09-01 02:40:42 | 48.29975 | 18.14019 | 120° | 40km/h | 2931m | -5.4m/s | 3.2°C | 38.8% | 0hPa | 2.6V | 00:00:00 | 00:00:00 | 00:00:00 | |
| PETON7-10 | 2026-09-01 02:40:36 | 48.30010 | 18.13931 | 122° | 38km/h | 2969m | -5.5m/s | 2.9°C | 39.0% | 0hPa | 2.6V | 00:00:00 | 02:40:16 | 00:00:00 | |
| HA6NAB-11 | 2026-09-01 02:40:35 | 48.30009 | 18.13931 | 122° | 38km/h | 2969m | -5.6m/s | 2.9°C | 38.8% | 0hPa | 2.6V | 00:00:00 | 00:00:00 | 00:00:00 | |
| OE3JTB-15 | 2026-09-01 02:40:29 | 48.30045 | 18.13843 | 121° | 38km/h | 3005m | -5.4m/s | 2.5°C | 39.6% | 0hPa | 2.6V | 00:00:00 | 00:00:00 | 00:00:00 | |
| ATIDSZ-14 | 2026-09-01 02:40:24 | 48.30069 | 18.13783 | 122° | 37km/h | 3033m | -5.9m/s | 2.4°C | 37.7% | 0hPa | 2.6V | 07:45:00 | 00:00:00 | 00:00:00 | |
| PETON7-10 | 2026-09-01 02:40:21 | 48.30084 | 18.13745 | 122° | 38km/h | 3050m | -5.7m/s | 2.2°C | 37.1% | 0hPa | 2.6V | 00:00:00 | 00:00:00 | 00:00:00 | |
| OE3OSB-13 | 2026-09-01 02:40:19 | 48.30093 | 18.13721 | 120° | 37km/h | 3061m | -5.4m/s | 2.2°C | 37.0% | -1.0hPa | 2.7V | 00:00:00 | 00:00:00 | 00:00:00 | |
| OE3JTB-15 | 2026-09-01 02:40:10 | 48.30136 | 18.13609 | 121° | 37km/h | 3110m | -5.4m/s | 2.0°C | 30.9% | 0hPa | 2.7V | 07:45:00 | 02:39:50 | 00:00:00 | |
| PETON7-10 | 2026-09-01 02:40:06 | 48.30154 | 18.13560 | 117° | 37km/h | 3132m | -5.2m/s | 1.9°C | 30.8% | 0hPa | 2.7V | 00:00:00 | 00:00:00 | 00:00:00 | |
| ATIDSZ-14 | 2026-09-01 02:40:02 | 48.30167 | 18.13524 | 119° | 37km/h | 3149m | -5.5m/s | 1.9°C | 29.8% | 0hPa | 2.7V | 07:45:00 | 00:00:00 | 00:00:00 | |
| OE3OSB-13 | 2026-09-01 02:39:48 | 48.30229 | 18.13343 | 117° | 35km/h | 3230m | -5.7m/s | 1.8°C | 23.4% | -1.0hPa | 2.7V | 00:00:00 | 00:00:00 | 00:00:00 | |
| ATIDSZ-14 | 2026-09-01 02:39:42 | 48.30249 | 18.13283 | 117° | 35km/h | 3258m | -5.0m/s | 1.8°C | 27.5% | 0hPa | 2.7V | 07:45:00 | 00:00:00 | 00:00:00 | |
| PETON7-10 | 2026-09-01 02:39:36 | 48.30277 | 18.13197 | 116° | 37km/h | 3295m | -5.0m/s | 1.7°C | 31.0% | 0hPa | 2.7V | 00:00:00 | 00:00:00 | 00:00:00 | |
| HA6NAB-11 | 2026-09-01 02:39:27 | 48.30311 | 18.13099 | 120° | 37km/h | 3337m | -5.0m/s | 1.6°C | 26.9% | 0hPa | 2.6V | 07:45:00 | 00:00:00 | 00:00:00 | |
| OE3JTB-15 | 2026-09-01 02:39:26 | 48.30320 | 18.13074 | 118° | 40km/h | 3348m | -5.3m/s | 1.5°C | 27.2% | 0hPa | 2.6V | 00:00:00 | 00:00:00 | 00:00:00 | |
| ATIDSZ-14 | 2026-09-01 02:39:22 | 48.30333 | 18.13037 | 119° | 37km/h | 3363m | -5.1m/s | 1.4°C | 27.3% | 0hPa | 2.6V | 07:45:00 | 00:00:00 | 00:00:00 | |
| PETON7-10 | 2026-09-01 02:39:21 | 48.30342 | 18.13012 | 118° | 38km/h | 3374m | -5.5m/s | 1.2°C | 28.2% | 0hPa | 2.6V | 07:45:00 | 00:00:00 | 00:00:00 | |
| OE3OSB-13 | 2026-09-01 02:39:17 | 48.30365 | 18.12949 | 119° | 38km/h | 3399m | -5.4m/s | 1.0°C | 27.8% | -1.0hPa | 2.6V | 00:00:00 | 00:00:00 | 00:00:00 | |
| HA6NAB-11 | 2026-09-01 02:39:15 | 48.30365 | 18.12949 | 120° | 38km/h | 3399m | -5.4m/s | 1.0°C | 27.8% | 0hPa | 2.6V | 07:46:00 | 00:00:00 | 00:00:00 | |
| HA6NAB-11 | 2026-09-01 02:39:10 | 48.30390 | 18.12884 | 120° | 40km/h | 3427m | -5.6m/s | 0.8°C | 27.9% | 0hPa | 2.6V | 07:46:00 | 00:00:00 | 00:00:00 | |
| PETON7-10 | 2026-09-01 02:39:06 | 48.30416 | 18.12817 | 120° | 44km/h | 3455m | -5.9m/s | 0.5°C | 29.4% | 0hPa | 2.6V | 00:00:00 | 02:38:46 | 00:00:00 | |
| HA6NAB-11 | 2026-09-01 02:39:04 | 48.30421 | 18.12804 | 121° | 42km/h | 3461m | -5.8m/s | 0.5°C | 29.9% | 0hPa | 2.6V | 07:46:00 | 00:00:00 | 00:00:00 | |
| OE3OSB-13 | 2026-09-01 02:38:46 | 48.30529 | 18.12511 | 115° | 44km/h | 3576m | -5.7m/s | -0.4°C | 34.5% | -1.0hPa | 2.6V | 00:00:00 | 00:00:00 | 00:00:00 | |
| ATIDSZ-14 | 2026-09-01 02:38:41 | 48.30544 | 18.12466 | 117° | 46km/h | 3593m | -5.9m/s | -0.5°C | 34.8% | 0hPa | 2.6V | 07:46:00 | 00:00:00 | 00:00:00 | |
| PETON7-10 | 2026-09-01 02:38:36 | 48.30572 | 18.12376 | 114° | 42km/h | 3628m | -6.0m/s | -0.5°C | 33.8% | 0hPa | 2.6V | 00:00:00 | 00:00:00 | 00:00:00 | |
| OM5KV | 2026-09-01 02:38:29 | 48.30597 | 18.12285 | 112° | 42km/h | 3665m | -6.4m/s | -0.5°C | 28.5% | 0hPa | 2.6V | 07:46:00 | 00:00:00 | 00:00:00 | |
| OM5KV | 2026-09-01 02:38:23 | 48.30618 | 18.12194 | 108° | 42km/h | 3701m | -5.8m/s | -0.6°C | 28.6% | 0hPa | 2.6V | 07:47:00 | 00:00:00 | 00:00:00 | |
| PETON7-10 | 2026-09-01 02:38:21 | 48.30629 | 18.12149 | 108° | 42km/h | 3719m | -6.3m/s | -0.6°C | 28.5% | 0hPa | 2.6V | 00:00:00 | 02:38:01 | 00:00:00 | |
| ATIDSZ-14 | 2026-09-01 02:38:20 | 48.30629 | 18.12149 | 109° | 42km/h | 3719m | -6.4m/s | -0.7°C | 28.1% | 0hPa | 2.6V | 07:47:00 | 00:00:00 | 00:00:00 | |
| HA6NAB-11 | 2026-09-01 02:38:16 | 48.30641 | 18.12089 | 107° | 40km/h | 3742m | -6.2m/s | -0.9°C | 27.9% | 0hPa | 2.6V | 00:00:00 | 00:00:00 | 00:00:00 | |
| OE3OSB-13 | 2026-09-01 02:38:15 | 48.30650 | 18.12044 | 105° | 40km/h | 3760m | -6.4m/s | -1.0°C | 27.7% | -1.0hPa | 2.6V | 00:00:00 | 00:00:00 | 00:00:00 | |
| HA6NAB-11 | 2026-09-01 02:38:11 | 48.30656 | 18.12013 | 109° | 42km/h | 3772m | -5.6m/s | -1.0°C | 27.2% | 0hPa | 2.6V | 00:00:00 | 00:00:00 | 00:00:00 | |
| PETON7-10 | 2026-09-01 02:38:06 | 48.30672 | 18.11923 | 105° | 40km/h | 3807m | -6.0m/s | -1.3°C | 27.5% | 0hPa | 2.6V | 00:00:00 | 00:00:00 | 00:00:00 | |
| HA6NAB-11 | 2026-09-01 02:38:05 | 48.30672 | 18.11923 | 105° | 40km/h | 3807m | -6.1m/s | -1.3°C | 27.2% | 0hPa | 2.6V | 00:00:00 | 00:00:00 | 00:00:00 | |
| OM5KV | 2026-09-01 02:38:01 | 48.30682 | 18.11864 | 104° | 40km/h | 3831m | -6.5m/s | -1.4°C | 25.7% | 0hPa | 2.6V | 07:47:00 | 00:00:00 | 00:00:00 | |
| ATIDSZ-14 | 2026-09-01 02:38:00 | 48.30684 | 18.11849 | 105° | 40km/h | 3837m | -6.0m/s | -1.5°C | 25.7% | 0hPa | 2.6V | 07:47:00 | 00:00:00 | 00:00:00 | |
| OE3JTB-15 | 2026-09-01 02:37:59 | 48.30689 | 18.11820 | 103° | 40km/h | 3849m | -5.8m/s | -1.5°C | 26.2% | 0hPa | 2.6V | 00:00:00 | 00:00:00 | 00:00:00 | |
| OM5KV | 2026-09-01 02:37:55 | 48.30696 | 18.11776 | 104° | 40km/h | 3867m | -6.1m/s | -1.7°C | 26.0% | 0hPa | 2.6V | 07:47:00 | 00:00:00 | 00:00:00 | |
| OM5KV | 2026-09-01 02:37:54 | 48.30698 | 18.11761 | 104° | 40km/h | 3872m | -6.4m/s | -1.8°C | 26.1% | 0hPa | 2.6V | 07:47:00 | 00:00:00 | 00:00:00 | |
| HA6NAB-11 | 2026-09-01 02:37:53 | 48.30701 | 18.11747 | 104° | 40km/h | 3879m | -6.1m/s | -1.9°C | 26.2% | 0hPa | 2.6V | 00:00:00 | 00:00:00 | 00:00:00 | |
| PETON7-10 | 2026-09-01 02:37:51 | 48.30708 | 18.11703 | 103° | 40km/h | 3896m | -6.1m/s | -2.0°C | 26.8% | 0hPa | 2.6V | 00:00:00 | 00:00:00 | 00:00:00 | |
| OM5KV | 2026-09-01 02:37:43 | 48.30723 | 18.11599 | 106° | 40km/h | 3939m | -5.8m/s | -2.3°C | 26.7% | 0hPa | 2.6V | 07:47:00 | 00:00:00 | 00:00:00 | |
| ATIDSZ-14 | 2026-09-01 02:37:40 | 48.30730 | 18.11554 | 104° | 40km/h | 3957m | -5.8m/s | -2.5°C | 26.9% | 0hPa | 2.6V | 07:47:00 | 00:00:00 | 00:00:00 | |
| OM5KV | 2026-09-01 02:37:38 | 48.30734 | 18.11524 | 103° | 40km/h | 3968m | -5.8m/s | -2.6°C | 27.1% | 0hPa | 2.6V | 07:47:00 | 00:00:00 | 00:00:00 | |
| OM5KV | 2026-09-01 02:37:37 | 48.30736 | 18.11509 | 103° | 42km/h | 3974m | -6.0m/s | -2.7°C | 27.2% | 0hPa | 2.6V | 07:47:00 | 00:00:00 | 00:00:00 | |
| PETON7-10 | 2026-09-01 02:37:36 | 48.30741 | 18.11479 | 101° | 42km/h | 3986m | -6.4m/s | -2.7°C | 27.8% | 0hPa | 2.6V | 00:00:00 | 02:37:16 | 00:00:00 | |
| OE3JTB-15 | 2026-09-01 02:37:30 | 48.30754 | 18.11388 | 104° | 44km/h | 4022m | -5.7m/s | -3.1°C | 28.3% | 0hPa | 2.6V | 00:00:00 | 02:37:10 | 00:00:00 | |
| OM5KV | 2026-09-01 02:37:25 | 48.30762 | 18.11325 | 102° | 42km/h | 4045m | -5.6m/s | -3.3°C | 28.1% | 0hPa | 2.6V | 07:48:00 | 00:00:00 | 00:00:00 | |
| PETON7-10 | 2026-09-01 02:37:21 | 48.30773 | 18.11245 | 101° | 44km/h | 4074m | -5.5m/s | -3.5°C | 29.0% | 0hPa | 2.6V | 07:47:00 | 00:00:00 | 00:00:00 | |
| ATIDSZ-14 | 2026-09-01 02:37:19 | 48.30775 | 18.11229 | 102° | 44km/h | 4079m | -5.8m/s | -3.6°C | 28.7% | 0hPa | 2.6V | 07:48:00 | 00:00:00 | 00:00:00 | |
| OM5KV | 2026-09-01 02:37:15 | 48.30784 | 18.11164 | 101° | 44km/h | 4103m | -5.7m/s | -3.8°C | 29.1% | 0hPa | 2.6V | 07:48:00 | 00:00:00 | 00:00:00 | |
| OM5KV | 2026-09-01 02:37:14 | 48.30786 | 18.11148 | 101° | 44km/h | 4109m | -6.0m/s | -3.9°C | 29.2% | 0hPa | 2.6V | 07:48:00 | 00:00:00 | 00:00:00 | |
| OE3OSB-13 | 2026-09-01 02:37:13 | 48.30792 | 18.11097 | 100° | 44km/h | 4126m | -6.2m/s | -4.0°C | 29.3% | -1.0hPa | 2.6V | 00:00:00 | 00:00:00 | 00:00:00 | |
| OM5KV | 2026-09-01 02:37:08 | 48.30798 | 18.11047 | 99° | 46km/h | 4144m | -5.8m/s | -4.1°C | 29.4% | 0hPa | 2.6V | 07:48:00 | 00:00:00 | 00:00:00 | |
| HA6NAB-11 | 2026-09-01 02:37:07 | 48.30799 | 18.11030 | 100° | 46km/h | 4150m | -6.0m/s | -4.2°C | 29.5% | 0hPa | 2.6V | 00:00:00 | 00:00:00 | 00:00:00 | |
| PETON7-10 | 2026-09-01 02:37:06 | 48.30803 | 18.10995 | 100° | 47km/h | 4162m | -6.2m/s | -4.2°C | 30.3% | 0hPa | 2.6V | 00:00:00 | 00:00:00 | 00:00:00 | |
| OM5KV | 2026-09-01 02:37:04 | 48.30805 | 18.10978 | 102° | 46km/h | 4168m | -5.7m/s | -4.3°C | 29.9% | 0hPa | 2.6V | 07:48:00 | 00:00:00 | 00:00:00 | |
| OM5KV | 2026-09-01 02:37:03 | 48.30807 | 18.10961 | 97° | 46km/h | 4173m | -5.8m/s | -4.4°C | 30.1% | 0hPa | 2.6V | 07:48:00 | 00:00:00 | 00:00:00 | |
| OE3JTB-15 | 2026-09-01 02:37:01 | 48.30812 | 18.10908 | 98° | 51km/h | 4191m | -5.6m/s | -4.5°C | 31.2% | 0hPa | 2.6V | 00:00:00 | 00:00:00 | 00:00:00 | |
| ATIDSZ-14 | 2026-09-01 02:37:00 | 48.30814 | 18.10890 | 99° | 47km/h | 4196m | -6.0m/s | -4.6°C | 30.8% | 0hPa | 2.6V | 07:48:00 | 00:00:00 | 00:00:00 | |
| OM5KV | 2026-09-01 02:36:57 | 48.30816 | 18.10854 | 97° | 47km/h | 4209m | -6.5m/s | -4.7°C | 31.2% | 0hPa | 2.6V | 07:48:00 | 00:00:00 | 00:00:00 | |
| HA6NAB-11 | 2026-09-01 02:36:55 | 48.30819 | 18.10818 | 95° | 47km/h | 4222m | -7.4m/s | -4.7°C | 31.7% | 0hPa | 2.6V | 00:00:00 | 00:00:00 | 00:00:00 | |
| OM5KV | 2026-09-01 02:36:52 | 48.30823 | 18.10763 | 94° | 47km/h | 4245m | -7.2m/s | -4.9°C | 31.2% | 0hPa | 2.6V | 07:48:00 | 00:00:00 | 00:00:00 | |
| PETON7-10 | 2026-09-01 02:36:51 | 48.30825 | 18.10725 | 97° | 51km/h | 4259m | -7.7m/s | -4.9°C | 32.3% | 0hPa | 2.6V | 00:00:00 | 02:36:31 | 00:00:00 | |
| HA6NAB-11 | 2026-09-01 02:36:49 | 48.30827 | 18.10707 | 96° | 49km/h | 4267m | -7.2m/s | -5.1°C | 31.7% | 0hPa | 2.6V | 00:00:00 | 00:00:00 | 00:00:00 | |
| OM5KV | 2026-09-01 02:36:46 | 48.30830 | 18.10651 | 96° | 51km/h | 4289m | -7.4m/s | -5.2°C | 32.3% | 0hPa | 2.6V | 07:48:00 | 00:00:00 | 00:00:00 | |
| OE3OSB-13 | 2026-09-01 02:36:42 | 48.30835 | 18.10536 | 91° | 51km/h | 4332m | -7.3m/s | -5.4°C | 23.7% | -1.0hPa | 2.6V | 00:00:00 | 00:00:00 | 00:00:00 | |
| ATIDSZ-14 | 2026-09-01 02:36:39 | 48.30835 | 18.10517 | 91° | 51km/h | 4339m | -7.1m/s | -5.5°C | 23.2% | 0hPa | 2.6V | 07:49:00 | 00:00:00 | 00:00:00 | |
| PETON7-10 | 2026-09-01 02:36:36 | 48.30836 | 18.10437 | 88° | 55km/h | 4367m | -6.8m/s | -5.6°C | 24.1% | 0hPa | 2.6V | 00:00:00 | 00:00:00 | 00:00:00 | |
| OM5KV | 2026-09-01 02:36:35 | 48.30836 | 18.10437 | 89° | 53km/h | 4367m | -6.9m/s | -5.7°C | 23.6% | 0hPa | 2.5V | 07:49:00 | 00:00:00 | 00:00:00 | |
| OE3JTB-15 | 2026-09-01 02:36:32 | 48.30836 | 18.10356 | 92° | 55km/h | 4396m | -7.8m/s | -5.9°C | 25.4% | 0hPa | 2.5V | 07:48:00 | 00:00:00 | 00:00:00 | |
| OM5KV | 2026-09-01 02:36:30 | 48.30836 | 18.10336 | 93° | 53km/h | 4403m | -7.9m/s | -6.0°C | 24.4% | 0hPa | 2.5V | 07:49:00 | 00:00:00 | 00:00:00 | |
| OM5KV | 2026-09-01 02:36:29 | 48.30836 | 18.10316 | 90° | 51km/h | 4411m | -7.7m/s | -5.9°C | 25.5% | 0hPa | 2.5V | 07:49:00 | 00:00:00 | 00:00:00 | |
| OM5KV | 2026-09-01 02:36:24 | 48.30832 | 18.10215 | 87° | 55km/h | 4447m | -6.9m/s | -6.1°C | 30.0% | 0hPa | 2.5V | 07:49:00 | 00:00:00 | 00:00:00 | |
| OM5KV | 2026-09-01 02:36:23 | 48.30830 | 18.10194 | 87° | 57km/h | 4454m | -7.4m/s | -6.2°C | 29.9% | 0hPa | 2.5V | 07:49:00 | 00:00:00 | 00:00:00 | |
| PETON7-10 | 2026-09-01 02:36:21 | 48.30827 | 18.10130 | 83° | 57km/h | 4475m | -7.3m/s | -6.4°C | 31.2% | 0hPa | 2.5V | 00:00:00 | 00:00:00 | 00:00:00 | |
| ATIDSZ-14 | 2026-09-01 02:36:19 | 48.30825 | 18.10110 | 84° | 55km/h | 4482m | -7.4m/s | -6.5°C | 30.5% | 0hPa | 2.5V | 07:49:00 | 00:00:00 | 00:00:00 | |
| OM5KV | 2026-09-01 02:36:18 | 48.30823 | 18.10090 | 85° | 55km/h | 4490m | -7.7m/s | -6.6°C | 30.8% | 0hPa | 2.5V | 07:49:00 | 00:00:00 | 00:00:00 | |
| OM5KV | 2026-09-01 02:36:17 | 48.30822 | 18.10069 | 87° | 55km/h | 4498m | -7.9m/s | -6.6°C | 31.0% | 0hPa | 2.5V | 07:49:00 | 00:00:00 | 00:00:00 | |
| HA6NAB-11 | 2026-09-01 02:36:13 | 48.30817 | 18.09986 | 85° | 57km/h | 4528m | -7.6m/s | -6.9°C | 31.9% | 0hPa | 2.5V | 07:49:00 | 00:00:00 | 00:00:00 | |
| OM5KV | 2026-09-01 02:36:12 | 48.30816 | 18.09964 | 86° | 57km/h | 4535m | -7.7m/s | -6.9°C | 33.3% | 0hPa | 2.5V | 07:49:00 | 00:00:00 | 00:00:00 | |
| OM5KV | 2026-09-01 02:36:11 | 48.30814 | 18.09942 | 86° | 57km/h | 4543m | -7.3m/s | -7.0°C | 34.1% | 0hPa | 2.5V | 07:49:00 | 00:00:00 | 00:00:00 | |
| OE3OSB-13 | 2026-09-01 02:36:10 | 48.30811 | 18.09900 | 82° | 57km/h | 4558m | -7.2m/s | -7.1°C | 35.0% | -1.0hPa | 2.5V | 00:00:00 | 00:00:00 | 00:00:00 | |
| HA6NAB-11 | 2026-09-01 02:36:08 | 48.30809 | 18.09879 | 85° | 57km/h | 4565m | -6.8m/s | -7.2°C | 35.3% | 0hPa | 2.5V | 07:49:00 | 00:00:00 | 00:00:00 | |
| PETON7-10 | 2026-09-01 02:36:06 | 48.30803 | 18.09814 | 83° | 60km/h | 4585m | -7.2m/s | -7.4°C | 36.3% | 0hPa | 2.5V | 00:00:00 | 02:35:46 | 00:00:00 | |
| OM5KV | 2026-09-01 02:36:05 | 48.30803 | 18.09814 | 83° | 58km/h | 4585m | -7.2m/s | -7.4°C | 35.5% | 0hPa | 2.5V | 07:49:00 | 00:00:00 | 00:00:00 | |
| HA6NAB-11 | 2026-09-01 02:36:03 | 48.30798 | 18.09770 | 83° | 60km/h | 4599m | -6.6m/s | -7.5°C | 35.5% | 0hPa | 2.5V | 07:49:00 | 00:00:00 | 00:00:00 | |
| OM5KV | 2026-09-01 02:36:00 | 48.30791 | 18.09702 | 83° | 60km/h | 4620m | -6.9m/s | -7.8°C | 35.6% | 0hPa | 2.5V | 07:49:00 | 00:00:00 | 00:00:00 | |
| OM5KV | 2026-09-01 02:35:59 | 48.30789 | 18.09680 | 82° | 60km/h | 4627m | -6.7m/s | -7.8°C | 36.0% | 0hPa | 2.5V | 07:49:00 | 00:00:00 | 00:00:00 | |
| ATIDSZ-14 | 2026-09-01 02:35:58 | 48.30786 | 18.09657 | 80° | 58km/h | 4634m | -7.0m/s | -7.9°C | 36.7% | 0hPa | 2.5V | 07:49:00 | 00:00:00 | 00:00:00 | |
| HA6NAB-11 | 2026-09-01 02:35:57 | 48.30784 | 18.09636 | 84° | 58km/h | 4640m | -7.3m/s | -7.9°C | 37.7% | 0hPa | 2.5V | 07:49:00 | 00:00:00 | 00:00:00 | |
| OM5KV | 2026-09-01 02:35:54 | 48.30777 | 18.09569 | 80° | 58km/h | 4662m | -7.5m/s | -8.1°C | 41.8% | 0hPa | 2.5V | 07:49:00 | 00:00:00 | 00:00:00 | |
| OM5KV | 2026-09-01 02:35:53 | 48.30774 | 18.09547 | 82° | 60km/h | 4669m | -6.9m/s | -8.1°C | 45.8% | 0hPa | 2.5V | 07:49:00 | 00:00:00 | 00:00:00 | |
| PETON7-10 | 2026-09-01 02:35:51 | 48.30765 | 18.09478 | 78° | 62km/h | 4690m | -7.1m/s | -8.3°C | 49.0% | 0hPa | 2.5V | 00:00:00 | 00:00:00 | 00:00:00 | |
| OM5KV | 2026-09-01 02:35:47 | 48.30756 | 18.09410 | 77° | 62km/h | 4711m | -7.4m/s | -8.5°C | 48.5% | 0hPa | 2.5V | 07:50:00 | 00:00:00 | 00:00:00 | |
| HA6NAB-11 | 2026-09-01 02:35:45 | 48.30749 | 18.09365 | 79° | 60km/h | 4725m | -7.2m/s | -8.6°C | 50.6% | 0hPa | 2.5V | 07:50:00 | 00:00:00 | 00:00:00 | |
| OM5KV | 2026-09-01 02:35:43 | 48.30743 | 18.09319 | 81° | 62km/h | 4739m | -7.2m/s | -8.7°C | 51.4% | 0hPa | 2.5V | 07:50:00 | 00:00:00 | 00:00:00 | |
| OM5KV | 2026-09-01 02:35:41 | 48.30736 | 18.09273 | 76° | 62km/h | 4753m | -7.4m/s | -8.9°C | 51.8% | 0hPa | 2.5V | 07:50:00 | 00:00:00 | 00:00:00 | |
| OE3OSB-13 | 2026-09-01 02:35:39 | 48.30726 | 18.09205 | 77° | 64km/h | 4775m | -7.4m/s | -9.1°C | 52.7% | -1.0hPa | 2.5V | 00:00:00 | 00:00:00 | 00:00:00 | |
| ATIDSZ-14 | 2026-09-01 02:35:38 | 48.30726 | 18.09204 | 78° | 64km/h | 4775m | -7.4m/s | -9.1°C | 52.8% | 0hPa | 2.5V | 07:50:00 | 00:00:00 | 00:00:00 | |
| OM5KV | 2026-09-01 02:35:37 | 48.30722 | 18.09181 | 77° | 64km/h | 4782m | -7.1m/s | -9.1°C | 54.0% | 0hPa | 2.5V | 07:50:00 | 00:00:00 | 00:00:00 | |
| PETON7-10 | 2026-09-01 02:35:36 | 48.30714 | 18.09134 | 75° | 66km/h | 4796m | -7.3m/s | -9.2°C | 61.1% | 0hPa | 2.5V | 00:00:00 | 00:00:00 | 00:00:00 | |
| OE3JTB-15 | 2026-09-01 02:35:34 | 48.30706 | 18.09087 | 77° | 66km/h | 4809m | -7.4m/s | -9.3°C | 61.8% | 0hPa | 2.5V | 00:00:00 | 00:00:00 | 00:00:00 | |
| S52SK | 2026-09-01 02:35:30 | 48.30694 | 18.09015 | 77° | 68km/h | 4830m | -7.6m/s | -9.6°C | 61.4% | 0hPa | 2.6V | 00:00:00 | 00:00:00 | 00:00:00 | |
| PETON7-10 | 2026-09-01 02:35:21 | 48.30651 | 18.08773 | 78° | 66km/h | 4902m | -7.6m/s | -10.2°C | 70.3% | 0hPa | 2.6V | 07:49:00 | 02:35:01 | 00:00:00 | |
| OM5KV | 2026-09-01 02:35:20 | 48.30651 | 18.08773 | 78° | 66km/h | 4902m | -7.7m/s | -10.2°C | 68.7% | 0hPa | 2.6V | 07:50:00 | 00:00:00 | 00:00:00 | |
| OM5KV | 2026-09-01 02:35:19 | 48.30647 | 18.08749 | 75° | 66km/h | 4910m | -7.6m/s | -10.3°C | 69.8% | 0hPa | 2.6V | 07:50:00 | 00:00:00 | 00:00:00 | |
| ATIDSZ-14 | 2026-09-01 02:35:18 | 48.30643 | 18.08725 | 77° | 66km/h | 4917m | -7.5m/s | -10.4°C | 70.0% | 0hPa | 2.6V | 07:50:00 | 00:00:00 | 00:00:00 | |
| OM5KV | 2026-09-01 02:35:14 | 48.30626 | 18.08628 | 76° | 68km/h | 4945m | -7.5m/s | -10.6°C | 74.9% | 0hPa | 2.6V | 07:50:00 | 00:00:00 | 00:00:00 | |
| OM5KV | 2026-09-01 02:35:13 | 48.30622 | 18.08603 | 76° | 66km/h | 4953m | -7.3m/s | -10.7°C | 77.2% | 0hPa | 2.6V | 07:50:00 | 00:00:00 | 00:00:00 | |
| HA6NAB-11 | 2026-09-01 02:35:09 | 48.30604 | 18.08506 | 76° | 66km/h | 4983m | -7.5m/s | -10.8°C | 79.5% | 0hPa | 2.6V | 07:50:00 | 00:00:00 | 00:00:00 | |
| OE3OSB-13 | 2026-09-01 02:35:08 | 48.30596 | 18.08458 | 76° | 66km/h | 4997m | -7.4m/s | -10.9°C | 79.7% | -1.0hPa | 2.6V | 00:00:00 | 00:00:00 | 00:00:00 | |
| OM5KV | 2026-09-01 02:35:07 | 48.30597 | 18.08458 | 77° | 68km/h | 4997m | -7.4m/s | -10.9°C | 79.8% | 0hPa | 2.6V | 07:50:00 | 00:00:00 | 00:00:00 | |
| PETON7-10 | 2026-09-01 02:35:06 | 48.30588 | 18.08409 | 79° | 68km/h | 5012m | -7.2m/s | -10.9°C | 75.1% | 0hPa | 2.6V | 00:00:00 | 00:00:00 | 00:00:00 | |
| OE3JTB-15 | 2026-09-01 02:35:05 | 48.30584 | 18.08384 | 78° | 71km/h | 5019m | -7.3m/s | -11.0°C | 76.4% | 0hPa | 2.6V | 00:00:00 | 00:00:00 | 00:00:00 | |
| HA6NAB-11 | 2026-09-01 02:35:03 | 48.30581 | 18.08360 | 78° | 68km/h | 5027m | -7.4m/s | -11.1°C | 74.8% | 0hPa | 2.6V | 07:50:00 | 00:00:00 | 00:00:00 | |
| OM5KV | 2026-09-01 02:35:01 | 48.30573 | 18.08310 | 78° | 68km/h | 5041m | -7.4m/s | -11.3°C | 76.2% | 0hPa | 2.6V | 07:50:00 | 00:00:00 | 00:00:00 | |
| ATIDSZ-14 | 2026-09-01 02:34:58 | 48.30561 | 18.08234 | 80° | 68km/h | 5062m | -6.9m/s | -11.5°C | 77.6% | 0hPa | 2.6V | 07:51:00 | 00:00:00 | 00:00:00 | |
| HA6NAB-11 | 2026-09-01 02:34:57 | 48.30558 | 18.08209 | 77° | 68km/h | 5069m | -7.2m/s | -11.5°C | 76.5% | 0hPa | 2.6V | 00:00:00 | 00:00:00 | 00:00:00 | |
| OM5KV | 2026-09-01 02:34:55 | 48.30549 | 18.08158 | 80° | 69km/h | 5083m | -7.4m/s | -11.5°C | 69.8% | 0hPa | 2.6V | 07:51:00 | 00:00:00 | 00:00:00 | |
| HA6NAB-11 | 2026-09-01 02:34:52 | 48.30538 | 18.08082 | 79° | 69km/h | 5105m | -7.4m/s | -11.5°C | 56.9% | 0hPa | 2.6V | 00:00:00 | 00:00:00 | 00:00:00 | |
| PETON7-10 | 2026-09-01 02:34:51 | 48.30531 | 18.08030 | 81° | 73km/h | 5120m | -6.9m/s | -11.4°C | 48.5% | 0hPa | 2.6V | 00:00:00 | 00:00:00 | 00:00:00 | |
| OM5KV | 2026-09-01 02:34:49 | 48.30528 | 18.08003 | 82° | 69km/h | 5127m | -7.2m/s | -11.4°C | 42.7% | 0hPa | 2.6V | 07:51:00 | 00:00:00 | 00:00:00 | |
| HA6NAB-11 | 2026-09-01 02:34:47 | 48.30523 | 18.07950 | 82° | 71km/h | 5141m | -7.4m/s | -11.2°C | 30.5% | 0hPa | 2.6V | 00:00:00 | 00:00:00 | 00:00:00 | |
| OM5KV | 2026-09-01 02:34:44 | 48.30514 | 18.07868 | 82° | 75km/h | 5163m | -7.4m/s | -11.3°C | 24.8% | 0hPa | 2.6V | 07:51:00 | 00:00:00 | 00:00:00 | |
| OM5KV | 2026-09-01 02:34:43 | 48.30511 | 18.07840 | 82° | 75km/h | 5169m | -7.1m/s | -11.4°C | 24.6% | 0hPa | 2.6V | 07:51:00 | 00:00:00 | 00:00:00 | |
| HA6NAB-11 | 2026-09-01 02:34:41 | 48.30505 | 18.07785 | 82° | 73km/h | 5183m | -7.4m/s | -11.4°C | 23.2% | 0hPa | 2.6V | 00:00:00 | 00:00:00 | 00:00:00 | |
| OM5KV | 2026-09-01 02:34:38 | 48.30496 | 18.07702 | 84° | 73km/h | 5205m | -7.3m/s | -11.6°C | 22.7% | 0hPa | 2.6V | 07:51:00 | 00:00:00 | 00:00:00 | |
| OE3OSB-13 | 2026-09-01 02:34:37 | 48.30491 | 18.07647 | 82° | 73km/h | 5219m | -8.0m/s | -11.6°C | 21.9% | -1.0hPa | 2.6V | 00:00:00 | 00:00:00 | 00:00:00 | |
| PETON7-10 | 2026-09-01 02:34:36 | 48.30489 | 18.07618 | 83° | 75km/h | 5227m | -7.4m/s | -11.6°C | 22.5% | 0hPa | 2.6V | 00:00:00 | 02:34:16 | 00:00:00 | |
| OM5KV | 2026-09-01 02:34:32 | 48.30481 | 18.07534 | 84° | 75km/h | 5247m | -7.9m/s | -11.8°C | 21.1% | 0hPa | 2.6V | 07:51:00 | 00:00:00 | 00:00:00 | |
| OM5KV | 2026-09-01 02:34:26 | 48.30468 | 18.07365 | 85° | 73km/h | 5292m | -8.1m/s | -11.9°C | 20.5% | 0hPa | 2.6V | 07:51:00 | 00:00:00 | 00:00:00 | |
| OM5KV | 2026-09-01 02:34:22 | 48.30459 | 18.07252 | 83° | 75km/h | 5322m | -7.5m/s | -12.1°C | 22.3% | 0hPa | 2.6V | 07:51:00 | 00:00:00 | 00:00:00 | |
| PETON7-10 | 2026-09-01 02:34:21 | 48.30454 | 18.07195 | 82° | 77km/h | 5336m | -7.3m/s | -12.2°C | 24.3% | 0hPa | 2.6V | 00:00:00 | 00:00:00 | 00:00:00 | |
| OM5KV | 2026-09-01 02:34:20 | 48.30454 | 18.07195 | 83° | 75km/h | 5336m | -7.4m/s | -12.3°C | 23.5% | 0hPa | 2.5V | 07:51:00 | 00:00:00 | 00:00:00 | |
| ATIDSZ-14 | 2026-09-01 02:34:16 | 48.30446 | 18.07080 | 85° | 78km/h | 5367m | -7.8m/s | -12.4°C | 23.6% | 0hPa | 2.5V | 07:51:00 | 00:00:00 | 00:00:00 | |
| OM5KV | 2026-09-01 02:34:14 | 48.30442 | 18.07022 | 86° | 77km/h | 5381m | -7.7m/s | -12.5°C | 24.4% | 0hPa | 2.5V | 07:51:00 | 00:00:00 | 00:00:00 | |
| OM5KV | 2026-09-01 02:34:10 | 48.30433 | 18.06905 | 87° | 77km/h | 5409m | -7.4m/s | -12.6°C | 27.2% | 0hPa | 2.5V | 07:51:00 | 00:00:00 | 00:00:00 | |
| S52SK | 2026-09-01 02:34:08 | 48.30429 | 18.06846 | 84° | 77km/h | 5424m | -7.4m/s | -12.6°C | 26.3% | 0hPa | 2.5V | 00:00:00 | 00:00:00 | 00:00:00 | |
| OE3JTB-15 | 2026-09-01 02:34:07 | 48.30426 | 18.06786 | 86° | 82km/h | 5438m | -7.3m/s | -12.6°C | 25.5% | 0hPa | 2.5V | 00:00:00 | 00:00:00 | 00:00:00 | |
| PETON7-10 | 2026-09-01 02:34:06 | 48.30424 | 18.06756 | 84° | 82km/h | 5445m | -7.6m/s | -12.6°C | 24.6% | 0hPa | 2.5V | 00:00:00 | 00:00:00 | 00:00:00 | |
| OM5KV | 2026-09-01 02:34:05 | 48.30424 | 18.06756 | 85° | 78km/h | 5445m | -7.6m/s | -12.7°C | 23.7% | 0hPa | 2.5V | 07:51:00 | 00:00:00 | 00:00:00 | |
| OM5KV | 2026-09-01 02:34:03 | 48.30421 | 18.06696 | 88° | 80km/h | 5460m | -7.6m/s | -12.7°C | 22.9% | 0hPa | 2.5V | 07:51:00 | 00:00:00 | 00:00:00 | |
| S52SK | 2026-09-01 02:34:02 | 48.30419 | 18.06665 | 87° | 82km/h | 5468m | -7.6m/s | -12.7°C | 21.8% | 0hPa | 2.5V | 00:00:00 | 00:00:00 | 00:00:00 | |
| OM5KV | 2026-09-01 02:33:59 | 48.30415 | 18.06572 | 86° | 80km/h | 5489m | -7.3m/s | -12.8°C | 22.3% | 0hPa | 2.5V | 07:51:00 | 00:00:00 | 00:00:00 | |
| OM5KV | 2026-09-01 02:33:58 | 48.30413 | 18.06542 | 85° | 80km/h | 5497m | -7.4m/s | -12.8°C | 19.4% | 0hPa | 2.5V | 07:51:00 | 00:00:00 | 00:00:00 | |
| ATIDSZ-14 | 2026-09-01 02:33:56 | 48.30409 | 18.06480 | 86° | 82km/h | 5512m | -7.5m/s | -12.6°C | 11.6% | 0hPa | 2.5V | 07:51:00 | 00:00:00 | 00:00:00 | |
| OM5KV | 2026-09-01 02:33:54 | 48.30406 | 18.06418 | 88° | 82km/h | 5528m | -7.6m/s | -12.4°C | 6.0% | 0hPa | 2.5V | 07:51:00 | 00:00:00 | 00:00:00 | |
| OM5KV | 2026-09-01 02:33:52 | 48.30404 | 18.06354 | 87° | 84km/h | 5542m | -7.3m/s | -12.3°C | 3.0% | 0hPa | 2.5V | 07:51:00 | 00:00:00 | 00:00:00 | |
| PETON7-10 | 2026-09-01 02:33:51 | 48.30401 | 18.06291 | 87° | 84km/h | 5557m | -7.6m/s | -12.3°C | 3.1% | 0hPa | 2.5V | 00:00:00 | 02:33:31 | 00:00:00 | |
| OM5KV | 2026-09-01 02:33:48 | 48.30398 | 18.06227 | 88° | 84km/h | 5571m | -6.9m/s | -12.4°C | 2.6% | 0hPa | 2.5V | 07:51:00 | 00:00:00 | 00:00:00 | |
| OM5KV | 2026-09-01 02:33:47 | 48.30397 | 18.06195 | 87° | 86km/h | 5578m | -7.5m/s | -12.3°C | 2.5% | 0hPa | 2.5V | 07:51:00 | 00:00:00 | 00:00:00 | |
| OM5KV | 2026-09-01 02:33:42 | 48.30388 | 18.06034 | 87° | 84km/h | 5615m | -7.5m/s | -12.0°C | 2.2% | 0hPa | 2.5V | 07:51:00 | 00:00:00 | 00:00:00 | |
| OM5KV | 2026-09-01 02:33:41 | 48.30387 | 18.06001 | 87° | 86km/h | 5622m | -7.3m/s | -12.0°C | 2.1% | 0hPa | 2.5V | 07:51:00 | 00:00:00 | 00:00:00 | |
| OE3JTB-15 | 2026-09-01 02:33:38 | 48.30378 | 18.05874 | 83° | 78km/h | 5652m | -7.4m/s | -12.0°C | 2.4% | 0hPa | 2.5V | 00:00:00 | 00:00:00 | 00:00:00 | |
| OM5KV | 2026-09-01 02:33:37 | 48.30378 | 18.05874 | 83° | 82km/h | 5652m | -7.4m/s | -12.0°C | 2.2% | 0hPa | 2.5V | 07:51:00 | 00:00:00 | 00:00:00 | |
| PETON7-10 | 2026-09-01 02:33:36 | 48.30374 | 18.05812 | 84° | 80km/h | 5666m | -7.8m/s | -12.1°C | 2.4% | 0hPa | 2.5V | 00:00:00 | 00:00:00 | 00:00:00 | |
| OE3OSB-13 | 2026-09-01 02:33:35 | 48.30372 | 18.05781 | 83° | 80km/h | 5674m | -8.0m/s | -12.2°C | 2.2% | -1.0hPa | 2.6V | 00:00:00 | 00:00:00 | 00:00:00 | |
| HA6NAB-11 | 2026-09-01 02:33:33 | 48.30369 | 18.05749 | 84° | 84km/h | 5682m | -7.8m/s | -12.2°C | 2.2% | 0hPa | 2.6V | 07:51:00 | 00:00:00 | 00:00:00 | |
| OM5KV | 2026-09-01 02:33:30 | 48.30362 | 18.05657 | 82° | 80km/h | 5705m | -7.8m/s | -12.4°C | 2.3% | 0hPa | 2.6V | 07:51:00 | 00:00:00 | 00:00:00 | |
| HA6NAB-11 | 2026-09-01 02:33:27 | 48.30353 | 18.05567 | 85° | 80km/h | 5727m | -7.4m/s | -12.6°C | 2.3% | 0hPa | 2.6V | 07:51:00 | 00:00:00 | 00:00:00 | |
| OM5KV | 2026-09-01 02:33:25 | 48.30348 | 18.05506 | 83° | 78km/h | 5742m | -8.0m/s | -12.7°C | 2.3% | 0hPa | 2.6V | 07:51:00 | 00:00:00 | 00:00:00 | |
| OM5KV | 2026-09-01 02:33:24 | 48.30345 | 18.05476 | 83° | 80km/h | 5749m | -7.6m/s | -12.7°C | 2.3% | 0hPa | 2.6V | 07:51:00 | 00:00:00 | 00:00:00 | |
| PETON7-10 | 2026-09-01 02:33:21 | 48.30334 | 18.05358 | 81° | 77km/h | 5778m | -7.6m/s | -12.9°C | 2.5% | 0hPa | 2.6V | 07:51:00 | 00:00:00 | 00:00:00 | |
| OM5KV | 2026-09-01 02:33:20 | 48.30331 | 18.05330 | 85° | 77km/h | 5786m | -7.8m/s | -13.0°C | 2.3% | 0hPa | 2.6V | 07:51:00 | 00:00:00 | 00:00:00 | |
| OM5KV | 2026-09-01 02:33:19 | 48.30331 | 18.05330 | 85° | 77km/h | 5786m | -7.8m/s | -13.0°C | 2.3% | 0hPa | 2.6V | 07:51:00 | 00:00:00 | 00:00:00 | |
| HA6NAB-11 | 2026-09-01 02:33:15 | 48.30321 | 18.05214 | 84° | 78km/h | 5815m | -8.0m/s | -13.2°C | 2.5% | 0hPa | 2.6V | 07:52:00 | 00:00:00 | 00:00:00 | |
| OM5KV | 2026-09-01 02:33:14 | 48.30319 | 18.05185 | 84° | 77km/h | 5822m | -7.8m/s | -13.3°C | 2.5% | 0hPa | 2.6V | 07:52:00 | 00:00:00 | 00:00:00 | |
| OM5KV | 2026-09-01 02:33:13 | 48.30316 | 18.05156 | 82° | 75km/h | 5830m | -7.9m/s | -13.3°C | 2.6% | 0hPa | 2.6V | 07:52:00 | 00:00:00 | 00:00:00 | |
| OE3JTB-15 | 2026-09-01 02:33:09 | 48.30306 | 18.05014 | 85° | 78km/h | 5869m | -7.7m/s | -13.6°C | 3.0% | 0hPa | 2.6V | 00:00:00 | 02:32:49 | 00:00:00 | |
| OM5KV | 2026-09-01 02:33:08 | 48.30306 | 18.05014 | 86° | 77km/h | 5869m | -7.8m/s | -13.6°C | 2.7% | 0hPa | 2.6V | 07:52:00 | 00:00:00 | 00:00:00 | |
| OM5KV | 2026-09-01 02:33:07 | 48.30304 | 18.04985 | 86° | 77km/h | 5877m | -7.6m/s | -13.7°C | 2.7% | 0hPa | 2.6V | 07:52:00 | 00:00:00 | 00:00:00 | |
| PETON7-10 | 2026-09-01 02:33:06 | 48.30301 | 18.04929 | 84° | 77km/h | 5891m | -7.6m/s | -13.7°C | 2.9% | 0hPa | 2.6V | 00:00:00 | 02:32:46 | 00:00:00 | |
| OE3OSB-13 | 2026-09-01 02:33:04 | 48.30297 | 18.04872 | 85° | 73km/h | 5907m | -8.3m/s | -13.9°C | 2.4% | -1.0hPa | 2.6V | 00:00:00 | 00:00:00 | 00:00:00 | |
| OM5KV | 2026-09-01 02:33:03 | 48.30297 | 18.04872 | 87° | 75km/h | 5907m | -8.3m/s | -13.9°C | 2.4% | 0hPa | 2.6V | 07:52:00 | 00:00:00 | 00:00:00 | |
| OM5KV | 2026-09-01 02:33:01 | 48.30295 | 18.04815 | 89° | 75km/h | 5924m | -7.9m/s | -13.9°C | 2.1% | 0hPa | 2.6V | 07:52:00 | 00:00:00 | 00:00:00 | |
| OM5KV | 2026-09-01 02:32:57 | 48.30291 | 18.04699 | 90° | 77km/h | 5956m | -7.7m/s | -13.8°C | 1.6% | 0hPa | 2.6V | 07:52:00 | 00:00:00 | 00:00:00 | |
| OM5KV | 2026-09-01 02:32:56 | 48.30290 | 18.04669 | 89° | 78km/h | 5964m | -8.2m/s | -13.7°C | 1.6% | 0hPa | 2.6V | 07:52:00 | 00:00:00 | 00:00:00 | |
| ATIDSZ-14 | 2026-09-01 02:32:54 | 48.30289 | 18.04610 | 88° | 77km/h | 5979m | -7.6m/s | -13.7°C | 1.6% | 0hPa | 2.6V | 07:52:00 | 00:00:00 | 00:00:00 | |
| PETON7-10 | 2026-09-01 02:32:51 | 48.30288 | 18.04491 | 89° | 82km/h | 6009m | -8.0m/s | -13.7°C | 2.0% | 0hPa | 2.6V | 00:00:00 | 00:00:00 | 00:00:00 | |
| OM5KV | 2026-09-01 02:32:50 | 48.30288 | 18.04491 | 89° | 77km/h | 6009m | -8.0m/s | -13.7°C | 1.8% | 0hPa | 2.5V | 07:52:00 | 00:00:00 | 00:00:00 | |
| OM5KV | 2026-09-01 02:32:43 | 48.30288 | 18.04277 | 91° | 80km/h | 6064m | -7.9m/s | -14.0°C | 2.1% | 0hPa | 2.5V | 07:52:00 | 00:00:00 | 00:00:00 | |
| S52SK | 2026-09-01 02:32:42 | 48.30289 | 18.04247 | 94° | 82km/h | 6071m | -7.8m/s | -14.0°C | 2.1% | 0hPa | 2.5V | 00:00:00 | 00:00:00 | 00:00:00 | |
| OE3JTB-15 | 2026-09-01 02:32:40 | 48.30290 | 18.04153 | 93° | 86km/h | 6095m | -7.8m/s | -14.2°C | 2.5% | 0hPa | 2.5V | 07:52:00 | 00:00:00 | 00:00:00 | |
| OM5KV | 2026-09-01 02:32:39 | 48.30290 | 18.04153 | 93° | 82km/h | 6095m | -7.9m/s | -14.2°C | 2.2% | 0hPa | 2.6V | 07:52:00 | 00:00:00 | 00:00:00 | |
| OM5KV | 2026-09-01 02:32:38 | 48.30292 | 18.04121 | 94° | 84km/h | 6103m | -7.9m/s | -14.3°C | 2.2% | 0hPa | 2.6V | 07:52:00 | 00:00:00 | 00:00:00 | |
| PETON7-10 | 2026-09-01 02:32:36 | 48.30294 | 18.04027 | 94° | 86km/h | 6126m | -7.9m/s | -14.5°C | 2.5% | 0hPa | 2.6V | 00:00:00 | 00:00:00 | 00:00:00 | |
| HA6NAB-11 | 2026-09-01 02:32:34 | 48.30295 | 18.03995 | 94° | 86km/h | 6134m | -8.1m/s | -14.6°C | 2.3% | 0hPa | 2.6V | 07:52:00 | 00:00:00 | 00:00:00 | |
| OE3OSB-13 | 2026-09-01 02:32:33 | 48.30297 | 18.03931 | 92° | 82km/h | 6150m | -7.9m/s | -14.7°C | 2.3% | -1.0hPa | 2.6V | 00:00:00 | 00:00:00 | 00:00:00 | |
| S52SK | 2026-09-01 02:32:31 | 48.30298 | 18.03899 | 94° | 84km/h | 6158m | -7.7m/s | -14.7°C | 2.4% | 0hPa | 2.6V | 00:00:00 | 00:00:00 | 00:00:00 | |
| OM5KV | 2026-09-01 02:32:28 | 48.30301 | 18.03802 | 94° | 86km/h | 6181m | -8.0m/s | -14.7°C | 2.5% | 0hPa | 2.6V | 07:52:00 | 00:00:00 | 00:00:00 | |
| OM5KV | 2026-09-01 02:32:27 | 48.30301 | 18.03769 | 92° | 86km/h | 6190m | -8.0m/s | -14.7°C | 2.5% | 0hPa | 2.6V | 07:53:00 | 00:00:00 | 00:00:00 | |
| HA6NAB-11 | 2026-09-01 02:32:22 | 48.30306 | 18.03604 | 93° | 88km/h | 6229m | -8.1m/s | -14.9°C | 2.7% | 0hPa | 2.6V | 00:00:00 | 00:00:00 | 00:00:00 | |
| PETON7-10 | 2026-09-01 02:32:21 | 48.30306 | 18.03537 | 92° | 88km/h | 6246m | -8.4m/s | -14.9°C | 3.0% | 0hPa | 2.6V | 00:00:00 | 02:32:01 | 00:00:00 | |
| HA6NAB-11 | 2026-09-01 02:32:17 | 48.30306 | 18.03438 | 90° | 86km/h | 6270m | -8.5m/s | -15.1°C | 2.9% | 0hPa | 2.6V | 00:00:00 | 00:00:00 | 00:00:00 | |
| ATIDSZ-14 | 2026-09-01 02:32:12 | 48.30305 | 18.03272 | 90° | 86km/h | 6310m | -8.1m/s | -15.3°C | 3.0% | 0hPa | 2.6V | 07:53:00 | 00:00:00 | 00:00:00 | |
| OE3JTB-15 | 2026-09-01 02:32:11 | 48.30304 | 18.03206 | 89° | 86km/h | 6326m | -8.1m/s | -15.4°C | 3.4% | 0hPa | 2.6V | 00:00:00 | 00:00:00 | 00:00:00 | |
| PETON7-10 | 2026-09-01 02:32:06 | 48.30300 | 18.03042 | 89° | 86km/h | 6368m | -8.7m/s | -15.6°C | 3.5% | 0hPa | 2.6V | 00:00:00 | 00:00:00 | 00:00:00 | |
| OM5KV | 2026-09-01 02:32:05 | 48.30301 | 18.03042 | 89° | 86km/h | 6368m | -8.8m/s | -15.6°C | 3.2% | 0hPa | 2.6V | 07:53:00 | 00:00:00 | 00:00:00 | |
| OE3OSB-13 | 2026-09-01 02:32:02 | 48.30296 | 18.02910 | 86° | 84km/h | 6402m | -8.6m/s | -15.8°C | 3.4% | -1.0hPa | 2.6V | 00:00:00 | 00:00:00 | 00:00:00 | |
| OM5KV | 2026-09-01 02:32:00 | 48.30294 | 18.02878 | 87° | 88km/h | 6411m | -8.4m/s | -15.9°C | 3.4% | 0hPa | 2.6V | 07:53:00 | 00:00:00 | 00:00:00 | |
| OM5KV | 2026-09-01 02:31:55 | 48.30288 | 18.02716 | 88° | 86km/h | 6454m | -8.0m/s | -16.1°C | 3.8% | 0hPa | 2.6V | 07:53:00 | 00:00:00 | 00:00:00 | |
| OM5KV | 2026-09-01 02:31:54 | 48.30286 | 18.02683 | 86° | 84km/h | 6461m | -8.5m/s | -16.1°C | 4.0% | 0hPa | 2.6V | 07:53:00 | 00:00:00 | 00:00:00 | |
| ATIDSZ-14 | 2026-09-01 02:31:52 | 48.30283 | 18.02619 | 86° | 84km/h | 6477m | -8.5m/s | -16.3°C | 4.1% | 0hPa | 2.6V | 07:53:00 | 00:00:00 | 00:00:00 | |
| PETON7-10 | 2026-09-01 02:31:51 | 48.30279 | 18.02553 | 87° | 86km/h | 6493m | -8.3m/s | -16.4°C | 4.6% | 0hPa | 2.6V | 00:00:00 | 00:00:00 | 00:00:00 | |
| OM5KV | 2026-09-01 02:31:49 | 48.30278 | 18.02521 | 87° | 88km/h | 6502m | -8.4m/s | -16.5°C | 4.2% | 0hPa | 2.6V | 07:53:00 | 00:00:00 | 00:00:00 | |
| OM5KV | 2026-09-01 02:31:43 | 48.30269 | 18.02325 | 86° | 84km/h | 6549m | -8.6m/s | -17.0°C | 4.9% | 0hPa | 2.6V | 07:53:00 | 00:00:00 | 00:00:00 | |
| OE3JTB-15 | 2026-09-01 02:31:42 | 48.30267 | 18.02261 | 86° | 88km/h | 6565m | -8.3m/s | -17.1°C | 5.4% | 0hPa | 2.6V | 00:00:00 | 02:31:22 | 00:00:00 | |
| PETON7-10 | 2026-09-01 02:31:36 | 48.30259 | 18.02064 | 88° | 88km/h | 6614m | -8.7m/s | -17.5°C | 5.6% | 0hPa | 2.6V | 00:00:00 | 02:31:16 | 00:00:00 | |
| ATIDSZ-14 | 2026-09-01 02:31:32 | 48.30257 | 18.01964 | 89° | 89km/h | 6640m | -8.8m/s | -17.8°C | 5.2% | 0hPa | 2.6V | 07:54:00 | 00:00:00 | 00:00:00 | |
| OE3OSB-13 | 2026-09-01 02:31:31 | 48.30256 | 18.01899 | 88° | 88km/h | 6657m | -8.6m/s | -17.9°C | 5.3% | -1.0hPa | 2.6V | 00:00:00 | 00:00:00 | 00:00:00 | |
| OM5KV | 2026-09-01 02:31:30 | 48.30256 | 18.01899 | 89° | 88km/h | 6657m | -8.6m/s | -17.9°C | 5.3% | 0hPa | 2.6V | 07:54:00 | 00:00:00 | 00:00:00 | |
| HA6NAB-11 | 2026-09-01 02:31:29 | 48.30255 | 18.01865 | 90° | 86km/h | 6665m | -8.6m/s | -18.0°C | 5.3% | 0hPa | 2.6V | 00:00:00 | 00:00:00 | 00:00:00 | |
| OM5KV | 2026-09-01 02:31:26 | 48.30254 | 18.01766 | 90° | 89km/h | 6689m | -8.5m/s | -18.2°C | 5.4% | 0hPa | 2.6V | 07:54:00 | 00:00:00 | 00:00:00 | |
| HA6NAB-11 | 2026-09-01 02:31:24 | 48.30253 | 18.01698 | 90° | 89km/h | 6706m | -8.6m/s | -18.3°C | 5.2% | 0hPa | 2.6V | 00:00:00 | 00:00:00 | 00:00:00 | |
| PETON7-10 | 2026-09-01 02:31:21 | 48.30253 | 18.01563 | 90° | 91km/h | 6739m | -8.7m/s | -18.5°C | 5.7% | 0hPa | 2.6V | 07:53:00 | 00:00:00 | 00:00:00 | |
| OM5KV | 2026-09-01 02:31:19 | 48.30253 | 18.01529 | 91° | 89km/h | 6748m | -8.7m/s | -18.6°C | 5.2% | 0hPa | 2.5V | 07:54:00 | 00:00:00 | 00:00:00 | |
| HA6NAB-11 | 2026-09-01 02:31:18 | 48.30253 | 18.01495 | 91° | 91km/h | 6756m | -8.7m/s | -18.7°C | 5.1% | 0hPa | 2.5V | 00:00:00 | 00:00:00 | 00:00:00 | |
| S52SK | 2026-09-01 02:31:16 | 48.30253 | 18.01426 | 91° | 93km/h | 6773m | -8.6m/s | -18.9°C | 5.2% | 0hPa | 2.5V | 00:00:00 | 00:00:00 | 00:00:00 | |
| OM5KV | 2026-09-01 02:31:15 | 48.30252 | 18.01391 | 90° | 89km/h | 6782m | -8.5m/s | -18.9°C | 5.2% | 0hPa | 2.5V | 07:54:00 | 00:00:00 | 00:00:00 | |
| OE3JTB-15 | 2026-09-01 02:31:13 | 48.30253 | 18.01287 | 92° | 95km/h | 6807m | -8.1m/s | -19.1°C | 5.9% | 0hPa | 2.5V | 00:00:00 | 00:00:00 | 00:00:00 | |
| HA6NAB-11 | 2026-09-01 02:31:12 | 48.30253 | 18.01287 | 92° | 91km/h | 6807m | -8.2m/s | -19.1°C | 5.3% | 0hPa | 2.5V | 00:00:00 | 00:00:00 | 00:00:00 | |
| S52SK | 2026-09-01 02:31:11 | 48.30253 | 18.01253 | 91° | 93km/h | 6815m | -8.6m/s | -19.2°C | 5.3% | 0hPa | 2.5V | 00:00:00 | 00:00:00 | 00:00:00 | |
| OM5KV | 2026-09-01 02:31:09 | 48.30254 | 18.01183 | 91° | 91km/h | 6832m | -8.7m/s | -19.4°C | 5.3% | 0hPa | 2.5V | 07:54:00 | 00:00:00 | 00:00:00 | |
| OM5KV | 2026-09-01 02:31:07 | 48.30256 | 18.01113 | 90° | 91km/h | 6849m | -8.9m/s | -19.5°C | 5.2% | 0hPa | 2.5V | 07:54:00 | 00:00:00 | 00:00:00 | |
| PETON7-10 | 2026-09-01 02:31:06 | 48.30256 | 18.01042 | 90° | 95km/h | 6867m | -8.7m/s | -19.6°C | 5.7% | 0hPa | 2.5V | 00:00:00 | 00:00:00 | 00:00:00 | |
| S52SK | 2026-09-01 02:31:05 | 48.30256 | 18.01042 | 91° | 93km/h | 6867m | -8.8m/s | -19.6°C | 5.1% | 0hPa | 2.5V | 00:00:00 | 00:00:00 | 00:00:00 | |
| OM5KV | 2026-09-01 02:31:03 | 48.30256 | 18.00971 | 91° | 93km/h | 6884m | -8.8m/s | -19.7°C | 5.1% | 0hPa | 2.5V | 07:54:00 | 00:00:00 | 00:00:00 | |
| OM5KV | 2026-09-01 02:31:02 | 48.30257 | 18.00935 | 92° | 95km/h | 6892m | -8.6m/s | -19.8°C | 5.2% | 0hPa | 2.5V | 07:54:00 | 00:00:00 | 00:00:00 | |
| OE3OSB-13 | 2026-09-01 02:31:00 | 48.30259 | 18.00791 | 92° | 95km/h | 6925m | -8.3m/s | -20.1°C | 5.3% | -1.0hPa | 2.5V | 00:00:00 | 00:00:00 | 00:00:00 | |
| OM5KV | 2026-09-01 02:30:56 | 48.30260 | 18.00718 | 93° | 95km/h | 6941m | -8.7m/s | -20.3°C | 5.5% | 0hPa | 2.5V | 07:54:00 | 00:00:00 | 00:00:00 | |
| PETON7-10 | 2026-09-01 02:30:51 | 48.30265 | 18.00497 | 94° | 100km/h | 6993m | -8.5m/s | -20.7°C | 6.5% | 0hPa | 2.5V | 00:00:00 | 02:30:31 | 00:00:00 | |
| OM5KV | 2026-09-01 02:30:46 | 48.30271 | 18.00347 | 94° | 102km/h | 7026m | -8.8m/s | -20.9°C | 5.9% | 0hPa | 2.5V | 07:54:00 | 00:00:00 | 00:00:00 | |
| OE3JTB-15 | 2026-09-01 02:30:44 | 48.30275 | 18.00233 | 95° | 104km/h | 7052m | -8.8m/s | -21.1°C | 6.7% | 0hPa | 2.5V | 00:00:00 | 00:00:00 | 00:00:00 | |
| OM5KV | 2026-09-01 02:30:38 | 48.30286 | 18.00042 | 97° | 102km/h | 7093m | -8.8m/s | -21.4°C | 6.5% | 0hPa | 2.5V | 07:55:00 | 00:00:00 | 00:00:00 | |
| PETON7-10 | 2026-09-01 02:30:36 | 48.30292 | 17.99925 | 96° | 104km/h | 7120m | -8.4m/s | -21.5°C | 7.8% | 0hPa | 2.5V | 00:00:00 | 00:00:00 | 00:00:00 | |
| ATIDSZ-14 | 2026-09-01 02:30:31 | 48.30303 | 17.99769 | 98° | 104km/h | 7152m | -8.6m/s | -21.8°C | 8.1% | 0hPa | 2.6V | 07:55:00 | 00:00:00 | 00:00:00 | |
| OM5KV | 2026-09-01 02:30:28 | 48.30313 | 17.99651 | 99° | 106km/h | 7178m | -8.7m/s | -22.0°C | 9.3% | 0hPa | 2.6V | 07:55:00 | 00:00:00 | 00:00:00 | |
| HA6NAB-11 | 2026-09-01 02:30:25 | 48.30323 | 17.99532 | 98° | 104km/h | 7204m | -9.0m/s | -22.3°C | 11.0% | 0hPa | 2.6V | 00:00:00 | 00:00:00 | 00:00:00 | |
| OM5KV | 2026-09-01 02:30:22 | 48.30334 | 17.99412 | 98° | 106km/h | 7230m | -9.1m/s | -22.4°C | 13.5% | 0hPa | 2.6V | 07:55:00 | 00:00:00 | 00:00:00 | |
| PETON7-10 | 2026-09-01 02:30:21 | 48.30341 | 17.99332 | 98° | 106km/h | 7248m | -9.1m/s | -22.5°C | 15.1% | 0hPa | 2.6V | 00:00:00 | 00:00:00 | 00:00:00 | |
| OM5KV | 2026-09-01 02:30:19 | 48.30344 | 17.99292 | 98° | 108km/h | 7257m | -9.2m/s | -22.6°C | 14.0% | 0hPa | 2.6V | 07:55:00 | 00:00:00 | 00:00:00 | |
| OM5KV | 2026-09-01 02:30:17 | 48.30351 | 17.99212 | 98° | 108km/h | 7275m | -8.9m/s | -22.7°C | 14.0% | 0hPa | 2.6V | 07:55:00 | 00:00:00 | 00:00:00 | |
| OE3JTB-15 | 2026-09-01 02:30:15 | 48.30362 | 17.99092 | 98° | 108km/h | 7302m | -9.0m/s | -22.9°C | 15.0% | 0hPa | 2.6V | 00:00:00 | 02:29:55 | 00:00:00 | |
| HA6NAB-11 | 2026-09-01 02:30:14 | 48.30366 | 17.99052 | 98° | 106km/h | 7311m | -9.1m/s | -23.0°C | 13.6% | 0hPa | 2.6V | 00:00:00 | 00:00:00 | 00:00:00 | |
| OM5KV | 2026-09-01 02:30:13 | 48.30366 | 17.99052 | 98° | 106km/h | 7311m | -9.1m/s | -23.0°C | 13.6% | 0hPa | 2.6V | 07:55:00 | 00:00:00 | 00:00:00 | |
| ATIDSZ-14 | 2026-09-01 02:30:10 | 48.30377 | 17.98931 | 97° | 106km/h | 7340m | -9.5m/s | -23.1°C | 13.6% | 0hPa | 2.6V | 07:55:00 | 00:00:00 | 00:00:00 | |
| HA6NAB-11 | 2026-09-01 02:30:08 | 48.30383 | 17.98850 | 97° | 106km/h | 7359m | -9.1m/s | -23.2°C | 13.4% | 0hPa | 2.6V | 00:00:00 | 00:00:00 | 00:00:00 | |
| PETON7-10 | 2026-09-01 02:30:06 | 48.30392 | 17.98729 | 96° | 108km/h | 7385m | -9.0m/s | -23.4°C | 14.8% | 0hPa | 2.6V | 00:00:00 | 02:29:46 | 00:00:00 | |
| OE3OSB-13 | 2026-09-01 02:29:58 | 48.30419 | 17.98365 | 96° | 106km/h | 7465m | -8.9m/s | -24.2°C | 13.5% | -1.0hPa | 2.6V | 00:00:00 | 00:00:00 | 00:00:00 | |
| HA6NAB-11 | 2026-09-01 02:29:57 | 48.30416 | 17.98406 | 97° | 108km/h | 7456m | -9.2m/s | -24.1°C | 13.5% | 0hPa | 2.6V | 00:00:00 | 00:00:00 | 00:00:00 | |
| OM5KV | 2026-09-01 02:29:56 | 48.30419 | 17.98365 | 98° | 108km/h | 7465m | -8.9m/s | -24.2°C | 13.6% | 0hPa | 2.6V | 07:55:00 | 00:00:00 | 00:00:00 | |
| OM5KV | 2026-09-01 02:29:52 | 48.30430 | 17.98203 | 96° | 108km/h | 7500m | -8.9m/s | -24.4°C | 14.4% | 0hPa | 2.6V | 07:56:00 | 00:00:00 | 00:00:00 | |
| PETON7-10 | 2026-09-01 02:29:51 | 48.30436 | 17.98123 | 96° | 106km/h | 7517m | -8.9m/s | -24.5°C | 15.4% | 0hPa | 2.6V | 00:00:00 | 00:00:00 | 00:00:00 | |
| OM5KV | 2026-09-01 02:29:50 | 48.30436 | 17.98123 | 96° | 106km/h | 7517m | -8.9m/s | -24.6°C | 14.1% | 0hPa | 2.6V | 07:56:00 | 00:00:00 | 00:00:00 | |
| ATIDSZ-14 | 2026-09-01 02:29:49 | 48.30438 | 17.98082 | 97° | 108km/h | 7526m | -9.2m/s | -24.7°C | 14.2% | 0hPa | 2.6V | 07:56:00 | 00:00:00 | 00:00:00 | |
| S52SK | 2026-09-01 02:29:48 | 48.30442 | 17.98042 | 97° | 106km/h | 7535m | -8.9m/s | -24.7°C | 14.2% | 0hPa | 2.6V | 00:00:00 | 00:00:00 | 00:00:00 | |
| OE3JTB-15 | 2026-09-01 02:29:46 | 48.30449 | 17.97922 | 95° | 108km/h | 7561m | -9.3m/s | -25.0°C | 15.7% | 0hPa | 2.6V | 00:00:00 | 00:00:00 | 00:00:00 | |
| OM5KV | 2026-09-01 02:29:44 | 48.30452 | 17.97882 | 97° | 108km/h | 7570m | -8.8m/s | -25.1°C | 14.5% | 0hPa | 2.5V | 07:56:00 | 00:00:00 | 00:00:00 | |
| S52SK | 2026-09-01 02:29:43 | 48.30454 | 17.97842 | 96° | 106km/h | 7579m | -8.8m/s | -25.2°C | 14.5% | 0hPa | 2.5V | 00:00:00 | 00:00:00 | 00:00:00 | |
| S52SK | 2026-09-01 02:29:38 | 48.30467 | 17.97641 | 95° | 106km/h | 7622m | -9.0m/s | -25.5°C | 14.0% | 0hPa | 2.5V | 00:00:00 | 00:00:00 | 00:00:00 | |
| PETON7-10 | 2026-09-01 02:29:36 | 48.30473 | 17.97520 | 95° | 108km/h | 7648m | -8.9m/s | -25.7°C | 15.3% | 0hPa | 2.5V | 00:00:00 | 00:00:00 | 00:00:00 | |
| OM5KV | 2026-09-01 02:29:35 | 48.30473 | 17.97520 | 96° | 108km/h | 7648m | -9.0m/s | -25.7°C | 14.0% | 0hPa | 2.5V | 07:56:00 | 00:00:00 | 00:00:00 | |
| ATIDSZ-14 | 2026-09-01 02:29:29 | 48.30487 | 17.97276 | 97° | 108km/h | 7700m | -8.8m/s | -26.2°C | 14.6% | 0hPa | 2.5V | 07:56:00 | 00:00:00 | 00:00:00 | |
| OE3OSB-13 | 2026-09-01 02:29:27 | 48.30497 | 17.97113 | 94° | 108km/h | 7735m | -9.0m/s | -26.4°C | 14.1% | -1.0hPa | 2.5V | 00:00:00 | 00:00:00 | 00:00:00 | |
| OM5KV | 2026-09-01 02:29:24 | 48.30499 | 17.97072 | 97° | 108km/h | 7743m | -8.7m/s | -26.4°C | 13.8% | 0hPa | 2.5V | 07:56:00 | 00:00:00 | 00:00:00 | |
| PETON7-10 | 2026-09-01 02:29:21 | 48.30508 | 17.96908 | 94° | 110km/h | 7778m | -8.9m/s | -26.5°C | 14.4% | 0hPa | 2.5V | 07:55:00 | 02:29:01 | 00:00:00 | |
| OE3JTB-15 | 2026-09-01 02:29:17 | 48.30517 | 17.96743 | 96° | 108km/h | 7812m | -8.9m/s | -26.8°C | 14.7% | 0hPa | 2.5V | 00:00:00 | 00:00:00 | 00:00:00 | |
| OM5KV | 2026-09-01 02:29:15 | 48.30519 | 17.96701 | 95° | 110km/h | 7821m | -9.0m/s | -26.9°C | 13.4% | 0hPa | 2.5V | 07:56:00 | 00:00:00 | 00:00:00 | |
| OM5KV | 2026-09-01 02:29:13 | 48.30524 | 17.96619 | 94° | 108km/h | 7838m | -8.7m/s | -27.0°C | 13.3% | 0hPa | 2.5V | 07:56:00 | 00:00:00 | 00:00:00 | |
| OM5KV | 2026-09-01 02:29:10 | 48.30529 | 17.96496 | 95° | 110km/h | 7863m | -9.1m/s | -27.2°C | 13.2% | 0hPa | 2.5V | 07:56:00 | 00:00:00 | 00:00:00 | |
| ATIDSZ-14 | 2026-09-01 02:29:08 | 48.30533 | 17.96413 | 94° | 108km/h | 7881m | -9.2m/s | -27.3°C | 13.3% | 0hPa | 2.5V | 07:56:00 | 00:00:00 | 00:00:00 | |
| PETON7-10 | 2026-09-01 02:29:06 | 48.30538 | 17.96289 | 94° | 108km/h | 7907m | -8.9m/s | -27.5°C | 14.9% | 0hPa | 2.5V | 00:00:00 | 00:00:00 | 00:00:00 | |
| OM5KV | 2026-09-01 02:29:04 | 48.30540 | 17.96248 | 95° | 108km/h | 7916m | -8.6m/s | -27.6°C | 13.5% | 0hPa | 2.5V | 07:56:00 | 00:00:00 | 00:00:00 | |
| OM5KV | 2026-09-01 02:29:00 | 48.30546 | 17.96084 | 94° | 110km/h | 7949m | -8.8m/s | -27.9°C | 14.1% | 0hPa | 2.5V | 07:56:00 | 00:00:00 | 00:00:00 | |
| OE5DRO-10 | 2026-09-01 02:28:58 | 48.30550 | 17.95962 | 94° | 108km/h | 7975m | -8.9m/s | -28.1°C | 16.6% | 0hPa | 2.5V | 07:56:00 | 00:00:00 | 00:00:00 | |
| PG1ADW-2 | 2026-09-01 02:28:55 | 48.30555 | 17.95839 | 94° | 106km/h | 8001m | -8.5m/s | -28.4°C | 16.1% | 0hPa | 2.5V | 00:00:00 | 00:00:00 | 00:00:00 | |
| OM5KV | 2026-09-01 02:28:52 | 48.30558 | 17.95758 | 94° | 110km/h | 8018m | -8.9m/s | -28.6°C | 14.2% | 0hPa | 2.6V | 07:56:00 | 00:00:00 | 00:00:00 | |
| PETON7-10 | 2026-09-01 02:28:51 | 48.30561 | 17.95677 | 94° | 106km/h | 8036m | -8.8m/s | -28.7°C | 15.9% | 0hPa | 2.6V | 00:00:00 | 00:00:00 | 00:00:00 | |
| OE3JTB-15 | 2026-09-01 02:28:48 | 48.30566 | 17.95556 | 94° | 106km/h | 8063m | -8.8m/s | -28.9°C | 16.7% | 0hPa | 2.6V | 07:56:00 | 02:28:28 | 00:00:00 | |
| OM5KV | 2026-09-01 02:28:46 | 48.30567 | 17.95516 | 95° | 106km/h | 8072m | -8.8m/s | -29.0°C | 15.1% | 0hPa | 2.6V | 07:56:00 | 00:00:00 | 00:00:00 | |
| OM5KV | 2026-09-01 02:28:40 | 48.30577 | 17.95275 | 93° | 104km/h | 8125m | -8.8m/s | -29.5°C | 14.1% | 0hPa | 2.6V | 07:56:00 | 00:00:00 | 00:00:00 | |
| OE5DRO-10 | 2026-09-01 02:28:39 | 48.30579 | 17.95194 | 94° | 106km/h | 8142m | -8.6m/s | -29.5°C | 15.5% | 0hPa | 2.6V | 00:00:00 | 00:00:00 | 00:00:00 | |
| PETON7-10 | 2026-09-01 02:28:36 | 48.30583 | 17.95074 | 93° | 106km/h | 8168m | -8.7m/s | -29.8°C | 15.7% | 0hPa | 2.6V | 00:00:00 | 02:28:16 | 00:00:00 | |
| OM5KV | 2026-09-01 02:28:34 | 48.30584 | 17.95034 | 94° | 108km/h | 8176m | -8.8m/s | -29.9°C | 14.2% | 0hPa | 2.6V | 07:56:00 | 00:00:00 | 00:00:00 | |
| PG1ADW-2 | 2026-09-01 02:28:32 | 48.30587 | 17.94914 | 93° | 106km/h | 8202m | -8.5m/s | -30.1°C | 16.0% | 0hPa | 2.6V | 00:00:00 | 02:28:12 | 00:00:00 | |
| ATIDSZ-14 | 2026-09-01 02:28:28 | 48.30590 | 17.94794 | 92° | 104km/h | 8226m | -8.7m/s | -30.4°C | 14.6% | 0hPa | 2.6V | 07:56:00 | 00:00:00 | 00:00:00 | |
| OE3OSB-13 | 2026-09-01 02:28:24 | 48.30594 | 17.94595 | 90° | 104km/h | 8269m | -8.8m/s | -30.8°C | 15.7% | -1.0hPa | 2.6V | 00:00:00 | 00:00:00 | 00:00:00 | |
| OM5KV | 2026-09-01 02:28:22 | 48.30594 | 17.94555 | 93° | 104km/h | 8277m | -8.5m/s | -30.8°C | 16.0% | 0hPa | 2.6V | 07:56:00 | 00:00:00 | 00:00:00 | |
| PETON7-10 | 2026-09-01 02:28:21 | 48.30595 | 17.94476 | 91° | 102km/h | 8294m | -8.8m/s | -30.9°C | 17.4% | 0hPa | 2.6V | 00:00:00 | 00:00:00 | 00:00:00 | |
| OE5DRO-10 | 2026-09-01 02:28:20 | 48.30595 | 17.94437 | 91° | 102km/h | 8303m | -8.5m/s | -31.0°C | 17.4% | 0hPa | 2.5V | 00:00:00 | 00:00:00 | 00:00:00 | |
| OE3JTB-15 | 2026-09-01 02:28:19 | 48.30595 | 17.94398 | 91° | 102km/h | 8311m | -8.7m/s | -31.1°C | 17.4% | 0hPa | 2.5V | 00:00:00 | 00:00:00 | 00:00:00 | |
| S52SK | 2026-09-01 02:28:18 | 48.30595 | 17.94398 | 92° | 104km/h | 8311m | -8.7m/s | -31.1°C | 15.6% | 0hPa | 2.5V | 07:56:00 | 00:00:00 | 00:00:00 | |
| OM5KV | 2026-09-01 02:28:17 | 48.30596 | 17.94358 | 92° | 102km/h | 8320m | -8.4m/s | -31.2°C | 15.6% | 0hPa | 2.5V | 07:56:00 | 00:00:00 | 00:00:00 | |
| HA6NAB-11 | 2026-09-01 02:28:16 | 48.30596 | 17.94319 | 91° | 102km/h | 8327m | -8.5m/s | -31.2°C | 15.6% | 0hPa | 2.5V | 07:56:00 | 00:00:00 | 00:00:00 | |
| OM5KV | 2026-09-01 02:28:15 | 48.30596 | 17.94280 | 92° | 104km/h | 8336m | -8.5m/s | -31.3°C | 15.7% | 0hPa | 2.5V | 07:56:00 | 00:00:00 | 00:00:00 | |
| S52SK | 2026-09-01 02:28:12 | 48.30597 | 17.94164 | 93° | 102km/h | 8360m | -8.6m/s | -31.5°C | 15.8% | 0hPa | 2.5V | 00:00:00 | 00:00:00 | 00:00:00 | |
| OM5KV | 2026-09-01 02:28:11 | 48.30597 | 17.94125 | 91° | 100km/h | 8369m | -8.8m/s | -31.6°C | 16.0% | 0hPa | 2.5V | 07:57:00 | 00:00:00 | 00:00:00 | |
| OM5KV | 2026-09-01 02:28:10 | 48.30598 | 17.94086 | 92° | 104km/h | 8377m | -8.6m/s | -31.7°C | 16.0% | 0hPa | 2.5V | 07:57:00 | 00:00:00 | 00:00:00 | |
| ATIDSZ-14 | 2026-09-01 02:28:08 | 48.30598 | 17.94008 | 91° | 102km/h | 8394m | -9.0m/s | -31.8°C | 16.3% | 0hPa | 2.5V | 07:57:00 | 00:00:00 | 00:00:00 | |
| PETON7-10 | 2026-09-01 02:28:06 | 48.30599 | 17.93892 | 92° | 104km/h | 8419m | -8.8m/s | -32.0°C | 18.6% | 0hPa | 2.5V | 00:00:00 | 00:00:00 | 00:00:00 | |
| OM5KV | 2026-09-01 02:28:04 | 48.30600 | 17.93853 | 93° | 102km/h | 8428m | -8.5m/s | -32.2°C | 16.9% | 0hPa | 2.5V | 07:57:00 | 00:00:00 | 00:00:00 | |
| OE5DRO-10 | 2026-09-01 02:28:01 | 48.30601 | 17.93698 | 91° | 104km/h | 8462m | -8.9m/s | -32.4°C | 19.4% | 0hPa | 2.5V | 00:00:00 | 00:00:00 | 00:00:00 | |
| HA6NAB-11 | 2026-09-01 02:28:00 | 48.30601 | 17.93698 | 91° | 102km/h | 8462m | -8.9m/s | -32.5°C | 17.4% | 0hPa | 2.5V | 00:00:00 | 00:00:00 | 00:00:00 | |
| OM5KV | 2026-09-01 02:27:58 | 48.30602 | 17.93620 | 91° | 102km/h | 8478m | -8.3m/s | -32.6°C | 17.4% | 0hPa | 2.5V | 07:57:00 | 00:00:00 | 00:00:00 | |
| HA6NAB-11 | 2026-09-01 02:27:54 | 48.30603 | 17.93463 | 92° | 104km/h | 8511m | -8.6m/s | -32.9°C | 18.6% | 0hPa | 2.5V | 00:00:00 | 00:00:00 | 00:00:00 | |
| PG1ADW-2 | 2026-09-01 02:27:53 | 48.30603 | 17.93384 | 91° | 108km/h | 8528m | -8.9m/s | -33.0°C | 20.7% | 0hPa | 2.5V | 00:00:00 | 00:00:00 | 00:00:00 | |
| OM5KV | 2026-09-01 02:27:52 | 48.30603 | 17.93384 | 92° | 106km/h | 8528m | -8.9m/s | -33.1°C | 18.6% | 0hPa | 2.5V | 07:57:00 | 00:00:00 | 00:00:00 | |
| PETON7-10 | 2026-09-01 02:27:51 | 48.30604 | 17.93305 | 90° | 106km/h | 8545m | -8.9m/s | -33.2°C | 20.7% | 0hPa | 2.5V | 00:00:00 | 02:27:31 | 00:00:00 | |
| OE3JTB-15 | 2026-09-01 02:27:50 | 48.30604 | 17.93266 | 92° | 108km/h | 8554m | -8.5m/s | -33.2°C | 20.8% | 0hPa | 2.5V | 00:00:00 | 00:00:00 | 00:00:00 | |
| OM5KV | 2026-09-01 02:27:48 | 48.30604 | 17.93226 | 91° | 104km/h | 8562m | -8.6m/s | -33.4°C | 18.7% | 0hPa | 2.5V | 07:57:00 | 00:00:00 | 00:00:00 | |
| OM5KV | 2026-09-01 02:27:47 | 48.30604 | 17.93186 | 92° | 108km/h | 8570m | -8.8m/s | -33.4°C | 18.8% | 0hPa | 2.5V | 07:57:00 | 00:00:00 | 00:00:00 | |
| OE5DRO-10 | 2026-09-01 02:27:42 | 48.30606 | 17.92944 | 91° | 108km/h | 8620m | -8.2m/s | -33.8°C | 21.2% | 0hPa | 2.5V | 00:00:00 | 00:00:00 | 00:00:00 | |
| OM5KV | 2026-09-01 02:27:41 | 48.30606 | 17.92944 | 91° | 108km/h | 8620m | -8.2m/s | -33.9°C | 19.0% | 0hPa | 2.5V | 07:57:00 | 00:00:00 | 00:00:00 | |
| PETON7-10 | 2026-09-01 02:27:36 | 48.30610 | 17.92699 | 93° | 108km/h | 8671m | -8.3m/s | -34.3°C | 22.1% | 0hPa | 2.5V | 00:00:00 | 00:00:00 | 00:00:00 | |
| PG1ADW-2 | 2026-09-01 02:27:30 | 48.30614 | 17.92454 | 91° | 110km/h | 8720m | -8.7m/s | -34.8°C | 22.8% | 0hPa | 2.5V | 00:00:00 | 00:00:00 | 00:00:00 | |
| ATIDSZ-14 | 2026-09-01 02:27:26 | 48.30616 | 17.92330 | 93° | 110km/h | 8745m | -8.7m/s | -35.0°C | 20.6% | 0hPa | 2.6V | 07:57:00 | 00:00:00 | 00:00:00 | |
| OM5KV | 2026-09-01 02:27:24 | 48.30618 | 17.92248 | 92° | 110km/h | 8761m | -8.7m/s | -35.2°C | 20.6% | 0hPa | 2.6V | 07:57:00 | 00:00:00 | 00:00:00 | |
| OE5DRO-10 | 2026-09-01 02:27:23 | 48.30619 | 17.92165 | 91° | 110km/h | 8779m | -8.4m/s | -35.2°C | 23.0% | 0hPa | 2.6V | 00:00:00 | 00:00:00 | 00:00:00 | |
| OE3OSB-13 | 2026-09-01 02:27:22 | 48.30619 | 17.92123 | 91° | 108km/h | 8787m | -8.3m/s | -35.4°C | 20.5% | -1.0hPa | 2.6V | 00:00:00 | 00:00:00 | 00:00:00 | |
| PETON7-10 | 2026-09-01 02:27:21 | 48.30619 | 17.92082 | 90° | 110km/h | 8795m | -8.6m/s | -35.4°C | 23.2% | 0hPa | 2.6V | 07:57:00 | 00:00:00 | 00:00:00 | |
| OM5KV | 2026-09-01 02:27:20 | 48.30620 | 17.92082 | 91° | 108km/h | 8795m | -8.6m/s | -35.4°C | 20.7% | 0hPa | 2.6V | 07:58:00 | 00:00:00 | 00:00:00 | |
| OM5KV | 2026-09-01 02:27:18 | 48.30620 | 17.91999 | 91° | 108km/h | 8812m | -8.5m/s | -35.6°C | 20.9% | 0hPa | 2.6V | 07:58:00 | 00:00:00 | 00:00:00 | |
| OM5KV | 2026-09-01 02:27:14 | 48.30621 | 17.91832 | 92° | 110km/h | 8846m | -8.4m/s | -35.9°C | 21.3% | 0hPa | 2.6V | 07:58:00 | 00:00:00 | 00:00:00 | |
| OM5KV | 2026-09-01 02:27:13 | 48.30621 | 17.91791 | 90° | 110km/h | 8854m | -8.7m/s | -36.0°C | 21.4% | 0hPa | 2.6V | 07:58:00 | 00:00:00 | 00:00:00 | |
| HA6NAB-11 | 2026-09-01 02:27:11 | 48.30621 | 17.91707 | 91° | 110km/h | 8871m | -8.4m/s | -36.1°C | 21.6% | 0hPa | 2.6V | 00:00:00 | 00:00:00 | 00:00:00 | |
| PG1ADW-2 | 2026-09-01 02:27:10 | 48.30622 | 17.91623 | 92° | 111km/h | 8887m | -8.3m/s | -36.2°C | 24.5% | 0hPa | 2.6V | 00:00:00 | 00:00:00 | 00:00:00 | |
| OM5KV | 2026-09-01 02:27:09 | 48.30622 | 17.91623 | 92° | 111km/h | 8887m | -8.3m/s | -36.3°C | 21.8% | 0hPa | 2.6V | 07:58:00 | 00:00:00 | 00:00:00 | |
| OM5KV | 2026-09-01 02:27:07 | 48.30622 | 17.91539 | 92° | 111km/h | 8904m | -8.5m/s | -36.4°C | 22.1% | 0hPa | 2.6V | 07:58:00 | 00:00:00 | 00:00:00 | |
| PETON7-10 | 2026-09-01 02:27:06 | 48.30623 | 17.91454 | 91° | 111km/h | 8920m | -8.4m/s | -36.5°C | 24.7% | 0hPa | 2.6V | 00:00:00 | 02:26:46 | 00:00:00 | |
| OE5DRO-10 | 2026-09-01 02:27:04 | 48.30623 | 17.91369 | 91° | 111km/h | 8937m | -8.4m/s | -36.7°C | 24.7% | 0hPa | 2.6V | 00:00:00 | 00:00:00 | 00:00:00 | |
| OM5KV | 2026-09-01 02:27:02 | 48.30624 | 17.91327 | 92° | 111km/h | 8945m | -8.7m/s | -36.8°C | 21.9% | 0hPa | 2.6V | 07:58:00 | 00:00:00 | 00:00:00 | |
| HA6NAB-11 | 2026-09-01 02:26:59 | 48.30626 | 17.91199 | 93° | 113km/h | 8970m | -8.4m/s | -37.0°C | 20.6% | 0hPa | 2.6V | 00:00:00 | 00:00:00 | 00:00:00 | |
| OM5KV | 2026-09-01 02:26:57 | 48.30628 | 17.91114 | 92° | 111km/h | 8986m | -8.7m/s | -37.0°C | 19.9% | 0hPa | 2.6V | 07:58:00 | 00:00:00 | 00:00:00 | |
| S52SK | 2026-09-01 02:26:56 | 48.30629 | 17.91072 | 94° | 111km/h | 8994m | -8.4m/s | -37.1°C | 20.1% | 0hPa | 2.6V | 00:00:00 | 00:00:00 | 00:00:00 | |
| HA6NAB-11 | 2026-09-01 02:26:54 | 48.30630 | 17.90987 | 93° | 113km/h | 9010m | -8.5m/s | -37.3°C | 20.5% | 0hPa | 2.6V | 00:00:00 | 00:00:00 | 00:00:00 | |
| OE3JTB-15 | 2026-09-01 02:26:52 | 48.30634 | 17.90860 | 93° | 111km/h | 9035m | -8.4m/s | -37.4°C | 24.0% | 0hPa | 2.6V | 00:00:00 | 00:00:00 | 00:00:00 | |
| PETON7-10 | 2026-09-01 02:26:51 | 48.30635 | 17.90817 | 93° | 111km/h | 9043m | -8.4m/s | -37.5°C | 24.2% | 0hPa | 2.5V | 00:00:00 | 00:00:00 | 00:00:00 | |
| PG1ADW-2 | 2026-09-01 02:26:50 | 48.30636 | 17.90775 | 93° | 111km/h | 9051m | -8.5m/s | -37.5°C | 24.3% | 0hPa | 2.5V | 00:00:00 | 02:26:30 | 00:00:00 | |
| HA6NAB-11 | 2026-09-01 02:26:49 | 48.30636 | 17.90775 | 93° | 113km/h | 9051m | -8.6m/s | -37.6°C | 21.5% | 0hPa | 2.5V | 00:00:00 | 00:00:00 | 00:00:00 | |
| OM5KV | 2026-09-01 02:26:47 | 48.30639 | 17.90690 | 93° | 111km/h | 9068m | -8.9m/s | -37.7°C | 22.2% | 0hPa | 2.5V | 07:58:00 | 00:00:00 | 00:00:00 | |
| S52SK | 2026-09-01 02:26:46 | 48.30640 | 17.90648 | 93° | 113km/h | 9076m | -8.7m/s | -37.8°C | 22.4% | 0hPa | 2.5V | 00:00:00 | 00:00:00 | 00:00:00 | |
| OE5DRO-10 | 2026-09-01 02:26:45 | 48.30642 | 17.90563 | 93° | 111km/h | 9093m | -8.6m/s | -37.9°C | 25.6% | 0hPa | 2.5V | 00:00:00 | 00:00:00 | 00:00:00 | |
| OM5KV | 2026-09-01 02:26:43 | 48.30644 | 17.90520 | 94° | 111km/h | 9101m | -8.3m/s | -38.1°C | 22.8% | 0hPa | 2.5V | 07:58:00 | 00:00:00 | 00:00:00 | |
| OM5KV | 2026-09-01 02:26:42 | 48.30645 | 17.90478 | 92° | 110km/h | 9109m | -8.7m/s | -38.1°C | 22.9% | 0hPa | 2.5V | 07:58:00 | 00:00:00 | 00:00:00 | |
| OM5KV | 2026-09-01 02:26:38 | 48.30650 | 17.90309 | 95° | 111km/h | 9143m | -8.5m/s | -38.4°C | 23.2% | 0hPa | 2.5V | 07:58:00 | 00:00:00 | 00:00:00 | |
| PETON7-10 | 2026-09-01 02:26:36 | 48.30654 | 17.90183 | 93° | 111km/h | 9168m | -8.3m/s | -38.6°C | 26.6% | 0hPa | 2.5V | 00:00:00 | 00:00:00 | 00:00:00 | |
| OM5KV | 2026-09-01 02:26:35 | 48.30654 | 17.90183 | 93° | 110km/h | 9168m | -8.3m/s | -38.7°C | 23.6% | 0hPa | 2.5V | 07:58:00 | 00:00:00 | 00:00:00 | |
| OM5KV | 2026-09-01 02:26:33 | 48.30657 | 17.90099 | 94° | 111km/h | 9185m | -8.2m/s | -38.8°C | 23.5% | 0hPa | 2.5V | 07:58:00 | 00:00:00 | 00:00:00 | |
| PG1ADW-2 | 2026-09-01 02:26:30 | 48.30662 | 17.89931 | 93° | 111km/h | 9217m | -8.8m/s | -39.1°C | 27.1% | 0hPa | 2.5V | 00:00:00 | 00:00:00 | 00:00:00 | |
| OM5KV | 2026-09-01 02:26:29 | 48.30662 | 17.89931 | 94° | 111km/h | 9217m | -8.8m/s | -39.1°C | 24.0% | 0hPa | 2.6V | 07:59:00 | 00:00:00 | 00:00:00 | |
| OM5KV | 2026-09-01 02:26:28 | 48.30664 | 17.89889 | 95° | 110km/h | 9225m | -8.8m/s | -39.2°C | 24.2% | 0hPa | 2.6V | 07:59:00 | 00:00:00 | 00:00:00 | |
| OE5DRO-10 | 2026-09-01 02:26:26 | 48.30668 | 17.89764 | 93° | 111km/h | 9250m | -8.3m/s | -39.4°C | 28.1% | 0hPa | 2.6V | 07:58:00 | 00:00:00 | 00:00:00 | |
| ATIDSZ-14 | 2026-09-01 02:26:25 | 48.30668 | 17.89764 | 93° | 110km/h | 9250m | -8.4m/s | -39.4°C | 24.9% | 0hPa | 2.6V | 07:59:00 | 00:00:00 | 00:00:00 | |
| OE3JTB-15 | 2026-09-01 02:26:23 | 48.30672 | 17.89640 | 93° | 115km/h | 9275m | -8.4m/s | -39.6°C | 28.8% | 0hPa | 2.6V | 00:00:00 | 00:00:00 | 00:00:00 | |
| OM5KV | 2026-09-01 02:26:22 | 48.30672 | 17.89639 | 93° | 110km/h | 9275m | -8.4m/s | -39.7°C | 25.5% | 0hPa | 2.6V | 07:59:00 | 00:00:00 | 00:00:00 | |
| PETON7-10 | 2026-09-01 02:26:21 | 48.30675 | 17.89556 | 93° | 113km/h | 9291m | -8.8m/s | -39.8°C | 29.1% | 0hPa | 2.6V | 00:00:00 | 02:26:01 | 00:00:00 | |
| OE3OSB-13 | 2026-09-01 02:26:20 | 48.30676 | 17.89514 | 93° | 111km/h | 9299m | -8.8m/s | -39.9°C | 25.9% | -1.0hPa | 2.6V | 00:00:00 | 00:00:00 | 00:00:00 | |
| OM5KV | 2026-09-01 02:26:17 | 48.30679 | 17.89430 | 94° | 113km/h | 9317m | -8.8m/s | -40.1°C | 26.4% | 0hPa | 2.6V | 07:59:00 | 00:00:00 | 00:00:00 | |
| OM5KV | 2026-09-01 02:26:16 | 48.30681 | 17.89387 | 95° | 111km/h | 9325m | -8.6m/s | -40.2°C | 26.6% | 0hPa | 2.6V | 07:59:00 | 00:00:00 | 00:00:00 | |
| PG1ADW-2 | 2026-09-01 02:26:10 | 48.30695 | 17.89089 | 95° | 119km/h | 9383m | -8.0m/s | -40.6°C | 30.4% | 0hPa | 2.6V | 07:59:00 | 00:00:00 | 00:00:00 | |
| OE5DRO-10 | 2026-09-01 02:26:07 | 48.30703 | 17.88960 | 95° | 120km/h | 9407m | -8.6m/s | -40.8°C | 30.0% | 0hPa | 2.6V | 00:00:00 | 00:00:00 | 00:00:00 | |
| PETON7-10 | 2026-09-01 02:26:06 | 48.30705 | 17.88917 | 97° | 119km/h | 9416m | -8.7m/s | -40.9°C | 29.8% | 0hPa | 2.5V | 00:00:00 | 00:00:00 | 00:00:00 | |
| OM5KV | 2026-09-01 02:26:05 | 48.30705 | 17.88917 | 97° | 115km/h | 9416m | -8.7m/s | -40.9°C | 26.3% | 0hPa | 2.5V | 07:59:00 | 00:00:00 | 00:00:00 | |
| ATIDSZ-14 | 2026-09-01 02:26:04 | 48.30708 | 17.88873 | 96° | 115km/h | 9424m | -9.3m/s | -41.0°C | 26.2% | 0hPa | 2.5V | 07:59:00 | 00:00:00 | 00:00:00 | |
| OE3OSB-13 | 2026-09-01 02:25:49 | 48.30771 | 17.88149 | 97° | 122km/h | 9562m | -8.8m/s | -42.0°C | 27.5% | -1.0hPa | 2.5V | 00:00:00 | 00:00:00 | 00:00:00 | |
| OE5DRO-10 | 2026-09-01 02:25:48 | 48.30775 | 17.88102 | 99° | 124km/h | 9571m | -8.7m/s | -42.0°C | 31.0% | 0hPa | 2.5V | 00:00:00 | 00:00:00 | 00:00:00 | |
| OM5KV | 2026-09-01 02:25:47 | 48.30775 | 17.88102 | 100° | 126km/h | 9571m | -8.8m/s | -42.0°C | 27.2% | 0hPa | 2.5V | 07:59:00 | 00:00:00 | 00:00:00 | |
| ATIDSZ-14 | 2026-09-01 02:25:44 | 48.30788 | 17.87961 | 99° | 126km/h | 9597m | -8.8m/s | -42.1°C | 26.1% | 0hPa | 2.5V | 07:59:00 | 00:00:00 | 00:00:00 | |
| OM5KV | 2026-09-01 02:25:42 | 48.30797 | 17.87866 | 99° | 126km/h | 9615m | -9.0m/s | -42.3°C | 25.3% | 0hPa | 2.5V | 07:59:00 | 00:00:00 | 00:00:00 | |
| OM5KV | 2026-09-01 02:25:41 | 48.30801 | 17.87819 | 98° | 124km/h | 9623m | -8.9m/s | -42.3°C | 24.9% | 0hPa | 2.5V | 07:59:00 | 00:00:00 | 00:00:00 | |
| HA6NAB-11 | 2026-09-01 02:25:38 | 48.30814 | 17.87677 | 98° | 126km/h | 9649m | -8.9m/s | -42.5°C | 24.1% | 0hPa | 2.5V | 00:00:00 | 00:00:00 | 00:00:00 | |
| PETON7-10 | 2026-09-01 02:25:36 | 48.30827 | 17.87536 | 98° | 124km/h | 9675m | -9.0m/s | -42.7°C | 27.3% | 0hPa | 2.5V | 00:00:00 | 02:25:16 | 00:00:00 | |
| S52SK | 2026-09-01 02:25:35 | 48.30827 | 17.87536 | 99° | 126km/h | 9675m | -9.0m/s | -42.7°C | 23.8% | 0hPa | 2.5V | 00:00:00 | 00:00:00 | 00:00:00 | |
| HA6NAB-11 | 2026-09-01 02:25:33 | 48.30834 | 17.87442 | 99° | 126km/h | 9694m | -8.9m/s | -42.9°C | 23.7% | 0hPa | 2.5V | 00:00:00 | 00:00:00 | 00:00:00 | |
| PG1ADW-2 | 2026-09-01 02:25:30 | 48.30852 | 17.87257 | 98° | 124km/h | 9728m | -8.9m/s | -43.1°C | 27.0% | 0hPa | 2.5V | 00:00:00 | 02:25:10 | 00:00:00 | |
| OE5DRO-10 | 2026-09-01 02:25:29 | 48.30856 | 17.87210 | 98° | 124km/h | 9737m | -8.8m/s | -43.2°C | 26.8% | 0hPa | 2.5V | 00:00:00 | 00:00:00 | 00:00:00 | |
| HA6NAB-11 | 2026-09-01 02:25:27 | 48.30860 | 17.87163 | 98° | 122km/h | 9745m | -8.7m/s | -43.3°C | 23.1% | 0hPa | 2.5V | 00:00:00 | 00:00:00 | 00:00:00 | |
| OM5KV | 2026-09-01 02:25:25 | 48.30869 | 17.87070 | 100° | 124km/h | 9763m | -8.7m/s | -43.4°C | 22.7% | 0hPa | 2.5V | 08:00:00 | 00:00:00 | 00:00:00 | |
| OM5KV | 2026-09-01 02:25:24 | 48.30873 | 17.87024 | 98° | 122km/h | 9771m | -9.0m/s | -43.5°C | 22.4% | 0hPa | 2.5V | 08:00:00 | 00:00:00 | 00:00:00 | |
| ATIDSZ-14 | 2026-09-01 02:25:23 | 48.30877 | 17.86978 | 100° | 124km/h | 9780m | -8.7m/s | -43.5°C | 22.2% | 0hPa | 2.5V | 08:00:00 | 00:00:00 | 00:00:00 | |
| HA6NAB-11 | 2026-09-01 02:25:22 | 48.30882 | 17.86932 | 99° | 122km/h | 9788m | -8.6m/s | -43.6°C | 22.1% | 0hPa | 2.5V | 00:00:00 | 00:00:00 | 00:00:00 | |
| PETON7-10 | 2026-09-01 02:25:21 | 48.30891 | 17.86839 | 100° | 124km/h | 9806m | -8.9m/s | -43.6°C | 25.5% | 0hPa | 2.5V | 07:59:00 | 00:00:00 | 00:00:00 | |
| OM5KV | 2026-09-01 02:25:19 | 48.30895 | 17.86793 | 99° | 122km/h | 9815m | -9.1m/s | -43.7°C | 21.9% | 0hPa | 2.6V | 08:00:00 | 00:00:00 | 00:00:00 | |
| OE3OSB-13 | 2026-09-01 02:25:18 | 48.30905 | 17.86701 | 98° | 122km/h | 9832m | -9.0m/s | -43.8°C | 22.0% | -1.0hPa | 2.6V | 00:00:00 | 00:00:00 | 00:00:00 | |
| GYPAP8-17 | 2026-09-01 02:25:17 | 48.30905 | 17.86701 | 100° | 122km/h | 9832m | -9.0m/s | -43.8°C | 22.0% | 0hPa | 2.6V | 00:00:00 | 00:00:00 | 00:00:00 | |
| HA6NAB-11 | 2026-09-01 02:25:16 | 48.30909 | 17.86654 | 99° | 124km/h | 9841m | -9.1m/s | -43.8°C | 22.4% | 0hPa | 2.6V | 00:00:00 | 00:00:00 | 00:00:00 | |
| OM5KV | 2026-09-01 02:25:13 | 48.30923 | 17.86514 | 100° | 126km/h | 9868m | -9.0m/s | -44.1°C | 22.9% | 0hPa | 2.6V | 08:00:00 | 00:00:00 | 00:00:00 | |
| OM5KV | 2026-09-01 02:25:12 | 48.30928 | 17.86468 | 100° | 122km/h | 9877m | -9.1m/s | -44.2°C | 23.2% | 0hPa | 2.6V | 08:00:00 | 00:00:00 | 00:00:00 | |
| PG1ADW-2 | 2026-09-01 02:25:10 | 48.30943 | 17.86328 | 99° | 126km/h | 9903m | -9.0m/s | -44.3°C | 27.7% | 0hPa | 2.6V | 00:00:00 | 00:00:00 | 00:00:00 | |
| OM5KV | 2026-09-01 02:25:08 | 48.30948 | 17.86282 | 100° | 126km/h | 9911m | -8.9m/s | -44.5°C | 24.0% | 0hPa | 2.6V | 08:00:00 | 00:00:00 | 00:00:00 | |
| OM5KV | 2026-09-01 02:25:07 | 48.30953 | 17.86235 | 100° | 122km/h | 9920m | -8.8m/s | -44.5°C | 24.3% | 0hPa | 2.6V | 08:00:00 | 00:00:00 | 00:00:00 | |
| PETON7-10 | 2026-09-01 02:25:06 | 48.30964 | 17.86142 | 101° | 126km/h | 9937m | -8.9m/s | -44.6°C | 28.7% | 0hPa | 2.6V | 00:00:00 | 00:00:00 | 00:00:00 | |
| ATIDSZ-14 | 2026-09-01 02:25:03 | 48.30975 | 17.86048 | 102° | 126km/h | 9955m | -8.9m/s | -44.8°C | 25.4% | 0hPa | 2.6V | 08:00:00 | 00:00:00 | 00:00:00 | |
| OM5KV | 2026-09-01 02:25:02 | 48.30981 | 17.86001 | 100° | 124km/h | 9964m | -8.9m/s | -44.9°C | 25.7% | 0hPa | 2.6V | 08:00:00 | 00:00:00 | 00:00:00 | |
| OE3OSB-13 | 2026-09-01 02:24:47 | 48.31074 | 17.85245 | 100° | 126km/h | 10106m | -9.2m/s | -46.1°C | 30.9% | -1.0hPa | 2.6V | 00:00:00 | 00:00:00 | 00:00:00 | |
| OM5KV | 2026-09-01 02:24:44 | 48.31086 | 17.85151 | 101° | 126km/h | 10124m | -8.9m/s | -46.3°C | 31.7% | 0hPa | 2.6V | 08:01:00 | 00:00:00 | 00:00:00 | |
| ATIDSZ-14 | 2026-09-01 02:24:43 | 48.31092 | 17.85103 | 102° | 130km/h | 10133m | -9.2m/s | -46.4°C | 32.0% | 0hPa | 2.6V | 08:01:00 | 00:00:00 | 00:00:00 | |
| OM5KV | 2026-09-01 02:24:39 | 48.31116 | 17.84914 | 101° | 126km/h | 10168m | -9.0m/s | -46.7°C | 32.9% | 0hPa | 2.6V | 08:01:00 | 00:00:00 | 00:00:00 | |
| OM5KV | 2026-09-01 02:24:38 | 48.31122 | 17.84867 | 101° | 128km/h | 10178m | -9.2m/s | -46.8°C | 33.2% | 0hPa | 2.6V | 08:01:00 | 00:00:00 | 00:00:00 | |
| PETON7-10 | 2026-09-01 02:24:36 | 48.31140 | 17.84725 | 102° | 126km/h | 10204m | -9.4m/s | -47.0°C | 38.9% | 0hPa | 2.6V | 00:00:00 | 00:00:00 | 00:00:00 | |
| OM5KV | 2026-09-01 02:24:32 | 48.31158 | 17.84583 | 102° | 128km/h | 10232m | -9.4m/s | -47.3°C | 34.5% | 0hPa | 2.6V | 08:01:00 | 00:00:00 | 00:00:00 | |
| OE5DRO-10 | 2026-09-01 02:24:31 | 48.31171 | 17.84489 | 101° | 126km/h | 10250m | -9.3m/s | -47.5°C | 40.3% | 0hPa | 2.6V | 00:00:00 | 00:00:00 | 00:00:00 | |
| PG1ADW-2 | 2026-09-01 02:24:30 | 48.31177 | 17.84442 | 102° | 126km/h | 10259m | -9.3m/s | -47.6°C | 40.7% | 0hPa | 2.6V | 00:00:00 | 00:00:00 | 00:00:00 | |
| OM5KV | 2026-09-01 02:24:28 | 48.31184 | 17.84395 | 103° | 126km/h | 10268m | -9.2m/s | -47.7°C | 35.7% | 0hPa | 2.5V | 08:01:00 | 00:00:00 | 00:00:00 | |
| OM5KV | 2026-09-01 02:24:26 | 48.31196 | 17.84301 | 102° | 128km/h | 10287m | -9.4m/s | -47.9°C | 36.2% | 0hPa | 2.5V | 08:01:00 | 00:00:00 | 00:00:00 | |
| ATIDSZ-14 | 2026-09-01 02:24:22 | 48.31221 | 17.84114 | 102° | 124km/h | 10323m | -9.3m/s | -48.2°C | 37.4% | 0hPa | 2.5V | 08:01:00 | 00:00:00 | 00:00:00 | |
| PETON7-10 | 2026-09-01 02:24:21 | 48.31234 | 17.84020 | 103° | 124km/h | 10342m | -9.0m/s | -48.3°C | 43.6% | 0hPa | 2.5V | 00:00:00 | 00:00:00 | 00:00:00 | |
| S52SK | 2026-09-01 02:24:18 | 48.31247 | 17.83927 | 102° | 128km/h | 10360m | -9.3m/s | -48.6°C | 38.4% | 0hPa | 2.5V | 00:00:00 | 00:00:00 | 00:00:00 | |
| OM5KV | 2026-09-01 02:24:17 | 48.31253 | 17.83880 | 103° | 126km/h | 10369m | -9.1m/s | -48.7°C | 38.5% | 0hPa | 2.5V | 08:01:00 | 00:00:00 | 00:00:00 | |
| OM5KV | 2026-09-01 02:24:15 | 48.31266 | 17.83788 | 103° | 126km/h | 10387m | -9.0m/s | -48.8°C | 38.7% | 0hPa | 2.5V | 08:01:00 | 00:00:00 | 00:00:00 | |
| OE5DRO-10 | 2026-09-01 02:24:12 | 48.31292 | 17.83603 | 102° | 124km/h | 10423m | -9.2m/s | -49.1°C | 44.8% | 0hPa | 2.5V | 00:00:00 | 00:00:00 | 00:00:00 | |
| OM5KV | 2026-09-01 02:24:11 | 48.31292 | 17.83603 | 103° | 122km/h | 10423m | -9.2m/s | -49.2°C | 38.9% | 0hPa | 2.5V | 08:01:00 | 00:00:00 | 00:00:00 | |
| PG1ADW-2 | 2026-09-01 02:24:10 | 48.31306 | 17.83511 | 103° | 122km/h | 10442m | -8.8m/s | -49.3°C | 45.0% | 0hPa | 2.5V | 00:00:00 | 02:23:50 | 00:00:00 | |
| OM5KV | 2026-09-01 02:24:09 | 48.31306 | 17.83511 | 104° | 124km/h | 10442m | -8.9m/s | -49.3°C | 39.1% | 0hPa | 2.5V | 08:01:00 | 00:00:00 | 00:00:00 | |
| PETON7-10 | 2026-09-01 02:24:06 | 48.31331 | 17.83328 | 102° | 124km/h | 10478m | -9.3m/s | -49.6°C | 45.1% | 0hPa | 2.5V | 00:00:00 | 02:23:46 | 00:00:00 | |
| OM5KV | 2026-09-01 02:24:05 | 48.31332 | 17.83328 | 103° | 124km/h | 10478m | -9.3m/s | -49.7°C | 39.1% | 0hPa | 2.5V | 08:01:00 | 00:00:00 | 00:00:00 | |
| OM5KV | 2026-09-01 02:24:03 | 48.31345 | 17.83236 | 103° | 122km/h | 10496m | -9.2m/s | -49.8°C | 38.9% | 0hPa | 2.5V | 08:01:00 | 00:00:00 | 00:00:00 | |
| ATIDSZ-14 | 2026-09-01 02:24:02 | 48.31351 | 17.83190 | 103° | 124km/h | 10505m | -9.4m/s | -49.9°C | 38.6% | 0hPa | 2.5V | 08:01:00 | 00:00:00 | 00:00:00 | |
| HA6NAB-11 | 2026-09-01 02:24:01 | 48.31358 | 17.83144 | 104° | 124km/h | 10514m | -9.3m/s | -50.0°C | 38.5% | 0hPa | 2.5V | 08:01:00 | 00:00:00 | 00:00:00 | |
| OM5KV | 2026-09-01 02:23:59 | 48.31372 | 17.83053 | 103° | 124km/h | 10532m | -9.4m/s | -50.1°C | 38.2% | 0hPa | 2.5V | 08:01:00 | 00:00:00 | 00:00:00 | |
| OM5KV | 2026-09-01 02:23:58 | 48.31379 | 17.83007 | 104° | 124km/h | 10542m | -9.3m/s | -50.2°C | 38.1% | 0hPa | 2.5V | 08:01:00 | 00:00:00 | 00:00:00 | |
| HA6NAB-11 | 2026-09-01 02:23:55 | 48.31399 | 17.82869 | 104° | 124km/h | 10570m | -9.1m/s | -50.4°C | 38.1% | 0hPa | 2.5V | 00:00:00 | 00:00:00 | 00:00:00 | |
| OE5DRO-10 | 2026-09-01 02:23:53 | 48.31419 | 17.82734 | 103° | 120km/h | 10597m | -9.1m/s | -50.6°C | 44.0% | 0hPa | 2.5V | 00:00:00 | 00:00:00 | 00:00:00 | |
| OM5KV | 2026-09-01 02:23:52 | 48.31419 | 17.82734 | 103° | 120km/h | 10597m | -9.2m/s | -50.6°C | 37.9% | 0hPa | 2.5V | 08:02:00 | 00:00:00 | 00:00:00 | |
| PETON7-10 | 2026-09-01 02:23:51 | 48.31431 | 17.82643 | 102° | 120km/h | 10615m | -9.1m/s | -50.7°C | 43.8% | 0hPa | 2.5V | 00:00:00 | 00:00:00 | 00:00:00 | |
| PG1ADW-2 | 2026-09-01 02:23:50 | 48.31437 | 17.82598 | 102° | 120km/h | 10625m | -9.2m/s | -50.8°C | 43.7% | 0hPa | 2.6V | 00:00:00 | 00:00:00 | 00:00:00 | |
| HA6NAB-11 | 2026-09-01 02:23:49 | 48.31437 | 17.82598 | 102° | 122km/h | 10625m | -9.2m/s | -50.8°C | 37.5% | 0hPa | 2.6V | 00:00:00 | 00:00:00 | 00:00:00 | |
| OM5KV | 2026-09-01 02:23:48 | 48.31443 | 17.82553 | 102° | 120km/h | 10634m | -9.1m/s | -50.9°C | 37.3% | 0hPa | 2.6V | 08:02:00 | 00:00:00 | 00:00:00 | |
| OM5KV | 2026-09-01 02:23:46 | 48.31454 | 17.82463 | 102° | 120km/h | 10652m | -8.9m/s | -51.1°C | 36.9% | 0hPa | 2.6V | 08:02:00 | 00:00:00 | 00:00:00 | |
| OE3OSB-13 | 2026-09-01 02:23:45 | 48.31472 | 17.82329 | 99° | 119km/h | 10678m | -9.3m/s | -51.3°C | 35.7% | -1.0hPa | 2.6V | 00:00:00 | 00:00:00 | 00:00:00 | |
| HA6NAB-11 | 2026-09-01 02:23:43 | 48.31472 | 17.82329 | 101° | 119km/h | 10679m | -9.3m/s | -51.3°C | 35.9% | 0hPa | 2.6V | 00:00:00 | 00:00:00 | 00:00:00 | |
| OM5KV | 2026-09-01 02:23:42 | 48.31477 | 17.82284 | 102° | 122km/h | 10688m | -9.2m/s | -51.3°C | 35.7% | 0hPa | 2.6V | 08:02:00 | 00:00:00 | 00:00:00 | |
| ATIDSZ-14 | 2026-09-01 02:23:41 | 48.31483 | 17.82239 | 102° | 119km/h | 10697m | -9.2m/s | -51.4°C | 35.4% | 0hPa | 2.6V | 08:02:00 | 00:00:00 | 00:00:00 | |
| OM5KV | 2026-09-01 02:23:40 | 48.31488 | 17.82195 | 101° | 119km/h | 10706m | -9.3m/s | -51.5°C | 35.1% | 0hPa | 2.6V | 08:02:00 | 00:00:00 | 00:00:00 | |
| HA6NAB-11 | 2026-09-01 02:23:37 | 48.31504 | 17.82061 | 101° | 120km/h | 10734m | -9.5m/s | -51.7°C | 35.2% | 0hPa | 2.6V | 00:00:00 | 00:00:00 | 00:00:00 | |
| PETON7-10 | 2026-09-01 02:23:36 | 48.31514 | 17.81973 | 100° | 120km/h | 10752m | -9.2m/s | -51.7°C | 42.1% | 0hPa | 2.6V | 00:00:00 | 00:00:00 | 00:00:00 | |
| OE5DRO-10 | 2026-09-01 02:23:34 | 48.31524 | 17.81884 | 100° | 119km/h | 10770m | -9.3m/s | -51.8°C | 42.3% | 0hPa | 2.6V | 00:00:00 | 00:00:00 | 00:00:00 | |
| PG1ADW-2 | 2026-09-01 02:23:30 | 48.31542 | 17.81706 | 99° | 120km/h | 10807m | -9.4m/s | -52.0°C | 41.4% | 0hPa | 2.6V | 08:01:00 | 00:00:00 | 00:00:00 | |
| OM5KV | 2026-09-01 02:23:28 | 48.31546 | 17.81661 | 100° | 119km/h | 10816m | -9.4m/s | -52.1°C | 35.1% | 0hPa | 2.5V | 08:02:00 | 00:00:00 | 00:00:00 | |
| OM5KV | 2026-09-01 02:23:24 | 48.31563 | 17.81481 | 98° | 120km/h | 10854m | -9.6m/s | -52.4°C | 34.0% | 0hPa | 2.5V | 08:02:00 | 00:00:00 | 00:00:00 | |
| OM5KV | 2026-09-01 02:23:22 | 48.31571 | 17.81390 | 99° | 120km/h | 10873m | -9.3m/s | -52.5°C | 33.9% | 0hPa | 2.5V | 08:02:00 | 00:00:00 | 00:00:00 | |
| PETON7-10 | 2026-09-01 02:23:21 | 48.31579 | 17.81299 | 98° | 120km/h | 10891m | -9.3m/s | -52.6°C | 40.2% | 0hPa | 2.5V | 00:00:00 | 02:23:01 | 00:00:00 | |
| ATIDSZ-14 | 2026-09-01 02:23:20 | 48.31579 | 17.81299 | 99° | 122km/h | 10891m | -9.4m/s | -52.6°C | 33.9% | 0hPa | 2.5V | 08:02:00 | 00:00:00 | 00:00:00 | |
| OM5KV | 2026-09-01 02:23:18 | 48.31587 | 17.81209 | 98° | 120km/h | 10910m | -9.5m/s | -52.7°C | 33.9% | 0hPa | 2.5V | 08:02:00 | 00:00:00 | 00:00:00 | |
| OM5KV | 2026-09-01 02:23:16 | 48.31594 | 17.81118 | 97° | 119km/h | 10929m | -9.3m/s | -52.8°C | 33.7% | 0hPa | 2.5V | 08:02:00 | 00:00:00 | 00:00:00 | |
| OE5DRO-10 | 2026-09-01 02:23:15 | 48.31600 | 17.81029 | 97° | 120km/h | 10947m | -9.5m/s | -52.9°C | 39.5% | 0hPa | 2.5V | 00:00:00 | 00:00:00 | 00:00:00 | |
| GYPAP8-17 | 2026-09-01 02:23:13 | 48.31603 | 17.80984 | 96° | 119km/h | 10957m | -9.5m/s | -53.0°C | 33.0% | 0hPa | 2.5V | 00:00:00 | 00:00:00 | 00:00:00 | |
| PG1ADW-2 | 2026-09-01 02:23:10 | 48.31614 | 17.80803 | 96° | 120km/h | 10994m | -9.3m/s | -53.2°C | 38.3% | 0hPa | 2.5V | 00:00:00 | 00:00:00 | 00:00:00 | |
| OM5KV | 2026-09-01 02:23:07 | 48.31619 | 17.80711 | 96° | 120km/h | 11014m | -9.5m/s | -53.4°C | 31.4% | 0hPa | 2.5V | 08:02:00 | 00:00:00 | 00:00:00 | |
| PETON7-10 | 2026-09-01 02:23:06 | 48.31624 | 17.80621 | 94° | 120km/h | 11033m | -9.0m/s | -53.5°C | 37.2% | 0hPa | 2.5V | 08:02:00 | 00:00:00 | 00:00:00 | |
| HA6NAB-11 | 2026-09-01 02:23:05 | 48.31624 | 17.80621 | 95° | 119km/h | 11033m | -9.0m/s | -53.6°C | 31.1% | 0hPa | 2.6V | 00:00:00 | 00:00:00 | 00:00:00 | |
| ATIDSZ-14 | 2026-09-01 02:23:00 | 48.31633 | 17.80395 | 95° | 120km/h | 11079m | -9.4m/s | -53.9°C | 31.0% | 0hPa | 2.6V | 08:02:00 | 00:00:00 | 00:00:00 | |
| OM5KV | 2026-09-01 02:22:57 | 48.31638 | 17.80257 | 95° | 120km/h | 11107m | -9.2m/s | -54.1°C | 31.3% | 0hPa | 2.6V | 00:00:00 | 00:00:00 | 00:00:00 | |
| OE5DRO-10 | 2026-09-01 02:22:56 | 48.31641 | 17.80166 | 93° | 124km/h | 11127m | -9.5m/s | -54.1°C | 37.5% | 0hPa | 2.6V | 00:00:00 | 00:00:00 | 00:00:00 | |
| HA6NAB-11 | 2026-09-01 02:22:55 | 48.31641 | 17.80166 | 94° | 122km/h | 11127m | -9.6m/s | -54.2°C | 31.2% | 0hPa | 2.6V | 00:00:00 | 00:00:00 | 00:00:00 | |
| S52SK | 2026-09-01 02:22:54 | 48.31642 | 17.80120 | 94° | 119km/h | 11136m | -9.5m/s | -54.3°C | 31.2% | 0hPa | 2.6V | 00:00:00 | 00:00:00 | 00:00:00 | |
| PETON7-10 | 2026-09-01 02:22:51 | 48.31647 | 17.79938 | 93° | 126km/h | 11173m | -9.4m/s | -54.5°C | 37.9% | 0hPa | 2.6V | 00:00:00 | 00:00:00 | 00:00:00 | |
| PG1ADW-2 | 2026-09-01 02:22:50 | 48.31648 | 17.79891 | 93° | 128km/h | 11183m | -9.0m/s | -54.5°C | 37.9% | 0hPa | 2.6V | 00:00:00 | 02:22:30 | 00:00:00 | |
| HA6NAB-11 | 2026-09-01 02:22:49 | 48.31648 | 17.79891 | 93° | 122km/h | 11183m | -9.1m/s | -54.6°C | 31.5% | 0hPa | 2.6V | 00:00:00 | 00:00:00 | 00:00:00 | |
| OM5KV | 2026-09-01 02:22:47 | 48.31650 | 17.79798 | 94° | 122km/h | 11201m | -9.1m/s | -54.7°C | 31.4% | 0hPa | 2.6V | 00:00:00 | 00:00:00 | 00:00:00 | |
| OM5KV | 2026-09-01 02:22:46 | 48.31651 | 17.79751 | 93° | 124km/h | 11210m | -9.3m/s | -54.8°C | 31.4% | 0hPa | 2.6V | 00:00:00 | 00:00:00 | 00:00:00 | |
| HA6NAB-11 | 2026-09-01 02:22:44 | 48.31653 | 17.79657 | 93° | 126km/h | 11227m | -9.3m/s | -54.9°C | 31.4% | 0hPa | 2.6V | 00:00:00 | 00:00:00 | 00:00:00 | |
| OE3OSB-13 | 2026-09-01 02:22:43 | 48.31656 | 17.79514 | 91° | 126km/h | 11254m | -9.2m/s | -55.0°C | 31.0% | -1.0hPa | 2.6V | 00:00:00 | 00:00:00 | 00:00:00 | |
| OM5KV | 2026-09-01 02:22:41 | 48.31656 | 17.79514 | 93° | 126km/h | 11255m | -9.2m/s | -55.0°C | 31.3% | 0hPa | 2.6V | 00:00:00 | 00:00:00 | 00:00:00 | |
| ATIDSZ-14 | 2026-09-01 02:22:40 | 48.31656 | 17.79466 | 92° | 130km/h | 11264m | -9.4m/s | -55.0°C | 31.1% | 0hPa | 2.6V | 08:02:00 | 00:00:00 | 00:00:00 | |
| HA6NAB-11 | 2026-09-01 02:22:39 | 48.31658 | 17.79417 | 93° | 128km/h | 11273m | -9.0m/s | -55.0°C | 31.0% | 0hPa | 2.6V | 00:00:00 | 00:00:00 | 00:00:00 | |
| OE5DRO-10 | 2026-09-01 02:22:37 | 48.31660 | 17.79269 | 92° | 133km/h | 11300m | -9.1m/s | -55.1°C | 37.4% | 0hPa | 2.6V | 00:00:00 | 00:00:00 | 00:00:00 | |
| PETON7-10 | 2026-09-01 02:22:36 | 48.31661 | 17.79220 | 93° | 133km/h | 11310m | -8.9m/s | -55.1°C | 37.2% | 0hPa | 2.6V | 00:00:00 | 02:22:16 | 00:00:00 | |
| OM5KV | 2026-09-01 02:22:35 | 48.31661 | 17.79220 | 93° | 131km/h | 11310m | -9.0m/s | -55.1°C | 30.8% | 0hPa | 2.6V | 00:00:00 | 00:00:00 | 00:00:00 | |
| GYPAP8-17 | 2026-09-01 02:22:33 | 48.31664 | 17.79121 | 93° | 133km/h | 11328m | -9.5m/s | -55.3°C | 30.6% | 0hPa | 2.6V | 00:00:00 | 00:00:00 | 00:00:00 | |
| PG1ADW-2 | 2026-09-01 02:22:30 | 48.31669 | 17.78920 | 93° | 135km/h | 11365m | -8.9m/s | -55.4°C | 37.1% | 0hPa | 2.6V | 00:00:00 | 00:00:00 | 00:00:00 | |
| OM5KV | 2026-09-01 02:22:23 | 48.31677 | 17.78616 | 94° | 135km/h | 11422m | -9.3m/s | -55.8°C | 29.7% | 0hPa | 2.5V | 00:00:00 | 00:00:00 | 00:00:00 | |
| PETON7-10 | 2026-09-01 02:22:21 | 48.31682 | 17.78462 | 93° | 137km/h | 11450m | -9.1m/s | -55.8°C | 35.7% | 0hPa | 2.5V | 00:00:00 | 00:00:00 | 00:00:00 | |
| ATIDSZ-14 | 2026-09-01 02:22:20 | 48.31682 | 17.78462 | 94° | 135km/h | 11450m | -9.1m/s | -55.8°C | 29.2% | 0hPa | 2.5V | 08:02:00 | 00:00:00 | 00:00:00 | |
| OM5KV | 2026-09-01 02:22:19 | 48.31683 | 17.78411 | 93° | 135km/h | 11458m | -9.4m/s | -55.8°C | 29.0% | 0hPa | 2.5V | 00:00:00 | 00:00:00 | 00:00:00 | |
| OE5DRO-10 | 2026-09-01 02:22:18 | 48.31686 | 17.78308 | 93° | 139km/h | 11477m | -9.1m/s | -55.8°C | 35.1% | 0hPa | 2.5V | 08:02:00 | 00:00:00 | 00:00:00 | |
| OM5KV | 2026-09-01 02:22:13 | 48.31692 | 17.78101 | 93° | 135km/h | 11513m | -9.5m/s | -56.0°C | 28.0% | 0hPa | 2.5V | 08:03:00 | 00:00:00 | 00:00:00 | |
| OE3OSB-13 | 2026-09-01 02:22:12 | 48.31698 | 17.77947 | 92° | 135km/h | 11540m | -9.3m/s | -56.1°C | 27.4% | -1.0hPa | 2.5V | 00:00:00 | 00:00:00 | 00:00:00 | |
| PG1ADW-2 | 2026-09-01 02:22:10 | 48.31699 | 17.77895 | 93° | 144km/h | 11549m | -9.4m/s | -56.0°C | 34.0% | 0hPa | 2.5V | 00:00:00 | 00:00:00 | 00:00:00 | |
| OM5KV | 2026-09-01 02:22:07 | 48.31703 | 17.77790 | 93° | 137km/h | 11567m | -9.4m/s | -56.2°C | 27.2% | 0hPa | 2.5V | 08:03:00 | 00:00:00 | 00:00:00 | |
| PETON7-10 | 2026-09-01 02:22:06 | 48.31706 | 17.77684 | 94° | 146km/h | 11586m | -9.4m/s | -56.3°C | 33.4% | 0hPa | 2.5V | 00:00:00 | 00:00:00 | 00:00:00 | |
| OM5KV | 2026-09-01 02:22:05 | 48.31706 | 17.77684 | 95° | 141km/h | 11586m | -9.4m/s | -56.3°C | 27.0% | 0hPa | 2.5V | 08:03:00 | 00:00:00 | 00:00:00 | |
| OM5KV | 2026-09-01 02:22:01 | 48.31714 | 17.77470 | 95° | 144km/h | 11623m | -9.3m/s | -56.6°C | 26.2% | 0hPa | 2.5V | 08:03:00 | 00:00:00 | 00:00:00 | |
| ATIDSZ-14 | 2026-09-01 02:22:00 | 48.31716 | 17.77415 | 94° | 146km/h | 11631m | -9.3m/s | -56.7°C | 26.0% | 0hPa | 2.5V | 08:03:00 | 00:00:00 | 00:00:00 | |
| OE5DRO-10 | 2026-09-01 02:21:59 | 48.31720 | 17.77305 | 94° | 151km/h | 11649m | -9.2m/s | -56.8°C | 31.8% | 0hPa | 2.5V | 00:00:00 | 00:00:00 | 00:00:00 | |
| HA6NAB-11 | 2026-09-01 02:21:57 | 48.31722 | 17.77250 | 94° | 146km/h | 11658m | -9.1m/s | -56.9°C | 25.2% | 0hPa | 2.5V | 00:00:00 | 00:00:00 | 00:00:00 | |
| OM5KV | 2026-09-01 02:21:55 | 48.31727 | 17.77138 | 95° | 146km/h | 11677m | -9.2m/s | -57.0°C | 24.6% | 0hPa | 2.5V | 08:03:00 | 00:00:00 | 00:00:00 | |
| OM5KV | 2026-09-01 02:21:53 | 48.31733 | 17.77027 | 95° | 146km/h | 11695m | -8.9m/s | -56.9°C | 23.7% | 0hPa | 2.5V | 08:03:00 | 00:00:00 | 00:00:00 | |
| PETON7-10 | 2026-09-01 02:21:51 | 48.31742 | 17.76857 | 95° | 153km/h | 11722m | -9.2m/s | -56.9°C | 28.3% | 0hPa | 2.5V | 00:00:00 | 02:21:31 | 00:00:00 | |
| PG1ADW-2 | 2026-09-01 02:21:50 | 48.31746 | 17.76800 | 96° | 153km/h | 11731m | -9.4m/s | -57.0°C | 27.9% | 0hPa | 2.5V | 00:00:00 | 00:00:00 | 00:00:00 | |
| HA6NAB-11 | 2026-09-01 02:21:46 | 48.31756 | 17.76627 | 96° | 153km/h | 11759m | -9.2m/s | -57.2°C | 20.8% | 0hPa | 2.5V | 00:00:00 | 00:00:00 | 00:00:00 | |
| OM5KV | 2026-09-01 02:21:45 | 48.31760 | 17.76569 | 97° | 153km/h | 11768m | -9.3m/s | -57.1°C | 20.3% | 0hPa | 2.5V | 08:03:00 | 00:00:00 | 00:00:00 | |
| OM5KV | 2026-09-01 02:21:44 | 48.31764 | 17.76511 | 97° | 153km/h | 11777m | -9.0m/s | -57.2°C | 20.0% | 0hPa | 2.5V | 08:03:00 | 00:00:00 | 00:00:00 | |
| S52SK | 2026-09-01 02:21:42 | 48.31773 | 17.76395 | 99° | 153km/h | 11795m | -9.2m/s | -57.2°C | 19.3% | 0hPa | 2.5V | 00:00:00 | 00:00:00 | 00:00:00 | |
| OE5DRO-10 | 2026-09-01 02:21:40 | 48.31788 | 17.76222 | 98° | 148km/h | 11820m | -6.8m/s | -57.3°C | 24.4% | 0hPa | 2.5V | 00:00:00 | 00:00:00 | 00:00:00 | |
| ATIDSZ-14 | 2026-09-01 02:21:39 | 48.31788 | 17.76222 | 98° | 151km/h | 11820m | -6.8m/s | -57.3°C | 18.7% | 0hPa | 2.5V | 08:03:00 | 00:00:00 | 00:00:00 | |
| OM5KV | 2026-09-01 02:21:38 | 48.31793 | 17.76164 | 99° | 153km/h | 11827m | -7.3m/s | -57.4°C | 18.3% | 0hPa | 2.5V | 08:03:00 | 00:00:00 | 00:00:00 | |
| PETON7-10 | 2026-09-01 02:21:36 | 48.31810 | 17.75992 | 99° | 146km/h | 11847m | -6.2m/s | -57.3°C | 22.5% | 0hPa | 2.5V | 00:00:00 | 00:00:00 | 00:00:00 | |
| HA6NAB-11 | 2026-09-01 02:21:35 | 48.31810 | 17.75992 | 100° | 155km/h | 11847m | -6.2m/s | -57.3°C | 17.0% | 0hPa | 2.5V | 00:00:00 | 00:00:00 | 00:00:00 | |
| OM5KV | 2026-09-01 02:21:32 | 48.31828 | 17.75819 | 100° | 151km/h | 11866m | -6.5m/s | -57.3°C | 16.0% | 0hPa | 2.5V | 08:03:00 | 00:00:00 | 00:00:00 | |
| PG1ADW-2 | 2026-09-01 02:21:30 | 48.31847 | 17.75651 | 102° | 135km/h | 11886m | -6.3m/s | -56.8°C | 19.8% | 0hPa | 2.5V | 00:00:00 | 02:21:10 | 00:00:00 | |
| HA6NAB-11 | 2026-09-01 02:21:29 | 48.31848 | 17.75651 | 102° | 148km/h | 11886m | -6.4m/s | -56.9°C | 14.7% | 0hPa | 2.5V | 00:00:00 | 00:00:00 | 00:00:00 | |
| OM5KV | 2026-09-01 02:21:27 | 48.31861 | 17.75541 | 101° | 144km/h | 11899m | -6.4m/s | -56.9°C | 14.0% | 0hPa | 2.5V | 08:03:00 | 00:00:00 | 00:00:00 | |
| PETON7-10 | 2026-09-01 02:21:21 | 48.31906 | 17.75175 | 102° | 126km/h | 11942m | -5.9m/s | -56.8°C | 16.2% | 0hPa | 2.5V | 00:00:00 | 00:00:00 | 00:00:00 | |
| ATIDSZ-14 | 2026-09-01 02:21:18 | 48.31919 | 17.75073 | 102° | 135km/h | 11953m | -5.8m/s | -56.3°C | 10.2% | 0hPa | 2.5V | 08:04:00 | 00:00:00 | 00:00:00 | |
| GYPAP8-17 | 2026-09-01 02:21:17 | 48.31925 | 17.75023 | 102° | 135km/h | 11959m | -6.0m/s | -55.8°C | 9.4% | 0hPa | 2.5V | 00:00:00 | 00:00:00 | 00:00:00 | |
| OM5KV | 2026-09-01 02:21:16 | 48.31932 | 17.74974 | 102° | 131km/h | 11966m | -6.0m/s | -55.6°C | 8.9% | 0hPa | 2.5V | 08:04:00 | 00:00:00 | 00:00:00 | |
| OE3OSB-13 | 2026-09-01 02:21:10 | 48.31980 | 17.74602 | 101° | 119km/h | 12014m | -6.1m/s | -53.2°C | 5.8% | -1.0hPa | 2.5V | 00:00:00 | 00:00:00 | 00:00:00 | |
| PETON7-10 | 2026-09-01 02:21:06 | 48.31997 | 17.74471 | 102° | 110km/h | 12033m | -6.2m/s | -52.9°C | 8.5% | 0hPa | 2.5V | 00:00:00 | 02:20:46 | 00:00:00 | |
| OM5KV | 2026-09-01 02:21:05 | 48.31997 | 17.74471 | 102° | 117km/h | 12033m | -6.2m/s | -53.0°C | 5.5% | 0hPa | 2.5V | 08:04:00 | 00:00:00 | 00:00:00 | |
| OM5KV | 2026-09-01 02:21:03 | 48.32008 | 17.74385 | 101° | 115km/h | 12045m | -6.5m/s | -52.9°C | 5.3% | 0hPa | 2.5V | 08:04:00 | 00:00:00 | 00:00:00 | |
| OE5DRO-10 | 2026-09-01 02:21:01 | 48.32022 | 17.74257 | 100° | 110km/h | 12065m | -6.3m/s | -52.9°C | 7.9% | 0hPa | 2.5V | 00:00:00 | 00:00:00 | 00:00:00 | |
| OM5KV | 2026-09-01 02:20:58 | 48.32031 | 17.74173 | 99° | 110km/h | 12077m | -6.5m/s | -52.8°C | 4.8% | 0hPa | 2.5V | 08:04:00 | 00:00:00 | 00:00:00 | |
| HA6NAB-11 | 2026-09-01 02:20:55 | 48.32043 | 17.74052 | 99° | 108km/h | 12097m | -6.8m/s | -52.9°C | 4.5% | 0hPa | 2.5V | 08:04:00 | 00:00:00 | 00:00:00 | |
| OM5KV | 2026-09-01 02:20:52 | 48.32053 | 17.73934 | 99° | 104km/h | 12116m | -6.5m/s | -52.8°C | 4.2% | 0hPa | 2.5V | 08:04:00 | 00:00:00 | 00:00:00 | |
| PETON7-10 | 2026-09-01 02:20:51 | 48.32059 | 17.73857 | 96° | 97km/h | 12129m | -6.4m/s | -52.8°C | 6.7% | 0hPa | 2.5V | 08:04:00 | 00:00:00 | 00:00:00 | |
| PG1ADW-2 | 2026-09-01 02:20:50 | 48.32062 | 17.73819 | 97° | 97km/h | 12135m | -6.4m/s | -52.7°C | 6.5% | 0hPa | 2.5V | 00:00:00 | 00:00:00 | 00:00:00 | |
| HA6NAB-11 | 2026-09-01 02:20:49 | 48.32062 | 17.73819 | 98° | 100km/h | 12135m | -6.5m/s | -52.8°C | 3.9% | 0hPa | 2.5V | 08:04:00 | 00:00:00 | 00:00:00 | |
| OM5KV | 2026-09-01 02:20:46 | 48.32069 | 17.73705 | 95° | 97km/h | 12154m | -6.4m/s | -52.8°C | 3.6% | 0hPa | 2.5V | 08:04:00 | 00:00:00 | 00:00:00 | |
| HA6NAB-11 | 2026-09-01 02:20:43 | 48.32073 | 17.73595 | 94° | 97km/h | 12173m | -6.4m/s | -52.6°C | 3.3% | 0hPa | 2.5V | 08:04:00 | 00:00:00 | 00:00:00 | |
| OE5DRO-10 | 2026-09-01 02:20:42 | 48.32075 | 17.73522 | 92° | 97km/h | 12186m | -6.5m/s | -52.4°C | 5.7% | 0hPa | 2.5V | 00:00:00 | 00:00:00 | 00:00:00 | |
| OM5KV | 2026-09-01 02:20:40 | 48.32076 | 17.73485 | 93° | 97km/h | 12193m | -6.7m/s | -52.4°C | 3.2% | 0hPa | 2.5V | 08:04:00 | 00:00:00 | 00:00:00 | |
| ATIDSZ-14 | 2026-09-01 02:20:39 | 48.32078 | 17.73412 | 92° | 95km/h | 12206m | -6.9m/s | -52.5°C | 3.1% | 0hPa | 2.5V | 08:04:00 | 00:00:00 | 00:00:00 | |
| OE3OSB-13 | 2026-09-01 02:20:38 | 48.32078 | 17.73376 | 90° | 93km/h | 12213m | -6.4m/s | -52.5°C | 2.9% | -1.0hPa | 2.5V | 00:00:00 | 00:00:00 | 00:00:00 | |
| HA6NAB-11 | 2026-09-01 02:20:37 | 48.32079 | 17.73376 | 91° | 95km/h | 12213m | -6.4m/s | -52.5°C | 3.1% | 0hPa | 2.5V | 08:04:00 | 00:00:00 | 00:00:00 | |
| PETON7-10 | 2026-09-01 02:20:36 | 48.32078 | 17.73304 | 90° | 100km/h | 12226m | -6.6m/s | -52.5°C | 5.6% | 0hPa | 2.5V | 00:00:00 | 00:00:00 | 00:00:00 | |
| OM5KV | 2026-09-01 02:20:34 | 48.32078 | 17.73269 | 90° | 95km/h | 12232m | -6.7m/s | -52.4°C | 2.9% | 0hPa | 2.5V | 08:04:00 | 00:00:00 | 00:00:00 | |
| HA6NAB-11 | 2026-09-01 02:20:31 | 48.32076 | 17.73159 | 89° | 97km/h | 12252m | -6.6m/s | -52.3°C | 2.9% | 0hPa | 2.5V | 08:05:00 | 00:00:00 | 00:00:00 | |
| PG1ADW-2 | 2026-09-01 02:20:30 | 48.32074 | 17.73084 | 89° | 102km/h | 12265m | -6.6m/s | -52.2°C | 5.2% | 0hPa | 2.5V | 08:04:00 | 00:00:00 | 00:00:00 | |
| OM5KV | 2026-09-01 02:20:28 | 48.32073 | 17.73046 | 90° | 102km/h | 12272m | -6.6m/s | -52.3°C | 2.8% | 0hPa | 2.5V | 08:05:00 | 00:00:00 | 00:00:00 | |
| S52SK | 2026-09-01 02:20:25 | 48.32072 | 17.72929 | 90° | 104km/h | 12292m | -6.5m/s | -52.3°C | 2.8% | 0hPa | 2.5V | 00:00:00 | 00:00:00 | 00:00:00 | |
| OM5KV | 2026-09-01 02:20:23 | 48.32072 | 17.72850 | 90° | 104km/h | 12304m | -6.6m/s | -52.4°C | 2.8% | 0hPa | 2.5V | 08:05:00 | 00:00:00 | 00:00:00 | |
| OE5DRO-10 | 2026-09-01 02:20:22 | 48.32071 | 17.72772 | 90° | 100km/h | 12318m | -7.1m/s | -52.4°C | 5.2% | 0hPa | 2.5V | 00:00:00 | 00:00:00 | 00:00:00 | |
| PETON7-10 | 2026-09-01 02:20:21 | 48.32071 | 17.72734 | 90° | 100km/h | 12325m | -6.9m/s | -52.5°C | 5.3% | 0hPa | 2.6V | 00:00:00 | 02:20:01 | 00:00:00 | |
| S52SK | 2026-09-01 02:20:19 | 48.32071 | 17.72695 | 91° | 100km/h | 12332m | -6.8m/s | -52.5°C | 2.7% | 0hPa | 2.6V | 00:00:00 | 00:00:00 | 00:00:00 | |
| OM5KV | 2026-09-01 02:20:18 | 48.32071 | 17.72657 | 91° | 100km/h | 12339m | -6.7m/s | -52.5°C | 2.8% | 0hPa | 2.6V | 08:05:00 | 00:00:00 | 00:00:00 | |
| OM5KV | 2026-09-01 02:20:12 | 48.32070 | 17.72427 | 90° | 102km/h | 12380m | -7.2m/s | -52.4°C | 2.7% | 0hPa | 2.6V | 08:05:00 | 00:00:00 | 00:00:00 | |
| PG1ADW-2 | 2026-09-01 02:20:10 | 48.32069 | 17.72313 | 89° | 95km/h | 12401m | -7.0m/s | -52.2°C | 5.2% | 0hPa | 2.6V | 00:00:00 | 02:19:50 | 00:00:00 | |
| OE3OSB-13 | 2026-09-01 02:20:07 | 48.32066 | 17.72200 | 87° | 97km/h | 12421m | -6.8m/s | -52.1°C | 2.6% | -1.0hPa | 2.6V | 00:00:00 | 00:00:00 | 00:00:00 | |
| PETON7-10 | 2026-09-01 02:20:06 | 48.32065 | 17.72163 | 87° | 95km/h | 12428m | -7.1m/s | -52.0°C | 5.2% | 0hPa | 2.6V | 00:00:00 | 00:00:00 | 00:00:00 | |
| OM5KV | 2026-09-01 02:20:00 | 48.32055 | 17.71983 | 86° | 95km/h | 12463m | -7.1m/s | -52.3°C | 2.9% | 0hPa | 2.5V | 08:05:00 | 00:00:00 | 00:00:00 | |
| OE5DRO-10 | 2026-09-01 02:19:59 | 48.32051 | 17.71912 | 86° | 95km/h | 12477m | -6.9m/s | -52.4°C | 5.6% | 0hPa | 2.5V | 00:00:00 | 00:00:00 | 00:00:00 | |
| ATIDSZ-14 | 2026-09-01 02:19:57 | 48.32048 | 17.71877 | 85° | 95km/h | 12484m | -7.3m/s | -52.5°C | 3.1% | 0hPa | 2.5V | 08:05:00 | 00:00:00 | 00:00:00 | |
| OM5KV | 2026-09-01 02:19:55 | 48.32043 | 17.71806 | 84° | 93km/h | 12499m | -7.3m/s | -52.6°C | 3.1% | 0hPa | 2.5V | 08:05:00 | 00:00:00 | 00:00:00 | |
| OE5DXL-15 | 2026-09-01 02:19:53 | 48.32033 | 17.71703 | 84° | 95km/h | 12520m | -7.0m/s | -52.6°C | 5.8% | 0hPa | 2.5V | 00:00:00 | 00:00:00 | 00:00:00 | |
| PETON7-10 | 2026-09-01 02:19:51 | 48.32027 | 17.71632 | 84° | 93km/h | 12534m | -6.6m/s | -52.7°C | 5.9% | 0hPa | 2.5V | 00:00:00 | 00:00:00 | 00:00:00 | |
| PG1ADW-2 | 2026-09-01 02:19:50 | 48.32025 | 17.71597 | 83° | 95km/h | 12541m | -6.9m/s | -52.7°C | 5.9% | 0hPa | 2.5V | 00:00:00 | 00:00:00 | 00:00:00 | |
| OM5KV | 2026-09-01 02:19:49 | 48.32025 | 17.71597 | 83° | 93km/h | 12541m | -7.0m/s | -52.8°C | 3.3% | 0hPa | 2.5V | 08:05:00 | 00:00:00 | 00:00:00 | |
| HA6NAB-11 | 2026-09-01 02:19:45 | 48.32013 | 17.71457 | 82° | 93km/h | 12569m | -7.1m/s | -52.9°C | 3.3% | 0hPa | 2.5V | 08:05:00 | 00:00:00 | 00:00:00 | |
| OM5KV | 2026-09-01 02:19:44 | 48.32009 | 17.71422 | 82° | 93km/h | 12576m | -7.3m/s | -52.9°C | 3.3% | 0hPa | 2.5V | 08:05:00 | 00:00:00 | 00:00:00 | |
| OE3JTB-15 | 2026-09-01 02:19:39 | 48.31986 | 17.71214 | 81° | 99km/h | 12619m | -7.2m/s | -52.2°C | 5.6% | 0hPa | 2.5V | 00:00:00 | 00:00:00 | 00:00:00 | |
| OM5KV | 2026-09-01 02:19:38 | 48.31986 | 17.71214 | 82° | 95km/h | 12619m | -7.2m/s | -52.3°C | 3.1% | 0hPa | 2.5V | 08:06:00 | 00:00:00 | 00:00:00 | |
| OM5KV | 2026-09-01 02:19:37 | 48.31982 | 17.71179 | 82° | 95km/h | 12626m | -7.2m/s | -52.2°C | 3.1% | 0hPa | 2.5V | 08:06:00 | 00:00:00 | 00:00:00 | |
| PETON7-10 | 2026-09-01 02:19:36 | 48.31974 | 17.71108 | 80° | 97km/h | 12641m | -7.5m/s | -52.1°C | 5.6% | 0hPa | 2.5V | 00:00:00 | 02:19:16 | 00:00:00 | |
| OM5KV | 2026-09-01 02:19:33 | 48.31964 | 17.71038 | 79° | 95km/h | 12655m | -7.5m/s | -52.0°C | 3.0% | 0hPa | 2.5V | 08:06:00 | 00:00:00 | 00:00:00 | |
| PG1ADW-2 | 2026-09-01 02:19:30 | 48.31943 | 17.70899 | 77° | 100km/h | 12684m | -7.6m/s | -52.0°C | 5.3% | 0hPa | 2.5V | 00:00:00 | 00:00:00 | 00:00:00 | |
| OM5KV | 2026-09-01 02:19:27 | 48.31932 | 17.70828 | 77° | 97km/h | 12699m | -7.7m/s | -52.0°C | 2.9% | 0hPa | 2.5V | 08:06:00 | 00:00:00 | 00:00:00 | |
| OM5KV | 2026-09-01 02:19:26 | 48.31926 | 17.70792 | 77° | 97km/h | 12707m | -7.6m/s | -52.1°C | 2.9% | 0hPa | 2.5V | 08:06:00 | 00:00:00 | 00:00:00 | |
| OE5DXL-15 | 2026-09-01 02:19:23 | 48.31902 | 17.70647 | 77° | 102km/h | 12737m | -7.5m/s | -52.2°C | 5.3% | 0hPa | 2.5V | 00:00:00 | 00:00:00 | 00:00:00 | |
| OM5KV | 2026-09-01 02:19:22 | 48.31902 | 17.70647 | 77° | 100km/h | 12737m | -7.5m/s | -52.3°C | 2.8% | 0hPa | 2.6V | 08:06:00 | 00:00:00 | 00:00:00 | |
| PETON7-10 | 2026-09-01 02:19:21 | 48.31890 | 17.70573 | 77° | 104km/h | 12752m | -7.7m/s | -52.3°C | 5.3% | 0hPa | 2.6V | 00:00:00 | 00:00:00 | 00:00:00 | |
| OM5KV | 2026-09-01 02:19:19 | 48.31884 | 17.70535 | 78° | 102km/h | 12760m | -7.7m/s | -52.4°C | 2.8% | 0hPa | 2.5V | 08:06:00 | 00:00:00 | 00:00:00 | |
| ATIDSZ-14 | 2026-09-01 02:19:16 | 48.31868 | 17.70420 | 79° | 104km/h | 12783m | -7.5m/s | -52.5°C | 2.8% | 0hPa | 2.5V | 08:06:00 | 00:00:00 | 00:00:00 | |
| OM5KV | 2026-09-01 02:19:13 | 48.31852 | 17.70304 | 80° | 104km/h | 12806m | -7.6m/s | -52.7°C | 2.8% | 0hPa | 2.5V | 08:06:00 | 00:00:00 | 00:00:00 | |
| PG1ADW-2 | 2026-09-01 02:19:10 | 48.31832 | 17.70149 | 80° | 102km/h | 12836m | -7.4m/s | -52.6°C | 5.4% | 0hPa | 2.5V | 00:00:00 | 00:00:00 | 00:00:00 | |
| S52SK | 2026-09-01 02:19:08 | 48.31828 | 17.70110 | 80° | 104km/h | 12843m | -7.3m/s | -52.6°C | 2.8% | 0hPa | 2.5V | 00:00:00 | 00:00:00 | 00:00:00 | |
| GYPAP8-17 | 2026-09-01 02:19:07 | 48.31823 | 17.70071 | 81° | 104km/h | 12850m | -7.4m/s | -52.6°C | 2.7% | 0hPa | 2.5V | 00:00:00 | 00:00:00 | 00:00:00 | |
| PETON7-10 | 2026-09-01 02:19:06 | 48.31814 | 17.69993 | 81° | 102km/h | 12865m | -7.5m/s | -52.5°C | 5.3% | 0hPa | 2.5V | 00:00:00 | 00:00:00 | 00:00:00 | |
| OE3OSB-13 | 2026-09-01 02:19:05 | 48.31810 | 17.69954 | 81° | 104km/h | 12872m | -7.6m/s | -52.6°C | 2.6% | -1.0hPa | 2.5V | 00:00:00 | 00:00:00 | 00:00:00 | |
| S52SK | 2026-09-01 02:19:02 | 48.31803 | 17.69875 | 84° | 102km/h | 12888m | -7.8m/s | -52.6°C | 2.7% | 0hPa | 2.5V | 00:00:00 | 00:00:00 | 00:00:00 | |
| ATIDSZ-14 | 2026-09-01 02:18:56 | 48.31788 | 17.69644 | 86° | 102km/h | 12934m | -7.5m/s | -52.8°C | 2.8% | 0hPa | 2.5V | 08:06:00 | 00:00:00 | 00:00:00 | |
| OM5KV | 2026-09-01 02:18:55 | 48.31786 | 17.69606 | 86° | 102km/h | 12942m | -7.4m/s | -52.8°C | 2.7% | 0hPa | 2.5V | 08:06:00 | 00:00:00 | 00:00:00 | |
| OM5KV | 2026-09-01 02:18:54 | 48.31784 | 17.69568 | 85° | 100km/h | 12949m | -7.6m/s | -52.9°C | 2.8% | 0hPa | 2.5V | 08:06:00 | 00:00:00 | 00:00:00 | |
| OE5DXL-15 | 2026-09-01 02:18:53 | 48.31779 | 17.69493 | 83° | 99km/h | 12964m | -7.5m/s | -52.7°C | 5.3% | 0hPa | 2.5V | 00:00:00 | 00:00:00 | 00:00:00 | |
| PETON7-10 | 2026-09-01 02:18:51 | 48.31773 | 17.69418 | 85° | 99km/h | 12979m | -7.5m/s | -52.6°C | 5.3% | 0hPa | 2.5V | 00:00:00 | 02:18:31 | 00:00:00 | |
| PG1ADW-2 | 2026-09-01 02:18:50 | 48.31771 | 17.69380 | 85° | 99km/h | 12987m | -7.8m/s | -52.6°C | 5.3% | 0hPa | 2.5V | 00:00:00 | 02:18:30 | 00:00:00 | |
| OE5DRO-10 | 2026-09-01 02:18:49 | 48.31769 | 17.69343 | 85° | 99km/h | 12995m | -7.7m/s | -52.5°C | 5.3% | 0hPa | 2.5V | 08:06:00 | 00:00:00 | 00:00:00 | |
| HA6NAB-11 | 2026-09-01 02:18:45 | 48.31760 | 17.69231 | 84° | 99km/h | 13017m | -7.5m/s | -52.4°C | 2.8% | 0hPa | 2.5V | 00:00:00 | 00:00:00 | 00:00:00 | |
| OM5KV | 2026-09-01 02:18:44 | 48.31757 | 17.69194 | 83° | 99km/h | 13024m | -7.8m/s | -52.2°C | 2.7% | 0hPa | 2.5V | 08:07:00 | 00:00:00 | 00:00:00 | |
| OM5KV | 2026-09-01 02:18:43 | 48.31754 | 17.69157 | 84° | 99km/h | 13032m | -8.1m/s | -52.2°C | 2.7% | 0hPa | 2.5V | 08:07:00 | 00:00:00 | 00:00:00 | |
| OE3JTB-15 | 2026-09-01 02:18:41 | 48.31744 | 17.69046 | 82° | 97km/h | 13055m | -7.8m/s | -52.0°C | 5.2% | 0hPa | 2.5V | 00:00:00 | 02:18:21 | 00:00:00 | |
| HA6NAB-11 | 2026-09-01 02:18:40 | 48.31744 | 17.69046 | 82° | 100km/h | 13055m | -7.9m/s | -52.1°C | 2.7% | 0hPa | 2.5V | 00:00:00 | 00:00:00 | 00:00:00 | |
| DO3MHA-11 | 2026-09-01 02:18:37 | 48.31727 | 17.68898 | 81° | 97km/h | 13085m | -7.9m/s | -52.1°C | 5.2% | 0hPa | 2.5V | 08:06:00 | 02:18:17 | 00:00:00 | |
| PETON7-10 | 2026-09-01 02:18:36 | 48.31723 | 17.68862 | 81° | 97km/h | 13093m | -8.9m/s | -52.2°C | 5.2% | 0hPa | 2.5V | 08:06:00 | 00:00:00 | 00:00:00 | |
| ATIDSZ-14 | 2026-09-01 02:18:35 | 48.31723 | 17.68862 | 81° | 99km/h | 13093m | -9.0m/s | -52.2°C | 2.7% | 0hPa | 2.5V | 08:07:00 | 00:00:00 | 00:00:00 | |
| HA6NAB-11 | 2026-09-01 02:18:34 | 48.31719 | 17.68825 | 82° | 99km/h | 13102m | -11.3m/s | -52.3°C | 2.7% | 0hPa | 2.5V | 00:00:00 | 00:00:00 | 00:00:00 | |
| OM5KV | 2026-09-01 02:18:33 | 48.31714 | 17.68788 | 80° | 97km/h | 13110m | -7.7m/s | -52.3°C | 2.7% | 0hPa | 2.5V | 08:07:00 | 00:00:00 | 00:00:00 | |
| OM5KV | 2026-09-01 02:18:32 | 48.31710 | 17.68752 | 82° | 97km/h | 13118m | -8.0m/s | -52.4°C | 2.7% | 0hPa | 2.5V | 08:07:00 | 00:00:00 | 00:00:00 | |
| PG1ADW-2 | 2026-09-01 02:18:30 | 48.31697 | 17.68643 | 80° | 95km/h | 13142m | -7.9m/s | -52.4°C | 5.3% | 0hPa | 2.5V | 00:00:00 | 00:00:00 | 00:00:00 | |
| HA6NAB-11 | 2026-09-01 02:18:28 | 48.31693 | 17.68608 | 82° | 97km/h | 13150m | -8.0m/s | -52.3°C | 2.6% | 0hPa | 2.5V | 00:00:00 | 00:00:00 | 00:00:00 | |
| DO3MHA-11 | 2026-09-01 02:18:27 | 48.31684 | 17.68535 | 80° | 95km/h | 13166m | -8.1m/s | -51.3°C | 4.8% | 0hPa | 2.5V | 00:00:00 | 02:18:07 | 00:00:00 | |
| OM5KV | 2026-09-01 02:18:26 | 48.31684 | 17.68535 | 81° | 97km/h | 13166m | -8.1m/s | -51.4°C | 2.5% | 0hPa | 2.5V | 08:07:00 | 00:00:00 | 00:00:00 | |
| OE5DXL-15 | 2026-09-01 02:18:23 | 48.31668 | 17.68393 | 82° | 89km/h | 13198m | -8.0m/s | -51.2°C | 4.7% | 0hPa | 2.5V | 00:00:00 | 00:00:00 | 00:00:00 | |
| GYPAP8-17 | 2026-09-01 02:18:22 | 48.31668 | 17.68393 | 83° | 95km/h | 13198m | -8.0m/s | -51.3°C | 2.4% | 0hPa | 2.5V | 00:00:00 | 00:00:00 | 00:00:00 | |
| PETON7-10 | 2026-09-01 02:18:21 | 48.31661 | 17.68322 | 83° | 91km/h | 13214m | -7.8m/s | -51.3°C | 4.7% | 0hPa | 2.5V | 00:00:00 | 00:00:00 | 00:00:00 | |
| DO3MHA-11 | 2026-09-01 02:18:17 | 48.31650 | 17.68180 | 85° | 89km/h | 13246m | -7.8m/s | -51.6°C | 4.8% | 0hPa | 2.5V | 00:00:00 | 02:17:57 | 00:00:00 | |
| ATIDSZ-14 | 2026-09-01 02:18:15 | 48.31648 | 17.68144 | 86° | 95km/h | 13254m | -7.7m/s | -51.7°C | 2.4% | 0hPa | 2.5V | 08:07:00 | 00:00:00 | 00:00:00 | |
| OM5KV | 2026-09-01 02:18:14 | 48.31646 | 17.68109 | 86° | 93km/h | 13261m | -7.6m/s | -51.7°C | 2.4% | 0hPa | 2.5V | 08:07:00 | 00:00:00 | 00:00:00 | |
| OM5KV | 2026-09-01 02:18:13 | 48.31644 | 17.68073 | 86° | 93km/h | 13269m | -7.5m/s | -51.8°C | 2.4% | 0hPa | 2.5V | 08:07:00 | 00:00:00 | 00:00:00 | |
| OE3JTB-15 | 2026-09-01 02:18:12 | 48.31640 | 17.68004 | 85° | 88km/h | 13283m | -7.4m/s | -51.8°C | 4.8% | 0hPa | 2.5V | 08:07:00 | 00:00:00 | 00:00:00 | |
| PG1ADW-2 | 2026-09-01 02:18:10 | 48.31636 | 17.67936 | 85° | 88km/h | 13298m | -7.7m/s | -51.9°C | 4.8% | 0hPa | 2.5V | 00:00:00 | 00:00:00 | 00:00:00 | |
| PETON7-10 | 2026-09-01 02:18:06 | 48.31630 | 17.67802 | 88° | 86km/h | 13329m | -7.8m/s | -51.9°C | 4.8% | 0hPa | 2.5V | 00:00:00 | 02:17:46 | 00:00:00 | |
| DO3MHA-11 | 2026-09-01 02:18:00 | 48.31621 | 17.67604 | 86° | 88km/h | 13376m | -7.7m/s | -51.8°C | 4.7% | 0hPa | 2.5V | 00:00:00 | 02:17:40 | 00:00:00 | |
| ATIDSZ-14 | 2026-09-01 02:17:54 | 48.31610 | 17.67442 | 84° | 86km/h | 13415m | -8.1m/s | -52.0°C | 2.3% | 0hPa | 2.5V | 08:08:00 | 00:00:00 | 00:00:00 | |
| OE5DXL-15 | 2026-09-01 02:17:53 | 48.31605 | 17.67377 | 84° | 89km/h | 13431m | -7.8m/s | -52.0°C | 4.7% | 0hPa | 2.5V | 00:00:00 | 00:00:00 | 00:00:00 | |
| OM5KV | 2026-09-01 02:17:52 | 48.31605 | 17.67377 | 85° | 86km/h | 13431m | -7.8m/s | -52.1°C | 2.3% | 0hPa | 2.5V | 08:08:00 | 00:00:00 | 00:00:00 | |
| PETON7-10 | 2026-09-01 02:17:51 | 48.31599 | 17.67312 | 82° | 88km/h | 13446m | -7.7m/s | -52.0°C | 4.7% | 0hPa | 2.5V | 00:00:00 | 00:00:00 | 00:00:00 | |
| PG1ADW-2 | 2026-09-01 02:17:50 | 48.31595 | 17.67280 | 81° | 89km/h | 13454m | -7.5m/s | -52.1°C | 4.7% | 0hPa | 2.5V | 00:00:00 | 00:00:00 | 00:00:00 | |
| OM5KV | 2026-09-01 02:17:48 | 48.31592 | 17.67248 | 82° | 86km/h | 13462m | -7.9m/s | -52.2°C | 2.3% | 0hPa | 2.5V | 08:08:00 | 00:00:00 | 00:00:00 | |
| OM5KV | 2026-09-01 02:17:46 | 48.31585 | 17.67183 | 82° | 88km/h | 13477m | -7.7m/s | -52.3°C | 2.3% | 0hPa | 2.5V | 08:08:00 | 00:00:00 | 00:00:00 | |
| S52SK | 2026-09-01 02:17:45 | 48.31581 | 17.67150 | 80° | 88km/h | 13485m | -7.8m/s | -52.4°C | 2.3% | 0hPa | 2.5V | 00:00:00 | 00:00:00 | 00:00:00 | |
| HA6NAB-11 | 2026-09-01 02:17:44 | 48.31577 | 17.67118 | 82° | 88km/h | 13493m | -8.0m/s | -52.4°C | 2.3% | 0hPa | 2.5V | 00:00:00 | 00:00:00 | 00:00:00 | |
| OE3JTB-15 | 2026-09-01 02:17:43 | 48.31570 | 17.67052 | 81° | 91km/h | 13509m | -7.8m/s | -52.5°C | 4.8% | 0hPa | 2.5V | 00:00:00 | 00:00:00 | 00:00:00 | |
| OM5KV | 2026-09-01 02:17:42 | 48.31570 | 17.67052 | 81° | 89km/h | 13509m | -7.9m/s | -52.5°C | 2.3% | 0hPa | 2.5V | 08:08:00 | 00:00:00 | 00:00:00 | |
| OM5KV | 2026-09-01 02:17:41 | 48.31566 | 17.67019 | 80° | 88km/h | 13516m | -7.7m/s | -52.6°C | 2.3% | 0hPa | 2.5V | 08:08:00 | 00:00:00 | 00:00:00 | |
| HA6NAB-11 | 2026-09-01 02:17:39 | 48.31558 | 17.66953 | 82° | 89km/h | 13532m | -7.9m/s | -52.7°C | 2.3% | 0hPa | 2.5V | 00:00:00 | 00:00:00 | 00:00:00 | |
| GYPAP8-17 | 2026-09-01 02:17:37 | 48.31551 | 17.66886 | 81° | 89km/h | 13548m | -7.7m/s | -52.7°C | 2.3% | 0hPa | 2.5V | 00:00:00 | 00:00:00 | 00:00:00 | |
| PETON7-10 | 2026-09-01 02:17:36 | 48.31545 | 17.66818 | 82° | 93km/h | 13563m | -7.8m/s | -52.8°C | 4.8% | 0hPa | 2.5V | 00:00:00 | 00:00:00 | 00:00:00 | |
| OM5KV | 2026-09-01 02:17:35 | 48.31544 | 17.66818 | 82° | 91km/h | 13563m | -7.9m/s | -52.8°C | 2.3% | 0hPa | 2.5V | 08:08:00 | 00:00:00 | 00:00:00 | |
| HA6NAB-11 | 2026-09-01 02:17:34 | 48.31541 | 17.66784 | 81° | 89km/h | 13571m | -7.8m/s | -52.9°C | 2.3% | 0hPa | 2.5V | 00:00:00 | 00:00:00 | 00:00:00 | |
| OE3OSB-13 | 2026-09-01 02:17:32 | 48.31529 | 17.66683 | 79° | 91km/h | 13595m | -7.8m/s | -53.1°C | 2.2% | -1.0hPa | 2.5V | 00:00:00 | 00:00:00 | 00:00:00 | |
| PG1ADW-2 | 2026-09-01 02:17:30 | 48.31520 | 17.66615 | 79° | 95km/h | 13610m | -7.6m/s | -53.2°C | 4.9% | 0hPa | 2.5V | 08:07:00 | 02:17:10 | 00:00:00 | |
| DO3MHA-11 | 2026-09-01 02:17:28 | 48.31512 | 17.66547 | 80° | 93km/h | 13625m | -7.6m/s | -53.2°C | 4.9% | 0hPa | 2.5V | 00:00:00 | 02:17:08 | 00:00:00 | |
| OM5KV | 2026-09-01 02:17:26 | 48.31507 | 17.66512 | 80° | 93km/h | 13633m | -7.8m/s | -53.2°C | 2.3% | 0hPa | 2.5V | 08:08:00 | 00:00:00 | 00:00:00 | |
| OM5KV | 2026-09-01 02:17:24 | 48.31497 | 17.66443 | 80° | 93km/h | 13649m | -7.9m/s | -53.2°C | 2.3% | 0hPa | 2.5V | 08:08:00 | 00:00:00 | 00:00:00 | |
| OE5DXL-15 | 2026-09-01 02:17:23 | 48.31488 | 17.66372 | 79° | 95km/h | 13664m | -7.7m/s | -53.3°C | 4.8% | 0hPa | 2.5V | 00:00:00 | 00:00:00 | 00:00:00 | |
| PETON7-10 | 2026-09-01 02:17:21 | 48.31478 | 17.66302 | 79° | 95km/h | 13680m | -7.6m/s | -53.3°C | 4.9% | 0hPa | 2.5V | 00:00:00 | 02:17:01 | 00:00:00 | |
| OM5KV | 2026-09-01 02:17:18 | 48.31468 | 17.66230 | 78° | 95km/h | 13695m | -7.6m/s | -53.5°C | 2.3% | 0hPa | 2.5V | 08:08:00 | 00:00:00 | 00:00:00 | |
| OE3JTB-15 | 2026-09-01 02:17:14 | 48.31442 | 17.66055 | 79° | 93km/h | 13733m | -7.6m/s | -53.8°C | 4.9% | 0hPa | 2.5V | 00:00:00 | 02:16:54 | 00:00:00 | |
| DO3MHA-11 | 2026-09-01 02:17:13 | 48.31438 | 17.66021 | 78° | 93km/h | 13741m | -7.8m/s | -53.8°C | 5.0% | 0hPa | 2.5V | 00:00:00 | 02:16:53 | 00:00:00 | |
| HA6NAB-11 | 2026-09-01 02:17:12 | 48.31438 | 17.66021 | 79° | 93km/h | 13741m | -7.9m/s | -53.9°C | 2.3% | 0hPa | 2.5V | 00:00:00 | 00:00:00 | 00:00:00 | |
| PG1ADW-2 | 2026-09-01 02:17:10 | 48.31421 | 17.65917 | 76° | 93km/h | 13763m | -7.7m/s | -54.0°C | 5.0% | 0hPa | 2.5V | 00:00:00 | 00:00:00 | 00:00:00 | |
| PETON7-10 | 2026-09-01 02:17:06 | 48.31399 | 17.65780 | 76° | 93km/h | 13794m | -7.5m/s | -53.9°C | 4.9% | 0hPa | 2.5V | 00:00:00 | 00:00:00 | 00:00:00 | |
| OM5KV | 2026-09-01 02:17:05 | 48.31399 | 17.65780 | 77° | 93km/h | 13794m | -7.6m/s | -53.9°C | 2.3% | 0hPa | 2.5V | 08:08:00 | 00:00:00 | 00:00:00 | |
| OE5DRO-10 | 2026-09-01 02:17:04 | 48.31386 | 17.65711 | 75° | 97km/h | 13809m | -7.6m/s | -53.9°C | 4.9% | 0hPa | 2.5V | 00:00:00 | 00:00:00 | 00:00:00 | |
| OE3OSB-13 | 2026-09-01 02:17:01 | 48.31368 | 17.65608 | 73° | 93km/h | 13831m | -7.7m/s | -53.7°C | 2.0% | -1.0hPa | 2.5V | 00:00:00 | 00:00:00 | 00:00:00 | |
| DO3MHA-11 | 2026-09-01 02:17:00 | 48.31361 | 17.65574 | 74° | 93km/h | 13839m | -7.7m/s | -53.6°C | 4.8% | 0hPa | 2.5V | 00:00:00 | 02:16:40 | 00:00:00 | |
| OM5KV | 2026-09-01 02:16:59 | 48.31361 | 17.65574 | 75° | 93km/h | 13839m | -7.7m/s | -53.7°C | 2.2% | 0hPa | 2.5V | 08:08:00 | 00:00:00 | 00:00:00 | |
| OM5KV | 2026-09-01 02:16:58 | 48.31355 | 17.65540 | 75° | 95km/h | 13846m | -7.2m/s | -53.7°C | 2.1% | 0hPa | 2.5V | 08:08:00 | 00:00:00 | 00:00:00 | |
| OE5DXL-15 | 2026-09-01 02:16:53 | 48.31316 | 17.65335 | 75° | 97km/h | 13890m | -7.5m/s | -54.0°C | 4.9% | 0hPa | 2.5V | 00:00:00 | 00:00:00 | 00:00:00 | |
| PETON7-10 | 2026-09-01 02:16:51 | 48.31304 | 17.65267 | 77° | 95km/h | 13905m | -7.6m/s | -53.7°C | 4.7% | 0hPa | 2.5V | 00:00:00 | 00:00:00 | 00:00:00 | |
| DO3MHA-11 | 2026-09-01 02:16:50 | 48.31299 | 17.65232 | 77° | 95km/h | 13913m | -7.4m/s | -53.7°C | 4.7% | 0hPa | 2.5V | 00:00:00 | 02:16:30 | 00:00:00 | |
| OM5KV | 2026-09-01 02:16:47 | 48.31288 | 17.65162 | 77° | 93km/h | 13928m | -7.2m/s | -53.8°C | 2.1% | 0hPa | 2.5V | 08:08:00 | 00:00:00 | 00:00:00 | |
| OE3JTB-15 | 2026-09-01 02:16:45 | 48.31271 | 17.65058 | 77° | 99km/h | 13950m | -7.4m/s | -53.7°C | 4.6% | 0hPa | 2.5V | 00:00:00 | 00:00:00 | 00:00:00 | |
| DO3MHA-11 | 2026-09-01 02:16:40 | 48.31244 | 17.64883 | 78° | 97km/h | 13987m | -7.4m/s | -53.4°C | 4.5% | 0hPa | 2.5V | 00:00:00 | 02:16:20 | 00:00:00 | |
| S52SK | 2026-09-01 02:16:38 | 48.31239 | 17.64847 | 79° | 97km/h | 13994m | -7.4m/s | -53.5°C | 2.0% | 0hPa | 2.5V | 00:00:00 | 00:00:00 | 00:00:00 | |
| PETON7-10 | 2026-09-01 02:16:36 | 48.31223 | 17.64740 | 78° | 100km/h | 14017m | -7.2m/s | -53.5°C | 4.5% | 0hPa | 2.5V | 00:00:00 | 02:16:16 | 00:00:00 | |
| ATIDSZ-14 | 2026-09-01 02:16:32 | 48.31206 | 17.64631 | 79° | 97km/h | 14038m | -7.3m/s | -53.7°C | 2.0% | 0hPa | 2.5V | 08:08:00 | 00:00:00 | 00:00:00 | |
| OE5DRO-10 | 2026-09-01 02:16:31 | 48.31195 | 17.64558 | 76° | 102km/h | 14052m | -6.7m/s | -53.8°C | 4.6% | 0hPa | 2.5V | 00:00:00 | 00:00:00 | 00:00:00 | |
| DO3MHA-11 | 2026-09-01 02:16:30 | 48.31189 | 17.64522 | 78° | 100km/h | 14059m | -7.0m/s | -53.8°C | 4.6% | 0hPa | 2.5V | 08:08:00 | 02:16:10 | 00:00:00 | |
| S52SK | 2026-09-01 02:16:27 | 48.31177 | 17.64448 | 77° | 100km/h | 14073m | -7.1m/s | -54.0°C | 2.0% | 0hPa | 2.5V | 00:00:00 | 00:00:00 | 00:00:00 | |
| OM5KV | 2026-09-01 02:16:24 | 48.31159 | 17.64337 | 78° | 100km/h | 14094m | -7.2m/s | -54.1°C | 2.1% | 0hPa | 2.5V | 08:08:00 | 00:00:00 | 00:00:00 | |
| OE5DXL-15 | 2026-09-01 02:16:23 | 48.31148 | 17.64262 | 78° | 100km/h | 14108m | -6.9m/s | -54.2°C | 4.7% | 0hPa | 2.5V | 08:08:00 | 00:00:00 | 00:00:00 | |
| PETON7-10 | 2026-09-01 02:16:21 | 48.31136 | 17.64185 | 78° | 102km/h | 14122m | -6.7m/s | -54.3°C | 4.7% | 0hPa | 2.6V | 08:08:00 | 00:00:00 | 00:00:00 | |
| DO3MHA-11 | 2026-09-01 02:16:20 | 48.31131 | 17.64147 | 78° | 102km/h | 14129m | -7.0m/s | -54.4°C | 4.7% | 0hPa | 2.6V | 00:00:00 | 02:16:00 | 00:00:00 | |
| OM5KV | 2026-09-01 02:16:18 | 48.31125 | 17.64109 | 80° | 102km/h | 14136m | -7.0m/s | -54.5°C | 2.1% | 0hPa | 2.6V | 08:09:00 | 00:00:00 | 00:00:00 | |
| OE3JTB-15 | 2026-09-01 02:16:16 | 48.31112 | 17.63994 | 81° | 99km/h | 14157m | -6.9m/s | -54.6°C | 4.8% | 0hPa | 2.6V | 00:00:00 | 00:00:00 | 00:00:00 | |
| OM5KV | 2026-09-01 02:16:13 | 48.31103 | 17.63917 | 81° | 102km/h | 14170m | -6.8m/s | -54.7°C | 2.1% | 0hPa | 2.6V | 08:09:00 | 00:00:00 | 00:00:00 | |
| OE5DRO-10 | 2026-09-01 02:16:12 | 48.31095 | 17.63840 | 82° | 100km/h | 14184m | -7.0m/s | -54.7°C | 4.9% | 0hPa | 2.6V | 00:00:00 | 00:00:00 | 00:00:00 | |
| DO3MHA-11 | 2026-09-01 02:16:10 | 48.31089 | 17.63763 | 84° | 102km/h | 14198m | -6.9m/s | -54.6°C | 4.8% | 0hPa | 2.6V | 00:00:00 | 02:15:50 | 00:00:00 | |
| HA6NAB-11 | 2026-09-01 02:16:09 | 48.31088 | 17.63763 | 85° | 104km/h | 14198m | -7.0m/s | -54.6°C | 2.1% | 0hPa | 2.6V | 00:00:00 | 00:00:00 | 00:00:00 | |
| OM5KV | 2026-09-01 02:16:07 | 48.31084 | 17.63684 | 86° | 104km/h | 14212m | -6.7m/s | -54.5°C | 2.1% | 0hPa | 2.6V | 08:09:00 | 00:00:00 | 00:00:00 | |
| PETON7-10 | 2026-09-01 02:16:06 | 48.31079 | 17.63607 | 86° | 97km/h | 14226m | -6.5m/s | -54.4°C | 4.8% | 0hPa | 2.6V | 00:00:00 | 00:00:00 | 00:00:00 | |
| GYPAP8-17 | 2026-09-01 02:16:04 | 48.31077 | 17.63569 | 88° | 100km/h | 14232m | -7.0m/s | -54.5°C | 2.1% | 0hPa | 2.6V | 00:00:00 | 00:00:00 | 00:00:00 | |
| HA6NAB-11 | 2026-09-01 02:16:03 | 48.31076 | 17.63531 | 89° | 100km/h | 14239m | -6.9m/s | -54.5°C | 2.1% | 0hPa | 2.6V | 00:00:00 | 00:00:00 | 00:00:00 | |
| OM5KV | 2026-09-01 02:16:02 | 48.31076 | 17.63492 | 89° | 100km/h | 14246m | -6.9m/s | -54.5°C | 2.1% | 0hPa | 2.6V | 08:09:00 | 00:00:00 | 00:00:00 | |
| OE3OSB-13 | 2026-09-01 02:15:59 | 48.31072 | 17.63305 | 89° | 97km/h | 14281m | -7.2m/s | -54.4°C | 1.9% | -1.0hPa | 2.6V | 00:00:00 | 00:00:00 | 00:00:00 | |
| HA6NAB-11 | 2026-09-01 02:15:57 | 48.31071 | 17.63305 | 90° | 99km/h | 14281m | -7.2m/s | -54.4°C | 2.1% | 0hPa | 2.6V | 00:00:00 | 00:00:00 | 00:00:00 | |
| OM5KV | 2026-09-01 02:15:56 | 48.31071 | 17.63268 | 90° | 99km/h | 14288m | -7.0m/s | -54.4°C | 2.1% | 0hPa | 2.6V | 08:09:00 | 00:00:00 | 00:00:00 | |
| OM5KV | 2026-09-01 02:15:55 | 48.31070 | 17.63231 | 90° | 97km/h | 14295m | -6.8m/s | -54.5°C | 2.1% | 0hPa | 2.6V | 08:09:00 | 00:00:00 | 00:00:00 | |
| OE5DXL-15 | 2026-09-01 02:15:53 | 48.31069 | 17.63123 | 90° | 80km/h | 14316m | -6.8m/s | -54.4°C | 4.8% | 0hPa | 2.6V | 00:00:00 | 00:00:00 | 00:00:00 | |
| HA6NAB-11 | 2026-09-01 02:15:52 | 48.31069 | 17.63123 | 91° | 93km/h | 14316m | -6.9m/s | -54.5°C | 2.1% | 0hPa | 2.6V | 00:00:00 | 00:00:00 | 00:00:00 | |
| PETON7-10 | 2026-09-01 02:15:51 | 48.31068 | 17.63053 | 90° | 86km/h | 14329m | -6.9m/s | -54.3°C | 4.8% | 0hPa | 2.6V | 00:00:00 | 02:15:31 | 00:00:00 | |
| DO3MHA-11 | 2026-09-01 02:15:50 | 48.31068 | 17.63018 | 90° | 88km/h | 14336m | -7.0m/s | -54.3°C | 4.8% | 0hPa | 2.6V | 00:00:00 | 02:15:30 | 00:00:00 | |
| OM5KV | 2026-09-01 02:15:49 | 48.31068 | 17.63018 | 90° | 91km/h | 14336m | -7.1m/s | -54.4°C | 2.1% | 0hPa | 2.6V | 08:09:00 | 00:00:00 | 00:00:00 | |
| OE3JTB-15 | 2026-09-01 02:15:47 | 48.31067 | 17.62916 | 90° | 78km/h | 14357m | -7.1m/s | -54.4°C | 4.8% | 0hPa | 2.6V | 00:00:00 | 02:15:27 | 00:00:00 | |
| HA6NAB-11 | 2026-09-01 02:15:46 | 48.31067 | 17.62916 | 91° | 88km/h | 14357m | -7.1m/s | -54.4°C | 2.1% | 0hPa | 2.6V | 00:00:00 | 00:00:00 | 00:00:00 | |
| OM5KV | 2026-09-01 02:15:44 | 48.31067 | 17.62849 | 90° | 88km/h | 14371m | -7.0m/s | -54.5°C | 2.1% | 0hPa | 2.6V | 08:09:00 | 00:00:00 | 00:00:00 | |
| OM5KV | 2026-09-01 02:15:43 | 48.31067 | 17.62817 | 90° | 86km/h | 14378m | -7.1m/s | -54.5°C | 2.1% | 0hPa | 2.6V | 08:09:00 | 00:00:00 | 00:00:00 | |
| DO3MHA-11 | 2026-09-01 02:15:40 | 48.31066 | 17.62690 | 92° | 77km/h | 14406m | -7.1m/s | -54.4°C | 4.8% | 0hPa | 2.6V | 00:00:00 | 02:15:20 | 00:00:00 | |
| OM5KV | 2026-09-01 02:15:38 | 48.31067 | 17.62659 | 92° | 82km/h | 14413m | -7.1m/s | -54.5°C | 2.1% | 0hPa | 2.6V | 08:09:00 | 00:00:00 | 00:00:00 | |
| OM5KV | 2026-09-01 02:15:37 | 48.31067 | 17.62628 | 91° | 80km/h | 14420m | -7.1m/s | -54.5°C | 2.0% | 0hPa | 2.6V | 08:09:00 | 00:00:00 | 00:00:00 | |
| PETON7-10 | 2026-09-01 02:15:36 | 48.31067 | 17.62569 | 92° | 75km/h | 14434m | -7.4m/s | -54.5°C | 4.7% | 0hPa | 2.6V | 00:00:00 | 00:00:00 | 00:00:00 | |
| DO3MHA-12 | 2026-09-01 02:15:34 | 48.31068 | 17.62511 | 92° | 73km/h | 14448m | -7.2m/s | -54.5°C | 4.8% | 0hPa | 2.5V | 08:09:00 | 02:15:14 | 00:00:00 | |
| OM5KV | 2026-09-01 02:15:32 | 48.31069 | 17.62454 | 91° | 73km/h | 14462m | -7.2m/s | -54.5°C | 2.1% | 0hPa | 2.6V | 08:09:00 | 00:00:00 | 00:00:00 | |
| ATIDSZ-14 | 2026-09-01 02:15:31 | 48.31069 | 17.62454 | 91° | 73km/h | 14462m | -7.2m/s | -54.5°C | 2.1% | 0hPa | 2.6V | 08:09:00 | 00:00:00 | 00:00:00 | |
| DO3MHA-11 | 2026-09-01 02:15:30 | 48.31069 | 17.62398 | 91° | 73km/h | 14476m | -7.3m/s | -54.5°C | 4.8% | 0hPa | 2.6V | 00:00:00 | 02:15:10 | 00:00:00 | |
| OE3OSB-13 | 2026-09-01 02:15:28 | 48.31068 | 17.62315 | 87° | 71km/h | 14498m | -7.6m/s | -54.7°C | 1.9% | -1.0hPa | 2.5V | 00:00:00 | 00:00:00 | 00:00:00 | |
| OM5KV | 2026-09-01 02:15:26 | 48.31068 | 17.62288 | 89° | 73km/h | 14506m | -7.5m/s | -54.7°C | 2.0% | 0hPa | 2.5V | 08:10:00 | 00:00:00 | 00:00:00 | |
| S52SK | 2026-09-01 02:15:25 | 48.31068 | 17.62288 | 89° | 73km/h | 14506m | -7.5m/s | -54.7°C | 2.0% | 0hPa | 2.5V | 00:00:00 | 00:00:00 | 00:00:00 | |
| DO3MHA-12 | 2026-09-01 02:15:24 | 48.31067 | 17.62232 | 88° | 73km/h | 14520m | -7.5m/s | -54.7°C | 4.9% | 0hPa | 2.5V | 00:00:00 | 02:15:04 | 00:00:00 | |
| PETON7-10 | 2026-09-01 02:15:21 | 48.31062 | 17.62149 | 86° | 77km/h | 14542m | -7.5m/s | -54.7°C | 4.9% | 0hPa | 2.5V | 00:00:00 | 00:00:00 | 00:00:00 | |
| DO3MHA-11 | 2026-09-01 02:15:20 | 48.31061 | 17.62121 | 85° | 75km/h | 14550m | -7.6m/s | -54.7°C | 4.8% | 0hPa | 2.5V | 00:00:00 | 02:15:00 | 00:00:00 | |
| S52SK | 2026-09-01 02:15:19 | 48.31061 | 17.62121 | 86° | 75km/h | 14550m | -7.6m/s | -54.7°C | 2.0% | 0hPa | 2.5V | 00:00:00 | 00:00:00 | 00:00:00 | |
| OE3JTB-15 | 2026-09-01 02:15:18 | 48.31057 | 17.62065 | 83° | 80km/h | 14564m | -7.2m/s | -54.5°C | 4.8% | 0hPa | 2.5V | 00:00:00 | 00:00:00 | 00:00:00 | |
| OE5DRO-10 | 2026-09-01 02:15:15 | 48.31051 | 17.61982 | 82° | 80km/h | 14587m | -7.8m/s | -54.6°C | 4.8% | 0hPa | 2.5V | 00:00:00 | 00:00:00 | 00:00:00 | |
| OM5KV | 2026-09-01 02:15:14 | 48.31051 | 17.61982 | 82° | 73km/h | 14587m | -7.8m/s | -54.7°C | 2.0% | 0hPa | 2.5V | 08:10:00 | 00:00:00 | 00:00:00 | |
| OM5KV | 2026-09-01 02:15:10 | 48.31038 | 17.61840 | 84° | 78km/h | 14625m | -7.5m/s | -54.6°C | 1.9% | 0hPa | 2.5V | 08:10:00 | 00:00:00 | 00:00:00 | |
| PETON7-10 | 2026-09-01 02:15:06 | 48.31026 | 17.61721 | 83° | 84km/h | 14654m | -7.9m/s | -54.2°C | 4.6% | 0hPa | 2.5V | 00:00:00 | 02:14:46 | 00:00:00 | |
| HA6NAB-11 | 2026-09-01 02:15:05 | 48.31026 | 17.61721 | 83° | 82km/h | 14654m | -8.0m/s | -54.2°C | 1.8% | 0hPa | 2.5V | 08:10:00 | 00:00:00 | 00:00:00 | |
| DO3MHA-12 | 2026-09-01 02:15:04 | 48.31021 | 17.61660 | 82° | 84km/h | 14670m | -7.5m/s | -54.2°C | 4.6% | 0hPa | 2.5V | 00:00:00 | 02:14:44 | 00:00:00 | |
| OE3OSB-13 | 2026-09-01 02:14:57 | 48.30999 | 17.61410 | 81° | 84km/h | 14731m | -7.9m/s | -54.0°C | 1.6% | -1.0hPa | 2.6V | 00:00:00 | 00:00:00 | 00:00:00 | |
| OE5DRO-10 | 2026-09-01 02:14:56 | 48.30999 | 17.61410 | 82° | 78km/h | 14731m | -7.8m/s | -53.9°C | 4.5% | 0hPa | 2.6V | 08:10:00 | 00:00:00 | 00:00:00 | |
| DO3MHA-12 | 2026-09-01 02:14:54 | 48.30993 | 17.61345 | 82° | 82km/h | 14747m | -7.9m/s | -53.8°C | 4.5% | 0hPa | 2.5V | 00:00:00 | 02:14:34 | 00:00:00 | |
| OE5DXL-15 | 2026-09-01 02:14:53 | 48.30990 | 17.61314 | 83° | 71km/h | 14755m | -8.0m/s | -53.7°C | 4.5% | 0hPa | 2.5V | 00:00:00 | 00:00:00 | 00:00:00 | |
| PETON7-10 | 2026-09-01 02:14:51 | 48.30985 | 17.61251 | 82° | 77km/h | 14771m | -8.0m/s | -53.6°C | 4.5% | 0hPa | 2.5V | 00:00:00 | 00:00:00 | 00:00:00 | |
| DO3MHA-11 | 2026-09-01 02:14:50 | 48.30982 | 17.61220 | 83° | 78km/h | 14779m | -7.9m/s | -53.6°C | 4.5% | 0hPa | 2.5V | 00:00:00 | 02:14:30 | 00:00:00 | |
| OE3JTB-15 | 2026-09-01 02:14:49 | 48.30979 | 17.61189 | 83° | 68km/h | 14786m | -8.0m/s | -53.3°C | 4.4% | 0hPa | 2.5V | 00:00:00 | 00:00:00 | 00:00:00 | |
| HA6NAB-11 | 2026-09-01 02:14:47 | 48.30976 | 17.61158 | 82° | 80km/h | 14794m | -8.1m/s | -53.3°C | 1.7% | 0hPa | 2.5V | 08:10:00 | 00:00:00 | 00:00:00 | |
| OM5KV | 2026-09-01 02:14:45 | 48.30969 | 17.61099 | 82° | 78km/h | 14811m | -7.8m/s | -53.3°C | 1.7% | 0hPa | 2.5V | 08:10:00 | 00:00:00 | 00:00:00 | |
| DO3MHA-12 | 2026-09-01 02:14:44 | 48.30962 | 17.61042 | 78° | 71km/h | 14826m | -7.5m/s | -53.1°C | 4.3% | 0hPa | 2.5V | 00:00:00 | 02:14:24 | 00:00:00 | |
| HA6NAB-11 | 2026-09-01 02:14:41 | 48.30955 | 17.60986 | 79° | 75km/h | 14842m | -8.1m/s | -53.0°C | 1.7% | 0hPa | 2.5V | 08:10:00 | 00:00:00 | 00:00:00 | |
| DO3MHA-11 | 2026-09-01 02:14:40 | 48.30947 | 17.60932 | 78° | 68km/h | 14857m | -7.9m/s | -52.8°C | 4.2% | 0hPa | 2.5V | 00:00:00 | 02:14:20 | 00:00:00 | |
| OM5KV | 2026-09-01 02:14:39 | 48.30947 | 17.60932 | 78° | 71km/h | 14857m | -8.0m/s | -52.8°C | 1.7% | 0hPa | 2.5V | 08:10:00 | 00:00:00 | 00:00:00 | |
| OE5DRO-10 | 2026-09-01 02:14:37 | 48.30933 | 17.60855 | 75° | 62km/h | 14882m | -8.4m/s | -52.3°C | 4.0% | 0hPa | 2.5V | 00:00:00 | 00:00:00 | 00:00:00 | |
| PETON7-10 | 2026-09-01 02:14:36 | 48.30929 | 17.60830 | 74° | 64km/h | 14890m | -8.7m/s | -52.2°C | 4.0% | 0hPa | 2.5V | 00:00:00 | 00:00:00 | 00:00:00 | |
| HA6NAB-11 | 2026-09-01 02:14:35 | 48.30929 | 17.60830 | 75° | 68km/h | 14890m | -8.7m/s | -52.3°C | 1.6% | 0hPa | 2.5V | 08:11:00 | 00:00:00 | 00:00:00 | |
| DO3MHA-12 | 2026-09-01 02:14:34 | 48.30919 | 17.60782 | 71° | 62km/h | 14907m | -8.1m/s | -52.2°C | 4.0% | 0hPa | 2.5V | 00:00:00 | 02:14:14 | 00:00:00 | |
| OM5KV | 2026-09-01 02:14:32 | 48.30914 | 17.60759 | 74° | 64km/h | 14915m | -8.0m/s | -52.3°C | 1.6% | 0hPa | 2.6V | 08:11:00 | 00:00:00 | 00:00:00 | |
| DO3MHA-11 | 2026-09-01 02:14:30 | 48.30897 | 17.60691 | 70° | 62km/h | 14940m | -8.5m/s | -52.2°C | 4.0% | 0hPa | 2.6V | 00:00:00 | 02:14:10 | 00:00:00 | |
| OM5KV | 2026-09-01 02:14:28 | 48.30892 | 17.60669 | 69° | 64km/h | 14948m | -8.7m/s | -52.3°C | 1.6% | 0hPa | 2.5V | 08:11:00 | 00:00:00 | 00:00:00 | |
| OE3OSB-13 | 2026-09-01 02:14:26 | 48.30866 | 17.60583 | 65° | 60km/h | 14982m | -8.8m/s | -52.4°C | 1.4% | -1.0hPa | 2.5V | 00:00:00 | 00:00:00 | 00:00:00 | |
| DO3MHA-12 | 2026-09-01 02:14:24 | 48.30860 | 17.60562 | 65° | 60km/h | 14991m | -8.6m/s | -52.4°C | 3.9% | 0hPa | 2.5V | 00:00:00 | 02:14:04 | 00:00:00 | |
| OE5DXL-15 | 2026-09-01 02:14:23 | 48.30853 | 17.60541 | 66° | 60km/h | 15000m | -8.4m/s | -52.5°C | 4.0% | 0hPa | 2.5V | 00:00:00 | 00:00:00 | 00:00:00 | |
| PETON7-10 | 2026-09-01 02:14:21 | 48.30840 | 17.60500 | 62° | 60km/h | 15017m | -8.1m/s | -52.6°C | 4.0% | 0hPa | 2.5V | 00:00:00 | 02:14:01 | 00:00:00 | |
| DO3MHA-11 | 2026-09-01 02:14:20 | 48.30833 | 17.60480 | 65° | 60km/h | 15025m | -8.5m/s | -52.7°C | 4.1% | 0hPa | 2.5V | 00:00:00 | 02:14:00 | 00:00:00 | |
| OE5DRO-10 | 2026-09-01 02:14:18 | 48.30819 | 17.60439 | 60° | 60km/h | 15042m | -8.4m/s | -52.8°C | 4.1% | 0hPa | 2.5V | 00:00:00 | 00:00:00 | 00:00:00 | |
| S52SK | 2026-09-01 02:14:17 | 48.30819 | 17.60439 | 61° | 60km/h | 15042m | -8.4m/s | -52.9°C | 1.7% | 0hPa | 2.5V | 00:00:00 | 00:00:00 | 00:00:00 | |
| OM5KV | 2026-09-01 02:14:15 | 48.30804 | 17.60400 | 61° | 60km/h | 15058m | -8.4m/s | -53.0°C | 1.7% | 0hPa | 2.5V | 08:11:00 | 00:00:00 | 00:00:00 | |
| DO3MHA-12 | 2026-09-01 02:14:14 | 48.30788 | 17.60361 | 56° | 60km/h | 15074m | -8.4m/s | -53.0°C | 4.1% | 0hPa | 2.5V | 00:00:00 | 02:13:54 | 00:00:00 | |
| OM5KV | 2026-09-01 02:14:11 | 48.30771 | 17.60322 | 58° | 60km/h | 15091m | -8.4m/s | -53.2°C | 1.7% | 0hPa | 2.5V | 08:11:00 | 00:00:00 | 00:00:00 | |
| ATIDSZ-14 | 2026-09-01 02:14:10 | 48.30754 | 17.60284 | 56° | 58km/h | 15108m | -8.3m/s | -53.2°C | 1.7% | 0hPa | 2.5V | 08:11:00 | 00:00:00 | 00:00:00 | |
| OM5KV | 2026-09-01 02:14:09 | 48.30754 | 17.60284 | 56° | 58km/h | 15108m | -8.3m/s | -53.2°C | 1.7% | 0hPa | 2.5V | 08:11:00 | 00:00:00 | 00:00:00 | |
| GYPAP8-17 | 2026-09-01 02:14:07 | 48.30737 | 17.60247 | 56° | 60km/h | 15124m | -8.5m/s | -53.2°C | 1.7% | 0hPa | 2.5V | 00:00:00 | 00:00:00 | 00:00:00 | |
| PETON7-10 | 2026-09-01 02:14:06 | 48.30720 | 17.60210 | 57° | 60km/h | 15141m | -8.5m/s | -53.3°C | 4.2% | 0hPa | 2.5V | 08:11:00 | 00:00:00 | 00:00:00 | |
| OM5KV | 2026-09-01 02:14:05 | 48.30721 | 17.60210 | 58° | 60km/h | 15141m | -8.6m/s | -53.3°C | 1.7% | 0hPa | 2.6V | 08:11:00 | 00:00:00 | 00:00:00 | |
| DO3MHA-12 | 2026-09-01 02:14:04 | 48.30703 | 17.60172 | 57° | 60km/h | 15159m | -8.4m/s | -53.4°C | 4.2% | 0hPa | 2.6V | 08:11:00 | 02:13:44 | 00:00:00 | |
| DO3MHA-11 | 2026-09-01 02:14:00 | 48.30670 | 17.60095 | 59° | 62km/h | 15193m | -8.6m/s | -53.5°C | 4.2% | 0hPa | 2.5V | 00:00:00 | 02:13:40 | 00:00:00 | |
| OE5DRO-10 | 2026-09-01 02:13:59 | 48.30661 | 17.60076 | 57° | 62km/h | 15201m | -8.4m/s | -53.5°C | 4.3% | 0hPa | 2.5V | 00:00:00 | 00:00:00 | 00:00:00 | |
| OM5KV | 2026-09-01 02:13:58 | 48.30661 | 17.60076 | 58° | 60km/h | 15201m | -8.4m/s | -53.6°C | 1.7% | 0hPa | 2.5V | 08:11:00 | 00:00:00 | 00:00:00 | |
| DO3MHA-12 | 2026-09-01 02:13:54 | 48.30623 | 17.59975 | 65° | 62km/h | 15243m | -8.3m/s | -53.8°C | 4.3% | 0hPa | 2.5V | 00:00:00 | 02:13:34 | 00:00:00 | |
| OE5DXL-15 | 2026-09-01 02:13:53 | 48.30616 | 17.59953 | 66° | 60km/h | 15252m | -8.3m/s | -53.9°C | 4.3% | 0hPa | 2.5V | 00:00:00 | 00:00:00 | 00:00:00 | |
| PETON7-10 | 2026-09-01 02:13:51 | 48.30603 | 17.59911 | 66° | 62km/h | 15268m | -8.5m/s | -54.0°C | 4.4% | 0hPa | 2.5V | 00:00:00 | 00:00:00 | 00:00:00 | |
| DO3MHA-11 | 2026-09-01 02:13:50 | 48.30597 | 17.59889 | 68° | 62km/h | 15277m | -8.3m/s | -54.0°C | 4.4% | 0hPa | 2.5V | 00:00:00 | 02:13:30 | 00:00:00 | |
| ATIDSZ-14 | 2026-09-01 02:13:48 | 48.30591 | 17.59868 | 69° | 62km/h | 15285m | -8.2m/s | -54.1°C | 1.8% | 0hPa | 2.5V | 08:11:00 | 00:00:00 | 00:00:00 | |
| OM5KV | 2026-09-01 02:13:47 | 48.30585 | 17.59846 | 67° | 62km/h | 15293m | -8.2m/s | -54.2°C | 1.8% | 0hPa | 2.5V | 08:11:00 | 00:00:00 | 00:00:00 | |
| OM5KV | 2026-09-01 02:13:45 | 48.30573 | 17.59803 | 71° | 62km/h | 15310m | -8.6m/s | -54.3°C | 1.8% | 0hPa | 2.5V | 08:12:00 | 00:00:00 | 00:00:00 | |
| DO3MHA-12 | 2026-09-01 02:13:44 | 48.30562 | 17.59758 | 72° | 60km/h | 15327m | -8.7m/s | -54.2°C | 4.4% | 0hPa | 2.5V | 00:00:00 | 02:13:24 | 00:00:00 | |
| OM5KV | 2026-09-01 02:13:42 | 48.30557 | 17.59736 | 70° | 62km/h | 15336m | -8.4m/s | -54.3°C | 1.8% | 0hPa | 2.5V | 08:12:00 | 00:00:00 | 00:00:00 | |
| OM5KV | 2026-09-01 02:13:40 | 48.30547 | 17.59693 | 72° | 62km/h | 15353m | -8.6m/s | -54.5°C | 1.8% | 0hPa | 2.5V | 08:12:00 | 00:00:00 | 00:00:00 | |
| HA6NAB-11 | 2026-09-01 02:13:37 | 48.30534 | 17.59627 | 75° | 60km/h | 15379m | -8.7m/s | -54.5°C | 1.8% | 0hPa | 2.5V | 08:12:00 | 00:00:00 | 00:00:00 | |
| PETON7-10 | 2026-09-01 02:13:36 | 48.30525 | 17.59584 | 73° | 57km/h | 15396m | -8.7m/s | -54.5°C | 4.5% | 0hPa | 2.5V | 00:00:00 | 02:13:16 | 00:00:00 | |
| DO3MHA-12 | 2026-09-01 02:13:34 | 48.30516 | 17.59541 | 71° | 57km/h | 15414m | -8.8m/s | -54.7°C | 4.5% | 0hPa | 2.5V | 00:00:00 | 02:13:14 | 00:00:00 | |
| HA6NAB-11 | 2026-09-01 02:13:31 | 48.30506 | 17.59500 | 70° | 58km/h | 15432m | -8.6m/s | -54.8°C | 1.8% | 0hPa | 2.6V | 08:12:00 | 00:00:00 | 00:00:00 | |
| DO3MHA-11 | 2026-09-01 02:13:30 | 48.30496 | 17.59459 | 70° | 55km/h | 15449m | -8.6m/s | -54.9°C | 4.5% | 0hPa | 2.6V | 08:11:00 | 02:13:10 | 00:00:00 | |
| ATIDSZ-14 | 2026-09-01 02:13:28 | 48.30492 | 17.59439 | 73° | 57km/h | 15457m | -8.7m/s | -55.0°C | 1.8% | 0hPa | 2.5V | 08:12:00 | 00:00:00 | 00:00:00 | |
| OM5KV | 2026-09-01 02:13:25 | 48.30477 | 17.59378 | 73° | 57km/h | 15484m | -9.0m/s | -55.2°C | 1.8% | 0hPa | 2.5V | 08:12:00 | 00:00:00 | 00:00:00 | |
| OE3OSB-13 | 2026-09-01 02:13:24 | 48.30464 | 17.59319 | 73° | 55km/h | 15510m | -8.9m/s | -55.4°C | 1.7% | -1.0hPa | 2.5V | 00:00:00 | 00:00:00 | 00:00:00 | |
| OE5DXL-15 | 2026-09-01 02:13:23 | 48.30464 | 17.59319 | 74° | 51km/h | 15511m | -8.9m/s | -55.4°C | 4.7% | 0hPa | 2.5V | 00:00:00 | 00:00:00 | 00:00:00 | |
| OE3JTB-15 | 2026-09-01 02:13:22 | 48.30460 | 17.59299 | 71° | 51km/h | 15519m | -8.6m/s | -55.4°C | 4.7% | 0hPa | 2.5V | 00:00:00 | 00:00:00 | 00:00:00 | |
| PETON7-10 | 2026-09-01 02:13:21 | 48.30456 | 17.59279 | 75° | 51km/h | 15528m | -8.5m/s | -55.5°C | 4.7% | 0hPa | 2.5V | 00:00:00 | 00:00:00 | 00:00:00 | |
| DO3MHA-11 | 2026-09-01 02:13:20 | 48.30453 | 17.59260 | 75° | 53km/h | 15537m | -8.8m/s | -55.6°C | 4.7% | 0hPa | 2.5V | 00:00:00 | 02:13:00 | 00:00:00 | |
| OM5KV | 2026-09-01 02:13:19 | 48.30453 | 17.59260 | 75° | 55km/h | 15537m | -8.8m/s | -55.6°C | 1.9% | 0hPa | 2.5V | 08:12:00 | 00:00:00 | 00:00:00 | |
| OM5KV | 2026-09-01 02:13:18 | 48.30449 | 17.59240 | 73° | 53km/h | 15545m | -8.8m/s | -55.7°C | 1.9% | 0hPa | 2.5V | 08:12:00 | 00:00:00 | 00:00:00 | |
| DO3MHA-12 | 2026-09-01 02:13:14 | 48.30433 | 17.59142 | 79° | 51km/h | 15589m | -8.8m/s | -55.9°C | 4.8% | 0hPa | 2.5V | 00:00:00 | 02:12:54 | 00:00:00 | |
| OM5KV | 2026-09-01 02:13:13 | 48.30433 | 17.59142 | 79° | 55km/h | 15589m | -8.9m/s | -55.9°C | 1.9% | 0hPa | 2.5V | 08:12:00 | 00:00:00 | 00:00:00 | |
| OM5KV | 2026-09-01 02:13:12 | 48.30430 | 17.59122 | 78° | 51km/h | 15598m | -8.7m/s | -55.9°C | 1.9% | 0hPa | 2.5V | 08:12:00 | 00:00:00 | 00:00:00 | |
| DO3MHA-11 | 2026-09-01 02:13:10 | 48.30422 | 17.59066 | 80° | 49km/h | 15624m | -8.6m/s | -56.0°C | 4.8% | 0hPa | 2.5V | 00:00:00 | 02:12:50 | 00:00:00 | |
| S52SK | 2026-09-01 02:13:09 | 48.30422 | 17.59065 | 80° | 49km/h | 15624m | -8.6m/s | -56.0°C | 1.9% | 0hPa | 2.5V | 00:00:00 | 00:00:00 | 00:00:00 | |
| OM5KV | 2026-09-01 02:13:08 | 48.30419 | 17.59047 | 78° | 49km/h | 15633m | -9.1m/s | -56.0°C | 1.9% | 0hPa | 2.5V | 08:12:00 | 00:00:00 | 00:00:00 | |
| ATIDSZ-14 | 2026-09-01 02:13:07 | 48.30417 | 17.59029 | 79° | 47km/h | 15642m | -8.9m/s | -56.1°C | 1.9% | 0hPa | 2.5V | 08:12:00 | 00:00:00 | 00:00:00 | |
| PETON7-10 | 2026-09-01 02:13:06 | 48.30411 | 17.58993 | 76° | 49km/h | 15659m | -8.9m/s | -56.1°C | 4.9% | 0hPa | 2.5V | 00:00:00 | 00:00:00 | 00:00:00 | |
| S52SK | 2026-09-01 02:13:03 | 48.30405 | 17.58957 | 74° | 49km/h | 15677m | -8.7m/s | -56.2°C | 1.9% | 0hPa | 2.5V | 00:00:00 | 00:00:00 | 00:00:00 | |
| DO3MHA-11 | 2026-09-01 02:13:00 | 48.30392 | 17.58885 | 74° | 51km/h | 15713m | -8.8m/s | -56.3°C | 5.1% | 0hPa | 2.5V | 00:00:00 | 02:12:40 | 00:00:00 | |
| OM5KV | 2026-09-01 02:12:57 | 48.30386 | 17.58849 | 74° | 49km/h | 15731m | -8.9m/s | -56.5°C | 2.0% | 0hPa | 2.5V | 08:12:00 | 00:00:00 | 00:00:00 | |
| OM5KV | 2026-09-01 02:12:55 | 48.30379 | 17.58812 | 75° | 49km/h | 15749m | -9.0m/s | -56.6°C | 2.0% | 0hPa | 2.5V | 08:12:00 | 00:00:00 | 00:00:00 | |
| OE5DXL-15 | 2026-09-01 02:12:53 | 48.30370 | 17.58757 | 77° | 51km/h | 15776m | -9.0m/s | -56.6°C | 5.1% | 0hPa | 2.5V | 00:00:00 | 00:00:00 | 00:00:00 | |
| PETON7-10 | 2026-09-01 02:12:51 | 48.30363 | 17.58719 | 74° | 49km/h | 15794m | -9.7m/s | -56.8°C | 5.1% | 0hPa | 2.5V | 00:00:00 | 02:12:31 | 00:00:00 | |
| DO3MHA-11 | 2026-09-01 02:12:50 | 48.30360 | 17.58701 | 74° | 51km/h | 15804m | -9.9m/s | -56.8°C | 5.1% | 0hPa | 2.5V | 00:00:00 | 02:12:30 | 00:00:00 | |
| ATIDSZ-14 | 2026-09-01 02:12:46 | 48.30347 | 17.58645 | 73° | 51km/h | 15833m | -9.3m/s | -57.0°C | 2.1% | 0hPa | 2.5V | 08:13:00 | 00:00:00 | 00:00:00 | |
| OM5KV | 2026-09-01 02:12:45 | 48.30343 | 17.58626 | 72° | 53km/h | 15842m | -9.0m/s | -57.0°C | 2.1% | 0hPa | 2.5V | 08:13:00 | 00:00:00 | 00:00:00 | |
| OM5KV | 2026-09-01 02:12:44 | 48.30339 | 17.58608 | 69° | 51km/h | 15851m | -8.9m/s | -56.9°C | 2.1% | 0hPa | 2.5V | 08:13:00 | 00:00:00 | 00:00:00 | |
| OE5DRO-10 | 2026-09-01 02:12:43 | 48.30329 | 17.58572 | 70° | 51km/h | 15869m | -8.7m/s | -56.6°C | 5.2% | 0hPa | 2.5V | 00:00:00 | 00:00:00 | 00:00:00 | |
| DO3MHA-11 | 2026-09-01 02:12:40 | 48.30314 | 17.58522 | 68° | 49km/h | 15896m | -8.6m/s | -56.4°C | 5.1% | 0hPa | 2.5V | 00:00:00 | 02:12:20 | 00:00:00 | |
| OM5KV | 2026-09-01 02:12:39 | 48.30314 | 17.58522 | 69° | 46km/h | 15896m | -8.7m/s | -56.5°C | 2.0% | 0hPa | 2.5V | 08:13:00 | 00:00:00 | 00:00:00 | |
| OM5KV | 2026-09-01 02:12:38 | 48.30310 | 17.58505 | 67° | 49km/h | 15905m | -8.8m/s | -56.5°C | 2.0% | 0hPa | 2.5V | 08:13:00 | 00:00:00 | 00:00:00 | |
| PETON7-10 | 2026-09-01 02:12:36 | 48.30294 | 17.58457 | 64° | 55km/h | 15932m | -9.0m/s | -56.5°C | 5.1% | 0hPa | 2.5V | 00:00:00 | 00:00:00 | 00:00:00 | |
| OM5KV | 2026-09-01 02:12:33 | 48.30282 | 17.58425 | 63° | 47km/h | 15950m | -9.0m/s | -56.5°C | 2.0% | 0hPa | 2.5V | 08:13:00 | 00:00:00 | 00:00:00 | |
| OM5KV | 2026-09-01 02:12:32 | 48.30276 | 17.58408 | 61° | 51km/h | 15959m | -9.1m/s | -56.5°C | 2.0% | 0hPa | 2.5V | 08:13:00 | 00:00:00 | 00:00:00 | |
| DO3MHA-11 | 2026-09-01 02:12:30 | 48.30255 | 17.58358 | 58° | 58km/h | 15986m | -9.1m/s | -56.5°C | 5.2% | 0hPa | 2.5V | 00:00:00 | 02:12:10 | 00:00:00 | |
| OM5KV | 2026-09-01 02:12:27 | 48.30239 | 17.58323 | 58° | 57km/h | 16004m | -9.4m/s | -56.6°C | 2.0% | 0hPa | 2.6V | 08:13:00 | 00:00:00 | 00:00:00 | |
| ATIDSZ-14 | 2026-09-01 02:12:26 | 48.30231 | 17.58306 | 56° | 57km/h | 16013m | -9.1m/s | -56.6°C | 2.0% | 0hPa | 2.6V | 08:13:00 | 00:00:00 | 00:00:00 | |
| OE5DRO-10 | 2026-09-01 02:12:24 | 48.30207 | 17.58250 | 59° | 62km/h | 16040m | -9.2m/s | -56.4°C | 5.2% | 0hPa | 2.6V | 00:00:00 | 00:00:00 | 00:00:00 | |
| OE5DXL-15 | 2026-09-01 02:12:23 | 48.30200 | 17.58230 | 61° | 64km/h | 16050m | -9.2m/s | 0°C | 0% | 0hPa | 2.6V | 00:00:00 | 02:12:03 | 00:00:00 | |
| PETON7-10 | 2026-09-01 02:12:21 | 48.30184 | 17.58190 | 59° | 64km/h | 16068m | -9.4m/s | -56.1°C | 4.9% | 0hPa | 2.6V | 00:00:00 | 00:00:00 | 00:00:00 | |
| DO3MHA-11 | 2026-09-01 02:12:20 | 48.30176 | 17.58170 | 62° | 64km/h | 16078m | -9.2m/s | -56.0°C | 4.9% | 0hPa | 2.6V | 00:00:00 | 02:12:00 | 00:00:00 | |
| DO3MHA-12 | 2026-09-01 02:12:19 | 48.30169 | 17.58149 | 60° | 64km/h | 16087m | -9.1m/s | -56.0°C | 4.9% | 0hPa | 2.6V | 00:00:00 | 02:11:59 | 00:00:00 | |
| OM5KV | 2026-09-01 02:12:11 | 48.30116 | 17.58000 | 65° | 62km/h | 16153m | -9.3m/s | -55.6°C | 1.9% | 0hPa | 2.5V | 08:13:00 | 00:00:00 | 00:00:00 | |
| DO3MHA-11 | 2026-09-01 02:12:10 | 48.30101 | 17.57958 | 64° | 64km/h | 16171m | -9.5m/s | -55.7°C | 4.7% | 0hPa | 2.5V | 00:00:00 | 02:11:50 | 00:00:00 | |
| DO3MHA-12 | 2026-09-01 02:12:09 | 48.30094 | 17.57936 | 66° | 64km/h | 16180m | -9.6m/s | -55.7°C | 4.7% | 0hPa | 2.5V | 00:00:00 | 02:11:49 | 00:00:00 | |
| ATIDSZ-14 | 2026-09-01 02:12:06 | 48.30073 | 17.57870 | 66° | 66km/h | 16209m | -9.5m/s | -56.0°C | 1.9% | 0hPa | 2.5V | 08:13:00 | 00:00:00 | 00:00:00 | |
| OE5DRO-10 | 2026-09-01 02:12:05 | 48.30066 | 17.57848 | 67° | 64km/h | 16218m | -9.4m/s | -56.1°C | 4.8% | 0hPa | 2.5V | 08:13:00 | 00:00:00 | 00:00:00 | |
| OM5KV | 2026-09-01 02:12:03 | 48.30059 | 17.57826 | 65° | 64km/h | 16227m | -9.4m/s | -56.2°C | 1.9% | 0hPa | 2.6V | 08:13:00 | 00:00:00 | 00:00:00 | |
| S52SK | 2026-09-01 02:12:02 | 48.30052 | 17.57803 | 67° | 66km/h | 16236m | -9.5m/s | -56.3°C | 1.9% | 0hPa | 2.6V | 00:00:00 | 00:00:00 | 00:00:00 | |
| DO3MHA-11 | 2026-09-01 02:12:00 | 48.30032 | 17.57736 | 67° | 64km/h | 16264m | -9.4m/s | -56.4°C | 4.9% | 0hPa | 2.6V | 08:13:00 | 02:11:40 | 00:00:00 | |
| DO3MHA-12 | 2026-09-01 02:11:59 | 48.30026 | 17.57714 | 69° | 62km/h | 16274m | -9.6m/s | -56.4°C | 4.9% | 0hPa | 2.5V | 00:00:00 | 02:11:39 | 00:00:00 | |
| OM5KV | 2026-09-01 02:11:58 | 48.30026 | 17.57714 | 69° | 64km/h | 16274m | -9.6m/s | -56.5°C | 1.9% | 0hPa | 2.5V | 08:13:00 | 00:00:00 | 00:00:00 | |
| S52SK | 2026-09-01 02:11:56 | 48.30014 | 17.57670 | 69° | 64km/h | 16293m | -9.7m/s | -56.6°C | 1.9% | 0hPa | 2.5V | 00:00:00 | 00:00:00 | 00:00:00 | |
| OE3JTB-15 | 2026-09-01 02:11:54 | 48.29997 | 17.57603 | 71° | 64km/h | 16321m | -9.6m/s | -56.7°C | 4.9% | 0hPa | 2.5V | 00:00:00 | 00:00:00 | 00:00:00 | |
| OE5DXL-15 | 2026-09-01 02:11:53 | 48.29992 | 17.57581 | 71° | 62km/h | 16331m | -9.6m/s | 0°C | 0% | 0hPa | 2.5V | 00:00:00 | 00:00:00 | 00:00:00 | |
| OM5KV | 2026-09-01 02:11:52 | 48.29992 | 17.57581 | 72° | 62km/h | 16331m | -9.6m/s | -56.7°C | 1.9% | 0hPa | 2.5V | 08:13:00 | 00:00:00 | 00:00:00 | |
| PETON7-10 | 2026-09-01 02:11:51 | 48.29981 | 17.57537 | 72° | 62km/h | 16350m | -9.6m/s | -56.8°C | 4.9% | 0hPa | 2.5V | 08:13:00 | 00:00:00 | 00:00:00 | |
| DO3MHA-11 | 2026-09-01 02:11:50 | 48.29976 | 17.57515 | 71° | 60km/h | 16360m | -9.5m/s | -56.8°C | 4.9% | 0hPa | 2.6V | 00:00:00 | 02:11:30 | 00:00:00 | |
| OE5DRO-10 | 2026-09-01 02:11:46 | 48.29956 | 17.57426 | 73° | 64km/h | 16398m | -9.9m/s | -57.0°C | 5.0% | 0hPa | 2.6V | 00:00:00 | 00:00:00 | 00:00:00 | |
| ATIDSZ-14 | 2026-09-01 02:11:45 | 48.29957 | 17.57426 | 74° | 62km/h | 16398m | -9.9m/s | -57.0°C | 1.9% | 0hPa | 2.6V | 08:13:00 | 00:00:00 | 00:00:00 | |
| OM5KV | 2026-09-01 02:11:43 | 48.29947 | 17.57382 | 73° | 62km/h | 16418m | -9.8m/s | -57.1°C | 1.9% | 0hPa | 2.6V | 08:13:00 | 00:00:00 | 00:00:00 | |
| DO3MHA-12 | 2026-09-01 02:11:41 | 48.29932 | 17.57318 | 70° | 66km/h | 16447m | -9.7m/s | -57.2°C | 5.1% | 0hPa | 2.6V | 08:13:00 | 02:11:21 | 00:00:00 | |
| DO3MHA-11 | 2026-09-01 02:11:40 | 48.29926 | 17.57297 | 70° | 64km/h | 16457m | -9.3m/s | -57.2°C | 5.1% | 0hPa | 2.5V | 00:00:00 | 02:11:20 | 00:00:00 | |
| OM5KV | 2026-09-01 02:11:38 | 48.29921 | 17.57276 | 69° | 60km/h | 16466m | -9.8m/s | -57.3°C | 1.9% | 0hPa | 2.5V | 08:13:00 | 00:00:00 | 00:00:00 | |
| PETON7-10 | 2026-09-01 02:11:36 | 48.29904 | 17.57209 | 72° | 68km/h | 16496m | -9.6m/s | -57.5°C | 5.4% | 0hPa | 2.5V | 00:00:00 | 00:00:00 | 00:00:00 | |
| HA6NAB-11 | 2026-09-01 02:11:34 | 48.29899 | 17.57186 | 72° | 64km/h | 16505m | -9.6m/s | -57.7°C | 2.0% | 0hPa | 2.5V | 00:00:00 | 00:00:00 | 00:00:00 | |
| DO3MHA-11 | 2026-09-01 02:11:30 | 48.29876 | 17.57064 | 78° | 69km/h | 16555m | -9.7m/s | -58.0°C | 5.7% | 0hPa | 2.5V | 00:00:00 | 02:11:10 | 00:00:00 | |
| DO3MHA-12 | 2026-09-01 02:11:29 | 48.29872 | 17.57040 | 77° | 53km/h | 16565m | -9.6m/s | -58.0°C | 5.7% | 0hPa | 2.6V | 00:00:00 | 02:11:09 | 00:00:00 | |
| OE5DRO-10 | 2026-09-01 02:11:27 | 48.29866 | 17.56990 | 80° | 71km/h | 16584m | -9.5m/s | -57.7°C | 5.5% | 0hPa | 2.6V | 00:00:00 | 00:00:00 | 00:00:00 | |
| OM5KV | 2026-09-01 02:11:25 | 48.29863 | 17.56964 | 83° | 69km/h | 16594m | -10.0m/s | -57.6°C | 2.0% | 0hPa | 2.6V | 08:13:00 | 00:00:00 | 00:00:00 | |
| HA6NAB-11 | 2026-09-01 02:11:23 | 48.29858 | 17.56912 | 83° | 69km/h | 16614m | -9.6m/s | -56.9°C | 1.9% | 0hPa | 2.6V | 00:00:00 | 00:00:00 | 00:00:00 | |
| PETON7-10 | 2026-09-01 02:11:21 | 48.29853 | 17.56831 | 85° | 71km/h | 16643m | -9.6m/s | -55.9°C | 4.8% | 0hPa | 2.6V | 00:00:00 | 02:11:01 | 00:00:00 | |
| DO3MHA-11 | 2026-09-01 02:11:20 | 48.29852 | 17.56804 | 87° | 71km/h | 16653m | -10.0m/s | -55.7°C | 4.7% | 0hPa | 2.6V | 00:00:00 | 02:11:00 | 00:00:00 | |
| OE3OSB-13 | 2026-09-01 02:11:19 | 48.29851 | 17.56777 | 87° | 71km/h | 16663m | -10.2m/s | -55.7°C | 1.5% | -1.0hPa | 2.6V | 00:00:00 | 00:00:00 | 00:00:00 | |
| OM5KV | 2026-09-01 02:11:18 | 48.29851 | 17.56777 | 89° | 73km/h | 16663m | -10.2m/s | -55.7°C | 1.7% | 0hPa | 2.6V | 08:13:00 | 00:00:00 | 00:00:00 | |
| OM5KV | 2026-09-01 02:11:11 | 48.29846 | 17.56588 | 91° | 71km/h | 16733m | -9.8m/s | -55.7°C | 1.7% | 0hPa | 2.6V | 08:14:00 | 00:00:00 | 00:00:00 | |
| DO3MHA-11 | 2026-09-01 02:11:10 | 48.29845 | 17.56534 | 92° | 64km/h | 16752m | -10.0m/s | -55.6°C | 4.7% | 0hPa | 2.6V | 00:00:00 | 02:10:50 | 00:00:00 | |
| OE5DRO-10 | 2026-09-01 02:11:08 | 48.29846 | 17.56483 | 92° | 60km/h | 16772m | -9.9m/s | -55.7°C | 4.8% | 0hPa | 2.6V | 00:00:00 | 00:00:00 | 00:00:00 | |
| OM5KV | 2026-09-01 02:11:07 | 48.29846 | 17.56483 | 93° | 68km/h | 16772m | -10.0m/s | -55.8°C | 1.7% | 0hPa | 2.5V | 08:14:00 | 00:00:00 | 00:00:00 | |
| PETON7-10 | 2026-09-01 02:11:06 | 48.29847 | 17.56434 | 92° | 58km/h | 16792m | -9.9m/s | -55.7°C | 4.8% | 0hPa | 2.5V | 00:00:00 | 00:00:00 | 00:00:00 | |
| OM5KV | 2026-09-01 02:11:05 | 48.29847 | 17.56434 | 92° | 64km/h | 16792m | -10.0m/s | -55.8°C | 1.7% | 0hPa | 2.6V | 08:14:00 | 00:00:00 | 00:00:00 | |
| ATIDSZ-14 | 2026-09-01 02:11:03 | 48.29848 | 17.56388 | 91° | 60km/h | 16812m | -9.5m/s | -55.8°C | 1.7% | 0hPa | 2.6V | 08:14:00 | 00:00:00 | 00:00:00 | |
| OE3OSB-13 | 2026-09-01 02:10:48 | 48.29884 | 17.56047 | 103° | 47km/h | 16971m | -9.7m/s | -54.5°C | 1.4% | -1.0hPa | 2.6V | 00:00:00 | 00:00:00 | 00:00:00 | |
| HA6NAB-11 | 2026-09-01 02:10:47 | 48.29884 | 17.56047 | 104° | 49km/h | 16971m | -9.7m/s | -54.5°C | 1.6% | 0hPa | 2.6V | 08:14:00 | 00:00:00 | 00:00:00 | |
| OM5KV | 2026-09-01 02:10:45 | 48.29891 | 17.56011 | 107° | 49km/h | 16991m | -10.3m/s | -54.3°C | 1.6% | 0hPa | 2.6V | 08:14:00 | 00:00:00 | 00:00:00 | |
| OE5MMP-10 | 2026-09-01 02:10:44 | 48.29897 | 17.55977 | 103° | 37km/h | 17011m | -9.9m/s | -54.0°C | 4.4% | 0hPa | 2.6V | 00:00:00 | 02:10:24 | 00:00:00 | |
| OM5KV | 2026-09-01 02:10:43 | 48.29897 | 17.55977 | 104° | 44km/h | 17011m | -10.0m/s | -54.0°C | 1.5% | 0hPa | 2.6V | 08:14:00 | 00:00:00 | 00:00:00 | |
| HA6NAB-11 | 2026-09-01 02:10:42 | 48.29899 | 17.55962 | 105° | 44km/h | 17021m | -10.4m/s | -53.8°C | 1.5% | 0hPa | 2.6V | 08:14:00 | 00:00:00 | 00:00:00 | |
| DO3MHA-11 | 2026-09-01 02:10:40 | 48.29907 | 17.55916 | 102° | 33km/h | 17052m | -10.0m/s | -53.5°C | 4.2% | 0hPa | 2.6V | 00:00:00 | 02:10:20 | 00:00:00 | |
| OM5KV | 2026-09-01 02:10:39 | 48.29907 | 17.55916 | 103° | 38km/h | 17052m | -10.1m/s | -53.6°C | 1.4% | 0hPa | 2.6V | 08:14:00 | 00:00:00 | 00:00:00 | |
| OM5KV | 2026-09-01 02:10:37 | 48.29910 | 17.55888 | 101° | 38km/h | 17072m | -10.2m/s | -53.5°C | 1.5% | 0hPa | 2.6V | 08:14:00 | 00:00:00 | 00:00:00 | |
| PETON7-10 | 2026-09-01 02:10:36 | 48.29914 | 17.55861 | 102° | 27km/h | 17093m | -10.0m/s | -53.5°C | 4.2% | 0hPa | 2.6V | 00:00:00 | 02:10:16 | 00:00:00 | |
| OM5KV | 2026-09-01 02:10:31 | 48.29918 | 17.55815 | 97° | 31km/h | 17133m | -10.4m/s | -53.6°C | 1.4% | 0hPa | 2.6V | 08:14:00 | 00:00:00 | 00:00:00 | |
| DO3MHA-11 | 2026-09-01 02:10:30 | 48.29919 | 17.55794 | 95° | 26km/h | 17154m | -10.0m/s | -53.5°C | 4.2% | 0hPa | 2.6V | 08:14:00 | 02:10:10 | 00:00:00 | |
| OE5DXL-15 | 2026-09-01 02:10:29 | 48.29919 | 17.55784 | 90° | 24km/h | 17164m | -10.0m/s | -53.4°C | 4.1% | 0hPa | 2.5V | 00:00:00 | 00:00:00 | 00:00:00 | |
| OM5KV | 2026-09-01 02:10:27 | 48.29919 | 17.55775 | 88° | 26km/h | 17174m | -10.2m/s | -53.2°C | 1.4% | 0hPa | 2.5V | 08:14:00 | 00:00:00 | 00:00:00 | |
| OM5KV | 2026-09-01 02:10:25 | 48.29919 | 17.55756 | 90° | 26km/h | 17195m | -10.5m/s | -52.8°C | 1.3% | 0hPa | 2.5V | 08:14:00 | 00:00:00 | 00:00:00 | |
| OE5MMP-10 | 2026-09-01 02:10:24 | 48.29919 | 17.55736 | 90° | 26km/h | 17215m | -10.7m/s | -52.6°C | 3.8% | 0hPa | 2.5V | 00:00:00 | 02:10:04 | 00:00:00 | |
| OM5KV | 2026-09-01 02:10:22 | 48.29919 | 17.55727 | 91° | 26km/h | 17226m | -10.3m/s | -52.7°C | 1.3% | 0hPa | 2.5V | 08:14:00 | 00:00:00 | 00:00:00 | |
| DO3MHA-11 | 2026-09-01 02:10:20 | 48.29917 | 17.55699 | 81° | 24km/h | 17258m | -10.0m/s | -52.9°C | 3.9% | 0hPa | 2.5V | 00:00:00 | 02:10:00 | 00:00:00 | |
| HA6NAB-11 | 2026-09-01 02:10:19 | 48.29918 | 17.55699 | 82° | 26km/h | 17258m | -10.1m/s | -53.0°C | 1.3% | 0hPa | 2.5V | 00:00:00 | 00:00:00 | 00:00:00 | |
| OE3OSB-13 | 2026-09-01 02:10:17 | 48.29914 | 17.55670 | 79° | 24km/h | 17288m | -10.2m/s | -53.2°C | 1.2% | -1.0hPa | 2.5V | 00:00:00 | 00:00:00 | 00:00:00 | |
| OM5KV | 2026-09-01 02:10:16 | 48.29914 | 17.55670 | 81° | 24km/h | 17289m | -10.2m/s | -53.2°C | 1.4% | 0hPa | 2.5V | 08:15:00 | 00:00:00 | 00:00:00 | |
| OE5MMP-10 | 2026-09-01 02:10:14 | 48.29908 | 17.55645 | 68° | 24km/h | 17319m | -10.4m/s | -53.3°C | 4.0% | 0hPa | 2.5V | 00:00:00 | 02:09:54 | 00:00:00 | |
| DO3MHA-11 | 2026-09-01 02:10:10 | 48.29896 | 17.55616 | 57° | 24km/h | 17360m | -10.3m/s | -53.5°C | 4.1% | 0hPa | 2.5V | 00:00:00 | 02:09:50 | 00:00:00 | |
| OM5KV | 2026-09-01 02:10:08 | 48.29893 | 17.55609 | 54° | 20km/h | 17371m | -10.3m/s | -53.6°C | 1.4% | 0hPa | 2.5V | 08:15:00 | 00:00:00 | 00:00:00 | |
| OE5DRO-10 | 2026-09-01 02:10:06 | 48.29881 | 17.55590 | 46° | 27km/h | 17401m | -10.5m/s | -53.4°C | 4.0% | 0hPa | 2.5V | 00:00:00 | 00:00:00 | 00:00:00 | |
| PETON7-10 | 2026-09-01 02:10:05 | 48.29877 | 17.55584 | 49° | 27km/h | 17412m | -10.5m/s | -53.4°C | 4.0% | 0hPa | 2.5V | 00:00:00 | 00:00:00 | 00:00:00 | |
| OE5MMP-10 | 2026-09-01 02:10:04 | 48.29873 | 17.55577 | 49° | 27km/h | 17422m | -10.5m/s | -53.4°C | 4.1% | 0hPa | 2.5V | 00:00:00 | 02:09:44 | 00:00:00 | |
| OM5KV | 2026-09-01 02:10:03 | 48.29873 | 17.55577 | 49° | 24km/h | 17422m | -10.6m/s | -53.5°C | 1.4% | 0hPa | 2.5V | 08:15:00 | 00:00:00 | 00:00:00 | |
| OE3OSB-13 | 2026-09-01 02:09:46 | 48.29784 | 17.55436 | 48° | 35km/h | 17609m | -10.3m/s | -53.9°C | 1.2% | -1.0hPa | 2.5V | 00:00:00 | 00:00:00 | 00:00:00 | |
| OM5KV | 2026-09-01 02:09:45 | 48.29784 | 17.55436 | 50° | 37km/h | 17609m | -10.3m/s | -53.9°C | 1.4% | 0hPa | 2.5V | 08:15:00 | 00:00:00 | 00:00:00 | |
| ATIDSZ-14 | 2026-09-01 02:09:41 | 48.29762 | 17.55390 | 58° | 37km/h | 17650m | -10.1m/s | -54.0°C | 1.4% | 0hPa | 2.5V | 08:15:00 | 00:00:00 | 00:00:00 | |
| DO3MHA-11 | 2026-09-01 02:09:40 | 48.29751 | 17.55366 | 57° | 40km/h | 17671m | -10.1m/s | -54.1°C | 4.2% | 0hPa | 2.5V | 00:00:00 | 02:09:20 | 00:00:00 | |
| OM5KV | 2026-09-01 02:09:39 | 48.29751 | 17.55367 | 57° | 38km/h | 17671m | -10.1m/s | -54.1°C | 1.5% | 0hPa | 2.5V | 08:15:00 | 00:00:00 | 00:00:00 | |
| PETON7-10 | 2026-09-01 02:09:35 | 48.29723 | 17.55301 | 61° | 38km/h | 17722m | -10.9m/s | -54.1°C | 4.3% | 0hPa | 2.5V | 08:15:00 | 00:00:00 | 00:00:00 | |
| OM5KV | 2026-09-01 02:09:34 | 48.29723 | 17.55301 | 62° | 44km/h | 17722m | -11.0m/s | -54.2°C | 1.5% | 0hPa | 2.5V | 08:15:00 | 00:00:00 | 00:00:00 | |
| PG1ADW-2 | 2026-09-01 02:09:30 | 48.29699 | 17.55231 | 64° | 37km/h | 17775m | -10.3m/s | -54.3°C | 4.3% | 0hPa | 2.5V | 00:00:00 | 02:09:10 | 00:00:00 | |
| OE5DXL-15 | 2026-09-01 02:09:29 | 48.29695 | 17.55218 | 65° | 38km/h | 17785m | -10.3m/s | -54.3°C | 4.3% | 0hPa | 2.6V | 00:00:00 | 00:00:00 | 00:00:00 | |
| OE5DRO-10 | 2026-09-01 02:09:28 | 48.29691 | 17.55204 | 68° | 37km/h | 17796m | -10.5m/s | -54.2°C | 4.3% | 0hPa | 2.6V | 00:00:00 | 00:00:00 | 00:00:00 | |
| DO3MHA-11 | 2026-09-01 02:09:27 | 48.29688 | 17.55191 | 71° | 42km/h | 17806m | -10.5m/s | -54.2°C | 4.3% | 0hPa | 2.6V | 00:00:00 | 02:09:07 | 00:00:00 | |
| OM5KV | 2026-09-01 02:09:23 | 48.29679 | 17.55152 | 76° | 35km/h | 17838m | -10.7m/s | -54.2°C | 1.5% | 0hPa | 2.6V | 08:16:00 | 00:00:00 | 00:00:00 | |
| OM5KV | 2026-09-01 02:09:22 | 48.29677 | 17.55139 | 76° | 35km/h | 17848m | -10.7m/s | -54.1°C | 1.4% | 0hPa | 2.6V | 08:16:00 | 00:00:00 | 00:00:00 | |
| ATIDSZ-14 | 2026-09-01 02:09:21 | 48.29675 | 17.55127 | 74° | 35km/h | 17859m | -10.6m/s | -54.0°C | 1.4% | 0hPa | 2.6V | 08:16:00 | 00:00:00 | 00:00:00 | |
| PETON7-10 | 2026-09-01 02:09:20 | 48.29669 | 17.55102 | 74° | 38km/h | 17880m | -10.5m/s | -53.9°C | 4.2% | 0hPa | 2.6V | 00:00:00 | 00:00:00 | 00:00:00 | |
| GYPAP8-17 | 2026-09-01 02:09:18 | 48.29667 | 17.55089 | 76° | 37km/h | 17891m | -11.0m/s | -53.9°C | 1.4% | 0hPa | 2.6V | 08:16:00 | 00:00:00 | 00:00:00 | |
| OM5KV | 2026-09-01 02:09:17 | 48.29664 | 17.55076 | 77° | 38km/h | 17901m | -11.0m/s | -53.8°C | 1.4% | 0hPa | 2.6V | 08:16:00 | 00:00:00 | 00:00:00 | |
| OE5MMP-10 | 2026-09-01 02:09:15 | 48.29657 | 17.55034 | 77° | 40km/h | 17934m | -11.1m/s | -53.8°C | 4.1% | 0hPa | 2.6V | 08:15:00 | 02:08:55 | 00:00:00 | |
| OE3JTB-15 | 2026-09-01 02:09:11 | 48.29649 | 17.54977 | 81° | 40km/h | 17979m | -11.0m/s | -54.0°C | 4.2% | 0hPa | 2.6V | 00:00:00 | 00:00:00 | 00:00:00 | |
| PG1ADW-2 | 2026-09-01 02:09:10 | 48.29647 | 17.54962 | 81° | 44km/h | 17990m | -11.1m/s | -54.1°C | 4.2% | 0hPa | 2.6V | 00:00:00 | 00:00:00 | 00:00:00 | |
| OE5DRO-10 | 2026-09-01 02:09:09 | 48.29645 | 17.54947 | 81° | 44km/h | 18001m | -11.0m/s | -54.1°C | 4.2% | 0hPa | 2.6V | 00:00:00 | 00:00:00 | 00:00:00 | |
| OM5KV | 2026-09-01 02:09:05 | 48.29640 | 17.54903 | 83° | 42km/h | 18034m | -11.7m/s | -54.2°C | 1.4% | 0hPa | 2.6V | 08:16:00 | 00:00:00 | 00:00:00 | |
| ATIDSZ-14 | 2026-09-01 02:09:00 | 48.29633 | 17.54824 | 83° | 46km/h | 18092m | -11.4m/s | -54.3°C | 1.4% | 0hPa | 2.6V | 08:16:00 | 00:00:00 | 00:00:00 | |
| OE5DXL-15 | 2026-09-01 02:08:59 | 48.29630 | 17.54790 | 82° | 37km/h | 18115m | -11.2m/s | -54.2°C | 4.2% | 0hPa | 2.6V | 00:00:00 | 00:00:00 | 00:00:00 | |
| OE5MMP-10 | 2026-09-01 02:08:55 | 48.29624 | 17.54721 | 82° | 44km/h | 18159m | -10.7m/s | -54.4°C | 4.3% | 0hPa | 2.6V | 00:00:00 | 02:08:35 | 00:00:00 | |
| OM5KV | 2026-09-01 02:08:53 | 48.29622 | 17.54704 | 84° | 44km/h | 18170m | -10.8m/s | -54.6°C | 1.4% | 0hPa | 2.6V | 08:16:00 | 00:00:00 | 00:00:00 | |
| DO3MHA-11 | 2026-09-01 02:08:52 | 48.29620 | 17.54671 | 87° | 40km/h | 18191m | -11.0m/s | -54.6°C | 4.4% | 0hPa | 2.6V | 00:00:00 | 02:08:32 | 00:00:00 | |
| PETON7-10 | 2026-09-01 02:08:50 | 48.29619 | 17.54639 | 91° | 35km/h | 18213m | -10.9m/s | -54.6°C | 4.4% | 0hPa | 2.6V | 00:00:00 | 00:00:00 | 00:00:00 | |
| OM5KV | 2026-09-01 02:08:46 | 48.29620 | 17.54592 | 93° | 42km/h | 18246m | -11.1m/s | -54.6°C | 1.5% | 0hPa | 2.5V | 08:16:00 | 00:00:00 | 00:00:00 | |
| OE5MMP-10 | 2026-09-01 02:08:45 | 48.29621 | 17.54562 | 93° | 31km/h | 18268m | -11.0m/s | -54.5°C | 4.3% | 0hPa | 2.5V | 00:00:00 | 02:08:25 | 00:00:00 | |
| OE3OSB-13 | 2026-09-01 02:08:44 | 48.29622 | 17.54536 | 95° | 33km/h | 18290m | -11.3m/s | -54.6°C | 1.3% | -1.0hPa | 2.6V | 00:00:00 | 00:00:00 | 00:00:00 | |
| DO3MHA-11 | 2026-09-01 02:08:42 | 48.29623 | 17.54523 | 101° | 29km/h | 18301m | -11.0m/s | -54.5°C | 4.4% | 0hPa | 2.6V | 00:00:00 | 02:08:22 | 00:00:00 | |
| OM5KV | 2026-09-01 02:08:41 | 48.29625 | 17.54512 | 104° | 31km/h | 18312m | -11.1m/s | -54.6°C | 1.4% | 0hPa | 2.6V | 08:16:00 | 00:00:00 | 00:00:00 | |
| ATIDSZ-14 | 2026-09-01 02:08:40 | 48.29625 | 17.54512 | 104° | 31km/h | 18312m | -11.1m/s | -54.6°C | 1.4% | 0hPa | 2.6V | 08:16:00 | 00:00:00 | 00:00:00 | |
| S52SK | 2026-09-01 02:08:39 | 48.29626 | 17.54501 | 104° | 31km/h | 18323m | -11.3m/s | -54.6°C | 1.4% | 0hPa | 2.6V | 00:00:00 | 00:00:00 | 00:00:00 | |
| OM5KV | 2026-09-01 02:08:36 | 48.29630 | 17.54467 | 101° | 27km/h | 18357m | -11.2m/s | -54.8°C | 1.5% | 0hPa | 2.6V | 08:17:00 | 00:00:00 | 00:00:00 | |
| OE5MMP-10 | 2026-09-01 02:08:35 | 48.29633 | 17.54447 | 104° | 29km/h | 18380m | -11.3m/s | -54.8°C | 4.5% | 0hPa | 2.6V | 00:00:00 | 02:08:15 | 00:00:00 | |
| OM5KV | 2026-09-01 02:08:34 | 48.29632 | 17.54447 | 104° | 27km/h | 18380m | -11.4m/s | -54.8°C | 1.5% | 0hPa | 2.6V | 08:17:00 | 00:00:00 | 00:00:00 | |
| S52SK | 2026-09-01 02:08:33 | 48.29634 | 17.54437 | 105° | 27km/h | 18391m | -11.8m/s | -54.8°C | 1.5% | 0hPa | 2.6V | 00:00:00 | 00:00:00 | 00:00:00 | |
| DO3MHA-11 | 2026-09-01 02:08:32 | 48.29637 | 17.54416 | 99° | 29km/h | 18414m | -11.5m/s | -54.6°C | 4.5% | 0hPa | 2.6V | 08:16:00 | 02:08:12 | 00:00:00 | |
| OE5DRO-10 | 2026-09-01 02:08:31 | 48.29638 | 17.54406 | 97° | 26km/h | 18426m | -11.4m/s | -54.6°C | 4.5% | 0hPa | 2.5V | 00:00:00 | 00:00:00 | 00:00:00 | |
| PG1ADW-2 | 2026-09-01 02:08:30 | 48.29639 | 17.54395 | 104° | 26km/h | 18437m | -11.6m/s | -54.5°C | 4.5% | 0hPa | 2.5V | 08:16:00 | 00:00:00 | 00:00:00 | |
| OE5DXL-15 | 2026-09-01 02:08:29 | 48.29640 | 17.54385 | 106° | 24km/h | 18449m | -11.6m/s | -54.4°C | 4.5% | 0hPa | 2.5V | 08:16:00 | 00:00:00 | 00:00:00 | |
| OM5KV | 2026-09-01 02:08:27 | 48.29642 | 17.54374 | 104° | 31km/h | 18461m | -11.9m/s | -54.4°C | 1.5% | 0hPa | 2.5V | 08:17:00 | 00:00:00 | 00:00:00 | |
| OE5MMP-10 | 2026-09-01 02:08:25 | 48.29647 | 17.54340 | 101° | 26km/h | 18495m | -10.9m/s | -53.9°C | 4.2% | 0hPa | 2.5V | 00:00:00 | 02:08:05 | 00:00:00 | |
| HA6NAB-11 | 2026-09-01 02:08:24 | 48.29647 | 17.54340 | 101° | 27km/h | 18495m | -11.0m/s | -53.9°C | 1.4% | 0hPa | 2.5V | 00:00:00 | 00:00:00 | 00:00:00 | |
| DO3MHA-11 | 2026-09-01 02:08:22 | 48.29652 | 17.54310 | 106° | 24km/h | 18529m | -11.9m/s | -53.9°C | 4.3% | 0hPa | 2.5V | 00:00:00 | 02:08:02 | 00:00:00 | |
| OE3JTB-15 | 2026-09-01 02:08:21 | 48.29654 | 17.54301 | 103° | 22km/h | 18541m | -11.7m/s | -53.8°C | 4.2% | 0hPa | 2.5V | 00:00:00 | 02:08:01 | 00:00:00 | |
| PETON7-10 | 2026-09-01 02:08:20 | 48.29655 | 17.54290 | 100° | 22km/h | 18553m | -11.5m/s | -53.8°C | 4.2% | 0hPa | 2.5V | 00:00:00 | 02:08:00 | 00:00:00 | |
| HA6NAB-11 | 2026-09-01 02:08:18 | 48.29656 | 17.54281 | 97° | 24km/h | 18564m | -11.2m/s | -53.9°C | 1.4% | 0hPa | 2.5V | 00:00:00 | 00:00:00 | 00:00:00 | |
| OE5MMP-10 | 2026-09-01 02:08:15 | 48.29659 | 17.54245 | 92° | 22km/h | 18610m | -11.7m/s | -53.8°C | 4.2% | 0hPa | 2.5V | 00:00:00 | 02:07:55 | 00:00:00 | |
| OE3OSB-13 | 2026-09-01 02:08:14 | 48.29658 | 17.54228 | 80° | 20km/h | 18633m | -11.1m/s | -53.6°C | 1.2% | -1.0hPa | 2.5V | 00:00:00 | 00:00:00 | 00:00:00 | |
| DO3MHA-11 | 2026-09-01 02:08:12 | 48.29657 | 17.54220 | 81° | 24km/h | 18644m | -11.3m/s | -53.5°C | 4.1% | 0hPa | 2.5V | 00:00:00 | 02:07:52 | 00:00:00 | |
| OE5DRO-10 | 2026-09-01 02:08:11 | 48.29657 | 17.54212 | 84° | 18km/h | 18655m | -11.6m/s | -53.5°C | 4.1% | 0hPa | 2.5V | 00:00:00 | 00:00:00 | 00:00:00 | |
| PG1ADW-2 | 2026-09-01 02:08:10 | 48.29656 | 17.54204 | 80° | 20km/h | 18667m | -11.9m/s | -53.6°C | 4.1% | 0hPa | 2.5V | 00:00:00 | 02:07:50 | 00:00:00 | |
| PETON7-10 | 2026-09-01 02:08:05 | 48.29647 | 17.54168 | 66° | 20km/h | 18726m | -11.5m/s | -53.3°C | 4.0% | 0hPa | 2.5V | 00:00:00 | 00:00:00 | 00:00:00 | |
| OM5KV | 2026-09-01 02:08:04 | 48.29647 | 17.54168 | 67° | 20km/h | 18726m | -11.5m/s | -53.3°C | 1.3% | 0hPa | 2.5V | 08:17:00 | 00:00:00 | 00:00:00 | |
| OE5DXL-15 | 2026-09-01 02:07:59 | 48.29631 | 17.54137 | 46° | 18km/h | 18795m | -12.0m/s | -53.3°C | 4.1% | 0hPa | 2.5V | 00:00:00 | 00:00:00 | 00:00:00 | |
| OE5MMP-10 | 2026-09-01 02:07:55 | 48.29615 | 17.54116 | 37° | 22km/h | 18842m | -11.4m/s | -53.7°C | 4.2% | 0hPa | 2.5V | 00:00:00 | 02:07:35 | 00:00:00 | |
| OM5KV | 2026-09-01 02:07:53 | 48.29610 | 17.54110 | 42° | 22km/h | 18853m | -11.8m/s | -53.9°C | 1.4% | 0hPa | 2.5V | 08:17:00 | 00:00:00 | 00:00:00 | |
| OE3JTB-15 | 2026-09-01 02:07:52 | 48.29602 | 17.54098 | 46° | 18km/h | 18877m | -12.1m/s | -54.0°C | 4.3% | 0hPa | 2.5V | 08:17:00 | 00:00:00 | 00:00:00 | |
| PETON7-10 | 2026-09-01 02:07:50 | 48.29593 | 17.54086 | 40° | 16km/h | 18901m | -11.9m/s | -54.0°C | 4.3% | 0hPa | 2.5V | 00:00:00 | 00:00:00 | 00:00:00 | |
| OM5KV | 2026-09-01 02:07:49 | 48.29593 | 17.54086 | 41° | 24km/h | 18901m | -12.0m/s | -54.1°C | 1.4% | 0hPa | 2.5V | 08:17:00 | 00:00:00 | 00:00:00 | |
| OM5KV | 2026-09-01 02:07:47 | 48.29585 | 17.54074 | 49° | 20km/h | 18924m | -12.0m/s | -53.9°C | 1.4% | 0hPa | 2.5V | 08:18:00 | 00:00:00 | 00:00:00 | |
| OE5DRO-10 | 2026-09-01 02:07:46 | 48.29578 | 17.54061 | 52° | 20km/h | 18949m | -11.7m/s | -53.6°C | 4.1% | 0hPa | 2.5V | 00:00:00 | 00:00:00 | 00:00:00 | |
| OE5MMP-10 | 2026-09-01 02:07:45 | 48.29575 | 17.54056 | 44° | 15km/h | 18960m | -11.5m/s | -53.6°C | 4.1% | 0hPa | 2.5V | 08:17:00 | 02:07:25 | 00:00:00 | |
| OM5KV | 2026-09-01 02:07:43 | 48.29571 | 17.54051 | 48° | 16km/h | 18972m | -11.6m/s | -53.7°C | 1.4% | 0hPa | 2.6V | 08:18:00 | 00:00:00 | 00:00:00 | |
| HA6NAB-11 | 2026-09-01 02:07:42 | 48.29569 | 17.54046 | 51° | 15km/h | 18984m | -11.9m/s | -53.6°C | 1.3% | 0hPa | 2.6V | 00:00:00 | 00:00:00 | 00:00:00 | |
| ATIDSZ-14 | 2026-09-01 02:07:38 | 48.29558 | 17.54032 | 35° | 13km/h | 19030m | -12.1m/s | -53.5°C | 1.3% | 0hPa | 2.6V | 08:18:00 | 00:00:00 | 00:00:00 | |
| OM5KV | 2026-09-01 02:07:37 | 48.29556 | 17.54030 | 34° | 11km/h | 19043m | -12.2m/s | -53.5°C | 1.3% | 0hPa | 2.6V | 08:18:00 | 00:00:00 | 00:00:00 | |
| S52SK | 2026-09-01 02:07:36 | 48.29553 | 17.54027 | 36° | 13km/h | 19055m | -12.3m/s | -53.5°C | 1.3% | 0hPa | 2.6V | 00:00:00 | 00:00:00 | 00:00:00 | |
| PETON7-10 | 2026-09-01 02:07:35 | 48.29547 | 17.54023 | 10° | 18km/h | 19079m | -11.6m/s | -53.4°C | 4.0% | 0hPa | 2.6V | 00:00:00 | 02:07:15 | 00:00:00 | |
| S52SK | 2026-09-01 02:07:32 | 48.29537 | 17.54020 | 14° | 16km/h | 19116m | -12.0m/s | -53.4°C | 1.3% | 0hPa | 2.6V | 00:00:00 | 00:00:00 | 00:00:00 | |
| PG1ADW-2 | 2026-09-01 02:07:30 | 48.29529 | 17.54019 | 4° | 22km/h | 19139m | -12.1m/s | -53.5°C | 4.0% | 0hPa | 2.6V | 00:00:00 | 00:00:00 | 00:00:00 | |
| OE5DXL-15 | 2026-09-01 02:07:29 | 48.29525 | 17.54018 | 8° | 22km/h | 19152m | -12.4m/s | 0°C | 0% | 0hPa | 2.5V | 00:00:00 | 02:07:09 | 00:00:00 | |
| HA6NAB-11 | 2026-09-01 02:07:26 | 48.29515 | 17.54015 | 9° | 20km/h | 19176m | -11.7m/s | -53.8°C | 1.3% | 0hPa | 2.5V | 00:00:00 | 00:00:00 | 00:00:00 | |
| OE5MMP-10 | 2026-09-01 02:07:25 | 48.29505 | 17.54013 | 11° | 20km/h | 19200m | -12.1m/s | -54.0°C | 4.1% | 0hPa | 2.5V | 00:00:00 | 02:07:05 | 00:00:00 | |
| OM5KV | 2026-09-01 02:07:24 | 48.29506 | 17.54013 | 11° | 18km/h | 19200m | -12.2m/s | -54.0°C | 1.3% | 0hPa | 2.5V | 08:18:00 | 00:00:00 | 00:00:00 | |
| HA6NAB-11 | 2026-09-01 02:07:21 | 48.29491 | 17.54007 | 16° | 20km/h | 19237m | -11.7m/s | -54.1°C | 1.4% | 0hPa | 2.5V | 00:00:00 | 00:00:00 | 00:00:00 | |
| PETON7-10 | 2026-09-01 02:07:20 | 48.29482 | 17.54002 | 26° | 24km/h | 19261m | -12.3m/s | -54.0°C | 4.1% | 0hPa | 2.5V | 08:17:00 | 00:00:00 | 00:00:00 | |
| ATIDSZ-14 | 2026-09-01 02:07:17 | 48.29473 | 17.53995 | 25° | 22km/h | 19285m | -11.8m/s | -54.2°C | 1.4% | 0hPa | 2.5V | 08:18:00 | 00:00:00 | 00:00:00 | |
| OE3JTB-15 | 2026-09-01 02:07:16 | 48.29463 | 17.53988 | 30° | 24km/h | 19308m | -12.6m/s | -54.2°C | 4.2% | 0hPa | 2.5V | 00:00:00 | 00:00:00 | 00:00:00 | |
| OE5MMP-10 | 2026-09-01 02:07:15 | 48.29458 | 17.53983 | 33° | 26km/h | 19321m | -12.3m/s | -54.2°C | 4.3% | 0hPa | 2.5V | 00:00:00 | 02:06:55 | 00:00:00 | |
| OM5KV | 2026-09-01 02:07:13 | 48.29453 | 17.53979 | 27° | 26km/h | 19333m | -12.0m/s | -54.3°C | 1.4% | 0hPa | 2.6V | 08:18:00 | 00:00:00 | 00:00:00 | |
| OE3OSB-13 | 2026-09-01 02:07:11 | 48.29430 | 17.53960 | 25° | 27km/h | 19380m | -11.9m/s | -54.4°C | 1.3% | -1.0hPa | 2.6V | 00:00:00 | 00:00:00 | 00:00:00 | |
| PG1ADW-2 | 2026-09-01 02:07:10 | 48.29430 | 17.53960 | 26° | 26km/h | 19380m | -11.8m/s | -54.4°C | 4.3% | 0hPa | 2.6V | 00:00:00 | 00:00:00 | 00:00:00 | |
| OM5KV | 2026-09-01 02:07:07 | 48.29419 | 17.53950 | 34° | 26km/h | 19404m | -12.7m/s | -54.6°C | 1.4% | 0hPa | 2.6V | 08:18:00 | 00:00:00 | 00:00:00 | |
| PETON7-10 | 2026-09-01 02:07:05 | 48.29402 | 17.53936 | 34° | 24km/h | 19442m | -12.2m/s | -54.7°C | 4.4% | 0hPa | 2.6V | 00:00:00 | 00:00:00 | 00:00:00 | |
| GYPAP8-17 | 2026-09-01 02:07:02 | 48.29392 | 17.53925 | 38° | 24km/h | 19467m | -12.1m/s | -54.5°C | 1.4% | 0hPa | 2.6V | 00:00:00 | 00:00:00 | 00:00:00 | |
| OM5KV | 2026-09-01 02:07:01 | 48.29388 | 17.53920 | 33° | 24km/h | 19479m | -12.0m/s | -54.5°C | 1.4% | 0hPa | 2.6V | 08:18:00 | 00:00:00 | 00:00:00 | |
| OE5DXL-15 | 2026-09-01 02:06:59 | 48.29375 | 17.53903 | 47° | 22km/h | 19516m | -12.1m/s | -54.5°C | 4.3% | 0hPa | 2.6V | 00:00:00 | 00:00:00 | 00:00:00 | |
| ATIDSZ-14 | 2026-09-01 02:06:56 | 48.29366 | 17.53890 | 50° | 24km/h | 19540m | -12.4m/s | -54.6°C | 1.4% | 0hPa | 2.6V | 08:19:00 | 00:00:00 | 00:00:00 | |
| OM5KV | 2026-09-01 02:06:55 | 48.29363 | 17.53883 | 55° | 24km/h | 19552m | -12.7m/s | -54.7°C | 1.4% | 0hPa | 2.6V | 08:19:00 | 00:00:00 | 00:00:00 | |
| OE5MMP-10 | 2026-09-01 02:06:51 | 48.29344 | 17.53844 | 57° | 27km/h | 19613m | -12.5m/s | -54.7°C | 4.3% | 0hPa | 2.6V | 00:00:00 | 02:06:31 | 00:00:00 | |
| PETON7-10 | 2026-09-01 02:06:50 | 48.29340 | 17.53835 | 54° | 24km/h | 19626m | -12.3m/s | -54.8°C | 4.3% | 0hPa | 2.6V | 00:00:00 | 02:06:30 | 00:00:00 | |
| OM5KV | 2026-09-01 02:06:45 | 48.29323 | 17.53803 | 49° | 27km/h | 19675m | -12.3m/s | -54.9°C | 1.4% | 0hPa | 2.6V | 08:19:00 | 00:00:00 | 00:00:00 | |
| OE5DRO-10 | 2026-09-01 02:06:42 | 48.29307 | 17.53772 | 47° | 20km/h | 19724m | -12.4m/s | -54.7°C | 4.3% | 0hPa | 2.6V | 00:00:00 | 00:00:00 | 00:00:00 | |
| OE5MMP-10 | 2026-09-01 02:06:41 | 48.29303 | 17.53765 | 53° | 16km/h | 19736m | -12.6m/s | -54.7°C | 4.3% | 0hPa | 2.6V | 00:00:00 | 02:06:21 | 00:00:00 | |
| OE3OSB-13 | 2026-09-01 02:06:40 | 48.29296 | 17.53752 | 50° | 20km/h | 19762m | -12.5m/s | -54.8°C | 1.3% | -1.0hPa | 2.6V | 00:00:00 | 00:00:00 | 00:00:00 | |
| OM5KV | 2026-09-01 02:06:38 | 48.29296 | 17.53752 | 52° | 22km/h | 19762m | -12.5m/s | -54.8°C | 1.4% | 0hPa | 2.6V | 08:19:00 | 00:00:00 | 00:00:00 | |
| PETON7-10 | 2026-09-01 02:06:35 | 48.29284 | 17.53732 | 46° | 18km/h | 19812m | -12.5m/s | -55.1°C | 4.5% | 0hPa | 2.6V | 00:00:00 | 00:00:00 | 00:00:00 | |
| OM5KV | 2026-09-01 02:06:34 | 48.29284 | 17.53732 | 46° | 15km/h | 19812m | -12.5m/s | -55.1°C | 1.5% | 0hPa | 2.6V | 08:19:00 | 00:00:00 | 00:00:00 | |
| OE5MMP-10 | 2026-09-01 02:06:31 | 48.29275 | 17.53718 | 48° | 20km/h | 19862m | -12.7m/s | -55.4°C | 4.7% | 0hPa | 2.6V | 00:00:00 | 02:06:11 | 00:00:00 | |
| PG1ADW-2 | 2026-09-01 02:06:30 | 48.29272 | 17.53714 | 39° | 20km/h | 19875m | -12.5m/s | -55.4°C | 4.7% | 0hPa | 2.6V | 00:00:00 | 00:00:00 | 00:00:00 | |
| OE5DXL-15 | 2026-09-01 02:06:29 | 48.29269 | 17.53710 | 43° | 20km/h | 19887m | -12.2m/s | -55.5°C | 4.7% | 0hPa | 2.6V | 00:00:00 | 00:00:00 | 00:00:00 | |
| OM5KV | 2026-09-01 02:06:28 | 48.29269 | 17.53710 | 44° | 16km/h | 19887m | -12.3m/s | -55.5°C | 1.5% | 0hPa | 2.6V | 08:19:00 | 00:00:00 | 00:00:00 | |
| OM5KV | 2026-09-01 02:06:27 | 48.29266 | 17.53705 | 55° | 16km/h | 19899m | -12.7m/s | -55.6°C | 1.6% | 0hPa | 2.6V | 08:19:00 | 00:00:00 | 00:00:00 | |
| S52SK | 2026-09-01 02:06:24 | 48.29258 | 17.53687 | 51° | 22km/h | 19936m | -12.0m/s | -55.6°C | 1.5% | 0hPa | 2.6V | 00:00:00 | 00:00:00 | 00:00:00 | |
| HA6NAB-11 | 2026-09-01 02:06:23 | 48.29255 | 17.53680 | 61° | 22km/h | 19948m | -12.8m/s | -55.4°C | 1.5% | 0hPa | 2.6V | 00:00:00 | 00:00:00 | 00:00:00 | |
| OE5DRO-10 | 2026-09-01 02:06:22 | 48.29248 | 17.53664 | 57° | 20km/h | 19974m | -12.9m/s | -54.9°C | 4.5% | 0hPa | 2.6V | 00:00:00 | 00:00:00 | 00:00:00 | |
| OE5MMP-10 | 2026-09-01 02:06:21 | 48.29244 | 17.53655 | 58° | 20km/h | 19987m | -12.9m/s | -54.9°C | 4.6% | 0hPa | 2.6V | 00:00:00 | 02:06:01 | 00:00:00 | |
| PETON7-10 | 2026-09-01 02:06:20 | 48.29241 | 17.53647 | 63° | 20km/h | 20000m | -13.0m/s | -54.9°C | 4.5% | 0hPa | 2.6V | 00:00:00 | 00:00:00 | 00:00:00 | |
| S52SK | 2026-09-01 02:06:18 | 48.29238 | 17.53640 | 63° | 24km/h | 20013m | -12.9m/s | -55.0°C | 1.4% | 0hPa | 2.6V | 00:00:00 | 00:00:00 | 00:00:00 | |
| GYPAP8-17 | 2026-09-01 02:06:15 | 48.29230 | 17.53619 | 61° | 20km/h | 20053m | -13.1m/s | -54.8°C | 1.5% | 0hPa | 2.6V | 00:00:00 | 00:00:00 | 00:00:00 | |
| OM5KV | 2026-09-01 02:06:14 | 48.29227 | 17.53612 | 54° | 20km/h | 20067m | -12.8m/s | -54.7°C | 1.4% | 0hPa | 2.6V | 08:19:00 | 00:00:00 | 00:00:00 | |
| HA6NAB-11 | 2026-09-01 02:06:13 | 48.29221 | 17.53601 | 57° | 16km/h | 20093m | -12.9m/s | -54.5°C | 1.4% | 0hPa | 2.6V | 00:00:00 | 00:00:00 | 00:00:00 | |
| OE5MMP-10 | 2026-09-01 02:06:11 | 48.29216 | 17.53590 | 45° | 20km/h | 20119m | -12.7m/s | -54.3°C | 4.4% | 0hPa | 2.6V | 08:19:00 | 02:05:51 | 00:00:00 | |
| PG1ADW-2 | 2026-09-01 02:06:10 | 48.29213 | 17.53586 | 53° | 22km/h | 20132m | -12.9m/s | -54.2°C | 4.3% | 0hPa | 2.5V | 00:00:00 | 00:00:00 | 00:00:00 | |
| OM5KV | 2026-09-01 02:06:08 | 48.29210 | 17.53581 | 58° | 18km/h | 20145m | -13.4m/s | -54.2°C | 1.4% | 0hPa | 2.5V | 08:19:00 | 00:00:00 | 00:00:00 | |
| PETON7-10 | 2026-09-01 02:06:05 | 48.29201 | 17.53558 | 63° | 24km/h | 20198m | -13.1m/s | -54.2°C | 4.3% | 0hPa | 2.5V | 00:00:00 | 02:05:45 | 00:00:00 | |
| OE5DRO-10 | 2026-09-01 02:06:03 | 48.29195 | 17.53543 | 70° | 22km/h | 20223m | -13.3m/s | -54.2°C | 4.3% | 0hPa | 2.5V | 00:00:00 | 00:00:00 | 00:00:00 | |
| OM5KV | 2026-09-01 02:06:02 | 48.29195 | 17.53543 | 71° | 22km/h | 20223m | -13.3m/s | -54.3°C | 1.4% | 0hPa | 2.5V | 08:19:00 | 00:00:00 | 00:00:00 | |
| OE5MMP-10 | 2026-09-01 02:06:01 | 48.29191 | 17.53525 | 66° | 26km/h | 20250m | -13.2m/s | -54.3°C | 4.4% | 0hPa | 2.5V | 00:00:00 | 02:05:41 | 00:00:00 | |
| OE5DXL-15 | 2026-09-01 02:05:59 | 48.29186 | 17.53507 | 74° | 13km/h | 20277m | -13.4m/s | -54.4°C | 4.4% | 0hPa | 2.5V | 00:00:00 | 00:00:00 | 00:00:00 | |
| DO3MHA-11 | 2026-09-01 02:05:58 | 48.29184 | 17.53497 | 72° | 18km/h | 20290m | -13.3m/s | -54.3°C | 4.3% | 0hPa | 2.5V | 00:00:00 | 02:05:38 | 00:00:00 | |
| OM5KV | 2026-09-01 02:05:56 | 48.29182 | 17.53488 | 78° | 26km/h | 20304m | -13.4m/s | -54.3°C | 1.4% | 0hPa | 2.5V | 08:19:00 | 00:00:00 | 00:00:00 | |
| ATIDSZ-14 | 2026-09-01 02:05:53 | 48.29179 | 17.53459 | 77° | 24km/h | 20344m | -13.4m/s | -54.1°C | 1.4% | 0hPa | 2.5V | 08:19:00 | 00:00:00 | 00:00:00 | |
| OE5MMP-10 | 2026-09-01 02:05:51 | 48.29177 | 17.53434 | 83° | 11km/h | 20384m | -13.1m/s | -54.1°C | 4.2% | 0hPa | 2.5V | 00:00:00 | 02:05:31 | 00:00:00 | |
| PETON7-10 | 2026-09-01 02:05:50 | 48.29176 | 17.53427 | 79° | 9km/h | 20397m | -13.0m/s | -54.1°C | 4.3% | 0hPa | 2.5V | 00:00:00 | 00:00:00 | 00:00:00 | |
| OM5KV | 2026-09-01 02:05:49 | 48.29176 | 17.53427 | 79° | 16km/h | 20397m | -13.0m/s | -54.2°C | 1.4% | 0hPa | 2.6V | 08:19:00 | 00:00:00 | 00:00:00 | |
| OE5DRO-10 | 2026-09-01 02:05:44 | 48.29174 | 17.53400 | 60° | 7km/h | 20477m | -13.3m/s | -54.0°C | 4.2% | 0hPa | 2.6V | 00:00:00 | 00:00:00 | 00:00:00 | |
| OE3JTB-15 | 2026-09-01 02:05:42 | 48.29173 | 17.53395 | 67° | 13km/h | 20503m | -13.7m/s | -54.1°C | 4.2% | 0hPa | 2.6V | 00:00:00 | 00:00:00 | 00:00:00 | |
| OE5MMP-10 | 2026-09-01 02:05:41 | 48.29172 | 17.53394 | 23° | 5km/h | 20517m | -13.1m/s | -54.1°C | 4.2% | 0hPa | 2.6V | 00:00:00 | 02:05:21 | 00:00:00 | |
| OM5KV | 2026-09-01 02:05:40 | 48.29172 | 17.53394 | 24° | 5km/h | 20517m | -13.2m/s | -54.2°C | 1.4% | 0hPa | 2.6V | 08:19:00 | 00:00:00 | 00:00:00 | |
| HA6NAB-11 | 2026-09-01 02:05:38 | 48.29171 | 17.53393 | 39° | 4km/h | 20543m | -14.3m/s | -54.2°C | 1.4% | 0hPa | 2.6V | 08:19:00 | 00:00:00 | 00:00:00 | |
| OE3OSB-13 | 2026-09-01 02:05:37 | 48.29168 | 17.53393 | 337° | 4km/h | 20571m | -13.7m/s | -54.3°C | 1.2% | -1.0hPa | 2.6V | 00:00:00 | 00:00:00 | 00:00:00 | |
| PETON7-10 | 2026-09-01 02:05:35 | 48.29165 | 17.53393 | 340° | 13km/h | 20599m | -13.4m/s | -54.3°C | 4.3% | 0hPa | 2.6V | 00:00:00 | 00:00:00 | 00:00:00 | |
| OM5KV | 2026-09-01 02:05:34 | 48.29165 | 17.53393 | 340° | 9km/h | 20599m | -13.4m/s | -54.4°C | 1.4% | 0hPa | 2.6V | 08:19:00 | 00:00:00 | 00:00:00 | |
| ATIDSZ-14 | 2026-09-01 02:05:33 | 48.29164 | 17.53395 | 332° | 7km/h | 20612m | -13.7m/s | -54.4°C | 1.4% | 0hPa | 2.6V | 08:19:00 | 00:00:00 | 00:00:00 | |
| HA6NAB-11 | 2026-09-01 02:05:32 | 48.29162 | 17.53395 | 350° | 7km/h | 20626m | -14.0m/s | -54.5°C | 1.4% | 0hPa | 2.6V | 08:19:00 | 00:00:00 | 00:00:00 | |
| OE5MMP-10 | 2026-09-01 02:05:31 | 48.29157 | 17.53397 | 341° | 15km/h | 20653m | -13.9m/s | -54.7°C | 4.4% | 0hPa | 2.6V | 00:00:00 | 02:05:11 | 00:00:00 | |
| PG1ADW-2 | 2026-09-01 02:05:30 | 48.29155 | 17.53398 | 1° | 18km/h | 20667m | -13.9m/s | -54.7°C | 4.5% | 0hPa | 2.6V | 08:19:00 | 02:05:10 | 00:00:00 | |
| OE5DXL-15 | 2026-09-01 02:05:29 | 48.29152 | 17.53398 | 358° | 18km/h | 20681m | -13.5m/s | -54.8°C | 4.5% | 0hPa | 2.6V | 00:00:00 | 00:00:00 | 00:00:00 | |
| OM5KV | 2026-09-01 02:05:28 | 48.29152 | 17.53398 | 359° | 13km/h | 20681m | -13.5m/s | -54.9°C | 1.5% | 0hPa | 2.6V | 08:19:00 | 00:00:00 | 00:00:00 | |
| HA6NAB-11 | 2026-09-01 02:05:26 | 48.29146 | 17.53398 | 15° | 13km/h | 20708m | -14.0m/s | -55.0°C | 1.5% | 0hPa | 2.6V | 08:19:00 | 00:00:00 | 00:00:00 | |
| OE5DRO-10 | 2026-09-01 02:05:25 | 48.29138 | 17.53395 | 15° | 20km/h | 20736m | -13.5m/s | -55.0°C | 4.6% | 0hPa | 2.6V | 00:00:00 | 00:00:00 | 00:00:00 | |
| OE5MMP-10 | 2026-09-01 02:05:21 | 48.29123 | 17.53383 | 41° | 22km/h | 20791m | -14.2m/s | -54.9°C | 4.6% | 0hPa | 2.6V | 00:00:00 | 02:05:01 | 00:00:00 | |
| PETON7-10 | 2026-09-01 02:05:20 | 48.29119 | 17.53379 | 36° | 22km/h | 20805m | -13.5m/s | -54.7°C | 4.5% | 0hPa | 2.6V | 00:00:00 | 02:05:00 | 00:00:00 | |
| S52SK | 2026-09-01 02:05:18 | 48.29116 | 17.53374 | 45° | 18km/h | 20819m | -13.6m/s | -54.8°C | 1.4% | 0hPa | 2.6V | 08:19:00 | 00:00:00 | 00:00:00 | |
| OM5KV | 2026-09-01 02:05:17 | 48.29112 | 17.53368 | 51° | 22km/h | 20832m | -13.9m/s | -54.8°C | 1.5% | 0hPa | 2.6V | 08:19:00 | 00:00:00 | 00:00:00 | |
| OM5KV | 2026-09-01 02:05:15 | 48.29105 | 17.53356 | 57° | 20km/h | 20859m | -13.9m/s | -54.9°C | 1.5% | 0hPa | 2.6V | 08:20:00 | 00:00:00 | 00:00:00 | |
| OE3JTB-15 | 2026-09-01 02:05:13 | 48.29095 | 17.53334 | 60° | 13km/h | 20900m | -13.7m/s | -54.3°C | 4.4% | 0hPa | 2.6V | 00:00:00 | 02:04:53 | 00:00:00 | |
| S52SK | 2026-09-01 02:05:12 | 48.29095 | 17.53334 | 61° | 22km/h | 20900m | -13.7m/s | -54.4°C | 1.4% | 0hPa | 2.6V | 00:00:00 | 00:00:00 | 00:00:00 | |
| OE5MMP-10 | 2026-09-01 02:05:11 | 48.29089 | 17.53319 | 56° | 20km/h | 20928m | -13.6m/s | -54.1°C | 4.3% | 0hPa | 2.6V | 00:00:00 | 02:04:51 | 00:00:00 | |
| PG1ADW-2 | 2026-09-01 02:05:10 | 48.29086 | 17.53312 | 52° | 16km/h | 20941m | -13.8m/s | -54.1°C | 4.3% | 0hPa | 2.6V | 00:00:00 | 00:00:00 | 00:00:00 | |
| OM5KV | 2026-09-01 02:05:09 | 48.29086 | 17.53312 | 53° | 22km/h | 20941m | -13.9m/s | -54.1°C | 1.4% | 0hPa | 2.6V | 08:20:00 | 00:00:00 | 00:00:00 | |
| OE5DRO-10 | 2026-09-01 02:05:06 | 48.29074 | 17.53286 | 62° | 13km/h | 20997m | -14.1m/s | -53.8°C | 4.2% | 0hPa | 2.6V | 08:20:00 | 00:00:00 | 00:00:00 | |
| PETON7-10 | 2026-09-01 02:05:05 | 48.29072 | 17.53280 | 60° | 15km/h | 21011m | -13.8m/s | -53.8°C | 4.2% | 0hPa | 2.6V | 08:20:00 | 00:00:00 | 00:00:00 | |
| OM5KV | 2026-09-01 02:05:04 | 48.29072 | 17.53280 | 60° | 18km/h | 21011m | -13.9m/s | -53.8°C | 1.4% | 0hPa | 2.6V | 08:20:00 | 00:00:00 | 00:00:00 | |
| OE5MMP-10 | 2026-09-01 02:05:01 | 48.29065 | 17.53258 | 71° | 13km/h | 21067m | -13.7m/s | -53.8°C | 4.2% | 0hPa | 2.6V | 00:00:00 | 02:04:41 | 00:00:00 | |
| OE5DXL-15 | 2026-09-01 02:04:59 | 48.29065 | 17.53248 | 91° | 11km/h | 21096m | -14.2m/s | -53.8°C | 4.2% | 0hPa | 2.6V | 00:00:00 | 00:00:00 | 00:00:00 | |
| OM5KV | 2026-09-01 02:04:57 | 48.29064 | 17.53242 | 87° | 15km/h | 21110m | -13.7m/s | -53.9°C | 1.3% | 0hPa | 2.6V | 08:20:00 | 00:00:00 | 00:00:00 | |
| ATIDSZ-14 | 2026-09-01 02:04:52 | 48.29066 | 17.53217 | 91° | 15km/h | 21180m | -14.5m/s | -54.2°C | 1.4% | 0hPa | 2.6V | 08:20:00 | 00:00:00 | 00:00:00 | |
| OE5MMP-10 | 2026-09-01 02:04:51 | 48.29065 | 17.53208 | 82° | 9km/h | 21208m | -14.4m/s | -54.3°C | 4.5% | 0hPa | 2.6V | 00:00:00 | 02:04:31 | 00:00:00 | |
| PETON7-10 | 2026-09-01 02:04:50 | 48.29065 | 17.53205 | 76° | 9km/h | 21222m | -14.6m/s | -54.4°C | 4.5% | 0hPa | 2.6V | 00:00:00 | 00:00:00 | 00:00:00 | |
| GYPAP8-17 | 2026-09-01 02:04:49 | 48.29065 | 17.53205 | 76° | 11km/h | 21222m | -14.6m/s | -54.4°C | 1.4% | 0hPa | 2.6V | 00:00:00 | 00:00:00 | 00:00:00 | |
| OE5DRO-10 | 2026-09-01 02:04:47 | 48.29062 | 17.53196 | 65° | 11km/h | 21265m | -14.3m/s | -54.4°C | 4.5% | 0hPa | 2.6V | 00:00:00 | 00:00:00 | 00:00:00 | |
| OM5KV | 2026-09-01 02:04:45 | 48.29061 | 17.53193 | 50° | 7km/h | 21279m | -13.8m/s | -54.5°C | 1.4% | 0hPa | 2.6V | 08:20:00 | 00:00:00 | 00:00:00 | |
| OE5MMP-10 | 2026-09-01 02:04:41 | 48.29058 | 17.53177 | 67° | 11km/h | 21350m | -14.2m/s | -54.2°C | 4.6% | 0hPa | 2.6V | 08:20:00 | 02:04:21 | 00:00:00 | |
| OM5KV | 2026-09-01 02:04:40 | 48.29058 | 17.53177 | 68° | 11km/h | 21350m | -14.2m/s | -54.2°C | 1.4% | 0hPa | 2.6V | 08:20:00 | 00:00:00 | 00:00:00 | |
| OE3JTB-15 | 2026-09-01 02:04:36 | 48.29053 | 17.53160 | 63° | 11km/h | 21423m | -15.0m/s | -53.6°C | 4.3% | 0hPa | 2.6V | 00:00:00 | 00:00:00 | 00:00:00 | |
| PETON7-10 | 2026-09-01 02:04:35 | 48.29051 | 17.53156 | 42° | 13km/h | 21438m | -14.5m/s | -53.5°C | 4.3% | 0hPa | 2.6V | 00:00:00 | 02:04:15 | 00:00:00 | |
| OM5KV | 2026-09-01 02:04:34 | 48.29051 | 17.53156 | 43° | 11km/h | 21438m | -14.5m/s | -53.6°C | 1.4% | 0hPa | 2.6V | 08:20:00 | 00:00:00 | 00:00:00 | |
| HA6NAB-11 | 2026-09-01 02:04:33 | 48.29050 | 17.53153 | 54° | 9km/h | 21453m | -14.9m/s | -53.5°C | 1.3% | 0hPa | 2.6V | 08:20:00 | 00:00:00 | 00:00:00 | |
| ATIDSZ-14 | 2026-09-01 02:04:32 | 48.29048 | 17.53150 | 53° | 13km/h | 21468m | -15.0m/s | -53.4°C | 1.3% | 0hPa | 2.6V | 08:20:00 | 00:00:00 | 00:00:00 | |
| OE5MMP-10 | 2026-09-01 02:04:31 | 48.29044 | 17.53143 | 56° | 15km/h | 21496m | -15.2m/s | -53.3°C | 4.2% | 0hPa | 2.6V | 00:00:00 | 02:04:11 | 00:00:00 | |
| PG1ADW-2 | 2026-09-01 02:04:30 | 48.29042 | 17.53139 | 52° | 13km/h | 21512m | -14.9m/s | -53.3°C | 4.2% | 0hPa | 2.6V | 00:00:00 | 00:00:00 | 00:00:00 | |
| OE5DXL-15 | 2026-09-01 02:04:29 | 48.29040 | 17.53135 | 52° | 13km/h | 21527m | -14.9m/s | -53.2°C | 4.2% | 0hPa | 2.5V | 00:00:00 | 00:00:00 | 00:00:00 | |
| OE5DRO-10 | 2026-09-01 02:04:28 | 48.29038 | 17.53131 | 66° | 13km/h | 21542m | -15.6m/s | -53.2°C | 4.2% | 0hPa | 2.5V | 00:00:00 | 00:00:00 | 00:00:00 | |
| HA6NAB-11 | 2026-09-01 02:04:27 | 48.29038 | 17.53131 | 66° | 15km/h | 21542m | -15.6m/s | -53.2°C | 1.3% | 0hPa | 2.5V | 08:20:00 | 00:00:00 | 00:00:00 | |
| OM5KV | 2026-09-01 02:04:24 | 48.29036 | 17.53111 | 94° | 15km/h | 21601m | -14.7m/s | -52.8°C | 1.3% | 0hPa | 2.5V | 08:21:00 | 00:00:00 | 00:00:00 | |
| OE5MMP-10 | 2026-09-01 02:04:21 | 48.29040 | 17.53092 | 111° | 13km/h | 21646m | -14.2m/s | -52.7°C | 4.0% | 0hPa | 2.5V | 00:00:00 | 02:04:01 | 00:00:00 | |
| PETON7-10 | 2026-09-01 02:04:20 | 48.29042 | 17.53087 | 124° | 11km/h | 21659m | -15.0m/s | -52.7°C | 4.0% | 0hPa | 2.5V | 00:00:00 | 00:00:00 | 00:00:00 | |
| OM5KV | 2026-09-01 02:04:19 | 48.29042 | 17.53087 | 124° | 18km/h | 21659m | -15.1m/s | -52.8°C | 1.2% | 0hPa | 2.5V | 08:21:00 | 00:00:00 | 00:00:00 | |
| OM5KV | 2026-09-01 02:04:17 | 48.29046 | 17.53075 | 116° | 13km/h | 21689m | -14.6m/s | -52.9°C | 1.3% | 0hPa | 2.5V | 08:21:00 | 00:00:00 | 00:00:00 | |
| HA6NAB-11 | 2026-09-01 02:04:16 | 48.29048 | 17.53071 | 127° | 15km/h | 21703m | -15.4m/s | -52.9°C | 1.3% | 0hPa | 2.5V | 00:00:00 | 00:00:00 | 00:00:00 | |
| OM5KV | 2026-09-01 02:04:13 | 48.29052 | 17.53059 | 130° | 11km/h | 21749m | -15.2m/s | -52.8°C | 1.2% | 0hPa | 2.5V | 08:21:00 | 00:00:00 | 00:00:00 | |
| OM5KV | 2026-09-01 02:04:12 | 48.29053 | 17.53056 | 115° | 11km/h | 21764m | -15.4m/s | -52.5°C | 1.2% | 0hPa | 2.5V | 08:21:00 | 00:00:00 | 00:00:00 | |
| OE5MMP-10 | 2026-09-01 02:04:11 | 48.29055 | 17.53050 | 124° | 11km/h | 21795m | -15.4m/s | -52.6°C | 4.0% | 0hPa | 2.5V | 00:00:00 | 02:03:51 | 00:00:00 | |
| PG1ADW-2 | 2026-09-01 02:04:10 | 48.29056 | 17.53047 | 125° | 11km/h | 21810m | -15.1m/s | -52.6°C | 4.0% | 0hPa | 2.5V | 00:00:00 | 02:03:50 | 00:00:00 | |
| OE5DRO-10 | 2026-09-01 02:04:09 | 48.29058 | 17.53045 | 141° | 11km/h | 21825m | -15.5m/s | -52.6°C | 4.0% | 0hPa | 2.5V | 00:00:00 | 00:00:00 | 00:00:00 | |
| OM5KV | 2026-09-01 02:04:07 | 48.29060 | 17.53043 | 132° | 9km/h | 21840m | -15.4m/s | -52.7°C | 1.3% | 0hPa | 2.6V | 08:21:00 | 00:00:00 | 00:00:00 | |
| S52SK | 2026-09-01 02:04:06 | 48.29062 | 17.53040 | 144° | 13km/h | 21855m | -15.3m/s | -52.7°C | 1.2% | 0hPa | 2.6V | 00:00:00 | 00:00:00 | 00:00:00 | |
| PETON7-10 | 2026-09-01 02:04:05 | 48.29067 | 17.53033 | 132° | 11km/h | 21885m | -15.2m/s | -52.6°C | 4.0% | 0hPa | 2.6V | 00:00:00 | 00:00:00 | 00:00:00 | |
| OE3JTB-15 | 2026-09-01 02:04:04 | 48.29069 | 17.53029 | 132° | 9km/h | 21900m | -15.6m/s | -52.6°C | 4.0% | 0hPa | 2.6V | 00:00:00 | 00:00:00 | 00:00:00 | |
| OM5KV | 2026-09-01 02:04:02 | 48.29071 | 17.53024 | 123° | 15km/h | 21916m | -15.2m/s | -52.6°C | 1.2% | 0hPa | 2.6V | 08:21:00 | 00:00:00 | 00:00:00 | |
| OE5MMP-10 | 2026-09-01 02:04:01 | 48.29076 | 17.53016 | 129° | 11km/h | 21946m | -15.6m/s | -52.7°C | 4.0% | 0hPa | 2.6V | 00:00:00 | 02:03:41 | 00:00:00 | |
| SQ9EZE-14 | 2026-09-01 02:03:58 | 48.29080 | 17.53008 | 136° | 13km/h | 21976m | -15.6m/s | 0°C | 0% | 0hPa | 2.6V | 08:21:00 | 00:00:00 | 00:00:00 | |
| OE5DXL-15 | 2026-09-01 02:03:55 | 48.29088 | 17.52996 | 142° | 9km/h | 22039m | -15.8m/s | -52.8°C | 4.0% | 0hPa | 2.6V | 08:21:00 | 00:00:00 | 00:00:00 | |
| OM5KV | 2026-09-01 02:03:54 | 48.29088 | 17.52996 | 143° | 9km/h | 22039m | -15.8m/s | -52.9°C | 1.3% | 0hPa | 2.5V | 08:21:00 | 00:00:00 | 00:00:00 | |
| OE5MMP-10 | 2026-09-01 02:03:51 | 48.29095 | 17.52993 | 175° | 7km/h | 22104m | -16.3m/s | -52.8°C | 4.0% | 0hPa | 2.5V | 00:00:00 | 02:03:31 | 00:00:00 | |
| PETON7-10 | 2026-09-01 02:03:50 | 48.29097 | 17.52994 | 212° | 7km/h | 22121m | -16.4m/s | -52.8°C | 4.0% | 0hPa | 2.5V | 00:00:00 | 02:03:30 | 00:00:00 | |
| OM5KV | 2026-09-01 02:03:48 | 48.29098 | 17.52996 | 256° | 5km/h | 22138m | -16.1m/s | -53.0°C | 1.2% | 0hPa | 2.5V | 08:21:00 | 00:00:00 | 00:00:00 | |
| GYPAP8-17 | 2026-09-01 02:03:44 | 48.29099 | 17.53006 | 267° | 9km/h | 22202m | -16.1m/s | -53.3°C | 1.3% | 0hPa | 2.5V | 00:00:00 | 00:00:00 | 00:00:00 | |
| SQ9EZE-14 | 2026-09-01 02:03:42 | 48.29097 | 17.53012 | 291° | 7km/h | 22234m | -16.3m/s | 0°C | 0% | 0hPa | 2.5V | 08:21:00 | 00:00:00 | 00:00:00 | |
| OE5MMP-10 | 2026-09-01 02:03:41 | 48.29096 | 17.53019 | 301° | 7km/h | 22266m | -15.8m/s | -53.4°C | 4.1% | 0hPa | 2.5V | 00:00:00 | 02:03:21 | 00:00:00 | |
| OM5KV | 2026-09-01 02:03:39 | 48.29095 | 17.53022 | 293° | 7km/h | 22282m | -16.5m/s | -53.4°C | 1.3% | 0hPa | 2.5V | 08:21:00 | 00:00:00 | 00:00:00 | |
| OM5KV | 2026-09-01 02:03:37 | 48.29093 | 17.53027 | 326° | 5km/h | 22315m | -16.4m/s | -53.4°C | 1.3% | 0hPa | 2.5V | 08:21:00 | 00:00:00 | 00:00:00 | |
| PETON7-10 | 2026-09-01 02:03:35 | 48.29089 | 17.53030 | 334° | 15km/h | 22366m | -16.5m/s | -53.7°C | 4.2% | 0hPa | 2.5V | 00:00:00 | 00:00:00 | 00:00:00 | |
| OE3OSB-13 | 2026-09-01 02:03:33 | 48.29085 | 17.53032 | 342° | 7km/h | 22399m | -16.1m/s | -53.8°C | 1.2% | -1.0hPa | 2.5V | 00:00:00 | 00:00:00 | 00:00:00 | |
| OE5MMP-10 | 2026-09-01 02:03:31 | 48.29079 | 17.53033 | 351° | 18km/h | 22431m | -16.3m/s | -53.9°C | 4.3% | 0hPa | 2.5V | 00:00:00 | 02:03:11 | 00:00:00 | |
| PG1ADW-2 | 2026-09-01 02:03:30 | 48.29075 | 17.53033 | 2° | 16km/h | 22447m | -16.1m/s | -54.0°C | 4.3% | 0hPa | 2.5V | 00:00:00 | 00:00:00 | 00:00:00 | |
| HA6NAB-11 | 2026-09-01 02:03:29 | 48.29075 | 17.53033 | 2° | 16km/h | 22447m | -16.2m/s | -54.0°C | 1.3% | 0hPa | 2.5V | 00:00:00 | 00:00:00 | 00:00:00 | |
| OM5KV | 2026-09-01 02:03:27 | 48.29067 | 17.53034 | 6° | 18km/h | 22479m | -16.5m/s | -54.0°C | 1.3% | 0hPa | 2.5V | 08:22:00 | 00:00:00 | 00:00:00 | |
| SQ9EZE-14 | 2026-09-01 02:03:26 | 48.29062 | 17.53034 | 359° | 20km/h | 22495m | -16.0m/s | 0°C | 0% | 0hPa | 2.5V | 00:00:00 | 00:00:00 | 00:00:00 | |
| OE5DXL-15 | 2026-09-01 02:03:25 | 48.29053 | 17.53032 | 4° | 13km/h | 22528m | -16.0m/s | -53.9°C | 4.3% | 0hPa | 2.5V | 00:00:00 | 00:00:00 | 00:00:00 | |
| HA6NAB-11 | 2026-09-01 02:03:23 | 48.29048 | 17.53032 | 7° | 18km/h | 22544m | -16.3m/s | -53.9°C | 1.3% | 0hPa | 2.5V | 00:00:00 | 00:00:00 | 00:00:00 | |
| OE5MMP-10 | 2026-09-01 02:03:21 | 48.29035 | 17.53027 | 30° | 16km/h | 22593m | -17.0m/s | -53.8°C | 4.3% | 0hPa | 2.5V | 00:00:00 | 02:03:01 | 00:00:00 | |
| PETON7-10 | 2026-09-01 02:03:20 | 48.29032 | 17.53023 | 31° | 15km/h | 22610m | -16.4m/s | -53.7°C | 4.2% | 0hPa | 2.5V | 00:00:00 | 00:00:00 | 00:00:00 | |
| OM5KV | 2026-09-01 02:03:19 | 48.29032 | 17.53023 | 31° | 16km/h | 22610m | -16.5m/s | -53.8°C | 1.3% | 0hPa | 2.5V | 08:22:00 | 00:00:00 | 00:00:00 | |
| HA6NAB-11 | 2026-09-01 02:03:17 | 48.29025 | 17.53016 | 50° | 16km/h | 22642m | -16.9m/s | -53.7°C | 1.3% | 0hPa | 2.5V | 00:00:00 | 00:00:00 | 00:00:00 | |
| OM5KV | 2026-09-01 02:03:15 | 48.29020 | 17.53007 | 55° | 15km/h | 22675m | -16.4m/s | -53.8°C | 1.3% | 0hPa | 2.5V | 08:22:00 | 00:00:00 | 00:00:00 | |
| OK1ALN | 2026-09-01 02:03:14 | 48.29018 | 17.53002 | 57° | 16km/h | 22691m | -16.6m/s | -53.8°C | 1.3% | 0hPa | 2.5V | 08:22:00 | 00:00:00 | 00:00:00 | |
| OM5KV | 2026-09-01 02:03:13 | 48.29016 | 17.52997 | 47° | 15km/h | 22708m | -16.2m/s | -53.9°C | 1.3% | 0hPa | 2.5V | 08:22:00 | 00:00:00 | 00:00:00 | |
| OE5MMP-10 | 2026-09-01 02:03:11 | 48.29009 | 17.52984 | 47° | 11km/h | 22757m | -16.2m/s | -53.9°C | 4.2% | 0hPa | 2.5V | 08:22:00 | 02:02:51 | 00:00:00 | |
| PG1ADW-2 | 2026-09-01 02:03:10 | 48.29007 | 17.52980 | 56° | 9km/h | 22773m | -16.5m/s | -54.0°C | 4.2% | 0hPa | 2.5V | 00:00:00 | 00:00:00 | 00:00:00 | |
| ATIDSZ-14 | 2026-09-01 02:03:09 | 48.29007 | 17.52980 | 56° | 15km/h | 22773m | -16.6m/s | -54.0°C | 1.3% | 0hPa | 2.5V | 08:22:00 | 00:00:00 | 00:00:00 | |
| OM5KV | 2026-09-01 02:03:08 | 48.29005 | 17.52975 | 44° | 13km/h | 22789m | -15.9m/s | -54.0°C | 1.3% | 0hPa | 2.5V | 08:22:00 | 00:00:00 | 00:00:00 | |
| DO3MHA-11 | 2026-09-01 02:03:06 | 48.29000 | 17.52966 | 68° | 7km/h | 22838m | -16.5m/s | -53.9°C | 4.2% | 0hPa | 2.5V | 00:00:00 | 02:02:46 | 00:00:00 | |
| PETON7-10 | 2026-09-01 02:03:05 | 48.29000 | 17.52962 | 79° | 7km/h | 22854m | -16.7m/s | -54.0°C | 4.2% | 0hPa | 2.5V | 00:00:00 | 02:02:45 | 00:00:00 | |
| S52SK | 2026-09-01 02:03:04 | 48.29000 | 17.52962 | 79° | 9km/h | 22854m | -16.7m/s | -54.0°C | 1.3% | 0hPa | 2.5V | 00:00:00 | 00:00:00 | 00:00:00 | |
| OM5KV | 2026-09-01 02:03:03 | 48.28999 | 17.52959 | 75° | 7km/h | 22871m | -16.4m/s | -54.0°C | 1.3% | 0hPa | 2.5V | 08:22:00 | 00:00:00 | 00:00:00 | |
| OE3OSB-13 | 2026-09-01 02:03:02 | 48.29000 | 17.52954 | 102° | 5km/h | 22905m | -16.4m/s | -54.1°C | 1.2% | -1.0hPa | 2.5V | 00:00:00 | 00:00:00 | 00:00:00 | |
| EDDB2-12 | 2026-09-01 02:02:57 | 48.29007 | 17.52945 | 148° | 7km/h | 22990m | -17.3m/s | -54.2°C | 1.2% | -1.0hPa | 2.5V | 00:00:00 | 00:00:00 | 00:00:00 | |
| OM5KV | 2026-09-01 02:02:56 | 48.29007 | 17.52945 | 150° | 7km/h | 22990m | -17.3m/s | -54.2°C | 1.3% | 0hPa | 2.5V | 08:22:00 | 00:00:00 | 00:00:00 | |
| DO3MHA-11 | 2026-09-01 02:02:55 | 48.29010 | 17.52945 | 173° | 9km/h | 23024m | -16.2m/s | -54.1°C | 4.2% | 0hPa | 2.5V | 00:00:00 | 02:02:35 | 00:00:00 | |
| OE5DRO-10 | 2026-09-01 02:02:53 | 48.29013 | 17.52948 | 215° | 11km/h | 23058m | -16.7m/s | 0°C | 0% | 0hPa | 2.5V | 00:00:00 | 00:00:00 | 00:00:00 | |
| OK1ALN | 2026-09-01 02:02:52 | 48.29013 | 17.52947 | 215° | 9km/h | 23058m | -16.8m/s | -54.1°C | 1.3% | 0hPa | 2.5V | 08:22:00 | 00:00:00 | 00:00:00 | |
| OE5MMP-10 | 2026-09-01 02:02:51 | 48.29016 | 17.52952 | 256° | 11km/h | 23093m | -16.6m/s | -54.3°C | 4.3% | 0hPa | 2.5V | 00:00:00 | 02:02:31 | 00:00:00 | |
| PETON7-10 | 2026-09-01 02:02:50 | 48.29017 | 17.52956 | 242° | 13km/h | 23111m | -16.9m/s | -54.4°C | 4.3% | 0hPa | 2.5V | 08:22:00 | 00:00:00 | 00:00:00 | |
| ATIDSZ-14 | 2026-09-01 02:02:48 | 48.29018 | 17.52959 | 255° | 7km/h | 23127m | -17.1m/s | -54.6°C | 1.4% | 0hPa | 2.5V | 08:22:00 | 00:00:00 | 00:00:00 | |
| GYPAP8-17 | 2026-09-01 02:02:46 | 48.29018 | 17.52966 | 261° | 11km/h | 23160m | -17.2m/s | -54.8°C | 1.4% | 0hPa | 2.5V | 00:00:00 | 00:00:00 | 00:00:00 | |
| DO3MHA-11 | 2026-09-01 02:02:45 | 48.29018 | 17.52975 | 278° | 13km/h | 23193m | -16.8m/s | -54.8°C | 4.5% | 0hPa | 2.5V | 00:00:00 | 02:02:25 | 00:00:00 | |
| OM5KV | 2026-09-01 02:02:44 | 48.29018 | 17.52975 | 278° | 13km/h | 23193m | -16.9m/s | -54.8°C | 1.4% | 0hPa | 2.6V | 08:22:00 | 00:00:00 | 00:00:00 | |
| SONDE2-11 | 2026-09-01 02:02:43 | 48.29018 | 17.52994 | 272° | 15km/h | 23262m | -16.6m/s | -55.0°C | 1.3% | -1.0hPa | 2.6V | 00:00:00 | 00:00:00 | 00:00:00 | |
| OE5MMP-10 | 2026-09-01 02:02:41 | 48.29018 | 17.52993 | 273° | 11km/h | 23262m | -16.6m/s | -55.0°C | 4.6% | 0hPa | 2.6V | 00:00:00 | 02:02:21 | 00:00:00 | |
| OM5KV | 2026-09-01 02:02:39 | 48.29018 | 17.52999 | 268° | 11km/h | 23278m | -17.4m/s | -55.1°C | 1.4% | 0hPa | 2.6V | 08:23:00 | 00:00:00 | 00:00:00 | |
| OM5KV | 2026-09-01 02:02:38 | 48.29019 | 17.53003 | 256° | 13km/h | 23296m | -17.2m/s | -55.1°C | 1.4% | 0hPa | 2.6V | 08:23:00 | 00:00:00 | 00:00:00 | |
| OE3JTB-15 | 2026-09-01 02:02:37 | 48.29020 | 17.53012 | 256° | 11km/h | 23329m | -17.7m/s | -55.1°C | 4.7% | 0hPa | 2.6V | 00:00:00 | 00:00:00 | 00:00:00 | |
| PETON7-10 | 2026-09-01 02:02:35 | 48.29020 | 17.53020 | 287° | 11km/h | 23363m | -17.4m/s | -55.1°C | 4.7% | 0hPa | 2.6V | 00:00:00 | 00:00:00 | 00:00:00 | |
| OE5DRO-10 | 2026-09-01 02:02:34 | 48.29019 | 17.53023 | 295° | 9km/h | 23381m | -18.0m/s | -55.0°C | 4.7% | 0hPa | 2.6V | 00:00:00 | 00:00:00 | 00:00:00 | |
| OK1ALN | 2026-09-01 02:02:32 | 48.29018 | 17.53026 | 285° | 9km/h | 23398m | -17.8m/s | -55.0°C | 1.4% | 0hPa | 2.6V | 08:23:00 | 00:00:00 | 00:00:00 | |
| OE5MMP-10 | 2026-09-01 02:02:31 | 48.29015 | 17.53032 | 333° | 13km/h | 23433m | -17.8m/s | -55.0°C | 4.7% | 0hPa | 2.6V | 00:00:00 | 02:02:11 | 00:00:00 | |
| PG1ADW-2 | 2026-09-01 02:02:30 | 48.29012 | 17.53034 | 321° | 9km/h | 23450m | -17.1m/s | -55.1°C | 4.8% | 0hPa | 2.6V | 08:22:00 | 00:00:00 | 00:00:00 | |
| OM5KV | 2026-09-01 02:02:27 | 48.29006 | 17.53040 | 345° | 15km/h | 23484m | -17.7m/s | -55.0°C | 1.5% | 0hPa | 2.5V | 08:23:00 | 00:00:00 | 00:00:00 | |
| EDDB2-12 | 2026-09-01 02:02:26 | 48.29000 | 17.53043 | 344° | 15km/h | 23518m | -16.9m/s | -54.9°C | 1.3% | -1.0hPa | 2.5V | 00:00:00 | 00:00:00 | 00:00:00 | |
| DO3MHA-11 | 2026-09-01 02:02:25 | 48.28996 | 17.53044 | 1° | 7km/h | 23535m | -18.1m/s | -54.8°C | 4.7% | 0hPa | 2.5V | 00:00:00 | 02:02:05 | 00:00:00 | |
| OE5MMP-10 | 2026-09-01 02:02:21 | 48.28985 | 17.53045 | 9° | 7km/h | 23605m | -17.3m/s | -54.6°C | 4.7% | 0hPa | 2.5V | 00:00:00 | 02:02:01 | 00:00:00 | |
| PETON7-10 | 2026-09-01 02:02:19 | 48.28982 | 17.53044 | 13° | 11km/h | 23639m | -17.6m/s | -54.4°C | 4.6% | 0hPa | 2.5V | 00:00:00 | 02:01:59 | 00:00:00 | |
| OM5KV | 2026-09-01 02:02:16 | 48.28980 | 17.53045 | 299° | 5km/h | 23675m | -17.7m/s | -54.3°C | 1.4% | 0hPa | 2.5V | 08:23:00 | 00:00:00 | 00:00:00 | |
| DO3MHA-11 | 2026-09-01 02:02:15 | 48.28980 | 17.53049 | 268° | 11km/h | 23710m | -17.6m/s | -54.1°C | 4.5% | 0hPa | 2.5V | 08:22:00 | 02:01:55 | 00:00:00 | |
| SONDE2-11 | 2026-09-01 02:02:12 | 48.28975 | 17.53063 | 306° | 13km/h | 23780m | -17.9m/s | -54.1°C | 1.3% | -1.0hPa | 2.5V | 00:00:00 | 00:00:00 | 00:00:00 | |
| OE5MMP-10 | 2026-09-01 02:02:11 | 48.28975 | 17.53063 | 307° | 18km/h | 23781m | -17.9m/s | -54.0°C | 4.5% | 0hPa | 2.5V | 00:00:00 | 02:01:51 | 00:00:00 | |
| PG1ADW-2 | 2026-09-01 02:02:10 | 48.28972 | 17.53067 | 325° | 13km/h | 23798m | -17.5m/s | -54.0°C | 4.6% | 0hPa | 2.5V | 00:00:00 | 00:00:00 | 00:00:00 | |
| OE3JTB-15 | 2026-09-01 02:02:08 | 48.28965 | 17.53073 | 332° | 11km/h | 23833m | -17.7m/s | -53.9°C | 4.6% | 0hPa | 2.5V | 00:00:00 | 02:01:48 | 00:00:00 | |
| ATIDSZ-14 | 2026-09-01 02:02:06 | 48.28961 | 17.53075 | 346° | 20km/h | 23851m | -17.6m/s | -54.0°C | 1.4% | 0hPa | 2.5V | 08:23:00 | 00:00:00 | 00:00:00 | |
| OM5KV | 2026-09-01 02:02:05 | 48.28956 | 17.53077 | 358° | 18km/h | 23868m | -17.8m/s | -54.0°C | 1.4% | 0hPa | 2.5V | 08:23:00 | 00:00:00 | 00:00:00 | |
| PETON7-10 | 2026-09-01 02:02:04 | 48.28947 | 17.53077 | 6° | 9km/h | 23902m | -17.5m/s | -53.8°C | 4.5% | 0hPa | 2.5V | 00:00:00 | 00:00:00 | 00:00:00 | |
| S52SK | 2026-09-01 02:02:02 | 48.28942 | 17.53076 | 16° | 18km/h | 23919m | -17.8m/s | -53.7°C | 1.4% | 0hPa | 2.5V | 08:23:00 | 00:00:00 | 00:00:00 | |
| OE3OSB-13 | 2026-09-01 02:02:00 | 48.28930 | 17.53071 | 22° | 11km/h | 23973m | -17.6m/s | -53.3°C | 1.2% | -1.0hPa | 2.5V | 00:00:00 | 00:00:00 | 00:00:00 | |
| GYPAP8-17 | 2026-09-01 02:01:59 | 48.28930 | 17.53071 | 23° | 11km/h | 23973m | -17.6m/s | -53.3°C | 1.3% | 0hPa | 2.5V | 00:00:00 | 00:00:00 | 00:00:00 | |
| HA6NAB-11 | 2026-09-01 02:01:58 | 48.28927 | 17.53069 | 17° | 13km/h | 23990m | -17.6m/s | -53.1°C | 1.3% | 0hPa | 2.5V | 08:23:00 | 00:00:00 | 00:00:00 | |
| OM5KV | 2026-09-01 02:01:56 | 48.28923 | 17.53067 | 26° | 4km/h | 24026m | -17.9m/s | -52.8°C | 1.3% | 0hPa | 2.5V | 08:23:00 | 00:00:00 | 00:00:00 | |
| OE5DXL-15 | 2026-09-01 02:01:55 | 48.28921 | 17.53066 | 326° | 9km/h | 24063m | -18.3m/s | -52.7°C | 4.2% | 0hPa | 2.5V | 00:00:00 | 00:00:00 | 00:00:00 | |
| OM5KV | 2026-09-01 02:01:53 | 48.28920 | 17.53066 | 356° | 4km/h | 24082m | -18.7m/s | -52.6°C | 1.3% | 0hPa | 2.5V | 08:23:00 | 00:00:00 | 00:00:00 | |
| HA6NAB-11 | 2026-09-01 02:01:52 | 48.28919 | 17.53066 | 13° | 2km/h | 24100m | -19.1m/s | -52.5°C | 1.2% | 0hPa | 2.5V | 08:23:00 | 00:00:00 | 00:00:00 | |
| OE5MMP-10 | 2026-09-01 02:01:51 | 48.28919 | 17.53069 | 288° | 9km/h | 24138m | -18.5m/s | -52.3°C | 4.1% | 0hPa | 2.5V | 00:00:00 | 02:01:31 | 00:00:00 | |
| OM5KV | 2026-09-01 02:01:50 | 48.28919 | 17.53069 | 288° | 7km/h | 24138m | -18.5m/s | -52.4°C | 1.2% | 0hPa | 2.5V | 08:24:00 | 00:00:00 | 00:00:00 | |
| PETON7-10 | 2026-09-01 02:01:49 | 48.28917 | 17.53074 | 303° | 9km/h | 24176m | -19.1m/s | -52.2°C | 4.1% | 0hPa | 2.5V | 00:00:00 | 00:00:00 | 00:00:00 | |
| HA6NAB-11 | 2026-09-01 02:01:47 | 48.28914 | 17.53080 | 308° | 11km/h | 24214m | -18.5m/s | -52.0°C | 1.2% | 0hPa | 2.5V | 00:00:00 | 00:00:00 | 00:00:00 | |
| ATIDSZ-14 | 2026-09-01 02:01:45 | 48.28913 | 17.53083 | 308° | 9km/h | 24232m | -19.3m/s | -51.9°C | 1.2% | 0hPa | 2.5V | 08:24:00 | 00:00:00 | 00:00:00 | |
| OM5KV | 2026-09-01 02:01:44 | 48.28912 | 17.53086 | 296° | 11km/h | 24251m | -18.8m/s | -51.9°C | 1.2% | 0hPa | 2.5V | 08:24:00 | 00:00:00 | 00:00:00 | |
| OE5MMP-10 | 2026-09-01 02:01:41 | 48.28906 | 17.53099 | 305° | 7km/h | 24327m | -18.9m/s | -51.3°C | 3.8% | 0hPa | 2.5V | 08:23:00 | 02:01:21 | 00:00:00 | |
| HA6NAB-11 | 2026-09-01 02:01:40 | 48.28906 | 17.53099 | 306° | 9km/h | 24327m | -18.9m/s | -51.4°C | 1.1% | 0hPa | 2.6V | 00:00:00 | 00:00:00 | 00:00:00 | |
| OE3JTB-15 | 2026-09-01 02:01:39 | 48.28905 | 17.53103 | 257° | 7km/h | 24365m | -19.6m/s | -51.4°C | 3.8% | 0hPa | 2.6V | 00:00:00 | 00:00:00 | 00:00:00 | |
| OM5KV | 2026-09-01 02:01:38 | 48.28905 | 17.53103 | 257° | 5km/h | 24365m | -19.6m/s | -51.5°C | 1.1% | 0hPa | 2.5V | 08:24:00 | 00:00:00 | 00:00:00 | |
| OM5KV | 2026-09-01 02:01:36 | 48.28905 | 17.53108 | 248° | 5km/h | 24403m | -18.8m/s | -51.7°C | 1.2% | 0hPa | 2.5V | 08:24:00 | 00:00:00 | 00:00:00 | |
| PETON7-10 | 2026-09-01 02:01:34 | 48.28906 | 17.53118 | 251° | 11km/h | 24461m | -19.5m/s | -51.8°C | 3.9% | 0hPa | 2.5V | 00:00:00 | 02:01:14 | 00:00:00 | |
| OE5MMP-10 | 2026-09-01 02:01:31 | 48.28905 | 17.53129 | 301° | 13km/h | 24520m | -19.6m/s | -51.7°C | 3.9% | 0hPa | 2.5V | 00:00:00 | 02:01:11 | 00:00:00 | |
| PG1ADW-2 | 2026-09-01 02:01:30 | 48.28904 | 17.53132 | 290° | 7km/h | 24539m | -19.3m/s | -51.7°C | 3.9% | 0hPa | 2.5V | 00:00:00 | 02:01:10 | 00:00:00 | |
| OE3OSB-13 | 2026-09-01 02:01:29 | 48.28903 | 17.53136 | 310° | 15km/h | 24558m | -18.9m/s | -51.8°C | 1.1% | -1.0hPa | 2.5V | 00:00:00 | 00:00:00 | 00:00:00 | |
| HA6NAB-11 | 2026-09-01 02:01:28 | 48.28902 | 17.53136 | 312° | 15km/h | 24558m | -18.9m/s | -51.8°C | 1.1% | 0hPa | 2.5V | 00:00:00 | 00:00:00 | 00:00:00 | |
| OE5DXL-15 | 2026-09-01 02:01:25 | 48.28892 | 17.53148 | 337° | 7km/h | 24635m | -19.8m/s | -51.5°C | 3.9% | 0hPa | 2.5V | 00:00:00 | 00:00:00 | 00:00:00 | |
| EDDB2-12 | 2026-09-01 02:01:24 | 48.28886 | 17.53152 | 322° | 11km/h | 24673m | -19.3m/s | -51.6°C | 1.1% | -1.0hPa | 2.5V | 00:00:00 | 00:00:00 | 00:00:00 | |
| OE5MMP-10 | 2026-09-01 02:01:21 | 48.28882 | 17.53155 | 346° | 2km/h | 24712m | -20.6m/s | -51.6°C | 3.9% | 0hPa | 2.5V | 00:00:00 | 02:01:01 | 00:00:00 | |
| PETON7-10 | 2026-09-01 02:01:19 | 48.28880 | 17.53157 | 327° | 5km/h | 24751m | -19.6m/s | -51.6°C | 3.9% | 0hPa | 2.5V | 00:00:00 | 00:00:00 | 00:00:00 | |
| OM5KV | 2026-09-01 02:01:15 | 48.28881 | 17.53158 | 0° | 0km/h | 24809m | -19.5m/s | -51.6°C | 1.1% | 0hPa | 2.6V | 08:24:00 | 00:00:00 | 00:00:00 | |
| OE5MMP-10 | 2026-09-01 02:01:11 | 48.28880 | 17.53158 | 336° | 9km/h | 24910m | -21.0m/s | -51.3°C | 3.8% | 0hPa | 2.6V | 00:00:00 | 02:00:51 | 00:00:00 | |
| SONDE2-11 | 2026-09-01 02:01:10 | 48.28877 | 17.53158 | 352° | 4km/h | 24952m | -20.3m/s | -51.3°C | 1.0% | -1.0hPa | 2.5V | 00:00:00 | 00:00:00 | 00:00:00 | |
| OM5KV | 2026-09-01 02:01:07 | 48.28875 | 17.53158 | 350° | 11km/h | 24971m | -19.8m/s | -51.3°C | 1.1% | 0hPa | 2.5V | 08:24:00 | 00:00:00 | 00:00:00 | |
| PETON7-10 | 2026-09-01 02:01:04 | 48.28864 | 17.53160 | 355° | 9km/h | 25051m | -20.0m/s | -51.3°C | 3.9% | 0hPa | 2.5V | 00:00:00 | 00:00:00 | 00:00:00 | |
| OE3OSB-13 | 2026-09-01 02:00:58 | 48.28850 | 17.53162 | 336° | 9km/h | 25173m | -21.1m/s | -51.4°C | 1.1% | -1.0hPa | 2.5V | 00:00:00 | 00:00:00 | 00:00:00 | |
| EDDB2-12 | 2026-09-01 02:00:53 | 48.28834 | 17.53167 | 7° | 7km/h | 25296m | -21.2m/s | -51.4°C | 1.0% | -1.0hPa | 2.5V | 00:00:00 | 00:00:00 | 00:00:00 | |
| OE5MMP-10 | 2026-09-01 02:00:51 | 48.28832 | 17.53167 | 3° | 4km/h | 25316m | -20.6m/s | -51.3°C | 3.9% | 0hPa | 2.5V | 00:00:00 | 02:00:31 | 00:00:00 | |
| PG1ADW-2 | 2026-09-01 02:00:50 | 48.28830 | 17.53167 | 24° | 5km/h | 25337m | -20.3m/s | -51.4°C | 3.8% | 0hPa | 2.5V | 00:00:00 | 00:00:00 | 00:00:00 | |
| PETON7-10 | 2026-09-01 02:00:49 | 48.28829 | 17.53166 | 48° | 4km/h | 25357m | -20.9m/s | -51.4°C | 3.9% | 0hPa | 2.5V | 00:00:00 | 02:00:29 | 00:00:00 | |
| OM5KV | 2026-09-01 02:00:44 | 48.28828 | 17.53162 | 0° | 0km/h | 25440m | -21.0m/s | -51.4°C | 1.1% | 0hPa | 2.5V | 08:25:00 | 00:00:00 | 00:00:00 | |
| OM5KV | 2026-09-01 02:00:42 | 48.28828 | 17.53161 | 202° | 4km/h | 25483m | -20.6m/s | -51.6°C | 1.2% | 0hPa | 2.5V | 08:25:00 | 00:00:00 | 00:00:00 | |
| OE5MMP-10 | 2026-09-01 02:00:41 | 48.28830 | 17.53160 | 180° | 5km/h | 25524m | -21.3m/s | -51.6°C | 4.0% | 0hPa | 2.5V | 00:00:00 | 02:00:21 | 00:00:00 | |
| OM5KV | 2026-09-01 02:00:38 | 48.28832 | 17.53160 | 125° | 5km/h | 25566m | -22.0m/s | -51.5°C | 1.2% | 0hPa | 2.5V | 08:25:00 | 00:00:00 | 00:00:00 | |
| GYPAP8-17 | 2026-09-01 02:00:37 | 48.28833 | 17.53158 | 154° | 4km/h | 25587m | -21.3m/s | -51.5°C | 1.2% | 0hPa | 2.5V | 00:00:00 | 00:00:00 | 00:00:00 | |
| PETON7-10 | 2026-09-01 02:00:34 | 48.28833 | 17.53153 | 39° | 13km/h | 25671m | -20.8m/s | -51.3°C | 3.9% | 0hPa | 2.5V | 08:24:00 | 00:00:00 | 00:00:00 | |
| OM5KV | 2026-09-01 02:00:32 | 48.28832 | 17.53151 | 54° | 5km/h | 25691m | -21.1m/s | -51.2°C | 1.2% | 0hPa | 2.5V | 08:25:00 | 00:00:00 | 00:00:00 | |
| OE5MMP-10 | 2026-09-01 02:00:31 | 48.28827 | 17.53148 | 29° | 15km/h | 25733m | -20.5m/s | -51.0°C | 3.9% | 0hPa | 2.5V | 00:00:00 | 02:00:11 | 00:00:00 | |
| PG1ADW-2 | 2026-09-01 02:00:30 | 48.28824 | 17.53146 | 18° | 13km/h | 25753m | -20.1m/s | -51.1°C | 3.9% | 0hPa | 2.5V | 00:00:00 | 00:00:00 | 00:00:00 | |
| OK1ALN | 2026-09-01 02:00:28 | 48.28821 | 17.53144 | 18° | 16km/h | 25773m | -20.0m/s | -51.2°C | 1.1% | 0hPa | 2.6V | 08:25:00 | 00:00:00 | 00:00:00 | |
| OE3OSB-13 | 2026-09-01 02:00:27 | 48.28811 | 17.53137 | 35° | 15km/h | 25834m | -20.1m/s | -51.3°C | 1.1% | -1.0hPa | 2.6V | 00:00:00 | 00:00:00 | 00:00:00 | |
| HA6NAB-11 | 2026-09-01 02:00:25 | 48.28808 | 17.53133 | 59° | 15km/h | 25854m | -20.4m/s | -51.3°C | 1.2% | 0hPa | 2.6V | 08:25:00 | 00:00:00 | 00:00:00 | |
| ATIDSZ-14 | 2026-09-01 02:00:24 | 48.28807 | 17.53129 | 57° | 13km/h | 25874m | -19.5m/s | -51.1°C | 1.2% | 0hPa | 2.6V | 08:25:00 | 00:00:00 | 00:00:00 | |
| OM5KV | 2026-09-01 02:00:23 | 48.28807 | 17.53129 | 57° | 13km/h | 25874m | -19.5m/s | -51.1°C | 1.2% | 0hPa | 2.6V | 08:25:00 | 00:00:00 | 00:00:00 | |
| EDDB2-12 | 2026-09-01 02:00:22 | 48.28804 | 17.53114 | 78° | 13km/h | 25934m | -20.3m/s | -50.7°C | 1.0% | -1.0hPa | 2.6V | 00:00:00 | 00:00:00 | 00:00:00 | |
| OE5MMP-10 | 2026-09-01 02:00:21 | 48.28804 | 17.53114 | 79° | 11km/h | 25934m | -20.2m/s | -50.7°C | 3.8% | 0hPa | 2.6V | 00:00:00 | 02:00:01 | 00:00:00 | |
| PETON7-10 | 2026-09-01 02:00:19 | 48.28805 | 17.53102 | 87° | 11km/h | 25974m | -20.8m/s | -50.5°C | 3.8% | 0hPa | 2.6V | 00:00:00 | 00:00:00 | 00:00:00 | |
| OM5KV | 2026-09-01 02:00:17 | 48.28805 | 17.53097 | 106° | 13km/h | 25994m | -20.9m/s | -50.4°C | 1.1% | 0hPa | 2.6V | 08:25:00 | 00:00:00 | 00:00:00 | |
| OM5KV | 2026-09-01 02:00:15 | 48.28806 | 17.53087 | 108° | 11km/h | 26035m | -20.6m/s | -50.4°C | 1.1% | 0hPa | 2.6V | 08:25:00 | 00:00:00 | 00:00:00 | |
| HA6NAB-11 | 2026-09-01 02:00:13 | 48.28808 | 17.53080 | 114° | 7km/h | 26077m | -20.4m/s | -50.2°C | 1.1% | 0hPa | 2.6V | 08:25:00 | 00:00:00 | 00:00:00 | |
| OE3JTB-15 | 2026-09-01 02:00:12 | 48.28811 | 17.53076 | 154° | 11km/h | 26117m | -20.5m/s | -50.1°C | 3.7% | 0hPa | 2.6V | 00:00:00 | 00:00:00 | 00:00:00 | |
| OE5MMP-10 | 2026-09-01 02:00:11 | 48.28813 | 17.53075 | 172° | 13km/h | 26138m | -20.9m/s | -50.1°C | 3.7% | 0hPa | 2.6V | 08:25:00 | 01:59:51 | 00:00:00 | |
| PG1ADW-2 | 2026-09-01 02:00:10 | 48.28815 | 17.53074 | 171° | 11km/h | 26159m | -20.8m/s | -50.1°C | 3.7% | 0hPa | 2.6V | 00:00:00 | 01:59:50 | 00:00:00 | |
| HA6NAB-11 | 2026-09-01 02:00:08 | 48.28818 | 17.53074 | 182° | 13km/h | 26180m | -20.8m/s | -50.1°C | 1.1% | 0hPa | 2.6V | 00:00:00 | 00:00:00 | 00:00:00 | |
| SONDE2-11 | 2026-09-01 02:00:07 | 48.28824 | 17.53074 | 182° | 15km/h | 26221m | -20.6m/s | -50.2°C | 1.0% | -1.0hPa | 2.6V | 00:00:00 | 00:00:00 | 00:00:00 | |
| PETON7-10 | 2026-09-01 02:00:04 | 48.28834 | 17.53073 | 169° | 9km/h | 26283m | -20.7m/s | -50.2°C | 3.8% | 0hPa | 2.6V | 00:00:00 | 01:59:44 | 00:00:00 | |
| HA6NAB-11 | 2026-09-01 02:00:03 | 48.28834 | 17.53073 | 169° | 16km/h | 26283m | -20.7m/s | -50.3°C | 1.1% | 0hPa | 2.6V | 00:00:00 | 00:00:00 | 00:00:00 | |
| OE3OSB-13 | 2026-09-01 01:59:56 | 48.28861 | 17.53075 | 195° | 7km/h | 26471m | -21.3m/s | -50.4°C | 1.0% | -1.0hPa | 2.6V | 00:00:00 | 00:00:00 | 00:00:00 | |
| EDDB2-12 | 2026-09-01 01:59:51 | 48.28867 | 17.53072 | 130° | 5km/h | 26576m | -21.0m/s | -50.0°C | 1.0% | -1.0hPa | 2.6V | 00:00:00 | 00:00:00 | 00:00:00 | |
| PG1ADW-2 | 2026-09-01 01:59:50 | 48.28867 | 17.53071 | 131° | 11km/h | 26576m | -20.9m/s | -50.0°C | 3.8% | 0hPa | 2.6V | 00:00:00 | 00:00:00 | 00:00:00 | |
| PETON7-10 | 2026-09-01 01:59:49 | 48.28868 | 17.53070 | 146° | 11km/h | 26596m | -20.6m/s | -49.9°C | 3.8% | 0hPa | 2.6V | 00:00:00 | 00:00:00 | 00:00:00 | |
| S52SK | 2026-09-01 01:59:48 | 48.28868 | 17.53070 | 147° | 5km/h | 26596m | -20.6m/s | -49.9°C | 1.1% | 0hPa | 2.5V | 00:00:00 | 00:00:00 | 00:00:00 | |
| OK1ALN | 2026-09-01 01:59:46 | 48.28872 | 17.53067 | 152° | 11km/h | 26639m | -21.2m/s | -49.8°C | 1.1% | 0hPa | 2.5V | 08:25:00 | 00:00:00 | 00:00:00 | |
| OM5KV | 2026-09-01 01:59:45 | 48.28875 | 17.53066 | 172° | 9km/h | 26659m | -20.4m/s | -49.8°C | 1.1% | 0hPa | 2.5V | 08:25:00 | 00:00:00 | 00:00:00 | |
| OM5KV | 2026-09-01 01:59:44 | 48.28877 | 17.53065 | 172° | 15km/h | 26680m | -21.2m/s | -49.7°C | 1.1% | 0hPa | 2.5V | 08:25:00 | 00:00:00 | 00:00:00 | |
| OE3JTB-15 | 2026-09-01 01:59:43 | 48.28884 | 17.53062 | 155° | 15km/h | 26722m | -20.1m/s | -49.3°C | 3.7% | 0hPa | 2.5V | 00:00:00 | 00:00:00 | 00:00:00 | |
| S52SK | 2026-09-01 01:59:42 | 48.28884 | 17.53062 | 156° | 11km/h | 26722m | -20.1m/s | -49.4°C | 1.1% | 0hPa | 2.5V | 00:00:00 | 00:00:00 | 00:00:00 | |
| OE5MMP-10 | 2026-09-01 01:59:41 | 48.28888 | 17.53059 | 150° | 13km/h | 26762m | -20.7m/s | -49.0°C | 3.6% | 0hPa | 2.5V | 00:00:00 | 01:59:21 | 00:00:00 | |
| OM5KV | 2026-09-01 01:59:40 | 48.28889 | 17.53059 | 150° | 11km/h | 26762m | -20.8m/s | -49.1°C | 1.1% | 0hPa | 2.6V | 08:25:00 | 00:00:00 | 00:00:00 | |
| DO3MHA-11 | 2026-09-01 01:59:39 | 48.28892 | 17.53053 | 120° | 13km/h | 26803m | -19.7m/s | -48.9°C | 3.6% | 0hPa | 2.6V | 00:00:00 | 01:59:19 | 00:00:00 | |
| OM5KV | 2026-09-01 01:59:38 | 48.28892 | 17.53053 | 121° | 9km/h | 26803m | -19.8m/s | -49.0°C | 1.0% | 0hPa | 2.5V | 08:25:00 | 00:00:00 | 00:00:00 | |
| S52SK | 2026-09-01 01:59:37 | 48.28893 | 17.53050 | 130° | 13km/h | 26823m | -20.4m/s | -48.9°C | 1.0% | 0hPa | 2.5V | 00:00:00 | 00:00:00 | 00:00:00 | |
| SONDE2-11 | 2026-09-01 01:59:36 | 48.28896 | 17.53042 | 110° | 11km/h | 26863m | -20.4m/s | -48.7°C | 1.0% | -1.0hPa | 2.5V | 00:00:00 | 00:00:00 | 00:00:00 | |
| OM5KV | 2026-09-01 01:59:35 | 48.28896 | 17.53042 | 111° | 11km/h | 26863m | -20.4m/s | -48.7°C | 1.0% | 0hPa | 2.5V | 08:25:00 | 00:00:00 | 00:00:00 | |
| PETON7-10 | 2026-09-01 01:59:34 | 48.28900 | 17.53034 | 124° | 18km/h | 26903m | -20.8m/s | -48.7°C | 3.5% | 0hPa | 2.5V | 00:00:00 | 00:00:00 | 00:00:00 | |
| OE5MMP-10 | 2026-09-01 01:59:31 | 48.28908 | 17.53023 | 151° | 20km/h | 26966m | -21.2m/s | -48.6°C | 3.5% | 0hPa | 2.5V | 00:00:00 | 01:59:11 | 00:00:00 | |
| PG1ADW-2 | 2026-09-01 01:59:30 | 48.28912 | 17.53021 | 164° | 15km/h | 26987m | -20.7m/s | -48.6°C | 3.5% | 0hPa | 2.5V | 08:25:00 | 00:00:00 | 00:00:00 | |
| DO3MHA-11 | 2026-09-01 01:59:29 | 48.28917 | 17.53019 | 173° | 20km/h | 27007m | -20.6m/s | -48.7°C | 3.6% | 0hPa | 2.6V | 00:00:00 | 01:59:09 | 00:00:00 | |
| OK1ALN | 2026-09-01 01:59:26 | 48.28927 | 17.53018 | 182° | 20km/h | 27049m | -20.8m/s | -48.7°C | 1.0% | 0hPa | 2.6V | 08:25:00 | 00:00:00 | 00:00:00 | |
| OE3OSB-13 | 2026-09-01 01:59:25 | 48.28943 | 17.53016 | 176° | 22km/h | 27111m | -21.0m/s | -48.4°C | 0.9% | -1.0hPa | 2.6V | 00:00:00 | 00:00:00 | 00:00:00 | |
| ATIDSZ-14 | 2026-09-01 01:59:23 | 48.28943 | 17.53016 | 178° | 24km/h | 27112m | -21.0m/s | -48.4°C | 1.0% | 0hPa | 2.6V | 08:25:00 | 00:00:00 | 00:00:00 | |
| OE5MMP-10 | 2026-09-01 01:59:21 | 48.28958 | 17.53015 | 181° | 11km/h | 27174m | -21.8m/s | -47.8°C | 3.4% | 0hPa | 2.6V | 00:00:00 | 01:59:01 | 00:00:00 | |
| EDDB2-12 | 2026-09-01 01:59:20 | 48.28966 | 17.53016 | 195° | 13km/h | 27217m | -21.8m/s | -47.7°C | 0.9% | -1.0hPa | 2.6V | 00:00:00 | 00:00:00 | 00:00:00 | |
| DO3MHA-11 | 2026-09-01 01:59:19 | 48.28966 | 17.53016 | 196° | 9km/h | 27217m | -21.8m/s | -47.7°C | 3.3% | 0hPa | 2.6V | 00:00:00 | 01:58:59 | 00:00:00 | |
| OM5KV | 2026-09-01 01:59:18 | 48.28965 | 17.53016 | 197° | 15km/h | 27217m | -21.8m/s | -47.7°C | 1.0% | 0hPa | 2.6V | 08:26:00 | 00:00:00 | 00:00:00 | |
| OE3JTB-15 | 2026-09-01 01:59:14 | 48.28977 | 17.53026 | 237° | 16km/h | 27324m | -20.5m/s | -47.6°C | 3.4% | 0hPa | 2.6V | 00:00:00 | 01:58:54 | 00:00:00 | |
| OM5KV | 2026-09-01 01:59:13 | 48.28977 | 17.53026 | 238° | 9km/h | 27324m | -20.5m/s | -47.7°C | 1.0% | 0hPa | 2.6V | 08:26:00 | 00:00:00 | 00:00:00 | |
| OM5KV | 2026-09-01 01:59:12 | 48.28979 | 17.53028 | 211° | 11km/h | 27345m | -21.5m/s | -47.6°C | 1.0% | 0hPa | 2.6V | 08:26:00 | 00:00:00 | 00:00:00 | |
| OE5MMP-10 | 2026-09-01 01:59:11 | 48.28982 | 17.53030 | 177° | 15km/h | 27387m | -20.7m/s | -47.5°C | 3.3% | 0hPa | 2.6V | 00:00:00 | 01:58:51 | 00:00:00 | |
| PG1ADW-2 | 2026-09-01 01:59:10 | 48.28984 | 17.53030 | 166° | 16km/h | 27408m | -20.8m/s | -47.5°C | 3.3% | 0hPa | 2.5V | 00:00:00 | 00:00:00 | 00:00:00 | |
| DO3MHA-11 | 2026-09-01 01:59:09 | 48.28985 | 17.53029 | 140° | 16km/h | 27428m | -20.5m/s | -47.5°C | 3.3% | 0hPa | 2.5V | 00:00:00 | 01:58:49 | 00:00:00 | |
| OM5KV | 2026-09-01 01:59:08 | 48.28985 | 17.53029 | 140° | 7km/h | 27428m | -20.5m/s | -47.6°C | 0.9% | 0hPa | 2.6V | 08:26:00 | 00:00:00 | 00:00:00 | |
| OM5KV | 2026-09-01 01:59:06 | 48.28989 | 17.53021 | 121° | 16km/h | 27470m | -21.1m/s | -47.6°C | 0.9% | 0hPa | 2.6V | 08:26:00 | 00:00:00 | 00:00:00 | |
| SONDE2-11 | 2026-09-01 01:59:05 | 48.28994 | 17.53011 | 125° | 18km/h | 27511m | -21.5m/s | -47.6°C | 0.9% | -1.0hPa | 2.6V | 00:00:00 | 00:00:00 | 00:00:00 | |
| OM5KV | 2026-09-01 01:59:02 | 48.28999 | 17.52998 | 120° | 18km/h | 27553m | -21.5m/s | -47.5°C | 1.0% | 0hPa | 2.6V | 08:26:00 | 00:00:00 | 00:00:00 | |
| OE3OSB-13 | 2026-09-01 01:58:54 | 48.29032 | 17.52951 | 159° | 16km/h | 27771m | -21.3m/s | -47.0°C | 0.9% | -1.0hPa | 2.6V | 00:00:00 | 00:00:00 | 00:00:00 | |
| OE5MMP-10 | 2026-09-01 01:58:51 | 48.29041 | 17.52946 | 157° | 15km/h | 27814m | -22.4m/s | -46.8°C | 3.2% | 0hPa | 2.6V | 00:00:00 | 01:58:31 | 00:00:00 | |
| PG1ADW-2 | 2026-09-01 01:58:50 | 48.29046 | 17.52943 | 161° | 11km/h | 27836m | -22.1m/s | -46.7°C | 3.2% | 0hPa | 2.6V | 00:00:00 | 01:58:30 | 00:00:00 | |
| PETON7-10 | 2026-09-01 01:58:49 | 48.29051 | 17.52941 | 165° | 11km/h | 27859m | -21.9m/s | -46.7°C | 3.2% | 0hPa | 2.6V | 00:00:00 | 00:00:00 | 00:00:00 | |
| DO3MHA-12 | 2026-09-01 01:58:48 | 48.29056 | 17.52938 | 158° | 11km/h | 27880m | -21.9m/s | -46.6°C | 3.1% | 0hPa | 2.6V | 00:00:00 | 01:58:28 | 00:00:00 | |
| OE3JTB-15 | 2026-09-01 01:58:45 | 48.29067 | 17.52931 | 161° | 11km/h | 27947m | -21.2m/s | -46.6°C | 3.1% | 0hPa | 2.6V | 08:26:00 | 00:00:00 | 00:00:00 | |
| OM5KV | 2026-09-01 01:58:43 | 48.29070 | 17.52929 | 152° | 13km/h | 27968m | -21.9m/s | -46.7°C | 0.9% | 0hPa | 2.6V | 08:26:00 | 00:00:00 | 00:00:00 | |
| OE5MMP-10 | 2026-09-01 01:58:41 | 48.29074 | 17.52924 | 113° | 9km/h | 28032m | -21.6m/s | -46.7°C | 3.2% | 0hPa | 2.6V | 08:26:00 | 01:58:21 | 00:00:00 | |
| DO3MHA-11 | 2026-09-01 01:58:39 | 48.29075 | 17.52919 | 105° | 11km/h | 28075m | -21.9m/s | -46.7°C | 3.2% | 0hPa | 2.6V | 08:26:00 | 01:58:19 | 00:00:00 | |
| DO3MHA-12 | 2026-09-01 01:58:38 | 48.29076 | 17.52917 | 132° | 11km/h | 28097m | -22.4m/s | -46.7°C | 3.2% | 0hPa | 2.6V | 00:00:00 | 01:58:18 | 00:00:00 | |
| S52SK | 2026-09-01 01:58:36 | 48.29077 | 17.52915 | 113° | 9km/h | 28119m | -22.2m/s | -46.7°C | 0.9% | 0hPa | 2.5V | 00:00:00 | 00:00:00 | 00:00:00 | |
| PETON7-10 | 2026-09-01 01:58:34 | 48.29081 | 17.52905 | 124° | 11km/h | 28186m | -22.3m/s | -46.7°C | 3.2% | 0hPa | 2.5V | 00:00:00 | 01:58:14 | 00:00:00 | |
| OM5KV | 2026-09-01 01:58:33 | 48.29081 | 17.52905 | 125° | 11km/h | 28186m | -22.3m/s | -46.7°C | 0.9% | 0hPa | 2.5V | 08:26:00 | 00:00:00 | 00:00:00 | |
| OM5KV | 2026-09-01 01:58:32 | 48.29083 | 17.52902 | 139° | 11km/h | 28208m | -22.0m/s | -46.7°C | 0.9% | 0hPa | 2.5V | 08:26:00 | 00:00:00 | 00:00:00 | |
| OE5MMP-10 | 2026-09-01 01:58:31 | 48.29088 | 17.52896 | 134° | 11km/h | 28253m | -23.3m/s | -46.6°C | 3.2% | 0hPa | 2.5V | 00:00:00 | 01:58:11 | 00:00:00 | |
| PG1ADW-2 | 2026-09-01 01:58:30 | 48.29090 | 17.52892 | 135° | 11km/h | 28276m | -22.6m/s | -46.7°C | 3.2% | 0hPa | 2.5V | 00:00:00 | 00:00:00 | 00:00:00 | |
| DO3MHA-11 | 2026-09-01 01:58:29 | 48.29092 | 17.52889 | 139° | 11km/h | 28299m | -22.6m/s | -46.6°C | 3.2% | 0hPa | 2.6V | 00:00:00 | 01:58:09 | 00:00:00 | |
| DO3MHA-12 | 2026-09-01 01:58:28 | 48.29095 | 17.52887 | 146° | 11km/h | 28322m | -22.0m/s | -46.6°C | 3.2% | 0hPa | 2.6V | 00:00:00 | 01:58:08 | 00:00:00 | |
| OM5KV | 2026-09-01 01:58:26 | 48.29097 | 17.52884 | 148° | 15km/h | 28343m | -22.4m/s | -46.7°C | 0.9% | 0hPa | 2.6V | 08:27:00 | 00:00:00 | 00:00:00 | |
| OE5DXL-15 | 2026-09-01 01:58:25 | 48.29102 | 17.52878 | 147° | 9km/h | 28388m | -23.2m/s | -46.6°C | 3.2% | 0hPa | 2.6V | 00:00:00 | 00:00:00 | 00:00:00 | |
| OK1ALN | 2026-09-01 01:58:24 | 48.29102 | 17.52878 | 147° | 13km/h | 28388m | -23.3m/s | -46.7°C | 0.9% | 0hPa | 2.6V | 08:27:00 | 00:00:00 | 00:00:00 | |
| OE3OSB-13 | 2026-09-01 01:58:23 | 48.29106 | 17.52869 | 111° | 7km/h | 28458m | -23.9m/s | -46.6°C | 0.9% | -1.0hPa | 2.6V | 00:00:00 | 00:00:00 | 00:00:00 | |
| OE5MMP-10 | 2026-09-01 01:58:21 | 48.29106 | 17.52866 | 92° | 11km/h | 28481m | -23.6m/s | -46.6°C | 3.2% | 0hPa | 2.6V | 00:00:00 | 01:58:01 | 00:00:00 | |
| OM5KV | 2026-09-01 01:58:20 | 48.29106 | 17.52865 | 93° | 9km/h | 28481m | -23.7m/s | -46.6°C | 0.9% | 0hPa | 2.6V | 08:27:00 | 00:00:00 | 00:00:00 | |
| PETON7-10 | 2026-09-01 01:58:19 | 48.29105 | 17.52858 | 53° | 9km/h | 28527m | -21.9m/s | -46.5°C | 3.2% | 0hPa | 2.6V | 08:26:00 | 00:00:00 | 00:00:00 | |
| DO3MHA-12 | 2026-09-01 01:58:18 | 48.29103 | 17.52855 | 51° | 9km/h | 28548m | -21.6m/s | -46.5°C | 3.2% | 0hPa | 2.6V | 00:00:00 | 01:57:58 | 00:00:00 | |
| EDDB2-12 | 2026-09-01 01:58:17 | 48.29102 | 17.52851 | 62° | 11km/h | 28570m | -23.0m/s | -46.5°C | 0.8% | -1.0hPa | 2.6V | 00:00:00 | 00:00:00 | 00:00:00 | |
| OE3JTB-15 | 2026-09-01 01:58:16 | 48.29100 | 17.52847 | 49° | 7km/h | 28594m | -22.7m/s | -46.5°C | 3.2% | 0hPa | 2.6V | 00:00:00 | 00:00:00 | 00:00:00 | |
| OM5KV | 2026-09-01 01:58:15 | 48.29100 | 17.52848 | 49° | 13km/h | 28594m | -22.8m/s | -46.5°C | 0.9% | 0hPa | 2.6V | 08:27:00 | 00:00:00 | 00:00:00 | |
| HA6NAB-11 | 2026-09-01 01:58:13 | 48.29097 | 17.52841 | 73° | 11km/h | 28639m | -23.0m/s | -46.3°C | 0.9% | 0hPa | 2.6V | 00:00:00 | 00:00:00 | 00:00:00 | |
| OE5MMP-10 | 2026-09-01 01:58:11 | 48.29096 | 17.52831 | 74° | 7km/h | 28709m | -22.8m/s | -46.2°C | 3.2% | 0hPa | 2.6V | 00:00:00 | 01:57:51 | 00:00:00 | |
| PG1ADW-2 | 2026-09-01 01:58:10 | 48.29096 | 17.52829 | 109° | 7km/h | 28731m | -23.3m/s | -46.2°C | 3.2% | 0hPa | 2.5V | 00:00:00 | 00:00:00 | 00:00:00 | |
| DO3MHA-11 | 2026-09-01 01:58:09 | 48.29096 | 17.52827 | 105° | 7km/h | 28754m | -23.3m/s | -46.2°C | 3.2% | 0hPa | 2.5V | 00:00:00 | 01:57:49 | 00:00:00 | |
| DO3MHA-12 | 2026-09-01 01:58:08 | 48.29097 | 17.52824 | 93° | 20km/h | 28778m | -23.0m/s | -46.1°C | 3.2% | 0hPa | 2.5V | 00:00:00 | 01:57:48 | 00:00:00 | |
| HA6NAB-11 | 2026-09-01 01:58:07 | 48.29097 | 17.52824 | 93° | 7km/h | 28778m | -23.0m/s | -46.2°C | 0.9% | 0hPa | 2.6V | 00:00:00 | 00:00:00 | 00:00:00 | |
| SP3BTT-10 | 2026-09-01 01:58:06 | 48.29095 | 17.52819 | 51° | 16km/h | 28823m | -22.9m/s | -46.1°C | 3.1% | 0hPa | 2.6V | 00:00:00 | 00:00:00 | 00:00:00 | |
| PETON7-10 | 2026-09-01 01:58:04 | 48.29093 | 17.52814 | 33° | 7km/h | 28870m | -23.3m/s | -46.0°C | 3.2% | 0hPa | 2.6V | 00:00:00 | 00:00:00 | 00:00:00 | |
| SONDE2-11 | 2026-09-01 01:58:03 | 48.29092 | 17.52812 | 59° | 7km/h | 28893m | -23.7m/s | -46.0°C | 0.8% | -1.0hPa | 2.6V | 00:00:00 | 00:00:00 | 00:00:00 | |
| ATIDSZ-14 | 2026-09-01 01:58:02 | 48.29092 | 17.52812 | 61° | 9km/h | 28894m | -23.7m/s | -46.0°C | 0.9% | 0hPa | 2.6V | 08:27:00 | 00:00:00 | 00:00:00 | |
| OE5MMP-10 | 2026-09-01 01:58:01 | 48.29088 | 17.52806 | 41° | 7km/h | 28940m | -23.4m/s | -45.8°C | 3.1% | 0hPa | 2.6V | 00:00:00 | 01:57:41 | 00:00:00 | |
| DO3MHA-11 | 2026-09-01 01:57:59 | 48.29087 | 17.52801 | 83° | 5km/h | 28987m | -23.4m/s | -45.7°C | 3.1% | 0hPa | 2.6V | 00:00:00 | 01:57:39 | 00:00:00 | |
| HA6NAB-11 | 2026-09-01 01:57:56 | 48.29087 | 17.52795 | 94° | 7km/h | 29035m | -23.3m/s | -45.6°C | 0.8% | 0hPa | 2.6V | 00:00:00 | 00:00:00 | 00:00:00 | |
| OE5DXL-15 | 2026-09-01 01:57:55 | 48.29087 | 17.52792 | 107° | 9km/h | 29082m | -23.8m/s | -45.4°C | 3.1% | 0hPa | 2.6V | 00:00:00 | 00:00:00 | 00:00:00 | |
| OM5KV | 2026-09-01 01:57:52 | 48.29088 | 17.52788 | 91° | 7km/h | 29129m | -23.4m/s | -45.4°C | 0.8% | 0hPa | 2.5V | 08:27:00 | 00:00:00 | 00:00:00 | |
| OE5MMP-10 | 2026-09-01 01:57:51 | 48.29088 | 17.52784 | 89° | 5km/h | 29175m | -24.2m/s | -45.4°C | 3.0% | 0hPa | 2.5V | 00:00:00 | 01:57:31 | 00:00:00 | |
| DO3MHA-11 | 2026-09-01 01:57:49 | 48.29086 | 17.52780 | 20° | 5km/h | 29224m | -23.0m/s | -45.5°C | 3.1% | 0hPa | 2.5V | 00:00:00 | 01:57:29 | 00:00:00 | |
| OE5DRO-10 | 2026-09-01 01:57:48 | 48.29084 | 17.52779 | 53° | 9km/h | 29246m | -23.4m/s | -45.4°C | 3.1% | 0hPa | 2.5V | 08:27:00 | 00:00:00 | 00:00:00 | |
| OE3JTB-15 | 2026-09-01 01:57:47 | 48.29083 | 17.52778 | 26° | 11km/h | 29271m | -24.2m/s | -45.3°C | 3.1% | 0hPa | 2.6V | 00:00:00 | 01:57:27 | 00:00:00 | |
| PETON7-10 | 2026-09-01 01:57:46 | 48.29082 | 17.52777 | 39° | 9km/h | 29295m | -25.2m/s | -45.4°C | 3.1% | 0hPa | 2.6V | 00:00:00 | 01:57:26 | 00:00:00 | |
| OM5KV | 2026-09-01 01:57:45 | 48.29082 | 17.52777 | 39° | 4km/h | 29295m | -25.2m/s | -45.4°C | 0.9% | 0hPa | 2.6V | 08:27:00 | 00:00:00 | 00:00:00 | |
| OK1ALN | 2026-09-01 01:57:43 | 48.29080 | 17.52776 | 14° | 4km/h | 29345m | -24.3m/s | -45.3°C | 0.9% | 0hPa | 2.6V | 08:27:00 | 00:00:00 | 00:00:00 | |
| ATIDSZ-14 | 2026-09-01 01:57:42 | 48.29079 | 17.52775 | 39° | 4km/h | 29369m | -25.0m/s | -45.2°C | 0.8% | 0hPa | 2.6V | 08:27:00 | 00:00:00 | 00:00:00 | |
| OE5MMP-10 | 2026-09-01 01:57:41 | 48.29076 | 17.52772 | 39° | 13km/h | 29418m | -23.5m/s | -45.1°C | 3.0% | 0hPa | 2.6V | 00:00:00 | 01:57:21 | 00:00:00 | |
| OM5KV | 2026-09-01 01:57:40 | 48.29076 | 17.52772 | 39° | 9km/h | 29418m | -23.6m/s | -45.1°C | 0.8% | 0hPa | 2.6V | 08:27:00 | 00:00:00 | 00:00:00 | |
| DO3MHA-11 | 2026-09-01 01:57:39 | 48.29072 | 17.52768 | 44° | 13km/h | 29465m | -24.8m/s | -45.1°C | 3.0% | 0hPa | 2.6V | 00:00:00 | 01:57:19 | 00:00:00 | |
| OM5KV | 2026-09-01 01:57:35 | 48.29061 | 17.52755 | 31° | 15km/h | 29560m | -23.7m/s | -45.1°C | 0.9% | 0hPa | 2.6V | 08:28:00 | 00:00:00 | 00:00:00 | |
| GYPAP8-17 | 2026-09-01 01:57:34 | 48.29061 | 17.52755 | 31° | 15km/h | 29560m | -23.7m/s | -45.1°C | 0.8% | 0hPa | 2.6V | 08:28:00 | 00:00:00 | 00:00:00 | |
| SONDE2-11 | 2026-09-01 01:57:32 | 48.29054 | 17.52746 | 31° | 11km/h | 29632m | -23.3m/s | -44.9°C | 0.8% | -1.0hPa | 2.6V | 00:00:00 | 00:00:00 | 00:00:00 | |
| OE5MMP-10 | 2026-09-01 01:57:31 | 48.29051 | 17.52744 | 50° | 15km/h | 29655m | -23.8m/s | -44.8°C | 3.0% | 0hPa | 2.6V | 00:00:00 | 01:57:11 | 00:00:00 | |
| PETON7-10 | 2026-09-01 01:57:30 | 48.29050 | 17.52741 | 50° | 13km/h | 29679m | -23.9m/s | -44.8°C | 3.0% | 0hPa | 2.6V | 00:00:00 | 00:00:00 | 00:00:00 | |
| S52SK | 2026-09-01 01:57:29 | 48.29050 | 17.52741 | 51° | 13km/h | 29679m | -24.0m/s | -44.9°C | 0.8% | 0hPa | 2.6V | 00:00:00 | 00:00:00 | 00:00:00 | |
| PG1ADW-2 | 2026-09-01 01:57:28 | 48.29045 | 17.52735 | 52° | 22km/h | 29726m | -23.6m/s | -44.8°C | 3.0% | 0hPa | 2.6V | 00:00:00 | 01:57:08 | 00:00:00 | |
| OE5DXL-15 | 2026-09-01 01:57:25 | 48.29036 | 17.52723 | 33° | 15km/h | 29798m | -23.6m/s | -44.7°C | 3.0% | 0hPa | 2.6V | 00:00:00 | 00:00:00 | 00:00:00 | |
| OM5KV | 2026-09-01 01:57:23 | 48.29033 | 17.52719 | 47° | 15km/h | 29821m | -22.8m/s | -44.6°C | 0.8% | 0hPa | 2.6V | 08:28:00 | 00:00:00 | 00:00:00 | |
| OK1ALN | 2026-09-01 01:57:22 | 48.29030 | 17.52715 | 41° | 15km/h | 29844m | -23.9m/s | -44.5°C | 0.8% | 0hPa | 2.6V | 08:28:00 | 00:00:00 | 00:00:00 | |
| OE5MMP-10 | 2026-09-01 01:57:21 | 48.29025 | 17.52710 | 35° | 16km/h | 29892m | -24.6m/s | -44.3°C | 2.9% | 0hPa | 2.6V | 00:00:00 | 01:57:01 | 00:00:00 | |
| DO3MHA-11 | 2026-09-01 01:57:19 | 48.29025 | 17.52707 | 106° | 22km/h | 29942m | -25.7m/s | -44.3°C | 3.0% | 0hPa | 2.6V | 00:00:00 | 01:56:59 | 00:00:00 | |
| OE3JTB-15 | 2026-09-01 01:57:18 | 48.29025 | 17.52705 | 106° | 16km/h | 29967m | -24.9m/s | -44.3°C | 3.0% | 0hPa | 2.6V | 00:00:00 | 00:00:00 | 00:00:00 | |
| PETON7-10 | 2026-09-01 01:57:15 | 48.29025 | 17.52688 | 82° | 20km/h | 30037m | -23.1m/s | -44.3°C | 3.1% | 0hPa | 2.5V | 00:00:00 | 00:00:00 | 00:00:00 | |
| OM5KV | 2026-09-01 01:57:13 | 48.29024 | 17.52680 | 82° | 26km/h | 30060m | -23.7m/s | -44.4°C | 0.9% | 0hPa | 2.5V | 08:28:00 | 00:00:00 | 00:00:00 | |
| OE5MMP-10 | 2026-09-01 01:57:11 | 48.29017 | 17.52647 | 74° | 16km/h | 30132m | -24.7m/s | -44.1°C | 3.0% | 0hPa | 2.5V | 08:28:00 | 01:56:51 | 00:00:00 | |
| DO3MHA-11 | 2026-09-01 01:57:09 | 48.29014 | 17.52628 | 75° | 13km/h | 30183m | -25.7m/s | -44.0°C | 3.0% | 0hPa | 2.5V | 08:28:00 | 01:56:49 | 00:00:00 | |
| PG1ADW-2 | 2026-09-01 01:57:08 | 48.29012 | 17.52622 | 71° | 9km/h | 30209m | -25.4m/s | -43.9°C | 3.0% | 0hPa | 2.6V | 00:00:00 | 00:00:00 | 00:00:00 | |
| SP3BTT-10 | 2026-09-01 01:57:07 | 48.29012 | 17.52618 | 80° | 11km/h | 30234m | -26.7m/s | -43.6°C | 2.9% | 0hPa | 2.6V | 00:00:00 | 00:00:00 | 00:00:00 | |
| OM5KV | 2026-09-01 01:57:05 | 48.29012 | 17.52614 | 126° | 9km/h | 30261m | -28.0m/s | -43.3°C | 0.8% | 0hPa | 2.6V | 08:28:00 | 00:00:00 | 00:00:00 | |
| OE5MMP-10 | 2026-09-01 01:57:01 | 48.29026 | 17.52608 | 187° | 9km/h | 30393m | -26.4m/s | -42.8°C | 2.7% | 0hPa | 2.6V | 00:00:00 | 01:56:41 | 00:00:00 | |
| OE5DRO-10 | 2026-09-01 01:57:00 | 48.29028 | 17.52609 | 189° | 11km/h | 30420m | -27.1m/s | -42.8°C | 2.7% | 0hPa | 2.6V | 00:00:00 | 00:00:00 | 00:00:00 | |
| DO3MHA-11 | 2026-09-01 01:56:59 | 48.29031 | 17.52610 | 209° | 9km/h | 30446m | -25.0m/s | -42.7°C | 2.7% | 0hPa | 2.6V | 00:00:00 | 01:56:39 | 00:00:00 | |
| OM5KV | 2026-09-01 01:56:56 | 48.29033 | 17.52612 | 270° | 4km/h | 30492m | -20.6m/s | -42.5°C | 0.7% | 0hPa | 2.6V | 08:28:00 | 00:00:00 | 00:00:00 | |
| OE5DXL-15 | 2026-09-01 01:56:55 | 48.29029 | 17.52613 | 12° | 11km/h | 30530m | -20.1m/s | -42.3°C | 2.7% | 0hPa | 2.6V | 00:00:00 | 00:00:00 | 00:00:00 | |
| HA6NAB-11 | 2026-09-01 01:56:53 | 48.29027 | 17.52612 | 28° | 11km/h | 30550m | -20.8m/s | -42.3°C | 0.7% | 0hPa | 2.6V | 00:00:00 | 00:00:00 | 00:00:00 | |
| OE5MMP-10 | 2026-09-01 01:56:51 | 48.29022 | 17.52604 | 81° | 13km/h | 30615m | -24.5m/s | -42.3°C | 2.7% | 0hPa | 2.6V | 00:00:00 | 01:56:31 | 00:00:00 | |
| OM5KV | 2026-09-01 01:56:50 | 48.29022 | 17.52604 | 81° | 7km/h | 30615m | -24.6m/s | -42.3°C | 0.7% | 0hPa | 2.6V | 08:28:00 | 00:00:00 | 00:00:00 | |
| DO3MHA-11 | 2026-09-01 01:56:49 | 48.29023 | 17.52596 | 121° | 13km/h | 30666m | -26.8m/s | -42.3°C | 2.7% | 0hPa | 2.6V | 00:00:00 | 01:56:29 | 00:00:00 | |
| PG1ADW-2 | 2026-09-01 01:56:48 | 48.29025 | 17.52592 | 107° | 11km/h | 30692m | -25.8m/s | -42.3°C | 2.7% | 0hPa | 2.6V | 00:00:00 | 00:00:00 | 00:00:00 | |
| OE3OSB-13 | 2026-09-01 01:56:44 | 48.29030 | 17.52573 | 117° | 13km/h | 30791m | -25.3m/s | -42.3°C | 0.7% | -1.0hPa | 2.6V | 00:00:00 | 00:00:00 | 00:00:00 | |
| OK1ALN | 2026-09-01 01:56:41 | 48.29032 | 17.52560 | 98° | 13km/h | 30864m | -24.8m/s | -41.8°C | 0.7% | 0hPa | 2.6V | 08:29:00 | 00:00:00 | 00:00:00 | |
| ATIDSZ-14 | 2026-09-01 01:56:40 | 48.29032 | 17.52560 | 98° | 13km/h | 30864m | -24.8m/s | -41.8°C | 0.7% | 0hPa | 2.6V | 08:29:00 | 00:00:00 | 00:00:00 | |
| DO3MHA-11 | 2026-09-01 01:56:39 | 48.29033 | 17.52550 | 98° | 9km/h | 30915m | -25.0m/s | -41.6°C | 2.5% | 0hPa | 2.6V | 00:00:00 | 01:56:19 | 00:00:00 | |
| OM5KV | 2026-09-01 01:56:36 | 48.29034 | 17.52544 | 84° | 7km/h | 30966m | -26.6m/s | -41.8°C | 0.7% | 0hPa | 2.6V | 08:29:00 | 00:00:00 | 00:00:00 | |
| GYPAP8-17 | 2026-09-01 01:56:35 | 48.29033 | 17.52542 | 67° | 7km/h | 30993m | -26.8m/s | -41.9°C | 0.7% | 0hPa | 2.6V | 00:00:00 | 00:00:00 | 00:00:00 | |
| OM5KV | 2026-09-01 01:56:32 | 48.29029 | 17.52537 | 13° | 9km/h | 31073m | -26.8m/s | -42.3°C | 0.7% | 0hPa | 2.6V | 08:29:00 | 00:00:00 | 00:00:00 | |
| OE5MMP-10 | 2026-09-01 01:56:31 | 48.29024 | 17.52536 | 353° | 11km/h | 31126m | -26.3m/s | -42.5°C | 2.7% | 0hPa | 2.6V | 00:00:00 | 01:56:11 | 00:00:00 | |
| SONDE2-11 | 2026-09-01 01:56:30 | 48.29022 | 17.52537 | 350° | 9km/h | 31152m | -25.9m/s | -42.5°C | 0.7% | -1.0hPa | 2.6V | 00:00:00 | 00:00:00 | 00:00:00 | |
| PG1ADW-2 | 2026-09-01 01:56:28 | 48.29016 | 17.52540 | 320° | 18km/h | 31204m | -25.4m/s | -42.5°C | 2.8% | 0hPa | 2.6V | 00:00:00 | 00:00:00 | 08:30:00 | |
| OM5KV | 2026-09-01 01:56:26 | 48.29013 | 17.52543 | 324° | 15km/h | 31229m | -25.4m/s | -42.4°C | 0.8% | 0hPa | 2.6V | 08:29:00 | 00:00:00 | 00:00:00 | |
| OE5DXL-15 | 2026-09-01 01:56:25 | 48.29008 | 17.52549 | 311° | 20km/h | 31278m | -25.8m/s | -41.9°C | 2.6% | 0hPa | 2.6V | 00:00:00 | 00:00:00 | 00:00:00 | |
| SP3BTT-10 | 2026-09-01 01:56:24 | 48.29006 | 17.52552 | 324° | 24km/h | 31304m | -27.0m/s | -41.7°C | 2.6% | 0hPa | 2.6V | 00:00:00 | 00:00:00 | 00:00:00 | |
| OE5DRO-10 | 2026-09-01 01:56:22 | 48.29002 | 17.52554 | 350° | 20km/h | 31357m | -26.3m/s | -41.6°C | 2.6% | 0hPa | 2.5V | 00:00:00 | 00:00:00 | 00:00:00 | |
| OE5MMP-10 | 2026-09-01 01:56:21 | 48.29000 | 17.52554 | 12° | 20km/h | 31382m | -25.3m/s | -41.5°C | 2.5% | 0hPa | 2.5V | 00:00:00 | 01:56:01 | 00:00:00 | |
| OE3JTB-15 | 2026-09-01 01:56:20 | 48.28997 | 17.52553 | 11° | 24km/h | 31406m | -24.9m/s | -41.5°C | 2.6% | 0hPa | 2.5V | 00:00:00 | 01:56:00 | 00:00:00 | |
| DO3MHA-11 | 2026-09-01 01:56:19 | 48.28994 | 17.52551 | 16° | 22km/h | 31429m | -23.0m/s | -41.4°C | 2.6% | 0hPa | 2.5V | 00:00:00 | 01:55:59 | 00:00:00 | |
| HA6NAB-11 | 2026-09-01 01:56:18 | 48.28994 | 17.52551 | 17° | 16km/h | 31429m | -23.1m/s | -41.5°C | 0.7% | 0hPa | 2.5V | 08:29:00 | 00:00:00 | 00:00:00 | |
| S52SK | 2026-09-01 01:56:16 | 48.28984 | 17.52546 | 14° | 24km/h | 31473m | -21.0m/s | -41.4°C | 0.7% | 0hPa | 2.5V | 00:00:00 | 00:00:00 | 00:00:00 | |
| OM5KV | 2026-09-01 01:56:15 | 48.28978 | 17.52544 | 14° | 24km/h | 31494m | -21.9m/s | -41.5°C | 0.7% | 0hPa | 2.5V | 08:29:00 | 00:00:00 | 00:00:00 | |
| OM5KV | 2026-09-01 01:56:14 | 48.28972 | 17.52542 | 12° | 24km/h | 31517m | -22.8m/s | -41.6°C | 0.7% | 0hPa | 2.5V | 08:29:00 | 00:00:00 | 00:00:00 | |
| OE3OSB-13 | 2026-09-01 01:56:13 | 48.28960 | 17.52540 | 354° | 26km/h | 31563m | -23.9m/s | -41.7°C | 0.7% | -1.0hPa | 2.5V | 00:00:00 | 00:00:00 | 00:00:00 | |
| HA6NAB-11 | 2026-09-01 01:56:12 | 48.28960 | 17.52540 | 355° | 26km/h | 31563m | -23.9m/s | -41.7°C | 0.7% | 0hPa | 2.5V | 08:29:00 | 00:00:00 | 00:00:00 | |
| OE5MMP-10 | 2026-09-01 01:56:11 | 48.28948 | 17.52539 | 18° | 24km/h | 31613m | -25.8m/s | -41.6°C | 2.7% | 0hPa | 2.5V | 00:00:00 | 01:55:51 | 00:00:00 | |
| DO3MHA-11 | 2026-09-01 01:56:09 | 48.28938 | 17.52532 | 21° | 24km/h | 31661m | -23.3m/s | -41.6°C | 2.7% | 0hPa | 2.6V | 00:00:00 | 01:55:49 | 00:00:00 | |
| PG1ADW-2 | 2026-09-01 01:56:08 | 48.28932 | 17.52529 | 28° | 26km/h | 31684m | -24.5m/s | -41.5°C | 2.7% | 0hPa | 2.5V | 00:00:00 | 01:55:48 | 00:00:00 | |
| HA6NAB-11 | 2026-09-01 01:56:06 | 48.28927 | 17.52524 | 32° | 24km/h | 31708m | -23.4m/s | -41.5°C | 0.7% | 0hPa | 2.5V | 08:29:00 | 00:00:00 | 00:00:00 | |
| OE5DRO-10 | 2026-09-01 01:56:03 | 48.28908 | 17.52503 | 52° | 22km/h | 31799m | -25.0m/s | -41.1°C | 2.6% | 0hPa | 2.5V | 00:00:00 | 00:00:00 | 00:00:00 | |
| OE5MMP-10 | 2026-09-01 01:56:01 | 48.28903 | 17.52489 | 68° | 27km/h | 31849m | -26.2m/s | -40.8°C | 2.6% | 0hPa | 2.5V | 00:00:00 | 01:55:41 | 00:00:00 | |
| HA6NAB-11 | 2026-09-01 01:56:00 | 48.28903 | 17.52489 | 69° | 22km/h | 31849m | -26.2m/s | -40.9°C | 0.7% | 0hPa | 2.5V | 08:29:00 | 00:00:00 | 00:00:00 | |
| DO3MHA-11 | 2026-09-01 01:55:59 | 48.28900 | 17.52473 | 75° | 27km/h | 31900m | -25.0m/s | -40.5°C | 2.5% | 0hPa | 2.5V | 00:00:00 | 01:55:39 | 00:00:00 | |
| OK1ALN | 2026-09-01 01:55:58 | 48.28900 | 17.52473 | 76° | 24km/h | 31900m | -25.1m/s | -40.5°C | 0.7% | 0hPa | 2.5V | 08:29:00 | 00:00:00 | 00:00:00 | |
| OM5KV | 2026-09-01 01:55:57 | 48.28899 | 17.52464 | 86° | 27km/h | 31925m | -25.3m/s | -40.4°C | 0.7% | 0hPa | 2.5V | 08:29:00 | 00:00:00 | 00:00:00 | |
| OE5DXL-15 | 2026-09-01 01:55:55 | 48.28899 | 17.52432 | 87° | 18km/h | 31999m | -24.8m/s | -40.4°C | 2.5% | 0hPa | 2.5V | 00:00:00 | 00:00:00 | 00:00:00 | |
| OM5KV | 2026-09-01 01:55:54 | 48.28899 | 17.52432 | 88° | 29km/h | 31999m | -24.8m/s | -40.5°C | 0.7% | 0hPa | 2.5V | 00:00:00 | 00:00:00 | 00:00:00 | |
| PETON7-10 | 2026-09-01 01:55:52 | 48.28898 | 17.52397 | 81° | 15km/h | 32071m | -24.6m/s | -40.3°C | 2.5% | 0hPa | 2.5V | 00:00:00 | 01:55:32 | 00:00:00 | |
| OE5MMP-10 | 2026-09-01 01:55:51 | 48.28896 | 17.52387 | 73° | 15km/h | 32095m | -24.6m/s | -40.2°C | 2.5% | 0hPa | 2.5V | 00:00:00 | 01:55:31 | 00:00:00 | |
| DO3MHA-11 | 2026-09-01 01:55:49 | 48.28893 | 17.52369 | 75° | 11km/h | 32143m | -23.4m/s | -39.8°C | 2.4% | 0hPa | 2.5V | 00:00:00 | 01:55:29 | 00:00:00 | |
| OM5KV | 2026-09-01 01:55:48 | 48.28893 | 17.52369 | 76° | 20km/h | 32143m | -23.4m/s | -39.8°C | 0.7% | 0hPa | 2.5V | 00:00:00 | 00:00:00 | 00:00:00 | |
| OM5KV | 2026-09-01 01:55:46 | 48.28890 | 17.52357 | 71° | 11km/h | 32189m | -23.9m/s | -39.4°C | 0.6% | 0hPa | 2.5V | 00:00:00 | 00:00:00 | 00:00:00 | |
| OE5DRO-10 | 2026-09-01 01:55:44 | 48.28891 | 17.52351 | 167° | 15km/h | 32259m | -23.9m/s | -39.1°C | 2.3% | 0hPa | 2.5V | 00:00:00 | 00:00:00 | 00:00:00 | |
| PG1ADW-2 | 2026-09-01 01:55:42 | 48.28896 | 17.52349 | 163° | 24km/h | 32306m | -23.1m/s | -39.3°C | 2.3% | 0hPa | 2.6V | 00:00:00 | 00:00:00 | 00:00:00 | |
| OE5MMP-10 | 2026-09-01 01:55:41 | 48.28900 | 17.52347 | 161° | 16km/h | 32329m | -22.7m/s | -39.4°C | 2.3% | 0hPa | 2.6V | 00:00:00 | 01:55:21 | 08:30:00 | |
| OM5KV | 2026-09-01 01:55:40 | 48.28900 | 17.52347 | 161° | 15km/h | 32329m | -22.7m/s | -39.4°C | 0.6% | 0hPa | 2.6V | 00:00:00 | 00:00:00 | 00:00:00 | |
| DO3MHA-11 | 2026-09-01 01:55:39 | 48.28905 | 17.52340 | 122° | 18km/h | 32375m | -24.2m/s | -39.4°C | 2.4% | 0hPa | 2.6V | 00:00:00 | 01:55:19 | 08:30:00 | |
| OK1ALN | 2026-09-01 01:55:38 | 48.28905 | 17.52340 | 123° | 16km/h | 32375m | -24.2m/s | -39.5°C | 0.6% | 0hPa | 2.6V | 00:00:00 | 00:00:00 | 00:00:00 | |
| PETON7-10 | 2026-09-01 01:55:35 | 48.28905 | 17.52317 | 48° | 24km/h | 32471m | -24.4m/s | -39.1°C | 2.3% | 0hPa | 2.6V | 00:00:00 | 00:00:00 | 00:00:00 | |
| DB0UT-7 | 2026-09-01 01:55:32 | 48.28892 | 17.52305 | 10° | 22km/h | 32545m | -24.9m/s | 0°C | 0% | 0hPa | 2.5V | 00:00:00 | 00:00:00 | 00:00:00 | |
| OE5MMP-10 | 2026-09-01 01:55:31 | 48.28887 | 17.52304 | 12° | 22km/h | 32569m | -24.5m/s | -39.4°C | 2.4% | 0hPa | 2.5V | 00:00:00 | 01:55:11 | 00:00:00 | |
| DO3MHA-11 | 2026-09-01 01:55:29 | 48.28879 | 17.52300 | 19° | 26km/h | 32618m | -23.2m/s | -39.4°C | 2.3% | 0hPa | 2.5V | 00:00:00 | 01:55:09 | 00:00:00 | |
| SONDE2-11 | 2026-09-01 01:55:28 | 48.28876 | 17.52298 | 42° | 11km/h | 32640m | -23.8m/s | -39.4°C | 0.6% | -1.0hPa | 2.5V | 00:00:00 | 00:00:00 | 00:00:00 | |
| OE5DXL-15 | 2026-09-01 01:55:25 | 48.28877 | 17.52282 | 125° | 20km/h | 32710m | -23.5m/s | -39.2°C | 2.3% | 0hPa | 2.5V | 00:00:00 | 00:00:00 | 00:00:00 | |
| OM5KV | 2026-09-01 01:55:24 | 48.28877 | 17.52282 | 126° | 24km/h | 32710m | -23.5m/s | -39.2°C | 0.6% | 0hPa | 2.5V | 00:00:00 | 00:00:00 | 00:00:00 | |
| OM5KV | 2026-09-01 01:55:23 | 48.28881 | 17.52274 | 129° | 31km/h | 32732m | -23.9m/s | -39.2°C | 0.6% | 0hPa | 2.5V | 00:00:00 | 00:00:00 | 00:00:00 | |
| SP3BTT-10 | 2026-09-01 01:55:22 | 48.28892 | 17.52252 | 124° | 18km/h | 32781m | -24.8m/s | -39.2°C | 2.4% | 0hPa | 2.5V | 00:00:00 | 00:00:00 | 00:00:00 | |
| OE5MMP-10 | 2026-09-01 01:55:21 | 48.28898 | 17.52240 | 121° | 20km/h | 32806m | -26.8m/s | -39.1°C | 2.3% | 0hPa | 2.5V | 00:00:00 | 01:55:01 | 00:00:00 | |
| PETON7-10 | 2026-09-01 01:55:20 | 48.28902 | 17.52227 | 116° | 22km/h | 32833m | -28.5m/s | -39.1°C | 2.4% | 0hPa | 2.5V | 00:00:00 | 00:00:00 | 00:00:00 | |
| OM5KV | 2026-09-01 01:55:19 | 48.28906 | 17.52216 | 112° | 33km/h | 32862m | -30.3m/s | -39.1°C | 0.6% | 0hPa | 2.5V | 00:00:00 | 00:00:00 | 00:00:00 | |
| ATIDSZ-14 | 2026-09-01 01:55:18 | 48.28906 | 17.52216 | 112° | 33km/h | 32862m | -30.3m/s | -39.1°C | 0.6% | 0hPa | 2.5V | 00:00:00 | 00:00:00 | 00:00:00 | |
| OM5KV | 2026-09-01 01:55:17 | 48.28908 | 17.52204 | 109° | 31km/h | 32891m | -28.8m/s | -39.1°C | 0.6% | 0hPa | 2.5V | 00:00:00 | 00:00:00 | 00:00:00 | |
| S52SK | 2026-09-01 01:55:14 | 48.28913 | 17.52182 | 111° | 11km/h | 32980m | -32.6m/s | -38.9°C | 0.6% | 0hPa | 2.5V | 00:00:00 | 00:00:00 | 00:00:00 | |
| OM5KV | 2026-09-01 01:55:13 | 48.28913 | 17.52179 | 88° | 9km/h | 33012m | -33.3m/s | -39.0°C | 0.6% | 0hPa | 2.5V | 00:00:00 | 00:00:00 | 00:00:00 | |
| OE5MMP-10 | 2026-09-01 01:55:11 | 48.28914 | 17.52172 | 94° | 18km/h | 33108m | -28.2m/s | -39.1°C | 2.4% | 0hPa | 2.5V | 00:00:00 | 01:54:51 | 00:00:00 | |
| OE5WHR-10 | 2026-09-01 01:55:10 | 48.28914 | 17.52168 | 92° | 15km/h | 33137m | -30.2m/s | 0°C | 0% | 0hPa | 2.6V | 00:00:00 | 01:54:50 | 00:00:00 | |
| S52SK | 2026-09-01 01:55:09 | 48.28914 | 17.52168 | 93° | 15km/h | 33137m | -30.2m/s | -39.2°C | 0.7% | 0hPa | 2.6V | 00:00:00 | 00:00:00 | 00:00:00 | |
| HA6NAB-11 | 2026-09-01 01:55:08 | 48.28914 | 17.52161 | 92° | 22km/h | 33170m | -34.6m/s | -39.2°C | 0.6% | 0hPa | 2.6V | 00:00:00 | 00:00:00 | 00:00:00 | |
| OM5KV | 2026-09-01 01:55:07 | 48.28914 | 17.52152 | 99° | 26km/h | 33202m | -32.0m/s | -39.3°C | 0.6% | 0hPa | 2.6V | 00:00:00 | 00:00:00 | 00:00:00 | |
| OE5DRO-10 | 2026-09-01 01:55:06 | 48.28916 | 17.52133 | 101° | 16km/h | 33270m | -31.9m/s | -39.2°C | 2.5% | 0hPa | 2.6V | 00:00:00 | 00:00:00 | 00:00:00 | |
| PETON7-10 | 2026-09-01 01:55:05 | 48.28917 | 17.52125 | 93° | 20km/h | 33304m | -36.3m/s | -39.1°C | 2.5% | 0hPa | 2.6V | 00:00:00 | 01:54:45 | 00:00:00 | |
| GYPAP8-17 | 2026-09-01 01:55:04 | 48.28917 | 17.52125 | 93° | 16km/h | 33304m | -36.4m/s | -39.1°C | 0.7% | 0hPa | 2.6V | 00:00:00 | 00:00:00 | 00:00:00 | |
| HA6NAB-11 | 2026-09-01 01:55:03 | 48.28918 | 17.52113 | 110° | 15km/h | 33370m | -27.8m/s | -38.8°C | 0.6% | 0hPa | 2.6V | 00:00:00 | 00:00:00 | 00:00:00 | |
| OM5KV | 2026-09-01 01:55:02 | 48.28918 | 17.52113 | 110° | 15km/h | 33370m | -27.8m/s | -38.8°C | 0.6% | 0hPa | 2.6V | 00:00:00 | 00:00:00 | 00:00:00 | |
| OE5MMP-10 | 2026-09-01 01:55:01 | 48.28919 | 17.52106 | 178° | 18km/h | 33423m | -30.4m/s | -38.2°C | 2.3% | 0hPa | 2.6V | 00:00:00 | 01:54:41 | 00:00:00 | |
| OM5KV | 2026-09-01 01:54:59 | 48.28921 | 17.52107 | 204° | 9km/h | 33455m | -33.2m/s | -38.0°C | 0.6% | 0hPa | 2.6V | 00:00:00 | 00:00:00 | 00:00:00 | |
| PG1ADW-2 | 2026-09-01 01:54:57 | 48.28929 | 17.52105 | 152° | 20km/h | 33571m | -37.5m/s | -37.9°C | 2.2% | 0hPa | 2.6V | 00:00:00 | 00:00:00 | 00:00:00 | |
| OK1ALN | 2026-09-01 01:54:56 | 48.28929 | 17.52105 | 152° | 15km/h | 33571m | -37.5m/s | -37.9°C | 0.6% | 0hPa | 2.6V | 00:00:00 | 00:00:00 | 00:00:00 | |
| OE5DXL-15 | 2026-09-01 01:54:55 | 48.28935 | 17.52096 | 121° | 16km/h | 33645m | -34.7m/s | -37.7°C | 2.2% | 0hPa | 2.6V | 00:00:00 | 00:00:00 | 08:30:00 | |
| OE3JTB-15 | 2026-09-01 01:54:53 | 48.28939 | 17.52078 | 96° | 16km/h | 33711m | -37.1m/s | -37.2°C | 2.1% | 0hPa | 2.6V | 00:00:00 | 01:54:33 | 00:00:00 | |
| OE5MMP-10 | 2026-09-01 01:54:51 | 48.28941 | 17.52051 | 101° | 16km/h | 33783m | -43.4m/s | -36.7°C | 1.9% | 0hPa | 2.6V | 00:00:00 | 01:54:31 | 00:00:00 | |
| PETON7-10 | 2026-09-01 01:54:47 | 48.28947 | 17.52024 | 112° | 16km/h | 33976m | -39.2m/s | -36.8°C | 2.0% | 0hPa | 2.6V | 00:00:00 | 00:00:00 | 08:30:00 | |
| SP3BTT-10 | 2026-09-01 01:54:45 | 48.28950 | 17.52014 | 118° | 16km/h | 34039m | -24.1m/s | -37.2°C | 2.1% | 0hPa | 2.6V | 00:00:00 | 00:00:00 | 08:30:00 | |
| OE5MMP-10 | 2026-09-01 01:54:41 | 48.28957 | 17.51996 | 126° | 16km/h | 34065m | 11.6m/s | -37.3°C | 2.1% | 0hPa | 2.6V | 00:00:00 | 01:54:21 | 00:00:00 | |
| OE3OSB-13 | 2026-09-01 01:54:40 | 48.28958 | 17.51995 | 267° | 2km/h | 34055m | 7.4m/s | -37.3°C | 0.5% | -1.0hPa | 2.6V | 00:00:00 | 00:00:00 | 00:00:00 | |
| ATIDSZ-14 | 2026-09-01 01:54:37 | 48.28956 | 17.52004 | 290° | 22km/h | 34041m | 6.0m/s | -37.3°C | 0.6% | 0hPa | 2.6V | 00:00:00 | 00:00:00 | 00:00:00 | |
| PG1ADW-2 | 2026-09-01 01:54:36 | 48.28954 | 17.52021 | 272° | 22km/h | 34031m | 5.7m/s | -37.2°C | 2.1% | 0hPa | 2.6V | 00:00:00 | 01:54:16 | 00:00:00 | |
| OK1ALN | 2026-09-01 01:54:35 | 48.28954 | 17.52021 | 272° | 22km/h | 34031m | 5.7m/s | -37.3°C | 0.6% | 0hPa | 2.6V | 00:00:00 | 00:00:00 | 00:00:00 | |
| OM5KV | 2026-09-01 01:54:34 | 48.28955 | 17.52028 | 251° | 18km/h | 34025m | 6.5m/s | -37.2°C | 0.5% | 0hPa | 2.6V | 00:00:00 | 00:00:00 | 00:00:00 | |
| OE5MMP-10 | 2026-09-01 01:54:31 | 48.28970 | 17.52032 | 158° | 7km/h | 33999m | 5.8m/s | -37.1°C | 2.1% | 0hPa | 2.6V | 00:00:00 | 01:54:11 | 00:00:00 | |
| PETON7-10 | 2026-09-01 01:54:29 | 48.28976 | 17.52029 | 167° | 15km/h | 33986m | 6.3m/s | -37.1°C | 2.1% | 0hPa | 2.6V | 00:00:00 | 00:00:00 | 00:00:00 | |
| OM5KV | 2026-09-01 01:54:27 | 48.28977 | 17.52028 | 0° | 0km/h | 33980m | 5.4m/s | -37.2°C | 0.6% | 0hPa | 2.6V | 00:00:00 | 00:00:00 | 00:00:00 | |
| SONDE2-11 | 2026-09-01 01:54:26 | 48.28976 | 17.52029 | 33° | 4km/h | 33968m | 6.5m/s | -37.3°C | 0.5% | -1.0hPa | 2.6V | 00:00:00 | 00:00:00 | 00:00:00 | |
| OE5DXL-15 | 2026-09-01 01:54:25 | 48.28975 | 17.52027 | 55° | 18km/h | 33961m | 7.5m/s | -37.3°C | 2.1% | 0hPa | 2.6V | 00:00:00 | 00:00:00 | 00:00:00 | |
| DO3MHA-11 | 2026-09-01 01:54:24 | 48.28974 | 17.52025 | 74° | 13km/h | 33954m | 6.9m/s | -37.4°C | 2.1% | 0hPa | 2.6V | 00:00:00 | 01:54:04 | 00:00:00 | |
| OE5WHR-10 | 2026-09-01 01:54:23 | 48.28974 | 17.52022 | 88° | 22km/h | 33948m | 5.8m/s | 0°C | 0% | 0hPa | 2.6V | 00:00:00 | 00:00:00 | 00:00:00 | |
| OE5MMP-10 | 2026-09-01 01:54:21 | 48.28974 | 17.52020 | 205° | 18km/h | 33934m | 6.6m/s | -37.4°C | 2.1% | 0hPa | 2.6V | 00:00:00 | 01:54:01 | 00:00:00 | |
| GYPAP8-17 | 2026-09-01 01:54:16 | 48.28988 | 17.52021 | 170° | 27km/h | 33910m | 8.4m/s | -37.6°C | 0.6% | 0hPa | 2.6V | 00:00:00 | 00:00:00 | 00:00:00 | |
| OK1ALN | 2026-09-01 01:54:15 | 48.28995 | 17.52018 | 164° | 31km/h | 33902m | 6.9m/s | -37.6°C | 0.6% | 0hPa | 2.6V | 00:00:00 | 00:00:00 | 00:00:00 | |
| PETON7-10 | 2026-09-01 01:54:14 | 48.29009 | 17.52010 | 156° | 20km/h | 33890m | 6.1m/s | -37.6°C | 2.1% | 0hPa | 2.6V | 00:00:00 | 01:53:54 | 00:00:00 | |
| ATIDSZ-14 | 2026-09-01 01:54:13 | 48.29009 | 17.52010 | 157° | 24km/h | 33890m | 6.1m/s | -37.7°C | 0.5% | 0hPa | 2.6V | 00:00:00 | 00:00:00 | 00:00:00 | |
| OM5KV | 2026-09-01 01:54:12 | 48.29013 | 17.52006 | 150° | 16km/h | 33883m | 7.5m/s | -37.7°C | 0.5% | 0hPa | 2.6V | 00:00:00 | 00:00:00 | 00:00:00 | |
| OE5MMP-10 | 2026-09-01 01:54:11 | 48.29016 | 17.52001 | 71° | 22km/h | 33871m | 5.3m/s | -37.6°C | 2.1% | 0hPa | 2.6V | 00:00:00 | 01:53:51 | 08:30:00 | |
| SQ9EZE-16 | 2026-09-01 01:54:10 | 48.29016 | 17.52001 | 71° | 5km/h | 33871m | 5.3m/s | 0°C | 0% | 0hPa | 2.5V | 00:00:00 | 00:00:00 | 00:00:00 | |
| OE3OSB-13 | 2026-09-01 01:54:09 | 48.29015 | 17.51996 | 96° | 9km/h | 33860m | 6.3m/s | -37.8°C | 0.5% | -1.0hPa | 2.5V | 00:00:00 | 00:00:00 | 00:00:00 | |
| S52SK | 2026-09-01 01:54:07 | 48.29016 | 17.51991 | 124° | 16km/h | 33853m | 7.1m/s | -37.8°C | 0.5% | 0hPa | 2.5V | 00:00:00 | 00:00:00 | 00:00:00 | |
| OM5KV | 2026-09-01 01:54:06 | 48.29019 | 17.51986 | 141° | 24km/h | 33846m | 6.9m/s | -37.8°C | 0.6% | 0hPa | 2.5V | 00:00:00 | 00:00:00 | 00:00:00 | |
| OM5KV | 2026-09-01 01:54:04 | 48.29032 | 17.51977 | 165° | 33km/h | 33833m | 5.9m/s | -37.9°C | 0.6% | 0hPa | 2.5V | 00:00:00 | 00:00:00 | 00:00:00 | |
| SP3BTT-10 | 2026-09-01 01:54:02 | 48.29055 | 17.51976 | 192° | 20km/h | 33813m | 6.1m/s | -37.9°C | 2.1% | 0hPa | 2.5V | 00:00:00 | 00:00:00 | 00:00:00 | |
| OE5WHR-10 | 2026-09-01 01:54:01 | 48.29060 | 17.51978 | 190° | 24km/h | 33808m | 5.6m/s | 0°C | 0% | 0hPa | 2.5V | 00:00:00 | 00:00:00 | 00:00:00 | |
| PETON7-10 | 2026-09-01 01:53:59 | 48.29070 | 17.51975 | 149° | 24km/h | 33794m | 8.0m/s | -38.0°C | 2.2% | 0hPa | 2.5V | 00:00:00 | 00:00:00 | 00:00:00 | |
| OM5KV | 2026-09-01 01:53:58 | 48.29070 | 17.51975 | 149° | 20km/h | 33794m | 8.1m/s | -38.0°C | 0.6% | 0hPa | 2.6V | 00:00:00 | 00:00:00 | 00:00:00 | |
| OE5DXL-15 | 2026-09-01 01:53:55 | 48.29089 | 17.51948 | 144° | 20km/h | 33769m | 7.4m/s | -38.1°C | 2.2% | 0hPa | 2.6V | 00:00:00 | 00:00:00 | 00:00:00 | |
| OK1ALN | 2026-09-01 01:53:54 | 48.29089 | 17.51948 | 144° | 24km/h | 33769m | 7.5m/s | -38.1°C | 0.6% | 0hPa | 2.6V | 00:00:00 | 00:00:00 | 00:00:00 | |
| OM5KV | 2026-09-01 01:53:52 | 48.29104 | 17.51943 | 191° | 22km/h | 33748m | 5.8m/s | -38.3°C | 0.6% | 0hPa | 2.6V | 00:00:00 | 00:00:00 | 00:00:00 | |
| OE5MMP-10 | 2026-09-01 01:53:51 | 48.29110 | 17.51945 | 191° | 18km/h | 33742m | 6.4m/s | -38.2°C | 2.1% | 0hPa | 2.6V | 00:00:00 | 01:53:31 | 00:00:00 | |
| OM5KV | 2026-09-01 01:53:50 | 48.29110 | 17.51945 | 192° | 24km/h | 33742m | 6.4m/s | -38.3°C | 0.6% | 0hPa | 2.6V | 00:00:00 | 00:00:00 | 00:00:00 | |
| DB0UT-7 | 2026-09-01 01:53:47 | 48.29135 | 17.51941 | 162° | 18km/h | 33716m | 5.4m/s | 0°C | 0% | 0hPa | 2.6V | 00:00:00 | 01:53:27 | 00:00:00 | |
| OM5KV | 2026-09-01 01:53:46 | 48.29135 | 17.51941 | 162° | 24km/h | 33716m | 5.4m/s | -38.5°C | 0.6% | 0hPa | 2.6V | 00:00:00 | 00:00:00 | 00:00:00 | |
| PG1ADW-2 | 2026-09-01 01:53:45 | 48.29144 | 17.51938 | 174° | 18km/h | 33702m | 7.7m/s | -38.6°C | 2.2% | 0hPa | 2.6V | 00:00:00 | 00:00:00 | 00:00:00 | |
| PETON7-10 | 2026-09-01 01:53:44 | 48.29147 | 17.51937 | 178° | 20km/h | 33695m | 6.6m/s | -38.6°C | 2.3% | 0hPa | 2.6V | 00:00:00 | 00:00:00 | 00:00:00 | |
| OE5MMP-10 | 2026-09-01 01:53:41 | 48.29154 | 17.51930 | 127° | 18km/h | 33676m | 7.9m/s | -38.6°C | 2.2% | 0hPa | 2.6V | 00:00:00 | 01:53:21 | 00:00:00 | |
| OM5KV | 2026-09-01 01:53:40 | 48.29154 | 17.51930 | 127° | 18km/h | 33676m | 8.0m/s | -38.7°C | 0.6% | 0hPa | 2.5V | 00:00:00 | 00:00:00 | 00:00:00 | |
| OE5WHR-10 | 2026-09-01 01:53:39 | 48.29160 | 17.51914 | 120° | 24km/h | 33661m | 5.6m/s | 0°C | 0% | 0hPa | 2.5V | 00:00:00 | 01:53:19 | 00:00:00 | |
| OE3OSB-13 | 2026-09-01 01:53:38 | 48.29164 | 17.51904 | 117° | 27km/h | 33655m | 5.5m/s | -38.7°C | 0.6% | -1.0hPa | 2.5V | 00:00:00 | 00:00:00 | 00:00:00 | |
| OK1ALN | 2026-09-01 01:53:35 | 48.29171 | 17.51884 | 102° | 9km/h | 33634m | 7.3m/s | -38.7°C | 0.6% | 0hPa | 2.5V | 00:00:00 | 00:00:00 | 00:00:00 | |
| OM5KV | 2026-09-01 01:53:34 | 48.29171 | 17.51884 | 102° | 9km/h | 33634m | 7.3m/s | -38.7°C | 0.6% | 0hPa | 2.5V | 00:00:00 | 00:00:00 | 00:00:00 | |
| SP3BTT-10 | 2026-09-01 01:53:32 | 48.29169 | 17.51876 | 81° | 16km/h | 33615m | 7.5m/s | -38.7°C | 2.2% | 0hPa | 2.5V | 00:00:00 | 00:00:00 | 00:00:00 | |
| GYPAP8-17 | 2026-09-01 01:53:29 | 48.29169 | 17.51864 | 96° | 24km/h | 33600m | 6.7m/s | -38.7°C | 0.6% | 0hPa | 2.5V | 00:00:00 | 00:00:00 | 00:00:00 | |
| PETON7-10 | 2026-09-01 01:53:28 | 48.29170 | 17.51845 | 88° | 18km/h | 33588m | 6.9m/s | -38.6°C | 2.2% | 0hPa | 2.5V | 00:00:00 | 01:53:08 | 00:00:00 | |
| OM5KV | 2026-09-01 01:53:27 | 48.29170 | 17.51845 | 88° | 27km/h | 33588m | 6.9m/s | -38.6°C | 0.6% | 0hPa | 2.5V | 00:00:00 | 00:00:00 | 00:00:00 | |
| OE3JTB-15 | 2026-09-01 01:53:26 | 48.29168 | 17.51826 | 75° | 16km/h | 33573m | 7.3m/s | -38.6°C | 2.2% | 0hPa | 2.5V | 00:00:00 | 01:53:06 | 00:00:00 | |
| OE5DXL-15 | 2026-09-01 01:53:25 | 48.29167 | 17.51817 | 78° | 16km/h | 33566m | 5.8m/s | -38.6°C | 2.2% | 0hPa | 2.5V | 00:00:00 | 00:00:00 | 00:00:00 | |
| SONDE2-11 | 2026-09-01 01:53:24 | 48.29166 | 17.51809 | 87° | 22km/h | 33559m | 7.5m/s | -38.6°C | 0.6% | -1.0hPa | 2.6V | 00:00:00 | 00:00:00 | 00:00:00 | |
| OM5KV | 2026-09-01 01:53:23 | 48.29166 | 17.51809 | 89° | 22km/h | 33559m | 7.5m/s | -38.6°C | 0.6% | 0hPa | 2.6V | 00:00:00 | 00:00:00 | 00:00:00 | |
| OE5MMP-10 | 2026-09-01 01:53:21 | 48.29169 | 17.51787 | 108° | 16km/h | 33538m | 5.9m/s | -38.6°C | 2.2% | 0hPa | 2.6V | 00:00:00 | 01:53:01 | 00:00:00 | |
| OE5WHR-10 | 2026-09-01 01:53:18 | 48.29168 | 17.51778 | 28° | 18km/h | 33516m | 5.7m/s | 0°C | 0% | 0hPa | 2.6V | 00:00:00 | 00:00:00 | 00:00:00 | |
| OM5KV | 2026-09-01 01:53:16 | 48.29166 | 17.51775 | 49° | 11km/h | 33510m | 6.2m/s | -38.9°C | 0.6% | 0hPa | 2.6V | 00:00:00 | 00:00:00 | 00:00:00 | |
| PETON7-10 | 2026-09-01 01:53:13 | 48.29160 | 17.51749 | 71° | 16km/h | 33483m | 7.8m/s | -39.0°C | 2.2% | 0hPa | 2.6V | 00:00:00 | 00:00:00 | 00:00:00 | |
| ATIDSZ-14 | 2026-09-01 01:53:12 | 48.29160 | 17.51749 | 71° | 26km/h | 33483m | 7.8m/s | -39.1°C | 0.6% | 0hPa | 2.6V | 00:00:00 | 00:00:00 | 00:00:00 | |
| OE5MMP-10 | 2026-09-01 01:53:11 | 48.29155 | 17.51732 | 64° | 15km/h | 33467m | 6.7m/s | -39.2°C | 2.2% | 0hPa | 2.6V | 00:00:00 | 01:52:51 | 00:00:00 | |
| OM5KV | 2026-09-01 01:53:10 | 48.29155 | 17.51732 | 65° | 22km/h | 33467m | 6.8m/s | -39.3°C | 0.6% | 0hPa | 2.6V | 00:00:00 | 00:00:00 | 00:00:00 | |
| OE3OSB-13 | 2026-09-01 01:53:07 | 48.29156 | 17.51710 | 148° | 9km/h | 33439m | 5.8m/s | -39.5°C | 0.6% | -1.0hPa | 2.6V | 00:00:00 | 00:00:00 | 00:00:00 | |
| S52SK | 2026-09-01 01:53:06 | 48.29156 | 17.51710 | 149° | 9km/h | 33439m | 5.8m/s | -39.5°C | 0.6% | 0hPa | 2.6V | 00:00:00 | 00:00:00 | 00:00:00 | |
| OM5KV | 2026-09-01 01:53:05 | 48.29158 | 17.51709 | 217° | 5km/h | 33433m | 6.3m/s | -39.6°C | 0.6% | 0hPa | 2.6V | 00:00:00 | 00:00:00 | 00:00:00 | |
| HA6NAB-11 | 2026-09-01 01:53:04 | 48.29158 | 17.51712 | 276° | 9km/h | 33425m | 8.8m/s | -39.6°C | 0.6% | 0hPa | 2.6V | 00:00:00 | 00:00:00 | 00:00:00 | |
| SONDE2-11 | 2026-09-01 01:52:53 | 48.29133 | 17.51710 | 226° | 11km/h | 33338m | 6.9m/s | -40.1°C | 0.6% | -1.0hPa | 2.6V | 00:00:00 | 00:00:00 | 00:00:00 | |
| OK1ALN | 2026-09-01 01:52:52 | 48.29132 | 17.51707 | 260° | 9km/h | 33345m | 5.8m/s | -40.1°C | 0.6% | 0hPa | 2.6V | 00:00:00 | 00:00:00 | 00:00:00 | |
| OE5MMP-10 | 2026-09-01 01:52:51 | 48.29136 | 17.51712 | 197° | 11km/h | 33331m | 7.8m/s | -40.0°C | 2.4% | 0hPa | 2.6V | 00:00:00 | 01:52:31 | 00:00:00 | |
| OM5KV | 2026-09-01 01:52:49 | 48.29140 | 17.51713 | 175° | 20km/h | 33323m | 7.5m/s | -40.1°C | 0.6% | 0hPa | 2.6V | 00:00:00 | 00:00:00 | 00:00:00 | |
| HA6NAB-11 | 2026-09-01 01:52:47 | 48.29149 | 17.51709 | 154° | 18km/h | 33310m | 5.4m/s | -40.0°C | 0.6% | 0hPa | 2.6V | 00:00:00 | 00:00:00 | 00:00:00 | |
| HA6NAB-11 | 2026-09-01 01:52:42 | 48.29152 | 17.51704 | 38° | 4km/h | 33276m | 6.4m/s | -40.0°C | 0.7% | 0hPa | 2.6V | 00:00:00 | 00:00:00 | 00:00:00 | |
| OE5MMP-10 | 2026-09-01 01:52:41 | 48.29154 | 17.51700 | 140° | 18km/h | 33261m | 7.1m/s | -39.9°C | 2.4% | 0hPa | 2.6V | 00:00:00 | 01:52:21 | 08:30:00 | |
| OM5KV | 2026-09-01 01:52:38 | 48.29161 | 17.51694 | 164° | 20km/h | 33248m | 5.6m/s | -39.9°C | 0.6% | 0hPa | 2.6V | 00:00:00 | 00:00:00 | 00:00:00 | |
| OE5DRO-10 | 2026-09-01 01:52:37 | 48.29171 | 17.51693 | 196° | 20km/h | 33234m | 7.5m/s | -39.8°C | 2.4% | 0hPa | 2.6V | 00:00:00 | 00:00:00 | 00:00:00 | |
| OE3OSB-13 | 2026-09-01 01:52:36 | 48.29176 | 17.51696 | 212° | 18km/h | 33227m | 6.9m/s | -39.8°C | 0.6% | -1.0hPa | 2.6V | 00:00:00 | 00:00:00 | 00:00:00 | |
| SP3BTT-10 | 2026-09-01 01:52:32 | 48.29191 | 17.51708 | 167° | 24km/h | 33202m | 7.7m/s | 0°C | 0% | 0hPa | 2.6V | 00:00:00 | 00:00:00 | 00:00:00 | |
| OK1ALN | 2026-09-01 01:52:31 | 48.29191 | 17.51708 | 167° | 16km/h | 33202m | 7.8m/s | -39.8°C | 0.6% | 0hPa | 2.6V | 00:00:00 | 00:00:00 | 00:00:00 | |
| DO3MHA-11 | 2026-09-01 01:52:28 | 48.29202 | 17.51680 | 95° | 20km/h | 33172m | 8.5m/s | -39.7°C | 2.4% | 0hPa | 2.6V | 00:00:00 | 01:52:08 | 00:00:00 | |
| OE5DXL-15 | 2026-09-01 01:52:25 | 48.29200 | 17.51658 | 91° | 26km/h | 33151m | 5.5m/s | -39.7°C | 2.4% | 0hPa | 2.6V | 00:00:00 | 00:00:00 | 00:00:00 | |
| SONDE2-11 | 2026-09-01 01:52:22 | 48.29212 | 17.51635 | 146° | 24km/h | 33122m | 6.3m/s | -39.7°C | 0.6% | -1.0hPa | 2.6V | 00:00:00 | 00:00:00 | 00:00:00 | |
| OE5MMP-10 | 2026-09-01 01:52:21 | 48.29212 | 17.51635 | 147° | 29km/h | 33122m | 6.2m/s | -39.7°C | 2.3% | 0hPa | 2.6V | 00:00:00 | 01:52:01 | 00:00:00 | |
| OM5KV | 2026-09-01 01:52:20 | 48.29212 | 17.51635 | 147° | 24km/h | 33122m | 6.3m/s | -39.7°C | 0.6% | 0hPa | 2.6V | 00:00:00 | 00:00:00 | 00:00:00 | |
| PG1ADW-2 | 2026-09-01 01:52:18 | 48.29224 | 17.51622 | 125° | 27km/h | 33100m | 6.5m/s | -39.6°C | 2.4% | 0hPa | 2.6V | 00:00:00 | 00:00:00 | 00:00:00 | |
| DO3MHA-11 | 2026-09-01 01:52:16 | 48.29228 | 17.51608 | 101° | 31km/h | 33087m | 6.7m/s | -39.6°C | 2.3% | 0hPa | 2.6V | 00:00:00 | 01:51:56 | 00:00:00 | |
| OE5MMP-10 | 2026-09-01 01:52:11 | 48.29245 | 17.51540 | 114° | 24km/h | 33054m | 5.8m/s | -39.7°C | 2.4% | 0hPa | 2.6V | 00:00:00 | 01:51:51 | 00:00:00 | |
| OK1SLM-15 | 2026-09-01 01:52:10 | 48.29245 | 17.51540 | 115° | 37km/h | 33054m | 5.8m/s | 0°C | 0% | 0hPa | 2.6V | 00:00:00 | 00:00:00 | 00:00:00 | |
| OM5KV | 2026-09-01 01:52:09 | 48.29248 | 17.51528 | 108° | 29km/h | 33047m | 8.2m/s | -39.7°C | 0.6% | 0hPa | 2.6V | 00:00:00 | 00:00:00 | 00:00:00 | |
| DO3MHA-11 | 2026-09-01 01:52:05 | 48.29251 | 17.51497 | 112° | 26km/h | 33012m | 7.5m/s | -39.6°C | 2.3% | 0hPa | 2.6V | 00:00:00 | 01:51:45 | 00:00:00 | |
| OK1SLM-15 | 2026-09-01 01:52:04 | 48.29251 | 17.51497 | 112° | 18km/h | 33012m | 7.5m/s | 0°C | 0% | 0hPa | 2.6V | 00:00:00 | 00:00:00 | 00:00:00 | |
| OM5KV | 2026-09-01 01:52:03 | 48.29253 | 17.51490 | 118° | 26km/h | 33005m | 7.7m/s | -39.6°C | 0.6% | 0hPa | 2.6V | 00:00:00 | 00:00:00 | 00:00:00 | |
| SP3BTT-10 | 2026-09-01 01:52:02 | 48.29259 | 17.51471 | 113° | 26km/h | 32990m | 6.7m/s | 0°C | 0% | 0hPa | 2.6V | 00:00:00 | 00:00:00 | 00:00:00 | |
| OE5MMP-10 | 2026-09-01 01:52:01 | 48.29262 | 17.51460 | 105° | 26km/h | 32983m | 7.7m/s | -39.6°C | 2.4% | 0hPa | 2.6V | 00:00:00 | 01:51:41 | 00:00:00 | |
| OE3JTB-15 | 2026-09-01 01:51:59 | 48.29264 | 17.51439 | 90° | 26km/h | 32968m | 6.3m/s | -39.6°C | 2.3% | 0hPa | 2.6V | 00:00:00 | 01:51:39 | 00:00:00 | |
| PG1ADW-2 | 2026-09-01 01:51:58 | 48.29264 | 17.51429 | 92° | 24km/h | 32961m | 6.5m/s | -39.7°C | 2.4% | 0hPa | 2.6V | 00:00:00 | 01:51:38 | 08:30:00 | |
| OM5KV | 2026-09-01 01:51:57 | 48.29264 | 17.51429 | 93° | 26km/h | 32961m | 6.6m/s | -39.7°C | 0.6% | 0hPa | 2.6V | 00:00:00 | 00:00:00 | 00:00:00 | |
| GYPAP8-17 | 2026-09-01 01:51:56 | 48.29264 | 17.51419 | 102° | 26km/h | 32954m | 7.6m/s | -39.7°C | 0.7% | 0hPa | 2.6V | 00:00:00 | 00:00:00 | 00:00:00 | |
| OE5DXL-15 | 2026-09-01 01:51:55 | 48.29269 | 17.51400 | 119° | 26km/h | 32938m | 7.0m/s | -39.6°C | 2.3% | 0hPa | 2.6V | 00:00:00 | 00:00:00 | 00:00:00 | |
| DO3MHA-11 | 2026-09-01 01:51:54 | 48.29273 | 17.51390 | 123° | 26km/h | 32932m | 5.8m/s | -39.6°C | 2.3% | 0hPa | 2.6V | 00:00:00 | 01:51:34 | 00:00:00 | |
| OM5KV | 2026-09-01 01:51:51 | 48.29279 | 17.51374 | 106° | 20km/h | 32918m | 8.8m/s | -39.6°C | 0.7% | 0hPa | 2.6V | 00:00:00 | 00:00:00 | 00:00:00 | |
| OM5KV | 2026-09-01 01:51:47 | 48.29279 | 17.51343 | 101° | 27km/h | 32890m | 8.3m/s | -39.7°C | 0.6% | 0hPa | 2.6V | 00:00:00 | 00:00:00 | 00:00:00 | |
| OM5KV | 2026-09-01 01:51:46 | 48.29281 | 17.51332 | 108° | 33km/h | 32882m | 7.6m/s | -39.6°C | 0.6% | 0hPa | 2.6V | 00:00:00 | 00:00:00 | 00:00:00 | |
| OE5MMP-10 | 2026-09-01 01:51:41 | 48.29287 | 17.51254 | 78° | 20km/h | 32841m | 6.3m/s | -39.7°C | 2.4% | 0hPa | 2.6V | 00:00:00 | 01:51:21 | 00:00:00 | |
| OE5DRO-10 | 2026-09-01 01:51:40 | 48.29286 | 17.51244 | 84° | 18km/h | 32834m | 6.7m/s | -39.6°C | 2.4% | 0hPa | 2.6V | 00:00:00 | 00:00:00 | 00:00:00 | |
| DO3MHA-11 | 2026-09-01 01:51:38 | 48.29287 | 17.51225 | 106° | 20km/h | 32820m | 6.2m/s | -39.6°C | 2.4% | 0hPa | 2.6V | 00:00:00 | 01:51:18 | 00:00:00 | |
| GYPAP8-17 | 2026-09-01 01:51:36 | 48.29288 | 17.51218 | 113° | 20km/h | 32814m | 5.7m/s | -39.7°C | 0.6% | 0hPa | 2.6V | 00:00:00 | 00:00:00 | 00:00:00 | |
| OM5KV | 2026-09-01 01:51:35 | 48.29290 | 17.51212 | 110° | 15km/h | 32807m | 6.4m/s | -39.6°C | 0.6% | 0hPa | 2.6V | 00:00:00 | 00:00:00 | 00:00:00 | |
| OE3OSB-13 | 2026-09-01 01:51:34 | 48.29289 | 17.51197 | 72° | 15km/h | 32785m | 5.9m/s | -39.6°C | 0.6% | -1.0hPa | 2.6V | 00:00:00 | 00:00:00 | 00:00:00 | |
| SP3BTT-10 | 2026-09-01 01:51:32 | 48.29288 | 17.51191 | 83° | 24km/h | 32779m | 5.8m/s | 0°C | 0% | 0hPa | 2.6V | 00:00:00 | 00:00:00 | 00:00:00 | |
| OE5MMP-10 | 2026-09-01 01:51:31 | 48.29288 | 17.51183 | 95° | 20km/h | 32772m | 7.9m/s | -39.5°C | 2.3% | 0hPa | 2.6V | 00:00:00 | 01:51:11 | 00:00:00 | |
| OE3JTB-15 | 2026-09-01 01:51:30 | 48.29290 | 17.51173 | 103° | 20km/h | 32765m | 7.4m/s | -39.5°C | 2.3% | 0hPa | 2.6V | 00:00:00 | 00:00:00 | 00:00:00 | |
| OM5KV | 2026-09-01 01:51:29 | 48.29290 | 17.51173 | 104° | 29km/h | 32765m | 7.4m/s | -39.6°C | 0.6% | 0hPa | 2.6V | 00:00:00 | 00:00:00 | 00:00:00 | |
| DO3MHA-11 | 2026-09-01 01:51:28 | 48.29293 | 17.51151 | 103° | 15km/h | 32753m | 4.6m/s | -39.5°C | 2.3% | 0hPa | 2.6V | 00:00:00 | 01:51:08 | 08:30:00 | |
| HA6NAB-11 | 2026-09-01 01:51:26 | 48.29294 | 17.51141 | 95° | 24km/h | 32747m | 6.4m/s | -39.5°C | 0.6% | 0hPa | 2.6V | 00:00:00 | 00:00:00 | 00:00:00 | |
| OE5DXL-15 | 2026-09-01 01:51:25 | 48.29292 | 17.51129 | 39° | 16km/h | 32731m | 7.8m/s | -39.5°C | 2.3% | 0hPa | 2.6V | 00:00:00 | 00:00:00 | 00:00:00 | |
| OM5KV | 2026-09-01 01:51:24 | 48.29292 | 17.51129 | 40° | 13km/h | 32731m | 7.9m/s | -39.5°C | 0.6% | 0hPa | 2.6V | 00:00:00 | 00:00:00 | 00:00:00 | |
| OM5KV | 2026-09-01 01:51:23 | 48.29290 | 17.51127 | 8° | 11km/h | 32724m | 6.8m/s | -39.6°C | 0.6% | 0hPa | 2.6V | 00:00:00 | 00:00:00 | 00:00:00 | |
| OE5MMP-10 | 2026-09-01 01:51:21 | 48.29284 | 17.51125 | 86° | 16km/h | 32704m | 7.1m/s | -39.6°C | 2.3% | 0hPa | 2.6V | 00:00:00 | 01:51:01 | 00:00:00 | |
| SONDE2-11 | 2026-09-01 01:51:20 | 48.29286 | 17.51118 | 121° | 13km/h | 32691m | 6.1m/s | -39.6°C | 0.6% | -1.0hPa | 2.6V | 00:00:00 | 00:00:00 | 00:00:00 | |
| DO3MHA-11 | 2026-09-01 01:51:18 | 48.29288 | 17.51114 | 119° | 22km/h | 32684m | 7.4m/s | -39.6°C | 2.4% | 0hPa | 2.6V | 00:00:00 | 01:50:58 | 00:00:00 | |
| OM5KV | 2026-09-01 01:51:17 | 48.29288 | 17.51114 | 119° | 13km/h | 32684m | 7.4m/s | -39.7°C | 0.7% | 0hPa | 2.6V | 00:00:00 | 00:00:00 | 00:00:00 | |
| OE5MMP-10 | 2026-09-01 01:51:11 | 48.29285 | 17.51060 | 60° | 22km/h | 32638m | 5.3m/s | -39.7°C | 2.4% | 0hPa | 2.6V | 00:00:00 | 01:50:51 | 08:30:00 | |
| ATIDSZ-14 | 2026-09-01 01:51:10 | 48.29285 | 17.51060 | 60° | 29km/h | 32638m | 5.3m/s | -39.8°C | 0.7% | 0hPa | 2.6V | 00:00:00 | 00:00:00 | 00:00:00 | |
| DO3MHA-11 | 2026-09-01 01:51:08 | 48.29268 | 17.51043 | 13° | 16km/h | 32616m | 5.8m/s | -39.7°C | 2.4% | 0hPa | 2.6V | 00:00:00 | 01:50:48 | 00:00:00 | |
| OK1ALN | 2026-09-01 01:51:07 | 48.29268 | 17.51043 | 13° | 26km/h | 32616m | 5.9m/s | -39.8°C | 0.7% | 0hPa | 2.6V | 00:00:00 | 00:00:00 | 00:00:00 | |
| OM5KV | 2026-09-01 01:51:06 | 48.29262 | 17.51042 | 8° | 22km/h | 32611m | 5.0m/s | -39.8°C | 0.7% | 0hPa | 2.6V | 00:00:00 | 00:00:00 | 00:00:00 | |
| DB0UT-7 | 2026-09-01 01:51:04 | 48.29257 | 17.51033 | 115° | 16km/h | 32590m | 7.4m/s | 0°C | 0% | 0hPa | 2.6V | 00:00:00 | 00:00:00 | 00:00:00 | |
| OE3OSB-13 | 2026-09-01 01:51:03 | 48.29263 | 17.51020 | 130° | 24km/h | 32577m | 5.8m/s | -39.5°C | 0.6% | -1.0hPa | 2.6V | 00:00:00 | 00:00:00 | 00:00:00 | |
| SONDE2-11 | 2026-09-01 01:50:49 | 48.29267 | 17.50957 | 209° | 15km/h | 32481m | 5.9m/s | -39.4°C | 0.6% | -1.0hPa | 2.6V | 00:00:00 | 00:00:00 | 00:00:00 | |
| DO3MHA-11 | 2026-09-01 01:50:48 | 48.29267 | 17.50957 | 210° | 13km/h | 32482m | 5.8m/s | -39.3°C | 2.3% | 0hPa | 2.6V | 00:00:00 | 01:50:28 | 00:00:00 | |
| S52SK | 2026-09-01 01:50:47 | 48.29267 | 17.50957 | 211° | 16km/h | 32482m | 5.9m/s | -39.4°C | 0.6% | 0hPa | 2.6V | 00:00:00 | 00:00:00 | 00:00:00 | |
| OK1ALN | 2026-09-01 01:50:46 | 48.29271 | 17.50959 | 201° | 15km/h | 32476m | 5.9m/s | -39.4°C | 0.6% | 0hPa | 2.6V | 00:00:00 | 00:00:00 | 00:00:00 | |
| OK1SLM-15 | 2026-09-01 01:50:45 | 48.29274 | 17.50960 | 175° | 11km/h | 32469m | 7.2m/s | 0°C | 0% | 0hPa | 2.6V | 00:00:00 | 00:00:00 | 00:00:00 | |
| OE5DRO-10 | 2026-09-01 01:50:43 | 48.29277 | 17.50946 | 80° | 15km/h | 32450m | 5.6m/s | -39.5°C | 2.3% | 0hPa | 2.6V | 00:00:00 | 00:00:00 | 00:00:00 | |
| OE5MMP-10 | 2026-09-01 01:50:41 | 48.29274 | 17.50933 | 62° | 15km/h | 32437m | 7.0m/s | -39.5°C | 2.3% | 0hPa | 2.6V | 00:00:00 | 01:50:21 | 00:00:00 | |
| DO3MHA-11 | 2026-09-01 01:50:38 | 48.29274 | 17.50931 | 209° | 15km/h | 32418m | 6.3m/s | -39.6°C | 2.3% | 0hPa | 2.6V | 00:00:00 | 01:50:18 | 00:00:00 | |
| OM5KV | 2026-09-01 01:50:36 | 48.29277 | 17.50932 | 190° | 16km/h | 32411m | 6.5m/s | -39.7°C | 0.6% | 0hPa | 2.6V | 00:00:00 | 00:00:00 | 00:00:00 | |
| DB0UT-7 | 2026-09-01 01:50:34 | 48.29293 | 17.50930 | 164° | 16km/h | 32391m | 5.0m/s | 0°C | 0% | 0hPa | 2.6V | 00:00:00 | 01:50:14 | 00:00:00 | |
| OE3OSB-13 | 2026-09-01 01:50:32 | 48.29305 | 17.50926 | 168° | 5km/h | 32372m | 7.0m/s | -39.6°C | 0.6% | -1.0hPa | 2.6V | 00:00:00 | 00:00:00 | 00:00:00 | |
| OE5MMP-10 | 2026-09-01 01:50:31 | 48.29305 | 17.50925 | 169° | 15km/h | 32372m | 7.0m/s | -39.6°C | 2.4% | 0hPa | 2.6V | 00:00:00 | 01:50:11 | 00:00:00 | |
| HA6NAB-11 | 2026-09-01 01:50:30 | 48.29305 | 17.50925 | 170° | 7km/h | 32372m | 7.0m/s | -39.6°C | 0.7% | 0hPa | 2.6V | 00:00:00 | 00:00:00 | 00:00:00 | |
| ATIDSZ-14 | 2026-09-01 01:50:29 | 48.29306 | 17.50925 | 0° | 0km/h | 32366m | 6.1m/s | -39.6°C | 0.6% | 0hPa | 2.6V | 00:00:00 | 00:00:00 | 00:00:00 | |
| DO3MHA-11 | 2026-09-01 01:50:28 | 48.29305 | 17.50919 | 85° | 18km/h | 32353m | 7.7m/s | -39.5°C | 2.3% | 0hPa | 2.6V | 00:00:00 | 01:50:08 | 00:00:00 | |
| OM5KV | 2026-09-01 01:50:27 | 48.29305 | 17.50919 | 85° | 15km/h | 32353m | 7.8m/s | -39.5°C | 0.6% | 0hPa | 2.6V | 00:00:00 | 00:00:00 | 00:00:00 | |
| OE5DXL-15 | 2026-09-01 01:50:25 | 48.29307 | 17.50894 | 104° | 20km/h | 32333m | 5.6m/s | -39.3°C | 2.3% | 0hPa | 2.6V | 00:00:00 | 00:00:00 | 08:30:00 | |
| OE5DRO-10 | 2026-09-01 01:50:24 | 48.29308 | 17.50886 | 106° | 20km/h | 32326m | 7.3m/s | -39.3°C | 2.3% | 0hPa | 2.6V | 00:00:00 | 00:00:00 | 00:00:00 | |
| OM5KV | 2026-09-01 01:50:22 | 48.29310 | 17.50879 | 110° | 18km/h | 32319m | 7.2m/s | -39.3°C | 0.6% | 0hPa | 2.6V | 00:00:00 | 00:00:00 | 00:00:00 | |
| OE5MMP-10 | 2026-09-01 01:50:21 | 48.29313 | 17.50869 | 125° | 18km/h | 32306m | 5.0m/s | -39.2°C | 2.3% | 0hPa | 2.6V | 00:00:00 | 01:50:01 | 00:00:00 | |
| HA6NAB-11 | 2026-09-01 01:50:19 | 48.29315 | 17.50865 | 134° | 13km/h | 32301m | 5.7m/s | -39.3°C | 0.6% | 0hPa | 2.6V | 00:00:00 | 00:00:00 | 00:00:00 | |
| DO3MHA-11 | 2026-09-01 01:50:18 | 48.29322 | 17.50855 | 136° | 18km/h | 32287m | 7.4m/s | -39.2°C | 2.2% | 0hPa | 2.6V | 00:00:00 | 01:49:58 | 00:00:00 | |
| SONDE2-11 | 2026-09-01 01:50:17 | 48.29326 | 17.50848 | 131° | 26km/h | 32280m | 7.5m/s | -39.3°C | 0.6% | -1.0hPa | 2.6V | 00:00:00 | 00:00:00 | 00:00:00 | |
| OM5KV | 2026-09-01 01:50:13 | 48.29336 | 17.50826 | 110° | 15km/h | 32261m | 8.8m/s | -39.4°C | 0.6% | 0hPa | 2.6V | 00:00:00 | 00:00:00 | 00:00:00 | |
| OE5MMP-10 | 2026-09-01 01:50:11 | 48.29334 | 17.50814 | 59° | 22km/h | 32240m | 5.7m/s | -39.4°C | 2.2% | 0hPa | 2.6V | 00:00:00 | 01:49:51 | 00:00:00 | |
| ATIDSZ-14 | 2026-09-01 01:50:09 | 48.29332 | 17.50809 | 76° | 16km/h | 32232m | 8.8m/s | -39.5°C | 0.6% | 0hPa | 2.6V | 00:00:00 | 00:00:00 | 00:00:00 | |
| DO3MHA-11 | 2026-09-01 01:50:08 | 48.29332 | 17.50793 | 101° | 24km/h | 32217m | 5.6m/s | -39.6°C | 2.3% | 0hPa | 2.6V | 00:00:00 | 01:49:48 | 00:00:00 | |
| HA6NAB-11 | 2026-09-01 01:50:07 | 48.29333 | 17.50793 | 101° | 26km/h | 32217m | 5.7m/s | -39.7°C | 0.6% | 0hPa | 2.6V | 00:00:00 | 00:00:00 | 00:00:00 | |
| OE5DRO-10 | 2026-09-01 01:50:05 | 48.29337 | 17.50764 | 99° | 27km/h | 32196m | 7.5m/s | -40.0°C | 2.3% | 0hPa | 2.6V | 00:00:00 | 00:00:00 | 08:30:00 | |
| OE3JTB-15 | 2026-09-01 01:50:03 | 48.29338 | 17.50748 | 93° | 29km/h | 32183m | 5.2m/s | -40.1°C | 2.3% | 0hPa | 2.6V | 00:00:00 | 00:00:00 | 08:30:00 | |
| OE3OSB-13 | 2026-09-01 01:50:01 | 48.29341 | 17.50722 | 106° | 26km/h | 32162m | 6.8m/s | -40.5°C | 0.6% | -1.0hPa | 2.6V | 00:00:00 | 00:00:00 | 00:00:00 | |
| SONDE2-11 | 2026-09-01 01:49:47 | 48.29321 | 17.50577 | 90° | 33km/h | 32068m | 7.8m/s | -41.0°C | 0.6% | -1.0hPa | 2.6V | 00:00:00 | 00:00:00 | 00:00:00 | |
| OE5DRO-10 | 2026-09-01 01:49:46 | 48.29321 | 17.50577 | 91° | 27km/h | 32068m | 7.8m/s | -40.9°C | 2.5% | 0hPa | 2.6V | 00:00:00 | 00:00:00 | 00:00:00 | |
| OK1ALN | 2026-09-01 01:49:45 | 48.29321 | 17.50577 | 91° | 33km/h | 32068m | 7.8m/s | -41.0°C | 0.7% | 0hPa | 2.6V | 00:00:00 | 00:00:00 | 00:00:00 | |
| OE5MMP-10 | 2026-09-01 01:49:41 | 48.29327 | 17.50530 | 81° | 29km/h | 32032m | 5.8m/s | -40.9°C | 2.5% | 0hPa | 2.6V | 00:00:00 | 01:49:21 | 08:30:00 | |
| OM5KV | 2026-09-01 01:49:39 | 48.29325 | 17.50523 | 73° | 22km/h | 32027m | 4.8m/s | -40.9°C | 0.7% | 0hPa | 2.6V | 00:00:00 | 00:00:00 | 00:00:00 | |
| DO3MHA-11 | 2026-09-01 01:49:38 | 48.29322 | 17.50502 | 81° | 29km/h | 32013m | 8.0m/s | -40.8°C | 2.4% | 0hPa | 2.6V | 00:00:00 | 01:49:18 | 00:00:00 | |
| OE3JTB-15 | 2026-09-01 01:49:34 | 48.29319 | 17.50444 | 89° | 24km/h | 31986m | 7.8m/s | -41.0°C | 2.4% | 0hPa | 2.6V | 00:00:00 | 00:00:00 | 00:00:00 | |
| SP3BTT-10 | 2026-09-01 01:49:33 | 48.29319 | 17.50434 | 87° | 26km/h | 31979m | 6.5m/s | 0°C | 0% | 0hPa | 2.6V | 00:00:00 | 00:00:00 | 00:00:00 | |
| OE5MMP-10 | 2026-09-01 01:49:31 | 48.29318 | 17.50418 | 90° | 24km/h | 31966m | 6.2m/s | -41.2°C | 2.5% | 0hPa | 2.6V | 00:00:00 | 01:49:11 | 00:00:00 | |
| OE3OSB-13 | 2026-09-01 01:49:29 | 48.29319 | 17.50401 | 96° | 26km/h | 31952m | 6.9m/s | -41.3°C | 0.6% | -1.0hPa | 2.6V | 00:00:00 | 00:00:00 | 00:00:00 | |
| DO3MHA-11 | 2026-09-01 01:49:28 | 48.29320 | 17.50391 | 98° | 27km/h | 31946m | 6.2m/s | -41.3°C | 2.5% | 0hPa | 2.6V | 00:00:00 | 01:49:08 | 00:00:00 | |
| OE5DRO-10 | 2026-09-01 01:49:27 | 48.29320 | 17.50381 | 96° | 24km/h | 31940m | 5.1m/s | -41.3°C | 2.4% | 0hPa | 2.6V | 00:00:00 | 00:00:00 | 00:00:00 | |
| OE5DXL-15 | 2026-09-01 01:49:25 | 48.29320 | 17.50365 | 75° | 24km/h | 31926m | 8.2m/s | -41.4°C | 2.5% | 0hPa | 2.6V | 00:00:00 | 00:00:00 | 00:00:00 | |
| OK1ALN | 2026-09-01 01:49:24 | 48.29320 | 17.50365 | 75° | 16km/h | 31926m | 8.2m/s | -41.5°C | 0.7% | 0hPa | 2.6V | 00:00:00 | 00:00:00 | 00:00:00 | |
| OM5KV | 2026-09-01 01:49:23 | 48.29318 | 17.50360 | 51° | 18km/h | 31918m | 6.8m/s | -41.6°C | 0.7% | 0hPa | 2.6V | 00:00:00 | 00:00:00 | 00:00:00 | |
| OE5MMP-10 | 2026-09-01 01:49:21 | 48.29305 | 17.50336 | 54° | 27km/h | 31896m | 7.5m/s | -41.6°C | 2.5% | 0hPa | 2.6V | 00:00:00 | 01:49:01 | 00:00:00 | |
| OK1SLM-15 | 2026-09-01 01:49:19 | 48.29300 | 17.50326 | 52° | 37km/h | 31889m | 5.2m/s | 0°C | 0% | 0hPa | 2.6V | 00:00:00 | 00:00:00 | 00:00:00 | |
| DO3MHA-11 | 2026-09-01 01:49:18 | 48.29289 | 17.50306 | 52° | 20km/h | 31876m | 7.0m/s | -41.7°C | 2.5% | 0hPa | 2.6V | 00:00:00 | 01:48:58 | 00:00:00 | |
| OM5KV | 2026-09-01 01:49:17 | 48.29289 | 17.50306 | 53° | 29km/h | 31876m | 7.0m/s | -41.8°C | 0.7% | 0hPa | 2.6V | 00:00:00 | 00:00:00 | 00:00:00 | |
| SONDE2-11 | 2026-09-01 01:49:15 | 48.29280 | 17.50280 | 77° | 26km/h | 31855m | 7.5m/s | -42.0°C | 0.7% | -1.0hPa | 2.6V | 00:00:00 | 00:00:00 | 00:00:00 | |
| DO3MHA-12 | 2026-09-01 01:49:14 | 48.29279 | 17.50271 | 87° | 24km/h | 31848m | 5.8m/s | -42.1°C | 2.6% | 0hPa | 2.6V | 00:00:00 | 01:48:54 | 00:00:00 | |
| OE5MMP-10 | 2026-09-01 01:49:11 | 48.29280 | 17.50248 | 99° | 24km/h | 31829m | 7.8m/s | -42.3°C | 2.6% | 0hPa | 2.6V | 00:00:00 | 01:48:51 | 00:00:00 | |
| DO3MHA-11 | 2026-09-01 01:49:08 | 48.29275 | 17.50242 | 33° | 26km/h | 31811m | 6.8m/s | -42.3°C | 2.6% | 0hPa | 2.6V | 00:00:00 | 01:48:48 | 00:00:00 | |
| ATIDSZ-14 | 2026-09-01 01:49:07 | 48.29275 | 17.50241 | 33° | 16km/h | 31811m | 6.8m/s | -42.4°C | 0.7% | 0hPa | 2.6V | 00:00:00 | 00:00:00 | 00:00:00 | |
| OE3JTB-15 | 2026-09-01 01:49:05 | 48.29259 | 17.50220 | 48° | 18km/h | 31790m | 5.6m/s | -42.6°C | 2.6% | 0hPa | 2.6V | 00:00:00 | 01:48:45 | 00:00:00 | |
| OK1ALN | 2026-09-01 01:49:04 | 48.29259 | 17.50220 | 48° | 37km/h | 31790m | 5.6m/s | -42.6°C | 0.7% | 0hPa | 2.6V | 00:00:00 | 00:00:00 | 00:00:00 | |
| SP3BTT-10 | 2026-09-01 01:49:03 | 48.29246 | 17.50203 | 36° | 20km/h | 31777m | 7.4m/s | 0°C | 0% | 0hPa | 2.6V | 00:00:00 | 00:00:00 | 00:00:00 | |
| OE3OSB-13 | 2026-09-01 01:48:59 | 48.29228 | 17.50178 | 62° | 15km/h | 31741m | 5.0m/s | -42.7°C | 0.7% | -1.0hPa | 2.6V | 00:00:00 | 00:00:00 | 00:00:00 | |
| DO3MHA-11 | 2026-09-01 01:48:58 | 48.29228 | 17.50178 | 63° | 22km/h | 31741m | 5.0m/s | -42.6°C | 2.7% | 0hPa | 2.6V | 00:00:00 | 01:48:38 | 00:00:00 | |
| HA6NAB-11 | 2026-09-01 01:48:57 | 48.29228 | 17.50178 | 64° | 15km/h | 31741m | 5.0m/s | -42.7°C | 0.7% | 0hPa | 2.6V | 00:00:00 | 00:00:00 | 00:00:00 | |
| OE5DXL-15 | 2026-09-01 01:48:55 | 48.29220 | 17.50169 | 4° | 16km/h | 31723m | 8.1m/s | -42.5°C | 2.7% | 0hPa | 2.6V | 00:00:00 | 00:00:00 | 00:00:00 | |
| DO3MHA-12 | 2026-09-01 01:48:51 | 48.29198 | 17.50161 | 39° | 20km/h | 31695m | 7.6m/s | -42.5°C | 2.6% | 0hPa | 2.6V | 00:00:00 | 01:48:31 | 08:30:00 | |
| OE5DRO-10 | 2026-09-01 01:48:49 | 48.29189 | 17.50146 | 56° | 13km/h | 31682m | 6.0m/s | -42.6°C | 2.7% | 0hPa | 2.6V | 00:00:00 | 00:00:00 | 00:00:00 | |
| DO3MHA-11 | 2026-09-01 01:48:48 | 48.29185 | 17.50138 | 54° | 11km/h | 31675m | 7.0m/s | -42.7°C | 2.7% | 0hPa | 2.6V | 00:00:00 | 01:48:28 | 00:00:00 | |
| PG1ADW-2 | 2026-09-01 01:48:47 | 48.29182 | 17.50133 | 39° | 15km/h | 31668m | 7.6m/s | -42.7°C | 2.7% | 0hPa | 2.6V | 00:00:00 | 00:00:00 | 00:00:00 | |
| PETON7-10 | 2026-09-01 01:48:46 | 48.29179 | 17.50130 | 28° | 13km/h | 31661m | 6.1m/s | -42.7°C | 2.8% | 0hPa | 2.6V | 00:00:00 | 00:00:00 | 08:30:00 | |
| SONDE2-11 | 2026-09-01 01:48:44 | 48.29176 | 17.50129 | 5° | 4km/h | 31648m | 5.9m/s | -42.7°C | 0.7% | -1.0hPa | 2.6V | 00:00:00 | 00:00:00 | 00:00:00 | |
| OK1ALN | 2026-09-01 01:48:43 | 48.29176 | 17.50130 | 7° | 4km/h | 31648m | 5.9m/s | -42.7°C | 0.8% | 0hPa | 2.6V | 00:00:00 | 00:00:00 | 00:00:00 | |
| OE5MMP-10 | 2026-09-01 01:48:41 | 48.29173 | 17.50123 | 58° | 15km/h | 31627m | 5.2m/s | -42.6°C | 2.7% | 0hPa | 2.6V | 00:00:00 | 01:48:21 | 00:00:00 | |
| DO3MHA-11 | 2026-09-01 01:48:38 | 48.29162 | 17.50117 | 354° | 13km/h | 31607m | 7.9m/s | -42.4°C | 2.7% | 0hPa | 2.6V | 00:00:00 | 01:48:18 | 00:00:00 | |
| OE3JTB-15 | 2026-09-01 01:48:36 | 48.29151 | 17.50121 | 341° | 15km/h | 31595m | 4.1m/s | -42.4°C | 2.6% | 0hPa | 2.6V | 00:00:00 | 00:00:00 | 00:00:00 | |
| DO3MHA-12 | 2026-09-01 01:48:32 | 48.29141 | 17.50121 | 82° | 16km/h | 31568m | 5.9m/s | -42.3°C | 2.6% | 0hPa | 2.5V | 00:00:00 | 01:48:12 | 00:00:00 | |
| OE5MMP-10 | 2026-09-01 01:48:31 | 48.29141 | 17.50118 | 50° | 16km/h | 31562m | 6.5m/s | -42.3°C | 2.6% | 0hPa | 2.5V | 00:00:00 | 01:48:11 | 00:00:00 | |
| PETON7-10 | 2026-09-01 01:48:30 | 48.29139 | 17.50117 | 26° | 16km/h | 31555m | 7.1m/s | -42.3°C | 2.6% | 0hPa | 2.5V | 00:00:00 | 00:00:00 | 00:00:00 | |
| DO3MHA-11 | 2026-09-01 01:48:28 | 48.29134 | 17.50115 | 5° | 20km/h | 31542m | 5.9m/s | -42.4°C | 2.6% | 0hPa | 2.5V | 00:00:00 | 01:48:08 | 08:30:00 | |
| OE3OSB-13 | 2026-09-01 01:48:27 | 48.29129 | 17.50114 | 14° | 18km/h | 31535m | 6.9m/s | -42.5°C | 0.7% | -1.0hPa | 2.6V | 00:00:00 | 00:00:00 | 00:00:00 | |
| ATIDSZ-14 | 2026-09-01 01:48:26 | 48.29129 | 17.50114 | 16° | 20km/h | 31535m | 6.9m/s | -42.5°C | 0.7% | 0hPa | 2.6V | 00:00:00 | 00:00:00 | 00:00:00 | |
| OE5DXL-15 | 2026-09-01 01:48:25 | 48.29119 | 17.50107 | 31° | 16km/h | 31521m | 6.9m/s | -42.5°C | 2.7% | 0hPa | 2.6V | 00:00:00 | 00:00:00 | 00:00:00 | |
| SP3BTT-10 | 2026-09-01 01:48:23 | 48.29109 | 17.50100 | 12° | 18km/h | 31510m | 5.5m/s | 0°C | 0% | 0hPa | 2.6V | 00:00:00 | 00:00:00 | 00:00:00 | |
| OK1ALN | 2026-09-01 01:48:22 | 48.29109 | 17.50100 | 12° | 22km/h | 31510m | 5.6m/s | -42.5°C | 0.7% | 0hPa | 2.6V | 00:00:00 | 00:00:00 | 00:00:00 | |
| OE5MMP-10 | 2026-09-01 01:48:21 | 48.29099 | 17.50101 | 332° | 11km/h | 31495m | 7.4m/s | -42.5°C | 2.6% | 0hPa | 2.6V | 00:00:00 | 01:48:01 | 00:00:00 | |
| DO3MHA-11 | 2026-09-01 01:48:18 | 48.29092 | 17.50115 | 275° | 15km/h | 31473m | 7.7m/s | -42.5°C | 2.7% | 0hPa | 2.6V | 00:00:00 | 01:47:58 | 00:00:00 | |
| PETON7-10 | 2026-09-01 01:48:15 | 48.29093 | 17.50119 | 275° | 15km/h | 31454m | 7.6m/s | -42.6°C | 2.6% | 0hPa | 2.6V | 00:00:00 | 01:47:55 | 00:00:00 | |
| SONDE2-11 | 2026-09-01 01:48:13 | 48.29090 | 17.50118 | 10° | 15km/h | 31440m | 6.3m/s | -42.7°C | 0.7% | -1.0hPa | 2.6V | 00:00:00 | 00:00:00 | 00:00:00 | |
| OE5MMP-10 | 2026-09-01 01:48:11 | 48.29080 | 17.50113 | 30° | 18km/h | 31428m | 7.8m/s | -42.6°C | 2.7% | 0hPa | 2.6V | 00:00:00 | 01:47:51 | 08:30:00 | |
| OE3JTB-15 | 2026-09-01 01:48:08 | 48.29058 | 17.50092 | 17° | 18km/h | 31401m | 8.1m/s | -42.7°C | 2.6% | 0hPa | 2.6V | 00:00:00 | 00:00:00 | 00:00:00 | |
| ATIDSZ-14 | 2026-09-01 01:48:06 | 48.29058 | 17.50092 | 17° | 20km/h | 31401m | 8.1m/s | -42.7°C | 0.7% | 0hPa | 2.6V | 00:00:00 | 00:00:00 | 00:00:00 | |
| OK1ALN | 2026-09-01 01:48:02 | 48.29048 | 17.50103 | 288° | 9km/h | 31372m | 7.4m/s | -42.8°C | 0.7% | 0hPa | 2.6V | 00:00:00 | 00:00:00 | 00:00:00 | |
| OE3OSB-13 | 2026-09-01 01:47:56 | 48.29025 | 17.50091 | 22° | 24km/h | 31325m | 5.7m/s | -43.3°C | 0.7% | -1.0hPa | 2.6V | 00:00:00 | 00:00:00 | 00:00:00 | |
| OE5DXL-15 | 2026-09-01 01:47:55 | 48.29019 | 17.50087 | 31° | 15km/h | 31318m | 7.6m/s | -43.3°C | 2.8% | 0hPa | 2.6V | 00:00:00 | 00:00:00 | 00:00:00 | |
| HA6NAB-11 | 2026-09-01 01:47:54 | 48.29019 | 17.50087 | 31° | 24km/h | 31318m | 7.6m/s | -43.4°C | 0.8% | 0hPa | 2.6V | 00:00:00 | 00:00:00 | 00:00:00 | |
| OE5DRO-10 | 2026-09-01 01:47:52 | 48.29009 | 17.50078 | 1° | 16km/h | 31298m | 6.4m/s | -43.2°C | 2.8% | 0hPa | 2.6V | 00:00:00 | 00:00:00 | 00:00:00 | |
| OE5MMP-10 | 2026-09-01 01:47:51 | 48.29006 | 17.50079 | 331° | 16km/h | 31291m | 8.1m/s | -43.2°C | 2.8% | 0hPa | 2.6V | 00:00:00 | 01:47:31 | 00:00:00 | |
| DO3MHA-11 | 2026-09-01 01:47:48 | 48.28996 | 17.50097 | 297° | 16km/h | 31270m | 6.6m/s | -43.1°C | 2.8% | 0hPa | 2.6V | 00:00:00 | 01:47:28 | 00:00:00 | |
| ATIDSZ-14 | 2026-09-01 01:47:46 | 48.28992 | 17.50108 | 299° | 9km/h | 31256m | 6.5m/s | -43.1°C | 0.8% | 0hPa | 2.6V | 00:00:00 | 00:00:00 | 00:00:00 | |
| PETON7-10 | 2026-09-01 01:47:45 | 48.28991 | 17.50110 | 326° | 16km/h | 31249m | 5.6m/s | -43.0°C | 2.8% | 0hPa | 2.6V | 00:00:00 | 00:00:00 | 00:00:00 | |
| DB0NH | 2026-09-01 01:47:44 | 48.28988 | 17.50112 | 340° | 13km/h | 31243m | 7.5m/s | 0°C | 0% | 0hPa | 2.6V | 00:00:00 | 01:47:24 | 00:00:00 | |
| HA6NAB-11 | 2026-09-01 01:47:43 | 48.28988 | 17.50112 | 341° | 11km/h | 31243m | 7.6m/s | -43.0°C | 0.8% | 0hPa | 2.6V | 00:00:00 | 00:00:00 | 00:00:00 | |
| SONDE2-11 | 2026-09-01 01:47:42 | 48.28981 | 17.50112 | 17° | 16km/h | 31230m | 5.1m/s | -43.0°C | 0.7% | -1.0hPa | 2.6V | 00:00:00 | 00:00:00 | 00:00:00 | |
| OE5MMP-10 | 2026-09-01 01:47:41 | 48.28977 | 17.50109 | 38° | 18km/h | 31223m | 8.2m/s | -43.0°C | 2.8% | 0hPa | 2.6V | 00:00:00 | 01:47:21 | 00:00:00 | |
| DO3MHA-11 | 2026-09-01 01:47:38 | 48.28968 | 17.50093 | 46° | 15km/h | 31204m | 3.5m/s | -43.0°C | 2.8% | 0hPa | 2.6V | 00:00:00 | 01:47:18 | 00:00:00 | |
| HA6NAB-11 | 2026-09-01 01:47:37 | 48.28968 | 17.50093 | 47° | 16km/h | 31204m | 3.5m/s | -43.1°C | 0.8% | 0hPa | 2.6V | 00:00:00 | 00:00:00 | 00:00:00 | |
| OE5DRO-10 | 2026-09-01 01:47:33 | 48.28950 | 17.50101 | 296° | 13km/h | 31173m | 7.0m/s | -42.9°C | 2.7% | 0hPa | 2.6V | 00:00:00 | 00:00:00 | 00:00:00 | |
| OE5MMP-10 | 2026-09-01 01:47:31 | 48.28949 | 17.50110 | 239° | 13km/h | 31158m | 6.4m/s | -42.8°C | 2.8% | 0hPa | 2.6V | 00:00:00 | 01:47:11 | 00:00:00 | |
| PETON7-10 | 2026-09-01 01:47:30 | 48.28950 | 17.50112 | 207° | 13km/h | 31152m | 4.9m/s | -42.8°C | 2.8% | 0hPa | 2.6V | 00:00:00 | 01:47:10 | 00:00:00 | |
| DO3MHA-11 | 2026-09-01 01:47:28 | 48.28951 | 17.50113 | 40° | 15km/h | 31140m | 6.8m/s | -42.7°C | 2.8% | 0hPa | 2.6V | 00:00:00 | 01:47:08 | 00:00:00 | |
| OE3OSB-13 | 2026-09-01 01:47:25 | 48.28944 | 17.50105 | 47° | 16km/h | 31120m | 7.3m/s | -42.6°C | 0.7% | -1.0hPa | 2.6V | 00:00:00 | 00:00:00 | 00:00:00 | |
| OE5MMP-10 | 2026-09-01 01:47:21 | 48.28933 | 17.50084 | 34° | 13km/h | 31092m | 7.9m/s | -42.4°C | 2.7% | 0hPa | 2.6V | 00:00:00 | 01:47:01 | 00:00:00 | |
| DO3MHA-11 | 2026-09-01 01:47:18 | 48.28923 | 17.50079 | 19° | 15km/h | 31074m | 6.5m/s | -42.3°C | 2.7% | 0hPa | 2.6V | 00:00:00 | 01:46:58 | 00:00:00 | |
| PETON7-10 | 2026-09-01 01:47:15 | 48.28923 | 17.50071 | 103° | 15km/h | 31052m | 5.7m/s | -42.2°C | 2.7% | 0hPa | 2.6V | 00:00:00 | 00:00:00 | 00:00:00 | |
| OE5DRO-10 | 2026-09-01 01:47:14 | 48.28923 | 17.50067 | 90° | 18km/h | 31045m | 7.7m/s | -42.2°C | 2.7% | 0hPa | 2.6V | 00:00:00 | 00:00:00 | 08:30:00 | |
| OE5MMP-10 | 2026-09-01 01:47:11 | 48.28921 | 17.50048 | 80° | 16km/h | 31026m | 7.7m/s | -42.1°C | 2.6% | 0hPa | 2.6V | 00:00:00 | 01:46:51 | 00:00:00 | |
| DO3MHA-11 | 2026-09-01 01:47:08 | 48.28918 | 17.50025 | 68° | 15km/h | 31007m | 5.1m/s | -42.0°C | 2.6% | 0hPa | 2.6V | 00:00:00 | 01:46:48 | 00:00:00 | |
| PG1ADW-2 | 2026-09-01 01:47:06 | 48.28912 | 17.50016 | 20° | 13km/h | 30993m | 7.0m/s | -42.0°C | 2.6% | 0hPa | 2.6V | 00:00:00 | 00:00:00 | 08:30:00 | |
| OE3JTB-15 | 2026-09-01 01:47:04 | 48.28904 | 17.50015 | 353° | 15km/h | 30981m | 5.4m/s | -42.0°C | 2.6% | 0hPa | 2.6V | 00:00:00 | 00:00:00 | 00:00:00 | |
| OE3OSB-13 | 2026-09-01 01:46:54 | 48.28901 | 17.49959 | 60° | 22km/h | 30919m | 6.4m/s | -42.0°C | 0.7% | -1.0hPa | 2.6V | 00:00:00 | 00:00:00 | 00:00:00 | |
| OE5MMP-10 | 2026-09-01 01:46:51 | 48.28897 | 17.49941 | 95° | 11km/h | 30900m | 4.5m/s | -42.2°C | 2.6% | 0hPa | 2.6V | 00:00:00 | 01:46:31 | 00:00:00 | |
| DO3MHA-11 | 2026-09-01 01:46:48 | 48.28897 | 17.49935 | 220° | 13km/h | 30881m | 5.8m/s | -42.5°C | 2.7% | 0hPa | 2.6V | 00:00:00 | 01:46:28 | 00:00:00 | |
| PETON7-10 | 2026-09-01 01:46:45 | 48.28904 | 17.49934 | 163° | 13km/h | 30861m | 6.4m/s | -42.6°C | 2.7% | 0hPa | 2.6V | 00:00:00 | 01:46:25 | 00:00:00 | |
| PG1ADW-2 | 2026-09-01 01:46:43 | 48.28911 | 17.49928 | 128° | 15km/h | 30850m | 6.5m/s | -42.7°C | 2.7% | 0hPa | 2.6V | 00:00:00 | 00:00:00 | 00:00:00 | |
| OE5MMP-10 | 2026-09-01 01:46:41 | 48.28912 | 17.49918 | 72° | 9km/h | 30836m | 6.2m/s | -42.6°C | 2.7% | 0hPa | 2.6V | 00:00:00 | 01:46:21 | 08:30:00 | |
| SONDE2-11 | 2026-09-01 01:46:40 | 48.28911 | 17.49912 | 65° | 15km/h | 30830m | 5.9m/s | -42.7°C | 0.7% | -1.0hPa | 2.6V | 00:00:00 | 00:00:00 | 00:00:00 | |
| GYPAP8-17 | 2026-09-01 01:46:39 | 48.28911 | 17.49912 | 66° | 16km/h | 30830m | 5.9m/s | -42.7°C | 0.8% | 0hPa | 2.6V | 00:00:00 | 00:00:00 | 00:00:00 | |
| DO3MHA-11 | 2026-09-01 01:46:38 | 48.28908 | 17.49903 | 83° | 13km/h | 30816m | 6.8m/s | -42.6°C | 2.7% | 0hPa | 2.6V | 00:00:00 | 01:46:18 | 00:00:00 | |
| OE5DRO-10 | 2026-09-01 01:46:36 | 48.28909 | 17.49900 | 153° | 15km/h | 30804m | 5.4m/s | -42.5°C | 2.7% | 0hPa | 2.6V | 00:00:00 | 00:00:00 | 00:00:00 | |
| OE3JTB-15 | 2026-09-01 01:46:35 | 48.28910 | 17.49899 | 138° | 15km/h | 30799m | 5.2m/s | -42.5°C | 2.6% | 0hPa | 2.6V | 00:00:00 | 00:00:00 | 00:00:00 | |
| OM5KV | 2026-09-01 01:46:34 | 48.28910 | 17.49899 | 138° | 4km/h | 30799m | 5.3m/s | -42.6°C | 0.7% | 0hPa | 2.6V | 00:00:00 | 00:00:00 | 00:00:00 | |
| OE5MMP-10 | 2026-09-01 01:46:31 | 48.28907 | 17.49881 | 85° | 16km/h | 30774m | 4.0m/s | -42.6°C | 2.7% | 0hPa | 2.6V | 00:00:00 | 01:46:11 | 00:00:00 | |
| PETON7-10 | 2026-09-01 01:46:30 | 48.28907 | 17.49873 | 99° | 18km/h | 30768m | 6.7m/s | -42.6°C | 2.7% | 0hPa | 2.6V | 00:00:00 | 00:00:00 | 08:30:00 | |
| DO3MHA-11 | 2026-09-01 01:46:28 | 48.28911 | 17.49856 | 120° | 13km/h | 30754m | 6.3m/s | -42.6°C | 2.7% | 0hPa | 2.6V | 00:00:00 | 01:46:08 | 00:00:00 | |
| OE5DXL-15 | 2026-09-01 01:46:25 | 48.28913 | 17.49838 | 60° | 13km/h | 30735m | 6.3m/s | -42.6°C | 2.7% | 0hPa | 2.6V | 00:00:00 | 00:00:00 | 00:00:00 | |
| PG1ADW-2 | 2026-09-01 01:46:23 | 48.28908 | 17.49834 | 18° | 13km/h | 30723m | 6.2m/s | -42.6°C | 2.7% | 0hPa | 2.6V | 00:00:00 | 00:00:00 | 00:00:00 | |
| OM5KV | 2026-09-01 01:46:22 | 48.28908 | 17.49834 | 18° | 11km/h | 30723m | 6.3m/s | -42.6°C | 0.8% | 0hPa | 2.6V | 00:00:00 | 00:00:00 | 00:00:00 | |
| OE5MMP-10 | 2026-09-01 01:46:21 | 48.28905 | 17.49830 | 58° | 18km/h | 30710m | 6.5m/s | -42.6°C | 2.7% | 0hPa | 2.6V | 00:00:00 | 01:46:01 | 00:00:00 | |
| OK1ALN | 2026-09-01 01:46:19 | 48.28904 | 17.49827 | 87° | 11km/h | 30704m | 5.0m/s | -42.6°C | 0.7% | 0hPa | 2.6V | 00:00:00 | 00:00:00 | 00:00:00 | |
| DO3MHA-11 | 2026-09-01 01:46:18 | 48.28902 | 17.49815 | 71° | 15km/h | 30690m | 7.8m/s | -42.5°C | 2.7% | 0hPa | 2.6V | 00:00:00 | 01:45:58 | 00:00:00 | |
| OE5DRO-10 | 2026-09-01 01:46:17 | 48.28900 | 17.49806 | 72° | 13km/h | 30684m | 5.4m/s | -42.5°C | 2.7% | 0hPa | 2.6V | 00:00:00 | 00:00:00 | 00:00:00 | |
| OM5KV | 2026-09-01 01:46:16 | 48.28900 | 17.49806 | 72° | 26km/h | 30684m | 5.5m/s | -42.6°C | 0.8% | 0hPa | 2.6V | 00:00:00 | 00:00:00 | 00:00:00 | |
| PETON7-10 | 2026-09-01 01:46:15 | 48.28897 | 17.49787 | 88° | 11km/h | 30672m | 7.8m/s | -42.5°C | 2.7% | 0hPa | 2.6V | 00:00:00 | 00:00:00 | 00:00:00 | |
| S52SK | 2026-09-01 01:46:12 | 48.28899 | 17.49772 | 109° | 16km/h | 30659m | 5.3m/s | -42.6°C | 0.8% | 0hPa | 2.6V | 00:00:00 | 00:00:00 | 00:00:00 | |
| OE5MMP-10 | 2026-09-01 01:46:11 | 48.28900 | 17.49765 | 54° | 7km/h | 30647m | 7.4m/s | -42.5°C | 2.7% | 0hPa | 2.6V | 00:00:00 | 01:45:51 | 00:00:00 | |
| HA6NAB-11 | 2026-09-01 01:46:10 | 48.28900 | 17.49765 | 54° | 5km/h | 30647m | 7.4m/s | -42.6°C | 0.7% | 0hPa | 2.5V | 00:00:00 | 00:00:00 | 00:00:00 | |
| SONDE2-11 | 2026-09-01 01:46:09 | 48.28896 | 17.49763 | 9° | 9km/h | 30634m | 5.7m/s | -42.5°C | 0.7% | -1.0hPa | 2.5V | 00:00:00 | 00:00:00 | 00:00:00 | |
| DO3MHA-11 | 2026-09-01 01:46:07 | 48.28892 | 17.49762 | 356° | 11km/h | 30622m | 6.8m/s | -42.5°C | 2.6% | 0hPa | 2.5V | 00:00:00 | 01:45:47 | 00:00:00 | |
| OE3JTB-15 | 2026-09-01 01:46:06 | 48.28892 | 17.49762 | 180° | 11km/h | 30615m | 6.6m/s | -42.5°C | 2.6% | 0hPa | 2.5V | 00:00:00 | 01:45:46 | 00:00:00 | |
| OM5KV | 2026-09-01 01:46:05 | 48.28892 | 17.49762 | 181° | 2km/h | 30615m | 6.7m/s | -42.6°C | 0.7% | 0hPa | 2.5V | 00:00:00 | 00:00:00 | 00:00:00 | |
| HA6NAB-11 | 2026-09-01 01:46:04 | 48.28893 | 17.49762 | 156° | 7km/h | 30609m | 5.1m/s | -42.6°C | 0.7% | 0hPa | 2.5V | 00:00:00 | 00:00:00 | 00:00:00 | |
| PG1ADW-2 | 2026-09-01 01:46:03 | 48.28896 | 17.49757 | 107° | 15km/h | 30598m | 6.2m/s | -42.5°C | 2.6% | 0hPa | 2.5V | 00:00:00 | 01:45:43 | 00:00:00 | |
| ATIDSZ-14 | 2026-09-01 01:46:02 | 48.28896 | 17.49756 | 108° | 11km/h | 30598m | 6.3m/s | -42.6°C | 0.7% | 0hPa | 2.6V | 00:00:00 | 00:00:00 | 00:00:00 | |
| OE3OSB-13 | 2026-09-01 01:45:52 | 48.28900 | 17.49717 | 19° | 4km/h | 30531m | 5.5m/s | -42.9°C | 0.7% | -1.0hPa | 2.6V | 00:00:00 | 00:00:00 | 00:00:00 | |
| OE5MMP-10 | 2026-09-01 01:45:51 | 48.28900 | 17.49717 | 328° | 9km/h | 30525m | 7.6m/s | -43.0°C | 2.7% | 0hPa | 2.6V | 00:00:00 | 01:45:31 | 00:00:00 | |
| OK1SLM-15 | 2026-09-01 01:45:50 | 48.28900 | 17.49717 | 328° | 2km/h | 30525m | 7.7m/s | 0°C | 0% | 0hPa | 2.6V | 00:00:00 | 00:00:00 | 00:00:00 | |
| DO3MHA-11 | 2026-09-01 01:45:47 | 48.28893 | 17.49725 | 341° | 13km/h | 30498m | 7.8m/s | -43.3°C | 2.8% | 0hPa | 2.6V | 00:00:00 | 01:45:27 | 00:00:00 | |
| PETON7-10 | 2026-09-01 01:45:45 | 48.28886 | 17.49728 | 342° | 13km/h | 30486m | 4.9m/s | -43.3°C | 2.8% | 0hPa | 2.6V | 00:00:00 | 00:00:00 | 00:00:00 | |
| OE5MMP-10 | 2026-09-01 01:45:41 | 48.28888 | 17.49728 | 146° | 16km/h | 30460m | 6.8m/s | -43.4°C | 2.8% | 0hPa | 2.6V | 00:00:00 | 01:45:21 | 00:00:00 | |
| OE5DRO-10 | 2026-09-01 01:45:39 | 48.28892 | 17.49719 | 116° | 16km/h | 30446m | 5.5m/s | -43.4°C | 2.8% | 0hPa | 2.6V | 00:00:00 | 00:00:00 | 00:00:00 | |
| SONDE2-11 | 2026-09-01 01:45:38 | 48.28895 | 17.49714 | 122° | 16km/h | 30440m | 5.5m/s | -43.4°C | 0.8% | -1.0hPa | 2.6V | 00:00:00 | 00:00:00 | 00:00:00 | |
| DO3MHA-11 | 2026-09-01 01:45:37 | 48.28897 | 17.49708 | 124° | 15km/h | 30434m | 7.4m/s | -43.3°C | 2.7% | 0hPa | 2.6V | 00:00:00 | 01:45:17 | 00:00:00 | |
| OM5KV | 2026-09-01 01:45:35 | 48.28899 | 17.49703 | 122° | 16km/h | 30427m | 6.4m/s | -43.3°C | 0.8% | 0hPa | 2.6V | 00:00:00 | 00:00:00 | 00:00:00 | |
| OE5MMP-10 | 2026-09-01 01:45:31 | 48.28888 | 17.49680 | 26° | 16km/h | 30395m | 4.3m/s | -43.2°C | 2.7% | 0hPa | 2.6V | 00:00:00 | 01:45:11 | 00:00:00 | |
| PETON7-10 | 2026-09-01 01:45:30 | 48.28884 | 17.49677 | 26° | 20km/h | 30389m | 6.3m/s | -43.2°C | 2.7% | 0hPa | 2.6V | 00:00:00 | 00:00:00 | 00:00:00 | |
| DO3MHA-11 | 2026-09-01 01:45:27 | 48.28882 | 17.49669 | 125° | 18km/h | 30371m | 4.8m/s | -43.3°C | 2.7% | 0hPa | 2.6V | 00:00:00 | 01:45:07 | 08:30:00 | |
| OE5DXL-15 | 2026-09-01 01:45:25 | 48.28886 | 17.49656 | 107° | 24km/h | 30358m | 7.1m/s | -43.4°C | 2.6% | 0hPa | 2.6V | 00:00:00 | 01:45:05 | 00:00:00 | |
| OE5MMP-10 | 2026-09-01 01:45:21 | 48.28888 | 17.49627 | 79° | 24km/h | 30332m | 6.7m/s | -43.7°C | 2.7% | 0hPa | 2.6V | 00:00:00 | 01:45:01 | 00:00:00 | |
| OE5DRO-10 | 2026-09-01 01:45:20 | 48.28886 | 17.49623 | 61° | 26km/h | 30326m | 5.0m/s | -43.8°C | 2.7% | 0hPa | 2.6V | 00:00:00 | 00:00:00 | 00:00:00 | |
| DO3MHA-11 | 2026-09-01 01:45:17 | 48.28878 | 17.49601 | 64° | 27km/h | 30305m | 6.3m/s | -43.9°C | 2.8% | 0hPa | 2.5V | 00:00:00 | 01:44:57 | 00:00:00 | |
| S52SK | 2026-09-01 01:45:16 | 48.28875 | 17.49590 | 68° | 29km/h | 30300m | 4.2m/s | -44.0°C | 0.8% | 0hPa | 2.5V | 00:00:00 | 00:00:00 | 00:00:00 | |
| PETON7-10 | 2026-09-01 01:45:15 | 48.28872 | 17.49580 | 67° | 27km/h | 30294m | 7.0m/s | -44.1°C | 2.8% | 0hPa | 2.5V | 00:00:00 | 01:44:55 | 00:00:00 | |
| OE5MMP-10 | 2026-09-01 01:45:11 | 48.28863 | 17.49547 | 74° | 26km/h | 30268m | 7.9m/s | -44.3°C | 2.9% | 0hPa | 2.5V | 00:00:00 | 01:44:51 | 08:30:00 | |
| S52SK | 2026-09-01 01:45:09 | 48.28861 | 17.49537 | 73° | 29km/h | 30260m | 6.3m/s | -44.4°C | 0.8% | 0hPa | 2.5V | 00:00:00 | 00:00:00 | 00:00:00 | |
| OE3JTB-15 | 2026-09-01 01:45:08 | 48.28856 | 17.49518 | 67° | 18km/h | 30247m | 7.4m/s | -44.4°C | 2.9% | 0hPa | 2.5V | 00:00:00 | 00:00:00 | 00:00:00 | |
| DO3MHA-11 | 2026-09-01 01:45:07 | 48.28853 | 17.49510 | 63° | 26km/h | 30240m | 7.3m/s | -44.5°C | 2.9% | 0hPa | 2.5V | 00:00:00 | 01:44:47 | 00:00:00 | |
| OM5KV | 2026-09-01 01:45:05 | 48.28851 | 17.49503 | 61° | 20km/h | 30233m | 5.0m/s | -44.5°C | 0.9% | 0hPa | 2.5V | 00:00:00 | 00:00:00 | 00:00:00 | |
| S52SK | 2026-09-01 01:45:04 | 48.28849 | 17.49496 | 66° | 22km/h | 30229m | 4.8m/s | -44.5°C | 0.8% | 0hPa | 2.5V | 00:00:00 | 00:00:00 | 00:00:00 | |
| OE3OSB-13 | 2026-09-01 01:44:50 | 48.28838 | 17.49377 | 96° | 18km/h | 30128m | 5.5m/s | -44.4°C | 0.8% | -1.0hPa | 2.5V | 00:00:00 | 00:00:00 | 00:00:00 | |
| HA6NAB-11 | 2026-09-01 01:44:48 | 48.28839 | 17.49369 | 88° | 24km/h | 30122m | 7.4m/s | -44.4°C | 0.8% | 0hPa | 2.5V | 00:00:00 | 00:00:00 | 00:00:00 | |
| DO3MHA-11 | 2026-09-01 01:44:47 | 48.28836 | 17.49351 | 71° | 13km/h | 30109m | 3.4m/s | -44.4°C | 3.0% | 0hPa | 2.5V | 00:00:00 | 01:44:27 | 00:00:00 | |
| OE5DRO-10 | 2026-09-01 01:44:42 | 48.28829 | 17.49333 | 101° | 16km/h | 30076m | 7.3m/s | -44.4°C | 2.9% | 0hPa | 2.5V | 00:00:00 | 00:00:00 | 00:00:00 | |
| OE5MMP-10 | 2026-09-01 01:44:41 | 48.28830 | 17.49331 | 114° | 16km/h | 30069m | 7.1m/s | -44.3°C | 2.9% | 0hPa | 2.5V | 00:00:00 | 01:44:21 | 00:00:00 | |
| DO3MHA-11 | 2026-09-01 01:44:37 | 48.28837 | 17.49310 | 116° | 20km/h | 30045m | 7.0m/s | -44.4°C | 2.9% | 0hPa | 2.6V | 00:00:00 | 01:44:17 | 00:00:00 | |
| SONDE2-11 | 2026-09-01 01:44:36 | 48.28838 | 17.49307 | 86° | 9km/h | 30038m | 5.4m/s | -44.4°C | 0.8% | -1.0hPa | 2.6V | 00:00:00 | 00:00:00 | 00:00:00 | |
| OE5MMP-10 | 2026-09-01 01:44:31 | 48.28825 | 17.49274 | 58° | 20km/h | 30007m | 5.0m/s | -44.3°C | 2.9% | 0hPa | 2.6V | 00:00:00 | 01:44:11 | 00:00:00 | |
| OM5KV | 2026-09-01 01:44:30 | 48.28825 | 17.49274 | 58° | 31km/h | 30007m | 5.1m/s | -44.3°C | 0.8% | 0hPa | 2.6V | 00:00:00 | 00:00:00 | 00:00:00 | |
| DO3MHA-11 | 2026-09-01 01:44:27 | 48.28812 | 17.49250 | 49° | 16km/h | 29981m | 4.9m/s | -44.2°C | 2.9% | 0hPa | 2.6V | 00:00:00 | 01:44:07 | 00:00:00 | |
| OE5DXL-15 | 2026-09-01 01:44:25 | 48.28808 | 17.49240 | 61° | 15km/h | 29968m | 6.6m/s | -44.2°C | 2.9% | 0hPa | 2.6V | 00:00:00 | 00:00:00 | 00:00:00 | |
| OE5DRO-10 | 2026-09-01 01:44:23 | 48.28802 | 17.49226 | 52° | 15km/h | 29957m | 4.8m/s | -44.2°C | 2.9% | 0hPa | 2.6V | 00:00:00 | 00:00:00 | 08:30:00 | |
| OE5MMP-10 | 2026-09-01 01:44:21 | 48.28794 | 17.49216 | 32° | 15km/h | 29944m | 7.0m/s | -44.2°C | 2.9% | 0hPa | 2.6V | 00:00:00 | 01:44:01 | 00:00:00 | |
| OM5KV | 2026-09-01 01:44:20 | 48.28794 | 17.49216 | 32° | 18km/h | 29944m | 7.0m/s | -44.3°C | 0.8% | 0hPa | 2.6V | 00:00:00 | 00:00:00 | 00:00:00 | |
| OE3OSB-13 | 2026-09-01 01:44:19 | 48.28785 | 17.49209 | 40° | 11km/h | 29925m | 7.2m/s | -44.2°C | 0.8% | -1.0hPa | 2.6V | 00:00:00 | 00:00:00 | 00:00:00 | |
| DO3MHA-11 | 2026-09-01 01:44:17 | 48.28783 | 17.49205 | 58° | 15km/h | 29919m | 7.5m/s | -44.2°C | 2.9% | 0hPa | 2.6V | 00:00:00 | 01:43:57 | 00:00:00 | |
| OK1ALN | 2026-09-01 01:44:16 | 48.28783 | 17.49205 | 59° | 15km/h | 29919m | 7.6m/s | -44.2°C | 0.8% | 0hPa | 2.6V | 00:00:00 | 00:00:00 | 00:00:00 | |
| HA6NAB-11 | 2026-09-01 01:44:14 | 48.28779 | 17.49196 | 52° | 13km/h | 29906m | 7.6m/s | -44.3°C | 0.8% | 0hPa | 2.6V | 00:00:00 | 00:00:00 | 00:00:00 | |
| OE5MMP-10 | 2026-09-01 01:44:11 | 48.28769 | 17.49181 | 61° | 13km/h | 29877m | 8.2m/s | -44.4°C | 2.9% | 0hPa | 2.6V | 00:00:00 | 01:43:51 | 00:00:00 | |
| OE3JTB-15 | 2026-09-01 01:44:08 | 48.28764 | 17.49163 | 60° | 11km/h | 29858m | 7.1m/s | -44.5°C | 2.9% | 0hPa | 2.6V | 00:00:00 | 00:00:00 | 00:00:00 | |
| DO3MHA-11 | 2026-09-01 01:44:07 | 48.28762 | 17.49160 | 45° | 11km/h | 29851m | 8.1m/s | -44.5°C | 2.9% | 0hPa | 2.6V | 00:00:00 | 01:43:47 | 00:00:00 | |
| SONDE2-11 | 2026-09-01 01:44:05 | 48.28759 | 17.49159 | 349° | 5km/h | 29836m | 5.7m/s | -44.5°C | 0.8% | -1.0hPa | 2.6V | 00:00:00 | 00:00:00 | 00:00:00 | |
| OE5DRO-10 | 2026-09-01 01:44:04 | 48.28758 | 17.49158 | 18° | 13km/h | 29830m | 6.9m/s | -44.5°C | 2.9% | 0hPa | 2.6V | 00:00:00 | 00:00:00 | 00:00:00 | |
| GYPAP8-17 | 2026-09-01 01:44:03 | 48.28757 | 17.49158 | 18° | 7km/h | 29830m | 6.9m/s | -44.6°C | 0.8% | 0hPa | 2.6V | 00:00:00 | 00:00:00 | 00:00:00 | |
| S52SK | 2026-09-01 01:44:02 | 48.28756 | 17.49157 | 38° | 11km/h | 29822m | 7.3m/s | -44.6°C | 0.8% | 0hPa | 2.6V | 00:00:00 | 00:00:00 | 00:00:00 | |
| OE3OSB-13 | 2026-09-01 01:43:48 | 48.28727 | 17.49095 | 52° | 18km/h | 29720m | 5.5m/s | -44.7°C | 0.8% | -1.0hPa | 2.6V | 00:00:00 | 00:00:00 | 00:00:00 | |
| DO3MHA-11 | 2026-09-01 01:43:47 | 48.28727 | 17.49095 | 53° | 11km/h | 29720m | 5.4m/s | -44.7°C | 3.0% | 0hPa | 2.6V | 00:00:00 | 01:43:27 | 00:00:00 | |
| OE5DRO-10 | 2026-09-01 01:43:45 | 48.28722 | 17.49085 | 52° | 15km/h | 29707m | 7.5m/s | -44.6°C | 3.0% | 0hPa | 2.6V | 00:00:00 | 00:00:00 | 00:00:00 | |
| OM5KV | 2026-09-01 01:43:44 | 48.28722 | 17.49085 | 52° | 11km/h | 29707m | 7.5m/s | -44.7°C | 0.8% | 0hPa | 2.6V | 00:00:00 | 00:00:00 | 00:00:00 | |
| OE5MMP-10 | 2026-09-01 01:43:41 | 48.28715 | 17.49075 | 50° | 16km/h | 29681m | 6.6m/s | -44.6°C | 3.0% | 0hPa | 2.6V | 00:00:00 | 01:43:21 | 08:30:00 | |
| ATIDSZ-14 | 2026-09-01 01:43:40 | 48.28716 | 17.49075 | 50° | 13km/h | 29681m | 6.7m/s | -44.7°C | 0.9% | 0hPa | 2.6V | 00:00:00 | 00:00:00 | 00:00:00 | |
| OE3JTB-15 | 2026-09-01 01:43:39 | 48.28712 | 17.49070 | 37° | 15km/h | 29668m | 8.1m/s | -44.6°C | 2.9% | 0hPa | 2.6V | 00:00:00 | 00:00:00 | 00:00:00 | |
| DO3MHA-11 | 2026-09-01 01:43:37 | 48.28709 | 17.49066 | 55° | 20km/h | 29654m | 4.7m/s | -44.6°C | 2.9% | 0hPa | 2.6V | 00:00:00 | 01:43:17 | 00:00:00 | |
| OK1ALN | 2026-09-01 01:43:36 | 48.28709 | 17.49067 | 56° | 9km/h | 29654m | 4.8m/s | -44.6°C | 0.8% | 0hPa | 2.6V | 00:00:00 | 00:00:00 | 00:00:00 | |
| SONDE2-11 | 2026-09-01 01:43:34 | 48.28702 | 17.49047 | 64° | 29km/h | 29633m | 6.9m/s | -44.6°C | 0.8% | -1.0hPa | 2.6V | 00:00:00 | 00:00:00 | 00:00:00 | |
| OE5MMP-10 | 2026-09-01 01:43:31 | 48.28693 | 17.49021 | 58° | 11km/h | 29612m | 7.5m/s | -44.6°C | 2.9% | 0hPa | 2.6V | 00:00:00 | 01:43:11 | 00:00:00 | |
| DO3MHA-11 | 2026-09-01 01:43:27 | 48.28683 | 17.49001 | 53° | 9km/h | 29586m | 5.1m/s | -44.6°C | 2.9% | 0hPa | 2.6V | 00:00:00 | 01:43:07 | 00:00:00 | |
| OE5DRO-10 | 2026-09-01 01:43:26 | 48.28682 | 17.48999 | 39° | 9km/h | 29581m | 5.9m/s | -44.6°C | 2.9% | 0hPa | 2.6V | 00:00:00 | 00:00:00 | 00:00:00 | |
| OE5DXL-15 | 2026-09-01 01:43:25 | 48.28680 | 17.48998 | 3° | 9km/h | 29573m | 8.0m/s | -44.7°C | 2.9% | 0hPa | 2.6V | 00:00:00 | 00:00:00 | 00:00:00 | |
| OE5MMP-10 | 2026-09-01 01:43:21 | 48.28677 | 17.48997 | 62° | 11km/h | 29545m | 7.3m/s | -44.6°C | 2.9% | 0hPa | 2.6V | 00:00:00 | 01:43:01 | 00:00:00 | |
| ATIDSZ-14 | 2026-09-01 01:43:19 | 48.28675 | 17.48992 | 69° | 16km/h | 29539m | 4.7m/s | -44.7°C | 0.8% | 0hPa | 2.6V | 00:00:00 | 00:00:00 | 00:00:00 | |
| OE3OSB-13 | 2026-09-01 01:43:17 | 48.28672 | 17.48974 | 72° | 11km/h | 29513m | 5.9m/s | -44.7°C | 0.8% | -1.0hPa | 2.6V | 00:00:00 | 00:00:00 | 00:00:00 | |
| OK1ALN | 2026-09-01 01:43:15 | 48.28671 | 17.48973 | 73° | 13km/h | 29513m | 5.9m/s | -44.7°C | 0.8% | 0hPa | 2.6V | 00:00:00 | 00:00:00 | 00:00:00 | |
| OE5MMP-10 | 2026-09-01 01:43:11 | 48.28666 | 17.48960 | 268° | 7km/h | 29478m | 7.6m/s | -44.6°C | 3.0% | 0hPa | 2.6V | 00:00:00 | 01:42:51 | 00:00:00 | |
| HA6NAB-11 | 2026-09-01 01:43:09 | 48.28666 | 17.48962 | 248° | 5km/h | 29471m | 5.0m/s | -44.7°C | 0.8% | 0hPa | 2.6V | 00:00:00 | 00:00:00 | 00:00:00 | |
| DO3MHA-11 | 2026-09-01 01:43:07 | 48.28666 | 17.48961 | 63° | 11km/h | 29451m | 6.3m/s | -44.6°C | 2.9% | 0hPa | 2.6V | 00:00:00 | 01:42:47 | 00:00:00 | |
| SONDE2-11 | 2026-09-01 01:43:03 | 48.28666 | 17.48949 | 116° | 9km/h | 29426m | 4.7m/s | -44.6°C | 0.8% | -1.0hPa | 2.6V | 00:00:00 | 00:00:00 | 00:00:00 | |
| OE3OSB-13 | 2026-09-01 01:42:46 | 48.28678 | 17.48907 | 125° | 5km/h | 29313m | 7.1m/s | -44.7°C | 0.8% | -1.0hPa | 2.6V | 00:00:00 | 00:00:00 | 00:00:00 | |
| OE5MMP-10 | 2026-09-01 01:42:41 | 48.28682 | 17.48899 | 130° | 9km/h | 29286m | 5.5m/s | -44.7°C | 3.0% | 0hPa | 2.6V | 00:00:00 | 01:42:21 | 00:00:00 | |
| OM5KV | 2026-09-01 01:42:40 | 48.28683 | 17.48899 | 130° | 7km/h | 29286m | 5.5m/s | -44.8°C | 0.9% | 0hPa | 2.6V | 00:00:00 | 00:00:00 | 00:00:00 | |
| OE3JTB-15 | 2026-09-01 01:42:38 | 48.28680 | 17.48894 | 10° | 11km/h | 29265m | 6.1m/s | -44.7°C | 3.0% | 0hPa | 2.6V | 00:00:00 | 00:00:00 | 00:00:00 | |
| DO3MHA-11 | 2026-09-01 01:42:37 | 48.28678 | 17.48893 | 9° | 11km/h | 29260m | 3.5m/s | -44.7°C | 3.0% | 0hPa | 2.6V | 00:00:00 | 01:42:17 | 00:00:00 | |
| PETON7-10 | 2026-09-01 01:42:36 | 48.28676 | 17.48892 | 35° | 9km/h | 29256m | 4.3m/s | -44.7°C | 3.0% | 0hPa | 2.6V | 00:00:00 | 00:00:00 | 00:00:00 | |
| OM5KV | 2026-09-01 01:42:35 | 48.28676 | 17.48892 | 36° | 7km/h | 29256m | 4.4m/s | -44.8°C | 0.9% | 0hPa | 2.6V | 00:00:00 | 00:00:00 | 00:00:00 | |
| OM5KV | 2026-09-01 01:42:34 | 48.28675 | 17.48890 | 97° | 7km/h | 29250m | 6.9m/s | -44.8°C | 0.9% | 0hPa | 2.6V | 00:00:00 | 00:00:00 | 00:00:00 | |
| SONDE2-11 | 2026-09-01 01:42:32 | 48.28682 | 17.48872 | 105° | 15km/h | 29224m | 7.2m/s | -44.7°C | 0.8% | -1.0hPa | 2.6V | 00:00:00 | 00:00:00 | 00:00:00 | |
| OE5MMP-10 | 2026-09-01 01:42:31 | 48.28682 | 17.48872 | 106° | 7km/h | 29225m | 7.2m/s | -44.6°C | 3.0% | 0hPa | 2.6V | 00:00:00 | 01:42:11 | 00:00:00 | |
| OM5KV | 2026-09-01 01:42:30 | 48.28682 | 17.48872 | 106° | 15km/h | 29225m | 7.2m/s | -44.7°C | 0.9% | 0hPa | 2.6V | 00:00:00 | 00:00:00 | 00:00:00 | |
| OE5DRO-10 | 2026-09-01 01:42:29 | 48.28682 | 17.48863 | 70° | 13km/h | 29211m | 5.6m/s | -44.6°C | 3.0% | 0hPa | 2.6V | 00:00:00 | 00:00:00 | 00:00:00 | |
| OM5KV | 2026-09-01 01:42:28 | 48.28682 | 17.48862 | 71° | 9km/h | 29211m | 5.6m/s | -44.6°C | 0.9% | 0hPa | 2.6V | 00:00:00 | 00:00:00 | 00:00:00 | |
| DO3MHA-11 | 2026-09-01 01:42:27 | 48.28681 | 17.48858 | 123° | 13km/h | 29197m | 7.9m/s | -44.6°C | 3.0% | 0hPa | 2.6V | 00:00:00 | 01:42:07 | 08:30:00 | |
| OE5DXL-15 | 2026-09-01 01:42:25 | 48.28684 | 17.48856 | 160° | 13km/h | 29183m | 5.6m/s | -44.6°C | 2.9% | 0hPa | 2.6V | 00:00:00 | 00:00:00 | 00:00:00 | |
| OM5KV | 2026-09-01 01:42:23 | 48.28684 | 17.48855 | 145° | 4km/h | 29176m | 7.6m/s | -44.6°C | 0.8% | 0hPa | 2.6V | 00:00:00 | 00:00:00 | 00:00:00 | |
| OM5KV | 2026-09-01 01:42:22 | 48.28686 | 17.48854 | 118° | 5km/h | 29169m | 6.2m/s | -44.7°C | 0.9% | 0hPa | 2.6V | 00:00:00 | 00:00:00 | 00:00:00 | |
| PETON7-10 | 2026-09-01 01:42:21 | 48.28690 | 17.48849 | 152° | 15km/h | 29157m | 7.9m/s | -44.6°C | 3.0% | 0hPa | 2.6V | 00:00:00 | 01:42:01 | 00:00:00 | |
| DO3MHA-11 | 2026-09-01 01:42:17 | 48.28708 | 17.48831 | 130° | 13km/h | 29131m | 7.6m/s | -44.6°C | 3.0% | 0hPa | 2.6V | 00:00:00 | 01:41:57 | 00:00:00 | |
| OM5KV | 2026-09-01 01:42:16 | 48.28708 | 17.48831 | 130° | 18km/h | 29131m | 7.6m/s | -44.6°C | 0.9% | 0hPa | 2.6V | 00:00:00 | 00:00:00 | 00:00:00 | |
| OE3OSB-13 | 2026-09-01 01:42:14 | 48.28712 | 17.48818 | 128° | 9km/h | 29113m | 6.8m/s | -44.6°C | 0.8% | -1.0hPa | 2.6V | 00:00:00 | 00:00:00 | 00:00:00 | |
| OK1ALN | 2026-09-01 01:42:13 | 48.28712 | 17.48818 | 130° | 9km/h | 29113m | 6.8m/s | -44.6°C | 0.8% | 0hPa | 2.6V | 00:00:00 | 00:00:00 | 00:00:00 | |
| OM5KV | 2026-09-01 01:42:12 | 48.28714 | 17.48816 | 159° | 11km/h | 29106m | 6.8m/s | -44.5°C | 0.8% | 0hPa | 2.6V | 00:00:00 | 00:00:00 | 00:00:00 | |
| OE5MMP-10 | 2026-09-01 01:42:11 | 48.28721 | 17.48816 | 190° | 16km/h | 29094m | 4.9m/s | -44.5°C | 2.9% | 0hPa | 2.6V | 00:00:00 | 01:41:51 | 08:30:00 | |
| OE5DRO-10 | 2026-09-01 01:42:10 | 48.28724 | 17.48817 | 194° | 13km/h | 29088m | 7.3m/s | -44.5°C | 2.9% | 0hPa | 2.6V | 00:00:00 | 00:00:00 | 00:00:00 | |
| OE3JTB-15 | 2026-09-01 01:42:09 | 48.28727 | 17.48818 | 194° | 13km/h | 29081m | 7.2m/s | -44.5°C | 2.9% | 0hPa | 2.6V | 00:00:00 | 00:00:00 | 00:00:00 | |
| GYPAP8-17 | 2026-09-01 01:42:08 | 48.28727 | 17.48818 | 194° | 11km/h | 29081m | 7.2m/s | -44.5°C | 0.8% | 0hPa | 2.6V | 00:00:00 | 00:00:00 | 00:00:00 | |
| DO3MHA-11 | 2026-09-01 01:42:07 | 48.28733 | 17.48817 | 165° | 16km/h | 29068m | 6.4m/s | -44.4°C | 2.9% | 0hPa | 2.6V | 00:00:00 | 01:41:47 | 00:00:00 | |
| PETON7-10 | 2026-09-01 01:42:06 | 48.28737 | 17.48815 | 157° | 13km/h | 29061m | 7.6m/s | -44.4°C | 2.9% | 0hPa | 2.6V | 00:00:00 | 00:00:00 | 08:30:00 | |
| OM5KV | 2026-09-01 01:42:05 | 48.28737 | 17.48815 | 158° | 20km/h | 29061m | 7.7m/s | -44.5°C | 0.8% | 0hPa | 2.6V | 00:00:00 | 00:00:00 | 00:00:00 | |
| OE5MMP-10 | 2026-09-01 01:42:01 | 48.28756 | 17.48790 | 110° | 7km/h | 29027m | 6.0m/s | -44.4°C | 2.9% | 0hPa | 2.6V | 00:00:00 | 01:41:41 | 00:00:00 | |
| HA6NAB-11 | 2026-09-01 01:42:00 | 48.28756 | 17.48790 | 110° | 15km/h | 29027m | 6.1m/s | -44.5°C | 0.8% | 0hPa | 2.6V | 00:00:00 | 00:00:00 | 00:00:00 | |
| OM5KV | 2026-09-01 01:41:59 | 48.28757 | 17.48786 | 118° | 13km/h | 29021m | 6.7m/s | -44.5°C | 0.8% | 0hPa | 2.6V | 00:00:00 | 00:00:00 | 00:00:00 | |
| DO3MHA-11 | 2026-09-01 01:41:57 | 48.28762 | 17.48779 | 167° | 11km/h | 29002m | 6.2m/s | -44.5°C | 2.9% | 0hPa | 2.6V | 00:00:00 | 01:41:37 | 00:00:00 | |
| OE5DXL-15 | 2026-09-01 01:41:55 | 48.28762 | 17.48779 | 359° | 11km/h | 28987m | 6.6m/s | -44.5°C | 2.9% | 0hPa | 2.6V | 00:00:00 | 00:00:00 | 00:00:00 | |
| OM5KV | 2026-09-01 01:41:53 | 48.28762 | 17.48778 | 103° | 4km/h | 28982m | 4.0m/s | -44.6°C | 0.9% | 0hPa | 2.6V | 00:00:00 | 00:00:00 | 00:00:00 | |
| PETON7-10 | 2026-09-01 01:41:51 | 48.28767 | 17.48769 | 131° | 13km/h | 28962m | 6.0m/s | -44.6°C | 2.9% | 0hPa | 2.6V | 00:00:00 | 00:00:00 | 00:00:00 | |
| HA6NAB-11 | 2026-09-01 01:41:49 | 48.28770 | 17.48763 | 117° | 18km/h | 28956m | 6.0m/s | -44.7°C | 0.8% | 0hPa | 2.6V | 00:00:00 | 00:00:00 | 00:00:00 | |
| DO3MHA-11 | 2026-09-01 01:41:47 | 48.28772 | 17.48745 | 91° | 11km/h | 28937m | 4.8m/s | -44.8°C | 3.0% | 0hPa | 2.6V | 00:00:00 | 01:41:27 | 00:00:00 | |
| OM5KV | 2026-09-01 01:41:46 | 48.28772 | 17.48745 | 92° | 13km/h | 28937m | 4.9m/s | -44.8°C | 0.9% | 0hPa | 2.6V | 00:00:00 | 00:00:00 | 00:00:00 | |
| HA6NAB-11 | 2026-09-01 01:41:43 | 48.28777 | 17.48732 | 141° | 16km/h | 28917m | 6.3m/s | -44.9°C | 0.8% | 0hPa | 2.6V | 00:00:00 | 00:00:00 | 00:00:00 | |
| OE5MMP-10 | 2026-09-01 01:41:41 | 48.28785 | 17.48723 | 126° | 5km/h | 28900m | 7.1m/s | -44.8°C | 2.9% | 0hPa | 2.6V | 00:00:00 | 01:41:21 | 00:00:00 | |
| DO3MHA-12 | 2026-09-01 01:41:40 | 48.28786 | 17.48721 | 67° | 7km/h | 28893m | 6.1m/s | -44.8°C | 2.9% | 0hPa | 2.6V | 00:00:00 | 01:41:20 | 00:00:00 | |
| DO3MHA-11 | 2026-09-01 01:41:37 | 48.28783 | 17.48713 | 86° | 9km/h | 28876m | 7.1m/s | -44.9°C | 2.9% | 0hPa | 2.6V | 00:00:00 | 01:41:17 | 00:00:00 | |
| PETON7-10 | 2026-09-01 01:41:36 | 48.28783 | 17.48710 | 107° | 9km/h | 28870m | 5.5m/s | -44.9°C | 3.0% | 0hPa | 2.6V | 00:00:00 | 01:41:16 | 00:00:00 | |
| OE5DRO-10 | 2026-09-01 01:41:32 | 48.28786 | 17.48706 | 162° | 9km/h | 28846m | 3.7m/s | -45.0°C | 3.0% | 0hPa | 2.6V | 00:00:00 | 00:00:00 | 08:30:00 | |
| OE5MMP-10 | 2026-09-01 01:41:31 | 48.28787 | 17.48705 | 143° | 11km/h | 28840m | 7.1m/s | -45.0°C | 2.9% | 0hPa | 2.6V | 00:00:00 | 01:41:11 | 00:00:00 | |
| SONDE2-11 | 2026-09-01 01:41:30 | 48.28792 | 17.48697 | 127° | 18km/h | 28828m | 5.4m/s | -45.2°C | 0.8% | -1.0hPa | 2.6V | 00:00:00 | 00:00:00 | 00:00:00 | |
| DO3MHA-12 | 2026-09-01 01:41:28 | 48.28795 | 17.48691 | 120° | 9km/h | 28823m | 4.8m/s | -45.2°C | 3.0% | 0hPa | 2.6V | 00:00:00 | 01:41:08 | 00:00:00 | |
| DO3MHA-11 | 2026-09-01 01:41:27 | 48.28797 | 17.48686 | 119° | 7km/h | 28817m | 7.5m/s | -45.2°C | 3.0% | 0hPa | 2.6V | 00:00:00 | 01:41:07 | 00:00:00 | |
| OE5DXL-15 | 2026-09-01 01:41:25 | 48.28798 | 17.48681 | 125° | 9km/h | 28802m | 6.1m/s | -45.3°C | 3.0% | 0hPa | 2.6V | 00:00:00 | 00:00:00 | 08:30:00 | |
| GYPAP8-17 | 2026-09-01 01:41:24 | 48.28798 | 17.48681 | 126° | 2km/h | 28802m | 6.2m/s | -45.3°C | 0.9% | 0hPa | 2.6V | 00:00:00 | 00:00:00 | 00:00:00 | |
| PETON7-10 | 2026-09-01 01:41:21 | 48.28804 | 17.48675 | 158° | 11km/h | 28776m | 5.8m/s | -45.4°C | 3.0% | 0hPa | 2.6V | 00:00:00 | 00:00:00 | 00:00:00 | |
| DO3MHA-12 | 2026-09-01 01:41:18 | 48.28810 | 17.48674 | 177° | 11km/h | 28757m | 4.7m/s | -45.4°C | 3.0% | 0hPa | 2.6V | 00:00:00 | 01:40:58 | 00:00:00 | |
| DO3MHA-11 | 2026-09-01 01:41:17 | 48.28811 | 17.48673 | 135° | 13km/h | 28751m | 5.7m/s | -45.4°C | 3.0% | 0hPa | 2.6V | 00:00:00 | 01:40:57 | 00:00:00 | |
| OE5DRO-10 | 2026-09-01 01:41:13 | 48.28818 | 17.48659 | 144° | 9km/h | 28725m | 7.3m/s | -45.6°C | 3.0% | 0hPa | 2.6V | 00:00:00 | 00:00:00 | 00:00:00 | |
| OE3OSB-13 | 2026-09-01 01:41:12 | 48.28820 | 17.48657 | 159° | 9km/h | 28718m | 6.3m/s | -45.7°C | 0.8% | -1.0hPa | 2.6V | 00:00:00 | 00:00:00 | 00:00:00 | |
| OE5MMP-10 | 2026-09-01 01:41:11 | 48.28823 | 17.48656 | 167° | 11km/h | 28712m | 4.9m/s | -45.6°C | 3.0% | 0hPa | 2.6V | 00:00:00 | 01:40:51 | 00:00:00 | |
| DO3MHA-12 | 2026-09-01 01:41:08 | 48.28832 | 17.48647 | 140° | 11km/h | 28693m | 4.7m/s | -45.7°C | 3.0% | 0hPa | 2.6V | 00:00:00 | 01:40:48 | 00:00:00 | |
| DO3MHA-11 | 2026-09-01 01:41:07 | 48.28836 | 17.48643 | 140° | 9km/h | 28689m | 4.0m/s | -45.7°C | 3.0% | 0hPa | 2.6V | 00:00:00 | 01:40:47 | 00:00:00 | |
| PETON7-10 | 2026-09-01 01:41:06 | 48.28838 | 17.48640 | 149° | 7km/h | 28683m | 6.8m/s | -45.7°C | 3.0% | 0hPa | 2.6V | 00:00:00 | 00:00:00 | 00:00:00 | |
| HA6NAB-11 | 2026-09-01 01:41:02 | 48.28840 | 17.48640 | 340° | 4km/h | 28664m | 4.3m/s | -45.8°C | 0.9% | 0hPa | 2.6V | 00:00:00 | 00:00:00 | 00:00:00 | |
| SONDE2-11 | 2026-09-01 01:40:59 | 48.28836 | 17.48623 | 86° | 9km/h | 28634m | 6.9m/s | -46.0°C | 0.9% | -1.0hPa | 2.6V | 00:00:00 | 00:00:00 | 00:00:00 | |
| DO3MHA-12 | 2026-09-01 01:40:58 | 48.28836 | 17.48623 | 87° | 7km/h | 28635m | 6.9m/s | -45.9°C | 3.1% | 0hPa | 2.6V | 00:00:00 | 01:40:38 | 00:00:00 | |
| DO3MHA-11 | 2026-09-01 01:40:57 | 48.28836 | 17.48620 | 92° | 5km/h | 28628m | 6.9m/s | -45.9°C | 3.1% | 0hPa | 2.6V | 00:00:00 | 01:40:37 | 08:30:00 | |
| HA6NAB-11 | 2026-09-01 01:40:56 | 48.28836 | 17.48620 | 93° | 5km/h | 28628m | 6.9m/s | -46.0°C | 0.9% | 0hPa | 2.6V | 00:00:00 | 00:00:00 | 00:00:00 | |
| OE5DXL-15 | 2026-09-01 01:40:55 | 48.28836 | 17.48618 | 108° | 11km/h | 28616m | 5.7m/s | -45.9°C | 3.1% | 0hPa | 2.6V | 00:00:00 | 00:00:00 | 00:00:00 | |
| OE5DRO-10 | 2026-09-01 01:40:54 | 48.28836 | 17.48615 | 106° | 9km/h | 28609m | 7.7m/s | -46.0°C | 3.1% | 0hPa | 2.6V | 00:00:00 | 00:00:00 | 00:00:00 | |
| OE5MMP-10 | 2026-09-01 01:40:51 | 48.28838 | 17.48606 | 127° | 7km/h | 28589m | 7.5m/s | -46.1°C | 3.1% | 0hPa | 2.6V | 00:00:00 | 01:40:31 | 00:00:00 | |
| OK1ALN | 2026-09-01 01:40:50 | 48.28839 | 17.48606 | 128° | 5km/h | 28589m | 7.6m/s | -46.1°C | 0.9% | 0hPa | 2.6V | 00:00:00 | 00:00:00 | 00:00:00 | |
| DO3MHA-12 | 2026-09-01 01:40:48 | 48.28841 | 17.48604 | 122° | 11km/h | 28571m | 6.2m/s | -46.2°C | 3.1% | 0hPa | 2.6V | 00:00:00 | 01:40:28 | 00:00:00 | |
| DO3MHA-11 | 2026-09-01 01:40:47 | 48.28842 | 17.48601 | 98° | 11km/h | 28564m | 7.0m/s | -46.3°C | 3.1% | 0hPa | 2.6V | 00:00:00 | 01:40:27 | 00:00:00 | |
| HA6NAB-11 | 2026-09-01 01:40:44 | 48.28841 | 17.48595 | 56° | 9km/h | 28553m | 4.8m/s | -46.3°C | 0.9% | 0hPa | 2.6V | 00:00:00 | 00:00:00 | 00:00:00 | |
| OE3JTB-15 | 2026-09-01 01:40:42 | 48.28834 | 17.48593 | 349° | 13km/h | 28534m | 5.0m/s | -46.2°C | 3.1% | 0hPa | 2.6V | 00:00:00 | 00:00:00 | 00:00:00 | |
| OE5MMP-10 | 2026-09-01 01:40:41 | 48.28830 | 17.48594 | 360° | 13km/h | 28528m | 6.5m/s | -46.2°C | 3.1% | 0hPa | 2.6V | 00:00:00 | 01:40:21 | 08:30:00 | |
| S52SK | 2026-09-01 01:40:40 | 48.28830 | 17.48594 | 361° | 15km/h | 28528m | 6.5m/s | -46.3°C | 0.9% | 0hPa | 2.5V | 00:00:00 | 00:00:00 | 00:00:00 | |
| HA6NAB-11 | 2026-09-01 01:40:39 | 48.28827 | 17.48593 | 22° | 13km/h | 28521m | 6.8m/s | -46.3°C | 0.9% | 0hPa | 2.5V | 00:00:00 | 00:00:00 | 00:00:00 | |
| DO3MHA-11 | 2026-09-01 01:40:37 | 48.28824 | 17.48586 | 116° | 15km/h | 28504m | 7.3m/s | -46.3°C | 3.2% | 0hPa | 2.5V | 00:00:00 | 01:40:17 | 00:00:00 | |
| OM5KV | 2026-09-01 01:40:36 | 48.28824 | 17.48586 | 116° | 5km/h | 28504m | 7.3m/s | -46.4°C | 0.9% | 0hPa | 2.5V | 00:00:00 | 00:00:00 | 00:00:00 | |
| PETON7-10 | 2026-09-01 01:40:35 | 48.28827 | 17.48583 | 150° | 13km/h | 28491m | 5.0m/s | -46.4°C | 3.2% | 0hPa | 2.5V | 00:00:00 | 00:00:00 | 00:00:00 | |
| S52SK | 2026-09-01 01:40:34 | 48.28827 | 17.48583 | 151° | 13km/h | 28491m | 5.0m/s | -46.5°C | 0.9% | 0hPa | 2.6V | 00:00:00 | 00:00:00 | 00:00:00 | |
| HA6NAB-11 | 2026-09-01 01:40:33 | 48.28830 | 17.48580 | 141° | 16km/h | 28484m | 7.6m/s | -46.5°C | 0.9% | 0hPa | 2.6V | 00:00:00 | 00:00:00 | 00:00:00 | |
| OE5MMP-10 | 2026-09-01 01:40:31 | 48.28841 | 17.48567 | 155° | 11km/h | 28466m | 5.5m/s | -46.5°C | 3.2% | 0hPa | 2.6V | 00:00:00 | 01:40:11 | 00:00:00 | |
| OM5KV | 2026-09-01 01:40:30 | 48.28841 | 17.48567 | 156° | 18km/h | 28466m | 5.6m/s | -46.6°C | 0.9% | 0hPa | 2.6V | 00:00:00 | 00:00:00 | 00:00:00 | |
| SONDE2-11 | 2026-09-01 01:40:28 | 48.28853 | 17.48571 | 236° | 5km/h | 28441m | 5.2m/s | -46.6°C | 0.9% | -1.0hPa | 2.6V | 00:00:00 | 00:00:00 | 00:00:00 | |
| DO3MHA-12 | 2026-09-01 01:40:27 | 48.28853 | 17.48571 | 237° | 9km/h | 28441m | 5.2m/s | -46.6°C | 3.2% | 0hPa | 2.6V | 00:00:00 | 01:40:07 | 00:00:00 | |
| OE5DXL-15 | 2026-09-01 01:40:25 | 48.28853 | 17.48571 | 65° | 13km/h | 28428m | 6.8m/s | -46.6°C | 3.2% | 0hPa | 2.6V | 00:00:00 | 00:00:00 | 00:00:00 | |
| OM5KV | 2026-09-01 01:40:24 | 48.28853 | 17.48571 | 65° | 7km/h | 28428m | 6.9m/s | -46.6°C | 0.9% | 0hPa | 2.6V | 00:00:00 | 00:00:00 | 00:00:00 | |
| OE5MMP-10 | 2026-09-01 01:40:21 | 48.28855 | 17.48558 | 142° | 13km/h | 28404m | 4.9m/s | -46.6°C | 3.2% | 0hPa | 2.6V | 00:00:00 | 01:40:01 | 00:00:00 | |
| PETON7-10 | 2026-09-01 01:40:20 | 48.28857 | 17.48555 | 134° | 11km/h | 28398m | 6.6m/s | -46.6°C | 3.2% | 0hPa | 2.6V | 00:00:00 | 00:00:00 | 00:00:00 | |
| DO3MHA-11 | 2026-09-01 01:40:17 | 48.28863 | 17.48547 | 182° | 11km/h | 28378m | 5.0m/s | -46.6°C | 3.2% | 0hPa | 2.6V | 00:00:00 | 01:39:57 | 00:00:00 | |
| OE5DRO-10 | 2026-09-01 01:40:16 | 48.28866 | 17.48549 | 203° | 13km/h | 28371m | 8.0m/s | -46.6°C | 3.2% | 0hPa | 2.6V | 00:00:00 | 00:00:00 | 00:00:00 | |
| OE3JTB-15 | 2026-09-01 01:40:13 | 48.28877 | 17.48559 | 211° | 11km/h | 28353m | 5.9m/s | -46.6°C | 3.2% | 0hPa | 2.6V | 00:00:00 | 01:39:53 | 00:00:00 | |
| OE5MMP-10 | 2026-09-01 01:40:11 | 48.28881 | 17.48560 | 124° | 9km/h | 28340m | 5.7m/s | -46.6°C | 3.2% | 0hPa | 2.6V | 00:00:00 | 01:39:51 | 00:00:00 | |
| OE3OSB-13 | 2026-09-01 01:40:10 | 48.28882 | 17.48558 | 83° | 7km/h | 28334m | 5.7m/s | -46.7°C | 0.9% | -1.0hPa | 2.6V | 00:00:00 | 00:00:00 | 00:00:00 | |
| GYPAP8-17 | 2026-09-01 01:40:09 | 48.28881 | 17.48558 | 84° | 7km/h | 28334m | 5.7m/s | -46.7°C | 0.9% | 0hPa | 2.6V | 00:00:00 | 00:00:00 | 00:00:00 | |
| DO3MHA-11 | 2026-09-01 01:40:07 | 48.28882 | 17.48552 | 155° | 15km/h | 28316m | 6.0m/s | -46.7°C | 3.2% | 0hPa | 2.6V | 00:00:00 | 01:39:47 | 00:00:00 | |
| PETON7-10 | 2026-09-01 01:40:05 | 48.28885 | 17.48550 | 162° | 13km/h | 28306m | 5.6m/s | -46.7°C | 3.2% | 0hPa | 2.6V | 00:00:00 | 01:39:45 | 00:00:00 | |
| SONDE2-11 | 2026-09-01 01:39:56 | 48.28919 | 17.48536 | 110° | 13km/h | 28249m | 6.3m/s | -46.7°C | 0.9% | -1.0hPa | 2.6V | 00:00:00 | 00:00:00 | 00:00:00 | |
| OE5DXL-15 | 2026-09-01 01:39:55 | 48.28920 | 17.48532 | 99° | 7km/h | 28242m | 6.0m/s | -46.6°C | 3.2% | 0hPa | 2.6V | 00:00:00 | 00:00:00 | 00:00:00 | |
| HA6NAB-11 | 2026-09-01 01:39:53 | 48.28920 | 17.48528 | 95° | 7km/h | 28236m | 6.7m/s | -46.7°C | 1.0% | 0hPa | 2.6V | 00:00:00 | 00:00:00 | 00:00:00 | |
| OE5MMP-10 | 2026-09-01 01:39:51 | 48.28921 | 17.48525 | 134° | 7km/h | 28218m | 5.0m/s | -46.7°C | 3.2% | 0hPa | 2.6V | 00:00:00 | 01:39:31 | 00:00:00 | |
| PETON7-10 | 2026-09-01 01:39:50 | 48.28922 | 17.48523 | 132° | 7km/h | 28212m | 7.5m/s | -46.7°C | 3.2% | 0hPa | 2.6V | 00:00:00 | 00:00:00 | 08:30:00 | |
| DO3MHA-12 | 2026-09-01 01:39:49 | 48.28923 | 17.48521 | 132° | 7km/h | 28205m | 6.5m/s | -46.7°C | 3.2% | 0hPa | 2.6V | 00:00:00 | 01:39:29 | 00:00:00 | |
| DO3MHA-11 | 2026-09-01 01:39:47 | 48.28927 | 17.48516 | 166° | 7km/h | 28192m | 6.4m/s | -46.7°C | 3.2% | 0hPa | 2.6V | 00:00:00 | 01:39:27 | 00:00:00 | |
| OE3JTB-15 | 2026-09-01 01:39:44 | 48.28932 | 17.48519 | 215° | 5km/h | 28174m | 4.8m/s | -46.7°C | 3.2% | 0hPa | 2.6V | 00:00:00 | 00:00:00 | 00:00:00 | |
| PG1ADW-2 | 2026-09-01 01:39:42 | 48.28934 | 17.48517 | 96° | 7km/h | 28161m | 6.9m/s | -46.8°C | 3.2% | 0hPa | 2.6V | 00:00:00 | 00:00:00 | 00:00:00 | |
| OE5MMP-10 | 2026-09-01 01:39:41 | 48.28934 | 17.48514 | 99° | 5km/h | 28154m | 5.3m/s | -46.8°C | 3.2% | 0hPa | 2.6V | 00:00:00 | 01:39:21 | 00:00:00 | |
| DO3MHA-12 | 2026-09-01 01:39:39 | 48.28935 | 17.48509 | 143° | 7km/h | 28141m | 7.0m/s | -46.8°C | 3.2% | 0hPa | 2.6V | 00:00:00 | 01:39:19 | 00:00:00 | |
| DO3MHA-11 | 2026-09-01 01:39:37 | 48.28937 | 17.48507 | 125° | 7km/h | 28129m | 5.5m/s | -46.8°C | 3.2% | 0hPa | 2.6V | 00:00:00 | 01:39:17 | 00:00:00 | |
| HA6NAB-11 | 2026-09-01 01:39:35 | 48.28937 | 17.48506 | 91° | 5km/h | 28123m | 7.4m/s | -46.9°C | 0.9% | 0hPa | 2.6V | 00:00:00 | 00:00:00 | 00:00:00 | |
| PETON7-10 | 2026-09-01 01:39:34 | 48.28936 | 17.48502 | 16° | 7km/h | 28110m | 5.8m/s | -46.9°C | 3.2% | 0hPa | 2.6V | 00:00:00 | 00:00:00 | 00:00:00 | |
| S52SK | 2026-09-01 01:39:33 | 48.28936 | 17.48502 | 16° | 5km/h | 28110m | 5.9m/s | -46.9°C | 0.9% | 0hPa | 2.6V | 00:00:00 | 00:00:00 | 00:00:00 | |
| OE5MMP-10 | 2026-09-01 01:39:31 | 48.28932 | 17.48508 | 305° | 7km/h | 28090m | 4.2m/s | -46.9°C | 3.2% | 0hPa | 2.6V | 00:00:00 | 01:39:11 | 00:00:00 | |
| GYPAP8-17 | 2026-09-01 01:39:30 | 48.28931 | 17.48508 | 305° | 11km/h | 28090m | 4.3m/s | -46.9°C | 0.9% | 0hPa | 2.6V | 00:00:00 | 00:00:00 | 00:00:00 | |
| DO3MHA-12 | 2026-09-01 01:39:29 | 48.28928 | 17.48512 | 355° | 7km/h | 28078m | 6.8m/s | -46.9°C | 3.2% | 0hPa | 2.6V | 00:00:00 | 01:39:09 | 00:00:00 | |
| OK1ALN | 2026-09-01 01:39:28 | 48.28928 | 17.48512 | 356° | 7km/h | 28078m | 6.9m/s | -47.0°C | 0.9% | 0hPa | 2.6V | 00:00:00 | 00:00:00 | 00:00:00 | |
| DO3MHA-11 | 2026-09-01 01:39:27 | 48.28926 | 17.48509 | 90° | 5km/h | 28065m | 6.1m/s | -46.9°C | 3.2% | 0hPa | 2.6V | 00:00:00 | 01:39:07 | 08:30:00 | |
| OE5DXL-15 | 2026-09-01 01:39:25 | 48.28928 | 17.48506 | 172° | 9km/h | 28051m | 6.6m/s | -47.0°C | 3.2% | 0hPa | 2.6V | 00:00:00 | 00:00:00 | 00:00:00 | |
| PG1ADW-2 | 2026-09-01 01:39:22 | 48.28932 | 17.48503 | 115° | 9km/h | 28033m | 7.0m/s | -46.9°C | 3.2% | 0hPa | 2.6V | 00:00:00 | 00:00:00 | 00:00:00 | |
| OE5MMP-10 | 2026-09-01 01:39:21 | 48.28932 | 17.48501 | 83° | 7km/h | 28026m | 5.9m/s | -46.9°C | 3.2% | 0hPa | 2.6V | 00:00:00 | 01:39:01 | 00:00:00 | |
| DO3MHA-12 | 2026-09-01 01:39:19 | 48.28931 | 17.48498 | 338° | 13km/h | 28013m | 7.6m/s | -46.9°C | 3.2% | 0hPa | 2.6V | 00:00:00 | 01:38:59 | 00:00:00 | |
| PETON7-10 | 2026-09-01 01:39:18 | 48.28930 | 17.48499 | 285° | 11km/h | 28007m | 6.1m/s | -46.9°C | 3.2% | 0hPa | 2.6V | 00:00:00 | 01:38:58 | 00:00:00 | |
| DO3MHA-11 | 2026-09-01 01:39:17 | 48.28930 | 17.48502 | 262° | 13km/h | 28001m | 4.4m/s | -47.0°C | 3.2% | 0hPa | 2.6V | 00:00:00 | 01:38:57 | 00:00:00 | |
| OE3JTB-15 | 2026-09-01 01:39:15 | 48.28931 | 17.48504 | 149° | 11km/h | 27990m | 7.0m/s | -47.0°C | 3.1% | 0hPa | 2.6V | 00:00:00 | 00:00:00 | 00:00:00 | |
| OM5KV | 2026-09-01 01:39:13 | 48.28932 | 17.48502 | 129° | 11km/h | 27983m | 6.3m/s | -47.0°C | 1.0% | 0hPa | 2.6V | 00:00:00 | 00:00:00 | 00:00:00 | |
| OE5MMP-10 | 2026-09-01 01:39:11 | 48.28940 | 17.48493 | 157° | 13km/h | 27964m | 7.1m/s | -47.0°C | 3.2% | 0hPa | 2.6V | 00:00:00 | 01:38:51 | 08:30:00 | |
| OE3OSB-13 | 2026-09-01 01:39:08 | 48.28952 | 17.48482 | 139° | 18km/h | 27943m | 6.7m/s | -47.1°C | 0.9% | -1.0hPa | 2.6V | 00:00:00 | 00:00:00 | 00:00:00 | |
| DO3MHA-12 | 2026-09-01 01:39:07 | 48.28956 | 17.48478 | 140° | 7km/h | 27938m | 4.2m/s | -47.1°C | 0% | 0hPa | 2.6V | 00:00:00 | 01:38:47 | 00:00:00 | |
| PETON7-10 | 2026-09-01 01:39:03 | 48.28961 | 17.48479 | 268° | 11km/h | 27912m | 5.6m/s | -47.2°C | 3.2% | 0hPa | 2.6V | 00:00:00 | 00:00:00 | 00:00:00 | |
| SONDE2-11 | 2026-09-01 01:38:54 | 48.28975 | 17.48477 | 149° | 18km/h | 27854m | 7.0m/s | -47.7°C | 0.9% | -1.0hPa | 2.6V | 00:00:00 | 00:00:00 | 00:00:00 | |
| OE5MMP-10 | 2026-09-01 01:38:51 | 48.28988 | 17.48467 | 157° | 11km/h | 27835m | 7.0m/s | -47.9°C | 3.3% | 0hPa | 2.6V | 00:00:00 | 01:38:31 | 00:00:00 | |
| OM5KV | 2026-09-01 01:38:50 | 48.28988 | 17.48467 | 157° | 15km/h | 27835m | 7.0m/s | -47.9°C | 1.0% | 0hPa | 2.6V | 00:00:00 | 00:00:00 | 00:00:00 | |
| PETON7-10 | 2026-09-01 01:38:48 | 48.28995 | 17.48460 | 127° | 11km/h | 27817m | 7.0m/s | -47.9°C | 3.4% | 0hPa | 2.6V | 00:00:00 | 00:00:00 | 00:00:00 | |
| DO3MHA-12 | 2026-09-01 01:38:47 | 48.28997 | 17.48456 | 114° | 11km/h | 27810m | 7.0m/s | 0°C | 0% | 0hPa | 2.6V | 00:00:00 | 01:38:27 | 00:00:00 | |
| OE3JTB-15 | 2026-09-01 01:38:46 | 48.28998 | 17.48451 | 111° | 15km/h | 27804m | 5.3m/s | -48.0°C | 3.4% | 0hPa | 2.6V | 00:00:00 | 01:38:26 | 00:00:00 | |
| OM5KV | 2026-09-01 01:38:44 | 48.28999 | 17.48446 | 115° | 13km/h | 27798m | 6.2m/s | -48.0°C | 1.0% | 0hPa | 2.6V | 00:00:00 | 00:00:00 | 00:00:00 | |
| PG1ADW-2 | 2026-09-01 01:38:42 | 48.29004 | 17.48440 | 153° | 16km/h | 27777m | 6.0m/s | -48.0°C | 3.4% | 0hPa | 2.6V | 00:00:00 | 00:00:00 | 00:00:00 | |
| HA6NAB-11 | 2026-09-01 01:38:41 | 48.29004 | 17.48440 | 154° | 9km/h | 27777m | 6.1m/s | -48.1°C | 1.0% | 0hPa | 2.6V | 00:00:00 | 00:00:00 | 00:00:00 | |
| OM5KV | 2026-09-01 01:38:38 | 48.29008 | 17.48432 | 117° | 9km/h | 27758m | 4.9m/s | -48.1°C | 1.0% | 0hPa | 2.6V | 00:00:00 | 00:00:00 | 00:00:00 | |
| DO3MHA-11 | 2026-09-01 01:38:37 | 48.29010 | 17.48427 | 97° | 15km/h | 27744m | 7.0m/s | -48.0°C | 3.4% | 0hPa | 2.6V | 00:00:00 | 01:38:17 | 00:00:00 | |
| OM5KV | 2026-09-01 01:38:36 | 48.29010 | 17.48427 | 97° | 2km/h | 27744m | 7.0m/s | -48.1°C | 1.0% | 0hPa | 2.6V | 00:00:00 | 00:00:00 | 00:00:00 | |
| HA6NAB-11 | 2026-09-01 01:38:35 | 48.29010 | 17.48426 | 73° | 5km/h | 27738m | 4.3m/s | -48.1°C | 1.0% | 0hPa | 2.6V | 00:00:00 | 00:00:00 | 00:00:00 | |
| PETON7-10 | 2026-09-01 01:38:33 | 48.29007 | 17.48411 | 77° | 20km/h | 27719m | 5.4m/s | -48.1°C | 3.4% | 0hPa | 2.6V | 00:00:00 | 01:38:13 | 00:00:00 | |
| OM5KV | 2026-09-01 01:38:32 | 48.29006 | 17.48412 | 77° | 22km/h | 27719m | 5.4m/s | -48.1°C | 1.0% | 0hPa | 2.6V | 00:00:00 | 00:00:00 | 00:00:00 | |
| OE5MMP-10 | 2026-09-01 01:38:31 | 48.29005 | 17.48396 | 83° | 20km/h | 27706m | 7.3m/s | -48.0°C | 3.4% | 0hPa | 2.6V | 00:00:00 | 01:38:11 | 00:00:00 | |
| HA6NAB-11 | 2026-09-01 01:38:30 | 48.29005 | 17.48396 | 84° | 18km/h | 27706m | 7.3m/s | -48.1°C | 1.0% | 0hPa | 2.6V | 00:00:00 | 00:00:00 | 00:00:00 | |
| DO3MHA-11 | 2026-09-01 01:38:27 | 48.29006 | 17.48369 | 96° | 18km/h | 27682m | 7.1m/s | -48.0°C | 3.3% | 0hPa | 2.6V | 00:00:00 | 01:38:07 | 00:00:00 | |
| DO3MHA-12 | 2026-09-01 01:38:26 | 48.29006 | 17.48360 | 93° | 18km/h | 27675m | 6.0m/s | 0°C | 0% | 0hPa | 2.6V | 00:00:00 | 01:38:06 | 00:00:00 | |
| OE5DXL-15 | 2026-09-01 01:38:25 | 48.29006 | 17.48350 | 91° | 13km/h | 27670m | 4.1m/s | -48.0°C | 3.3% | 0hPa | 2.6V | 00:00:00 | 00:00:00 | 00:00:00 | |
| HA6NAB-11 | 2026-09-01 01:38:24 | 48.29006 | 17.48350 | 91° | 26km/h | 27670m | 4.1m/s | -48.1°C | 1.0% | 0hPa | 2.6V | 00:00:00 | 00:00:00 | 00:00:00 | |
| SONDE2-11 | 2026-09-01 01:38:23 | 48.29006 | 17.48334 | 85° | 15km/h | 27657m | 7.6m/s | -48.2°C | 0.9% | -1.0hPa | 2.6V | 00:00:00 | 00:00:00 | 00:00:00 | |
| PG1ADW-2 | 2026-09-01 01:38:22 | 48.29006 | 17.48329 | 83° | 13km/h | 27651m | 5.5m/s | -48.2°C | 3.4% | 0hPa | 2.6V | 00:00:00 | 00:00:00 | 00:00:00 | |
| OE5MMP-10 | 2026-09-01 01:38:21 | 48.29006 | 17.48324 | 84° | 16km/h | 27645m | 5.4m/s | -48.3°C | 3.4% | 0hPa | 2.6V | 00:00:00 | 01:38:01 | 00:00:00 | |
| S52SK | 2026-09-01 01:38:20 | 48.29005 | 17.48324 | 85° | 15km/h | 27645m | 5.4m/s | -48.3°C | 1.0% | 0hPa | 2.6V | 00:00:00 | 00:00:00 | 00:00:00 | |
| PETON7-10 | 2026-09-01 01:38:18 | 48.29005 | 17.48305 | 83° | 13km/h | 27626m | 5.2m/s | -48.2°C | 3.4% | 0hPa | 2.6V | 00:00:00 | 00:00:00 | 00:00:00 | |
| DO3MHA-11 | 2026-09-01 01:38:17 | 48.29004 | 17.48299 | 80° | 16km/h | 27620m | 7.2m/s | -48.2°C | 3.4% | 0hPa | 2.6V | 00:00:00 | 01:37:57 | 00:00:00 | |
| DO3MHA-12 | 2026-09-01 01:38:16 | 48.29003 | 17.48294 | 73° | 16km/h | 27612m | 6.5m/s | 0°C | 0% | 0hPa | 2.6V | 00:00:00 | 01:37:56 | 00:00:00 | |
| OE5MMP-10 | 2026-09-01 01:38:11 | 48.28993 | 17.48264 | 59° | 9km/h | 27583m | 4.4m/s | -48.3°C | 3.4% | 0hPa | 2.6V | 00:00:00 | 01:37:51 | 00:00:00 | |
| OM5KV | 2026-09-01 01:38:10 | 48.28993 | 17.48264 | 59° | 24km/h | 27583m | 4.5m/s | -48.4°C | 1.0% | 0hPa | 2.6V | 00:00:00 | 00:00:00 | 00:00:00 | |
| OM5KV | 2026-09-01 01:38:09 | 48.28990 | 17.48258 | 47° | 20km/h | 27578m | 6.1m/s | -48.4°C | 1.0% | 0hPa | 2.6V | 00:00:00 | 00:00:00 | 00:00:00 | |
| DO3MHA-11 | 2026-09-01 01:38:07 | 48.28983 | 17.48252 | 349° | 5km/h | 27558m | 6.5m/s | -48.3°C | 3.4% | 0hPa | 2.6V | 00:00:00 | 01:37:47 | 00:00:00 | |
| DO3MHA-12 | 2026-09-01 01:38:06 | 48.28983 | 17.48252 | 175° | 7km/h | 27551m | 7.0m/s | 0°C | 0% | 0hPa | 2.6V | 00:00:00 | 01:37:46 | 00:00:00 | |
| OM5KV | 2026-09-01 01:38:04 | 48.28984 | 17.48251 | 154° | 7km/h | 27544m | 6.2m/s | -48.3°C | 1.0% | 0hPa | 2.6V | 00:00:00 | 00:00:00 | 00:00:00 | |
| PETON7-10 | 2026-09-01 01:38:03 | 48.28987 | 17.48250 | 175° | 9km/h | 27532m | 7.2m/s | -48.3°C | 3.4% | 0hPa | 2.6V | 00:00:00 | 00:00:00 | 00:00:00 | |
| SONDE2-11 | 2026-09-01 01:37:52 | 48.28981 | 17.48244 | 252° | 9km/h | 27460m | 7.7m/s | -48.6°C | 0.9% | -1.0hPa | 2.6V | 00:00:00 | 00:00:00 | 00:00:00 | |
| OE5MMP-10 | 2026-09-01 01:37:51 | 48.28982 | 17.48247 | 238° | 5km/h | 27453m | 5.7m/s | -48.5°C | 3.4% | 0hPa | 2.6V | 00:00:00 | 01:37:31 | 00:00:00 | |
| PETON7-10 | 2026-09-01 01:37:48 | 48.28982 | 17.48256 | 297° | 7km/h | 27434m | 5.1m/s | -48.7°C | 3.5% | 0hPa | 2.6V | 00:00:00 | 01:37:28 | 00:00:00 | |
| DO3MHA-11 | 2026-09-01 01:37:47 | 48.28982 | 17.48257 | 345° | 5km/h | 27429m | 6.4m/s | -48.7°C | 3.5% | 0hPa | 2.6V | 00:00:00 | 01:37:27 | 00:00:00 | |
| DO3MHA-12 | 2026-09-01 01:37:46 | 48.28982 | 17.48256 | 77° | 68km/h | 27421m | 7.7m/s | 0°C | 0% | 0hPa | 2.6V | 00:00:00 | 01:37:26 | 00:00:00 | |
| OM5KV | 2026-09-01 01:37:45 | 48.28982 | 17.48257 | 77° | 4km/h | 27421m | 7.8m/s | -48.8°C | 1.0% | 0hPa | 2.6V | 00:00:00 | 00:00:00 | 00:00:00 | |
| GYPAP8-17 | 2026-09-01 01:37:43 | 48.28982 | 17.48251 | 80° | 7km/h | 27409m | 5.3m/s | -48.8°C | 1.0% | 0hPa | 2.6V | 00:00:00 | 00:00:00 | 00:00:00 | |
| PG1ADW-2 | 2026-09-01 01:37:42 | 48.28981 | 17.48249 | 315° | 9km/h | 27395m | 6.2m/s | -48.7°C | 3.5% | 0hPa | 2.6V | 00:00:00 | 01:37:22 | 08:30:00 | |
| OE5MMP-10 | 2026-09-01 01:37:41 | 48.28980 | 17.48251 | 273° | 9km/h | 27390m | 5.6m/s | -48.7°C | 3.4% | 0hPa | 2.6V | 00:00:00 | 01:37:21 | 08:30:00 | |
| OE5DRO-10 | 2026-09-01 01:37:38 | 48.28986 | 17.48256 | 182° | 11km/h | 27370m | 6.2m/s | -48.8°C | 3.4% | 0hPa | 2.6V | 00:00:00 | 00:00:00 | 00:00:00 | |
| DO3MHA-11 | 2026-09-01 01:37:37 | 48.28989 | 17.48256 | 176° | 7km/h | 27364m | 4.7m/s | -48.7°C | 3.4% | 0hPa | 2.6V | 00:00:00 | 01:37:17 | 00:00:00 | |
| OM5KV | 2026-09-01 01:37:36 | 48.28988 | 17.48256 | 177° | 13km/h | 27364m | 4.8m/s | -48.8°C | 1.0% | 0hPa | 2.6V | 00:00:00 | 00:00:00 | 00:00:00 | |
| OE3OSB-13 | 2026-09-01 01:37:35 | 48.28994 | 17.48256 | 200° | 7km/h | 27351m | 6.9m/s | -48.8°C | 1.0% | -1.0hPa | 2.6V | 00:00:00 | 00:00:00 | 00:00:00 | |
| PETON7-10 | 2026-09-01 01:37:33 | 48.28996 | 17.48257 | 154° | 11km/h | 27338m | 6.4m/s | -48.8°C | 3.4% | 0hPa | 2.6V | 00:00:00 | 00:00:00 | 08:30:00 | |
| OE5MMP-10 | 2026-09-01 01:37:31 | 48.28999 | 17.48253 | 139° | 9km/h | 27325m | 5.6m/s | -48.9°C | 3.5% | 0hPa | 2.6V | 00:00:00 | 01:37:11 | 00:00:00 | |
| OM5KV | 2026-09-01 01:37:30 | 48.29000 | 17.48253 | 139° | 11km/h | 27325m | 5.6m/s | -48.9°C | 1.0% | 0hPa | 2.6V | 00:00:00 | 00:00:00 | 00:00:00 | |
| DO3MHA-11 | 2026-09-01 01:37:27 | 48.29004 | 17.48245 | 116° | 15km/h | 27301m | 4.6m/s | -48.9°C | 3.4% | 0hPa | 2.6V | 00:00:00 | 01:37:07 | 00:00:00 | |
| HA6NAB-11 | 2026-09-01 01:37:26 | 48.29004 | 17.48245 | 117° | 7km/h | 27301m | 4.6m/s | -49.0°C | 1.0% | 0hPa | 2.6V | 00:00:00 | 00:00:00 | 00:00:00 | |
| OE5DXL-15 | 2026-09-01 01:37:25 | 48.29007 | 17.48238 | 126° | 16km/h | 27288m | 5.8m/s | -49.0°C | 3.5% | 0hPa | 2.6V | 00:00:00 | 00:00:00 | 00:00:00 | |
| OM5KV | 2026-09-01 01:37:24 | 48.29007 | 17.48238 | 127° | 13km/h | 27288m | 5.9m/s | -49.0°C | 1.0% | 0hPa | 2.6V | 00:00:00 | 00:00:00 | 00:00:00 | |
| PG1ADW-2 | 2026-09-01 01:37:22 | 48.29014 | 17.48234 | 199° | 16km/h | 27268m | 7.0m/s | -49.1°C | 3.5% | 0hPa | 2.6V | 00:00:00 | 00:00:00 | 00:00:00 | |
| OE5MMP-10 | 2026-09-01 01:37:21 | 48.29017 | 17.48236 | 211° | 18km/h | 27262m | 5.8m/s | -49.1°C | 3.5% | 0hPa | 2.6V | 00:00:00 | 01:37:01 | 00:00:00 | |
| HA6NAB-11 | 2026-09-01 01:37:20 | 48.29018 | 17.48236 | 212° | 16km/h | 27262m | 5.9m/s | -49.2°C | 1.0% | 0hPa | 2.6V | 00:00:00 | 00:00:00 | 00:00:00 | |
| PETON7-10 | 2026-09-01 01:37:18 | 48.29031 | 17.48242 | 180° | 18km/h | 27243m | 6.4m/s | -49.2°C | 3.5% | 0hPa | 2.6V | 00:00:00 | 00:00:00 | 00:00:00 | |
| DO3MHA-11 | 2026-09-01 01:37:17 | 48.29036 | 17.48241 | 167° | 16km/h | 27238m | 4.9m/s | -49.2°C | 3.5% | 0hPa | 2.6V | 00:00:00 | 01:36:57 | 00:00:00 | |
| OE5DRO-10 | 2026-09-01 01:37:16 | 48.29041 | 17.48240 | 167° | 16km/h | 27233m | 5.0m/s | -49.3°C | 3.5% | 0hPa | 2.6V | 00:00:00 | 00:00:00 | 00:00:00 | |
| OE5MMP-10 | 2026-09-01 01:37:11 | 48.29060 | 17.48232 | 150° | 16km/h | 27201m | 6.6m/s | -49.5°C | 3.6% | 0hPa | 2.6V | 00:00:00 | 01:36:51 | 00:00:00 | |
| S52SK | 2026-09-01 01:37:09 | 48.29064 | 17.48229 | 151° | 16km/h | 27195m | 4.8m/s | -49.6°C | 1.1% | 0hPa | 2.6V | 00:00:00 | 00:00:00 | 00:00:00 | |
| DO3MHA-11 | 2026-09-01 01:37:07 | 48.29074 | 17.48226 | 188° | 16km/h | 27176m | 5.8m/s | -49.6°C | 3.7% | 0hPa | 2.6V | 00:00:00 | 01:36:47 | 00:00:00 | |
| OM5KV | 2026-09-01 01:37:05 | 48.29077 | 17.48226 | 178° | 15km/h | 27170m | 6.0m/s | -49.6°C | 1.1% | 0hPa | 2.6V | 00:00:00 | 00:00:00 | 00:00:00 | |
| OE3OSB-13 | 2026-09-01 01:37:04 | 48.29091 | 17.48220 | 154° | 20km/h | 27151m | 4.4m/s | -49.6°C | 1.0% | -1.0hPa | 2.6V | 00:00:00 | 00:00:00 | 00:00:00 | |
| PETON7-10 | 2026-09-01 01:37:03 | 48.29091 | 17.48220 | 155° | 15km/h | 27151m | 4.3m/s | -49.6°C | 3.6% | 0hPa | 2.6V | 00:00:00 | 01:36:43 | 00:00:00 | |
| OM5KV | 2026-09-01 01:37:02 | 48.29091 | 17.48220 | 155° | 22km/h | 27151m | 4.4m/s | -49.6°C | 1.1% | 0hPa | 2.6V | 00:00:00 | 00:00:00 | 00:00:00 | |
| SONDE2-11 | 2026-09-01 01:36:50 | 48.29119 | 17.48173 | 152° | 16km/h | 27068m | 6.0m/s | -49.5°C | 1.0% | -1.0hPa | 2.6V | 00:00:00 | 00:00:00 | 00:00:00 | |
| OE3JTB-15 | 2026-09-01 01:36:49 | 48.29123 | 17.48169 | 158° | 15km/h | 27062m | 4.7m/s | -49.5°C | 3.6% | 0hPa | 2.6V | 00:00:00 | 00:00:00 | 08:30:00 | |
| PETON7-10 | 2026-09-01 01:36:48 | 48.29128 | 17.48167 | 164° | 18km/h | 27057m | 6.4m/s | -49.5°C | 3.6% | 0hPa | 2.6V | 00:00:00 | 00:00:00 | 00:00:00 | |
| DO3MHA-11 | 2026-09-01 01:36:47 | 48.29132 | 17.48165 | 167° | 20km/h | 27050m | 6.6m/s | -49.5°C | 3.6% | 0hPa | 2.6V | 00:00:00 | 01:36:27 | 00:00:00 | |
| OM5KV | 2026-09-01 01:36:45 | 48.29136 | 17.48163 | 142° | 11km/h | 27044m | 5.3m/s | -49.6°C | 1.1% | 0hPa | 2.6V | 00:00:00 | 00:00:00 | 00:00:00 | |
| HA6NAB-11 | 2026-09-01 01:36:44 | 48.29138 | 17.48159 | 116° | 15km/h | 27038m | 7.1m/s | -49.6°C | 1.1% | 0hPa | 2.6V | 00:00:00 | 00:00:00 | 00:00:00 | |
| OM5KV | 2026-09-01 01:36:43 | 48.29138 | 17.48153 | 95° | 16km/h | 27031m | 7.1m/s | -49.7°C | 1.1% | 0hPa | 2.6V | 00:00:00 | 00:00:00 | 00:00:00 | |
| PG1ADW-2 | 2026-09-01 01:36:42 | 48.29135 | 17.48139 | 56° | 15km/h | 27019m | 6.5m/s | -49.6°C | 3.6% | 0hPa | 2.6V | 00:00:00 | 00:00:00 | 00:00:00 | |
| OE5MMP-10 | 2026-09-01 01:36:41 | 48.29132 | 17.48132 | 46° | 16km/h | 27012m | 7.9m/s | -49.6°C | 3.6% | 0hPa | 2.6V | 00:00:00 | 01:36:21 | 00:00:00 | |
| OM5KV | 2026-09-01 01:36:39 | 48.29127 | 17.48127 | 35° | 22km/h | 27005m | 6.1m/s | -49.6°C | 1.1% | 0hPa | 2.6V | 00:00:00 | 00:00:00 | 00:00:00 | |
| OE5DRO-10 | 2026-09-01 01:36:38 | 48.29118 | 17.48116 | 47° | 13km/h | 26992m | 6.9m/s | -49.5°C | 3.6% | 0hPa | 2.6V | 00:00:00 | 00:00:00 | 00:00:00 | |
| DO3MHA-11 | 2026-09-01 01:36:37 | 48.29115 | 17.48110 | 61° | 13km/h | 26986m | 6.6m/s | -49.5°C | 3.6% | 0hPa | 2.6V | 00:00:00 | 01:36:17 | 00:00:00 | |
| PETON7-10 | 2026-09-01 01:36:33 | 48.29110 | 17.48091 | 72° | 11km/h | 26960m | 6.2m/s | -49.4°C | 3.6% | 0hPa | 2.6V | 00:00:00 | 00:00:00 | 00:00:00 | |
| SQ9EZE-15 | 2026-09-01 01:36:32 | 48.29111 | 17.48091 | 72° | 5km/h | 26960m | 6.2m/s | 0°C | 0% | 0hPa | 2.6V | 00:00:00 | 00:00:00 | 00:00:00 | |
| OE5MMP-10 | 2026-09-01 01:36:31 | 48.29110 | 17.48084 | 92° | 13km/h | 26946m | 7.4m/s | -49.4°C | 3.5% | 0hPa | 2.6V | 00:00:00 | 01:36:11 | 00:00:00 | |
| HA6NAB-11 | 2026-09-01 01:36:28 | 48.29109 | 17.48075 | 69° | 11km/h | 26934m | 5.7m/s | -49.5°C | 1.0% | 0hPa | 2.6V | 00:00:00 | 00:00:00 | 00:00:00 | |
| DO3MHA-11 | 2026-09-01 01:36:27 | 48.29106 | 17.48069 | 31° | 11km/h | 26920m | 6.2m/s | -49.5°C | 3.5% | 0hPa | 2.6V | 00:00:00 | 01:36:07 | 08:30:00 | |
| OE5DXL-15 | 2026-09-01 01:36:25 | 48.29101 | 17.48063 | 55° | 13km/h | 26908m | 7.2m/s | -49.5°C | 3.5% | 0hPa | 2.6V | 00:00:00 | 00:00:00 | 00:00:00 | |
| GYPAP8-17 | 2026-09-01 01:36:24 | 48.29101 | 17.48063 | 56° | 15km/h | 26908m | 7.3m/s | -49.6°C | 1.0% | 0hPa | 2.6V | 00:00:00 | 00:00:00 | 00:00:00 | |
| OK1ALN | 2026-09-01 01:36:23 | 48.29100 | 17.48058 | 77° | 15km/h | 26901m | 6.1m/s | -49.7°C | 1.1% | 0hPa | 2.6V | 00:00:00 | 00:00:00 | 00:00:00 | |
| PG1ADW-2 | 2026-09-01 01:36:22 | 48.29101 | 17.48049 | 123° | 13km/h | 26890m | 5.6m/s | -49.7°C | 3.6% | 0hPa | 2.6V | 00:00:00 | 01:36:02 | 00:00:00 | |
| OE5MMP-10 | 2026-09-01 01:36:21 | 48.29103 | 17.48046 | 154° | 13km/h | 26884m | 7.0m/s | -49.7°C | 3.6% | 0hPa | 2.6V | 00:00:00 | 01:36:01 | 00:00:00 | |
| OE3JTB-15 | 2026-09-01 01:36:20 | 48.29105 | 17.48045 | 190° | 11km/h | 26877m | 6.9m/s | -49.7°C | 3.6% | 0hPa | 2.6V | 00:00:00 | 00:00:00 | 00:00:00 | |
| OE5DRO-10 | 2026-09-01 01:36:19 | 48.29107 | 17.48046 | 215° | 13km/h | 26870m | 6.2m/s | -49.7°C | 3.6% | 0hPa | 2.6V | 00:00:00 | 00:00:00 | 00:00:00 | |
| PETON7-10 | 2026-09-01 01:36:18 | 48.29110 | 17.48048 | 203° | 13km/h | 26864m | 4.5m/s | -49.7°C | 3.6% | 0hPa | 2.6V | 00:00:00 | 01:35:58 | 00:00:00 | |
| DO3MHA-11 | 2026-09-01 01:36:17 | 48.29112 | 17.48048 | 170° | 15km/h | 26859m | 7.0m/s | -49.8°C | 3.6% | 0hPa | 2.6V | 00:00:00 | 01:35:57 | 00:00:00 | |
| HA6NAB-11 | 2026-09-01 01:36:16 | 48.29112 | 17.48048 | 170° | 11km/h | 26859m | 7.0m/s | -49.8°C | 1.1% | 0hPa | 2.6V | 00:00:00 | 00:00:00 | 00:00:00 | |
| OM5KV | 2026-09-01 01:36:14 | 48.29118 | 17.48043 | 133° | 16km/h | 26845m | 5.6m/s | -49.8°C | 1.1% | 0hPa | 2.6V | 00:00:00 | 00:00:00 | 00:00:00 | |
| OE5MMP-10 | 2026-09-01 01:36:11 | 48.29128 | 17.48028 | 157° | 13km/h | 26820m | 5.0m/s | -49.9°C | 3.6% | 0hPa | 2.6V | 00:00:00 | 01:35:51 | 08:30:00 | |
| OM5KV | 2026-09-01 01:36:10 | 48.29128 | 17.48028 | 157° | 15km/h | 26820m | 5.0m/s | -49.9°C | 1.0% | 0hPa | 2.6V | 00:00:00 | 00:00:00 | 00:00:00 | |
| OM5KV | 2026-09-01 01:36:09 | 48.29131 | 17.48025 | 157° | 18km/h | 26814m | 6.9m/s | -50.0°C | 1.1% | 0hPa | 2.6V | 00:00:00 | 00:00:00 | 00:00:00 | |
| DO3MHA-11 | 2026-09-01 01:36:07 | 48.29142 | 17.48017 | 157° | 11km/h | 26797m | 6.0m/s | -50.1°C | 3.6% | 0hPa | 2.6V | 00:00:00 | 01:35:47 | 00:00:00 | |
| PETON7-10 | 2026-09-01 01:36:03 | 48.29139 | 17.48013 | 43° | 9km/h | 26771m | 7.8m/s | -50.3°C | 3.7% | 0hPa | 2.6V | 00:00:00 | 00:00:00 | 00:00:00 | |
| OE3OSB-13 | 2026-09-01 01:36:02 | 48.29135 | 17.48004 | 67° | 16km/h | 26757m | 4.9m/s | -50.5°C | 1.0% | -1.0hPa | 2.6V | 00:00:00 | 00:00:00 | 00:00:00 | |
| OE5MMP-10 | 2026-09-01 01:36:01 | 48.29135 | 17.48004 | 68° | 9km/h | 26758m | 4.8m/s | -50.4°C | 3.8% | 0hPa | 2.6V | 00:00:00 | 01:35:41 | 00:00:00 | |
| OE5DRO-10 | 2026-09-01 01:36:00 | 48.29134 | 17.47998 | 70° | 7km/h | 26753m | 5.3m/s | -50.4°C | 3.8% | 0hPa | 2.6V | 00:00:00 | 00:00:00 | 00:00:00 | |
| DO3MHA-11 | 2026-09-01 01:35:57 | 48.29131 | 17.47987 | 83° | 7km/h | 26734m | 4.6m/s | -50.4°C | 3.8% | 0hPa | 2.6V | 00:00:00 | 01:35:37 | 00:00:00 | |
| OE5DXL-15 | 2026-09-01 01:35:55 | 48.29132 | 17.47981 | 120° | 7km/h | 26722m | 6.7m/s | -50.4°C | 3.7% | 0hPa | 2.6V | 00:00:00 | 00:00:00 | 00:00:00 | |
| S52SK | 2026-09-01 01:35:54 | 48.29132 | 17.47981 | 121° | 11km/h | 26722m | 6.7m/s | -50.5°C | 1.1% | 0hPa | 2.6V | 00:00:00 | 00:00:00 | 00:00:00 | |
| OM5KV | 2026-09-01 01:35:52 | 48.29135 | 17.47974 | 114° | 7km/h | 26711m | 5.1m/s | -50.5°C | 1.1% | 0hPa | 2.6V | 00:00:00 | 00:00:00 | 00:00:00 | |
| OE5MMP-10 | 2026-09-01 01:35:51 | 48.29135 | 17.47973 | 308° | 7km/h | 26697m | 6.2m/s | -50.5°C | 3.8% | 0hPa | 2.6V | 00:00:00 | 01:35:31 | 00:00:00 | |
| PETON7-10 | 2026-09-01 01:35:48 | 48.29136 | 17.47977 | 198° | 7km/h | 26679m | 6.0m/s | -50.4°C | 3.7% | 0hPa | 2.6V | 00:00:00 | 00:00:00 | 00:00:00 | |
| DO3MHA-11 | 2026-09-01 01:35:47 | 48.29138 | 17.47978 | 193° | 9km/h | 26675m | 4.5m/s | -50.4°C | 3.7% | 0hPa | 2.6V | 00:00:00 | 01:35:27 | 00:00:00 | |
| PG1ADW-2 | 2026-09-01 01:35:42 | 48.29143 | 17.47971 | 116° | 7km/h | 26643m | 7.3m/s | -50.5°C | 3.7% | 0hPa | 2.6V | 00:00:00 | 00:00:00 | 00:00:00 | |
| OE5MMP-10 | 2026-09-01 01:35:41 | 48.29144 | 17.47966 | 108° | 7km/h | 26637m | 4.8m/s | -50.6°C | 3.7% | 0hPa | 2.6V | 00:00:00 | 01:35:21 | 00:00:00 | |
| DO3MHA-11 | 2026-09-01 01:35:37 | 48.29141 | 17.47954 | 9° | 5km/h | 26612m | 6.3m/s | -50.7°C | 3.8% | 0hPa | 2.7V | 00:00:00 | 01:35:17 | 00:00:00 | |
| HA6NAB-11 | 2026-09-01 01:35:36 | 48.29142 | 17.47954 | 9° | 5km/h | 26612m | 6.4m/s | -50.8°C | 1.1% | 0hPa | 2.7V | 00:00:00 | 00:00:00 | 00:00:00 | |
| OM5KV | 2026-09-01 01:35:35 | 48.29140 | 17.47954 | 0° | 0km/h | 26605m | 7.5m/s | -50.8°C | 1.1% | 0hPa | 2.7V | 00:00:00 | 00:00:00 | 00:00:00 | |
| PETON7-10 | 2026-09-01 01:35:33 | 48.29142 | 17.47956 | 246° | 7km/h | 26585m | 7.3m/s | -50.8°C | 3.8% | 0hPa | 2.7V | 00:00:00 | 01:35:13 | 00:00:00 | |
| OE5MMP-10 | 2026-09-01 01:35:31 | 48.29143 | 17.47958 | 185° | 7km/h | 26572m | 4.4m/s | -50.8°C | 3.8% | 0hPa | 2.7V | 00:00:00 | 01:35:11 | 00:00:00 | |
| OM5KV | 2026-09-01 01:35:30 | 48.29144 | 17.47958 | 163° | 7km/h | 26566m | 7.1m/s | -50.9°C | 1.1% | 0hPa | 2.7V | 00:00:00 | 00:00:00 | 00:00:00 | |
| DO3MHA-11 | 2026-09-01 01:35:27 | 48.29151 | 17.47967 | 124° | 62km/h | 26549m | 6.3m/s | -50.9°C | 3.8% | 0hPa | 2.7V | 00:00:00 | 01:35:07 | 00:00:00 | |
| OE5DXL-15 | 2026-09-01 01:35:25 | 48.29152 | 17.47944 | 80° | 7km/h | 26536m | 5.6m/s | -50.9°C | 3.8% | 0hPa | 2.6V | 00:00:00 | 00:00:00 | 00:00:00 | |
| GYPAP8-17 | 2026-09-01 01:35:24 | 48.29152 | 17.47944 | 80° | 5km/h | 26536m | 5.6m/s | -51.0°C | 1.2% | 0hPa | 2.6V | 00:00:00 | 00:00:00 | 00:00:00 | |
| OM5KV | 2026-09-01 01:35:23 | 48.29152 | 17.47942 | 96° | 4km/h | 26531m | 5.3m/s | -51.0°C | 1.1% | 0hPa | 2.6V | 00:00:00 | 00:00:00 | 00:00:00 | |
| OE3JTB-15 | 2026-09-01 01:35:22 | 48.29154 | 17.47940 | 178° | 7km/h | 26518m | 6.1m/s | -51.0°C | 3.9% | 0hPa | 2.6V | 00:00:00 | 00:00:00 | 00:00:00 | |
| OE5MMP-10 | 2026-09-01 01:35:21 | 48.29156 | 17.47940 | 194° | 7km/h | 26513m | 4.7m/s | -51.0°C | 3.8% | 0hPa | 2.6V | 00:00:00 | 01:35:01 | 00:00:00 | |
| OM5KV | 2026-09-01 01:35:20 | 48.29156 | 17.47940 | 195° | 7km/h | 26513m | 4.7m/s | -51.1°C | 1.1% | 0hPa | 2.6V | 00:00:00 | 00:00:00 | 00:00:00 | |
| HA6NAB-11 | 2026-09-01 01:35:19 | 48.29158 | 17.47941 | 213° | 7km/h | 26507m | 7.1m/s | -51.1°C | 1.1% | 0hPa | 2.6V | 00:00:00 | 00:00:00 | 00:00:00 | |
| PETON7-10 | 2026-09-01 01:35:18 | 48.29160 | 17.47945 | 232° | 7km/h | 26494m | 4.7m/s | -51.0°C | 3.9% | 0hPa | 2.6V | 00:00:00 | 00:00:00 | 08:30:00 | |
| SONDE2-11 | 2026-09-01 01:35:17 | 48.29161 | 17.47947 | 219° | 9km/h | 26488m | 7.0m/s | -51.1°C | 1.1% | -1.0hPa | 2.6V | 00:00:00 | 00:00:00 | 00:00:00 | |
| OM5KV | 2026-09-01 01:35:14 | 48.29166 | 17.47951 | 205° | 11km/h | 26476m | 4.9m/s | -51.1°C | 1.2% | 0hPa | 2.6V | 00:00:00 | 00:00:00 | 00:00:00 | |
| HA6NAB-11 | 2026-09-01 01:35:13 | 48.29168 | 17.47952 | 204° | 7km/h | 26471m | 6.7m/s | -51.1°C | 1.2% | 0hPa | 2.6V | 00:00:00 | 00:00:00 | 00:00:00 | |
| OM5KV | 2026-09-01 01:35:12 | 48.29169 | 17.47953 | 195° | 4km/h | 26464m | 6.5m/s | -51.1°C | 1.2% | 0hPa | 2.6V | 00:00:00 | 00:00:00 | 00:00:00 | |
| OE5MMP-10 | 2026-09-01 01:35:11 | 48.29170 | 17.47951 | 117° | 7km/h | 26454m | 4.8m/s | -51.1°C | 3.9% | 0hPa | 2.6V | 00:00:00 | 01:34:51 | 00:00:00 | |
| OM5KV | 2026-09-01 01:35:08 | 48.29173 | 17.47948 | 151° | 11km/h | 26442m | 6.6m/s | -51.1°C | 1.1% | 0hPa | 2.6V | 00:00:00 | 00:00:00 | 00:00:00 | |
| OM5KV | 2026-09-01 01:35:06 | 48.29177 | 17.47943 | 140° | 9km/h | 26430m | 7.2m/s | -51.1°C | 1.2% | 0hPa | 2.6V | 00:00:00 | 00:00:00 | 00:00:00 | |
| PETON7-10 | 2026-09-01 01:35:03 | 48.29181 | 17.47937 | 165° | 9km/h | 26404m | 6.8m/s | -51.2°C | 3.9% | 0hPa | 2.6V | 00:00:00 | 00:00:00 | 00:00:00 | |
| OM5KV | 2026-09-01 01:35:02 | 48.29181 | 17.47937 | 166° | 9km/h | 26404m | 6.9m/s | -51.2°C | 1.2% | 0hPa | 2.6V | 00:00:00 | 00:00:00 | 00:00:00 | |
| OE3OSB-13 | 2026-09-01 01:35:00 | 48.29186 | 17.47934 | 134° | 5km/h | 26380m | 4.8m/s | -51.2°C | 0% | -1.0hPa | 2.6V | 00:00:00 | 00:00:00 | 00:00:00 | |
| SONDE2-11 | 2026-09-01 01:34:46 | 48.29212 | 17.47931 | 338° | 4km/h | 26302m | 4.5m/s | -51.0°C | 1.1% | -1.0hPa | 2.6V | 00:00:00 | 00:00:00 | 00:00:00 | |
| OE5DRO-10 | 2026-09-01 01:34:44 | 48.29211 | 17.47931 | 137° | 9km/h | 26291m | 6.7m/s | -51.0°C | 3.8% | 0hPa | 2.6V | 00:00:00 | 00:00:00 | 00:00:00 | |
| PG1ADW-2 | 2026-09-01 01:34:42 | 48.29213 | 17.47929 | 142° | 9km/h | 26280m | 5.9m/s | -51.1°C | 3.9% | 0hPa | 2.6V | 00:00:00 | 00:00:00 | 08:30:00 | |
| OE5MMP-10 | 2026-09-01 01:34:41 | 48.29214 | 17.47927 | 118° | 9km/h | 26274m | 6.7m/s | -51.1°C | 3.9% | 0hPa | 2.6V | 00:00:00 | 01:34:21 | 08:30:00 | |
| OM5KV | 2026-09-01 01:34:39 | 48.29214 | 17.47926 | 87° | 4km/h | 26267m | 6.5m/s | -51.1°C | 1.1% | 0hPa | 2.6V | 00:00:00 | 00:00:00 | 00:00:00 | |
| OK1ALN | 2026-09-01 01:34:38 | 48.29214 | 17.47924 | 97° | 5km/h | 26262m | 4.6m/s | -51.1°C | 1.1% | 0hPa | 2.6V | 00:00:00 | 00:00:00 | 00:00:00 | |
| HA6NAB-11 | 2026-09-01 01:34:37 | 48.29214 | 17.47923 | 132° | 7km/h | 26256m | 6.4m/s | -51.1°C | 1.1% | 0hPa | 2.6V | 00:00:00 | 00:00:00 | 00:00:00 | |
| S52SK | 2026-09-01 01:34:35 | 48.29218 | 17.47918 | 142° | 11km/h | 26243m | 5.1m/s | -51.1°C | 1.1% | 0hPa | 2.6V | 00:00:00 | 00:00:00 | 00:00:00 | |
| PETON7-10 | 2026-09-01 01:34:33 | 48.29219 | 17.47907 | 67° | 11km/h | 26224m | 5.3m/s | -51.1°C | 3.9% | 0hPa | 2.6V | 00:00:00 | 00:00:00 | 00:00:00 | |
| OE5MMP-10 | 2026-09-01 01:34:31 | 48.29217 | 17.47897 | 77° | 11km/h | 26212m | 7.2m/s | -51.1°C | 3.9% | 0hPa | 2.6V | 00:00:00 | 01:34:11 | 00:00:00 | |
| S52SK | 2026-09-01 01:34:30 | 48.29217 | 17.47897 | 77° | 15km/h | 26212m | 7.2m/s | -51.1°C | 1.2% | 0hPa | 2.6V | 00:00:00 | 00:00:00 | 00:00:00 | |
| OM5KV | 2026-09-01 01:34:29 | 48.29216 | 17.47892 | 78° | 13km/h | 26206m | 4.6m/s | -51.1°C | 1.1% | 0hPa | 2.6V | 00:00:00 | 00:00:00 | 00:00:00 | |
| OE3OSB-13 | 2026-09-01 01:34:28 | 48.29213 | 17.47883 | 49° | 13km/h | 26194m | 7.2m/s | -51.1°C | 1.1% | -1.0hPa | 2.6V | 00:00:00 | 00:00:00 | 00:00:00 | |
| GYPAP8-17 | 2026-09-01 01:34:26 | 48.29210 | 17.47880 | 43° | 15km/h | 26187m | 6.1m/s | -51.1°C | 1.2% | 0hPa | 2.6V | 00:00:00 | 00:00:00 | 00:00:00 | |
| OE5DXL-15 | 2026-09-01 01:34:25 | 48.29207 | 17.47874 | 84° | 15km/h | 26175m | 7.9m/s | -51.1°C | 3.8% | 0hPa | 2.6V | 00:00:00 | 00:00:00 | 00:00:00 | |
| OE3JTB-15 | 2026-09-01 01:34:24 | 48.29208 | 17.47873 | 148° | 15km/h | 26168m | 6.4m/s | -51.1°C | 3.8% | 0hPa | 2.6V | 00:00:00 | 01:34:04 | 00:00:00 | |
| OM5KV | 2026-09-01 01:34:23 | 48.29208 | 17.47873 | 149° | 7km/h | 26168m | 6.4m/s | -51.2°C | 1.2% | 0hPa | 2.6V | 00:00:00 | 00:00:00 | 00:00:00 | |
| PG1ADW-2 | 2026-09-01 01:34:22 | 48.29211 | 17.47869 | 132° | 16km/h | 26159m | 4.1m/s | -51.2°C | 3.9% | 0hPa | 2.6V | 00:00:00 | 00:00:00 | 00:00:00 | |
| OE5MMP-10 | 2026-09-01 01:34:21 | 48.29212 | 17.47867 | 95° | 18km/h | 26153m | 6.9m/s | -51.2°C | 3.8% | 0hPa | 2.6V | 00:00:00 | 01:34:01 | 00:00:00 | |
| HA6NAB-11 | 2026-09-01 01:34:20 | 48.29212 | 17.47867 | 96° | 9km/h | 26153m | 7.0m/s | -51.2°C | 1.1% | 0hPa | 2.6V | 00:00:00 | 00:00:00 | 00:00:00 | |
| PETON7-10 | 2026-09-01 01:34:18 | 48.29209 | 17.47850 | 76° | 16km/h | 26135m | 5.6m/s | 0°C | 0% | 0hPa | 2.6V | 00:00:00 | 00:00:00 | 00:00:00 | |
| SONDE2-11 | 2026-09-01 01:34:15 | 48.29209 | 17.47826 | 98° | 20km/h | 26118m | 3.8m/s | -51.2°C | 1.1% | -1.0hPa | 2.6V | 00:00:00 | 00:00:00 | 00:00:00 | |
| OM5KV | 2026-09-01 01:34:12 | 48.29209 | 17.47810 | 82° | 20km/h | 26108m | 6.9m/s | -51.2°C | 1.1% | 0hPa | 2.6V | 00:00:00 | 00:00:00 | 00:00:00 | |
| OE5MMP-10 | 2026-09-01 01:34:11 | 48.29206 | 17.47797 | 72° | 13km/h | 26096m | 5.9m/s | -51.1°C | 3.8% | 0hPa | 2.6V | 00:00:00 | 01:33:51 | 00:00:00 | |
| HA6NAB-11 | 2026-09-01 01:34:09 | 48.29205 | 17.47792 | 79° | 13km/h | 26089m | 7.4m/s | -51.2°C | 1.1% | 0hPa | 2.7V | 00:00:00 | 00:00:00 | 00:00:00 | |
| OM5KV | 2026-09-01 01:34:07 | 48.29204 | 17.47785 | 62° | 11km/h | 26077m | 5.3m/s | -51.3°C | 1.1% | 0hPa | 2.7V | 00:00:00 | 00:00:00 | 00:00:00 | |
| OE5DRO-10 | 2026-09-01 01:34:06 | 48.29200 | 17.47777 | 49° | 16km/h | 26064m | 5.7m/s | -51.3°C | 3.8% | 0hPa | 2.7V | 00:00:00 | 00:00:00 | 08:30:00 | |
| OM5KV | 2026-09-01 01:34:04 | 48.29197 | 17.47772 | 60° | 15km/h | 26059m | 5.2m/s | -51.4°C | 1.2% | 0hPa | 2.6V | 00:00:00 | 00:00:00 | 00:00:00 | |
| PETON7-10 | 2026-09-01 01:34:03 | 48.29195 | 17.47762 | 88° | 15km/h | 26046m | 5.2m/s | -51.5°C | 3.9% | 0hPa | 2.6V | 00:00:00 | 01:33:43 | 00:00:00 | |
| OE3OSB-13 | 2026-09-01 01:33:57 | 48.29187 | 17.47728 | 78° | 11km/h | 26009m | 6.5m/s | -51.8°C | 1.1% | -1.0hPa | 2.6V | 00:00:00 | 00:00:00 | 00:00:00 | |
| OE5DXL-15 | 2026-09-01 01:33:55 | 48.29185 | 17.47720 | 48° | 16km/h | 25998m | 6.2m/s | -51.8°C | 4.0% | 0hPa | 2.6V | 00:00:00 | 00:00:00 | 00:00:00 | |
| OM5KV | 2026-09-01 01:33:53 | 48.29182 | 17.47717 | 30° | 15km/h | 25991m | 7.2m/s | -51.9°C | 1.2% | 0hPa | 2.7V | 00:00:00 | 00:00:00 | 00:00:00 | |
| OE5MMP-10 | 2026-09-01 01:33:51 | 48.29171 | 17.47710 | 28° | 20km/h | 25973m | 6.5m/s | -51.9°C | 4.0% | 0hPa | 2.7V | 00:00:00 | 01:33:31 | 00:00:00 | |
| OM5KV | 2026-09-01 01:33:49 | 48.29168 | 17.47708 | 25° | 16km/h | 25967m | 5.0m/s | -52.0°C | 1.2% | 0hPa | 2.7V | 00:00:00 | 00:00:00 | 00:00:00 | |
| PETON7-10 | 2026-09-01 01:33:48 | 48.29158 | 17.47702 | 19° | 20km/h | 25954m | 6.6m/s | -52.0°C | 4.0% | 0hPa | 2.7V | 00:00:00 | 00:00:00 | 00:00:00 | |
| OE5DRO-10 | 2026-09-01 01:33:47 | 48.29153 | 17.47699 | 21° | 18km/h | 25949m | 4.0m/s | -52.1°C | 4.1% | 0hPa | 2.6V | 00:00:00 | 00:00:00 | 00:00:00 | |
| SONDE2-11 | 2026-09-01 01:33:44 | 48.29139 | 17.47692 | 3° | 15km/h | 25932m | 3.9m/s | -52.1°C | 1.2% | -1.0hPa | 2.6V | 00:00:00 | 00:00:00 | 00:00:00 | |
| PG1ADW-2 | 2026-09-01 01:33:42 | 48.29129 | 17.47693 | 348° | 15km/h | 25920m | 6.7m/s | -52.1°C | 4.1% | 0hPa | 2.6V | 00:00:00 | 01:33:22 | 00:00:00 | |
| OE5MMP-10 | 2026-09-01 01:33:41 | 48.29123 | 17.47696 | 344° | 18km/h | 25914m | 5.1m/s | -52.0°C | 4.1% | 0hPa | 2.7V | 00:00:00 | 01:33:21 | 00:00:00 | |
| OM5KV | 2026-09-01 01:33:39 | 48.29118 | 17.47699 | 339° | 22km/h | 25909m | 5.9m/s | -52.1°C | 1.3% | 0hPa | 2.6V | 00:00:00 | 00:00:00 | 00:00:00 | |
| OK1ALN | 2026-09-01 01:33:38 | 48.29113 | 17.47702 | 335° | 16km/h | 25902m | 7.5m/s | -52.0°C | 1.2% | 0hPa | 2.6V | 00:00:00 | 00:00:00 | 00:00:00 | |
| OM5KV | 2026-09-01 01:33:37 | 48.29110 | 17.47704 | 346° | 11km/h | 25895m | 5.9m/s | -52.0°C | 1.2% | 0hPa | 2.6V | 00:00:00 | 00:00:00 | 00:00:00 | |
| PETON7-10 | 2026-09-01 01:33:33 | 48.29090 | 17.47696 | 13° | 13km/h | 25866m | 5.3m/s | -51.9°C | 4.1% | 0hPa | 2.6V | 00:00:00 | 00:00:00 | 00:00:00 | |
| OE5MMP-10 | 2026-09-01 01:33:31 | 48.29083 | 17.47696 | 343° | 11km/h | 25853m | 5.3m/s | -51.8°C | 4.1% | 0hPa | 2.6V | 00:00:00 | 01:33:11 | 00:00:00 | |
| OE5DRO-10 | 2026-09-01 01:33:28 | 48.29073 | 17.47703 | 330° | 9km/h | 25835m | 5.5m/s | -51.7°C | 4.0% | 0hPa | 2.6V | 00:00:00 | 00:00:00 | 00:00:00 | |
| OM5KV | 2026-09-01 01:33:27 | 48.29073 | 17.47703 | 331° | 18km/h | 25835m | 5.6m/s | -51.7°C | 1.2% | 0hPa | 2.6V | 00:00:00 | 00:00:00 | 00:00:00 | |
| OE3JTB-15 | 2026-09-01 01:33:26 | 48.29067 | 17.47710 | 313° | 7km/h | 25824m | 6.4m/s | -51.6°C | 4.0% | 0hPa | 2.6V | 00:00:00 | 00:00:00 | 00:00:00 | |
| OE5DXL-15 | 2026-09-01 01:33:25 | 48.29066 | 17.47713 | 301° | 7km/h | 25818m | 5.8m/s | -51.5°C | 4.0% | 0hPa | 2.6V | 00:00:00 | 00:00:00 | 00:00:00 | |
| PG1ADW-2 | 2026-09-01 01:33:22 | 48.29062 | 17.47710 | 43° | 9km/h | 25800m | 6.1m/s | -51.4°C | 4.0% | 0hPa | 2.6V | 00:00:00 | 00:00:00 | 00:00:00 | |
| OE5MMP-10 | 2026-09-01 01:33:21 | 48.29060 | 17.47707 | 43° | 7km/h | 25795m | 4.4m/s | -51.3°C | 3.9% | 0hPa | 2.6V | 00:00:00 | 01:33:01 | 00:00:00 | |
| S52SK | 2026-09-01 01:33:20 | 48.29060 | 17.47707 | 44° | 15km/h | 25795m | 4.5m/s | -51.4°C | 1.2% | 0hPa | 2.6V | 00:00:00 | 00:00:00 | 00:00:00 | |
| PETON7-10 | 2026-09-01 01:33:18 | 48.29055 | 17.47701 | 348° | 7km/h | 25777m | 5.3m/s | -51.3°C | 3.9% | 0hPa | 2.6V | 00:00:00 | 01:32:58 | 00:00:00 | |
| OK1ALN | 2026-09-01 01:33:17 | 48.29055 | 17.47701 | 349° | 4km/h | 25777m | 5.3m/s | -51.3°C | 1.2% | 0hPa | 2.6V | 00:00:00 | 00:00:00 | 00:00:00 | |
| OM5KV | 2026-09-01 01:33:16 | 48.29053 | 17.47701 | 329° | 7km/h | 25771m | 5.9m/s | -51.3°C | 1.2% | 0hPa | 2.6V | 00:00:00 | 00:00:00 | 00:00:00 | |
| S52SK | 2026-09-01 01:33:14 | 48.29049 | 17.47705 | 332° | 11km/h | 25759m | 4.7m/s | -51.3°C | 1.2% | 0hPa | 2.6V | 00:00:00 | 00:00:00 | 00:00:00 | |
| SONDE2-11 | 2026-09-01 01:33:13 | 48.29047 | 17.47709 | 294° | 4km/h | 25748m | 6.9m/s | -51.3°C | 1.1% | -1.0hPa | 2.6V | 00:00:00 | 00:00:00 | 00:00:00 | |
| OE5MMP-10 | 2026-09-01 01:33:11 | 48.29047 | 17.47709 | 121° | 7km/h | 25737m | 4.5m/s | -51.3°C | 3.9% | 0hPa | 2.6V | 00:00:00 | 01:32:51 | 08:30:00 | |
| OM5KV | 2026-09-01 01:33:10 | 48.29047 | 17.47709 | 122° | 4km/h | 25737m | 4.6m/s | -51.4°C | 1.2% | 0hPa | 2.6V | 00:00:00 | 00:00:00 | 00:00:00 | |
| GYPAP8-17 | 2026-09-01 01:33:06 | 48.29040 | 17.47701 | 5° | 15km/h | 25715m | 4.3m/s | -51.5°C | 1.2% | 0hPa | 2.6V | 00:00:00 | 00:00:00 | 00:00:00 | |
| HA6NAB-11 | 2026-09-01 01:33:05 | 48.29037 | 17.47702 | 343° | 13km/h | 25710m | 5.7m/s | -51.5°C | 1.2% | 0hPa | 2.6V | 00:00:00 | 00:00:00 | 00:00:00 | |
| OM5KV | 2026-09-01 01:33:04 | 48.29035 | 17.47704 | 324° | 9km/h | 25704m | 6.0m/s | -51.5°C | 1.2% | 0hPa | 2.6V | 00:00:00 | 00:00:00 | 00:00:00 | |
| PETON7-10 | 2026-09-01 01:33:03 | 48.29033 | 17.47708 | 275° | 7km/h | 25694m | 4.3m/s | -51.4°C | 3.9% | 0hPa | 2.6V | 00:00:00 | 00:00:00 | 08:30:00 | |
| PG1ADW-2 | 2026-09-01 01:33:02 | 48.29033 | 17.47708 | 92° | 7km/h | 25688m | 7.0m/s | -51.4°C | 3.9% | 0hPa | 2.6V | 00:00:00 | 00:00:00 | 00:00:00 | |
| OE5MMP-10 | 2026-09-01 01:33:01 | 48.29033 | 17.47706 | 77° | 7km/h | 25681m | 6.1m/s | -51.4°C | 3.9% | 0hPa | 2.6V | 00:00:00 | 01:32:41 | 00:00:00 | |
| OM5KV | 2026-09-01 01:32:58 | 48.29034 | 17.47702 | 124° | 5km/h | 25669m | 7.0m/s | -51.5°C | 1.2% | 0hPa | 2.6V | 00:00:00 | 00:00:00 | 00:00:00 | |
| OE3JTB-15 | 2026-09-01 01:32:57 | 48.29036 | 17.47701 | 200° | 7km/h | 25657m | 4.8m/s | -51.5°C | 4.0% | 0hPa | 2.6V | 00:00:00 | 01:32:37 | 00:00:00 | |
| OE5DXL-15 | 2026-09-01 01:32:55 | 48.29037 | 17.47702 | 238° | 7km/h | 25644m | 6.3m/s | -51.5°C | 4.0% | 0hPa | 2.6V | 00:00:00 | 00:00:00 | 00:00:00 | |
| OM5KV | 2026-09-01 01:32:53 | 48.29037 | 17.47704 | 266° | 7km/h | 25639m | 4.3m/s | -51.5°C | 1.2% | 0hPa | 2.6V | 00:00:00 | 00:00:00 | 00:00:00 | |
| OE5MMP-10 | 2026-09-01 01:32:51 | 48.29039 | 17.47719 | 259° | 9km/h | 25620m | 4.4m/s | -51.5°C | 4.0% | 0hPa | 2.6V | 00:00:00 | 01:32:31 | 00:00:00 | |
| OE5DRO-10 | 2026-09-01 01:32:50 | 48.29040 | 17.47723 | 264° | 7km/h | 25614m | 6.5m/s | -51.4°C | 3.9% | 0hPa | 2.6V | 00:00:00 | 00:00:00 | 00:00:00 | |
| PETON7-10 | 2026-09-01 01:32:48 | 48.29040 | 17.47729 | 282° | 7km/h | 25603m | 4.7m/s | -51.4°C | 3.9% | 0hPa | 2.6V | 00:00:00 | 00:00:00 | 00:00:00 | |
| OM5KV | 2026-09-01 01:32:47 | 48.29040 | 17.47729 | 282° | 4km/h | 25603m | 4.8m/s | -51.5°C | 1.2% | 0hPa | 2.6V | 00:00:00 | 00:00:00 | 00:00:00 | |
| OM5KV | 2026-09-01 01:32:46 | 48.29039 | 17.47731 | 271° | 4km/h | 25598m | 4.8m/s | -51.4°C | 1.2% | 0hPa | 2.6V | 00:00:00 | 00:00:00 | 00:00:00 | |
| PG1ADW-2 | 2026-09-01 01:32:42 | 48.29041 | 17.47749 | 267° | 7km/h | 25570m | 5.4m/s | -51.3°C | 4.0% | 0hPa | 2.6V | 00:00:00 | 00:00:00 | 00:00:00 | |
| OE5MMP-10 | 2026-09-01 01:32:41 | 48.29041 | 17.47752 | 286° | 5km/h | 25564m | 6.6m/s | -51.3°C | 3.9% | 0hPa | 2.6V | 00:00:00 | 01:32:21 | 00:00:00 | |
| OM5KV | 2026-09-01 01:32:40 | 48.29041 | 17.47752 | 287° | 5km/h | 25564m | 6.6m/s | -51.4°C | 1.2% | 0hPa | 2.6V | 00:00:00 | 00:00:00 | 00:00:00 | |
| OK1ALN | 2026-09-01 01:32:36 | 48.29042 | 17.47755 | 226° | 7km/h | 25540m | 6.8m/s | -51.4°C | 1.2% | 0hPa | 2.6V | 00:00:00 | 00:00:00 | 00:00:00 | |
| OM5KV | 2026-09-01 01:32:35 | 48.29043 | 17.47757 | 224° | 9km/h | 25534m | 4.3m/s | -51.4°C | 1.2% | 0hPa | 2.6V | 00:00:00 | 00:00:00 | 00:00:00 | |
| PETON7-10 | 2026-09-01 01:32:33 | 48.29048 | 17.47762 | 193° | 7km/h | 25516m | 5.7m/s | -51.4°C | 4.0% | 0hPa | 2.6V | 00:00:00 | 01:32:13 | 00:00:00 | |
| OE5MMP-10 | 2026-09-01 01:32:31 | 48.29050 | 17.47765 | 238° | 9km/h | 25503m | 6.6m/s | -51.4°C | 4.0% | 0hPa | 2.6V | 00:00:00 | 01:32:11 | 00:00:00 | |
| OM5KV | 2026-09-01 01:32:29 | 48.29051 | 17.47767 | 246° | 9km/h | 25497m | 4.0m/s | -51.4°C | 1.2% | 0hPa | 2.6V | 00:00:00 | 00:00:00 | 00:00:00 | |
| OE3JTB-15 | 2026-09-01 01:32:28 | 48.29052 | 17.47769 | 134° | 7km/h | 25489m | 6.5m/s | -51.4°C | 3.9% | 0hPa | 2.6V | 00:00:00 | 00:00:00 | 08:30:00 | |
| OE5DXL-15 | 2026-09-01 01:32:25 | 48.29055 | 17.47761 | 127° | 9km/h | 25471m | 6.5m/s | -51.3°C | 3.9% | 0hPa | 2.6V | 00:00:00 | 00:00:00 | 08:30:00 | |
| OE3OSB-13 | 2026-09-01 01:32:24 | 48.29057 | 17.47758 | 154° | 11km/h | 25464m | 5.9m/s | -51.3°C | 1.1% | -1.0hPa | 2.6V | 00:00:00 | 00:00:00 | 00:00:00 | |
| OM5KV | 2026-09-01 01:32:23 | 48.29056 | 17.47758 | 156° | 11km/h | 25465m | 5.9m/s | -51.3°C | 1.2% | 0hPa | 2.6V | 00:00:00 | 00:00:00 | 00:00:00 | |
| PG1ADW-2 | 2026-09-01 01:32:22 | 48.29062 | 17.47756 | 167° | 7km/h | 25454m | 5.1m/s | -51.2°C | 3.9% | 0hPa | 2.6V | 00:00:00 | 01:32:02 | 00:00:00 | |
| PETON7-10 | 2026-09-01 01:32:18 | 48.29064 | 17.47752 | 333° | 5km/h | 25429m | 6.4m/s | -51.1°C | 3.8% | 0hPa | 2.6V | 00:00:00 | 00:00:00 | 00:00:00 | |
| OK1ALN | 2026-09-01 01:32:16 | 48.29063 | 17.47754 | 313° | 9km/h | 25423m | 6.0m/s | -51.1°C | 1.1% | 0hPa | 2.6V | 00:00:00 | 00:00:00 | 00:00:00 | |
| OE5DRO-10 | 2026-09-01 01:32:12 | 48.29052 | 17.47757 | 15° | 9km/h | 25394m | 7.3m/s | -51.1°C | 3.8% | 0hPa | 2.6V | 00:00:00 | 00:00:00 | 00:00:00 | |
| OE5MMP-10 | 2026-09-01 01:32:11 | 48.29051 | 17.47756 | 58° | 5km/h | 25387m | 6.8m/s | -51.2°C | 3.9% | 0hPa | 2.6V | 00:00:00 | 01:31:51 | 00:00:00 | |
| PETON7-10 | 2026-09-01 01:32:03 | 48.29048 | 17.47764 | 308° | 15km/h | 25341m | 4.8m/s | -51.2°C | 3.9% | 0hPa | 2.6V | 00:00:00 | 00:00:00 | 00:00:00 | |
| PG1ADW-2 | 2026-09-01 01:32:02 | 48.29046 | 17.47767 | 323° | 13km/h | 25336m | 6.0m/s | -51.2°C | 3.9% | 0hPa | 2.6V | 00:00:00 | 00:00:00 | 00:00:00 | |
| OE5MMP-10 | 2026-09-01 01:32:01 | 48.29043 | 17.47769 | 336° | 15km/h | 25329m | 6.4m/s | -51.2°C | 3.9% | 0hPa | 2.6V | 00:00:00 | 01:31:41 | 00:00:00 | |
| OE3JTB-15 | 2026-09-01 01:31:59 | 48.29037 | 17.47773 | 328° | 13km/h | 25317m | 6.1m/s | -51.2°C | 3.9% | 0hPa | 2.6V | 00:00:00 | 00:00:00 | 00:00:00 | |
| S52SK | 2026-09-01 01:31:58 | 48.29037 | 17.47773 | 328° | 13km/h | 25317m | 6.1m/s | -51.2°C | 1.2% | 0hPa | 2.6V | 00:00:00 | 00:00:00 | 00:00:00 | |
| HA6NAB-11 | 2026-09-01 01:31:57 | 48.29034 | 17.47777 | 311° | 15km/h | 25311m | 6.4m/s | -51.3°C | 1.2% | 0hPa | 2.6V | 00:00:00 | 00:00:00 | 00:00:00 | |
| OK1ALN | 2026-09-01 01:31:55 | 48.29030 | 17.47785 | 311° | 13km/h | 25301m | 5.3m/s | -51.2°C | 1.2% | 0hPa | 2.6V | 00:00:00 | 00:00:00 | 00:00:00 | |
| OE5DRO-10 | 2026-09-01 01:31:53 | 48.29022 | 17.47793 | 321° | 13km/h | 25284m | 5.7m/s | -51.2°C | 3.9% | 0hPa | 2.6V | 00:00:00 | 00:00:00 | 00:00:00 | |
| HA6NAB-11 | 2026-09-01 01:31:52 | 48.29022 | 17.47793 | 321° | 16km/h | 25284m | 5.7m/s | -51.2°C | 1.2% | 0hPa | 2.6V | 00:00:00 | 00:00:00 | 00:00:00 | |
| OE5MMP-10 | 2026-09-01 01:31:51 | 48.29017 | 17.47803 | 305° | 11km/h | 25272m | 5.0m/s | -51.2°C | 3.9% | 0hPa | 2.6V | 00:00:00 | 01:31:31 | 00:00:00 | |
| PETON7-10 | 2026-09-01 01:31:48 | 48.29008 | 17.47813 | 358° | 11km/h | 25254m | 6.2m/s | -51.2°C | 3.9% | 0hPa | 2.6V | 00:00:00 | 01:31:28 | 00:00:00 | |
| OM5KV | 2026-09-01 01:31:47 | 48.29008 | 17.47813 | 358° | 11km/h | 25254m | 6.2m/s | -51.3°C | 1.2% | 0hPa | 2.6V | 00:00:00 | 00:00:00 | 00:00:00 | |
| HA6NAB-11 | 2026-09-01 01:31:46 | 48.29005 | 17.47812 | 13° | 9km/h | 25248m | 5.0m/s | -51.3°C | 1.2% | 0hPa | 2.6V | 00:00:00 | 00:00:00 | 00:00:00 | |
| OM5KV | 2026-09-01 01:31:43 | 48.29001 | 17.47812 | 350° | 5km/h | 25230m | 5.7m/s | -51.3°C | 1.2% | 0hPa | 2.6V | 00:00:00 | 00:00:00 | 00:00:00 | |
| PG1ADW-2 | 2026-09-01 01:31:42 | 48.28997 | 17.47813 | 357° | 15km/h | 25218m | 5.6m/s | -51.2°C | 3.9% | 0hPa | 2.6V | 00:00:00 | 00:00:00 | 08:30:00 | |
| OE5MMP-10 | 2026-09-01 01:31:41 | 48.28994 | 17.47814 | 340° | 15km/h | 25212m | 4.4m/s | -51.2°C | 3.8% | 0hPa | 2.6V | 00:00:00 | 01:31:21 | 08:30:00 | |
| SONDE2-11 | 2026-09-01 01:31:40 | 48.28992 | 17.47817 | 320° | 13km/h | 25207m | 6.5m/s | -51.3°C | 1.1% | -1.0hPa | 2.6V | 00:00:00 | 00:00:00 | 00:00:00 | |
| GYPAP8-17 | 2026-09-01 01:31:38 | 48.28989 | 17.47821 | 306° | 15km/h | 25200m | 6.3m/s | -51.3°C | 1.2% | 0hPa | 2.6V | 00:00:00 | 00:00:00 | 00:00:00 | |
| OM5KV | 2026-09-01 01:31:37 | 48.28987 | 17.47826 | 300° | 16km/h | 25195m | 4.7m/s | -51.3°C | 1.2% | 0hPa | 2.6V | 00:00:00 | 00:00:00 | 00:00:00 | |
| OM5KV | 2026-09-01 01:31:36 | 48.28985 | 17.47831 | 311° | 16km/h | 25189m | 6.2m/s | -51.3°C | 1.2% | 0hPa | 2.6V | 00:00:00 | 00:00:00 | 00:00:00 | |
| OK1ALN | 2026-09-01 01:31:35 | 48.28981 | 17.47835 | 325° | 18km/h | 25183m | 6.6m/s | -51.4°C | 1.2% | 0hPa | 2.6V | 00:00:00 | 00:00:00 | 00:00:00 | |
| OE5DRO-10 | 2026-09-01 01:31:34 | 48.28974 | 17.47841 | 337° | 16km/h | 25172m | 4.4m/s | -51.3°C | 3.9% | 0hPa | 2.6V | 00:00:00 | 00:00:00 | 00:00:00 | |
| PETON7-10 | 2026-09-01 01:31:33 | 48.28971 | 17.47843 | 331° | 13km/h | 25166m | 6.5m/s | -51.4°C | 3.9% | 0hPa | 2.6V | 00:00:00 | 00:00:00 | 00:00:00 | |
| OM5KV | 2026-09-01 01:31:32 | 48.28971 | 17.47843 | 331° | 13km/h | 25166m | 6.6m/s | -51.4°C | 1.2% | 0hPa | 2.6V | 00:00:00 | 00:00:00 | 00:00:00 | |
| OE5MMP-10 | 2026-09-01 01:31:31 | 48.28967 | 17.47849 | 303° | 15km/h | 25153m | 5.6m/s | -51.4°C | 3.9% | 0hPa | 2.6V | 00:00:00 | 01:31:11 | 00:00:00 | |
| OE3JTB-15 | 2026-09-01 01:31:30 | 48.28965 | 17.47851 | 328° | 13km/h | 25147m | 5.0m/s | -51.4°C | 3.9% | 0hPa | 2.6V | 00:00:00 | 01:31:10 | 00:00:00 | |
| OM5KV | 2026-09-01 01:31:26 | 48.28956 | 17.47853 | 356° | 15km/h | 25128m | 4.5m/s | -51.4°C | 1.2% | 0hPa | 2.6V | 00:00:00 | 00:00:00 | 00:00:00 | |
| OE5DXL-15 | 2026-09-01 01:31:25 | 48.28949 | 17.47856 | 331° | 13km/h | 25116m | 5.6m/s | -51.4°C | 3.9% | 0hPa | 2.6V | 00:00:00 | 00:00:00 | 00:00:00 | |
| OM5KV | 2026-09-01 01:31:24 | 48.28950 | 17.47856 | 331° | 15km/h | 25116m | 5.6m/s | -51.4°C | 1.2% | 0hPa | 2.6V | 00:00:00 | 00:00:00 | 00:00:00 | |
| PG1ADW-2 | 2026-09-01 01:31:22 | 48.28937 | 17.47864 | 342° | 13km/h | 25098m | 4.5m/s | -51.4°C | 3.9% | 0hPa | 2.6V | 00:00:00 | 00:00:00 | 00:00:00 | |
| OE5MMP-10 | 2026-09-01 01:31:21 | 48.28934 | 17.47866 | 327° | 15km/h | 25093m | 4.7m/s | -51.4°C | 3.9% | 0hPa | 2.6V | 00:00:00 | 01:31:01 | 00:00:00 | |
| OM5KV | 2026-09-01 01:31:20 | 48.28934 | 17.47866 | 328° | 15km/h | 25093m | 4.7m/s | -51.5°C | 1.2% | 0hPa | 2.6V | 00:00:00 | 00:00:00 | 00:00:00 | |
| PETON7-10 | 2026-09-01 01:31:18 | 48.28928 | 17.47877 | 296° | 13km/h | 25074m | 5.1m/s | -51.5°C | 3.9% | 0hPa | 2.6V | 00:00:00 | 00:00:00 | 00:00:00 | |
| OK1ALN | 2026-09-01 01:31:14 | 48.28921 | 17.47887 | 326° | 15km/h | 25058m | 4.1m/s | -51.6°C | 1.2% | 0hPa | 2.6V | 00:00:00 | 00:00:00 | 00:00:00 | |
| OM5KV | 2026-09-01 01:31:13 | 48.28918 | 17.47890 | 319° | 15km/h | 25052m | 6.8m/s | -51.6°C | 1.2% | 0hPa | 2.6V | 00:00:00 | 00:00:00 | 00:00:00 | |
| OE5MMP-10 | 2026-09-01 01:31:11 | 48.28908 | 17.47901 | 342° | 11km/h | 25034m | 7.1m/s | -51.6°C | 3.9% | 0hPa | 2.6V | 00:00:00 | 01:30:51 | 00:00:00 | |
| OM5KV | 2026-09-01 01:31:09 | 48.28902 | 17.47903 | 350° | 22km/h | 25028m | 4.8m/s | -51.7°C | 1.2% | 0hPa | 2.7V | 00:00:00 | 00:00:00 | 00:00:00 | |
| OM5KV | 2026-09-01 01:31:08 | 48.28897 | 17.47904 | 346° | 18km/h | 25023m | 4.0m/s | -51.7°C | 1.2% | 0hPa | 2.7V | 00:00:00 | 00:00:00 | 00:00:00 | |
| PETON7-10 | 2026-09-01 01:31:03 | 48.28895 | 17.47913 | 203° | 9km/h | 24989m | 5.3m/s | -51.6°C | 4.0% | 0hPa | 2.7V | 00:00:00 | 01:30:43 | 00:00:00 | |
| OM5KV | 2026-09-01 01:31:02 | 48.28895 | 17.47913 | 203° | 2km/h | 24989m | 5.4m/s | -51.7°C | 1.2% | 0hPa | 2.7V | 00:00:00 | 00:00:00 | 00:00:00 | |
| OE3OSB-13 | 2026-09-01 01:30:52 | 48.28879 | 17.47930 | 328° | 11km/h | 24917m | 6.7m/s | -51.8°C | 1.1% | -1.0hPa | 2.7V | 00:00:00 | 00:00:00 | 00:00:00 | |
| OE5MMP-10 | 2026-09-01 01:30:51 | 48.28879 | 17.47930 | 329° | 11km/h | 24917m | 6.7m/s | -51.8°C | 4.0% | 0hPa | 2.7V | 00:00:00 | 01:30:31 | 00:00:00 | |
| PETON7-10 | 2026-09-01 01:30:48 | 48.28875 | 17.47939 | 265° | 9km/h | 24899m | 7.0m/s | -51.8°C | 4.0% | 0hPa | 2.7V | 00:00:00 | 00:00:00 | 08:30:00 | |
| OM5KV | 2026-09-01 01:30:47 | 48.28875 | 17.47939 | 265° | 11km/h | 24899m | 7.1m/s | -51.8°C | 1.2% | 0hPa | 2.6V | 00:00:00 | 00:00:00 | 00:00:00 | |
| OM5KV | 2026-09-01 01:30:45 | 48.28878 | 17.47947 | 222° | 11km/h | 24888m | 4.4m/s | -51.9°C | 1.2% | 0hPa | 2.6V | 00:00:00 | 00:00:00 | 00:00:00 | |
| PG1ADW-2 | 2026-09-01 01:30:42 | 48.28884 | 17.47943 | 128° | 9km/h | 24864m | 6.4m/s | -51.8°C | 4.0% | 0hPa | 2.6V | 00:00:00 | 00:00:00 | 00:00:00 | |
| OE5MMP-10 | 2026-09-01 01:30:41 | 48.28885 | 17.47940 | 124° | 9km/h | 24858m | 6.0m/s | -51.8°C | 4.0% | 0hPa | 2.7V | 00:00:00 | 01:30:21 | 00:00:00 | |
| HA6NAB-11 | 2026-09-01 01:30:37 | 48.28884 | 17.47938 | 12° | 7km/h | 24841m | 6.5m/s | -51.9°C | 1.2% | 0hPa | 2.6V | 00:00:00 | 00:00:00 | 00:00:00 | |
| OM5KV | 2026-09-01 01:30:35 | 48.28880 | 17.47939 | 316° | 7km/h | 24831m | 5.7m/s | -51.9°C | 1.2% | 0hPa | 2.6V | 00:00:00 | 00:00:00 | 00:00:00 | |
| OM5KV | 2026-09-01 01:30:34 | 48.28879 | 17.47942 | 289° | 11km/h | 24824m | 7.2m/s | -51.9°C | 1.2% | 0hPa | 2.6V | 00:00:00 | 00:00:00 | 00:00:00 | |
| PETON7-10 | 2026-09-01 01:30:33 | 48.28878 | 17.47951 | 267° | 15km/h | 24813m | 3.5m/s | -51.8°C | 4.0% | 0hPa | 2.6V | 00:00:00 | 00:00:00 | 00:00:00 | |
| OE3JTB-15 | 2026-09-01 01:30:32 | 48.28879 | 17.47956 | 268° | 16km/h | 24808m | 5.4m/s | -51.9°C | 4.0% | 0hPa | 2.6V | 00:00:00 | 00:00:00 | 00:00:00 | |
| OE5MMP-10 | 2026-09-01 01:30:31 | 48.28878 | 17.47958 | 292° | 13km/h | 24802m | 6.3m/s | -51.9°C | 4.0% | 0hPa | 2.6V | 00:00:00 | 01:30:11 | 00:00:00 | |
| OM5KV | 2026-09-01 01:30:30 | 48.28878 | 17.47958 | 292° | 5km/h | 24802m | 6.4m/s | -52.0°C | 1.2% | 0hPa | 2.6V | 00:00:00 | 00:00:00 | 00:00:00 | |
| OM5KV | 2026-09-01 01:30:28 | 48.28876 | 17.47959 | 25° | 5km/h | 24791m | 5.0m/s | -52.1°C | 1.2% | 0hPa | 2.6V | 00:00:00 | 00:00:00 | 00:00:00 | |
| OE5DXL-15 | 2026-09-01 01:30:25 | 48.28868 | 17.47964 | 333° | 18km/h | 24767m | 6.2m/s | -52.0°C | 4.0% | 0hPa | 2.6V | 00:00:00 | 00:00:00 | 00:00:00 | |
| OM5KV | 2026-09-01 01:30:24 | 48.28868 | 17.47964 | 333° | 16km/h | 24767m | 6.3m/s | -52.0°C | 1.2% | 0hPa | 2.6V | 00:00:00 | 00:00:00 | 00:00:00 | |
| PG1ADW-2 | 2026-09-01 01:30:22 | 48.28854 | 17.47974 | 330° | 18km/h | 24748m | 5.7m/s | -51.9°C | 4.1% | 0hPa | 2.6V | 00:00:00 | 00:00:00 | 00:00:00 | |
| OE5MMP-10 | 2026-09-01 01:30:21 | 48.28849 | 17.47979 | 319° | 18km/h | 24742m | 7.2m/s | -51.9°C | 4.1% | 0hPa | 2.6V | 00:00:00 | 01:30:01 | 00:00:00 | |
| OE3OSB-13 | 2026-09-01 01:30:20 | 48.28846 | 17.47984 | 305° | 18km/h | 24735m | 6.0m/s | -51.9°C | 1.2% | -1.0hPa | 2.6V | 00:00:00 | 00:00:00 | 00:00:00 | |
| OM5KV | 2026-09-01 01:30:19 | 48.28846 | 17.47984 | 307° | 18km/h | 24735m | 6.0m/s | -51.9°C | 1.3% | 0hPa | 2.6V | 00:00:00 | 00:00:00 | 00:00:00 | |
| PETON7-10 | 2026-09-01 01:30:18 | 48.28840 | 17.47994 | 326° | 18km/h | 24724m | 6.7m/s | -51.9°C | 4.1% | 0hPa | 2.6V | 00:00:00 | 01:29:58 | 00:00:00 | |
| OK1ALN | 2026-09-01 01:30:12 | 48.28821 | 17.48009 | 315° | 18km/h | 24694m | 6.1m/s | -51.8°C | 1.2% | 0hPa | 2.6V | 00:00:00 | 00:00:00 | 00:00:00 | |
| OE5MMP-10 | 2026-09-01 01:30:11 | 48.28813 | 17.48020 | 319° | 18km/h | 24682m | 6.7m/s | -51.7°C | 4.0% | 0hPa | 2.6V | 00:00:00 | 01:29:51 | 08:30:00 | |
| SONDE2-11 | 2026-09-01 01:30:07 | 48.28792 | 17.48057 | 317° | 11km/h | 24639m | 6.3m/s | -51.8°C | 1.1% | -1.0hPa | 2.6V | 00:00:00 | 00:00:00 | 00:00:00 | |
| OM5KV | 2026-09-01 01:30:02 | 48.28790 | 17.48060 | 325° | 13km/h | 24632m | 5.8m/s | -51.8°C | 1.2% | 0hPa | 2.6V | 00:00:00 | 00:00:00 | 00:00:00 | |
| OE3OSB-13 | 2026-09-01 01:29:49 | 48.28746 | 17.48132 | 268° | 9km/h | 24542m | 6.8m/s | -51.8°C | 1.1% | -1.0hPa | 2.6V | 00:00:00 | 00:00:00 | 00:00:00 | |
| PETON7-10 | 2026-09-01 01:29:48 | 48.28746 | 17.48132 | 269° | 9km/h | 24543m | 6.7m/s | -51.8°C | 3.9% | 0hPa | 2.6V | 00:00:00 | 00:00:00 | 00:00:00 | |
| HA6NAB-11 | 2026-09-01 01:29:45 | 48.28745 | 17.48143 | 312° | 9km/h | 24526m | 7.3m/s | -51.8°C | 1.2% | 0hPa | 2.6V | 00:00:00 | 00:00:00 | 00:00:00 | |
| OM5KV | 2026-09-01 01:29:44 | 48.28745 | 17.48143 | 312° | 9km/h | 24526m | 7.3m/s | -51.8°C | 1.2% | 0hPa | 2.6V | 00:00:00 | 00:00:00 | 00:00:00 | |
| PG1ADW-2 | 2026-09-01 01:29:42 | 48.28738 | 17.48151 | 313° | 9km/h | 24508m | 6.4m/s | -51.7°C | 3.9% | 0hPa | 2.6V | 00:00:00 | 01:29:22 | 00:00:00 | |
| OE5MMP-10 | 2026-09-01 01:29:41 | 48.28736 | 17.48156 | 286° | 9km/h | 24501m | 6.4m/s | -51.8°C | 3.9% | 0hPa | 2.6V | 00:00:00 | 01:29:21 | 00:00:00 | |
| OE5DRO-10 | 2026-09-01 01:29:40 | 48.28736 | 17.48161 | 266° | 9km/h | 24496m | 4.7m/s | -51.8°C | 4.0% | 0hPa | 2.6V | 00:00:00 | 00:00:00 | 00:00:00 | |
| OM5KV | 2026-09-01 01:29:39 | 48.28736 | 17.48161 | 267° | 16km/h | 24496m | 4.8m/s | -51.8°C | 1.2% | 0hPa | 2.6V | 00:00:00 | 00:00:00 | 00:00:00 | |
| HA6NAB-11 | 2026-09-01 01:29:38 | 48.28737 | 17.48167 | 258° | 15km/h | 24491m | 4.9m/s | -51.9°C | 1.2% | 0hPa | 2.6V | 00:00:00 | 00:00:00 | 00:00:00 | |
| S52SK | 2026-09-01 01:29:35 | 48.28739 | 17.48174 | 0° | 0km/h | 24473m | 5.6m/s | -52.1°C | 1.3% | 0hPa | 2.6V | 00:00:00 | 00:00:00 | 00:00:00 | |
| OE3JTB-15 | 2026-09-01 01:29:34 | 48.28738 | 17.48175 | 332° | 11km/h | 24460m | 6.9m/s | -52.0°C | 4.0% | 0hPa | 2.6V | 00:00:00 | 00:00:00 | 00:00:00 | |
| PETON7-10 | 2026-09-01 01:29:33 | 48.28737 | 17.48176 | 335° | 11km/h | 24454m | 5.6m/s | -51.9°C | 4.0% | 0hPa | 2.6V | 00:00:00 | 01:29:13 | 00:00:00 | |
| OE5MMP-10 | 2026-09-01 01:29:31 | 48.28732 | 17.48177 | 10° | 11km/h | 24441m | 7.3m/s | -51.9°C | 4.0% | 0hPa | 2.6V | 00:00:00 | 01:29:11 | 00:00:00 | |
| S52SK | 2026-09-01 01:29:30 | 48.28729 | 17.48175 | 18° | 13km/h | 24435m | 5.8m/s | -51.9°C | 1.2% | 0hPa | 2.6V | 00:00:00 | 00:00:00 | 00:00:00 | |
| OM5KV | 2026-09-01 01:29:29 | 48.28729 | 17.48175 | 18° | 13km/h | 24435m | 5.8m/s | -51.9°C | 1.2% | 0hPa | 2.6V | 00:00:00 | 00:00:00 | 00:00:00 | |
| HA6NAB-11 | 2026-09-01 01:29:28 | 48.28724 | 17.48175 | 347° | 11km/h | 24421m | 7.2m/s | -51.8°C | 1.2% | 0hPa | 2.6V | 00:00:00 | 00:00:00 | 00:00:00 | |
| OE5DXL-15 | 2026-09-01 01:29:25 | 48.28718 | 17.48179 | 330° | 11km/h | 24403m | 6.6m/s | -51.8°C | 3.9% | 0hPa | 2.6V | 00:00:00 | 00:00:00 | 00:00:00 | |
| S52SK | 2026-09-01 01:29:24 | 48.28718 | 17.48179 | 331° | 5km/h | 24403m | 6.6m/s | -51.9°C | 1.2% | 0hPa | 2.6V | 00:00:00 | 00:00:00 | 00:00:00 | |
| OM5KV | 2026-09-01 01:29:23 | 48.28717 | 17.48181 | 301° | 7km/h | 24397m | 4.3m/s | -51.9°C | 1.2% | 0hPa | 2.6V | 00:00:00 | 00:00:00 | 00:00:00 | |
| PG1ADW-2 | 2026-09-01 01:29:22 | 48.28715 | 17.48189 | 290° | 13km/h | 24385m | 6.1m/s | -51.9°C | 3.9% | 0hPa | 2.6V | 00:00:00 | 00:00:00 | 00:00:00 | |
| OE5MMP-10 | 2026-09-01 01:29:21 | 48.28713 | 17.48195 | 292° | 13km/h | 24379m | 4.6m/s | -52.0°C | 4.0% | 0hPa | 2.6V | 00:00:00 | 01:29:01 | 00:00:00 | |
| PETON7-10 | 2026-09-01 01:29:18 | 48.28708 | 17.48210 | 315° | 11km/h | 24361m | 6.1m/s | -52.1°C | 4.0% | 0hPa | 2.6V | 00:00:00 | 00:00:00 | 00:00:00 | |
| OM5KV | 2026-09-01 01:29:16 | 48.28706 | 17.48212 | 329° | 9km/h | 24356m | 4.8m/s | -52.2°C | 1.2% | 0hPa | 2.6V | 00:00:00 | 00:00:00 | 00:00:00 | |
| OM5KV | 2026-09-01 01:29:13 | 48.28699 | 17.48220 | 323° | 13km/h | 24337m | 4.6m/s | -52.4°C | 1.2% | 0hPa | 2.6V | 00:00:00 | 00:00:00 | 00:00:00 | |
| OE5MMP-10 | 2026-09-01 01:29:11 | 48.28691 | 17.48227 | 326° | 13km/h | 24318m | 5.0m/s | -52.4°C | 4.0% | 0hPa | 2.6V | 00:00:00 | 01:28:51 | 00:00:00 | |
| OK1ALN | 2026-09-01 01:29:10 | 48.28691 | 17.48227 | 327° | 11km/h | 24318m | 5.0m/s | -52.4°C | 1.2% | 0hPa | 2.7V | 00:00:00 | 00:00:00 | 00:00:00 | |
| OM5KV | 2026-09-01 01:29:07 | 48.28686 | 17.48240 | 294° | 16km/h | 24300m | 4.6m/s | -52.4°C | 1.2% | 0hPa | 2.7V | 00:00:00 | 00:00:00 | 00:00:00 | |
| OE3JTB-15 | 2026-09-01 01:29:05 | 48.28681 | 17.48249 | 349° | 7km/h | 24282m | 5.0m/s | -52.4°C | 4.0% | 0hPa | 2.7V | 00:00:00 | 00:00:00 | 00:00:00 | |
| SONDE2-11 | 2026-09-01 01:29:04 | 48.28679 | 17.48250 | 0° | 9km/h | 24277m | 4.7m/s | -52.4°C | 1.1% | -1.0hPa | 2.7V | 00:00:00 | 00:00:00 | 00:00:00 | |
| PETON7-10 | 2026-09-01 01:29:03 | 48.28675 | 17.48250 | 354° | 9km/h | 24272m | 5.8m/s | -52.4°C | 4.0% | 0hPa | 2.7V | 00:00:00 | 00:00:00 | 00:00:00 | |
| OE3OSB-13 | 2026-09-01 01:28:47 | 48.28643 | 17.48276 | 311° | 2km/h | 24176m | 4.7m/s | -52.8°C | 1.2% | -1.0hPa | 2.7V | 00:00:00 | 00:00:00 | 00:00:00 | |
| HA6NAB-11 | 2026-09-01 01:28:46 | 48.28644 | 17.48274 | 309° | 7km/h | 24182m | 5.5m/s | -52.8°C | 1.3% | 0hPa | 2.7V | 00:00:00 | 00:00:00 | 00:00:00 | |
| OM5KV | 2026-09-01 01:28:45 | 48.28642 | 17.48276 | 0° | 0km/h | 24170m | 7.4m/s | -52.8°C | 1.2% | 0hPa | 2.7V | 00:00:00 | 00:00:00 | 00:00:00 | |
| OE5DRO-10 | 2026-09-01 01:28:43 | 48.28643 | 17.48275 | 171° | 11km/h | 24158m | 4.1m/s | -52.8°C | 4.0% | 0hPa | 2.7V | 00:00:00 | 00:00:00 | 00:00:00 | |
| PG1ADW-2 | 2026-09-01 01:28:42 | 48.28644 | 17.48276 | 241° | 11km/h | 24153m | 5.9m/s | -52.8°C | 4.0% | 0hPa | 2.7V | 00:00:00 | 00:00:00 | 08:30:00 | |
| OE5MMP-10 | 2026-09-01 01:28:41 | 48.28645 | 17.48278 | 257° | 13km/h | 24147m | 5.6m/s | -52.8°C | 4.1% | 0hPa | 2.6V | 00:00:00 | 01:28:21 | 08:30:00 | |
| HA6NAB-11 | 2026-09-01 01:28:40 | 48.28645 | 17.48278 | 257° | 9km/h | 24147m | 5.7m/s | -52.9°C | 1.3% | 0hPa | 2.6V | 00:00:00 | 00:00:00 | 00:00:00 | |
| OM5KV | 2026-09-01 01:28:39 | 48.28645 | 17.48281 | 264° | 11km/h | 24142m | 4.3m/s | -52.9°C | 1.2% | 0hPa | 2.6V | 00:00:00 | 00:00:00 | 00:00:00 | |
| OE3JTB-15 | 2026-09-01 01:28:36 | 48.28642 | 17.48285 | 33° | 18km/h | 24122m | 4.9m/s | -52.9°C | 4.1% | 0hPa | 2.6V | 00:00:00 | 01:28:16 | 00:00:00 | |
| HA6NAB-11 | 2026-09-01 01:28:35 | 48.28638 | 17.48282 | 28° | 18km/h | 24116m | 5.9m/s | -53.0°C | 1.3% | 0hPa | 2.6V | 00:00:00 | 00:00:00 | 00:00:00 | |
| OM5KV | 2026-09-01 01:28:34 | 48.28633 | 17.48279 | 17° | 20km/h | 24110m | 7.0m/s | -53.1°C | 1.3% | 0hPa | 2.6V | 00:00:00 | 00:00:00 | 00:00:00 | |
| PETON7-10 | 2026-09-01 01:28:33 | 48.28628 | 17.48277 | 16° | 15km/h | 24104m | 4.2m/s | -53.1°C | 4.1% | 0hPa | 2.6V | 00:00:00 | 00:00:00 | 08:30:00 | |
| OM5KV | 2026-09-01 01:28:32 | 48.28629 | 17.48277 | 17° | 20km/h | 24104m | 4.2m/s | -53.2°C | 1.3% | 0hPa | 2.7V | 00:00:00 | 00:00:00 | 00:00:00 | |
| OE5MMP-10 | 2026-09-01 01:28:31 | 48.28621 | 17.48272 | 38° | 11km/h | 24093m | 6.6m/s | -53.1°C | 4.0% | 0hPa | 2.7V | 00:00:00 | 01:28:11 | 00:00:00 | |
| OK1ALN | 2026-09-01 01:28:30 | 48.28621 | 17.48272 | 38° | 15km/h | 24093m | 6.6m/s | -53.2°C | 1.2% | 0hPa | 2.7V | 00:00:00 | 00:00:00 | 00:00:00 | |
| HA6NAB-11 | 2026-09-01 01:28:29 | 48.28619 | 17.48269 | 53° | 9km/h | 24087m | 5.9m/s | -53.2°C | 1.3% | 0hPa | 2.7V | 00:00:00 | 00:00:00 | 00:00:00 | |
| OM5KV | 2026-09-01 01:28:27 | 48.28617 | 17.48265 | 33° | 4km/h | 24074m | 6.0m/s | -53.3°C | 1.3% | 0hPa | 2.7V | 00:00:00 | 00:00:00 | 00:00:00 | |
| OM5KV | 2026-09-01 01:28:26 | 48.28616 | 17.48265 | 16° | 5km/h | 24069m | 4.6m/s | -53.4°C | 1.3% | 0hPa | 2.7V | 00:00:00 | 00:00:00 | 00:00:00 | |
| OE5DXL-15 | 2026-09-01 01:28:25 | 48.28613 | 17.48260 | 61° | 22km/h | 24059m | 6.2m/s | -53.5°C | 4.2% | 0hPa | 2.7V | 00:00:00 | 00:00:00 | 00:00:00 | |
| HA6NAB-11 | 2026-09-01 01:28:24 | 48.28611 | 17.48256 | 60° | 16km/h | 24054m | 4.6m/s | -53.7°C | 1.3% | 0hPa | 2.7V | 00:00:00 | 00:00:00 | 00:00:00 | |
| PG1ADW-2 | 2026-09-01 01:28:22 | 48.28605 | 17.48247 | 31° | 24km/h | 24044m | 6.5m/s | -53.8°C | 4.2% | 0hPa | 2.7V | 00:00:00 | 01:28:02 | 00:00:00 | |
| OM5KV | 2026-09-01 01:28:21 | 48.28599 | 17.48243 | 16° | 24km/h | 24038m | 5.7m/s | -54.0°C | 1.4% | 0hPa | 2.7V | 00:00:00 | 00:00:00 | 00:00:00 | |
| S52SK | 2026-09-01 01:28:18 | 48.28580 | 17.48236 | 17° | 27km/h | 24022m | 5.5m/s | -54.1°C | 1.3% | 0hPa | 2.7V | 00:00:00 | 00:00:00 | 00:00:00 | |
| OM5KV | 2026-09-01 01:28:15 | 48.28567 | 17.48231 | 14° | 27km/h | 24012m | 4.5m/s | -54.1°C | 1.4% | 0hPa | 2.7V | 00:00:00 | 00:00:00 | 00:00:00 | |
| OM5KV | 2026-09-01 01:28:14 | 48.28560 | 17.48229 | 8° | 29km/h | 24006m | 6.5m/s | -54.2°C | 1.3% | 0hPa | 2.7V | 00:00:00 | 00:00:00 | 00:00:00 | |
| S52SK | 2026-09-01 01:28:12 | 48.28538 | 17.48228 | 2° | 26km/h | 23990m | 6.8m/s | -54.2°C | 1.4% | 0hPa | 2.7V | 00:00:00 | 00:00:00 | 00:00:00 | |
| OE5MMP-10 | 2026-09-01 01:28:11 | 48.28533 | 17.48228 | 3° | 22km/h | 23983m | 6.3m/s | -54.3°C | 4.4% | 0hPa | 2.7V | 00:00:00 | 01:27:51 | 00:00:00 | |
| OK1ALN | 2026-09-01 01:28:10 | 48.28533 | 17.48228 | 3° | 20km/h | 23983m | 6.4m/s | -54.3°C | 1.3% | 0hPa | 2.6V | 00:00:00 | 00:00:00 | 00:00:00 | |
| OM5KV | 2026-09-01 01:28:09 | 48.28528 | 17.48228 | 1° | 18km/h | 23978m | 5.2m/s | -54.4°C | 1.4% | 0hPa | 2.6V | 00:00:00 | 00:00:00 | 00:00:00 | |
| OM5KV | 2026-09-01 01:28:08 | 48.28523 | 17.48228 | 352° | 20km/h | 23972m | 6.1m/s | -54.4°C | 1.3% | 0hPa | 2.6V | 00:00:00 | 00:00:00 | 00:00:00 | |
| OE3JTB-15 | 2026-09-01 01:28:07 | 48.28512 | 17.48233 | 339° | 15km/h | 23959m | 5.0m/s | -54.5°C | 4.4% | 0hPa | 2.6V | 00:00:00 | 00:00:00 | 08:30:00 | |
| S52SK | 2026-09-01 01:28:06 | 48.28512 | 17.48233 | 339° | 26km/h | 23959m | 5.0m/s | -54.6°C | 1.4% | 0hPa | 2.7V | 00:00:00 | 00:00:00 | 00:00:00 | |
| OE5DRO-10 | 2026-09-01 01:28:05 | 48.28501 | 17.48240 | 343° | 16km/h | 23949m | 6.7m/s | -54.5°C | 4.5% | 0hPa | 2.7V | 00:00:00 | 00:00:00 | 00:00:00 | |
| OM5KV | 2026-09-01 01:28:04 | 48.28501 | 17.48240 | 344° | 22km/h | 23949m | 6.7m/s | -54.6°C | 1.4% | 0hPa | 2.6V | 00:00:00 | 00:00:00 | 00:00:00 | |
| SONDE2-11 | 2026-09-01 01:28:03 | 48.28486 | 17.48245 | 348° | 20km/h | 23932m | 5.9m/s | -54.6°C | -1.0% | -1.0hPa | 2.6V | 00:00:00 | 00:00:00 | 00:00:00 | |
| PG1ADW-2 | 2026-09-01 01:28:02 | 48.28486 | 17.48245 | 349° | 15km/h | 23933m | 5.8m/s | -54.5°C | 4.5% | 0hPa | 2.6V | 00:00:00 | 00:00:00 | 00:00:00 | |
| OE5MMP-10 | 2026-09-01 01:28:01 | 48.28480 | 17.48247 | 345° | 15km/h | 23926m | 5.7m/s | -54.5°C | 4.5% | 0hPa | 2.6V | 00:00:00 | 01:27:41 | 00:00:00 | |
| OM5KV | 2026-09-01 01:27:58 | 48.28469 | 17.48252 | 346° | 18km/h | 23918m | 4.2m/s | -54.5°C | 1.4% | 0hPa | 2.6V | 00:00:00 | 00:00:00 | 00:00:00 | |
| OM5KV | 2026-09-01 01:27:57 | 48.28466 | 17.48253 | 345° | 13km/h | 23912m | 6.7m/s | -54.5°C | 1.4% | 0hPa | 2.6V | 00:00:00 | 00:00:00 | 00:00:00 | |
| OE5DXL-15 | 2026-09-01 01:27:55 | 48.28462 | 17.48259 | 279° | 11km/h | 23894m | 6.0m/s | -54.4°C | 4.5% | 0hPa | 2.6V | 00:00:00 | 00:00:00 | 08:30:00 | |
| OM5KV | 2026-09-01 01:27:53 | 48.28461 | 17.48264 | 283° | 15km/h | 23889m | 5.5m/s | -54.4°C | 1.4% | 0hPa | 2.6V | 00:00:00 | 00:00:00 | 00:00:00 | |
| OE5MMP-10 | 2026-09-01 01:27:51 | 48.28456 | 17.48276 | 324° | 13km/h | 23874m | 4.7m/s | -54.4°C | 4.5% | 0hPa | 2.6V | 00:00:00 | 01:27:31 | 00:00:00 | |
| OK1ALN | 2026-09-01 01:27:49 | 48.28453 | 17.48279 | 325° | 16km/h | 23869m | 4.4m/s | -54.5°C | 1.4% | 0hPa | 2.6V | 00:00:00 | 00:00:00 | 00:00:00 | |
| HA6NAB-11 | 2026-09-01 01:27:48 | 48.28447 | 17.48288 | 313° | 16km/h | 23858m | 5.4m/s | -54.5°C | 1.4% | 0hPa | 2.6V | 00:00:00 | 00:00:00 | 00:00:00 | |
| OM5KV | 2026-09-01 01:27:47 | 48.28447 | 17.48288 | 313° | 16km/h | 23858m | 5.4m/s | -54.5°C | 1.4% | 0hPa | 2.6V | 00:00:00 | 00:00:00 | 00:00:00 | |
| OE5DRO-10 | 2026-09-01 01:27:46 | 48.28442 | 17.48294 | 334° | 7km/h | 23846m | 7.0m/s | -54.5°C | 4.5% | 0hPa | 2.6V | 00:00:00 | 00:00:00 | 00:00:00 | |
| OE3OSB-13 | 2026-09-01 01:27:45 | 48.28438 | 17.48297 | 330° | 7km/h | 23835m | 5.8m/s | -54.5°C | 1.3% | -1.0hPa | 2.6V | 00:00:00 | 00:00:00 | 00:00:00 | |
| PG1ADW-2 | 2026-09-01 01:27:42 | 48.28434 | 17.48301 | 302° | 7km/h | 23822m | 5.0m/s | -54.5°C | 4.4% | 0hPa | 2.6V | 00:00:00 | 00:00:00 | 00:00:00 | |
| OE5MMP-10 | 2026-09-01 01:27:41 | 48.28434 | 17.48304 | 293° | 5km/h | 23817m | 5.6m/s | -54.4°C | 4.5% | 0hPa | 2.7V | 00:00:00 | 01:27:21 | 00:00:00 | |
| OM5KV | 2026-09-01 01:27:40 | 48.28434 | 17.48304 | 293° | 7km/h | 23817m | 5.7m/s | -54.5°C | 1.4% | 0hPa | 2.6V | 00:00:00 | 00:00:00 | 00:00:00 | |
| OE3JTB-15 | 2026-09-01 01:27:38 | 48.28433 | 17.48311 | 260° | 7km/h | 23800m | 6.3m/s | -54.4°C | 4.4% | 0hPa | 2.6V | 00:00:00 | 00:00:00 | 00:00:00 | |
| HA6NAB-11 | 2026-09-01 01:27:37 | 48.28434 | 17.48315 | 263° | 11km/h | 23794m | 5.8m/s | -54.5°C | 1.4% | 0hPa | 2.6V | 00:00:00 | 00:00:00 | 00:00:00 | |
| OM5KV | 2026-09-01 01:27:36 | 48.28434 | 17.48315 | 263° | 11km/h | 23794m | 5.8m/s | -54.5°C | 1.4% | 0hPa | 2.6V | 00:00:00 | 00:00:00 | 00:00:00 | |
| PETON7-10 | 2026-09-01 01:27:33 | 48.28435 | 17.48324 | 80° | 7km/h | 23773m | 5.2m/s | -54.6°C | 4.6% | 0hPa | 2.6V | 00:00:00 | 00:00:00 | 00:00:00 | |
| OM5KV | 2026-09-01 01:27:31 | 48.28433 | 17.48322 | 20° | 7km/h | 23763m | 7.0m/s | -54.7°C | 1.4% | 0hPa | 2.6V | 00:00:00 | 00:00:00 | 00:00:00 | |
| OK1ALN | 2026-09-01 01:27:28 | 48.28428 | 17.48321 | 18° | 13km/h | 23751m | 4.8m/s | -54.7°C | 1.4% | 0hPa | 2.6V | 00:00:00 | 00:00:00 | 00:00:00 | |
| OE5DRO-10 | 2026-09-01 01:27:27 | 48.28422 | 17.48316 | 34° | 7km/h | 23740m | 4.6m/s | -54.7°C | 4.6% | 0hPa | 2.6V | 00:00:00 | 00:00:00 | 00:00:00 | |
| HA6NAB-11 | 2026-09-01 01:27:25 | 48.28417 | 17.48313 | 5° | 7km/h | 23730m | 5.9m/s | -54.8°C | 1.4% | 0hPa | 2.6V | 00:00:00 | 00:00:00 | 00:00:00 | |
| OM5KV | 2026-09-01 01:27:24 | 48.28417 | 17.48313 | 5° | 7km/h | 23730m | 5.9m/s | -54.8°C | 1.4% | 0hPa | 2.6V | 00:00:00 | 00:00:00 | 00:00:00 | |
| PG1ADW-2 | 2026-09-01 01:27:22 | 48.28414 | 17.48316 | 1° | 9km/h | 23714m | 6.4m/s | -54.7°C | 4.6% | 0hPa | 2.6V | 00:00:00 | 00:00:00 | 00:00:00 | |
| OE5MMP-10 | 2026-09-01 01:27:21 | 48.28413 | 17.48315 | 54° | 7km/h | 23707m | 6.2m/s | -54.7°C | 4.6% | 0hPa | 2.6V | 00:00:00 | 01:27:01 | 00:00:00 | |
| GYPAP8-17 | 2026-09-01 01:27:19 | 48.28412 | 17.48313 | 68° | 5km/h | 23702m | 4.3m/s | -54.8°C | 1.4% | 0hPa | 2.6V | 00:00:00 | 00:00:00 | 00:00:00 | |
| PETON7-10 | 2026-09-01 01:27:18 | 48.28411 | 17.48312 | 317° | 9km/h | 23691m | 6.3m/s | -54.7°C | 4.5% | 0hPa | 2.6V | 00:00:00 | 01:26:58 | 00:00:00 | |
| OM5KV | 2026-09-01 01:27:16 | 48.28411 | 17.48312 | 309° | 4km/h | 23684m | 5.5m/s | -54.7°C | 1.4% | 0hPa | 2.6V | 00:00:00 | 00:00:00 | 00:00:00 | |
| OE3OSB-13 | 2026-09-01 01:27:13 | 48.28403 | 17.48316 | 328° | 11km/h | 23662m | 5.5m/s | -54.7°C | 1.3% | -1.0hPa | 2.6V | 00:00:00 | 00:00:00 | 00:00:00 | |
| OM5KV | 2026-09-01 01:27:12 | 48.28403 | 17.48316 | 330° | 13km/h | 23663m | 5.5m/s | -54.7°C | 1.4% | 0hPa | 2.6V | 00:00:00 | 00:00:00 | 00:00:00 | |
| OE5MMP-10 | 2026-09-01 01:27:11 | 48.28398 | 17.48323 | 312° | 13km/h | 23650m | 4.5m/s | -54.7°C | 4.6% | 0hPa | 2.6V | 00:00:00 | 01:26:51 | 08:30:00 | |
| OE3JTB-15 | 2026-09-01 01:27:09 | 48.28394 | 17.48328 | 345° | 16km/h | 23640m | 5.7m/s | -54.7°C | 4.5% | 0hPa | 2.6V | 00:00:00 | 01:26:49 | 00:00:00 | |
| OE5DRO-10 | 2026-09-01 01:27:08 | 48.28392 | 17.48328 | 4° | 16km/h | 23634m | 4.9m/s | -54.6°C | 4.5% | 0hPa | 2.6V | 00:00:00 | 00:00:00 | 08:30:00 | |
| OM5KV | 2026-09-01 01:27:07 | 48.28390 | 17.48328 | 10° | 9km/h | 23629m | 5.2m/s | -54.6°C | 1.4% | 0hPa | 2.7V | 00:00:00 | 00:00:00 | 00:00:00 | |
| OM5KV | 2026-09-01 01:27:05 | 48.28387 | 17.48327 | 1° | 11km/h | 23623m | 6.7m/s | -54.6°C | 1.4% | 0hPa | 2.7V | 00:00:00 | 00:00:00 | 00:00:00 | |
| PETON7-10 | 2026-09-01 01:27:03 | 48.28377 | 17.48329 | 360° | 18km/h | 23607m | 6.3m/s | -54.5°C | 4.5% | 0hPa | 2.7V | 00:00:00 | 00:00:00 | 00:00:00 | |
| SONDE2-11 | 2026-09-01 01:27:00 | 48.28339 | 17.48364 | 336° | 16km/h | 23562m | 4.7m/s | 0°C | -1.0% | -1.0hPa | 2.6V | 00:00:00 | 00:00:00 | 00:00:00 | |
| GYPAP8-17 | 2026-09-01 01:26:59 | 48.28364 | 17.48336 | 324° | 24km/h | 23590m | 7.0m/s | 0°C | 0% | 0hPa | 2.6V | 00:00:00 | 00:00:00 | 00:00:00 | |
| S52SK | 2026-09-01 01:26:56 | 48.28349 | 17.48355 | 324° | 26km/h | 23574m | 6.5m/s | -54.5°C | 1.4% | 0hPa | 2.6V | 00:00:00 | 00:00:00 | 00:00:00 | |
| OE5DXL-15 | 2026-09-01 01:26:55 | 48.28339 | 17.48364 | 337° | 15km/h | 23563m | 4.7m/s | -54.4°C | 4.5% | 0hPa | 2.6V | 00:00:00 | 00:00:00 | 00:00:00 | |
| OM5KV | 2026-09-01 01:26:54 | 48.28339 | 17.48364 | 337° | 18km/h | 23563m | 4.7m/s | -54.5°C | 1.4% | 0hPa | 2.6V | 00:00:00 | 00:00:00 | 00:00:00 | |
| OM5KV | 2026-09-01 01:26:53 | 48.28336 | 17.48367 | 332° | 16km/h | 23557m | 5.9m/s | -54.5°C | 1.4% | 0hPa | 2.6V | 00:00:00 | 00:00:00 | 00:00:00 | |
| OE5MMP-10 | 2026-09-01 01:26:51 | 48.28327 | 17.48373 | 351° | 18km/h | 23540m | 6.2m/s | -54.4°C | 4.5% | 0hPa | 2.6V | 00:00:00 | 01:26:31 | 00:00:00 | |
| S52SK | 2026-09-01 01:26:50 | 48.28327 | 17.48373 | 352° | 13km/h | 23540m | 6.3m/s | -54.5°C | 1.4% | 0hPa | 2.6V | 00:00:00 | 00:00:00 | 00:00:00 | |
| OE5DRO-10 | 2026-09-01 01:26:49 | 48.28320 | 17.48375 | 343° | 13km/h | 23530m | 3.6m/s | -54.5°C | 4.5% | 0hPa | 2.6V | 00:00:00 | 00:00:00 | 00:00:00 | |
| PETON7-10 | 2026-09-01 01:26:48 | 48.28316 | 17.48377 | 329° | 13km/h | 23525m | 6.6m/s | -54.6°C | 4.5% | 0hPa | 2.6V | 00:00:00 | 00:00:00 | 00:00:00 | |
| OK1ALN | 2026-09-01 01:26:46 | 48.28313 | 17.48382 | 311° | 18km/h | 23518m | 6.2m/s | -54.7°C | 1.4% | 0hPa | 2.6V | 00:00:00 | 00:00:00 | 00:00:00 | |
| HA6NAB-11 | 2026-09-01 01:26:44 | 48.28306 | 17.48394 | 314° | 22km/h | 23509m | 4.1m/s | -54.7°C | 1.4% | 0hPa | 2.6V | 00:00:00 | 00:00:00 | 00:00:00 | |
| OM5KV | 2026-09-01 01:26:43 | 48.28302 | 17.48399 | 328° | 22km/h | 23504m | 5.7m/s | -54.7°C | 1.4% | 0hPa | 2.6V | 00:00:00 | 00:00:00 | 00:00:00 | |
| PG1ADW-2 | 2026-09-01 01:26:42 | 48.28293 | 17.48404 | 358° | 13km/h | 23494m | 4.9m/s | -54.6°C | 4.6% | 0hPa | 2.6V | 00:00:00 | 00:00:00 | 00:00:00 | |
| OE5MMP-10 | 2026-09-01 01:26:41 | 48.28290 | 17.48403 | 15° | 9km/h | 23489m | 5.0m/s | -54.6°C | 4.5% | 0hPa | 2.6V | 00:00:00 | 01:26:21 | 00:00:00 | |
| OE3JTB-15 | 2026-09-01 01:26:40 | 48.28288 | 17.48402 | 23° | 11km/h | 23483m | 6.0m/s | -54.6°C | 4.6% | 0hPa | 2.6V | 00:00:00 | 00:00:00 | 00:00:00 | |
| HA6NAB-11 | 2026-09-01 01:26:39 | 48.28288 | 17.48402 | 23° | 7km/h | 23483m | 6.1m/s | -54.6°C | 1.5% | 0hPa | 2.7V | 00:00:00 | 00:00:00 | 00:00:00 | |
| OM5KV | 2026-09-01 01:26:37 | 48.28286 | 17.48402 | 340° | 4km/h | 23473m | 4.2m/s | -54.6°C | 1.4% | 0hPa | 2.7V | 00:00:00 | 00:00:00 | 00:00:00 | |
| OM5KV | 2026-09-01 01:26:36 | 48.28284 | 17.48402 | 348° | 7km/h | 23467m | 5.8m/s | -54.6°C | 1.4% | 0hPa | 2.7V | 00:00:00 | 00:00:00 | 00:00:00 | |
| PETON7-10 | 2026-09-01 01:26:33 | 48.28273 | 17.48408 | 337° | 13km/h | 23445m | 6.7m/s | -54.5°C | 4.5% | 0hPa | 2.7V | 00:00:00 | 01:26:13 | 00:00:00 | |
| OE5MMP-10 | 2026-09-01 01:26:31 | 48.28268 | 17.48413 | 323° | 15km/h | 23434m | 6.3m/s | -54.4°C | 4.5% | 0hPa | 2.7V | 00:00:00 | 01:26:11 | 00:00:00 | |
| OE5DRO-10 | 2026-09-01 01:26:30 | 48.28264 | 17.48417 | 321° | 11km/h | 23428m | 5.8m/s | -54.4°C | 4.5% | 0hPa | 2.7V | 00:00:00 | 00:00:00 | 00:00:00 | |
| HA6NAB-11 | 2026-09-01 01:26:27 | 48.28260 | 17.48426 | 290° | 16km/h | 23417m | 7.0m/s | -54.4°C | 1.4% | 0hPa | 2.7V | 00:00:00 | 00:00:00 | 00:00:00 | |
| OK1ALN | 2026-09-01 01:26:26 | 48.28260 | 17.48438 | 260° | 16km/h | 23404m | 5.5m/s | -54.4°C | 1.4% | 0hPa | 2.7V | 00:00:00 | 00:00:00 | 00:00:00 | |
| OE5DXL-15 | 2026-09-01 01:26:25 | 48.28261 | 17.48445 | 266° | 11km/h | 23398m | 5.9m/s | -54.4°C | 4.4% | 0hPa | 2.7V | 00:00:00 | 00:00:00 | 00:00:00 | |
| PG1ADW-2 | 2026-09-01 01:26:22 | 48.28259 | 17.48457 | 301° | 11km/h | 23381m | 4.7m/s | -54.6°C | 4.5% | 0hPa | 2.6V | 00:00:00 | 00:00:00 | 00:00:00 | |
| OE5MMP-10 | 2026-09-01 01:26:21 | 48.28258 | 17.48459 | 300° | 9km/h | 23375m | 6.6m/s | -54.7°C | 4.5% | 0hPa | 2.6V | 00:00:00 | 01:26:01 | 00:00:00 | |
| OM5KV | 2026-09-01 01:26:20 | 48.28258 | 17.48459 | 300° | 5km/h | 23375m | 6.7m/s | -54.7°C | 0% | 0hPa | 2.6V | 00:00:00 | 00:00:00 | 00:00:00 | |
| OM5KV | 2026-09-01 01:26:19 | 48.28258 | 17.48460 | 0° | 0km/h | 23369m | 5.3m/s | -54.7°C | 0% | 0hPa | 2.6V | 00:00:00 | 00:00:00 | 00:00:00 | |
| PETON7-10 | 2026-09-01 01:26:18 | 48.28256 | 17.48459 | 3° | 13km/h | 23358m | 6.8m/s | -54.8°C | 4.6% | 0hPa | 2.6V | 00:00:00 | 00:00:00 | 08:30:00 | |
| HA6NAB-11 | 2026-09-01 01:26:15 | 48.28251 | 17.48460 | 329° | 7km/h | 23347m | 5.2m/s | -54.8°C | 1.4% | 0hPa | 2.6V | 00:00:00 | 00:00:00 | 00:00:00 | |
| OM5KV | 2026-09-01 01:26:14 | 48.28251 | 17.48462 | 277° | 7km/h | 23341m | 7.4m/s | 0°C | 0% | 0hPa | 2.6V | 00:00:00 | 00:00:00 | 00:00:00 | |
| OM5KV | 2026-09-01 01:26:13 | 48.28251 | 17.48466 | 254° | 11km/h | 23334m | 5.8m/s | 0°C | 0% | 0hPa | 2.6V | 00:00:00 | 00:00:00 | 00:00:00 | |
| OE5MMP-10 | 2026-09-01 01:26:11 | 48.28254 | 17.48484 | 252° | 13km/h | 23316m | 4.3m/s | -54.7°C | 4.7% | 0hPa | 2.6V | 00:00:00 | 01:25:51 | 00:00:00 | |
| OM5KV | 2026-09-01 01:26:08 | 48.28259 | 17.48495 | 219° | 16km/h | 23305m | 6.9m/s | 0°C | 0% | 0hPa | 2.6V | 00:00:00 | 00:00:00 | 00:00:00 | |
| OK1ALN | 2026-09-01 01:26:05 | 48.28268 | 17.48502 | 222° | 9km/h | 23288m | 6.8m/s | -54.6°C | 1.5% | 0hPa | 2.6V | 00:00:00 | 00:00:00 | 00:00:00 | |
| PETON7-10 | 2026-09-01 01:26:03 | 48.28270 | 17.48510 | 267° | 11km/h | 23271m | 5.6m/s | -54.5°C | 4.6% | 0hPa | 2.6V | 00:00:00 | 00:00:00 | 00:00:00 | |
| PG1ADW-2 | 2026-09-01 01:26:02 | 48.28271 | 17.48513 | 242° | 11km/h | 23265m | 6.1m/s | -54.4°C | 4.6% | 0hPa | 2.6V | 00:00:00 | 00:00:00 | 00:00:00 | |
| OE5MMP-10 | 2026-09-01 01:26:01 | 48.28272 | 17.48516 | 231° | 13km/h | 23259m | 5.3m/s | -54.4°C | 4.6% | 0hPa | 2.6V | 00:00:00 | 01:25:41 | 00:00:00 | |
| OE5DXL-15 | 2026-09-01 01:25:55 | 48.28281 | 17.48538 | 229° | 13km/h | 23222m | 5.5m/s | -54.2°C | 4.6% | 0hPa | 2.6V | 00:00:00 | 00:00:00 | 00:00:00 | |
| OE5DRO-10 | 2026-09-01 01:25:52 | 48.28288 | 17.48551 | 242° | 11km/h | 23204m | 6.0m/s | -54.1°C | 4.5% | 0hPa | 2.6V | 00:00:00 | 00:00:00 | 00:00:00 | |
| OE5MMP-10 | 2026-09-01 01:25:51 | 48.28289 | 17.48555 | 251° | 11km/h | 23199m | 4.1m/s | -54.1°C | 4.5% | 0hPa | 2.6V | 00:00:00 | 01:25:31 | 00:00:00 | |
| OM5KV | 2026-09-01 01:25:49 | 48.28290 | 17.48558 | 251° | 11km/h | 23194m | 5.8m/s | 0°C | 0% | 0hPa | 2.6V | 00:00:00 | 00:00:00 | 00:00:00 | |
| PETON7-10 | 2026-09-01 01:25:48 | 48.28293 | 17.48565 | 235° | 11km/h | 23182m | 5.2m/s | -54.0°C | 4.4% | 0hPa | 2.6V | 00:00:00 | 01:25:28 | 00:00:00 | |
| OK1ALN | 2026-09-01 01:25:44 | 48.28294 | 17.48577 | 278° | 11km/h | 23165m | 4.1m/s | -53.9°C | 1.4% | 0hPa | 2.6V | 00:00:00 | 00:00:00 | 00:00:00 | |
| OM5KV | 2026-09-01 01:25:43 | 48.28294 | 17.48582 | 262° | 13km/h | 23161m | 4.2m/s | 0°C | 0% | 0hPa | 2.6V | 00:00:00 | 00:00:00 | 00:00:00 | |
| OE3JTB-15 | 2026-09-01 01:25:42 | 48.28298 | 17.48591 | 228° | 9km/h | 23149m | 4.9m/s | -53.8°C | 4.4% | 0hPa | 2.6V | 00:00:00 | 01:25:22 | 00:00:00 | |
| OE3OSB-13 | 2026-09-01 01:25:41 | 48.28302 | 17.48600 | 241° | 11km/h | 23138m | 6.1m/s | -53.8°C | 1.2% | -1.0hPa | 2.6V | 00:00:00 | 00:00:00 | 00:00:00 | |
| HA6NAB-11 | 2026-09-01 01:25:39 | 48.28302 | 17.48599 | 242° | 13km/h | 23139m | 6.1m/s | -53.8°C | 1.3% | 0hPa | 2.6V | 00:00:00 | 00:00:00 | 00:00:00 | |
| OM5KV | 2026-09-01 01:25:37 | 48.28303 | 17.48607 | 267° | 9km/h | 23127m | 5.1m/s | 0°C | 0% | 0hPa | 2.6V | 00:00:00 | 00:00:00 | 00:00:00 | |
| PETON7-10 | 2026-09-01 01:25:33 | 48.28307 | 17.48624 | 279° | 9km/h | 23098m | 6.4m/s | -53.8°C | 4.4% | 0hPa | 2.6V | 00:00:00 | 00:00:00 | 00:00:00 | |
| OE5MMP-10 | 2026-09-01 01:25:31 | 48.28306 | 17.48634 | 277° | 11km/h | 23087m | 4.8m/s | -53.7°C | 4.4% | 0hPa | 2.6V | 00:00:00 | 01:25:11 | 00:00:00 | |
| HA6NAB-11 | 2026-09-01 01:25:28 | 48.28307 | 17.48644 | 243° | 15km/h | 23075m | 6.1m/s | -53.7°C | 1.4% | 0hPa | 2.6V | 00:00:00 | 00:00:00 | 00:00:00 | |
| OE5DXL-15 | 2026-09-01 01:25:25 | 48.28312 | 17.48657 | 238° | 11km/h | 23052m | 4.1m/s | -53.5°C | 4.3% | 0hPa | 2.6V | 00:00:00 | 00:00:00 | 00:00:00 | |
| GYPAP8-17 | 2026-09-01 01:25:24 | 48.28313 | 17.48656 | 239° | 4km/h | 23052m | 4.1m/s | 0°C | 0% | 0hPa | 2.6V | 00:00:00 | 00:00:00 | 00:00:00 | |
| HA6NAB-11 | 2026-09-01 01:25:23 | 48.28315 | 17.48659 | 191° | 9km/h | 23040m | 7.5m/s | -53.5°C | 1.4% | 0hPa | 2.6V | 00:00:00 | 00:00:00 | 00:00:00 | |
| PG1ADW-2 | 2026-09-01 01:25:22 | 48.28318 | 17.48660 | 198° | 9km/h | 23033m | 4.6m/s | -53.4°C | 4.3% | 0hPa | 2.6V | 00:00:00 | 00:00:00 | 00:00:00 | |
| OE5MMP-10 | 2026-09-01 01:25:21 | 48.28320 | 17.48661 | 203° | 7km/h | 23028m | 5.9m/s | -53.4°C | 4.3% | 0hPa | 2.6V | 00:00:00 | 01:25:01 | 00:00:00 | |
| S52SK | 2026-09-01 01:25:19 | 48.28321 | 17.48662 | 234° | 5km/h | 23021m | 7.1m/s | -53.4°C | 1.3% | 0hPa | 2.6V | 00:00:00 | 00:00:00 | 00:00:00 | |
| PETON7-10 | 2026-09-01 01:25:18 | 48.28323 | 17.48666 | 222° | 9km/h | 23010m | 5.9m/s | -53.2°C | 4.2% | 0hPa | 2.6V | 00:00:00 | 00:00:00 | 00:00:00 | |
| HA6NAB-11 | 2026-09-01 01:25:17 | 48.28323 | 17.48666 | 223° | 7km/h | 23010m | 6.0m/s | -53.3°C | 1.3% | 0hPa | 2.6V | 00:00:00 | 00:00:00 | 00:00:00 | |
| OE5DRO-10 | 2026-09-01 01:25:14 | 48.28330 | 17.48669 | 193° | 13km/h | 22986m | 6.6m/s | -53.1°C | 4.2% | 0hPa | 2.6V | 00:00:00 | 00:00:00 | 00:00:00 | |
| OE3JTB-15 | 2026-09-01 01:25:13 | 48.28331 | 17.48669 | 147° | 11km/h | 22979m | 5.2m/s | -53.1°C | 4.2% | 0hPa | 2.6V | 00:00:00 | 00:00:00 | 00:00:00 | |
| OE5MMP-10 | 2026-09-01 01:25:11 | 48.28334 | 17.48667 | 162° | 13km/h | 22969m | 6.8m/s | -53.2°C | 4.2% | 0hPa | 2.7V | 00:00:00 | 01:24:51 | 00:00:00 | |
| OE3OSB-13 | 2026-09-01 01:25:09 | 48.28340 | 17.48665 | 183° | 13km/h | 22957m | 4.5m/s | -53.4°C | 1.2% | -1.0hPa | 2.6V | 00:00:00 | 00:00:00 | 00:00:00 | |
| OK1ALN | 2026-09-01 01:25:04 | 48.28355 | 17.48669 | 166° | 15km/h | 22927m | 6.3m/s | -53.4°C | 1.3% | 0hPa | 2.6V | 00:00:00 | 00:00:00 | 00:00:00 | |
| PETON7-10 | 2026-09-01 01:25:03 | 48.28358 | 17.48666 | 140° | 13km/h | 22921m | 3.8m/s | -53.4°C | 4.3% | 0hPa | 2.6V | 00:00:00 | 01:24:43 | 00:00:00 | |
| PG1ADW-2 | 2026-09-01 01:25:02 | 48.28361 | 17.48661 | 125° | 13km/h | 22917m | 5.3m/s | -53.4°C | 4.3% | 0hPa | 2.6V | 00:00:00 | 00:00:00 | 00:00:00 | |
| OE5MMP-10 | 2026-09-01 01:25:01 | 48.28363 | 17.48655 | 102° | 13km/h | 22911m | 6.8m/s | -53.4°C | 4.3% | 0hPa | 2.6V | 00:00:00 | 01:24:41 | 00:00:00 | |
| OE5DXL-15 | 2026-09-01 01:24:55 | 48.28365 | 17.48620 | 125° | 11km/h | 22876m | 5.8m/s | -53.3°C | 4.3% | 0hPa | 2.6V | 00:00:00 | 00:00:00 | 00:00:00 | |
| OE5MMP-10 | 2026-09-01 01:24:51 | 48.28369 | 17.48612 | 135° | 13km/h | 22855m | 6.7m/s | -53.3°C | 4.2% | 0hPa | 2.7V | 00:00:00 | 01:24:31 | 00:00:00 | |
| PETON7-10 | 2026-09-01 01:24:48 | 48.28375 | 17.48601 | 125° | 11km/h | 22839m | 6.5m/s | -53.3°C | 4.3% | 0hPa | 2.7V | 00:00:00 | 00:00:00 | 00:00:00 | |
| OE3JTB-15 | 2026-09-01 01:24:44 | 48.28374 | 17.48587 | 85° | 15km/h | 22815m | 5.9m/s | -53.3°C | 4.3% | 0hPa | 2.7V | 00:00:00 | 00:00:00 | 00:00:00 | |
| PG1ADW-2 | 2026-09-01 01:24:42 | 48.28373 | 17.48575 | 83° | 13km/h | 22805m | 6.2m/s | -53.3°C | 4.3% | 0hPa | 2.7V | 00:00:00 | 00:00:00 | 00:00:00 | |
| OE5MMP-10 | 2026-09-01 01:24:41 | 48.28372 | 17.48570 | 68° | 11km/h | 22798m | 6.5m/s | -53.3°C | 4.3% | 0hPa | 2.7V | 00:00:00 | 01:24:21 | 00:00:00 | |
| OE3OSB-13 | 2026-09-01 01:24:38 | 48.28369 | 17.48558 | 66° | 13km/h | 22780m | 6.9m/s | -53.3°C | 1.3% | -1.0hPa | 2.7V | 00:00:00 | 00:00:00 | 00:00:00 | |
| HA6NAB-11 | 2026-09-01 01:24:37 | 48.28369 | 17.48558 | 68° | 13km/h | 22780m | 6.9m/s | -53.3°C | 1.4% | 0hPa | 2.7V | 00:00:00 | 00:00:00 | 00:00:00 | |
| OE5DRO-10 | 2026-09-01 01:24:36 | 48.28367 | 17.48548 | 62° | 15km/h | 22768m | 5.2m/s | -53.2°C | 4.3% | 0hPa | 2.7V | 00:00:00 | 00:00:00 | 00:00:00 | |
| SQ9EZE-15 | 2026-09-01 01:24:34 | 48.28364 | 17.48542 | 39° | 9km/h | 22756m | 4.6m/s | 0°C | 0% | 0hPa | 2.7V | 00:00:00 | 00:00:00 | 00:00:00 | |
| PETON7-10 | 2026-09-01 01:24:33 | 48.28362 | 17.48539 | 52° | 15km/h | 22751m | 4.3m/s | -53.2°C | 4.3% | 0hPa | 2.7V | 00:00:00 | 00:00:00 | 00:00:00 | |
| OE5MMP-10 | 2026-09-01 01:24:31 | 48.28358 | 17.48532 | 56° | 15km/h | 22740m | 6.3m/s | -53.1°C | 4.2% | 0hPa | 2.7V | 00:00:00 | 01:24:11 | 00:00:00 | |
| OE5DXL-15 | 2026-09-01 01:24:25 | 48.28344 | 17.48509 | 85° | 18km/h | 22705m | 6.3m/s | -53.2°C | 4.2% | 0hPa | 2.7V | 00:00:00 | 00:00:00 | 00:00:00 | |
| PG1ADW-2 | 2026-09-01 01:24:22 | 48.28344 | 17.48493 | 72° | 18km/h | 22688m | 6.2m/s | -53.2°C | 4.3% | 0hPa | 2.7V | 00:00:00 | 01:24:02 | 00:00:00 | |
| OE5MMP-10 | 2026-09-01 01:24:21 | 48.28343 | 17.48488 | 66° | 20km/h | 22682m | 5.5m/s | -53.2°C | 4.3% | 0hPa | 2.7V | 00:00:00 | 01:24:01 | 00:00:00 | |
| HA6NAB-11 | 2026-09-01 01:24:20 | 48.28343 | 17.48488 | 66° | 16km/h | 22682m | 5.6m/s | -53.3°C | 1.4% | 0hPa | 2.7V | 00:00:00 | 00:00:00 | 00:00:00 | |
| PETON7-10 | 2026-09-01 01:24:18 | 48.28336 | 17.48464 | 62° | 18km/h | 22665m | 4.6m/s | -53.2°C | 4.2% | 0hPa | 2.7V | 00:00:00 | 01:23:58 | 00:00:00 | |
| OE5DRO-10 | 2026-09-01 01:24:17 | 48.28332 | 17.48456 | 54° | 18km/h | 22659m | 5.8m/s | -53.2°C | 4.2% | 0hPa | 2.7V | 00:00:00 | 00:00:00 | 08:30:00 | |
| OE3JTB-15 | 2026-09-01 01:24:15 | 48.28324 | 17.48443 | 35° | 18km/h | 22647m | 5.3m/s | -53.1°C | 4.2% | 0hPa | 2.7V | 00:00:00 | 01:23:55 | 00:00:00 | |
| HA6NAB-11 | 2026-09-01 01:24:14 | 48.28324 | 17.48443 | 35° | 22km/h | 22647m | 5.3m/s | -53.2°C | 1.3% | 0hPa | 2.7V | 00:00:00 | 00:00:00 | 00:00:00 | |
| OE5MMP-10 | 2026-09-01 01:24:11 | 48.28313 | 17.48427 | 45° | 18km/h | 22623m | 6.9m/s | -53.1°C | 4.1% | 0hPa | 2.7V | 00:00:00 | 01:23:51 | 08:30:00 | |
| HA6NAB-11 | 2026-09-01 01:24:08 | 48.28309 | 17.48423 | 42° | 13km/h | 22611m | 4.3m/s | -53.1°C | 1.3% | 0hPa | 2.6V | 00:00:00 | 00:00:00 | 00:00:00 | |
| OE3OSB-13 | 2026-09-01 01:24:07 | 48.28304 | 17.48413 | 58° | 18km/h | 22599m | 5.5m/s | -53.2°C | 1.2% | -1.0hPa | 2.6V | 00:00:00 | 00:00:00 | 00:00:00 | |
| S52SK | 2026-09-01 01:24:05 | 48.28301 | 17.48406 | 54° | 24km/h | 22595m | 4.3m/s | -53.2°C | 1.3% | 0hPa | 2.6V | 00:00:00 | 00:00:00 | 00:00:00 | |
| PETON7-10 | 2026-09-01 01:24:03 | 48.28288 | 17.48390 | 25° | 18km/h | 22577m | 5.5m/s | -53.3°C | 4.2% | 0hPa | 2.6V | 00:00:00 | 00:00:00 | 08:30:00 | |
| OK1ALN | 2026-09-01 01:24:02 | 48.28284 | 17.48386 | 32° | 18km/h | 22572m | 4.8m/s | -53.4°C | 0% | 0hPa | 2.7V | 00:00:00 | 00:00:00 | 00:00:00 | |
| OE5MMP-10 | 2026-09-01 01:24:01 | 48.28280 | 17.48383 | 39° | 16km/h | 22566m | 6.6m/s | -53.4°C | 4.2% | 0hPa | 2.7V | 00:00:00 | 01:23:41 | 00:00:00 | |
| S52SK | 2026-09-01 01:23:59 | 48.28277 | 17.48379 | 46° | 15km/h | 22560m | 6.2m/s | -53.4°C | 1.3% | 0hPa | 2.7V | 00:00:00 | 00:00:00 | 00:00:00 | |
| OE5DRO-10 | 2026-09-01 01:23:58 | 48.28272 | 17.48371 | 33° | 18km/h | 22548m | 5.5m/s | -53.4°C | 4.2% | 0hPa | 2.7V | 00:00:00 | 00:00:00 | 00:00:00 | |
| OE5DXL-15 | 2026-09-01 01:23:55 | 48.28261 | 17.48367 | 12° | 15km/h | 22531m | 4.9m/s | -53.7°C | 4.3% | 0hPa | 2.7V | 00:00:00 | 00:00:00 | 00:00:00 | |
| OE5MMP-10 | 2026-09-01 01:23:51 | 48.28245 | 17.48357 | 17° | 20km/h | 22507m | 6.3m/s | -53.9°C | 4.4% | 0hPa | 2.7V | 00:00:00 | 01:23:31 | 00:00:00 | |
| PETON7-10 | 2026-09-01 01:23:48 | 48.28227 | 17.48354 | 7° | 16km/h | 22490m | 5.4m/s | -54.0°C | 4.4% | 0hPa | 2.7V | 00:00:00 | 00:00:00 | 00:00:00 | |
| OE3JTB-15 | 2026-09-01 01:23:46 | 48.28218 | 17.48351 | 16° | 13km/h | 22478m | 6.1m/s | -54.1°C | 4.4% | 0hPa | 2.7V | 00:00:00 | 00:00:00 | 08:30:00 | |
| PG1ADW-2 | 2026-09-01 01:23:42 | 48.28201 | 17.48345 | 30° | 11km/h | 22455m | 6.8m/s | -54.0°C | 4.4% | 0hPa | 2.6V | 00:00:00 | 00:00:00 | 00:00:00 | |
| OE5MMP-10 | 2026-09-01 01:23:41 | 48.28197 | 17.48341 | 46° | 15km/h | 22448m | 7.1m/s | -53.9°C | 4.4% | 0hPa | 2.6V | 00:00:00 | 01:23:21 | 00:00:00 | |
| OK1ALN | 2026-09-01 01:23:40 | 48.28197 | 17.48341 | 46° | 16km/h | 22448m | 7.1m/s | 0°C | 0% | 0hPa | 2.6V | 00:00:00 | 00:00:00 | 00:00:00 | |
| OE5DRO-10 | 2026-09-01 01:23:39 | 48.28191 | 17.48333 | 32° | 11km/h | 22436m | 6.7m/s | -53.9°C | 4.5% | 0hPa | 2.6V | 00:00:00 | 00:00:00 | 00:00:00 | |
| OE3OSB-13 | 2026-09-01 01:23:36 | 48.28179 | 17.48327 | 16° | 15km/h | 22418m | 6.4m/s | -53.9°C | 1.3% | -1.0hPa | 2.6V | 00:00:00 | 00:00:00 | 00:00:00 | |
| PETON7-10 | 2026-09-01 01:23:33 | 48.28171 | 17.48323 | 2° | 9km/h | 22402m | 5.4m/s | -53.9°C | 4.5% | 0hPa | 2.6V | 00:00:00 | 01:23:13 | 00:00:00 | |
| OE5MMP-10 | 2026-09-01 01:23:31 | 48.28164 | 17.48324 | 344° | 7km/h | 22391m | 5.6m/s | -53.8°C | 4.5% | 0hPa | 2.6V | 00:00:00 | 01:23:11 | 00:00:00 | |
| HA6NAB-11 | 2026-09-01 01:23:28 | 48.28157 | 17.48327 | 28° | 4km/h | 22372m | 5.6m/s | -53.8°C | 1.4% | 0hPa | 2.6V | 00:00:00 | 00:00:00 | 00:00:00 | |
| OE5DXL-15 | 2026-09-01 01:23:25 | 48.28153 | 17.48324 | 24° | 9km/h | 22356m | 4.5m/s | -53.6°C | 4.4% | 0hPa | 2.6V | 00:00:00 | 01:23:05 | 08:30:00 | |
| HA6NAB-11 | 2026-09-01 01:23:22 | 48.28150 | 17.48319 | 74° | 5km/h | 22338m | 6.0m/s | -53.7°C | 1.4% | 0hPa | 2.6V | 00:00:00 | 00:00:00 | 00:00:00 | |
| OE5MMP-10 | 2026-09-01 01:23:21 | 48.28149 | 17.48317 | 43° | 13km/h | 22332m | 4.1m/s | -53.6°C | 4.4% | 0hPa | 2.6V | 00:00:00 | 01:23:01 | 00:00:00 | |
| OE5DRO-10 | 2026-09-01 01:23:20 | 48.28147 | 17.48316 | 6° | 9km/h | 22327m | 6.2m/s | -53.6°C | 4.4% | 0hPa | 2.6V | 00:00:00 | 00:00:00 | 00:00:00 | |
| PETON7-10 | 2026-09-01 01:23:18 | 48.28141 | 17.48318 | 344° | 9km/h | 22315m | 5.4m/s | -53.6°C | 4.3% | 0hPa | 2.6V | 00:00:00 | 00:00:00 | 00:00:00 | |
| OE3JTB-15 | 2026-09-01 01:23:17 | 48.28137 | 17.48320 | 331° | 9km/h | 22309m | 6.9m/s | -53.6°C | 4.3% | 0hPa | 2.6V | 00:00:00 | 00:00:00 | 00:00:00 | |
| HA6NAB-11 | 2026-09-01 01:23:16 | 48.28137 | 17.48320 | 332° | 16km/h | 22309m | 6.9m/s | -53.6°C | 1.4% | 0hPa | 2.6V | 00:00:00 | 00:00:00 | 00:00:00 | |
| OE5MMP-10 | 2026-09-01 01:23:11 | 48.28123 | 17.48341 | 287° | 5km/h | 22271m | 7.2m/s | -53.4°C | 4.3% | 0hPa | 2.6V | 00:00:00 | 01:22:51 | 00:00:00 | |
| HA6NAB-11 | 2026-09-01 01:23:10 | 48.28123 | 17.48341 | 288° | 5km/h | 22271m | 7.2m/s | -53.5°C | 1.4% | 0hPa | 2.6V | 00:00:00 | 00:00:00 | 00:00:00 | |
| OE3OSB-13 | 2026-09-01 01:23:05 | 48.28123 | 17.48342 | 340° | 5km/h | 22237m | 5.9m/s | -53.4°C | 1.2% | -1.0hPa | 2.6V | 00:00:00 | 00:00:00 | 00:00:00 | |
| HA6NAB-11 | 2026-09-01 01:23:04 | 48.28123 | 17.48342 | 341° | 7km/h | 22237m | 5.9m/s | -53.4°C | 1.4% | 0hPa | 2.6V | 00:00:00 | 00:00:00 | 00:00:00 | |
| PETON7-10 | 2026-09-01 01:23:03 | 48.28121 | 17.48346 | 287° | 7km/h | 22224m | 6.0m/s | -53.4°C | 4.2% | 0hPa | 2.6V | 00:00:00 | 00:00:00 | 00:00:00 | |
| PG1ADW-2 | 2026-09-01 01:23:02 | 48.28120 | 17.48348 | 297° | 7km/h | 22218m | 4.5m/s | -53.3°C | 4.3% | 0hPa | 2.6V | 00:00:00 | 01:22:42 | 00:00:00 | |
| OE5MMP-10 | 2026-09-01 01:23:01 | 48.28119 | 17.48351 | 309° | 7km/h | 22212m | 6.8m/s | -53.3°C | 4.3% | 0hPa | 2.6V | 00:00:00 | 01:22:41 | 00:00:00 | |
| GYPAP8-17 | 2026-09-01 01:22:58 | 48.28117 | 17.48357 | 278° | 7km/h | 22202m | 5.4m/s | 0°C | 0% | 0hPa | 2.6V | 00:00:00 | 00:00:00 | 00:00:00 | |
| OK1ALN | 2026-09-01 01:22:57 | 48.28117 | 17.48360 | 252° | 7km/h | 22196m | 6.3m/s | 0°C | 0% | 0hPa | 2.6V | 00:00:00 | 00:00:00 | 00:00:00 | |
| OE5DXL-15 | 2026-09-01 01:22:55 | 48.28121 | 17.48361 | 129° | 13km/h | 22178m | 6.9m/s | -53.2°C | 4.3% | 0hPa | 2.6V | 00:00:00 | 00:00:00 | 00:00:00 | |
| S52SK | 2026-09-01 01:22:52 | 48.28122 | 17.48356 | 118° | 7km/h | 22166m | 6.8m/s | -53.3°C | 1.4% | 0hPa | 2.6V | 00:00:00 | 00:00:00 | 00:00:00 | |
| OE5MMP-10 | 2026-09-01 01:22:51 | 48.28124 | 17.48350 | 86° | 5km/h | 22154m | 4.4m/s | -53.2°C | 4.3% | 0hPa | 2.6V | 00:00:00 | 01:22:31 | 00:00:00 | |
| PETON7-10 | 2026-09-01 01:22:48 | 48.28121 | 17.48343 | 49° | 11km/h | 22136m | 4.7m/s | -53.2°C | 4.2% | 0hPa | 2.6V | 00:00:00 | 01:22:28 | 00:00:00 | |
| PG1ADW-2 | 2026-09-01 01:22:42 | 48.28122 | 17.48331 | 94° | 18km/h | 22103m | 4.6m/s | -53.1°C | 4.3% | 0hPa | 2.6V | 00:00:00 | 00:00:00 | 08:30:00 | |
| OE5MMP-10 | 2026-09-01 01:22:41 | 48.28123 | 17.48327 | 100° | 15km/h | 22097m | 6.7m/s | -53.1°C | 4.2% | 0hPa | 2.6V | 00:00:00 | 01:22:21 | 08:30:00 | |
| OE3OSB-13 | 2026-09-01 01:22:34 | 48.28124 | 17.48287 | 110° | 15km/h | 22054m | 5.8m/s | -53.3°C | 1.3% | -1.0hPa | 2.7V | 00:00:00 | 00:00:00 | 00:00:00 | |
| PETON7-10 | 2026-09-01 01:22:33 | 48.28125 | 17.48282 | 121° | 18km/h | 22049m | 4.8m/s | -53.2°C | 4.3% | 0hPa | 2.7V | 00:00:00 | 00:00:00 | 00:00:00 | |
| OE5MMP-10 | 2026-09-01 01:22:30 | 48.28130 | 17.48265 | 110° | 20km/h | 22032m | 3.3m/s | -53.2°C | 4.3% | 0hPa | 2.6V | 00:00:00 | 01:22:10 | 00:00:00 | |
| OE5DXL-15 | 2026-09-01 01:22:25 | 48.28138 | 17.48229 | 89° | 15km/h | 22005m | 5.8m/s | -53.0°C | 4.2% | 0hPa | 2.6V | 00:00:00 | 00:00:00 | 00:00:00 | |
| HA6NAB-11 | 2026-09-01 01:22:24 | 48.28138 | 17.48229 | 89° | 26km/h | 22005m | 5.9m/s | -53.0°C | 1.4% | 0hPa | 2.6V | 00:00:00 | 00:00:00 | 00:00:00 | |
| OE5DRO-10 | 2026-09-01 01:22:23 | 48.28137 | 17.48211 | 88° | 16km/h | 21995m | 6.1m/s | -52.9°C | 4.2% | 0hPa | 2.6V | 00:00:00 | 00:00:00 | 00:00:00 | |
| PG1ADW-2 | 2026-09-01 01:22:22 | 48.28137 | 17.48203 | 100° | 16km/h | 21988m | 7.2m/s | -52.9°C | 4.2% | 0hPa | 2.7V | 00:00:00 | 00:00:00 | 00:00:00 | |
| PETON7-10 | 2026-09-01 01:22:18 | 48.28140 | 17.48179 | 93° | 16km/h | 21965m | 5.0m/s | -52.9°C | 4.2% | 0hPa | 2.7V | 00:00:00 | 00:00:00 | 00:00:00 | |
| HA6NAB-11 | 2026-09-01 01:22:13 | 48.28144 | 17.48161 | 100° | 15km/h | 21942m | 6.1m/s | -52.9°C | 1.4% | 0hPa | 2.7V | 00:00:00 | 00:00:00 | 00:00:00 | |
| OE5MMP-10 | 2026-09-01 01:22:08 | 48.28148 | 17.48119 | 99° | 13km/h | 21908m | 6.1m/s | -53.0°C | 4.2% | 0hPa | 2.7V | 00:00:00 | 01:21:48 | 00:00:00 | |
| HA6NAB-11 | 2026-09-01 01:22:07 | 48.28148 | 17.48119 | 99° | 20km/h | 21908m | 6.2m/s | -53.0°C | 1.3% | 0hPa | 2.7V | 00:00:00 | 00:00:00 | 00:00:00 | |
| OE5DRO-10 | 2026-09-01 01:22:04 | 48.28153 | 17.48092 | 122° | 13km/h | 21884m | 4.3m/s | -53.0°C | 4.2% | 0hPa | 2.7V | 00:00:00 | 00:00:00 | 00:00:00 | |
| PETON7-10 | 2026-09-01 01:22:03 | 48.28154 | 17.48087 | 107° | 11km/h | 21879m | 4.9m/s | -53.0°C | 4.2% | 0hPa | 2.7V | 00:00:00 | 01:21:43 | 00:00:00 | |
| PG1ADW-2 | 2026-09-01 01:22:02 | 48.28155 | 17.48083 | 97° | 13km/h | 21873m | 6.1m/s | -53.0°C | 4.2% | 0hPa | 2.7V | 00:00:00 | 00:00:00 | 00:00:00 | |
| HA6NAB-11 | 2026-09-01 01:22:01 | 48.28155 | 17.48083 | 98° | 11km/h | 21873m | 6.2m/s | -53.1°C | 1.4% | 0hPa | 2.7V | 00:00:00 | 00:00:00 | 00:00:00 | |
| OE5MMP-10 | 2026-09-01 01:21:58 | 48.28156 | 17.48074 | 175° | 13km/h | 21850m | 5.0m/s | -53.1°C | 4.3% | 0hPa | 2.7V | 00:00:00 | 01:21:38 | 00:00:00 | |
| OE5DXL-15 | 2026-09-01 01:21:55 | 48.28158 | 17.48071 | 84° | 18km/h | 21836m | 5.2m/s | -53.1°C | 4.3% | 0hPa | 2.7V | 00:00:00 | 00:00:00 | 00:00:00 | |
| S52SK | 2026-09-01 01:21:50 | 48.28159 | 17.48051 | 101° | 16km/h | 21813m | 3.7m/s | -53.0°C | 1.4% | 0hPa | 2.6V | 00:00:00 | 00:00:00 | 00:00:00 | |
| OE3JTB-15 | 2026-09-01 01:21:49 | 48.28160 | 17.48037 | 90° | 20km/h | 21801m | 6.8m/s | -52.9°C | 4.2% | 0hPa | 2.6V | 00:00:00 | 00:00:00 | 00:00:00 | |
| OE5DRO-10 | 2026-09-01 01:21:45 | 48.28163 | 17.48013 | 104° | 20km/h | 21779m | 4.7m/s | -52.8°C | 4.2% | 0hPa | 2.6V | 00:00:00 | 00:00:00 | 00:00:00 | |
| S52SK | 2026-09-01 01:21:44 | 48.28163 | 17.48013 | 105° | 15km/h | 21779m | 4.8m/s | -52.8°C | 1.4% | 0hPa | 2.6V | 00:00:00 | 00:00:00 | 00:00:00 | |
| PG1ADW-2 | 2026-09-01 01:21:42 | 48.28164 | 17.47996 | 89° | 20km/h | 21762m | 5.3m/s | -52.7°C | 4.2% | 0hPa | 2.6V | 00:00:00 | 01:21:22 | 00:00:00 | |
| OE5MMP-10 | 2026-09-01 01:21:38 | 48.28167 | 17.47970 | 104° | 22km/h | 21740m | 6.5m/s | -52.7°C | 4.2% | 0hPa | 2.7V | 00:00:00 | 01:21:18 | 00:00:00 | |
| PETON7-10 | 2026-09-01 01:21:33 | 48.28177 | 17.47927 | 113° | 22km/h | 21713m | 4.4m/s | -52.6°C | 4.1% | 0hPa | 2.7V | 00:00:00 | 00:00:00 | 00:00:00 | |
| OE3OSB-13 | 2026-09-01 01:21:32 | 48.28179 | 17.47919 | 108° | 20km/h | 21707m | 5.7m/s | -52.6°C | 1.2% | -1.0hPa | 2.7V | 00:00:00 | 00:00:00 | 00:00:00 | |
| OE5MMP-10 | 2026-09-01 01:21:28 | 48.28180 | 17.47890 | 97° | 22km/h | 21684m | 6.7m/s | -52.5°C | 4.1% | 0hPa | 2.7V | 00:00:00 | 01:21:08 | 00:00:00 | |
| OE5DRO-10 | 2026-09-01 01:21:26 | 48.28181 | 17.47878 | 99° | 22km/h | 21673m | 4.9m/s | -52.5°C | 4.1% | 0hPa | 2.7V | 00:00:00 | 00:00:00 | 08:30:00 | |
| OE5DXL-15 | 2026-09-01 01:21:25 | 48.28182 | 17.47872 | 89° | 20km/h | 21668m | 5.8m/s | -52.6°C | 4.1% | 0hPa | 2.6V | 00:00:00 | 00:00:00 | 00:00:00 | |
| PG1ADW-2 | 2026-09-01 01:21:22 | 48.28183 | 17.47848 | 108° | 24km/h | 21652m | 5.6m/s | -52.5°C | 4.1% | 0hPa | 2.6V | 00:00:00 | 00:00:00 | 00:00:00 | |
| OE3JTB-15 | 2026-09-01 01:21:20 | 48.28186 | 17.47827 | 98° | 20km/h | 21643m | 6.3m/s | -52.5°C | 4.0% | 0hPa | 2.6V | 00:00:00 | 01:21:00 | 00:00:00 | |
| OE5MMP-10 | 2026-09-01 01:21:18 | 48.28187 | 17.47803 | 91° | 20km/h | 21632m | 3.4m/s | -52.5°C | 4.1% | 0hPa | 2.6V | 00:00:00 | 01:20:58 | 00:00:00 | |
| OE5MMP-10 | 2026-09-01 01:21:08 | 48.28184 | 17.47731 | 94° | 22km/h | 21577m | 3.6m/s | -52.5°C | 4.0% | 0hPa | 2.6V | 00:00:00 | 01:20:48 | 08:30:00 | |
| OE5DRO-10 | 2026-09-01 01:21:07 | 48.28184 | 17.47721 | 92° | 16km/h | 21573m | 6.0m/s | -52.6°C | 4.0% | 0hPa | 2.6V | 00:00:00 | 00:00:00 | 00:00:00 | |
| PETON7-10 | 2026-09-01 01:21:03 | 48.28183 | 17.47682 | 93° | 15km/h | 21552m | 5.5m/s | -52.7°C | 4.1% | 0hPa | 2.6V | 00:00:00 | 00:00:00 | 00:00:00 | |
| OE3OSB-13 | 2026-09-01 01:21:01 | 48.28181 | 17.47662 | 54° | 15km/h | 21536m | 6.0m/s | -52.9°C | 1.2% | -1.0hPa | 2.6V | 00:00:00 | 00:00:00 | 00:00:00 | |
| HA6NAB-11 | 2026-09-01 01:20:57 | 48.28176 | 17.47655 | 38° | 13km/h | 21526m | 6.1m/s | -52.9°C | 1.3% | 0hPa | 2.6V | 00:00:00 | 00:00:00 | 00:00:00 | |
| OE5DXL-15 | 2026-09-01 01:20:55 | 48.28171 | 17.47646 | 58° | 11km/h | 21510m | 6.2m/s | -53.0°C | 4.2% | 0hPa | 2.6V | 00:00:00 | 00:00:00 | 00:00:00 | |
| HA6NAB-11 | 2026-09-01 01:20:52 | 48.28167 | 17.47636 | 59° | 20km/h | 21498m | 3.8m/s | -53.0°C | 1.4% | 0hPa | 2.6V | 00:00:00 | 00:00:00 | 00:00:00 | |
| OE3JTB-15 | 2026-09-01 01:20:51 | 48.28163 | 17.47623 | 79° | 11km/h | 21488m | 5.6m/s | -53.0°C | 4.1% | 0hPa | 2.6V | 00:00:00 | 00:00:00 | 00:00:00 | |
| PETON7-10 | 2026-09-01 01:20:48 | 48.28160 | 17.47612 | 27° | 11km/h | 21473m | 5.5m/s | -53.0°C | 4.1% | 0hPa | 2.7V | 00:00:00 | 00:00:00 | 00:00:00 | |
| HA6NAB-11 | 2026-09-01 01:20:46 | 48.28158 | 17.47612 | 2° | 7km/h | 21468m | 4.5m/s | -53.1°C | 1.3% | 0hPa | 2.7V | 00:00:00 | 00:00:00 | 00:00:00 | |
| PG1ADW-2 | 2026-09-01 01:20:42 | 48.28153 | 17.47608 | 46° | 13km/h | 21441m | 4.8m/s | -53.1°C | 4.1% | 0hPa | 2.7V | 00:00:00 | 00:00:00 | 00:00:00 | |
| HA6NAB-11 | 2026-09-01 01:20:41 | 48.28153 | 17.47608 | 47° | 11km/h | 21441m | 4.9m/s | -53.2°C | 1.3% | 0hPa | 2.6V | 00:00:00 | 00:00:00 | 00:00:00 | |
| S52SK | 2026-09-01 01:20:39 | 48.28150 | 17.47601 | 70° | 15km/h | 21431m | 5.1m/s | -53.2°C | 1.3% | 0hPa | 2.6V | 00:00:00 | 00:00:00 | 00:00:00 | |
| OE5MMP-10 | 2026-09-01 01:20:38 | 48.28148 | 17.47590 | 81° | 13km/h | 21420m | 3.8m/s | -53.3°C | 4.1% | 0hPa | 2.6V | 00:00:00 | 01:20:18 | 00:00:00 | |
| HA6NAB-11 | 2026-09-01 01:20:35 | 48.28145 | 17.47577 | 69° | 22km/h | 21410m | 6.1m/s | -53.4°C | 1.3% | 0hPa | 2.6V | 00:00:00 | 00:00:00 | 00:00:00 | |
| PETON7-10 | 2026-09-01 01:20:33 | 48.28141 | 17.47559 | 82° | 11km/h | 21393m | 5.3m/s | -53.5°C | 4.1% | 0hPa | 2.6V | 00:00:00 | 01:20:13 | 00:00:00 | |
| OE3OSB-13 | 2026-09-01 01:20:30 | 48.28141 | 17.47544 | 110° | 5km/h | 21373m | 4.7m/s | -53.8°C | 1.2% | -1.0hPa | 2.6V | 00:00:00 | 00:00:00 | 00:00:00 | |
| OE5DRO-10 | 2026-09-01 01:20:29 | 48.28141 | 17.47544 | 111° | 9km/h | 21373m | 4.6m/s | -53.7°C | 4.2% | 0hPa | 2.6V | 00:00:00 | 00:00:00 | 00:00:00 | |
| OE5MMP-10 | 2026-09-01 01:20:28 | 48.28142 | 17.47542 | 138° | 11km/h | 21367m | 6.2m/s | -53.8°C | 4.2% | 0hPa | 2.6V | 00:00:00 | 01:20:08 | 00:00:00 | |
| OE5DXL-15 | 2026-09-01 01:20:25 | 48.28145 | 17.47537 | 85° | 9km/h | 21351m | 6.6m/s | -54.0°C | 4.3% | 0hPa | 2.6V | 00:00:00 | 00:00:00 | 00:00:00 | |
| PG1ADW-2 | 2026-09-01 01:20:22 | 48.28143 | 17.47522 | 85° | 7km/h | 21335m | 6.6m/s | -54.3°C | 4.5% | 0hPa | 2.7V | 00:00:00 | 01:20:02 | 00:00:00 | |
| PETON7-10 | 2026-09-01 01:20:18 | 48.28143 | 17.47502 | 66° | 7km/h | 21316m | 5.9m/s | -54.5°C | 4.5% | 0hPa | 2.7V | 00:00:00 | 00:00:00 | 00:00:00 | |
| OE5DRO-10 | 2026-09-01 01:20:10 | 48.28140 | 17.47487 | 83° | 9km/h | 21272m | 5.4m/s | -54.3°C | 4.5% | 0hPa | 2.6V | 00:00:00 | 00:00:00 | 00:00:00 | |
| OE5MMP-10 | 2026-09-01 01:20:08 | 48.28141 | 17.47484 | 118° | 7km/h | 21262m | 4.5m/s | -54.2°C | 4.5% | 0hPa | 2.6V | 00:00:00 | 01:19:48 | 00:00:00 | |
| PETON7-10 | 2026-09-01 01:20:03 | 48.28137 | 17.47469 | 86° | 9km/h | 21237m | 6.5m/s | -54.1°C | 4.4% | 0hPa | 2.7V | 00:00:00 | 00:00:00 | 00:00:00 | |
| OE3OSB-13 | 2026-09-01 01:19:59 | 48.28137 | 17.47457 | 131° | 4km/h | 21210m | 6.5m/s | -54.2°C | 1.3% | -1.0hPa | 2.7V | 00:00:00 | 00:00:00 | 00:00:00 | |
| OE5MMP-10 | 2026-09-01 01:19:58 | 48.28136 | 17.47457 | 132° | 11km/h | 21210m | 6.5m/s | -54.1°C | 4.5% | 0hPa | 2.7V | 00:00:00 | 01:19:38 | 00:00:00 | |
| OE5DXL-15 | 2026-09-01 01:19:55 | 48.28142 | 17.47448 | 125° | 13km/h | 21195m | 5.1m/s | -54.0°C | 4.5% | 0hPa | 2.7V | 00:00:00 | 00:00:00 | 00:00:00 | |
| HA6NAB-11 | 2026-09-01 01:19:54 | 48.28142 | 17.47448 | 125° | 11km/h | 21195m | 5.2m/s | -54.1°C | 1.4% | 0hPa | 2.7V | 00:00:00 | 00:00:00 | 00:00:00 | |
| OE3JTB-15 | 2026-09-01 01:19:53 | 48.28144 | 17.47439 | 92° | 13km/h | 21185m | 4.2m/s | -53.9°C | 4.5% | 0hPa | 2.7V | 00:00:00 | 01:19:33 | 00:00:00 | |
| OE5DRO-10 | 2026-09-01 01:19:51 | 48.28144 | 17.47430 | 100° | 11km/h | 21175m | 6.3m/s | -53.8°C | 4.4% | 0hPa | 2.7V | 00:00:00 | 00:00:00 | 00:00:00 | |
| PETON7-10 | 2026-09-01 01:19:48 | 48.28146 | 17.47420 | 88° | 11km/h | 21160m | 6.8m/s | -53.7°C | 4.4% | 0hPa | 2.7V | 00:00:00 | 01:19:28 | 00:00:00 | |
| PG1ADW-2 | 2026-09-01 01:19:42 | 48.28149 | 17.47396 | 100° | 13km/h | 21128m | 6.7m/s | -53.6°C | 4.3% | 0hPa | 2.7V | 00:00:00 | 00:00:00 | 08:30:00 | |
| OE5MMP-10 | 2026-09-01 01:19:38 | 48.28151 | 17.47375 | 98° | 15km/h | 21106m | 4.0m/s | -53.6°C | 4.3% | 0hPa | 2.6V | 00:00:00 | 01:19:18 | 08:30:00 | |
| S52SK | 2026-09-01 01:19:37 | 48.28152 | 17.47375 | 99° | 13km/h | 21106m | 4.0m/s | -53.6°C | 1.4% | 0hPa | 2.6V | 00:00:00 | 00:00:00 | 00:00:00 | |
| PETON7-10 | 2026-09-01 01:19:33 | 48.28145 | 17.47357 | 74° | 13km/h | 21081m | 4.0m/s | -53.5°C | 4.3% | 0hPa | 2.6V | 00:00:00 | 00:00:00 | 08:30:00 | |
| OE5DRO-10 | 2026-09-01 01:19:32 | 48.28144 | 17.47352 | 80° | 15km/h | 21076m | 4.4m/s | -53.5°C | 4.3% | 0hPa | 2.6V | 00:00:00 | 00:00:00 | 00:00:00 | |
| HA6NAB-11 | 2026-09-01 01:19:31 | 48.28144 | 17.47352 | 80° | 15km/h | 21076m | 4.5m/s | -53.5°C | 1.4% | 0hPa | 2.7V | 00:00:00 | 00:00:00 | 00:00:00 | |
| OE5MMP-10 | 2026-09-01 01:19:28 | 48.28140 | 17.47325 | 87° | 11km/h | 21053m | 6.0m/s | -53.4°C | 4.3% | 0hPa | 2.7V | 00:00:00 | 01:19:08 | 00:00:00 | |
| HA6NAB-11 | 2026-09-01 01:19:26 | 48.28140 | 17.47316 | 66° | 11km/h | 21043m | 3.9m/s | -53.4°C | 1.4% | 0hPa | 2.7V | 00:00:00 | 00:00:00 | 00:00:00 | |
| OE5DXL-15 | 2026-09-01 01:19:25 | 48.28138 | 17.47312 | 50° | 16km/h | 21038m | 6.9m/s | -53.4°C | 4.2% | 0hPa | 2.7V | 00:00:00 | 00:00:00 | 00:00:00 | |
| OE3JTB-15 | 2026-09-01 01:19:24 | 48.28136 | 17.47310 | 28° | 16km/h | 21032m | 4.7m/s | -53.4°C | 4.2% | 0hPa | 2.7V | 00:00:00 | 00:00:00 | 08:30:00 | |
| PG1ADW-2 | 2026-09-01 01:19:22 | 48.28132 | 17.47308 | 26° | 15km/h | 21021m | 4.5m/s | -53.3°C | 4.2% | 0hPa | 2.6V | 00:00:00 | 00:00:00 | 00:00:00 | |
| PETON7-10 | 2026-09-01 01:19:18 | 48.28123 | 17.47293 | 65° | 15km/h | 21001m | 4.0m/s | -53.4°C | 4.2% | 0hPa | 2.6V | 00:00:00 | 00:00:00 | 00:00:00 | |
| OE5DRO-10 | 2026-09-01 01:19:13 | 48.28115 | 17.47265 | 45° | 18km/h | 20977m | 5.1m/s | -53.4°C | 4.2% | 0hPa | 2.6V | 00:00:00 | 00:00:00 | 00:00:00 | |
| OE5MMP-10 | 2026-09-01 01:19:08 | 48.28099 | 17.47249 | 14° | 18km/h | 20948m | 5.1m/s | -53.7°C | 4.3% | 0hPa | 2.6V | 00:00:00 | 01:18:48 | 00:00:00 | |
| PETON7-10 | 2026-09-01 01:19:03 | 48.28086 | 17.47238 | 53° | 20km/h | 20923m | 4.1m/s | -53.7°C | 4.2% | 0hPa | 2.6V | 00:00:00 | 01:18:43 | 00:00:00 | |
| OE3OSB-13 | 2026-09-01 01:18:56 | 48.28060 | 17.47190 | 33° | 22km/h | 20887m | 7.0m/s | -54.0°C | 1.3% | -1.0hPa | 2.6V | 00:00:00 | 00:00:00 | 00:00:00 | |
| OE5DXL-15 | 2026-09-01 01:18:55 | 48.28055 | 17.47186 | 21° | 18km/h | 20882m | 4.5m/s | -54.0°C | 4.3% | 0hPa | 2.6V | 00:00:00 | 00:00:00 | 08:30:00 | |
| OE5DRO-10 | 2026-09-01 01:18:54 | 48.28049 | 17.47183 | 23° | 20km/h | 20877m | 4.6m/s | -54.1°C | 4.3% | 0hPa | 2.7V | 00:00:00 | 00:00:00 | 00:00:00 | |
| OE5MMP-10 | 2026-09-01 01:18:48 | 48.28027 | 17.47164 | 28° | 20km/h | 20846m | 4.7m/s | -54.3°C | 4.4% | 0hPa | 2.7V | 00:00:00 | 01:18:28 | 00:00:00 | |
| PETON7-10 | 2026-09-01 01:18:47 | 48.28023 | 17.47162 | 26° | 20km/h | 20840m | 5.3m/s | -54.3°C | 4.4% | 0hPa | 2.7V | 00:00:00 | 00:00:00 | 00:00:00 | |
| PG1ADW-2 | 2026-09-01 01:18:42 | 48.28004 | 17.47145 | 30° | 18km/h | 20814m | 4.4m/s | -54.4°C | 4.4% | 0hPa | 2.6V | 00:00:00 | 00:00:00 | 00:00:00 | |
| GYPAP8-17 | 2026-09-01 01:18:40 | 48.27999 | 17.47139 | 39° | 27km/h | 20810m | 3.4m/s | 0°C | 0% | 0hPa | 2.6V | 00:00:00 | 00:00:00 | 00:00:00 | |
| OE5MMP-10 | 2026-09-01 01:18:38 | 48.27985 | 17.47120 | 39° | 18km/h | 20795m | 3.5m/s | -54.5°C | 4.4% | 0hPa | 2.6V | 00:00:00 | 01:18:18 | 00:00:00 | |
| OE5DRO-10 | 2026-09-01 01:18:35 | 48.27972 | 17.47106 | 31° | 15km/h | 20779m | 4.8m/s | -54.6°C | 4.5% | 0hPa | 2.7V | 00:00:00 | 00:00:00 | 08:30:00 | |
| PETON7-10 | 2026-09-01 01:18:32 | 48.27964 | 17.47097 | 35° | 13km/h | 20762m | 4.0m/s | -54.7°C | 4.5% | 0hPa | 2.6V | 00:00:00 | 00:00:00 | 00:00:00 | |
| OE5MMP-10 | 2026-09-01 01:18:28 | 48.27948 | 17.47086 | 24° | 13km/h | 20742m | 4.1m/s | -54.8°C | 4.5% | 0hPa | 2.6V | 00:00:00 | 01:18:08 | 00:00:00 | |
| OE5DXL-15 | 2026-09-01 01:18:25 | 48.27936 | 17.47078 | 25° | 9km/h | 20725m | 4.1m/s | -54.8°C | 4.6% | 0hPa | 2.6V | 00:00:00 | 00:00:00 | 00:00:00 | |
| S52SK | 2026-09-01 01:18:24 | 48.27936 | 17.47078 | 25° | 13km/h | 20725m | 4.1m/s | -54.9°C | 1.5% | 0hPa | 2.6V | 00:00:00 | 00:00:00 | 00:00:00 | |
| PG1ADW-2 | 2026-09-01 01:18:22 | 48.27926 | 17.47075 | 359° | 9km/h | 20710m | 4.7m/s | -54.8°C | 4.6% | 0hPa | 2.6V | 00:00:00 | 00:00:00 | 00:00:00 | |
| OE5MMP-10 | 2026-09-01 01:18:18 | 48.27919 | 17.47079 | 319° | 11km/h | 20688m | 5.8m/s | -54.7°C | 4.6% | 0hPa | 2.6V | 00:00:00 | 01:17:58 | 00:00:00 | |
| PETON7-10 | 2026-09-01 01:18:17 | 48.27917 | 17.47081 | 332° | 9km/h | 20682m | 5.7m/s | -54.7°C | 4.5% | 0hPa | 2.6V | 00:00:00 | 01:17:57 | 00:00:00 | |
| OE5DRO-10 | 2026-09-01 01:18:16 | 48.27914 | 17.47083 | 346° | 9km/h | 20677m | 4.5m/s | -54.6°C | 4.6% | 0hPa | 2.6V | 00:00:00 | 00:00:00 | 00:00:00 | |
| OE5MMP-10 | 2026-09-01 01:18:08 | 48.27893 | 17.47090 | 319° | 7km/h | 20632m | 5.8m/s | -54.5°C | 4.5% | 0hPa | 2.6V | 00:00:00 | 01:17:48 | 08:30:00 | |
| OE3OSB-13 | 2026-09-01 01:17:54 | 48.27886 | 17.47119 | 339° | 4km/h | 20554m | 6.0m/s | -54.3°C | 1.4% | -1.0hPa | 2.7V | 00:00:00 | 00:00:00 | 00:00:00 | |
| OE3JTB-15 | 2026-09-01 01:17:53 | 48.27885 | 17.47120 | 329° | 13km/h | 20548m | 6.1m/s | -54.2°C | 4.4% | 0hPa | 2.7V | 00:00:00 | 00:00:00 | 00:00:00 | |
| OE5MMP-10 | 2026-09-01 01:17:48 | 48.27883 | 17.47125 | 109° | 5km/h | 20522m | 4.3m/s | -54.2°C | 4.4% | 0hPa | 2.6V | 00:00:00 | 01:17:28 | 00:00:00 | |
| PETON7-10 | 2026-09-01 01:17:47 | 48.27883 | 17.47124 | 79° | 7km/h | 20516m | 5.8m/s | -54.2°C | 4.4% | 0hPa | 2.6V | 00:00:00 | 00:00:00 | 00:00:00 | |
| PG1ADW-2 | 2026-09-01 01:17:42 | 48.27878 | 17.47117 | 52° | 11km/h | 20488m | 4.1m/s | -54.1°C | 4.4% | 0hPa | 2.6V | 00:00:00 | 01:17:22 | 00:00:00 | |
| OE5MMP-10 | 2026-09-01 01:17:38 | 48.27873 | 17.47110 | 57° | 11km/h | 20464m | 7.0m/s | -54.1°C | 4.4% | 0hPa | 2.6V | 00:00:00 | 01:17:18 | 00:00:00 | |
| HA6NAB-11 | 2026-09-01 01:17:37 | 48.27872 | 17.47110 | 58° | 5km/h | 20464m | 7.0m/s | -54.1°C | 1.5% | 0hPa | 2.6V | 00:00:00 | 00:00:00 | 00:00:00 | |
| PETON7-10 | 2026-09-01 01:17:32 | 48.27868 | 17.47088 | 82° | 16km/h | 20429m | 6.9m/s | -54.2°C | 4.4% | 0hPa | 2.6V | 00:00:00 | 01:17:12 | 00:00:00 | |
| GYPAP8-17 | 2026-09-01 01:17:31 | 48.27868 | 17.47088 | 82° | 13km/h | 20429m | 6.9m/s | 0°C | 0% | 0hPa | 2.6V | 00:00:00 | 00:00:00 | 00:00:00 | |
| OE5MMP-10 | 2026-09-01 01:17:28 | 48.27864 | 17.47070 | 65° | 16km/h | 20406m | 4.3m/s | -54.2°C | 4.4% | 0hPa | 2.6V | 00:00:00 | 01:17:08 | 00:00:00 | |
| OE5DXL-15 | 2026-09-01 01:17:25 | 48.27862 | 17.47053 | 89° | 20km/h | 20389m | 4.2m/s | -54.3°C | 4.5% | 0hPa | 2.6V | 00:00:00 | 00:00:00 | 00:00:00 | |
| OE3OSB-13 | 2026-09-01 01:17:23 | 48.27860 | 17.47042 | 60° | 16km/h | 20378m | 5.6m/s | -54.4°C | 1.3% | -1.0hPa | 2.7V | 00:00:00 | 00:00:00 | 00:00:00 | |
| PG1ADW-2 | 2026-09-01 01:17:22 | 48.27857 | 17.47036 | 63° | 22km/h | 20373m | 5.1m/s | -54.3°C | 4.4% | 0hPa | 2.7V | 00:00:00 | 00:00:00 | 00:00:00 | |
| OE5DRO-10 | 2026-09-01 01:17:19 | 48.27852 | 17.47016 | 60° | 22km/h | 20355m | 4.9m/s | -54.2°C | 4.4% | 0hPa | 2.7V | 00:00:00 | 00:00:00 | 00:00:00 | |
| OE5MMP-10 | 2026-09-01 01:17:18 | 48.27849 | 17.47008 | 55° | 24km/h | 20349m | 6.9m/s | -54.2°C | 4.4% | 0hPa | 2.7V | 00:00:00 | 01:16:58 | 00:00:00 | |
| PETON7-10 | 2026-09-01 01:17:17 | 48.27845 | 17.47001 | 53° | 22km/h | 20343m | 5.4m/s | -54.2°C | 4.4% | 0hPa | 2.7V | 00:00:00 | 00:00:00 | 08:30:00 | |
| GYPAP8-17 | 2026-09-01 01:17:11 | 48.27828 | 17.46964 | 51° | 24km/h | 20314m | 5.8m/s | 0°C | 0% | 0hPa | 2.6V | 00:00:00 | 00:00:00 | 00:00:00 | |
| S52SK | 2026-09-01 01:17:10 | 48.27824 | 17.46956 | 54° | 24km/h | 20309m | 5.3m/s | -54.5°C | 1.5% | 0hPa | 2.6V | 00:00:00 | 00:00:00 | 00:00:00 | |
| OE5MMP-10 | 2026-09-01 01:17:08 | 48.27817 | 17.46935 | 63° | 18km/h | 20291m | 5.1m/s | -54.5°C | 4.5% | 0hPa | 2.6V | 00:00:00 | 01:16:48 | 00:00:00 | |
| S52SK | 2026-09-01 01:17:04 | 48.27808 | 17.46916 | 63° | 22km/h | 20275m | 6.3m/s | -54.5°C | 1.5% | 0hPa | 2.6V | 00:00:00 | 00:00:00 | 00:00:00 | |
| OE3OSB-13 | 2026-09-01 01:16:52 | 48.27764 | 17.46860 | 48° | 16km/h | 20199m | 6.1m/s | -54.3°C | 1.3% | -1.0hPa | 2.6V | 00:00:00 | 00:00:00 | 00:00:00 | |
| HA6NAB-11 | 2026-09-01 01:16:51 | 48.27764 | 17.46860 | 49° | 16km/h | 20199m | 6.1m/s | -54.3°C | 1.5% | 0hPa | 2.6V | 00:00:00 | 00:00:00 | 00:00:00 | |
| OE3JTB-15 | 2026-09-01 01:16:50 | 48.27756 | 17.46851 | 30° | 38km/h | 20188m | 6.2m/s | -54.3°C | 4.4% | 0hPa | 2.6V | 00:00:00 | 01:16:30 | 00:00:00 | |
| PETON7-10 | 2026-09-01 01:16:47 | 48.27743 | 17.46846 | 355° | 9km/h | 20171m | 7.1m/s | -54.2°C | 4.4% | 0hPa | 2.6V | 00:00:00 | 01:16:27 | 00:00:00 | |
| OE5MMP-10 | 2026-09-01 01:16:46 | 48.27740 | 17.46847 | 349° | 9km/h | 20165m | 5.2m/s | -54.2°C | 4.4% | 0hPa | 2.6V | 00:00:00 | 01:16:26 | 00:00:00 | |
| HA6NAB-11 | 2026-09-01 01:16:45 | 48.27740 | 17.46847 | 350° | 11km/h | 20165m | 5.3m/s | -54.3°C | 1.5% | 0hPa | 2.6V | 00:00:00 | 00:00:00 | 00:00:00 | |
| PG1ADW-2 | 2026-09-01 01:16:42 | 48.27732 | 17.46846 | 27° | 13km/h | 20143m | 6.5m/s | -54.2°C | 4.3% | 0hPa | 2.6V | 00:00:00 | 00:00:00 | 08:30:00 | |
| OE5DRO-10 | 2026-09-01 01:16:41 | 48.27730 | 17.46845 | 25° | 13km/h | 20137m | 5.5m/s | -54.2°C | 4.3% | 0hPa | 2.7V | 00:00:00 | 00:00:00 | 00:00:00 | |
| HA6NAB-11 | 2026-09-01 01:16:39 | 48.27729 | 17.46844 | 25° | 9km/h | 20132m | 3.7m/s | -54.3°C | 1.4% | 0hPa | 2.6V | 00:00:00 | 00:00:00 | 00:00:00 | |
| OE5MMP-10 | 2026-09-01 01:16:36 | 48.27717 | 17.46839 | 11° | 11km/h | 20109m | 6.6m/s | -54.4°C | 4.4% | 0hPa | 2.6V | 00:00:00 | 01:16:16 | 00:00:00 | |
| HA6NAB-11 | 2026-09-01 01:16:33 | 48.27712 | 17.46839 | 354° | 9km/h | 20098m | 4.1m/s | -54.5°C | 1.5% | 0hPa | 2.6V | 00:00:00 | 00:00:00 | 00:00:00 | |
| PETON7-10 | 2026-09-01 01:16:32 | 48.27707 | 17.46839 | 5° | 18km/h | 20088m | 6.6m/s | -54.5°C | 4.4% | 0hPa | 2.6V | 00:00:00 | 00:00:00 | 00:00:00 | |
| HA6NAB-11 | 2026-09-01 01:16:27 | 48.27698 | 17.46836 | 34° | 11km/h | 20065m | 3.9m/s | -54.8°C | 1.5% | 0hPa | 2.6V | 00:00:00 | 00:00:00 | 00:00:00 | |
| OE5MMP-10 | 2026-09-01 01:16:26 | 48.27692 | 17.46830 | 33° | 22km/h | 20052m | 5.8m/s | -54.8°C | 4.6% | 0hPa | 2.6V | 00:00:00 | 01:16:06 | 08:30:00 | |
| OE5DXL-15 | 2026-09-01 01:16:25 | 48.27687 | 17.46826 | 36° | 20km/h | 20047m | 5.2m/s | -54.8°C | 4.6% | 0hPa | 2.7V | 00:00:00 | 00:00:00 | 00:00:00 | |
| PG1ADW-2 | 2026-09-01 01:16:22 | 48.27674 | 17.46811 | 37° | 22km/h | 20031m | 3.8m/s | -54.7°C | 4.5% | 0hPa | 2.7V | 00:00:00 | 01:16:02 | 00:00:00 | |
| OE3OSB-13 | 2026-09-01 01:16:21 | 48.27668 | 17.46806 | 29° | 26km/h | 20025m | 6.6m/s | -54.7°C | 1.4% | -1.0hPa | 2.7V | 00:00:00 | 00:00:00 | 00:00:00 | |
| PETON7-10 | 2026-09-01 01:16:17 | 48.27646 | 17.46793 | 19° | 22km/h | 20001m | 5.0m/s | -54.6°C | 4.6% | 0hPa | 2.7V | 00:00:00 | 00:00:00 | 00:00:00 | |
| OE5MMP-10 | 2026-09-01 01:16:16 | 48.27642 | 17.46790 | 24° | 22km/h | 19997m | 3.6m/s | -54.5°C | 4.5% | 0hPa | 2.7V | 00:00:00 | 01:15:56 | 00:00:00 | |
| OE5MMP-10 | 2026-09-01 01:16:06 | 48.27593 | 17.46750 | 12° | 18km/h | 19946m | 4.3m/s | -54.3°C | 4.4% | 0hPa | 2.7V | 00:00:00 | 01:15:46 | 00:00:00 | |
| S52SK | 2026-09-01 01:16:04 | 48.27587 | 17.46749 | 3° | 24km/h | 19941m | 5.0m/s | -54.3°C | 1.5% | 0hPa | 2.7V | 00:00:00 | 00:00:00 | 00:00:00 | |
| OE5DRO-10 | 2026-09-01 01:16:03 | 48.27576 | 17.46747 | 18° | 16km/h | 19931m | 5.4m/s | -54.2°C | 4.4% | 0hPa | 2.7V | 00:00:00 | 00:00:00 | 00:00:00 | |
| OE3OSB-13 | 2026-09-01 01:15:50 | 48.27520 | 17.46729 | 10° | 15km/h | 19856m | 4.1m/s | -54.7°C | 1.3% | -1.0hPa | 2.7V | 00:00:00 | 00:00:00 | 00:00:00 | |
| PETON7-10 | 2026-09-01 01:15:47 | 48.27514 | 17.46729 | 349° | 7km/h | 19845m | 5.4m/s | -54.6°C | 4.5% | 0hPa | 2.7V | 00:00:00 | 00:00:00 | 00:00:00 | |
| OE5MMP-10 | 2026-09-01 01:15:46 | 48.27512 | 17.46729 | 11° | 7km/h | 19840m | 3.8m/s | -54.6°C | 4.6% | 0hPa | 2.6V | 00:00:00 | 01:15:26 | 00:00:00 | |
| OE5DRO-10 | 2026-09-01 01:15:44 | 48.27507 | 17.46726 | 26° | 7km/h | 19829m | 5.0m/s | -54.6°C | 4.6% | 0hPa | 2.6V | 00:00:00 | 00:00:00 | 08:30:00 | |
| PG1ADW-2 | 2026-09-01 01:15:42 | 48.27503 | 17.46725 | 350° | 9km/h | 19818m | 6.4m/s | -54.6°C | 4.5% | 0hPa | 2.6V | 00:00:00 | 00:00:00 | 00:00:00 | |
| HA6NAB-11 | 2026-09-01 01:15:40 | 48.27501 | 17.46725 | 359° | 7km/h | 19813m | 3.6m/s | -54.6°C | 1.5% | 0hPa | 2.6V | 00:00:00 | 00:00:00 | 00:00:00 | |
| OE5MMP-10 | 2026-09-01 01:15:36 | 48.27497 | 17.46719 | 42° | 9km/h | 19787m | 4.4m/s | -54.4°C | 4.5% | 0hPa | 2.6V | 00:00:00 | 01:15:16 | 00:00:00 | |
| HA6NAB-11 | 2026-09-01 01:15:34 | 48.27496 | 17.46718 | 43° | 7km/h | 19782m | 4.7m/s | -54.5°C | 1.5% | 0hPa | 2.6V | 00:00:00 | 00:00:00 | 00:00:00 | |
| PETON7-10 | 2026-09-01 01:15:32 | 48.27491 | 17.46710 | 51° | 11km/h | 19766m | 6.2m/s | -54.3°C | 4.5% | 0hPa | 2.6V | 00:00:00 | 00:00:00 | 00:00:00 | |
| HA6NAB-11 | 2026-09-01 01:15:28 | 48.27489 | 17.46702 | 52° | 11km/h | 19750m | 6.4m/s | -54.3°C | 1.5% | 0hPa | 2.6V | 00:00:00 | 00:00:00 | 00:00:00 | |
| OE5MMP-10 | 2026-09-01 01:15:26 | 48.27482 | 17.46693 | 35° | 13km/h | 19736m | 5.9m/s | -54.1°C | 4.5% | 0hPa | 2.6V | 00:00:00 | 01:15:06 | 00:00:00 | |
| OE5DXL-15 | 2026-09-01 01:15:25 | 48.27480 | 17.46692 | 24° | 20km/h | 19730m | 4.7m/s | -54.1°C | 4.5% | 0hPa | 2.7V | 00:00:00 | 00:00:00 | 00:00:00 | |
| HA6NAB-11 | 2026-09-01 01:15:23 | 48.27478 | 17.46690 | 19° | 11km/h | 19725m | 4.7m/s | -54.1°C | 1.5% | 0hPa | 2.7V | 00:00:00 | 00:00:00 | 00:00:00 | |
| PG1ADW-2 | 2026-09-01 01:15:22 | 48.27472 | 17.46686 | 31° | 16km/h | 19715m | 4.7m/s | -54.0°C | 4.4% | 0hPa | 2.7V | 00:00:00 | 00:00:00 | 00:00:00 | |
| HA6NAB-11 | 2026-09-01 01:15:18 | 48.27464 | 17.46676 | 53° | 16km/h | 19699m | 3.7m/s | -53.9°C | 1.5% | 0hPa | 2.7V | 00:00:00 | 00:00:00 | 00:00:00 | |
| PETON7-10 | 2026-09-01 01:15:17 | 48.27458 | 17.46665 | 54° | 18km/h | 19690m | 4.8m/s | -53.8°C | 4.3% | 0hPa | 2.7V | 00:00:00 | 01:14:57 | 00:00:00 | |
| OE5MMP-10 | 2026-09-01 01:15:16 | 48.27455 | 17.46658 | 53° | 16km/h | 19686m | 4.1m/s | -53.8°C | 4.3% | 0hPa | 2.7V | 00:00:00 | 01:14:56 | 00:00:00 | |
| HA6NAB-11 | 2026-09-01 01:15:12 | 48.27446 | 17.46645 | 33° | 15km/h | 19671m | 4.0m/s | -53.8°C | 1.5% | 0hPa | 2.7V | 00:00:00 | 00:00:00 | 00:00:00 | |
| OE5MMP-10 | 2026-09-01 01:15:06 | 48.27419 | 17.46628 | 31° | 26km/h | 19635m | 5.0m/s | -53.9°C | 4.3% | 0hPa | 2.7V | 00:00:00 | 01:14:46 | 00:00:00 | |
| OE3OSB-13 | 2026-09-01 01:14:48 | 48.27325 | 17.46489 | 36° | 27km/h | 19533m | 3.8m/s | -54.0°C | 1.3% | -1.0hPa | 2.7V | 00:00:00 | 00:00:00 | 00:00:00 | |
| OE5DRO-10 | 2026-09-01 01:14:47 | 48.27335 | 17.46504 | 57° | 24km/h | 19543m | 5.6m/s | -54.0°C | 4.4% | 0hPa | 2.7V | 00:00:00 | 00:00:00 | 00:00:00 | |
| OE5MMP-10 | 2026-09-01 01:14:46 | 48.27330 | 17.46496 | 47° | 24km/h | 19538m | 5.4m/s | -54.0°C | 4.4% | 0hPa | 2.6V | 00:00:00 | 01:14:26 | 00:00:00 | |
| PG1ADW-2 | 2026-09-01 01:14:42 | 48.27310 | 17.46473 | 44° | 22km/h | 19521m | 3.7m/s | -53.9°C | 4.4% | 0hPa | 2.6V | 00:00:00 | 00:00:00 | 00:00:00 | |
| HA6NAB-11 | 2026-09-01 01:14:37 | 48.27295 | 17.46443 | 64° | 22km/h | 19502m | 5.7m/s | -53.9°C | 1.5% | 0hPa | 2.6V | 00:00:00 | 00:00:00 | 00:00:00 | |
| OE5MMP-10 | 2026-09-01 01:14:36 | 48.27290 | 17.46430 | 48° | 24km/h | 19492m | 3.8m/s | -53.8°C | 4.3% | 0hPa | 2.6V | 00:00:00 | 01:14:16 | 00:00:00 | |
| PETON7-10 | 2026-09-01 01:14:32 | 48.27273 | 17.46404 | 52° | 20km/h | 19474m | 4.2m/s | -53.9°C | 4.2% | 0hPa | 2.6V | 00:00:00 | 01:14:12 | 00:00:00 | |
| HA6NAB-11 | 2026-09-01 01:14:31 | 48.27272 | 17.46404 | 53° | 26km/h | 19474m | 4.3m/s | -53.9°C | 1.4% | 0hPa | 2.6V | 00:00:00 | 00:00:00 | 00:00:00 | |
| OE5DRO-10 | 2026-09-01 01:14:28 | 48.27257 | 17.46379 | 52° | 18km/h | 19456m | 4.9m/s | -54.0°C | 4.3% | 0hPa | 2.6V | 00:00:00 | 00:00:00 | 00:00:00 | |
| OE5MMP-10 | 2026-09-01 01:14:26 | 48.27251 | 17.46365 | 55° | 18km/h | 19446m | 4.2m/s | -54.0°C | 4.3% | 0hPa | 2.6V | 00:00:00 | 01:14:06 | 00:00:00 | |
| OE5DXL-15 | 2026-09-01 01:14:25 | 48.27247 | 17.46358 | 47° | 20km/h | 19441m | 4.6m/s | -54.0°C | 4.3% | 0hPa | 2.6V | 00:00:00 | 00:00:00 | 08:30:00 | |
| PG1ADW-2 | 2026-09-01 01:14:22 | 48.27236 | 17.46345 | 39° | 18km/h | 19426m | 4.0m/s | -53.9°C | 4.3% | 0hPa | 2.6V | 00:00:00 | 00:00:00 | 00:00:00 | |
| HA6NAB-11 | 2026-09-01 01:14:19 | 48.27229 | 17.46334 | 52° | 20km/h | 19416m | 3.8m/s | -54.0°C | 1.4% | 0hPa | 2.6V | 00:00:00 | 00:00:00 | 00:00:00 | |
| OE3OSB-13 | 2026-09-01 01:14:17 | 48.27217 | 17.46317 | 40° | 15km/h | 19396m | 5.3m/s | -54.0°C | 1.3% | -1.0hPa | 2.6V | 00:00:00 | 00:00:00 | 00:00:00 | |
| OE5MMP-10 | 2026-09-01 01:14:16 | 48.27217 | 17.46317 | 41° | 18km/h | 19396m | 5.2m/s | -54.0°C | 4.3% | 0hPa | 2.6V | 00:00:00 | 01:13:56 | 00:00:00 | |
| HA6NAB-11 | 2026-09-01 01:14:13 | 48.27210 | 17.46308 | 40° | 18km/h | 19386m | 3.0m/s | -54.1°C | 1.5% | 0hPa | 2.6V | 00:00:00 | 00:00:00 | 00:00:00 | |
| OE5DRO-10 | 2026-09-01 01:14:09 | 48.27189 | 17.46293 | 30° | 18km/h | 19362m | 5.4m/s | -54.0°C | 4.4% | 0hPa | 2.6V | 00:00:00 | 00:00:00 | 00:00:00 | |
| HA6NAB-11 | 2026-09-01 01:14:07 | 48.27185 | 17.46290 | 32° | 20km/h | 19358m | 2.7m/s | -54.1°C | 1.5% | 0hPa | 2.6V | 00:00:00 | 00:00:00 | 00:00:00 | |
| OE5MMP-10 | 2026-09-01 01:14:06 | 48.27176 | 17.46282 | 29° | 22km/h | 19349m | 5.6m/s | -54.0°C | 4.3% | 0hPa | 2.6V | 00:00:00 | 01:13:46 | 00:00:00 | |
| OE3OSB-13 | 2026-09-01 01:13:46 | 48.27097 | 17.46208 | 40° | 11km/h | 19244m | 4.8m/s | -54.1°C | 1.3% | -1.0hPa | 2.6V | 00:00:00 | 00:00:00 | 00:00:00 | |
| S52SK | 2026-09-01 01:13:44 | 48.27097 | 17.46208 | 42° | 11km/h | 19244m | 4.8m/s | -54.1°C | 1.5% | 0hPa | 2.6V | 00:00:00 | 00:00:00 | 00:00:00 | |
| PG1ADW-2 | 2026-09-01 01:13:42 | 48.27089 | 17.46203 | 6° | 15km/h | 19229m | 3.4m/s | -54.0°C | 4.4% | 0hPa | 2.6V | 00:00:00 | 01:13:22 | 08:30:00 | |
| OE5MMP-10 | 2026-09-01 01:13:36 | 48.27067 | 17.46201 | 353° | 15km/h | 19201m | 4.8m/s | -53.8°C | 4.3% | 0hPa | 2.6V | 00:00:00 | 01:13:16 | 00:00:00 | |
| PETON7-10 | 2026-09-01 01:13:32 | 48.27053 | 17.46201 | 354° | 11km/h | 19181m | 5.9m/s | -53.7°C | 4.3% | 0hPa | 2.6V | 00:00:00 | 00:00:00 | 00:00:00 | |
| OE5DRO-10 | 2026-09-01 01:13:31 | 48.27051 | 17.46201 | 2° | 13km/h | 19176m | 4.3m/s | -53.6°C | 4.2% | 0hPa | 2.6V | 00:00:00 | 00:00:00 | 00:00:00 | |
| OE5MMP-10 | 2026-09-01 01:13:26 | 48.27033 | 17.46186 | 13° | 9km/h | 19149m | 5.9m/s | -53.8°C | 4.2% | 0hPa | 2.6V | 00:00:00 | 01:13:06 | 08:30:00 | |
| OE5DXL-15 | 2026-09-01 01:13:25 | 48.27029 | 17.46185 | 9° | 13km/h | 19144m | 3.6m/s | -53.8°C | 4.2% | 0hPa | 2.6V | 00:00:00 | 00:00:00 | 00:00:00 | |
| PG1ADW-2 | 2026-09-01 01:13:22 | 48.27022 | 17.46183 | 335° | 11km/h | 19128m | 5.3m/s | -53.9°C | 4.2% | 0hPa | 2.6V | 00:00:00 | 00:00:00 | 00:00:00 | |
| HA6NAB-11 | 2026-09-01 01:13:21 | 48.27022 | 17.46183 | 336° | 4km/h | 19128m | 5.3m/s | -54.0°C | 1.4% | 0hPa | 2.6V | 00:00:00 | 00:00:00 | 00:00:00 | |
| PETON7-10 | 2026-09-01 01:13:17 | 48.27019 | 17.46186 | 78° | 15km/h | 19104m | 5.1m/s | -54.0°C | 4.2% | 0hPa | 2.6V | 00:00:00 | 00:00:00 | 00:00:00 | |
| OE5MMP-10 | 2026-09-01 01:13:16 | 48.27017 | 17.46181 | 63° | 15km/h | 19098m | 4.9m/s | -54.0°C | 4.2% | 0hPa | 2.6V | 00:00:00 | 01:12:56 | 00:00:00 | |
| HA6NAB-11 | 2026-09-01 01:13:15 | 48.27018 | 17.46181 | 63° | 15km/h | 19098m | 4.9m/s | -54.1°C | 1.4% | 0hPa | 2.6V | 00:00:00 | 00:00:00 | 00:00:00 | |
| OE3OSB-13 | 2026-09-01 01:13:14 | 48.27012 | 17.46172 | 42° | 16km/h | 19086m | 4.4m/s | -54.1°C | 1.3% | -1.0hPa | 2.6V | 00:00:00 | 00:00:00 | 00:00:00 | |
| OE5DRO-10 | 2026-09-01 01:13:12 | 48.27006 | 17.46161 | 53° | 16km/h | 19077m | 5.5m/s | -54.2°C | 4.2% | 0hPa | 2.6V | 00:00:00 | 00:00:00 | 00:00:00 | |
| HA6NAB-11 | 2026-09-01 01:13:10 | 48.27003 | 17.46155 | 61° | 18km/h | 19072m | 5.1m/s | -54.4°C | 1.5% | 0hPa | 2.6V | 00:00:00 | 00:00:00 | 00:00:00 | |
| OE5MMP-10 | 2026-09-01 01:13:06 | 48.26995 | 17.46142 | 67° | 18km/h | 19047m | 5.2m/s | -54.6°C | 4.4% | 0hPa | 2.6V | 00:00:00 | 01:12:46 | 00:00:00 | |
| HA6NAB-11 | 2026-09-01 01:13:04 | 48.26993 | 17.46138 | 64° | 13km/h | 19042m | 4.1m/s | -54.6°C | 1.5% | 0hPa | 2.6V | 00:00:00 | 00:00:00 | 00:00:00 | |
| PG1ADW-2 | 2026-09-01 01:13:02 | 48.26986 | 17.46125 | 40° | 22km/h | 19028m | 4.4m/s | -54.7°C | 4.5% | 0hPa | 2.6V | 00:00:00 | 00:00:00 | 00:00:00 | |
| PETON7-10 | 2026-09-01 01:13:01 | 48.26982 | 17.46120 | 46° | 24km/h | 19023m | 4.5m/s | -54.8°C | 4.5% | 0hPa | 2.6V | 00:00:00 | 01:12:41 | 00:00:00 | |
| OE5MMP-10 | 2026-09-01 01:12:56 | 48.26964 | 17.46091 | 40° | 24km/h | 18997m | 4.1m/s | -55.0°C | 4.6% | 0hPa | 2.6V | 00:00:00 | 01:12:36 | 00:00:00 | |
| OE5DXL-15 | 2026-09-01 01:12:55 | 48.26960 | 17.46085 | 44° | 20km/h | 18991m | 6.1m/s | -55.0°C | 4.6% | 0hPa | 2.6V | 00:00:00 | 00:00:00 | 00:00:00 | |
| OE5DRO-10 | 2026-09-01 01:12:53 | 48.26951 | 17.46073 | 44° | 20km/h | 18981m | 4.5m/s | -55.0°C | 4.6% | 0hPa | 2.7V | 00:00:00 | 00:00:00 | 08:30:00 | |
| PETON7-10 | 2026-09-01 01:12:46 | 48.26915 | 17.46044 | 24° | 20km/h | 18944m | 6.1m/s | -54.9°C | 4.6% | 0hPa | 2.7V | 00:00:00 | 00:00:00 | 08:30:00 | |
| OE3OSB-13 | 2026-09-01 01:12:43 | 48.26902 | 17.46032 | 52° | 20km/h | 18930m | 7.2m/s | -54.8°C | -1.0% | -1.0hPa | 2.6V | 00:00:00 | 00:00:00 | 00:00:00 | |
| PG1ADW-2 | 2026-09-01 01:12:42 | 48.26899 | 17.46025 | 61° | 18km/h | 18924m | 4.6m/s | -54.7°C | 4.6% | 0hPa | 2.6V | 00:00:00 | 00:00:00 | 00:00:00 | |
| OE5MMP-10 | 2026-09-01 01:12:36 | 48.26880 | 17.45998 | 40° | 18km/h | 18891m | 6.2m/s | -54.4°C | 4.4% | 0hPa | 2.6V | 00:00:00 | 01:12:16 | 00:00:00 | |
| OE5DRO-10 | 2026-09-01 01:12:34 | 48.26875 | 17.45988 | 60° | 18km/h | 18882m | 4.7m/s | -54.4°C | 4.4% | 0hPa | 2.6V | 00:00:00 | 00:00:00 | 00:00:00 | |
| PETON7-10 | 2026-09-01 01:12:31 | 48.26865 | 17.45967 | 52° | 16km/h | 18866m | 5.1m/s | -54.2°C | 4.4% | 0hPa | 2.6V | 00:00:00 | 00:00:00 | 00:00:00 | |
| HA6NAB-11 | 2026-09-01 01:12:29 | 48.26862 | 17.45961 | 52° | 18km/h | 18860m | 6.9m/s | -54.3°C | 1.5% | 0hPa | 2.6V | 00:00:00 | 00:00:00 | 00:00:00 | |
| OE5MMP-10 | 2026-09-01 01:12:26 | 48.26853 | 17.45946 | 51° | 16km/h | 18839m | 5.2m/s | -54.3°C | 4.3% | 0hPa | 2.6V | 00:00:00 | 01:12:06 | 00:00:00 | |
| OE5DXL-15 | 2026-09-01 01:12:25 | 48.26851 | 17.45941 | 66° | 20km/h | 18835m | 3.5m/s | -54.3°C | 4.3% | 0hPa | 2.6V | 00:00:00 | 00:00:00 | 00:00:00 | |
| HA6NAB-11 | 2026-09-01 01:12:24 | 48.26850 | 17.45936 | 71° | 16km/h | 18830m | 5.1m/s | -54.4°C | 1.5% | 0hPa | 2.6V | 00:00:00 | 00:00:00 | 00:00:00 | |
| PG1ADW-2 | 2026-09-01 01:12:22 | 48.26848 | 17.45923 | 78° | 18km/h | 18818m | 4.8m/s | -54.5°C | 4.4% | 0hPa | 2.6V | 00:00:00 | 01:12:02 | 00:00:00 | |
| HA6NAB-11 | 2026-09-01 01:12:18 | 48.26842 | 17.45908 | 62° | 18km/h | 18802m | 3.7m/s | -54.5°C | 1.5% | 0hPa | 2.6V | 00:00:00 | 00:00:00 | 00:00:00 | |
| OE5MMP-10 | 2026-09-01 01:12:16 | 48.26838 | 17.45887 | 87° | 20km/h | 18785m | 4.9m/s | -54.4°C | 4.4% | 0hPa | 2.6V | 00:00:00 | 01:11:56 | 00:00:00 | |
| OE5DRO-10 | 2026-09-01 01:12:15 | 48.26838 | 17.45879 | 79° | 22km/h | 18779m | 6.6m/s | -54.4°C | 4.5% | 0hPa | 2.6V | 00:00:00 | 00:00:00 | 00:00:00 | |
| GYPAP8-17 | 2026-09-01 01:12:14 | 48.26838 | 17.45879 | 80° | 20km/h | 18779m | 6.7m/s | 0°C | 0% | 0hPa | 2.6V | 00:00:00 | 00:00:00 | 00:00:00 | |
| HA6NAB-11 | 2026-09-01 01:12:12 | 48.26834 | 17.45864 | 73° | 22km/h | 18768m | 3.7m/s | -54.5°C | 1.5% | 0hPa | 2.6V | 00:00:00 | 00:00:00 | 00:00:00 | |
| OE5MMP-10 | 2026-09-01 01:12:06 | 48.26826 | 17.45814 | 81° | 22km/h | 18731m | 4.4m/s | -54.4°C | 4.4% | 0hPa | 2.6V | 00:00:00 | 01:11:46 | 00:00:00 | |
| PETON7-10 | 2026-09-01 01:12:01 | 48.26820 | 17.45780 | 80° | 26km/h | 18705m | 6.1m/s | -54.4°C | 4.4% | 0hPa | 2.6V | 00:00:00 | 00:00:00 | 00:00:00 | |
| HA6NAB-11 | 2026-09-01 01:12:00 | 48.26820 | 17.45779 | 80° | 24km/h | 18705m | 6.1m/s | -54.4°C | 1.5% | 0hPa | 2.6V | 00:00:00 | 00:00:00 | 00:00:00 | |
| OE5MMP-10 | 2026-09-01 01:11:56 | 48.26816 | 17.45728 | 85° | 26km/h | 18679m | 4.3m/s | -54.5°C | 4.4% | 0hPa | 2.6V | 00:00:00 | 01:11:36 | 08:30:00 | |
| OE5DXL-15 | 2026-09-01 01:11:55 | 48.26815 | 17.45717 | 87° | 33km/h | 18674m | 6.0m/s | -54.6°C | 4.4% | 0hPa | 2.6V | 00:00:00 | 00:00:00 | 00:00:00 | |
| PETON7-10 | 2026-09-01 01:11:46 | 48.26822 | 17.45634 | 90° | 35km/h | 18627m | 4.1m/s | -54.5°C | 4.4% | 0hPa | 2.6V | 00:00:00 | 00:00:00 | 00:00:00 | |
| PG1ADW-2 | 2026-09-01 01:11:42 | 48.26824 | 17.45581 | 91° | 37km/h | 18605m | 5.5m/s | -54.6°C | 4.5% | 0hPa | 2.6V | 00:00:00 | 00:00:00 | 00:00:00 | |
| S52SK | 2026-09-01 01:11:39 | 48.26825 | 17.45553 | 94° | 35km/h | 18593m | 4.3m/s | -54.6°C | 1.5% | 0hPa | 2.6V | 00:00:00 | 00:00:00 | 00:00:00 | |
| OE5DRO-10 | 2026-09-01 01:11:37 | 48.26828 | 17.45517 | 98° | 35km/h | 18577m | 5.7m/s | -54.6°C | 4.5% | 0hPa | 2.6V | 00:00:00 | 00:00:00 | 00:00:00 | |
| OE5MMP-10 | 2026-09-01 01:11:36 | 48.26829 | 17.45505 | 96° | 35km/h | 18571m | 5.9m/s | -54.6°C | 4.4% | 0hPa | 2.6V | 00:00:00 | 01:11:16 | 00:00:00 | |
| S52SK | 2026-09-01 01:11:34 | 48.26830 | 17.45494 | 101° | 31km/h | 18566m | 4.8m/s | -54.6°C | 1.6% | 0hPa | 2.6V | 00:00:00 | 00:00:00 | 00:00:00 | |
| PETON7-10 | 2026-09-01 01:11:31 | 48.26833 | 17.45442 | 89° | 37km/h | 18545m | 5.5m/s | -54.5°C | 4.5% | 0hPa | 2.6V | 00:00:00 | 01:11:11 | 00:00:00 | |
| S52SK | 2026-09-01 01:11:28 | 48.26833 | 17.45412 | 95° | 42km/h | 18535m | 6.4m/s | -54.5°C | 1.5% | 0hPa | 2.6V | 00:00:00 | 00:00:00 | 00:00:00 | |
| OE5MMP-10 | 2026-09-01 01:11:26 | 48.26835 | 17.45365 | 89° | 35km/h | 18519m | 6.6m/s | -54.5°C | 4.4% | 0hPa | 2.6V | 00:00:00 | 01:11:06 | 00:00:00 | |
| OE5DXL-15 | 2026-09-01 01:11:25 | 48.26835 | 17.45350 | 86° | 37km/h | 18513m | 4.6m/s | -54.5°C | 4.4% | 0hPa | 2.6V | 00:00:00 | 00:00:00 | 00:00:00 | |
| HA6NAB-11 | 2026-09-01 01:11:24 | 48.26835 | 17.45337 | 93° | 35km/h | 18508m | 4.9m/s | -54.5°C | 1.5% | 0hPa | 2.7V | 00:00:00 | 00:00:00 | 00:00:00 | |
| PG1ADW-2 | 2026-09-01 01:11:22 | 48.26836 | 17.45312 | 95° | 37km/h | 18497m | 4.1m/s | -54.4°C | 4.4% | 0hPa | 2.7V | 00:00:00 | 00:00:00 | 00:00:00 | |
| OE5DRO-10 | 2026-09-01 01:11:18 | 48.26836 | 17.45264 | 95° | 38km/h | 18477m | 6.5m/s | -54.4°C | 4.4% | 0hPa | 2.7V | 00:00:00 | 00:00:00 | 00:00:00 | |
| PETON7-10 | 2026-09-01 01:11:16 | 48.26837 | 17.45238 | 92° | 38km/h | 18467m | 3.9m/s | -54.6°C | 4.5% | 0hPa | 2.7V | 00:00:00 | 00:00:00 | 00:00:00 | |
| OE5MMP-10 | 2026-09-01 01:11:15 | 48.26836 | 17.45222 | 89° | 40km/h | 18461m | 6.8m/s | -54.6°C | 4.5% | 0hPa | 2.7V | 00:00:00 | 01:10:55 | 00:00:00 | |
| HA6NAB-11 | 2026-09-01 01:11:12 | 48.26836 | 17.45188 | 92° | 46km/h | 18450m | 4.3m/s | -54.8°C | 1.6% | 0hPa | 2.7V | 00:00:00 | 00:00:00 | 00:00:00 | |
| HA6NAB-11 | 2026-09-01 01:11:06 | 48.26839 | 17.45096 | 93° | 33km/h | 18420m | 3.8m/s | -54.8°C | 1.6% | 0hPa | 2.7V | 00:00:00 | 00:00:00 | 00:00:00 | |
| OE5MMP-10 | 2026-09-01 01:11:05 | 48.26841 | 17.45071 | 98° | 35km/h | 18410m | 4.3m/s | 0°C | 0% | 0hPa | 2.7V | 00:00:00 | 01:10:45 | 00:00:00 | |
| PG1ADW-2 | 2026-09-01 01:11:02 | 48.26841 | 17.45033 | 87° | 40km/h | 18394m | 4.7m/s | -54.7°C | 4.6% | 0hPa | 2.7V | 00:00:00 | 01:10:42 | 00:00:00 | |
| PETON7-10 | 2026-09-01 01:11:01 | 48.26840 | 17.45021 | 90° | 38km/h | 18389m | 5.7m/s | -54.7°C | 4.5% | 0hPa | 2.7V | 00:00:00 | 00:00:00 | 00:00:00 | |
| OE5DRO-10 | 2026-09-01 01:10:59 | 48.26840 | 17.44993 | 88° | 40km/h | 18379m | 3.8m/s | -54.6°C | 4.5% | 0hPa | 2.7V | 00:00:00 | 00:00:00 | 00:00:00 | |
| HA6NAB-11 | 2026-09-01 01:10:56 | 48.26838 | 17.44947 | 91° | 38km/h | 18364m | 4.5m/s | -54.6°C | 1.5% | 0hPa | 2.7V | 00:00:00 | 00:00:00 | 00:00:00 | |
| OE5MMP-10 | 2026-09-01 01:10:55 | 48.26839 | 17.44933 | 93° | 40km/h | 18358m | 5.9m/s | 0°C | 0% | 0hPa | 2.7V | 00:00:00 | 01:10:35 | 00:00:00 | |
| PETON7-10 | 2026-09-01 01:10:46 | 48.26842 | 17.44798 | 87° | 46km/h | 18313m | 4.1m/s | -54.5°C | 4.5% | 0hPa | 2.7V | 00:00:00 | 01:10:26 | 00:00:00 | |
| OE5MMP-10 | 2026-09-01 01:10:45 | 48.26841 | 17.44782 | 85° | 46km/h | 18309m | 4.5m/s | 0°C | 0% | 0hPa | 2.7V | 00:00:00 | 01:10:25 | 00:00:00 | |
| PG1ADW-2 | 2026-09-01 01:10:42 | 48.26840 | 17.44734 | 89° | 47km/h | 18293m | 5.4m/s | -54.4°C | 4.4% | 0hPa | 2.7V | 00:00:00 | 00:00:00 | 08:30:00 | |
| OE5DRO-10 | 2026-09-01 01:10:40 | 48.26839 | 17.44701 | 85° | 49km/h | 18283m | 4.3m/s | -54.3°C | 4.4% | 0hPa | 2.6V | 00:00:00 | 00:00:00 | 00:00:00 | |
| OE5MMP-10 | 2026-09-01 01:10:35 | 48.26840 | 17.44611 | 90° | 49km/h | 18256m | 4.6m/s | 0°C | 0% | 0hPa | 2.6V | 00:00:00 | 01:10:15 | 00:00:00 | |
| PETON7-10 | 2026-09-01 01:10:31 | 48.26839 | 17.44538 | 84° | 49km/h | 18236m | 4.5m/s | -54.2°C | 4.3% | 0hPa | 2.6V | 00:00:00 | 00:00:00 | 08:30:00 | |
| S52SK | 2026-09-01 01:10:26 | 48.26830 | 17.44464 | 77° | 47km/h | 18215m | 4.7m/s | -54.2°C | 1.5% | 0hPa | 2.7V | 00:00:00 | 00:00:00 | 00:00:00 | |
| OE5MMP-10 | 2026-09-01 01:10:25 | 48.26824 | 17.44428 | 76° | 51km/h | 18205m | 6.1m/s | 0°C | 0% | 0hPa | 2.7V | 00:00:00 | 01:10:05 | 08:30:00 | |
| PG1ADW-2 | 2026-09-01 01:10:22 | 48.26815 | 17.44372 | 80° | 53km/h | 18189m | 5.2m/s | !°C | 4.3% | 0hPa | 2.7V | 00:00:00 | 00:00:00 | 00:00:00 | |
| S52SK | 2026-09-01 01:10:20 | 48.26813 | 17.44354 | 81° | 47km/h | 18185m | 3.6m/s | -54.2°C | 1.6% | 0hPa | 2.7V | 00:00:00 | 00:00:00 | 00:00:00 | |
| PETON7-10 | 2026-09-01 01:10:16 | 48.26797 | 17.44262 | 74° | 55km/h | 18159m | 3.7m/s | -54.2°C | 4.4% | 0hPa | 2.7V | 00:00:00 | 00:00:00 | 00:00:00 | |
| OE5MMP-10 | 2026-09-01 01:10:15 | 48.26794 | 17.44242 | 75° | 57km/h | 18154m | 5.9m/s | 0°C | 0% | 0hPa | 2.7V | 00:00:00 | 01:09:55 | 00:00:00 | |
| HA6NAB-11 | 2026-09-01 01:10:14 | 48.26794 | 17.44242 | 75° | 57km/h | 18154m | 5.9m/s | -54.3°C | 1.5% | 0hPa | 2.7V | 00:00:00 | 00:00:00 | 00:00:00 | |
| HA6NAB-11 | 2026-09-01 01:10:09 | 48.26773 | 17.44142 | 73° | 55km/h | 18129m | 4.9m/s | -54.5°C | 1.6% | 0hPa | 2.7V | 00:00:00 | 00:00:00 | 00:00:00 | |
| OE5MMP-10 | 2026-09-01 01:10:05 | 48.26750 | 17.44042 | 72° | 51km/h | 18104m | 4.7m/s | 0°C | 0% | 0hPa | 2.7V | 00:00:00 | 01:09:45 | 00:00:00 | |
| HA6NAB-11 | 2026-09-01 01:10:03 | 48.26746 | 17.44023 | 72° | 51km/h | 18099m | 4.1m/s | -54.7°C | 1.6% | 0hPa | 2.7V | 00:00:00 | 00:00:00 | 00:00:00 | |
| PG1ADW-2 | 2026-09-01 01:10:02 | 48.26738 | 17.43984 | 74° | 47km/h | 18089m | 3.0m/s | -54.6°C | 4.5% | 0hPa | 2.7V | 00:00:00 | 00:00:00 | 00:00:00 | |
| PETON7-10 | 2026-09-01 01:10:01 | 48.26734 | 17.43966 | 73° | 49km/h | 18085m | 5.5m/s | -54.6°C | 4.5% | 0hPa | 2.7V | 00:00:00 | 01:09:41 | 00:00:00 | |
| HA6NAB-11 | 2026-09-01 01:09:57 | 48.26721 | 17.43913 | 69° | 51km/h | 18068m | 6.2m/s | -54.6°C | 1.6% | 0hPa | 2.7V | 00:00:00 | 00:00:00 | 00:00:00 | |
| OE5DXL-15 | 2026-09-01 01:09:55 | 48.26704 | 17.43862 | 60° | 42km/h | 18055m | 5.6m/s | -54.5°C | 4.5% | 0hPa | 2.7V | 00:00:00 | 00:00:00 | 08:30:00 | |
| GYPAP8-17 | 2026-09-01 01:09:54 | 48.26704 | 17.43862 | 61° | 49km/h | 18055m | 5.6m/s | 0°C | 0% | 0hPa | 2.6V | 00:00:00 | 00:00:00 | 00:00:00 | |
| HA6NAB-11 | 2026-09-01 01:09:51 | 48.26685 | 17.43816 | 60° | 47km/h | 18039m | 5.6m/s | -54.5°C | 1.6% | 0hPa | 2.6V | 00:00:00 | 00:00:00 | 00:00:00 | |
| PETON7-10 | 2026-09-01 01:09:46 | 48.26650 | 17.43721 | 64° | 42km/h | 18010m | 4.8m/s | -54.4°C | 4.5% | 0hPa | 2.6V | 00:00:00 | 00:00:00 | 00:00:00 | |
| OE5MMP-10 | 2026-09-01 01:09:45 | 48.26645 | 17.43704 | 65° | 42km/h | 18006m | 3.1m/s | 0°C | 0% | 0hPa | 2.7V | 00:00:00 | 01:09:25 | 00:00:00 | |
| OE5DRO-10 | 2026-09-01 01:09:43 | 48.26630 | 17.43659 | 66° | 38km/h | 17992m | 4.0m/s | -54.3°C | 4.5% | 0hPa | 2.7V | 00:00:00 | 00:00:00 | 00:00:00 | |
| PG1ADW-2 | 2026-09-01 01:09:42 | 48.26630 | 17.43659 | 66° | 38km/h | 17992m | 4.0m/s | -54.3°C | 4.5% | 0hPa | 2.7V | 00:00:00 | 01:09:22 | 00:00:00 | |
| PETON7-10 | 2026-09-01 01:09:31 | 48.26580 | 17.43507 | 64° | 35km/h | 17938m | 5.8m/s | -54.0°C | 4.2% | 0hPa | 2.6V | 00:00:00 | 00:00:00 | 00:00:00 | |
| OE5DXL-15 | 2026-09-01 01:09:25 | 48.26556 | 17.43432 | 65° | 33km/h | 17906m | 5.4m/s | -54.1°C | 4.3% | 0hPa | 2.6V | 00:00:00 | 00:00:00 | 00:00:00 | |
| OE5DRO-10 | 2026-09-01 01:09:24 | 48.26547 | 17.43398 | 76° | 33km/h | 17890m | 5.0m/s | -54.2°C | 4.4% | 0hPa | 2.6V | 00:00:00 | 00:00:00 | 00:00:00 | |
| PG1ADW-2 | 2026-09-01 01:09:22 | 48.26547 | 17.43398 | 76° | 29km/h | 17890m | 5.0m/s | -54.2°C | 4.4% | 0hPa | 2.6V | 00:00:00 | 00:00:00 | 00:00:00 | |
| S52SK | 2026-09-01 01:09:19 | 48.26542 | 17.43374 | 75° | 37km/h | 17880m | 5.5m/s | -54.3°C | 1.6% | 0hPa | 2.6V | 00:00:00 | 00:00:00 | 00:00:00 | |
| PETON7-10 | 2026-09-01 01:09:16 | 48.26536 | 17.43324 | 82° | 29km/h | 17860m | 3.4m/s | -54.2°C | 4.4% | 0hPa | 2.6V | 00:00:00 | 01:08:56 | 00:00:00 | |
| HA6NAB-11 | 2026-09-01 01:09:15 | 48.26536 | 17.43324 | 82° | 29km/h | 17860m | 3.5m/s | -54.3°C | 1.6% | 0hPa | 2.6V | 00:00:00 | 00:00:00 | 00:00:00 | |
| S52SK | 2026-09-01 01:09:14 | 48.26532 | 17.43303 | 75° | 29km/h | 17851m | 6.0m/s | -54.3°C | 1.6% | 0hPa | 2.6V | 00:00:00 | 00:00:00 | 00:00:00 | |
| HA6NAB-11 | 2026-09-01 01:09:09 | 48.26521 | 17.43264 | 67° | 22km/h | 17831m | 4.2m/s | -54.4°C | 1.6% | 0hPa | 2.6V | 00:00:00 | 00:00:00 | 00:00:00 | |
| HA6NAB-11 | 2026-09-01 01:09:04 | 48.26510 | 17.43219 | 82° | 27km/h | 17807m | 5.9m/s | -54.5°C | 1.6% | 0hPa | 2.6V | 00:00:00 | 00:00:00 | 00:00:00 | |
| PG1ADW-2 | 2026-09-01 01:09:02 | 48.26504 | 17.43180 | 72° | 40km/h | 17792m | 5.3m/s | -54.4°C | 4.4% | 0hPa | 2.6V | 00:00:00 | 00:00:00 | 00:00:00 | |
| OE5MMP-10 | 2026-09-01 01:09:01 | 48.26500 | 17.43164 | 70° | 40km/h | 17787m | 5.2m/s | 0°C | 0% | 0hPa | 2.6V | 00:00:00 | 01:08:41 | 00:00:00 | |
| HA6NAB-11 | 2026-09-01 01:08:58 | 48.26492 | 17.43130 | 72° | 46km/h | 17777m | 5.5m/s | -54.5°C | 1.6% | 0hPa | 2.6V | 00:00:00 | 00:00:00 | 00:00:00 | |
| OE5DXL-15 | 2026-09-01 01:08:55 | 48.26475 | 17.43074 | 57° | 37km/h | 17757m | 4.3m/s | -54.4°C | 4.5% | 0hPa | 2.6V | 00:00:00 | 00:00:00 | 00:00:00 | |
| HA6NAB-11 | 2026-09-01 01:08:53 | 48.26470 | 17.43061 | 58° | 38km/h | 17752m | 4.6m/s | -54.4°C | 1.6% | 0hPa | 2.6V | 00:00:00 | 00:00:00 | 00:00:00 | |
| GYPAP8-17 | 2026-09-01 01:08:50 | 48.26457 | 17.43027 | 65° | 33km/h | 17738m | 4.7m/s | 0°C | 0% | 0hPa | 2.6V | 00:00:00 | 00:00:00 | 00:00:00 | |
| OE5MMP-10 | 2026-09-01 01:08:47 | 48.26436 | 17.42977 | 60° | 40km/h | 17719m | 4.8m/s | 0°C | 0% | 0hPa | 2.6V | 00:00:00 | 01:08:27 | 00:00:00 | |
| PETON7-10 | 2026-09-01 01:08:46 | 48.26431 | 17.42964 | 62° | 37km/h | 17713m | 5.7m/s | -54.1°C | 4.5% | 0hPa | 2.6V | 00:00:00 | 00:00:00 | 00:00:00 | |
| PG1ADW-2 | 2026-09-01 01:08:42 | 48.26410 | 17.42916 | 54° | 35km/h | 17694m | 3.6m/s | -54.0°C | 4.5% | 0hPa | 2.6V | 00:00:00 | 00:00:00 | 00:00:00 | |
| PETON7-10 | 2026-09-01 01:08:31 | 48.26357 | 17.42791 | 66° | 33km/h | 17643m | 4.6m/s | -53.8°C | 4.4% | 0hPa | 2.6V | 00:00:00 | 01:08:11 | 00:00:00 | |
| OE5DRO-10 | 2026-09-01 01:08:27 | 48.26328 | 17.42723 | 51° | 27km/h | 17616m | 3.6m/s | -53.6°C | 4.3% | 0hPa | 2.6V | 00:00:00 | 00:00:00 | 00:00:00 | |
| OE5DXL-15 | 2026-09-01 01:08:25 | 48.26328 | 17.42723 | 51° | 37km/h | 17616m | 3.6m/s | -53.6°C | 4.3% | 0hPa | 2.6V | 00:00:00 | 00:00:00 | 00:00:00 | |
| PG1ADW-2 | 2026-09-01 01:08:22 | 48.26311 | 17.42694 | 51° | 29km/h | 17601m | 4.4m/s | -53.6°C | 4.2% | 0hPa | 2.6V | 00:00:00 | 01:08:02 | 00:00:00 | |
| OE5MMP-10 | 2026-09-01 01:08:21 | 48.26306 | 17.42684 | 53° | 46km/h | 17596m | 6.0m/s | 0°C | 0% | 0hPa | 2.6V | 00:00:00 | 01:08:01 | 00:00:00 | |
| PETON7-10 | 2026-09-01 01:08:16 | 48.26284 | 17.42636 | 54° | 27km/h | 17572m | 3.5m/s | -53.4°C | 4.2% | 0hPa | 2.6V | 00:00:00 | 00:00:00 | 08:30:00 | |
| HA6NAB-11 | 2026-09-01 01:08:12 | 48.26269 | 17.42606 | 52° | 35km/h | 17557m | 4.0m/s | -53.4°C | 1.5% | 0hPa | 2.7V | 00:00:00 | 00:00:00 | 00:00:00 | |
| S52SK | 2026-09-01 01:08:09 | 48.26253 | 17.42579 | 52° | 26km/h | 17542m | 3.6m/s | -53.5°C | 1.5% | 0hPa | 2.7V | 00:00:00 | 00:00:00 | 00:00:00 | |
| HA6NAB-11 | 2026-09-01 01:08:07 | 48.26245 | 17.42563 | 61° | 27km/h | 17533m | 6.1m/s | -53.6°C | 1.5% | 0hPa | 2.7V | 00:00:00 | 00:00:00 | 00:00:00 | |
| S52SK | 2026-09-01 01:08:03 | 48.26234 | 17.42527 | 67° | 22km/h | 17513m | 5.0m/s | -53.9°C | 1.6% | 0hPa | 2.7V | 00:00:00 | 00:00:00 | 00:00:00 | |
| PG1ADW-2 | 2026-09-01 01:08:02 | 48.26229 | 17.42511 | 64° | 24km/h | 17504m | 5.0m/s | -53.8°C | 4.3% | 0hPa | 2.7V | 00:00:00 | 00:00:00 | 00:00:00 | |
| PETON7-10 | 2026-09-01 01:08:01 | 48.26225 | 17.42502 | 61° | 26km/h | 17499m | 4.5m/s | -53.8°C | 4.3% | 0hPa | 2.7V | 00:00:00 | 00:00:00 | 00:00:00 | |
| OE5DRO-10 | 2026-09-01 01:07:58 | 48.26208 | 17.42469 | 49° | 22km/h | 17479m | 3.5m/s | -53.7°C | 4.2% | 0hPa | 2.7V | 00:00:00 | 00:00:00 | 00:00:00 | |
| HA6NAB-11 | 2026-09-01 01:07:56 | 48.26208 | 17.42468 | 50° | 26km/h | 17479m | 3.5m/s | -53.7°C | 1.5% | 0hPa | 2.6V | 00:00:00 | 00:00:00 | 00:00:00 | |
| HA6NAB-11 | 2026-09-01 01:07:51 | 48.26190 | 17.42422 | 83° | 22km/h | 17451m | 4.0m/s | -53.7°C | 1.5% | 0hPa | 2.6V | 00:00:00 | 00:00:00 | 00:00:00 | |
| PETON7-10 | 2026-09-01 01:07:46 | 48.26186 | 17.42380 | 76° | 20km/h | 17426m | 4.0m/s | -53.8°C | 4.3% | 0hPa | 2.6V | 00:00:00 | 01:07:26 | 00:00:00 | |
| HA6NAB-11 | 2026-09-01 01:07:44 | 48.26185 | 17.42373 | 77° | 20km/h | 17421m | 5.4m/s | -53.8°C | 1.6% | 0hPa | 2.6V | 00:00:00 | 00:00:00 | 00:00:00 | |
| PG1ADW-2 | 2026-09-01 01:07:42 | 48.26180 | 17.42351 | 67° | 24km/h | 17406m | 5.8m/s | -53.9°C | 4.3% | 0hPa | 2.6V | 00:00:00 | 00:00:00 | 08:30:00 | |
| OE5DRO-10 | 2026-09-01 01:07:39 | 48.26178 | 17.42327 | 98° | 26km/h | 17388m | 4.5m/s | -54.1°C | 4.4% | 0hPa | 2.6V | 00:00:00 | 00:00:00 | 00:00:00 | |
| PETON7-10 | 2026-09-01 01:07:31 | 48.26176 | 17.42267 | 78° | 27km/h | 17355m | 4.5m/s | -53.9°C | 4.4% | 0hPa | 2.6V | 00:00:00 | 00:00:00 | 00:00:00 | |
| PG1ADW-2 | 2026-09-01 01:07:22 | 48.26182 | 17.42177 | 98° | 29km/h | 17310m | 6.1m/s | -53.5°C | 4.3% | 0hPa | 2.6V | 00:00:00 | 00:00:00 | 00:00:00 | |
| OE5DRO-10 | 2026-09-01 01:07:20 | 48.26182 | 17.42145 | 84° | 27km/h | 17294m | 6.3m/s | -53.4°C | 4.2% | 0hPa | 2.6V | 00:00:00 | 00:00:00 | 00:00:00 | |
| PETON7-10 | 2026-09-01 01:07:16 | 48.26179 | 17.42116 | 85° | 29km/h | 17278m | 5.2m/s | -53.4°C | 4.2% | 0hPa | 2.6V | 00:00:00 | 00:00:00 | 00:00:00 | |
| PG1ADW-2 | 2026-09-01 01:07:02 | 48.26194 | 17.41965 | 96° | 33km/h | 17208m | 4.8m/s | -53.1°C | 4.1% | 0hPa | 2.6V | 00:00:00 | 01:06:42 | 00:00:00 | |
| PETON7-10 | 2026-09-01 01:07:01 | 48.26195 | 17.41956 | 105° | 33km/h | 17204m | 3.7m/s | -53.1°C | 4.1% | 0hPa | 2.6V | 00:00:00 | 01:06:41 | 00:00:00 | |
| HA6NAB-11 | 2026-09-01 01:07:00 | 48.26195 | 17.41956 | 105° | 24km/h | 17204m | 3.8m/s | -53.2°C | 1.5% | 0hPa | 2.6V | 00:00:00 | 00:00:00 | 00:00:00 | |
| S52SK | 2026-09-01 01:06:59 | 48.26197 | 17.41947 | 109° | 26km/h | 17199m | 4.6m/s | -53.2°C | 1.5% | 0hPa | 2.6V | 00:00:00 | 00:00:00 | 00:00:00 | |
| HA6NAB-11 | 2026-09-01 01:06:55 | 48.26206 | 17.41902 | 103° | 33km/h | 17179m | 5.6m/s | -53.5°C | 1.5% | 0hPa | 2.6V | 00:00:00 | 00:00:00 | 00:00:00 | |
| S52SK | 2026-09-01 01:06:54 | 48.26207 | 17.41890 | 99° | 31km/h | 17174m | 4.8m/s | -53.6°C | 1.6% | 0hPa | 2.6V | 00:00:00 | 00:00:00 | 00:00:00 | |
| HA6NAB-11 | 2026-09-01 01:06:49 | 48.26213 | 17.41825 | 91° | 31km/h | 17148m | 5.6m/s | -54.1°C | 1.6% | 0hPa | 2.6V | 00:00:00 | 00:00:00 | 00:00:00 | |
| PETON7-10 | 2026-09-01 01:06:46 | 48.26217 | 17.41774 | 101° | 44km/h | 17129m | 4.0m/s | -54.1°C | 4.4% | 0hPa | 2.6V | 00:00:00 | 00:00:00 | 00:00:00 | |
| HA6NAB-11 | 2026-09-01 01:06:45 | 48.26219 | 17.41759 | 102° | 40km/h | 17125m | 3.7m/s | -54.1°C | 1.6% | 0hPa | 2.6V | 00:00:00 | 00:00:00 | 00:00:00 | |
| OE5DRO-10 | 2026-09-01 01:06:42 | 48.26224 | 17.41699 | 97° | 49km/h | 17108m | 5.5m/s | -54.2°C | 4.4% | 0hPa | 2.6V | 00:00:00 | 00:00:00 | 00:00:00 | |
| OE5DXL-15 | 2026-09-01 01:06:38 | 48.26232 | 17.41646 | 109° | 57km/h | 17093m | 5.3m/s | -54.2°C | 4.2% | 0hPa | 2.6V | 00:00:00 | 00:00:00 | 00:00:00 | |
| GYPAP8-17 | 2026-09-01 01:06:33 | 48.26249 | 17.41582 | 110° | 49km/h | 17074m | 4.9m/s | 0°C | 0% | 0hPa | 2.6V | 00:00:00 | 00:00:00 | 00:00:00 | |
| HA6NAB-11 | 2026-09-01 01:06:32 | 48.26253 | 17.41565 | 107° | 51km/h | 17069m | 4.3m/s | -54.6°C | 1.6% | 0hPa | 2.6V | 00:00:00 | 00:00:00 | 00:00:00 | |
| PETON7-10 | 2026-09-01 01:06:31 | 48.26259 | 17.41529 | 103° | 49km/h | 17059m | 4.7m/s | -54.5°C | 4.4% | 0hPa | 2.6V | 00:00:00 | 00:00:00 | 00:00:00 | |
| OE5DRO-10 | 2026-09-01 01:06:23 | 48.26282 | 17.41376 | 102° | 58km/h | 17019m | 5.4m/s | -55.1°C | 4.5% | 0hPa | 2.6V | 00:00:00 | 00:00:00 | 00:00:00 | |
| PG1ADW-2 | 2026-09-01 01:06:22 | 48.26285 | 17.41356 | 102° | 60km/h | 17014m | 4.3m/s | -55.4°C | 4.7% | 0hPa | 2.6V | 00:00:00 | 00:00:00 | 00:00:00 | |
| PETON7-10 | 2026-09-01 01:06:16 | 48.26300 | 17.41254 | 103° | 66km/h | 16985m | 5.3m/s | -55.9°C | 4.9% | 0hPa | 2.6V | 00:00:00 | 01:05:56 | 00:00:00 | |
| OE5DXL-15 | 2026-09-01 01:06:05 | 48.26322 | 17.40982 | 95° | 73km/h | 16924m | 6.8m/s | -55.7°C | 4.9% | 0hPa | 2.6V | 00:00:00 | 00:00:00 | 00:00:00 | |
| OE5DRO-10 | 2026-09-01 01:06:04 | 48.26323 | 17.40957 | 93° | 73km/h | 16918m | 4.1m/s | -55.7°C | 4.9% | 0hPa | 2.6V | 00:00:00 | 00:00:00 | 00:00:00 | |
| PETON7-10 | 2026-09-01 01:06:01 | 48.26324 | 17.40879 | 91° | 73km/h | 16904m | 2.9m/s | -55.7°C | 4.9% | 0hPa | 2.6V | 00:00:00 | 00:00:00 | 08:30:00 | |
| PETON7-10 | 2026-09-01 01:05:46 | 48.26337 | 17.40462 | 90° | 75km/h | 16830m | 5.5m/s | -55.9°C | 4.7% | 0hPa | 2.6V | 00:00:00 | 00:00:00 | 00:00:00 | |
| OE5DRO-10 | 2026-09-01 01:05:45 | 48.26337 | 17.40434 | 89° | 73km/h | 16825m | 3.8m/s | -55.9°C | 4.7% | 0hPa | 2.6V | 00:00:00 | 00:00:00 | 00:00:00 | |
| PG1ADW-2 | 2026-09-01 01:05:42 | 48.26335 | 17.40348 | 90° | 73km/h | 16812m | 3.4m/s | -56.2°C | 4.8% | 0hPa | 2.6V | 00:00:00 | 01:05:22 | 00:00:00 | |
| OE5DXL-15 | 2026-09-01 01:05:35 | 48.26330 | 17.40151 | 83° | 68km/h | 16778m | 5.4m/s | -56.9°C | 5.1% | 0hPa | 2.7V | 00:00:00 | 00:00:00 | 00:00:00 | |
| PETON7-10 | 2026-09-01 01:05:31 | 48.26321 | 17.40036 | 84° | 68km/h | 16759m | 3.9m/s | -57.7°C | 5.5% | 0hPa | 2.6V | 00:00:00 | 01:05:11 | 00:00:00 | |
| HA6NAB-11 | 2026-09-01 01:05:29 | 48.26319 | 17.40010 | 85° | 69km/h | 16754m | 5.9m/s | -57.8°C | 2.2% | 0hPa | 2.6V | 00:00:00 | 00:00:00 | 00:00:00 | |
| S52SK | 2026-09-01 01:05:28 | 48.26317 | 17.39985 | 84° | 66km/h | 16749m | 5.0m/s | -57.8°C | 2.2% | 0hPa | 2.6V | 00:00:00 | 00:00:00 | 00:00:00 | |
| OE5DRO-10 | 2026-09-01 01:05:26 | 48.26310 | 17.39909 | 83° | 66km/h | 16734m | 4.9m/s | -57.8°C | 5.6% | 0hPa | 2.6V | 00:00:00 | 00:00:00 | 00:00:00 | |
| GYPAP8-17 | 2026-09-01 01:05:23 | 48.26303 | 17.39856 | 78° | 71km/h | 16726m | 5.5m/s | 0°C | 0% | 0hPa | 2.6V | 00:00:00 | 00:00:00 | 00:00:00 | |
| PG1ADW-2 | 2026-09-01 01:05:22 | 48.26294 | 17.39805 | 74° | 64km/h | 16715m | 4.8m/s | -57.8°C | 5.6% | 0hPa | 2.6V | 00:00:00 | 00:00:00 | 00:00:00 | |
| HA6NAB-11 | 2026-09-01 01:05:17 | 48.26275 | 17.39707 | 72° | 64km/h | 16695m | 5.7m/s | -57.7°C | 2.2% | 0hPa | 2.6V | 00:00:00 | 00:00:00 | 00:00:00 | |
| PETON7-10 | 2026-09-01 01:05:16 | 48.26264 | 17.39662 | 69° | 62km/h | 16685m | 4.2m/s | -57.6°C | 5.6% | 0hPa | 2.6V | 00:00:00 | 00:00:00 | 00:00:00 | |
| OE3JTB-15 | 2026-09-01 01:05:13 | 48.26249 | 17.39595 | 72° | 55km/h | 16671m | 4.9m/s | -57.5°C | 5.5% | 0hPa | 2.6V | 00:00:00 | 00:00:00 | 00:00:00 | |
| HA6NAB-11 | 2026-09-01 01:05:12 | 48.26249 | 17.39595 | 73° | 62km/h | 16671m | 4.9m/s | -57.5°C | 2.2% | 0hPa | 2.6V | 00:00:00 | 00:00:00 | 00:00:00 | |
| OE5DRO-10 | 2026-09-01 01:05:07 | 48.26216 | 17.39462 | 66° | 62km/h | 16640m | 6.4m/s | -57.3°C | 5.4% | 0hPa | 2.6V | 00:00:00 | 00:00:00 | 00:00:00 | |
| HA6NAB-11 | 2026-09-01 01:05:06 | 48.26216 | 17.39462 | 66° | 60km/h | 16640m | 6.4m/s | -57.4°C | 2.2% | 0hPa | 2.6V | 00:00:00 | 00:00:00 | 00:00:00 | |
| OE5DXL-15 | 2026-09-01 01:05:05 | 48.26203 | 17.39421 | 67° | 66km/h | 16630m | 4.5m/s | -57.4°C | 5.4% | 0hPa | 2.6V | 00:00:00 | 00:00:00 | 00:00:00 | |
| PG1ADW-2 | 2026-09-01 01:05:02 | 48.26185 | 17.39358 | 65° | 64km/h | 16616m | 5.9m/s | -57.4°C | 5.4% | 0hPa | 2.6V | 00:00:00 | 00:00:00 | 00:00:00 | |
| PETON7-10 | 2026-09-01 01:05:01 | 48.26179 | 17.39337 | 64° | 64km/h | 16610m | 4.2m/s | -57.4°C | 5.4% | 0hPa | 2.6V | 00:00:00 | 00:00:00 | 00:00:00 | |
| HA6NAB-11 | 2026-09-01 01:05:00 | 48.26179 | 17.39337 | 65° | 62km/h | 16610m | 4.3m/s | -57.5°C | 2.2% | 0hPa | 2.6V | 00:00:00 | 00:00:00 | 00:00:00 | |
| OE5DRO-10 | 2026-09-01 01:04:48 | 48.26086 | 17.39056 | 63° | 68km/h | 16546m | 4.3m/s | -57.8°C | 5.5% | 0hPa | 2.6V | 00:00:00 | 00:00:00 | 00:00:00 | |
| PETON7-10 | 2026-09-01 01:04:46 | 48.26070 | 17.39014 | 59° | 68km/h | 16537m | 6.0m/s | -58.1°C | 5.7% | 0hPa | 2.6V | 00:00:00 | 01:04:26 | 00:00:00 | |
| PG1ADW-2 | 2026-09-01 01:04:42 | 48.26033 | 17.38927 | 59° | 66km/h | 16519m | 4.2m/s | -58.3°C | 5.7% | 0hPa | 2.6V | 00:00:00 | 00:00:00 | 08:30:00 | |
| OE5DXL-15 | 2026-09-01 01:04:35 | 48.25963 | 17.38775 | 51° | 60km/h | 16484m | 5.4m/s | -58.7°C | 5.9% | 0hPa | 2.6V | 00:00:00 | 00:00:00 | 00:00:00 | |
| PETON7-10 | 2026-09-01 01:04:31 | 48.25922 | 17.38702 | 54° | 60km/h | 16468m | 4.6m/s | -58.7°C | 6.0% | 0hPa | 2.6V | 00:00:00 | 00:00:00 | 00:00:00 | |
| OE5DRO-10 | 2026-09-01 01:04:30 | 48.25904 | 17.38662 | 58° | 60km/h | 16459m | 4.2m/s | -58.6°C | 6.0% | 0hPa | 2.7V | 00:00:00 | 00:00:00 | 00:00:00 | |
| OE5MMP-10 | 2026-09-01 01:04:28 | 48.25895 | 17.38641 | 56° | 62km/h | 16454m | 4.6m/s | 0°C | 0% | 0hPa | 2.7V | 00:00:00 | 01:04:08 | 00:00:00 | |
| PG1ADW-2 | 2026-09-01 01:04:22 | 48.25850 | 17.38521 | 65° | 58km/h | 16425m | 5.3m/s | -58.3°C | 5.9% | 0hPa | 2.7V | 00:00:00 | 01:04:02 | 00:00:00 | |
| HA6NAB-11 | 2026-09-01 01:04:19 | 48.25837 | 17.38484 | 62° | 58km/h | 16416m | 4.2m/s | -58.3°C | 2.4% | 0hPa | 2.7V | 00:00:00 | 00:00:00 | 00:00:00 | |
| PETON7-10 | 2026-09-01 01:04:16 | 48.25811 | 17.38400 | 66° | 58km/h | 16395m | 4.8m/s | -58.1°C | 5.9% | 0hPa | 2.7V | 00:00:00 | 00:00:00 | 00:00:00 | |
| HA6NAB-11 | 2026-09-01 01:04:14 | 48.25805 | 17.38380 | 64° | 60km/h | 16389m | 6.3m/s | -58.1°C | 2.4% | 0hPa | 2.7V | 00:00:00 | 00:00:00 | 00:00:00 | |
| OE5DRO-10 | 2026-09-01 01:04:10 | 48.25771 | 17.38280 | 68° | 58km/h | 16364m | 4.4m/s | -57.8°C | 5.8% | 0hPa | 2.7V | 00:00:00 | 00:00:00 | 08:30:00 | |
| HA6NAB-11 | 2026-09-01 01:04:09 | 48.25771 | 17.38280 | 68° | 58km/h | 16364m | 4.5m/s | -57.8°C | 2.4% | 0hPa | 2.7V | 00:00:00 | 00:00:00 | 00:00:00 | |
| OE5DXL-15 | 2026-09-01 01:04:05 | 48.25739 | 17.38182 | 67° | 57km/h | 16337m | 6.0m/s | -57.5°C | 5.7% | 0hPa | 2.7V | 00:00:00 | 00:00:00 | 08:30:00 | |
| HA6NAB-11 | 2026-09-01 01:04:03 | 48.25733 | 17.38162 | 65° | 60km/h | 16332m | 5.0m/s | -57.5°C | 2.3% | 0hPa | 2.6V | 00:00:00 | 00:00:00 | 00:00:00 | |
| PG1ADW-2 | 2026-09-01 01:04:02 | 48.25719 | 17.38121 | 64° | 57km/h | 16320m | 4.7m/s | -57.4°C | 5.6% | 0hPa | 2.6V | 00:00:00 | 00:00:00 | 00:00:00 | |
| PETON7-10 | 2026-09-01 01:04:01 | 48.25713 | 17.38101 | 66° | 57km/h | 16315m | 5.3m/s | -57.4°C | 5.6% | 0hPa | 2.6V | 00:00:00 | 01:03:41 | 00:00:00 | |
| HA6NAB-11 | 2026-09-01 01:03:58 | 48.25700 | 17.38060 | 66° | 62km/h | 16305m | 3.7m/s | -57.3°C | 2.3% | 0hPa | 2.6V | 00:00:00 | 00:00:00 | 00:00:00 | |
| S52SK | 2026-09-01 01:03:52 | 48.25664 | 17.37938 | 66° | 51km/h | 16274m | 5.8m/s | -57.1°C | 2.2% | 0hPa | 2.6V | 00:00:00 | 00:00:00 | 00:00:00 | |
| OE5DRO-10 | 2026-09-01 01:03:51 | 48.25652 | 17.37904 | 60° | 55km/h | 16263m | 3.5m/s | -56.9°C | 5.6% | 0hPa | 2.6V | 00:00:00 | 00:00:00 | 00:00:00 | |
| PETON7-10 | 2026-09-01 01:03:46 | 48.25623 | 17.37812 | 63° | 55km/h | 16238m | 6.6m/s | -56.7°C | 5.4% | 0hPa | 2.6V | 00:00:00 | 00:00:00 | 08:30:00 | |
| PG1ADW-2 | 2026-09-01 01:03:42 | 48.25598 | 17.37736 | 64° | 53km/h | 16217m | 3.9m/s | -56.5°C | 5.4% | 0hPa | 2.6V | 00:00:00 | 00:00:00 | 00:00:00 | |
| OE5DXL-15 | 2026-09-01 01:03:35 | 48.25552 | 17.37612 | 64° | 49km/h | 16180m | 5.9m/s | -56.3°C | 5.3% | 0hPa | 2.6V | 00:00:00 | 00:00:00 | 00:00:00 | |
| OE5DRO-10 | 2026-09-01 01:03:32 | 48.25535 | 17.37558 | 68° | 49km/h | 16164m | 6.3m/s | -56.2°C | 5.2% | 0hPa | 2.6V | 00:00:00 | 00:00:00 | 00:00:00 | |
| PETON7-10 | 2026-09-01 01:03:31 | 48.25529 | 17.37540 | 64° | 49km/h | 16159m | 4.3m/s | -56.2°C | 5.3% | 0hPa | 2.6V | 00:00:00 | 00:00:00 | 00:00:00 | |
| PG1ADW-2 | 2026-09-01 01:03:22 | 48.25466 | 17.37397 | 59° | 47km/h | 16114m | 4.8m/s | -55.9°C | 5.2% | 0hPa | 2.6V | 00:00:00 | 00:00:00 | 00:00:00 | |
| HA6NAB-11 | 2026-09-01 01:03:19 | 48.25453 | 17.37365 | 62° | 47km/h | 16103m | 7.2m/s | -55.9°C | 2.1% | 0hPa | 2.6V | 00:00:00 | 00:00:00 | 00:00:00 | |
| PETON7-10 | 2026-09-01 01:03:16 | 48.25429 | 17.37301 | 61° | 46km/h | 16081m | 4.1m/s | -55.7°C | 5.2% | 0hPa | 2.6V | 00:00:00 | 01:02:56 | 00:00:00 | |
| HA6NAB-11 | 2026-09-01 01:03:14 | 48.25417 | 17.37270 | 58° | 44km/h | 16071m | 6.1m/s | -55.7°C | 2.1% | 0hPa | 2.6V | 00:00:00 | 00:00:00 | 00:00:00 | |
| OE5DRO-10 | 2026-09-01 01:03:13 | 48.25411 | 17.37257 | 58° | 46km/h | 16065m | 4.2m/s | -55.6°C | 5.2% | 0hPa | 2.6V | 00:00:00 | 00:00:00 | 00:00:00 | |
| HA6NAB-11 | 2026-09-01 01:03:07 | 48.25378 | 17.37188 | 55° | 42km/h | 16040m | 5.4m/s | -55.4°C | 2.1% | 0hPa | 2.6V | 00:00:00 | 00:00:00 | 00:00:00 | |
| OE3JTB-15 | 2026-09-01 01:03:05 | 48.25358 | 17.37145 | 55° | 46km/h | 16024m | 4.0m/s | -55.3°C | 5.0% | 0hPa | 2.6V | 00:00:00 | 00:00:00 | 00:00:00 | |
| PG1ADW-2 | 2026-09-01 01:03:02 | 48.25337 | 17.37100 | 56° | 47km/h | 16009m | 4.9m/s | -55.2°C | 5.0% | 0hPa | 2.6V | 00:00:00 | 01:02:42 | 00:00:00 | |
| PETON7-10 | 2026-09-01 01:03:01 | 48.25329 | 17.37085 | 54° | 46km/h | 16004m | 5.1m/s | -55.2°C | 5.0% | 0hPa | 2.6V | 00:00:00 | 00:00:00 | 00:00:00 | |
| HA6NAB-11 | 2026-09-01 01:02:56 | 48.25298 | 17.37016 | 58° | 44km/h | 15978m | 5.7m/s | -55.1°C | 2.0% | 0hPa | 2.7V | 00:00:00 | 00:00:00 | 00:00:00 | |
| OE5DRO-10 | 2026-09-01 01:02:54 | 48.25285 | 17.36988 | 53° | 47km/h | 15969m | 5.6m/s | -55.0°C | 4.9% | 0hPa | 2.7V | 00:00:00 | 00:00:00 | 00:00:00 | |
| HA6NAB-11 | 2026-09-01 01:02:49 | 48.25257 | 17.36931 | 55° | 51km/h | 15949m | 4.4m/s | -54.9°C | 2.0% | 0hPa | 2.7V | 00:00:00 | 00:00:00 | 00:00:00 | |
| PETON7-10 | 2026-09-01 01:02:46 | 48.25226 | 17.36873 | 54° | 47km/h | 15929m | 4.1m/s | -54.6°C | 4.9% | 0hPa | 2.7V | 00:00:00 | 00:00:00 | 00:00:00 | |
| PG1ADW-2 | 2026-09-01 01:02:42 | 48.25197 | 17.36813 | 51° | 46km/h | 15910m | 6.2m/s | -54.4°C | 4.9% | 0hPa | 2.7V | 00:00:00 | 00:00:00 | 00:00:00 | |
| OE5DXL-15 | 2026-09-01 01:02:35 | 48.25145 | 17.36717 | 51° | 47km/h | 15876m | 4.1m/s | -54.1°C | 4.8% | 0hPa | 2.6V | 00:00:00 | 00:00:00 | 00:00:00 | |
| PETON7-10 | 2026-09-01 01:02:31 | 48.25116 | 17.36666 | 50° | 44km/h | 15855m | 6.1m/s | -53.9°C | 4.7% | 0hPa | 2.7V | 00:00:00 | 01:02:11 | 00:00:00 | |
| PG1ADW-2 | 2026-09-01 01:02:22 | 48.25056 | 17.36541 | 61° | 46km/h | 15809m | 5.1m/s | -53.6°C | 4.6% | 0hPa | 2.7V | 00:00:00 | 00:00:00 | 00:00:00 | |
| PETON7-10 | 2026-09-01 01:02:16 | 48.25014 | 17.36471 | 40° | 49km/h | 15780m | 4.5m/s | -53.5°C | 4.6% | 0hPa | 2.7V | 00:00:00 | 00:00:00 | 00:00:00 | |
| S52SK | 2026-09-01 01:02:12 | 48.24990 | 17.36441 | 46° | 42km/h | 15766m | 4.3m/s | -53.6°C | 1.9% | 0hPa | 2.6V | 00:00:00 | 00:00:00 | 00:00:00 | |
| S52SK | 2026-09-01 01:02:07 | 48.24955 | 17.36357 | 64° | 55km/h | 15737m | 4.4m/s | -53.7°C | 1.9% | 0hPa | 2.6V | 00:00:00 | 00:00:00 | 00:00:00 | |
| PG1ADW-2 | 2026-09-01 01:02:02 | 48.24920 | 17.36258 | 54° | 47km/h | 15704m | 4.2m/s | -53.5°C | 4.6% | 0hPa | 2.6V | 00:00:00 | 00:00:00 | 00:00:00 | |
| PETON7-10 | 2026-09-01 01:02:01 | 48.24912 | 17.36243 | 53° | 47km/h | 15699m | 4.7m/s | -53.4°C | 4.5% | 0hPa | 2.6V | 00:00:00 | 00:00:00 | 00:00:00 | |
| OE5DRO-10 | 2026-09-01 01:01:57 | 48.24886 | 17.36181 | 65° | 47km/h | 15679m | 5.9m/s | -53.2°C | 4.5% | 0hPa | 2.6V | 00:00:00 | 00:00:00 | 00:00:00 | |
| PETON7-10 | 2026-09-01 01:01:46 | 48.24830 | 17.36006 | 46° | 51km/h | 15613m | 6.6m/s | -53.5°C | 4.4% | 0hPa | 2.6V | 00:00:00 | 01:01:26 | 00:00:00 | |
| PG1ADW-2 | 2026-09-01 01:01:42 | 48.24803 | 17.35951 | 62° | 53km/h | 15585m | 8.3m/s | -53.7°C | 4.5% | 0hPa | 2.6V | 00:00:00 | 01:01:22 | 08:30:00 | |
| OE5DRO-10 | 2026-09-01 01:01:38 | 48.24790 | 17.35874 | 83° | 55km/h | 15557m | 7.2m/s | -53.6°C | 4.5% | 0hPa | 2.6V | 00:00:00 | 00:00:00 | 00:00:00 | |
| PETON7-10 | 2026-09-01 01:01:31 | 48.24778 | 17.35735 | 85° | 58km/h | 15521m | 3.3m/s | -53.7°C | 4.5% | 0hPa | 2.6V | 00:00:00 | 00:00:00 | 08:30:00 | |
| OE3JTB-15 | 2026-09-01 01:01:24 | 48.24763 | 17.35590 | 87° | 64km/h | 15488m | 3.9m/s | -53.8°C | 4.4% | 0hPa | 2.6V | 00:00:00 | 00:00:00 | 08:30:00 | |
| PG1ADW-2 | 2026-09-01 01:01:22 | 48.24760 | 17.35548 | 81° | 69km/h | 15479m | 5.4m/s | -54.1°C | 4.5% | 0hPa | 2.6V | 00:00:00 | 00:00:00 | 00:00:00 | |
| OE5DRO-10 | 2026-09-01 01:01:19 | 48.24753 | 17.35480 | 83° | 71km/h | 15465m | 5.2m/s | -54.4°C | 4.6% | 0hPa | 2.6V | 00:00:00 | 00:00:00 | 08:30:00 | |
| PETON7-10 | 2026-09-01 01:01:16 | 48.24746 | 17.35408 | 83° | 73km/h | 15451m | 6.3m/s | -54.6°C | 4.6% | 0hPa | 2.6V | 00:00:00 | 00:00:00 | 00:00:00 | |
| HA6NAB-11 | 2026-09-01 01:01:13 | 48.24741 | 17.35358 | 86° | 69km/h | 15440m | 5.7m/s | -55.0°C | 2.0% | 0hPa | 2.6V | 00:00:00 | 00:00:00 | 00:00:00 | |
| HA6NAB-11 | 2026-09-01 01:01:07 | 48.24726 | 17.35196 | 81° | 69km/h | 15414m | 4.6m/s | -56.1°C | 2.2% | 0hPa | 2.6V | 00:00:00 | 00:00:00 | 00:00:00 | |
| OE5DXL-15 | 2026-09-01 01:01:02 | 48.24704 | 17.35031 | 78° | 71km/h | 15386m | 4.3m/s | -56.1°C | 5.2% | 0hPa | 2.6V | 00:00:00 | 00:00:00 | 00:00:00 | |
| PETON7-10 | 2026-09-01 01:01:01 | 48.24699 | 17.35002 | 76° | 75km/h | 15382m | 3.3m/s | -56.1°C | 5.2% | 0hPa | 2.7V | 00:00:00 | 01:00:41 | 00:00:00 | |
| OE5DRO-10 | 2026-09-01 01:01:00 | 48.24694 | 17.34973 | 73° | 73km/h | 15378m | 6.0m/s | -56.1°C | 5.2% | 0hPa | 2.7V | 00:00:00 | 00:00:00 | 00:00:00 | |
| HA6NAB-11 | 2026-09-01 01:00:55 | 48.24665 | 17.34860 | 70° | 75km/h | 15359m | 3.9m/s | -56.0°C | 2.2% | 0hPa | 2.7V | 00:00:00 | 00:00:00 | 00:00:00 | |
| HA6NAB-11 | 2026-09-01 01:00:49 | 48.24626 | 17.34707 | 67° | 68km/h | 15332m | 4.1m/s | -55.8°C | 2.1% | 0hPa | 2.7V | 00:00:00 | 00:00:00 | 00:00:00 | |
| PETON7-10 | 2026-09-01 01:00:46 | 48.24598 | 17.34607 | 71° | 66km/h | 15314m | 3.6m/s | -55.8°C | 5.1% | 0hPa | 2.7V | 00:00:00 | 00:00:00 | 00:00:00 | |
| HA6NAB-11 | 2026-09-01 01:00:43 | 48.24586 | 17.34557 | 72° | 69km/h | 15305m | 4.4m/s | -56.0°C | 2.2% | 0hPa | 2.6V | 00:00:00 | 00:00:00 | 00:00:00 | |
| PG1ADW-2 | 2026-09-01 01:00:42 | 48.24574 | 17.34506 | 72° | 66km/h | 15295m | 5.4m/s | -56.1°C | 5.3% | 0hPa | 2.6V | 00:00:00 | 00:00:00 | 00:00:00 | |
| OE5DRO-10 | 2026-09-01 01:00:41 | 48.24569 | 17.34480 | 72° | 64km/h | 15290m | 3.3m/s | -56.2°C | 5.2% | 0hPa | 2.6V | 00:00:00 | 00:00:00 | 00:00:00 | |
| PETON7-10 | 2026-09-01 01:00:31 | 48.24519 | 17.34252 | 78° | 66km/h | 15240m | 6.0m/s | -56.0°C | 5.3% | 0hPa | 2.6V | 00:00:00 | 00:00:00 | 00:00:00 | |
| PG1ADW-2 | 2026-09-01 01:00:22 | 48.24492 | 17.34034 | 77° | 68km/h | 15192m | 4.2m/s | -55.6°C | 5.2% | 0hPa | 2.6V | 00:00:00 | 01:00:02 | 00:00:00 | |
| GYPAP8-17 | 2026-09-01 01:00:21 | 48.24492 | 17.34034 | 77° | 62km/h | 15192m | 4.2m/s | 0°C | 0% | 0hPa | 2.6V | 00:00:00 | 00:00:00 | 00:00:00 | |
| S52SK | 2026-09-01 01:00:07 | 48.24458 | 17.33697 | 80° | 73km/h | 15119m | 6.2m/s | -55.0°C | 2.0% | 0hPa | 2.6V | 00:00:00 | 00:00:00 | 00:00:00 | |
| PG1ADW-2 | 2026-09-01 01:00:02 | 48.24449 | 17.33534 | 86° | 71km/h | 15088m | 4.5m/s | -55.2°C | 5.0% | 0hPa | 2.6V | 00:00:00 | 00:00:00 | 00:00:00 | |
| PETON7-10 | 2026-09-01 01:00:01 | 48.24447 | 17.33509 | 83° | 71km/h | 15084m | 3.9m/s | 0°C | 0% | 0hPa | 2.6V | 00:00:00 | 00:00:00 | 00:00:00 | |
| OE3JTB-15 | 2026-09-01 00:59:56 | 48.24435 | 17.33382 | 85° | 73km/h | 15057m | 4.3m/s | -55.2°C | 5.0% | 0hPa | 2.7V | 00:00:00 | 00:00:00 | 00:00:00 | |
| PETON7-10 | 2026-09-01 00:59:46 | 48.24421 | 17.33103 | 85° | 77km/h | 15006m | 5.3m/s | -54.8°C | 4.9% | 0hPa | 2.7V | 00:00:00 | 00:00:00 | 00:00:00 | |
| OE5DRO-10 | 2026-09-01 00:59:44 | 48.24418 | 17.33049 | 84° | 77km/h | 14996m | 6.2m/s | -54.8°C | 4.9% | 0hPa | 2.7V | 00:00:00 | 00:00:00 | 00:00:00 | |
| PG1ADW-2 | 2026-09-01 00:59:42 | 48.24414 | 17.32994 | 86° | 77km/h | 14986m | 4.7m/s | -54.9°C | 4.9% | 0hPa | 2.7V | 00:00:00 | 00:00:00 | 00:00:00 | |
| HA6NAB-11 | 2026-09-01 00:59:41 | 48.24414 | 17.32994 | 87° | 71km/h | 14986m | 4.8m/s | -54.9°C | 2.1% | 0hPa | 2.7V | 00:00:00 | 00:00:00 | 00:00:00 | |
| HA6NAB-11 | 2026-09-01 00:59:36 | 48.24409 | 17.32851 | 86° | 80km/h | 14962m | 4.1m/s | -54.9°C | 2.1% | 0hPa | 2.7V | 00:00:00 | 00:00:00 | 00:00:00 | |
| HA6NAB-11 | 2026-09-01 00:59:30 | 48.24397 | 17.32671 | 84° | 78km/h | 14932m | 6.0m/s | -55.0°C | 2.1% | 0hPa | 2.7V | 00:00:00 | 00:00:00 | 00:00:00 | |
| OE3JTB-15 | 2026-09-01 00:59:27 | 48.24389 | 17.32553 | 85° | 86km/h | 14913m | 3.6m/s | -55.0°C | 5.0% | 0hPa | 2.7V | 00:00:00 | 00:59:07 | 00:00:00 | |
| OE5DRO-10 | 2026-09-01 00:59:25 | 48.24387 | 17.32494 | 89° | 78km/h | 14904m | 5.0m/s | -55.1°C | 5.1% | 0hPa | 2.7V | 00:00:00 | 00:00:00 | 00:00:00 | |
| HA6NAB-11 | 2026-09-01 00:59:24 | 48.24387 | 17.32494 | 89° | 75km/h | 14904m | 5.1m/s | -55.1°C | 2.2% | 0hPa | 2.7V | 00:00:00 | 00:00:00 | 00:00:00 | |
| PG1ADW-2 | 2026-09-01 00:59:22 | 48.24386 | 17.32407 | 89° | 77km/h | 14891m | 5.0m/s | -55.1°C | 5.0% | 0hPa | 2.7V | 00:00:00 | 00:00:00 | 00:00:00 | |
| HA6NAB-11 | 2026-09-01 00:59:19 | 48.24385 | 17.32316 | 90° | 78km/h | 14877m | 4.0m/s | -55.1°C | 2.1% | 0hPa | 2.7V | 00:00:00 | 00:00:00 | 00:00:00 | |
| PETON7-10 | 2026-09-01 00:59:16 | 48.24382 | 17.32225 | 88° | 77km/h | 14863m | 3.7m/s | -55.0°C | 5.0% | 0hPa | 2.7V | 00:00:00 | 00:00:00 | 08:30:00 | |
| HA6NAB-11 | 2026-09-01 00:59:12 | 48.24379 | 17.32136 | 86° | 78km/h | 14848m | 5.3m/s | -55.1°C | 2.2% | 0hPa | 2.7V | 00:00:00 | 00:00:00 | 00:00:00 | |
| OE5DRO-10 | 2026-09-01 00:59:06 | 48.24366 | 17.31938 | 86° | 75km/h | 14816m | 2.5m/s | -54.9°C | 5.1% | 0hPa | 2.7V | 00:00:00 | 00:00:00 | 00:00:00 | |
| PG1ADW-2 | 2026-09-01 00:59:02 | 48.24362 | 17.31825 | 87° | 75km/h | 14798m | 5.6m/s | -54.9°C | 5.1% | 0hPa | 2.7V | 00:00:00 | 00:58:42 | 00:00:00 | |
| PETON7-10 | 2026-09-01 00:59:01 | 48.24361 | 17.31795 | 85° | 75km/h | 14793m | 3.4m/s | -54.9°C | 5.1% | 0hPa | 2.7V | 00:00:00 | 00:00:00 | 00:00:00 | |
| GYPAP8-17 | 2026-09-01 00:58:58 | 48.24358 | 17.31737 | 86° | 75km/h | 14785m | 5.3m/s | 0°C | 0% | 0hPa | 2.7V | 00:00:00 | 00:00:00 | 00:00:00 | |
| OE5DRO-10 | 2026-09-01 00:58:47 | 48.24333 | 17.31402 | 84° | 68km/h | 14728m | 4.7m/s | -54.5°C | 4.9% | 0hPa | 2.7V | 00:00:00 | 00:00:00 | 00:00:00 | |
| PETON7-10 | 2026-09-01 00:58:46 | 48.24331 | 17.31374 | 83° | 69km/h | 14723m | 5.1m/s | -54.4°C | 4.9% | 0hPa | 2.7V | 00:00:00 | 00:58:26 | 00:00:00 | |
| PG1ADW-2 | 2026-09-01 00:58:42 | 48.24321 | 17.31268 | 84° | 66km/h | 14703m | 4.8m/s | -54.3°C | 4.8% | 0hPa | 2.7V | 00:00:00 | 00:00:00 | 08:30:00 | |
| S52SK | 2026-09-01 00:58:36 | 48.24316 | 17.31140 | 87° | 66km/h | 14678m | 5.0m/s | -54.3°C | 2.1% | 0hPa | 2.7V | 00:00:00 | 00:00:00 | 00:00:00 | |
| PETON7-10 | 2026-09-01 00:58:31 | 48.24304 | 17.30988 | 86° | 60km/h | 14648m | 4.2m/s | -54.1°C | 4.7% | 0hPa | 2.7V | 00:00:00 | 00:00:00 | 00:00:00 | |
| OE5DRO-10 | 2026-09-01 00:58:28 | 48.24299 | 17.30919 | 86° | 58km/h | 14631m | 5.1m/s | -54.4°C | 4.8% | 0hPa | 2.7V | 00:00:00 | 00:00:00 | 08:30:00 | |
| PG1ADW-2 | 2026-09-01 00:58:22 | 48.24287 | 17.30782 | 78° | 58km/h | 14601m | 4.8m/s | -54.4°C | 4.9% | 0hPa | 2.7V | 00:00:00 | 00:00:00 | 00:00:00 | |
| PETON7-10 | 2026-09-01 00:58:16 | 48.24268 | 17.30654 | 79° | 58km/h | 14573m | 5.0m/s | -54.2°C | 4.9% | 0hPa | 2.7V | 00:00:00 | 00:00:00 | 00:00:00 | |
| HA6NAB-11 | 2026-09-01 00:58:13 | 48.24263 | 17.30612 | 81° | 55km/h | 14563m | 3.5m/s | -54.2°C | 2.1% | 0hPa | 2.7V | 00:00:00 | 00:00:00 | 00:00:00 | |
| OE5DRO-10 | 2026-09-01 00:58:09 | 48.24253 | 17.30508 | 84° | 58km/h | 14539m | 3.0m/s | -53.9°C | 4.9% | 0hPa | 2.7V | 00:00:00 | 00:00:00 | 00:00:00 | |
| HA6NAB-11 | 2026-09-01 00:58:08 | 48.24253 | 17.30508 | 84° | 57km/h | 14539m | 3.0m/s | -54.0°C | 2.1% | 0hPa | 2.7V | 00:00:00 | 00:00:00 | 00:00:00 | |
| PG1ADW-2 | 2026-09-01 00:58:02 | 48.24238 | 17.30352 | 80° | 60km/h | 14505m | 5.6m/s | -54.0°C | 4.8% | 0hPa | 2.7V | 00:00:00 | 00:00:00 | 00:00:00 | |
| PETON7-10 | 2026-09-01 00:58:01 | 48.24235 | 17.30330 | 81° | 62km/h | 14500m | 4.7m/s | -53.9°C | 4.8% | 0hPa | 2.7V | 00:00:00 | 00:57:41 | 00:00:00 | |
| HA6NAB-11 | 2026-09-01 00:57:57 | 48.24231 | 17.30268 | 86° | 55km/h | 14485m | 4.4m/s | -53.9°C | 2.1% | 0hPa | 2.7V | 00:00:00 | 00:00:00 | 00:00:00 | |
| HA6NAB-11 | 2026-09-01 00:57:51 | 48.24224 | 17.30134 | 88° | 64km/h | 14454m | 4.9m/s | -53.8°C | 2.1% | 0hPa | 2.7V | 00:00:00 | 00:00:00 | 00:00:00 | |
| OE5DRO-10 | 2026-09-01 00:57:50 | 48.24221 | 17.30085 | 87° | 69km/h | 14444m | 4.6m/s | -53.7°C | 4.8% | 0hPa | 2.7V | 00:00:00 | 00:00:00 | 00:00:00 | |
| PETON7-10 | 2026-09-01 00:57:46 | 48.24220 | 17.29986 | 89° | 69km/h | 14424m | 4.9m/s | -53.6°C | 4.7% | 0hPa | 2.7V | 00:00:00 | 00:00:00 | 00:00:00 | |
| HA6NAB-11 | 2026-09-01 00:57:45 | 48.24220 | 17.29986 | 89° | 60km/h | 14424m | 5.0m/s | -53.7°C | 2.1% | 0hPa | 2.7V | 00:00:00 | 00:00:00 | 00:00:00 | |
| PG1ADW-2 | 2026-09-01 00:57:42 | 48.24212 | 17.29891 | 83° | 73km/h | 14407m | 4.5m/s | -53.6°C | 4.7% | 0hPa | 2.7V | 00:00:00 | 00:57:22 | 00:00:00 | |
| PETON7-10 | 2026-09-01 00:57:31 | 48.24203 | 17.29589 | 84° | 75km/h | 14352m | 3.8m/s | -53.2°C | 4.7% | 0hPa | 2.7V | 00:00:00 | 00:00:00 | 00:00:00 | |
| PG1ADW-2 | 2026-09-01 00:57:22 | 48.24199 | 17.29340 | 93° | 84km/h | 14305m | 5.3m/s | -53.1°C | 4.6% | 0hPa | 2.7V | 00:00:00 | 00:00:00 | 00:00:00 | |
| S52SK | 2026-09-01 00:57:21 | 48.24199 | 17.29340 | 93° | 78km/h | 14305m | 5.4m/s | -53.2°C | 2.0% | 0hPa | 2.7V | 00:00:00 | 00:00:00 | 00:00:00 | |
| PETON7-10 | 2026-09-01 00:57:16 | 48.24193 | 17.29157 | 85° | 86km/h | 14273m | 6.3m/s | -53.1°C | 4.7% | 0hPa | 2.7V | 00:00:00 | 00:56:56 | 00:00:00 | |
| S52SK | 2026-09-01 00:57:15 | 48.24193 | 17.29157 | 85° | 84km/h | 14273m | 6.4m/s | -53.2°C | 2.1% | 0hPa | 2.7V | 00:00:00 | 00:00:00 | 00:00:00 | |
| OE5DRO-10 | 2026-09-01 00:57:12 | 48.24187 | 17.29031 | 89° | 89km/h | 14252m | 4.8m/s | -53.1°C | 4.6% | 0hPa | 2.7V | 00:00:00 | 00:00:00 | 00:00:00 | |
| HA6NAB-11 | 2026-09-01 00:57:10 | 48.24187 | 17.29000 | 89° | 82km/h | 14248m | 3.7m/s | -53.3°C | 2.1% | 0hPa | 2.7V | 00:00:00 | 00:00:00 | 00:00:00 | |
| HA6NAB-11 | 2026-09-01 00:57:04 | 48.24187 | 17.28806 | 92° | 89km/h | 14216m | 5.2m/s | -53.3°C | 2.1% | 0hPa | 2.7V | 00:00:00 | 00:00:00 | 00:00:00 | |
| PG1ADW-2 | 2026-09-01 00:57:02 | 48.24188 | 17.28701 | 91° | 95km/h | 14200m | 6.2m/s | -53.2°C | 4.6% | 0hPa | 2.7V | 00:00:00 | 00:00:00 | 00:00:00 | |
| PETON7-10 | 2026-09-01 00:57:01 | 48.24188 | 17.28668 | 91° | 95km/h | 14194m | 5.2m/s | -53.2°C | 4.7% | 0hPa | 2.7V | 00:00:00 | 00:00:00 | 08:30:00 | |
| HA6NAB-11 | 2026-09-01 00:56:59 | 48.24188 | 17.28634 | 90° | 89km/h | 14189m | 3.9m/s | -53.2°C | 2.1% | 0hPa | 2.7V | 00:00:00 | 00:00:00 | 00:00:00 | |
| OE5DRO-10 | 2026-09-01 00:56:53 | 48.24184 | 17.28390 | 89° | 99km/h | 14151m | 5.0m/s | -53.1°C | 4.6% | 0hPa | 2.7V | 00:00:00 | 00:00:00 | 00:00:00 | |
| HA6NAB-11 | 2026-09-01 00:56:47 | 48.24181 | 17.28207 | 89° | 100km/h | 14125m | 6.3m/s | -53.1°C | 2.1% | 0hPa | 2.7V | 00:00:00 | 00:00:00 | 00:00:00 | |
| PETON7-10 | 2026-09-01 00:56:46 | 48.24179 | 17.28130 | 89° | 99km/h | 14114m | 5.0m/s | -53.0°C | 4.6% | 0hPa | 2.7V | 00:00:00 | 00:00:00 | 00:00:00 | |
| PG1ADW-2 | 2026-09-01 00:56:42 | 48.24174 | 17.27982 | 86° | 100km/h | 14093m | 5.5m/s | -53.0°C | 4.6% | 0hPa | 2.7V | 00:00:00 | 00:00:00 | 00:00:00 | |
| HA6NAB-11 | 2026-09-01 00:56:41 | 48.24174 | 17.27982 | 86° | 99km/h | 14093m | 5.5m/s | -53.1°C | 2.1% | 0hPa | 2.7V | 00:00:00 | 00:00:00 | 00:00:00 | |
| OE5DRO-10 | 2026-09-01 00:56:34 | 48.24155 | 17.27685 | 85° | 102km/h | 14050m | 5.2m/s | -53.3°C | 4.7% | 0hPa | 2.7V | 00:00:00 | 00:00:00 | 00:00:00 | |
| PETON7-10 | 2026-09-01 00:56:31 | 48.24145 | 17.27571 | 82° | 102km/h | 14033m | 4.9m/s | -53.3°C | 4.7% | 0hPa | 2.7V | 00:00:00 | 00:56:11 | 00:00:00 | |
| OE3JTB-15 | 2026-09-01 00:56:28 | 48.24122 | 17.27383 | 77° | 117km/h | 14005m | 4.5m/s | -53.3°C | 4.8% | 0hPa | 2.7V | 00:00:00 | 00:00:00 | 00:00:00 | |
| PG1ADW-2 | 2026-09-01 00:56:22 | 48.24099 | 17.27233 | 77° | 100km/h | 13984m | 6.3m/s | -53.2°C | 4.7% | 0hPa | 2.7V | 00:00:00 | 00:56:02 | 00:00:00 | |
| PETON7-10 | 2026-09-01 00:56:16 | 48.24065 | 17.27005 | 78° | 99km/h | 13951m | 4.4m/s | -53.0°C | 4.7% | 0hPa | 2.7V | 00:00:00 | 00:00:00 | 00:00:00 | |
| OE5DRO-10 | 2026-09-01 00:56:15 | 48.24060 | 17.26968 | 78° | 97km/h | 13945m | 5.9m/s | -53.0°C | 4.7% | 0hPa | 2.7V | 00:00:00 | 00:00:00 | 00:00:00 | |
| PG1ADW-2 | 2026-09-01 00:56:02 | 48.23979 | 17.26503 | 76° | 93km/h | 13878m | 4.5m/s | -52.5°C | 4.7% | 0hPa | 2.7V | 00:00:00 | 00:00:00 | 00:00:00 | |
| PETON7-10 | 2026-09-01 00:56:01 | 48.23973 | 17.26468 | 75° | 93km/h | 13873m | 5.8m/s | -52.5°C | 4.6% | 0hPa | 2.7V | 00:00:00 | 00:00:00 | 00:00:00 | |
| OE5DRO-10 | 2026-09-01 00:55:56 | 48.23942 | 17.26297 | 74° | 93km/h | 13846m | 6.5m/s | -52.3°C | 4.5% | 0hPa | 2.7V | 00:00:00 | 00:00:00 | 00:00:00 | |
| PETON7-10 | 2026-09-01 00:55:46 | 48.23888 | 17.25955 | 81° | 91km/h | 13792m | 6.3m/s | -51.9°C | 4.5% | 0hPa | 2.7V | 00:00:00 | 00:55:26 | 00:00:00 | |
| PG1ADW-2 | 2026-09-01 00:55:42 | 48.23869 | 17.25817 | 77° | 91km/h | 13772m | 3.9m/s | -51.9°C | 4.5% | 0hPa | 2.7V | 00:00:00 | 00:00:00 | 08:30:00 | |
| OE5DRO-10 | 2026-09-01 00:55:37 | 48.23838 | 17.25649 | 76° | 89km/h | 13747m | 4.3m/s | -51.8°C | 4.5% | 0hPa | 2.7V | 00:00:00 | 00:00:00 | 08:30:00 | |
| PETON7-10 | 2026-09-01 00:55:31 | 48.23805 | 17.25454 | 75° | 91km/h | 13718m | 4.7m/s | -51.8°C | 4.5% | 0hPa | 2.7V | 00:00:00 | 00:00:00 | 00:00:00 | |
| HA6NAB-11 | 2026-09-01 00:55:29 | 48.23799 | 17.25421 | 77° | 89km/h | 13712m | 6.3m/s | -51.9°C | 2.1% | 0hPa | 2.7V | 00:00:00 | 00:00:00 | 00:00:00 | |
| HA6NAB-11 | 2026-09-01 00:55:23 | 48.23769 | 17.25220 | 81° | 93km/h | 13681m | 4.5m/s | -52.0°C | 2.2% | 0hPa | 2.7V | 00:00:00 | 00:00:00 | 00:00:00 | |
| PG1ADW-2 | 2026-09-01 00:55:22 | 48.23762 | 17.25152 | 82° | 91km/h | 13671m | 5.2m/s | -52.0°C | 4.6% | 0hPa | 2.7V | 00:00:00 | 00:00:00 | 00:00:00 | |
| OE5DRO-10 | 2026-09-01 00:55:18 | 48.23745 | 17.25017 | 78° | 91km/h | 13651m | 5.2m/s | -52.0°C | 4.7% | 0hPa | 2.7V | 00:00:00 | 00:00:00 | 00:00:00 | |
| PETON7-10 | 2026-09-01 00:55:16 | 48.23735 | 17.24950 | 77° | 91km/h | 13640m | 4.1m/s | -52.0°C | 4.7% | 0hPa | 2.7V | 00:00:00 | 00:00:00 | 00:00:00 | |
| HA6NAB-11 | 2026-09-01 00:55:12 | 48.23719 | 17.24846 | 79° | 93km/h | 13626m | 5.1m/s | -52.2°C | 2.3% | 0hPa | 2.7V | 00:00:00 | 00:00:00 | 00:00:00 | |
| S52SK | 2026-09-01 00:55:10 | 48.23709 | 17.24777 | 78° | 93km/h | 13616m | 4.5m/s | -52.3°C | 2.3% | 0hPa | 2.7V | 00:00:00 | 00:00:00 | 00:00:00 | |
| HA6NAB-11 | 2026-09-01 00:55:07 | 48.23694 | 17.24673 | 79° | 89km/h | 13601m | 5.1m/s | -52.3°C | 2.3% | 0hPa | 2.7V | 00:00:00 | 00:00:00 | 00:00:00 | |
| S52SK | 2026-09-01 00:55:04 | 48.23680 | 17.24574 | 79° | 91km/h | 13586m | 6.0m/s | -52.2°C | 2.3% | 0hPa | 2.7V | 00:00:00 | 00:00:00 | 00:00:00 | |
| PG1ADW-2 | 2026-09-01 00:55:02 | 48.23666 | 17.24474 | 78° | 97km/h | 13571m | 4.9m/s | -52.3°C | 4.8% | 0hPa | 2.7V | 00:00:00 | 00:54:42 | 00:00:00 | |
| PETON7-10 | 2026-09-01 00:55:01 | 48.23661 | 17.24440 | 79° | 97km/h | 13567m | 3.7m/s | -52.3°C | 4.9% | 0hPa | 2.7V | 00:00:00 | 00:54:41 | 00:00:00 | |
| OE5DRO-10 | 2026-09-01 00:54:59 | 48.23642 | 17.24299 | 79° | 97km/h | 13547m | 5.9m/s | -52.3°C | 4.9% | 0hPa | 2.7V | 00:00:00 | 00:00:00 | 00:00:00 | |
| PETON7-10 | 2026-09-01 00:54:46 | 48.23587 | 17.23906 | 78° | 100km/h | 13495m | 5.8m/s | -51.9°C | 4.8% | 0hPa | 2.7V | 00:00:00 | 00:00:00 | 08:30:00 | |
| PG1ADW-2 | 2026-09-01 00:54:42 | 48.23569 | 17.23758 | 80° | 102km/h | 13476m | 4.0m/s | -51.8°C | 4.8% | 0hPa | 2.7V | 00:00:00 | 00:00:00 | 00:00:00 | |
| OE5DRO-10 | 2026-09-01 00:54:40 | 48.23548 | 17.23612 | 78° | 104km/h | 13458m | 4.5m/s | -51.6°C | 4.8% | 0hPa | 2.7V | 00:00:00 | 00:00:00 | 00:00:00 | |
| PETON7-10 | 2026-09-01 00:54:31 | 48.23514 | 17.23348 | 82° | 104km/h | 13424m | 5.7m/s | -51.3°C | 4.8% | 0hPa | 2.7V | 00:00:00 | 00:00:00 | 00:00:00 | |
| PG1ADW-2 | 2026-09-01 00:54:22 | 48.23466 | 17.22999 | 79° | 108km/h | 13382m | 5.3m/s | -51.0°C | 4.7% | 0hPa | 2.7V | 00:00:00 | 00:00:00 | 00:00:00 | |
| OE5DRO-10 | 2026-09-01 00:54:20 | 48.23437 | 17.22805 | 77° | 111km/h | 13358m | 4.2m/s | -50.9°C | 4.6% | 0hPa | 2.7V | 00:00:00 | 00:00:00 | 00:00:00 | |
| PETON7-10 | 2026-09-01 00:54:16 | 48.23430 | 17.22766 | 76° | 110km/h | 13353m | 5.5m/s | -50.9°C | 4.6% | 0hPa | 2.7V | 00:00:00 | 00:53:56 | 00:00:00 | |
| PG1ADW-2 | 2026-09-01 00:54:02 | 48.23343 | 17.22203 | 78° | 111km/h | 13288m | 4.0m/s | -50.5°C | 4.5% | 0hPa | 2.7V | 00:00:00 | 00:00:00 | 00:00:00 | |
| PETON7-10 | 2026-09-01 00:54:01 | 48.23337 | 17.22162 | 78° | 113km/h | 13284m | 5.0m/s | -50.4°C | 4.6% | 0hPa | 2.7V | 00:00:00 | 00:00:00 | 00:00:00 | |
| OE5DRO-10 | 2026-09-01 00:53:59 | 48.23310 | 17.21996 | 76° | 111km/h | 13267m | 4.2m/s | -50.3°C | 4.5% | 0hPa | 2.7V | 00:00:00 | 00:00:00 | 00:00:00 | |
| PETON7-10 | 2026-09-01 00:53:46 | 48.23226 | 17.21545 | 75° | 113km/h | 13217m | 4.0m/s | -50.0°C | 4.6% | 0hPa | 2.7V | 00:00:00 | 00:00:00 | 00:00:00 | |
| PG1ADW-2 | 2026-09-01 00:53:42 | 48.23199 | 17.21385 | 76° | 110km/h | 13197m | 5.1m/s | -49.9°C | 4.5% | 0hPa | 2.7V | 00:00:00 | 00:53:22 | 00:00:00 | |
| OE5DRO-10 | 2026-09-01 00:53:40 | 48.23165 | 17.21181 | 75° | 106km/h | 13173m | 5.5m/s | -49.7°C | 4.4% | 0hPa | 2.7V | 00:00:00 | 00:00:00 | 00:00:00 | |
| PETON7-10 | 2026-09-01 00:53:31 | 48.23125 | 17.20924 | 77° | 106km/h | 13147m | 4.6m/s | -49.5°C | 4.5% | 0hPa | 2.7V | 00:00:00 | 00:53:11 | 00:00:00 | |
| PG1ADW-2 | 2026-09-01 00:53:22 | 48.23064 | 17.20575 | 77° | 104km/h | 13108m | 4.2m/s | -49.4°C | 4.5% | 0hPa | 2.7V | 00:00:00 | 00:00:00 | 00:00:00 | |
| DO3MHA-11 | 2026-09-01 00:53:20 | 48.23051 | 17.20495 | 78° | 102km/h | 13099m | 5.1m/s | -49.5°C | 4.5% | 0hPa | 2.7V | 00:00:00 | 00:53:00 | 00:00:00 | |
| S52SK | 2026-09-01 00:53:12 | 48.23013 | 17.20231 | 78° | 104km/h | 13066m | 4.7m/s | -49.8°C | 2.5% | 0hPa | 2.7V | 00:00:00 | 00:00:00 | 00:00:00 | |
| DO3MHA-11 | 2026-09-01 00:53:10 | 48.22998 | 17.20113 | 83° | 106km/h | 13052m | 3.5m/s | -49.9°C | 4.8% | 0hPa | 2.7V | 00:00:00 | 00:52:50 | 00:00:00 | |
| PETON7-10 | 2026-09-01 00:53:08 | 48.22991 | 17.20033 | 83° | 106km/h | 13045m | 5.5m/s | -49.9°C | 4.8% | 0hPa | 2.7V | 00:00:00 | 00:00:00 | 00:00:00 | |
| S52SK | 2026-09-01 00:53:07 | 48.22991 | 17.20033 | 84° | 104km/h | 13045m | 5.5m/s | -50.0°C | 2.5% | 0hPa | 2.7V | 00:00:00 | 00:00:00 | 00:00:00 | |
| PG1ADW-2 | 2026-09-01 00:53:02 | 48.22964 | 17.19796 | 78° | 104km/h | 13018m | 4.5m/s | -49.8°C | 4.8% | 0hPa | 2.7V | 00:00:00 | 00:00:00 | 00:00:00 | |
| S52SK | 2026-09-01 00:53:01 | 48.22964 | 17.19796 | 78° | 104km/h | 13018m | 4.6m/s | -49.9°C | 2.6% | 0hPa | 2.7V | 00:00:00 | 00:00:00 | 00:00:00 | |
| DO3MHA-11 | 2026-09-01 00:53:00 | 48.22952 | 17.19718 | 78° | 104km/h | 13009m | 5.3m/s | 0°C | 0% | 0hPa | 2.7V | 00:00:00 | 00:52:40 | 08:30:00 | |
| DO3MHA-12 | 2026-09-01 00:52:55 | 48.22925 | 17.19525 | 80° | 104km/h | 12986m | 5.7m/s | 0°C | 0% | 0hPa | 2.7V | 00:00:00 | 00:52:35 | 00:00:00 | |
| PETON7-10 | 2026-09-01 00:52:53 | 48.22916 | 17.19446 | 80° | 104km/h | 12977m | 4.3m/s | -50.0°C | 4.9% | 0hPa | 2.7V | 00:00:00 | 00:00:00 | 00:00:00 | |
| DO3MHA-11 | 2026-09-01 00:52:50 | 48.22901 | 17.19330 | 81° | 104km/h | 12965m | 5.8m/s | 0°C | 0% | 0hPa | 2.7V | 00:00:00 | 00:52:30 | 00:00:00 | |
| DO3MHA-12 | 2026-09-01 00:52:45 | 48.22878 | 17.19136 | 79° | 104km/h | 12943m | 4.8m/s | 0°C | 0% | 0hPa | 2.7V | 00:00:00 | 00:52:25 | 00:00:00 | |
| PG1ADW-2 | 2026-09-01 00:52:42 | 48.22863 | 17.19020 | 81° | 106km/h | 12929m | 5.0m/s | -50.1°C | 5.1% | 0hPa | 2.7V | 00:00:00 | 00:00:00 | 08:30:00 | |
| DO3MHA-11 | 2026-09-01 00:52:40 | 48.22854 | 17.18942 | 81° | 106km/h | 12920m | 5.8m/s | 0°C | 0% | 0hPa | 2.7V | 00:00:00 | 00:52:20 | 00:00:00 | |
| PETON7-10 | 2026-09-01 00:52:38 | 48.22846 | 17.18862 | 82° | 104km/h | 12910m | 4.2m/s | -50.2°C | 5.2% | 0hPa | 2.7V | 00:00:00 | 00:52:18 | 00:00:00 | |
| HA6NAB-11 | 2026-09-01 00:52:33 | 48.22826 | 17.18706 | 77° | 106km/h | 12892m | 4.9m/s | -50.2°C | 2.9% | 0hPa | 2.7V | 00:00:00 | 00:00:00 | 00:00:00 | |
| DO3MHA-11 | 2026-09-01 00:52:30 | 48.22801 | 17.18554 | 77° | 108km/h | 12875m | 4.0m/s | 0°C | 0% | 0hPa | 2.7V | 00:00:00 | 00:52:10 | 00:00:00 | |
| HA6NAB-11 | 2026-09-01 00:52:27 | 48.22788 | 17.18476 | 78° | 108km/h | 12867m | 3.7m/s | -50.4°C | 2.9% | 0hPa | 2.7V | 00:00:00 | 00:00:00 | 00:00:00 | |
| PETON7-10 | 2026-09-01 00:52:23 | 48.22763 | 17.18279 | 82° | 111km/h | 12845m | 5.7m/s | -50.4°C | 5.2% | 0hPa | 2.7V | 00:00:00 | 00:00:00 | 08:30:00 | |
| PG1ADW-2 | 2026-09-01 00:52:22 | 48.22759 | 17.18237 | 82° | 111km/h | 12840m | 3.9m/s | -50.4°C | 5.2% | 0hPa | 2.7V | 00:00:00 | 00:52:02 | 00:00:00 | |
| HA6NAB-11 | 2026-09-01 00:52:21 | 48.22759 | 17.18237 | 83° | 111km/h | 12840m | 4.0m/s | -50.4°C | 2.9% | 0hPa | 2.7V | 00:00:00 | 00:00:00 | 00:00:00 | |
| HA6NAB-11 | 2026-09-01 00:52:16 | 48.22735 | 17.18036 | 79° | 104km/h | 12820m | 4.5m/s | -50.3°C | 2.7% | 0hPa | 2.7V | 00:00:00 | 00:00:00 | 00:00:00 | |
| DO3MHA-11 | 2026-09-01 00:52:10 | 48.22706 | 17.17739 | 81° | 111km/h | 12789m | 3.8m/s | 0°C | 0% | 0hPa | 2.7V | 00:00:00 | 00:51:50 | 00:00:00 | |
| PETON7-10 | 2026-09-01 00:52:08 | 48.22698 | 17.17655 | 83° | 113km/h | 12781m | 5.0m/s | -50.2°C | 4.8% | 0hPa | 2.7V | 00:00:00 | 00:00:00 | 00:00:00 | |
| OE5DRO-10 | 2026-09-01 00:52:04 | 48.22682 | 17.17450 | 84° | 115km/h | 12756m | 2.5m/s | -50.4°C | 5.0% | 0hPa | 2.7V | 00:00:00 | 00:00:00 | 08:30:00 | |
| PG1ADW-2 | 2026-09-01 00:52:02 | 48.22680 | 17.17408 | 85° | 117km/h | 12753m | 3.8m/s | -50.5°C | 5.0% | 0hPa | 2.7V | 00:00:00 | 00:00:00 | 00:00:00 | |
| DO3MHA-11 | 2026-09-01 00:51:59 | 48.22673 | 17.17279 | 86° | 111km/h | 12738m | 5.3m/s | 0°C | 0% | 0hPa | 2.7V | 00:00:00 | 00:51:39 | 00:00:00 | |
| PETON7-10 | 2026-09-01 00:51:53 | 48.22663 | 17.17017 | 86° | 120km/h | 12710m | 5.2m/s | -50.8°C | 5.0% | 0hPa | 2.7V | 00:00:00 | 00:51:33 | 00:00:00 | |
| DO3MHA-11 | 2026-09-01 00:51:49 | 48.22656 | 17.16851 | 88° | 124km/h | 12693m | 4.0m/s | 0°C | 0% | 0hPa | 2.7V | 00:00:00 | 00:51:29 | 00:00:00 | |
| OE5DRO-10 | 2026-09-01 00:51:45 | 48.22652 | 17.16662 | 89° | 124km/h | 12671m | 3.7m/s | -51.0°C | 5.2% | 0hPa | 2.7V | 00:00:00 | 00:00:00 | 00:00:00 | |
| PG1ADW-2 | 2026-09-01 00:51:42 | 48.22649 | 17.16519 | 87° | 124km/h | 12658m | 3.5m/s | -51.0°C | 5.3% | 0hPa | 2.7V | 00:00:00 | 00:00:00 | 00:00:00 | |
| DO3MHA-11 | 2026-09-01 00:51:39 | 48.22642 | 17.16378 | 86° | 124km/h | 12645m | 4.9m/s | 0°C | 0% | 0hPa | 2.7V | 00:00:00 | 00:51:19 | 00:00:00 | |
| PETON7-10 | 2026-09-01 00:51:38 | 48.22640 | 17.16332 | 86° | 122km/h | 12640m | 4.5m/s | -51.2°C | 5.3% | 0hPa | 2.7V | 00:00:00 | 00:00:00 | 00:00:00 | |
| DO3MHA-11 | 2026-09-01 00:51:29 | 48.22614 | 17.15908 | 83° | 122km/h | 12599m | 4.1m/s | 0°C | 0% | 0hPa | 2.7V | 00:00:00 | 00:51:09 | 00:00:00 | |
| OE5DRO-10 | 2026-09-01 00:51:26 | 48.22601 | 17.15771 | 82° | 119km/h | 12586m | 4.2m/s | -51.1°C | 5.5% | 0hPa | 2.7V | 00:00:00 | 00:00:00 | 00:00:00 | |
| PETON7-10 | 2026-09-01 00:51:23 | 48.22588 | 17.15632 | 82° | 120km/h | 12572m | 4.2m/s | -51.1°C | 5.6% | 0hPa | 2.7V | 00:00:00 | 00:00:00 | 00:00:00 | |
| PG1ADW-2 | 2026-09-01 00:51:22 | 48.22584 | 17.15586 | 83° | 119km/h | 12567m | 5.8m/s | -51.1°C | 5.6% | 0hPa | 2.7V | 00:00:00 | 00:00:00 | 00:00:00 | |
| PETON7-10 | 2026-09-01 00:51:08 | 48.22512 | 17.14962 | 81° | 117km/h | 12504m | 3.4m/s | -50.8°C | 5.9% | 0hPa | 2.7V | 00:00:00 | 00:50:48 | 00:00:00 | |
| OE5DRO-10 | 2026-09-01 00:51:07 | 48.22506 | 17.14919 | 81° | 117km/h | 12499m | 5.6m/s | -50.8°C | 5.8% | 0hPa | 2.7V | 00:00:00 | 00:00:00 | 00:00:00 | |
| PG1ADW-2 | 2026-09-01 00:51:02 | 48.22482 | 17.14699 | 82° | 119km/h | 12476m | 2.9m/s | -51.2°C | 5.9% | 0hPa | 2.7V | 00:00:00 | 00:50:42 | 00:00:00 | |
| PETON7-10 | 2026-09-01 00:50:53 | 48.22447 | 17.14306 | 85° | 120km/h | 12431m | 5.7m/s | -52.4°C | 6.3% | 0hPa | 2.7V | 00:00:00 | 00:00:00 | 00:00:00 | |
| OE5DRO-10 | 2026-09-01 00:50:48 | 48.22441 | 17.14086 | 89° | 126km/h | 12408m | 5.5m/s | -52.6°C | 6.5% | 0hPa | 2.7V | 00:00:00 | 00:00:00 | 00:00:00 | |
| PG1ADW-2 | 2026-09-01 00:50:42 | 48.22437 | 17.13808 | 88° | 128km/h | 12380m | 3.4m/s | -53.1°C | 6.7% | 0hPa | 2.7V | 00:00:00 | 00:00:00 | 00:00:00 | |
| PETON7-10 | 2026-09-01 00:50:38 | 48.22435 | 17.13622 | 91° | 130km/h | 12363m | 4.9m/s | -53.1°C | 6.9% | 0hPa | 2.7V | 00:00:00 | 00:00:00 | 00:00:00 | |
| OE5DRO-10 | 2026-09-01 00:50:29 | 48.22447 | 17.13182 | 91° | 128km/h | 12321m | 3.9m/s | -53.0°C | 7.3% | 0hPa | 2.7V | 00:00:00 | 00:00:00 | 00:00:00 | |
| PETON7-10 | 2026-09-01 00:50:23 | 48.22439 | 17.12889 | 85° | 126km/h | 12293m | 4.3m/s | -52.9°C | 7.4% | 0hPa | 2.7V | 00:00:00 | 00:50:03 | 00:00:00 | |
| PG1ADW-2 | 2026-09-01 00:50:22 | 48.22437 | 17.12842 | 87° | 128km/h | 12288m | 5.5m/s | -52.9°C | 7.3% | 0hPa | 2.7V | 00:00:00 | 00:00:00 | 00:00:00 | |
| HA6NAB-11 | 2026-09-01 00:50:18 | 48.22435 | 17.12648 | 91° | 131km/h | 12264m | 7.0m/s | -52.8°C | 4.5% | 0hPa | 2.7V | 00:00:00 | 00:00:00 | 00:00:00 | |
| OE5DRO-10 | 2026-09-01 00:50:10 | 48.22430 | 17.12262 | 89° | 122km/h | 12225m | 4.9m/s | -52.7°C | 8.2% | 0hPa | 2.7V | 00:00:00 | 00:00:00 | 00:00:00 | |
| PETON7-10 | 2026-09-01 00:50:08 | 48.22428 | 17.12168 | 88° | 122km/h | 12215m | 4.3m/s | -52.8°C | 8.5% | 0hPa | 2.7V | 00:00:00 | 00:00:00 | 08:30:00 | |
| HA6NAB-11 | 2026-09-01 00:50:06 | 48.22427 | 17.12121 | 88° | 128km/h | 12210m | 5.8m/s | -52.9°C | 5.6% | 0hPa | 2.7V | 00:00:00 | 00:00:00 | 00:00:00 | |
| PG1ADW-2 | 2026-09-01 00:50:02 | 48.22419 | 17.11875 | 88° | 119km/h | 12189m | 4.7m/s | -53.2°C | 9.5% | 0hPa | 2.7V | 00:00:00 | 00:00:00 | 00:00:00 | |
| HA6NAB-11 | 2026-09-01 00:50:00 | 48.22417 | 17.11825 | 86° | 133km/h | 12183m | 5.6m/s | -53.3°C | 6.4% | 0hPa | 2.7V | 00:00:00 | 00:00:00 | 00:00:00 | |
| HA6NAB-11 | 2026-09-01 00:49:54 | 48.22397 | 17.11562 | 83° | 108km/h | 12155m | 5.5m/s | -53.2°C | 6.9% | 0hPa | 2.7V | 00:00:00 | 00:00:00 | 00:00:00 | |
| PETON7-10 | 2026-09-01 00:49:53 | 48.22390 | 17.11477 | 84° | 117km/h | 12146m | 3.0m/s | -53.1°C | 10.3% | 0hPa | 2.7V | 00:00:00 | 00:00:00 | 00:00:00 | |
| OE5DRO-10 | 2026-09-01 00:49:51 | 48.22384 | 17.11389 | 84° | 117km/h | 12134m | 7.6m/s | -53.1°C | 10.6% | 0hPa | 2.7V | 00:00:00 | 00:00:00 | 00:00:00 | |
| HA6NAB-11 | 2026-09-01 00:49:48 | 48.22378 | 17.11304 | 87° | 111km/h | 12122m | 3.2m/s | -53.2°C | 7.9% | 0hPa | 2.7V | 00:00:00 | 00:00:00 | 00:00:00 | |
| PG1ADW-2 | 2026-09-01 00:49:42 | 48.22377 | 17.10984 | 90° | 119km/h | 12085m | 3.2m/s | -53.1°C | 12.8% | 0hPa | 2.7V | 00:00:00 | 00:49:22 | 08:30:00 | |
| PETON7-10 | 2026-09-01 00:49:38 | 48.22374 | 17.10816 | 89° | 119km/h | 12069m | 4.7m/s | -53.0°C | 13.4% | 0hPa | 2.7V | 00:00:00 | 00:49:18 | 00:00:00 | |
| OE5DRO-10 | 2026-09-01 00:49:32 | 48.22377 | 17.10543 | 92° | 128km/h | 12034m | 3.0m/s | -53.3°C | 16.1% | 0hPa | 2.7V | 00:00:00 | 00:00:00 | 00:00:00 | |
| PETON7-10 | 2026-09-01 00:49:23 | 48.22402 | 17.10138 | 93° | 137km/h | 11990m | 6.2m/s | -53.8°C | 18.8% | 0hPa | 2.7V | 00:00:00 | 00:00:00 | 00:00:00 | |
| PG1ADW-2 | 2026-09-01 00:49:22 | 48.22404 | 17.10091 | 95° | 137km/h | 11984m | 4.8m/s | -53.9°C | 19.5% | 0hPa | 2.7V | 00:00:00 | 00:00:00 | 00:00:00 | |
| OE5DRO-10 | 2026-09-01 00:49:13 | 48.22453 | 17.09573 | 93° | 142km/h | 11938m | 4.7m/s | -54.1°C | 23.5% | 0hPa | 2.7V | 00:00:00 | 00:00:00 | 08:30:00 | |
| PETON7-10 | 2026-09-01 00:49:08 | 48.22456 | 17.09366 | 92° | 148km/h | 11923m | 4.0m/s | -54.4°C | 24.0% | 0hPa | 2.7V | 00:00:00 | 00:00:00 | 00:00:00 | |
| PG1ADW-2 | 2026-09-01 00:49:02 | 48.22481 | 17.09054 | 98° | 153km/h | 11892m | 5.8m/s | -54.4°C | 26.5% | 0hPa | 2.7V | 00:00:00 | 00:00:00 | 00:00:00 | |
| OE5DRO-10 | 2026-09-01 00:48:53 | 48.22506 | 17.08549 | 97° | 159km/h | 11851m | 4.6m/s | -55.9°C | 33.6% | 0hPa | 2.7V | 00:00:00 | 00:00:00 | 00:00:00 | |
| PETON7-10 | 2026-09-01 00:48:50 | 48.22519 | 17.08377 | 98° | 161km/h | 11838m | 5.1m/s | -56.7°C | 36.7% | 0hPa | 2.7V | 00:00:00 | 00:48:30 | 00:00:00 | |
| S52SK | 2026-09-01 00:48:44 | 48.22545 | 17.08081 | 98° | 161km/h | 11820m | 4.2m/s | -57.1°C | 31.7% | 0hPa | 2.7V | 00:00:00 | 00:00:00 | 00:00:00 | |
| PG1ADW-2 | 2026-09-01 00:48:42 | 48.22559 | 17.07900 | 97° | 162km/h | 11810m | 3.8m/s | -57.1°C | 39.7% | 0hPa | 2.7V | 00:00:00 | 00:00:00 | 00:00:00 | |
| S52SK | 2026-09-01 00:48:39 | 48.22568 | 17.07779 | 97° | 161km/h | 11803m | 3.4m/s | -57.2°C | 33.1% | 0hPa | 2.7V | 00:00:00 | 00:00:00 | 00:00:00 | |
| PETON7-10 | 2026-09-01 00:48:34 | 48.22588 | 17.07407 | 94° | 162km/h | 11781m | 4.1m/s | -57.2°C | 41.9% | 0hPa | 2.7V | 00:00:00 | 00:00:00 | 00:00:00 | |
| OE3JTB-15 | 2026-09-01 00:48:30 | 48.22600 | 17.06972 | 94° | 150km/h | 11756m | 3.8m/s | -57.4°C | 44.3% | 0hPa | 2.7V | 00:00:00 | 00:00:00 | 00:00:00 | |
| PG1ADW-2 | 2026-09-01 00:48:22 | 48.22609 | 17.06667 | 93° | 153km/h | 11737m | 3.0m/s | -57.6°C | 44.9% | 0hPa | 2.7V | 00:00:00 | 00:48:02 | 00:00:00 | |
| PETON7-10 | 2026-09-01 00:48:19 | 48.22613 | 17.06484 | 92° | 151km/h | 11725m | 3.2m/s | -57.8°C | 45.9% | 0hPa | 2.7V | 00:00:00 | 00:00:00 | 00:00:00 | |
| OE5DRO-10 | 2026-09-01 00:48:06 | 48.22606 | 17.05740 | 91° | 150km/h | 11674m | 3.6m/s | -57.5°C | 46.9% | 0hPa | 2.7V | 00:00:00 | 00:00:00 | 00:00:00 | |
| PETON7-10 | 2026-09-01 00:48:04 | 48.22605 | 17.05627 | 89° | 151km/h | 11666m | 5.1m/s | -57.5°C | 45.5% | 0hPa | 2.7V | 00:00:00 | 00:47:44 | 00:00:00 | |
| PG1ADW-2 | 2026-09-01 00:48:02 | 48.22601 | 17.05509 | 86° | 150km/h | 11655m | 3.4m/s | -57.6°C | 45.8% | 0hPa | 2.7V | 00:00:00 | 00:00:00 | 00:00:00 | |
| HA6NAB-11 | 2026-09-01 00:47:56 | 48.22580 | 17.05219 | 86° | 150km/h | 11629m | 5.8m/s | -57.4°C | 39.1% | 0hPa | 2.7V | 00:00:00 | 00:00:00 | 00:00:00 | |
| HA6NAB-11 | 2026-09-01 00:47:51 | 48.22565 | 17.04946 | 85° | 148km/h | 11603m | 6.3m/s | -57.4°C | 39.4% | 0hPa | 2.7V | 00:00:00 | 00:00:00 | 00:00:00 | |
| PETON7-10 | 2026-09-01 00:47:49 | 48.22553 | 17.04774 | 86° | 144km/h | 11592m | 4.0m/s | -57.4°C | 47.4% | 0hPa | 2.7V | 00:00:00 | 00:00:00 | 08:30:00 | |
| OE5DRO-10 | 2026-09-01 00:47:47 | 48.22547 | 17.04658 | 86° | 141km/h | 11585m | 4.3m/s | -57.4°C | 47.5% | 0hPa | 2.7V | 00:00:00 | 00:00:00 | 00:00:00 | |
| HA6NAB-11 | 2026-09-01 00:47:45 | 48.22545 | 17.04601 | 87° | 150km/h | 11580m | 4.4m/s | -57.5°C | 39.6% | 0hPa | 2.7V | 00:00:00 | 00:00:00 | 00:00:00 | |
| PG1ADW-2 | 2026-09-01 00:47:42 | 48.22534 | 17.04382 | 85° | 139km/h | 11560m | 6.1m/s | -57.4°C | 47.1% | 0hPa | 2.7V | 00:00:00 | 00:00:00 | 00:00:00 | |
| HA6NAB-11 | 2026-09-01 00:47:40 | 48.22530 | 17.04327 | 86° | 142km/h | 11555m | 3.4m/s | -57.4°C | 39.0% | 0hPa | 2.7V | 00:00:00 | 00:00:00 | 00:00:00 | |
| OE3JTB-15 | 2026-09-01 00:47:36 | 48.22508 | 17.03958 | 84° | 133km/h | 11524m | 3.9m/s | -57.2°C | 47.3% | 0hPa | 2.7V | 00:00:00 | 00:47:14 | 00:00:00 | |
| PETON7-10 | 2026-09-01 00:47:34 | 48.22508 | 17.03958 | 84° | 137km/h | 11524m | 3.9m/s | -57.2°C | 47.3% | 0hPa | 2.7V | 00:00:00 | 00:00:00 | 00:00:00 | |
| OE5DRO-10 | 2026-09-01 00:47:28 | 48.22474 | 17.03597 | 82° | 131km/h | 11495m | 5.0m/s | -57.0°C | 46.0% | 0hPa | 2.7V | 00:00:00 | 00:00:00 | 00:00:00 | |
| PG1ADW-2 | 2026-09-01 00:47:22 | 48.22450 | 17.03345 | 82° | 131km/h | 11472m | 5.6m/s | -56.9°C | 46.0% | 0hPa | 2.7V | 00:00:00 | 00:00:00 | 00:00:00 | |
| PETON7-10 | 2026-09-01 00:47:19 | 48.22436 | 17.03195 | 83° | 131km/h | 11459m | 4.2m/s | -56.8°C | 46.3% | 0hPa | 2.7V | 00:00:00 | 00:46:59 | 00:00:00 | |
| OE5DRO-10 | 2026-09-01 00:47:09 | 48.22389 | 17.02712 | 82° | 133km/h | 11418m | 4.4m/s | -56.5°C | 44.1% | 0hPa | 2.7V | 00:00:00 | 00:00:00 | 00:00:00 | |
| OE3JTB-15 | 2026-09-01 00:47:07 | 48.22365 | 17.02511 | 77° | 122km/h | 11399m | 3.7m/s | -56.4°C | 44.1% | 0hPa | 2.7V | 00:00:00 | 00:00:00 | 00:00:00 | |
| PETON7-10 | 2026-09-01 00:47:04 | 48.22357 | 17.02463 | 76° | 124km/h | 11395m | 3.3m/s | -56.3°C | 43.5% | 0hPa | 2.7V | 00:00:00 | 00:00:00 | 00:00:00 | |
| PG1ADW-2 | 2026-09-01 00:47:02 | 48.22342 | 17.02372 | 77° | 126km/h | 11385m | 5.1m/s | -56.2°C | 43.4% | 0hPa | 2.7V | 00:00:00 | 00:46:42 | 00:00:00 | |
| PETON7-10 | 2026-09-01 00:46:49 | 48.22255 | 17.01774 | 81° | 126km/h | 11327m | 6.5m/s | -55.9°C | 43.1% | 0hPa | 2.7V | 00:00:00 | 00:00:00 | 00:00:00 | |
| PG1ADW-2 | 2026-09-01 00:46:42 | 48.22204 | 17.01442 | 76° | 120km/h | 11293m | 5.3m/s | -55.6°C | 41.2% | 0hPa | 2.7V | 00:00:00 | 00:00:00 | 08:30:00 | |
| S52SK | 2026-09-01 00:46:39 | 48.22189 | 17.01343 | 79° | 131km/h | 11285m | 4.1m/s | -55.5°C | 33.8% | 0hPa | 2.7V | 00:00:00 | 00:00:00 | 00:00:00 | |
| PETON7-10 | 2026-09-01 00:46:34 | 48.22159 | 17.01084 | 80° | 119km/h | 11250m | 2.7m/s | -55.1°C | 41.0% | 0hPa | 2.7V | 00:00:00 | 00:46:14 | 00:00:00 | |
| S52SK | 2026-09-01 00:46:33 | 48.22159 | 17.01084 | 80° | 110km/h | 11250m | 2.7m/s | -55.2°C | 34.0% | 0hPa | 2.7V | 00:00:00 | 00:00:00 | 00:00:00 | |
| PG1ADW-2 | 2026-09-01 00:46:22 | 48.22059 | 17.00563 | 78° | 117km/h | 11189m | 5.7m/s | -54.6°C | 38.4% | 0hPa | 2.7V | 00:00:00 | 00:00:00 | 00:00:00 | |
| PETON7-10 | 2026-09-01 00:46:19 | 48.22041 | 17.00437 | 80° | 120km/h | 11174m | 3.4m/s | -54.5°C | 39.2% | 0hPa | 2.7V | 00:00:00 | 00:00:00 | 00:00:00 | |
| PETON7-10 | 2026-09-01 00:46:04 | 48.21942 | 16.99784 | 78° | 115km/h | 11093m | 5.1m/s | -54.0°C | 38.8% | 0hPa | 2.7V | 00:00:00 | 00:00:00 | 00:00:00 | |
| PG1ADW-2 | 2026-09-01 00:46:02 | 48.21934 | 16.99702 | 86° | 115km/h | 11083m | 6.8m/s | -53.9°C | 37.7% | 0hPa | 2.7V | 00:00:00 | 00:00:00 | 00:00:00 | |
| OE5DRO-10 | 2026-09-01 00:46:00 | 48.21932 | 16.99617 | 91° | 115km/h | 11071m | 6.3m/s | -53.8°C | 37.8% | 0hPa | 2.7V | 00:00:00 | 00:00:00 | 08:30:00 | |
| PETON7-10 | 2026-09-01 00:45:46 | 48.21875 | 16.99015 | 83° | 111km/h | 10990m | 5.5m/s | -53.5°C | 35.3% | 0hPa | 2.7V | 00:00:00 | 00:45:26 | 00:00:00 | |
| OE3JTB-15 | 2026-09-01 00:45:44 | 48.21863 | 16.98846 | 86° | 111km/h | 10970m | 3.9m/s | -53.3°C | 35.6% | 0hPa | 2.7V | 00:00:00 | 00:45:22 | 00:00:00 | |
| PG1ADW-2 | 2026-09-01 00:45:42 | 48.21863 | 16.98846 | 86° | 111km/h | 10970m | 3.9m/s | -53.3°C | 35.6% | 0hPa | 2.7V | 00:00:00 | 00:45:22 | 00:00:00 | |
| HA6NAB-11 | 2026-09-01 00:45:36 | 48.21849 | 16.98637 | 85° | 113km/h | 10946m | 4.2m/s | -53.2°C | 28.9% | 0hPa | 2.7V | 00:00:00 | 00:00:00 | 00:00:00 | |
| HA6NAB-11 | 2026-09-01 00:45:32 | 48.21833 | 16.98428 | 83° | 111km/h | 10922m | 4.9m/s | -53.0°C | 27.8% | 0hPa | 2.7V | 00:00:00 | 00:00:00 | 00:00:00 | |
| PETON7-10 | 2026-09-01 00:45:31 | 48.21829 | 16.98387 | 82° | 111km/h | 10918m | 3.5m/s | -52.9°C | 33.3% | 0hPa | 2.7V | 00:00:00 | 00:00:00 | 08:30:00 | |
| HA6NAB-11 | 2026-09-01 00:45:25 | 48.21813 | 16.98181 | 85° | 111km/h | 10895m | 4.2m/s | -52.8°C | 27.5% | 0hPa | 2.7V | 00:00:00 | 00:00:00 | 00:00:00 | |
| PG1ADW-2 | 2026-09-01 00:45:22 | 48.21804 | 16.98014 | 86° | 111km/h | 10876m | 5.4m/s | -52.6°C | 32.5% | 0hPa | 2.7V | 00:00:00 | 00:00:00 | 00:00:00 | |
| HA6NAB-11 | 2026-09-01 00:45:19 | 48.21799 | 16.97927 | 87° | 117km/h | 10868m | 4.5m/s | -52.6°C | 26.6% | 0hPa | 2.7V | 00:00:00 | 00:00:00 | 00:00:00 | |
| HA6NAB-11 | 2026-09-01 00:45:13 | 48.21788 | 16.97673 | 87° | 108km/h | 10840m | 4.6m/s | -52.4°C | 26.0% | 0hPa | 2.7V | 00:00:00 | 00:00:00 | 00:00:00 | |
| HA6NAB-11 | 2026-09-01 00:45:07 | 48.21780 | 16.97421 | 90° | 106km/h | 10812m | 6.1m/s | -52.1°C | 25.6% | 0hPa | 2.7V | 00:00:00 | 00:00:00 | 00:00:00 | |
| PETON7-10 | 2026-09-01 00:45:01 | 48.21779 | 16.97124 | 88° | 115km/h | 10780m | 3.9m/s | -51.8°C | 30.1% | 0hPa | 2.7V | 00:00:00 | 00:44:41 | 00:00:00 | |
| PETON7-10 | 2026-09-01 00:44:46 | 48.21752 | 16.96477 | 87° | 117km/h | 10712m | 5.0m/s | -51.3°C | 28.4% | 0hPa | 2.7V | 00:00:00 | 00:00:00 | 00:00:00 | |
| OE3JTB-15 | 2026-09-01 00:44:43 | 48.21740 | 16.96258 | 85° | 117km/h | 10689m | 5.5m/s | -51.2°C | 27.5% | 0hPa | 2.7V | 00:00:00 | 00:00:00 | 00:00:00 | |
| PG1ADW-2 | 2026-09-01 00:44:42 | 48.21740 | 16.96258 | 85° | 117km/h | 10689m | 5.5m/s | -51.2°C | 27.5% | 0hPa | 2.7V | 00:00:00 | 00:00:00 | 00:00:00 | |
| S52SK | 2026-09-01 00:44:34 | 48.21733 | 16.95996 | 88° | 115km/h | 10660m | 3.7m/s | -51.1°C | 22.6% | 0hPa | 2.7V | 00:00:00 | 00:00:00 | 00:00:00 | |
| PETON7-10 | 2026-09-01 00:44:31 | 48.21724 | 16.95819 | 84° | 117km/h | 10642m | 5.2m/s | -50.8°C | 26.6% | 0hPa | 2.7V | 00:00:00 | 00:00:00 | 00:00:00 | |
| S52SK | 2026-09-01 00:44:29 | 48.21721 | 16.95774 | 86° | 117km/h | 10637m | 3.9m/s | -50.9°C | 21.8% | 0hPa | 2.7V | 00:00:00 | 00:00:00 | 00:00:00 | |
| OE5DRO-10 | 2026-09-01 00:44:28 | 48.21715 | 16.95640 | 88° | 115km/h | 10622m | 4.1m/s | -50.7°C | 26.0% | 0hPa | 2.7V | 00:00:00 | 00:00:00 | 00:00:00 | |
| S52SK | 2026-09-01 00:44:23 | 48.21709 | 16.95508 | 87° | 117km/h | 10607m | 4.7m/s | -50.6°C | 21.2% | 0hPa | 2.7V | 00:00:00 | 00:00:00 | 00:00:00 | |
| PG1ADW-2 | 2026-09-01 00:44:22 | 48.21705 | 16.95420 | 86° | 115km/h | 10599m | 4.1m/s | -50.5°C | 25.5% | 0hPa | 2.7V | 00:00:00 | 00:44:02 | 00:00:00 | |
| S52SK | 2026-09-01 00:44:17 | 48.21694 | 16.95249 | 86° | 117km/h | 10580m | 4.8m/s | -50.4°C | 21.3% | 0hPa | 2.7V | 00:00:00 | 00:00:00 | 00:00:00 | |
| PETON7-10 | 2026-09-01 00:44:16 | 48.21691 | 16.95160 | 88° | 115km/h | 10572m | 4.7m/s | -50.3°C | 25.5% | 0hPa | 2.7V | 00:00:00 | 00:43:56 | 00:00:00 | |
| OE3JTB-15 | 2026-09-01 00:44:14 | 48.21687 | 16.95071 | 87° | 115km/h | 10562m | 6.1m/s | -50.2°C | 25.4% | 0hPa | 2.7V | 00:00:00 | 00:43:54 | 00:00:00 | |
| S52SK | 2026-09-01 00:44:11 | 48.21684 | 16.94982 | 89° | 117km/h | 10552m | 4.5m/s | -50.2°C | 21.2% | 0hPa | 2.7V | 00:00:00 | 00:00:00 | 00:00:00 | |
| OE5DRO-10 | 2026-09-01 00:44:09 | 48.21682 | 16.94766 | 88° | 115km/h | 10531m | 4.1m/s | -50.1°C | 25.9% | 0hPa | 2.7V | 00:00:00 | 00:00:00 | 00:00:00 | |
| PETON7-10 | 2026-09-01 00:44:01 | 48.21675 | 16.94507 | 90° | 115km/h | 10502m | 4.9m/s | -49.9°C | 26.1% | 0hPa | 2.7V | 00:00:00 | 00:00:00 | 00:00:00 | |
| OE5DRO-10 | 2026-09-01 00:43:50 | 48.21662 | 16.93943 | 84° | 111km/h | 10443m | 4.9m/s | -49.4°C | 27.6% | 0hPa | 2.7V | 00:00:00 | 00:00:00 | 00:00:00 | |
| PETON7-10 | 2026-09-01 00:43:46 | 48.21656 | 16.93860 | 86° | 111km/h | 10433m | 3.9m/s | -49.4°C | 28.4% | 0hPa | 2.7V | 00:00:00 | 00:00:00 | 00:00:00 | |
| OE3JTB-15 | 2026-09-01 00:43:45 | 48.21654 | 16.93819 | 86° | 111km/h | 10428m | 5.0m/s | -49.4°C | 28.5% | 0hPa | 2.7V | 00:00:00 | 00:00:00 | 00:00:00 | |
| PG1ADW-2 | 2026-09-01 00:43:42 | 48.21651 | 16.93689 | 89° | 111km/h | 10415m | 3.4m/s | -49.3°C | 29.2% | 0hPa | 2.7V | 00:00:00 | 00:00:00 | 08:30:00 | |
| PETON7-10 | 2026-09-01 00:43:31 | 48.21626 | 16.93226 | 82° | 110km/h | 10367m | 5.0m/s | -49.0°C | 30.9% | 0hPa | 2.7V | 00:00:00 | 00:43:11 | 00:00:00 | |
| HA6NAB-11 | 2026-09-01 00:43:23 | 48.21606 | 16.92939 | 88° | 110km/h | 10336m | 3.9m/s | -48.9°C | 27.0% | 0hPa | 2.7V | 00:00:00 | 00:00:00 | 00:00:00 | |
| PG1ADW-2 | 2026-09-01 00:43:22 | 48.21602 | 16.92856 | 84° | 111km/h | 10327m | 4.7m/s | -48.9°C | 32.1% | 0hPa | 2.7V | 00:00:00 | 00:00:00 | 00:00:00 | |
| HA6NAB-11 | 2026-09-01 00:43:18 | 48.21593 | 16.92735 | 85° | 106km/h | 10314m | 4.1m/s | -48.8°C | 27.3% | 0hPa | 2.7V | 00:00:00 | 00:00:00 | 00:00:00 | |
| PETON7-10 | 2026-09-01 00:43:16 | 48.21584 | 16.92610 | 85° | 111km/h | 10300m | 4.6m/s | -48.6°C | 32.2% | 0hPa | 2.7V | 00:00:00 | 00:00:00 | 08:30:00 | |
| OE3JTB-15 | 2026-09-01 00:43:14 | 48.21576 | 16.92477 | 85° | 111km/h | 10288m | 4.2m/s | -48.6°C | 32.9% | 0hPa | 2.7V | 00:00:00 | 00:00:00 | 00:00:00 | |
| HA6NAB-11 | 2026-09-01 00:43:12 | 48.21575 | 16.92477 | 86° | 115km/h | 10288m | 4.2m/s | -48.6°C | 28.0% | 0hPa | 2.7V | 00:00:00 | 00:00:00 | 00:00:00 | |
| OE5DRO-10 | 2026-09-01 00:43:11 | 48.21569 | 16.92309 | 92° | 111km/h | 10270m | 5.0m/s | -48.5°C | 32.8% | 0hPa | 2.7V | 00:00:00 | 00:00:00 | 00:00:00 | |
| HA6NAB-11 | 2026-09-01 00:43:06 | 48.21571 | 16.92228 | 92° | 106km/h | 10260m | 4.7m/s | -48.4°C | 28.2% | 0hPa | 2.7V | 00:00:00 | 00:00:00 | 00:00:00 | |
| HA6NAB-11 | 2026-09-01 00:43:02 | 48.21568 | 16.92019 | 88° | 115km/h | 10236m | 6.0m/s | -48.3°C | 26.9% | 0hPa | 2.7V | 00:00:00 | 00:00:00 | 00:00:00 | |
| PETON7-10 | 2026-09-01 00:43:00 | 48.21564 | 16.91933 | 86° | 113km/h | 10224m | 4.3m/s | -48.1°C | 32.2% | 0hPa | 2.7V | 00:00:00 | 00:00:00 | 00:00:00 | |
| HA6NAB-11 | 2026-09-01 00:42:55 | 48.21555 | 16.91761 | 87° | 111km/h | 10205m | 5.2m/s | -48.0°C | 27.9% | 0hPa | 2.7V | 00:00:00 | 00:00:00 | 00:00:00 | |
| OE5DRO-10 | 2026-09-01 00:42:51 | 48.21555 | 16.91549 | 91° | 111km/h | 10182m | 5.1m/s | -47.9°C | 33.6% | 0hPa | 2.7V | 00:00:00 | 00:00:00 | 00:00:00 | |
| PG1ADW-2 | 2026-09-01 00:42:48 | 48.21550 | 16.91160 | 91° | 113km/h | 10140m | 4.3m/s | -47.7°C | 34.0% | 0hPa | 2.7V | 00:00:00 | 00:00:00 | 00:00:00 | |
| S52SK | 2026-09-01 00:42:44 | 48.21550 | 16.90949 | 90° | 110km/h | 10117m | 3.5m/s | -47.5°C | 28.5% | 0hPa | 2.7V | 00:00:00 | 00:00:00 | 00:00:00 | |
| OE5DRO-10 | 2026-09-01 00:42:32 | 48.21551 | 16.90741 | 90° | 115km/h | 10093m | 3.1m/s | -47.2°C | 33.4% | 0hPa | 2.7V | 00:00:00 | 00:00:00 | 00:00:00 | |
| PG1ADW-2 | 2026-09-01 00:42:22 | 48.21557 | 16.90300 | 95° | 115km/h | 10049m | 4.3m/s | -46.9°C | 32.0% | 0hPa | 2.7V | 00:00:00 | 00:00:00 | 00:00:00 | |
| PETON7-10 | 2026-09-01 00:42:15 | 48.21566 | 16.89993 | 92° | 113km/h | 10015m | 4.1m/s | -46.6°C | 32.3% | 0hPa | 2.7V | 00:00:00 | 00:00:00 | 00:00:00 | |
| OE3JTB-15 | 2026-09-01 00:42:13 | 48.21567 | 16.89865 | 91° | 115km/h | 10002m | 3.5m/s | -46.5°C | 33.0% | 0hPa | 2.7V | 00:00:00 | 00:00:00 | 00:00:00 | |
| PG1ADW-2 | 2026-09-01 00:42:02 | 48.21577 | 16.89434 | 92° | 117km/h | 9958m | 5.9m/s | -46.1°C | 30.9% | 0hPa | 2.7V | 00:00:00 | 00:00:00 | 00:00:00 | |
| PETON7-10 | 2026-09-01 00:42:00 | 48.21579 | 16.89345 | 93° | 115km/h | 9946m | 3.9m/s | -46.0°C | 31.0% | 0hPa | 2.7V | 00:00:00 | 00:41:40 | 00:00:00 | |
| OE5DRO-10 | 2026-09-01 00:41:54 | 48.21588 | 16.89046 | 93° | 117km/h | 9912m | 5.6m/s | -45.7°C | 29.8% | 0hPa | 2.7V | 00:00:00 | 00:00:00 | 08:30:00 | |
| PETON7-10 | 2026-09-01 00:41:45 | 48.21593 | 16.88687 | 91° | 119km/h | 9872m | 5.4m/s | -45.3°C | 29.7% | 0hPa | 2.7V | 00:00:00 | 00:00:00 | 00:00:00 | |
| OE3JTB-15 | 2026-09-01 00:41:44 | 48.21593 | 16.88643 | 92° | 119km/h | 9866m | 5.0m/s | -45.3°C | 29.6% | 0hPa | 2.7V | 00:00:00 | 00:00:00 | 00:00:00 | |
| PG1ADW-2 | 2026-09-01 00:41:42 | 48.21595 | 16.88554 | 92° | 120km/h | 9857m | 6.0m/s | -45.2°C | 29.0% | 0hPa | 2.7V | 00:00:00 | 00:41:22 | 00:00:00 | |
| HA6NAB-11 | 2026-09-01 00:41:37 | 48.21600 | 16.88378 | 94° | 117km/h | 9835m | 4.1m/s | -45.0°C | 25.0% | 0hPa | 2.9V | 00:00:00 | 00:00:00 | 00:00:00 | |
| OE5DRO-10 | 2026-09-01 00:41:35 | 48.21604 | 16.88199 | 92° | 120km/h | 9815m | 5.5m/s | -44.8°C | 28.4% | 0hPa | 2.9V | 00:00:00 | 00:00:00 | 00:00:00 | |
| HA6NAB-11 | 2026-09-01 00:41:32 | 48.21605 | 16.88153 | 92° | 120km/h | 9810m | 5.6m/s | -44.8°C | 24.4% | 0hPa | 2.9V | 00:00:00 | 00:00:00 | 00:00:00 | |
| PETON7-10 | 2026-09-01 00:41:29 | 48.21609 | 16.87964 | 94° | 120km/h | 9790m | 5.1m/s | -44.5°C | 27.5% | 0hPa | 2.9V | 00:00:00 | 00:00:00 | 00:00:00 | |
| HA6NAB-11 | 2026-09-01 00:41:26 | 48.21611 | 16.87868 | 92° | 126km/h | 9780m | 5.4m/s | -44.5°C | 23.8% | 0hPa | 2.9V | 00:00:00 | 00:00:00 | 00:00:00 | |
| PG1ADW-2 | 2026-09-01 00:41:22 | 48.21617 | 16.87644 | 93° | 119km/h | 9756m | 6.0m/s | -44.2°C | 26.7% | 0hPa | 2.9V | 00:00:00 | 00:00:00 | 00:00:00 | |
| HA6NAB-11 | 2026-09-01 00:41:21 | 48.21617 | 16.87644 | 93° | 117km/h | 9756m | 6.1m/s | -44.3°C | 22.9% | 0hPa | 2.9V | 00:00:00 | 00:00:00 | 00:00:00 | |
| OE5DRO-10 | 2026-09-01 00:41:16 | 48.21625 | 16.87328 | 91° | 119km/h | 9723m | 4.1m/s | -43.9°C | 26.3% | 0hPa | 2.9V | 00:00:00 | 00:00:00 | 00:00:00 | |
| OE3JTB-15 | 2026-09-01 00:41:15 | 48.21625 | 16.87281 | 91° | 119km/h | 9717m | 5.7m/s | -43.9°C | 26.2% | 0hPa | 2.9V | 00:00:00 | 00:40:54 | 00:00:00 | |
| PETON7-10 | 2026-09-01 00:41:14 | 48.21625 | 16.87281 | 91° | 119km/h | 9717m | 5.7m/s | -43.9°C | 26.2% | 0hPa | 2.9V | 00:00:00 | 00:40:54 | 00:00:00 | |
| PG1ADW-2 | 2026-09-01 00:41:02 | 48.21638 | 16.86746 | 92° | 117km/h | 9660m | 4.6m/s | -43.3°C | 24.9% | 0hPa | 2.9V | 00:00:00 | 00:00:00 | 00:00:00 | |
| PETON7-10 | 2026-09-01 00:40:59 | 48.21638 | 16.86609 | 89° | 117km/h | 9645m | 4.7m/s | -43.2°C | 24.5% | 0hPa | 2.9V | 00:00:00 | 00:00:00 | 08:30:00 | |
| OE5DRO-10 | 2026-09-01 00:40:56 | 48.21637 | 16.86476 | 92° | 119km/h | 9630m | 4.8m/s | -43.0°C | 24.6% | 0hPa | 2.9V | 00:00:00 | 00:00:00 | 00:00:00 | |
| OE3JTB-15 | 2026-09-01 00:40:46 | 48.21643 | 16.85947 | 96° | 117km/h | 9573m | 4.0m/s | -42.5°C | 23.0% | 0hPa | 2.9V | 00:00:00 | 00:00:00 | 08:30:00 | |
| PETON7-10 | 2026-09-01 00:40:44 | 48.21643 | 16.85947 | 96° | 117km/h | 9573m | 4.0m/s | -42.5°C | 23.0% | 0hPa | 2.7V | 00:00:00 | 00:00:00 | 00:00:00 | |
| PG1ADW-2 | 2026-09-01 00:40:42 | 48.21649 | 16.85856 | 96° | 117km/h | 9564m | 5.4m/s | -42.4°C | 22.6% | 0hPa | 2.7V | 00:00:00 | 00:00:00 | 08:30:00 | |
| S52SK | 2026-09-01 00:40:39 | 48.21654 | 16.85764 | 94° | 120km/h | 9553m | 5.4m/s | -42.4°C | 19.3% | 0hPa | 2.9V | 00:00:00 | 00:00:00 | 00:00:00 | |
| OE5DRO-10 | 2026-09-01 00:40:37 | 48.21657 | 16.85631 | 91° | 115km/h | 9538m | 4.6m/s | -42.2°C | 22.0% | 0hPa | 2.9V | 00:00:00 | 00:00:00 | 00:00:00 | |
| S52SK | 2026-09-01 00:40:33 | 48.21660 | 16.85501 | 94° | 115km/h | 9523m | 4.3m/s | -42.1°C | 18.7% | 0hPa | 2.9V | 00:00:00 | 00:00:00 | 00:00:00 | |
| PETON7-10 | 2026-09-01 00:40:28 | 48.21669 | 16.85239 | 95° | 113km/h | 9494m | 4.4m/s | -41.8°C | 21.5% | 0hPa | 2.9V | 00:00:00 | 00:40:08 | 00:00:00 | |
| PG1ADW-2 | 2026-09-01 00:40:22 | 48.21680 | 16.84980 | 93° | 115km/h | 9467m | 4.9m/s | -41.5°C | 21.4% | 0hPa | 2.9V | 00:00:00 | 00:40:02 | 00:00:00 | |
| PETON7-10 | 2026-09-01 00:40:12 | 48.21689 | 16.84553 | 92° | 119km/h | 9418m | 5.6m/s | -41.1°C | 20.9% | 0hPa | 2.9V | 00:00:00 | 00:00:00 | 00:00:00 | |
| HA6NAB-11 | 2026-09-01 00:40:04 | 48.21690 | 16.84237 | 94° | 117km/h | 9387m | 5.1m/s | -40.8°C | 17.8% | 0hPa | 2.9V | 00:00:00 | 00:00:00 | 00:00:00 | |
| PG1ADW-2 | 2026-09-01 00:40:02 | 48.21692 | 16.84104 | 92° | 117km/h | 9372m | 4.0m/s | -40.6°C | 20.6% | 0hPa | 2.9V | 00:00:00 | 00:00:00 | 00:00:00 | |
| OE3JTB-15 | 2026-09-01 00:40:00 | 48.21695 | 16.84014 | 94° | 117km/h | 9362m | 5.0m/s | -40.5°C | 20.6% | 0hPa | 2.9V | 00:00:00 | 00:00:00 | 00:00:00 | |
| OE5DRO-10 | 2026-09-01 00:39:59 | 48.21697 | 16.83968 | 94° | 117km/h | 9358m | 3.4m/s | -40.5°C | 20.6% | 0hPa | 2.9V | 00:00:00 | 00:00:00 | 00:00:00 | |
| HA6NAB-11 | 2026-09-01 00:39:58 | 48.21697 | 16.83968 | 95° | 122km/h | 9358m | 3.4m/s | -40.5°C | 17.8% | 0hPa | 2.9V | 00:00:00 | 00:00:00 | 00:00:00 | |
| PETON7-10 | 2026-09-01 00:39:57 | 48.21700 | 16.83875 | 93° | 117km/h | 9348m | 4.6m/s | -40.4°C | 20.9% | 0hPa | 2.9V | 00:00:00 | 00:00:00 | 00:00:00 | |
| HA6NAB-11 | 2026-09-01 00:39:52 | 48.21704 | 16.83699 | 93° | 117km/h | 9329m | 5.5m/s | -40.3°C | 18.2% | 0hPa | 2.9V | 00:00:00 | 00:00:00 | 00:00:00 | |
| HA6NAB-11 | 2026-09-01 00:39:47 | 48.21710 | 16.83479 | 92° | 117km/h | 9304m | 5.1m/s | -40.1°C | 18.7% | 0hPa | 2.9V | 00:00:00 | 00:00:00 | 00:00:00 | |
| PETON7-10 | 2026-09-01 00:39:42 | 48.21711 | 16.83215 | 91° | 115km/h | 9275m | 5.2m/s | -39.7°C | 21.7% | 0hPa | 2.9V | 00:00:00 | 00:39:22 | 00:00:00 | |
| HA6NAB-11 | 2026-09-01 00:39:41 | 48.21711 | 16.83215 | 92° | 113km/h | 9275m | 5.2m/s | -39.8°C | 0% | 0hPa | 2.9V | 00:00:00 | 00:00:00 | 00:00:00 | |
| OE5DRO-10 | 2026-09-01 00:39:40 | 48.21710 | 16.83129 | 90° | 115km/h | 9263m | 5.4m/s | -39.6°C | 22.0% | 0hPa | 2.9V | 00:00:00 | 00:00:00 | 00:00:00 | |
| HA6NAB-11 | 2026-09-01 00:39:35 | 48.21713 | 16.82954 | 95° | 115km/h | 9243m | 4.4m/s | -39.5°C | 0% | 0hPa | 2.9V | 00:00:00 | 00:00:00 | 00:00:00 | |
| OE3JTB-15 | 2026-09-01 00:39:31 | 48.21724 | 16.82692 | 93° | 113km/h | 9216m | 3.9m/s | -39.2°C | 21.7% | 0hPa | 2.9V | 00:00:00 | 00:39:10 | 00:00:00 | |
| PETON7-10 | 2026-09-01 00:39:27 | 48.21728 | 16.82562 | 93° | 117km/h | 9202m | 5.5m/s | -39.1°C | 21.3% | 0hPa | 2.9V | 00:00:00 | 00:00:00 | 00:00:00 | |
| PG1ADW-2 | 2026-09-01 00:39:22 | 48.21730 | 16.82350 | 88° | 119km/h | 9177m | 4.1m/s | -38.9°C | 21.4% | 0hPa | 2.9V | 00:00:00 | 00:00:00 | 00:00:00 | |
| OE5DRO-10 | 2026-09-01 00:39:21 | 48.21729 | 16.82307 | 87° | 119km/h | 9172m | 5.4m/s | -38.8°C | 21.2% | 0hPa | 2.9V | 00:00:00 | 00:00:00 | 00:00:00 | |
| PETON7-10 | 2026-09-01 00:39:12 | 48.21727 | 16.81895 | 91° | 117km/h | 9124m | 5.0m/s | -38.4°C | 21.7% | 0hPa | 2.9V | 00:00:00 | 00:00:00 | 00:00:00 | |
| PG1ADW-2 | 2026-09-01 00:39:02 | 48.21735 | 16.81451 | 90° | 117km/h | 9077m | 4.9m/s | -38.0°C | 23.0% | 0hPa | 2.9V | 00:00:00 | 00:38:42 | 00:00:00 | |
| PETON7-10 | 2026-09-01 00:38:57 | 48.21726 | 16.81230 | 86° | 117km/h | 9055m | 4.6m/s | -37.8°C | 21.8% | 0hPa | 2.9V | 00:00:00 | 00:38:37 | 00:00:00 | |
| OE3JTB-15 | 2026-09-01 00:38:46 | 48.21727 | 16.80662 | 88° | 113km/h | 8991m | 3.4m/s | -37.2°C | 21.2% | 0hPa | 2.9V | 00:00:00 | 00:00:00 | 00:00:00 | |
| OE5DRO-10 | 2026-09-01 00:38:43 | 48.21726 | 16.80617 | 89° | 115km/h | 8987m | 5.4m/s | -37.2°C | 20.9% | 0hPa | 2.7V | 00:00:00 | 00:00:00 | 00:00:00 | |
| PETON7-10 | 2026-09-01 00:38:42 | 48.21726 | 16.80571 | 90° | 113km/h | 8982m | 4.6m/s | -37.1°C | 21.0% | 0hPa | 2.7V | 00:00:00 | 00:00:00 | 08:30:00 | |
| S52SK | 2026-09-01 00:38:35 | 48.21727 | 16.80308 | 92° | 117km/h | 8954m | 5.8m/s | -36.9°C | 17.8% | 0hPa | 2.9V | 00:00:00 | 00:00:00 | 00:00:00 | |
| S52SK | 2026-09-01 00:38:29 | 48.21730 | 16.80053 | 89° | 110km/h | 8927m | 3.7m/s | -36.7°C | 17.6% | 0hPa | 2.9V | 00:00:00 | 00:00:00 | 00:00:00 | |
| PETON7-10 | 2026-09-01 00:38:27 | 48.21728 | 16.79927 | 91° | 115km/h | 8914m | 5.4m/s | -36.5°C | 19.6% | 0hPa | 2.9V | 00:00:00 | 00:00:00 | 00:00:00 | |
| OE5DRO-10 | 2026-09-01 00:38:24 | 48.21731 | 16.79796 | 93° | 115km/h | 8901m | 6.0m/s | -36.3°C | 19.0% | 0hPa | 2.9V | 00:00:00 | 00:00:00 | 00:00:00 | |
| PG1ADW-2 | 2026-09-01 00:38:22 | 48.21733 | 16.79709 | 91° | 115km/h | 8890m | 4.0m/s | -36.3°C | 18.8% | 0hPa | 2.9V | 00:00:00 | 00:00:00 | 00:00:00 | |
| PETON7-10 | 2026-09-01 00:38:12 | 48.21730 | 16.79275 | 92° | 113km/h | 8839m | 3.7m/s | -35.8°C | 17.9% | 0hPa | 2.9V | 00:00:00 | 00:37:52 | 00:00:00 | |
| OE3JTB-15 | 2026-09-01 00:38:05 | 48.21735 | 16.78973 | 94° | 113km/h | 8808m | 6.2m/s | -35.5°C | 18.6% | 0hPa | 2.9V | 00:00:00 | 00:00:00 | 00:00:00 | |
| PG1ADW-2 | 2026-09-01 00:38:02 | 48.21741 | 16.78847 | 95° | 113km/h | 8793m | 5.0m/s | -35.4°C | 18.5% | 0hPa | 2.9V | 00:00:00 | 00:00:00 | 00:00:00 | |
| PETON7-10 | 2026-09-01 00:37:57 | 48.21746 | 16.78628 | 92° | 111km/h | 8768m | 6.4m/s | -35.1°C | 17.2% | 0hPa | 2.9V | 00:00:00 | 00:00:00 | 00:00:00 | |
| OE5DRO-10 | 2026-09-01 00:37:46 | 48.21756 | 16.78126 | 94° | 115km/h | 8716m | 3.7m/s | -34.6°C | 15.3% | 0hPa | 2.9V | 00:00:00 | 00:00:00 | 00:00:00 | |
| PETON7-10 | 2026-09-01 00:37:42 | 48.21759 | 16.77993 | 91° | 115km/h | 8702m | 6.3m/s | -34.5°C | 14.6% | 0hPa | 2.9V | 00:00:00 | 00:00:00 | 00:00:00 | |
| OE3JTB-15 | 2026-09-01 00:37:35 | 48.21766 | 16.77693 | 92° | 115km/h | 8670m | 5.6m/s | -34.2°C | 14.7% | 0hPa | 2.9V | 00:00:00 | 00:37:15 | 00:00:00 | |
| PETON7-10 | 2026-09-01 00:37:27 | 48.21772 | 16.77343 | 94° | 115km/h | 8631m | 4.1m/s | -33.9°C | 15.7% | 0hPa | 2.9V | 00:00:00 | 00:37:07 | 00:00:00 | |
| PG1ADW-2 | 2026-09-01 00:37:22 | 48.21783 | 16.77122 | 93° | 115km/h | 8607m | 3.5m/s | -33.8°C | 15.8% | 0hPa | 2.9V | 00:00:00 | 00:00:00 | 00:00:00 | |
| PETON7-10 | 2026-09-01 00:37:12 | 48.21792 | 16.76692 | 92° | 117km/h | 8560m | 3.6m/s | -33.4°C | 14.7% | 0hPa | 2.9V | 00:00:00 | 00:00:00 | 00:00:00 | |
| OE5DRO-10 | 2026-09-01 00:37:08 | 48.21797 | 16.76517 | 93° | 115km/h | 8540m | 6.0m/s | -33.2°C | 14.3% | 0hPa | 2.9V | 00:00:00 | 00:00:00 | 00:00:00 | |
| OE3JTB-15 | 2026-09-01 00:37:04 | 48.21805 | 16.76336 | 95° | 115km/h | 8520m | 4.5m/s | -33.0°C | 14.0% | 0hPa | 2.9V | 00:00:00 | 00:00:00 | 00:00:00 | |
| PG1ADW-2 | 2026-09-01 00:37:02 | 48.21809 | 16.76246 | 94° | 113km/h | 8512m | 2.9m/s | -33.0°C | 13.9% | 0hPa | 2.7V | 00:00:00 | 00:00:00 | 00:00:00 | |
| HA6NAB-11 | 2026-09-01 00:37:00 | 48.21811 | 16.76202 | 94° | 115km/h | 8507m | 6.1m/s | -33.0°C | 0% | 0hPa | 2.7V | 00:00:00 | 00:00:00 | 00:00:00 | |
| PETON7-10 | 2026-09-01 00:36:57 | 48.21815 | 16.76029 | 94° | 111km/h | 8486m | 6.4m/s | -32.8°C | 13.8% | 0hPa | 2.7V | 00:00:00 | 00:00:00 | 00:00:00 | |
| HA6NAB-11 | 2026-09-01 00:36:55 | 48.21816 | 16.75985 | 94° | 115km/h | 8481m | 4.2m/s | -32.8°C | 0% | 0hPa | 2.7V | 00:00:00 | 00:00:00 | 00:00:00 | |
| OE5DRO-10 | 2026-09-01 00:36:49 | 48.21817 | 16.75688 | 90° | 113km/h | 8450m | 4.8m/s | -32.4°C | 13.7% | 0hPa | 2.7V | 00:00:00 | 00:00:00 | 00:00:00 | |
| HA6NAB-11 | 2026-09-01 00:36:44 | 48.21820 | 16.75517 | 92° | 110km/h | 8432m | 6.4m/s | -32.3°C | 0% | 0hPa | 2.7V | 00:00:00 | 00:00:00 | 00:00:00 | |
| PETON7-10 | 2026-09-01 00:36:42 | 48.21818 | 16.75395 | 88° | 115km/h | 8418m | 5.4m/s | -32.1°C | 13.7% | 0hPa | 2.7V | 00:00:00 | 00:36:22 | 00:00:00 | |
| S52SK | 2026-09-01 00:36:41 | 48.21819 | 16.75395 | 89° | 110km/h | 8418m | 5.4m/s | -32.2°C | 12.1% | 0hPa | 2.7V | 00:00:00 | 00:00:00 | 00:00:00 | |
| HA6NAB-11 | 2026-09-01 00:36:38 | 48.21819 | 16.75265 | 94° | 117km/h | 8405m | 5.1m/s | -32.1°C | 0% | 0hPa | 2.7V | 00:00:00 | 00:00:00 | 00:00:00 | |
| S52SK | 2026-09-01 00:36:37 | 48.21823 | 16.75177 | 95° | 117km/h | 8396m | 4.8m/s | -32.0°C | 12.0% | 0hPa | 2.7V | 00:00:00 | 00:00:00 | 00:00:00 | |
| HA6NAB-11 | 2026-09-01 00:36:33 | 48.21826 | 16.75002 | 90° | 117km/h | 8378m | 4.1m/s | -31.8°C | 0% | 0hPa | 2.7V | 00:00:00 | 00:00:00 | 00:00:00 | |
| OE5DRO-10 | 2026-09-01 00:36:30 | 48.21824 | 16.74869 | 89° | 115km/h | 8364m | 3.7m/s | -31.7°C | 13.7% | 0hPa | 2.7V | 00:00:00 | 00:00:00 | 00:00:00 | |
| PETON7-10 | 2026-09-01 00:36:27 | 48.21822 | 16.74743 | 89° | 117km/h | 8352m | 3.6m/s | -31.6°C | 13.7% | 0hPa | 2.7V | 00:00:00 | 00:00:00 | 08:30:00 | |
| PETON7-10 | 2026-09-01 00:36:12 | 48.21840 | 16.74084 | 91° | 113km/h | 8285m | 3.2m/s | -31.2°C | 16.0% | 0hPa | 2.9V | 00:00:00 | 00:00:00 | 00:00:00 | |
| OE5DRO-10 | 2026-09-01 00:36:11 | 48.21840 | 16.73998 | 91° | 113km/h | 8277m | 3.8m/s | -31.1°C | 15.9% | 0hPa | 2.9V | 00:00:00 | 00:00:00 | 08:30:00 | |
| PG1ADW-2 | 2026-09-01 00:36:02 | 48.21849 | 16.73653 | 90° | 111km/h | 8239m | 3.0m/s | -30.8°C | 16.1% | 0hPa | 2.9V | 00:00:00 | 00:00:00 | 00:00:00 | |
| PETON7-10 | 2026-09-01 00:35:57 | 48.21855 | 16.73438 | 95° | 111km/h | 8216m | 4.7m/s | -30.6°C | 16.2% | 0hPa | 2.9V | 00:00:00 | 00:35:37 | 00:00:00 | |
| OE5DRO-10 | 2026-09-01 00:35:52 | 48.21863 | 16.73188 | 92° | 111km/h | 8190m | 3.4m/s | -30.4°C | 0% | 0hPa | 2.9V | 00:00:00 | 00:00:00 | 00:00:00 | |
| PETON7-10 | 2026-09-01 00:35:42 | 48.21870 | 16.72808 | 95° | 111km/h | 8149m | 3.4m/s | -30.0°C | 15.7% | 0hPa | 2.9V | 00:00:00 | 00:00:00 | 00:00:00 | |
| OE5DRO-10 | 2026-09-01 00:35:33 | 48.21880 | 16.72342 | 94° | 111km/h | 8091m | 5.9m/s | -29.5°C | 14.5% | 0hPa | 2.9V | 00:00:00 | 00:00:00 | 00:00:00 | |
| PETON7-10 | 2026-09-01 00:35:27 | 48.21884 | 16.72177 | 91° | 110km/h | 8073m | 3.5m/s | -29.3°C | 14.2% | 0hPa | 2.9V | 00:00:00 | 00:00:00 | 00:00:00 | |
| PG1ADW-2 | 2026-09-01 00:35:22 | 48.21882 | 16.71969 | 90° | 111km/h | 8049m | 6.3m/s | -29.1°C | 13.5% | 0hPa | 2.9V | 00:00:00 | 00:00:00 | 00:00:00 | |
| HA6NAB-11 | 2026-09-01 00:35:19 | 48.21882 | 16.71886 | 92° | 113km/h | 8038m | 5.2m/s | -29.1°C | 0% | 0hPa | 2.9V | 00:00:00 | 00:00:00 | 00:00:00 | |
| HA6NAB-11 | 2026-09-01 00:35:14 | 48.21892 | 16.71675 | 96° | 108km/h | 8013m | 3.5m/s | -28.9°C | 0% | 0hPa | 2.9V | 00:00:00 | 00:00:00 | 00:00:00 | |
| PETON7-10 | 2026-09-01 00:35:12 | 48.21896 | 16.71552 | 91° | 111km/h | 7999m | 4.8m/s | -28.7°C | 13.2% | 0hPa | 2.9V | 00:00:00 | 00:34:52 | 00:00:00 | |
| HA6NAB-11 | 2026-09-01 00:35:08 | 48.21896 | 16.71425 | 91° | 115km/h | 7985m | 4.7m/s | -28.6°C | 0% | 0hPa | 2.9V | 00:00:00 | 00:00:00 | 00:00:00 | |
| PG1ADW-2 | 2026-09-01 00:35:03 | 48.21892 | 16.71129 | 86° | 115km/h | 7952m | 2.6m/s | -28.3°C | 13.6% | 0hPa | 2.9V | 00:00:00 | 00:34:42 | 00:00:00 | |
| PETON7-10 | 2026-09-01 00:34:57 | 48.21887 | 16.70916 | 94° | 117km/h | 7931m | 5.7m/s | -28.2°C | 13.6% | 0hPa | 2.9V | 00:00:00 | 00:00:00 | 00:00:00 | |
| OE5DRO-10 | 2026-09-01 00:34:55 | 48.21897 | 16.70744 | 94° | 111km/h | 7910m | 2.2m/s | -28.0°C | 14.1% | 0hPa | 2.7V | 00:00:00 | 00:00:00 | 00:00:00 | |
| HA6NAB-11 | 2026-09-01 00:34:51 | 48.21899 | 16.70701 | 94° | 113km/h | 7906m | 5.5m/s | -28.0°C | 0% | 0hPa | 2.7V | 00:00:00 | 00:00:00 | 00:00:00 | |
| PETON7-10 | 2026-09-01 00:34:42 | 48.21906 | 16.70261 | 94° | 110km/h | 7861m | 5.0m/s | -27.6°C | 13.9% | 0hPa | 2.7V | 00:00:00 | 00:00:00 | 00:00:00 | |
| OE5DRO-10 | 2026-09-01 00:34:36 | 48.21911 | 16.69981 | 92° | 113km/h | 7832m | 5.4m/s | -27.3°C | 13.8% | 0hPa | 2.7V | 00:00:00 | 00:00:00 | 00:00:00 | |
| PETON7-10 | 2026-09-01 00:34:27 | 48.21912 | 16.69643 | 93° | 113km/h | 7792m | 3.7m/s | -27.0°C | 13.6% | 0hPa | 2.7V | 00:00:00 | 00:34:07 | 00:00:00 | |
| PG1ADW-2 | 2026-09-01 00:34:22 | 48.21921 | 16.69427 | 94° | 113km/h | 7771m | 3.9m/s | -26.9°C | 12.9% | 0hPa | 2.7V | 00:00:00 | 00:00:00 | 00:00:00 | |
| OE5DRO-10 | 2026-09-01 00:34:17 | 48.21929 | 16.69209 | 94° | 113km/h | 7750m | 5.1m/s | -26.7°C | 12.6% | 0hPa | 2.7V | 00:00:00 | 00:00:00 | 00:00:00 | |
| PETON7-10 | 2026-09-01 00:34:12 | 48.21944 | 16.69001 | 98° | 113km/h | 7729m | 4.1m/s | -26.5°C | 12.4% | 0hPa | 2.9V | 00:00:00 | 00:00:00 | 08:30:00 | |
| S52SK | 2026-09-01 00:34:07 | 48.21954 | 16.68833 | 95° | 113km/h | 7713m | 4.6m/s | -26.4°C | 11.0% | 0hPa | 2.9V | 00:00:00 | 00:00:00 | 00:00:00 | |
| PG1ADW-2 | 2026-09-01 00:34:02 | 48.21960 | 16.68570 | 94° | 115km/h | 7686m | 4.9m/s | -26.2°C | 11.7% | 0hPa | 2.9V | 00:00:00 | 00:00:00 | 00:00:00 | |
| S52SK | 2026-09-01 00:34:01 | 48.21960 | 16.68570 | 94° | 113km/h | 7686m | 4.9m/s | -26.2°C | 10.6% | 0hPa | 2.9V | 00:00:00 | 00:00:00 | 00:00:00 | |
| OE5DRO-10 | 2026-09-01 00:33:58 | 48.21972 | 16.68401 | 96° | 113km/h | 7668m | 5.5m/s | -26.0°C | 11.9% | 0hPa | 2.9V | 00:00:00 | 00:00:00 | 00:00:00 | |
| PETON7-10 | 2026-09-01 00:33:57 | 48.21974 | 16.68358 | 95° | 115km/h | 7663m | 3.5m/s | -26.0°C | 11.9% | 0hPa | 2.9V | 00:00:00 | 00:00:00 | 00:00:00 | |
| PETON7-10 | 2026-09-01 00:33:42 | 48.22003 | 16.67707 | 94° | 113km/h | 7586m | 5.5m/s | -25.3°C | 10.6% | 0hPa | 2.9V | 00:00:00 | 00:33:22 | 00:00:00 | |
| OE3JTB-15 | 2026-09-01 00:33:41 | 48.22008 | 16.67581 | 93° | 115km/h | 7572m | 3.9m/s | -25.2°C | 10.5% | 0hPa | 2.9V | 00:00:00 | 00:00:00 | 00:00:00 | |
| OE5DRO-10 | 2026-09-01 00:33:39 | 48.22009 | 16.67539 | 93° | 115km/h | 7568m | 4.0m/s | -25.2°C | 10.4% | 0hPa | 2.9V | 00:00:00 | 00:00:00 | 00:00:00 | |
| HA6NAB-11 | 2026-09-01 00:33:33 | 48.22017 | 16.67367 | 96° | 119km/h | 7550m | 4.0m/s | -25.1°C | 0% | 0hPa | 2.9V | 00:00:00 | 00:00:00 | 00:00:00 | |
| PETON7-10 | 2026-09-01 00:33:27 | 48.22027 | 16.67061 | 94° | 117km/h | 7522m | 4.6m/s | -24.8°C | 9.9% | 0hPa | 2.9V | 00:00:00 | 00:00:00 | 00:00:00 | |
| PG1ADW-2 | 2026-09-01 00:33:22 | 48.22033 | 16.66836 | 91° | 117km/h | 7502m | 4.0m/s | -24.6°C | 9.6% | 0hPa | 2.9V | 00:00:00 | 00:00:00 | 00:00:00 | |
| HA6NAB-11 | 2026-09-01 00:33:21 | 48.22033 | 16.66836 | 92° | 119km/h | 7502m | 4.0m/s | -24.7°C | 0% | 0hPa | 2.9V | 00:00:00 | 00:00:00 | 00:00:00 | |
| OE5DRO-10 | 2026-09-01 00:33:20 | 48.22037 | 16.66706 | 95° | 117km/h | 7490m | 4.1m/s | -24.5°C | 9.2% | 0hPa | 2.9V | 00:00:00 | 00:00:00 | 08:30:00 | |
| HA6NAB-11 | 2026-09-01 00:33:15 | 48.22045 | 16.66580 | 97° | 113km/h | 7477m | 3.6m/s | -24.5°C | 0% | 0hPa | 2.9V | 00:00:00 | 00:00:00 | 00:00:00 | |
| PETON7-10 | 2026-09-01 00:33:12 | 48.22059 | 16.66401 | 96° | 119km/h | 7459m | 5.4m/s | -24.3°C | 8.2% | 0hPa | 2.9V | 00:00:00 | 00:00:00 | 00:00:00 | |
| HA6NAB-11 | 2026-09-01 00:33:09 | 48.22063 | 16.66309 | 94° | 120km/h | 7451m | 3.9m/s | -24.3°C | 0% | 0hPa | 2.9V | 00:00:00 | 00:00:00 | 00:00:00 | |
| PG1ADW-2 | 2026-09-01 00:33:02 | 48.22071 | 16.65950 | 92° | 111km/h | 7418m | 5.1m/s | -24.1°C | 6.9% | 0hPa | 2.9V | 00:00:00 | 00:00:00 | 00:00:00 | |
| OE5DRO-10 | 2026-09-01 00:33:01 | 48.22075 | 16.65818 | 94° | 111km/h | 7405m | 4.6m/s | -24.0°C | 6.6% | 0hPa | 2.9V | 00:00:00 | 00:00:00 | 00:00:00 | |
| PETON7-10 | 2026-09-01 00:32:57 | 48.22078 | 16.65725 | 93° | 110km/h | 7396m | 3.5m/s | -23.9°C | 6.4% | 0hPa | 2.9V | 00:00:00 | 00:32:37 | 00:00:00 | |
| PETON7-10 | 2026-09-01 00:32:42 | 48.22089 | 16.65104 | 87° | 104km/h | 7323m | 6.1m/s | -23.3°C | 6.0% | 0hPa | 2.9V | 00:00:00 | 00:00:00 | 00:00:00 | |
| PETON7-10 | 2026-09-01 00:32:27 | 48.22075 | 16.64518 | 90° | 104km/h | 7244m | 4.3m/s | -22.6°C | 5.8% | 0hPa | 2.9V | 00:00:00 | 00:00:00 | 00:00:00 | |
| PG1ADW-2 | 2026-09-01 00:32:22 | 48.22077 | 16.64322 | 90° | 104km/h | 7225m | 3.2m/s | -22.4°C | 5.7% | 0hPa | 2.9V | 00:00:00 | 00:32:02 | 00:00:00 | |
| S52SK | 2026-09-01 00:32:21 | 48.22077 | 16.64322 | 91° | 104km/h | 7225m | 3.3m/s | -22.5°C | 5.1% | 0hPa | 2.9V | 00:00:00 | 00:00:00 | 00:00:00 | |
| OE3JTB-15 | 2026-09-01 00:32:19 | 48.22079 | 16.64125 | 90° | 108km/h | 7202m | 3.2m/s | -22.2°C | 5.6% | 0hPa | 2.9V | 00:00:00 | 00:00:00 | 08:30:00 | |
| S52SK | 2026-09-01 00:32:15 | 48.22078 | 16.64085 | 89° | 106km/h | 7198m | 5.1m/s | -22.2°C | 4.9% | 0hPa | 2.9V | 00:00:00 | 00:00:00 | 00:00:00 | |
| PETON7-10 | 2026-09-01 00:32:12 | 48.22073 | 16.63928 | 89° | 108km/h | 7180m | 3.7m/s | -22.0°C | 5.5% | 0hPa | 2.9V | 00:00:00 | 00:31:52 | 00:00:00 | |
| PG1ADW-2 | 2026-09-01 00:32:02 | 48.22072 | 16.63527 | 91° | 102km/h | 7141m | 3.3m/s | -21.7°C | 5.8% | 0hPa | 2.9V | 00:00:00 | 00:00:00 | 00:00:00 | |
| PETON7-10 | 2026-09-01 00:31:57 | 48.22062 | 16.63314 | 86° | 100km/h | 7122m | 4.7m/s | -21.6°C | 6.2% | 0hPa | 2.9V | 00:00:00 | 00:00:00 | 08:30:00 | |
| HA6NAB-11 | 2026-09-01 00:31:56 | 48.22062 | 16.63314 | 86° | 110km/h | 7122m | 4.7m/s | -21.7°C | 0% | 0hPa | 2.9V | 00:00:00 | 00:00:00 | 00:00:00 | |
| HA6NAB-11 | 2026-09-01 00:31:51 | 48.22056 | 16.63123 | 87° | 99km/h | 7095m | 6.1m/s | 0°C | 0% | 0hPa | 2.9V | 00:00:00 | 00:00:00 | 00:00:00 | |
| HA6NAB-11 | 2026-09-01 00:31:46 | 48.22050 | 16.62925 | 92° | 104km/h | 7073m | 4.5m/s | 0°C | 0% | 0hPa | 2.9V | 00:00:00 | 00:00:00 | 00:00:00 | |
| PETON7-10 | 2026-09-01 00:31:42 | 48.22048 | 16.62748 | 85° | 100km/h | 7054m | 3.5m/s | -21.2°C | 6.4% | 0hPa | 2.9V | 00:00:00 | 00:00:00 | 00:00:00 | |
| HA6NAB-11 | 2026-09-01 00:31:40 | 48.22046 | 16.62713 | 85° | 93km/h | 7050m | 5.1m/s | 0°C | 0% | 0hPa | 2.9V | 00:00:00 | 00:00:00 | 00:00:00 | |
| HA6NAB-11 | 2026-09-01 00:31:34 | 48.22034 | 16.62484 | 87° | 102km/h | 7021m | 3.8m/s | 0°C | 0% | 0hPa | 2.9V | 00:00:00 | 00:00:00 | 00:00:00 | |
| OE5DRO-10 | 2026-09-01 00:31:33 | 48.22023 | 16.62325 | 83° | 99km/h | 7002m | 2.8m/s | -20.9°C | 5.0% | 0hPa | 2.9V | 00:00:00 | 00:00:00 | 00:00:00 | |
| HA6NAB-11 | 2026-09-01 00:31:29 | 48.22020 | 16.62288 | 84° | 99km/h | 6999m | 4.1m/s | 0°C | 0% | 0hPa | 2.9V | 00:00:00 | 00:00:00 | 00:00:00 | |
| PETON7-10 | 2026-09-01 00:31:27 | 48.22012 | 16.62179 | 83° | 99km/h | 6982m | 7.1m/s | -20.8°C | 4.8% | 0hPa | 2.9V | 00:00:00 | 00:31:07 | 00:00:00 | |
| HA6NAB-11 | 2026-09-01 00:31:22 | 48.22000 | 16.62027 | 88° | 104km/h | 6964m | 3.0m/s | 0°C | 0% | 0hPa | 2.9V | 00:00:00 | 00:00:00 | 00:00:00 | |
| OE3JTB-15 | 2026-09-01 00:31:19 | 48.21993 | 16.61810 | 85° | 99km/h | 6938m | 4.2m/s | -20.5°C | 4.7% | 0hPa | 2.9V | 00:00:00 | 00:30:57 | 00:00:00 | |
| HA6NAB-11 | 2026-09-01 00:31:16 | 48.21993 | 16.61810 | 85° | 93km/h | 6938m | 4.3m/s | 0°C | 0% | 0hPa | 2.9V | 00:00:00 | 00:00:00 | 00:00:00 | |
| PETON7-10 | 2026-09-01 00:31:12 | 48.21980 | 16.61621 | 83° | 99km/h | 6916m | 5.2m/s | -20.3°C | 4.6% | 0hPa | 2.9V | 00:00:00 | 00:00:00 | 00:00:00 | |
| OE5DRO-10 | 2026-09-01 00:31:11 | 48.21969 | 16.61508 | 83° | 100km/h | 6902m | 3.7m/s | -20.2°C | 4.6% | 0hPa | 2.9V | 00:00:00 | 00:00:00 | 00:00:00 | |
| PG1ADW-2 | 2026-09-01 00:31:08 | 48.21964 | 16.61249 | 87° | 99km/h | 6863m | 7.1m/s | -20.0°C | 4.2% | 0hPa | 2.9V | 00:00:00 | 00:30:42 | 00:00:00 | |
| PETON7-10 | 2026-09-01 00:30:57 | 48.21958 | 16.61060 | 92° | 99km/h | 6837m | 3.6m/s | -19.8°C | 4.1% | 0hPa | 2.9V | 00:00:00 | 00:00:00 | 00:00:00 | |
| OE3JTB-15 | 2026-09-01 00:30:50 | 48.21953 | 16.60724 | 89° | 100km/h | 6795m | 4.5m/s | -19.6°C | 4.1% | 0hPa | 2.9V | 00:00:00 | 00:00:00 | 00:00:00 | |
| PETON7-10 | 2026-09-01 00:30:42 | 48.21944 | 16.60503 | 87° | 97km/h | 6771m | 4.5m/s | -19.5°C | 4.1% | 0hPa | 2.9V | 00:00:00 | 00:30:22 | 00:00:00 | |
| S52SK | 2026-09-01 00:30:31 | 48.21939 | 16.60136 | 88° | 97km/h | 6726m | 5.2m/s | -19.4°C | 3.4% | 0hPa | 2.9V | 00:00:00 | 00:00:00 | 00:00:00 | |
| PETON7-10 | 2026-09-01 00:30:27 | 48.21929 | 16.59958 | 90° | 97km/h | 6704m | 4.0m/s | -19.2°C | 3.8% | 0hPa | 2.9V | 00:00:00 | 00:00:00 | 00:00:00 | |
| OE3JTB-15 | 2026-09-01 00:30:21 | 48.21931 | 16.59651 | 87° | 89km/h | 6669m | 3.8m/s | -19.2°C | 3.5% | 0hPa | 2.9V | 00:00:00 | 00:00:00 | 00:00:00 | |
| OE5DRO-10 | 2026-09-01 00:30:17 | 48.21921 | 16.59475 | 88° | 91km/h | 6647m | 4.0m/s | -18.9°C | 3.5% | 0hPa | 2.9V | 00:00:00 | 00:00:00 | 00:00:00 | |
| PETON7-10 | 2026-09-01 00:30:12 | 48.21919 | 16.59406 | 89° | 91km/h | 6637m | 5.1m/s | -18.9°C | 3.4% | 0hPa | 2.9V | 00:00:00 | 00:00:00 | 00:00:00 | |
| PG1ADW-2 | 2026-09-01 00:30:02 | 48.21912 | 16.59048 | 90° | 91km/h | 6581m | 5.6m/s | -18.4°C | 3.2% | 0hPa | 2.9V | 00:00:00 | 00:00:00 | 00:00:00 | |
| PETON7-10 | 2026-09-01 00:29:57 | 48.21905 | 16.58890 | 84° | 93km/h | 6557m | 5.4m/s | -18.2°C | 3.2% | 0hPa | 2.9V | 00:00:00 | 00:29:37 | 00:00:00 | |
| OE3JTB-15 | 2026-09-01 00:29:51 | 48.21893 | 16.58606 | 83° | 89km/h | 6506m | 8.7m/s | -18.0°C | 2.9% | 0hPa | 2.9V | 00:00:00 | 00:29:29 | 00:00:00 | |
| PETON7-10 | 2026-09-01 00:29:42 | 48.21872 | 16.58366 | 89° | 89km/h | 6466m | 4.1m/s | -17.8°C | 2.8% | 0hPa | 2.9V | 00:00:00 | 00:00:00 | 08:30:00 | |
| OE5DRO-10 | 2026-09-01 00:29:33 | 48.21858 | 16.58027 | 81° | 84km/h | 6412m | 4.4m/s | -17.4°C | 2.5% | 0hPa | 2.9V | 00:00:00 | 00:00:00 | 08:30:00 | |
| PETON7-10 | 2026-09-01 00:29:27 | 48.21842 | 16.57866 | 87° | 88km/h | 6389m | 4.5m/s | -17.4°C | 2.6% | 0hPa | 2.9V | 00:00:00 | 00:00:00 | 00:00:00 | |
| PG1ADW-2 | 2026-09-01 00:29:22 | 48.21825 | 16.57638 | 80° | 82km/h | 6351m | 4.3m/s | -17.5°C | 3.9% | 0hPa | 2.9V | 00:00:00 | 00:00:00 | 00:00:00 | |
| PETON7-10 | 2026-09-01 00:29:12 | 48.21809 | 16.57378 | 88° | 78km/h | 6308m | 5.2m/s | -17.4°C | 4.6% | 0hPa | 2.9V | 00:00:00 | 00:28:52 | 00:00:00 | |
| OE5DRO-10 | 2026-09-01 00:29:10 | 48.21804 | 16.57297 | 81° | 82km/h | 6295m | 3.8m/s | -17.3°C | 4.8% | 0hPa | 2.9V | 00:00:00 | 00:00:00 | 00:00:00 | |
| PG1ADW-2 | 2026-09-01 00:29:02 | 48.21774 | 16.57090 | 84° | 86km/h | 6254m | 6.0m/s | -16.9°C | 4.9% | 0hPa | 2.9V | 00:00:00 | 00:00:00 | 00:00:00 | |
| PETON7-10 | 2026-09-01 00:28:57 | 48.21764 | 16.56936 | 83° | 88km/h | 6229m | 5.1m/s | -16.7°C | 5.2% | 0hPa | 2.9V | 00:00:00 | 00:00:00 | 00:00:00 | |
| S52SK | 2026-09-01 00:28:56 | 48.21764 | 16.56936 | 83° | 88km/h | 6229m | 5.1m/s | -16.8°C | 4.8% | 0hPa | 2.9V | 00:00:00 | 00:00:00 | 00:00:00 | |
| OE3JTB-15 | 2026-09-01 00:28:53 | 48.21734 | 16.56746 | 79° | 86km/h | 6190m | 5.4m/s | -16.4°C | 5.8% | 0hPa | 2.9V | 00:00:00 | 00:00:00 | 00:00:00 | |
| OE5DRO-10 | 2026-09-01 00:28:51 | 48.21734 | 16.56746 | 79° | 86km/h | 6190m | 5.4m/s | 0°C | 0% | 0hPa | 2.9V | 00:00:00 | 00:00:00 | 00:00:00 | |
| S52SK | 2026-09-01 00:28:50 | 48.21734 | 16.56746 | 79° | 77km/h | 6190m | 5.4m/s | -16.5°C | 5.4% | 0hPa | 2.9V | 00:00:00 | 00:00:00 | 00:00:00 | |
| S52SK | 2026-09-01 00:28:44 | 48.21712 | 16.56560 | 78° | 99km/h | 6159m | 5.4m/s | -16.2°C | 6.2% | 0hPa | 2.9V | 00:00:00 | 00:00:00 | 00:00:00 | |
| PETON7-10 | 2026-09-01 00:28:42 | 48.21696 | 16.56454 | 80° | 86km/h | 6139m | 5.2m/s | -16.2°C | 10.6% | 0hPa | 2.9V | 00:00:00 | 00:00:00 | 00:00:00 | |
| S52SK | 2026-09-01 00:28:39 | 48.21689 | 16.56388 | 82° | 86km/h | 6130m | 5.1m/s | -16.2°C | 0% | 0hPa | 2.9V | 00:00:00 | 00:00:00 | 00:00:00 | |
| OE5DRO-10 | 2026-09-01 00:28:32 | 48.21648 | 16.56138 | 77° | 78km/h | 6084m | 5.0m/s | 0°C | 0% | 0hPa | 2.9V | 00:00:00 | 00:00:00 | 00:00:00 | |
| PETON7-10 | 2026-09-01 00:28:27 | 48.21628 | 16.55982 | 80° | 97km/h | 6056m | 7.3m/s | -15.8°C | 11.6% | 0hPa | 2.9V | 00:00:00 | 00:28:07 | 00:00:00 | |
| OE3JTB-15 | 2026-09-01 00:28:23 | 48.21605 | 16.55839 | 78° | 89km/h | 6030m | 8.9m/s | -15.8°C | 15.7% | 0hPa | 2.9V | 00:00:00 | 00:28:03 | 00:00:00 | |
| PG1ADW-2 | 2026-09-01 00:28:22 | 48.21600 | 16.55802 | 79° | 91km/h | 6021m | 8.3m/s | -15.9°C | 18.0% | 0hPa | 2.9V | 00:00:00 | 00:28:02 | 00:00:00 | |
| PETON7-10 | 2026-09-01 00:28:12 | 48.21538 | 16.55453 | 78° | 86km/h | 5962m | 7.1m/s | -15.8°C | 7.7% | 0hPa | 2.9V | 00:00:00 | 00:00:00 | 00:00:00 | |
| PG1ADW-2 | 2026-09-01 00:28:02 | 48.21510 | 16.55125 | 79° | 77km/h | 5906m | 7.0m/s | -15.7°C | 18.3% | 0hPa | 2.7V | 00:00:00 | 00:00:00 | 00:00:00 | |
| PETON7-10 | 2026-09-01 00:27:57 | 48.21490 | 16.54969 | 85° | 75km/h | 5877m | 3.8m/s | -15.5°C | 17.6% | 0hPa | 2.7V | 00:00:00 | 00:00:00 | 00:00:00 | |
| OE3JTB-15 | 2026-09-01 00:27:54 | 48.21485 | 16.54875 | 84° | 75km/h | 5861m | 4.6m/s | -15.5°C | 20.8% | 0hPa | 2.7V | 00:00:00 | 00:00:00 | 08:30:00 | |
| PETON7-10 | 2026-09-01 00:27:42 | 48.21453 | 16.54549 | 83° | 77km/h | 5798m | 3.7m/s | -15.2°C | 28.4% | 0hPa | 2.9V | 00:00:00 | 00:27:22 | 00:00:00 | |
| OE5DRO-10 | 2026-09-01 00:27:36 | 48.21431 | 16.54375 | 76° | 77km/h | 5765m | 5.3m/s | 0°C | 0% | 0hPa | 2.9V | 00:00:00 | 00:00:00 | 00:00:00 | |
| PETON7-10 | 2026-09-01 00:27:27 | 48.21390 | 16.54125 | 78° | 77km/h | 5714m | 5.1m/s | -14.8°C | 6.2% | 0hPa | 2.9V | 00:00:00 | 00:00:00 | 08:30:00 | |
| OE3JTB-15 | 2026-09-01 00:27:25 | 48.21382 | 16.54068 | 77° | 69km/h | 5704m | 6.3m/s | -14.8°C | 6.5% | 0hPa | 2.9V | 00:00:00 | 00:00:00 | 00:00:00 | |
| PG1ADW-2 | 2026-09-01 00:27:22 | 48.21368 | 16.53979 | 78° | 73km/h | 5685m | 3.9m/s | -14.7°C | 7.2% | 0hPa | 2.9V | 00:00:00 | 00:00:00 | 00:00:00 | |
| OE5DRO-10 | 2026-09-01 00:27:17 | 48.21345 | 16.53840 | 77° | 68km/h | 5659m | 5.3m/s | 0°C | 0% | 0hPa | 2.9V | 00:00:00 | 00:00:00 | 00:00:00 | |
| PETON7-10 | 2026-09-01 00:27:12 | 48.21323 | 16.53700 | 73° | 64km/h | 5633m | 6.2m/s | -14.4°C | 9.3% | 0hPa | 2.9V | 00:00:00 | 00:00:00 | 00:00:00 | |
| PG1ADW-2 | 2026-09-01 00:27:02 | 48.21273 | 16.53456 | 75° | 66km/h | 5566m | 6.3m/s | -13.9°C | 10.9% | 0hPa | 2.9V | 00:00:00 | 00:26:42 | 00:00:00 | |
| OE5DRO-10 | 2026-09-01 00:26:58 | 48.21263 | 16.53375 | 81° | 66km/h | 5543m | 4.3m/s | 0°C | 0% | 0hPa | 2.9V | 00:00:00 | 00:00:00 | 00:00:00 | |
| PETON7-10 | 2026-09-01 00:26:57 | 48.21260 | 16.53351 | 80° | 71km/h | 5538m | 6.3m/s | -13.6°C | 11.2% | 0hPa | 2.9V | 00:00:00 | 00:26:37 | 00:00:00 | |
| OE3JTB-15 | 2026-09-01 00:26:56 | 48.21257 | 16.53326 | 78° | 66km/h | 5532m | 5.8m/s | -13.6°C | 11.7% | 0hPa | 2.9V | 00:00:00 | 00:26:36 | 00:00:00 | |
| S52SK | 2026-09-01 00:26:46 | 48.21211 | 16.53095 | 73° | 73km/h | 5493m | 3.1m/s | -13.3°C | 0% | 0hPa | 2.9V | 00:00:00 | 00:00:00 | 00:00:00 | |
| PETON7-10 | 2026-09-01 00:26:42 | 48.21186 | 16.52967 | 79° | 62km/h | 5468m | 4.5m/s | -13.1°C | 14.0% | 0hPa | 2.9V | 00:00:00 | 00:00:00 | 00:00:00 | |
| S52SK | 2026-09-01 00:26:41 | 48.21186 | 16.52967 | 80° | 64km/h | 5468m | 4.6m/s | -13.1°C | 0% | 0hPa | 2.9V | 00:00:00 | 00:00:00 | 00:00:00 | |
| PETON7-10 | 2026-09-01 00:26:27 | 48.21110 | 16.52636 | 72° | 62km/h | 5377m | 7.0m/s | -12.2°C | 12.8% | 0hPa | 2.9V | 00:00:00 | 00:00:00 | 00:00:00 | |
| OE5DRO-10 | 2026-09-01 00:26:24 | 48.21095 | 16.52564 | 75° | 64km/h | 5361m | 7.2m/s | 0°C | 0% | 0hPa | 2.9V | 00:00:00 | 00:00:00 | 00:00:00 | |
| PG1ADW-2 | 2026-09-01 00:26:22 | 48.21087 | 16.52524 | 75° | 64km/h | 5347m | 5.7m/s | -11.9°C | 12.9% | 0hPa | 2.9V | 00:00:00 | 00:00:00 | 00:00:00 | |
| PETON7-10 | 2026-09-01 00:26:12 | 48.21038 | 16.52303 | 66° | 64km/h | 5290m | 5.7m/s | -11.5°C | 15.2% | 0hPa | 2.9V | 00:00:00 | 00:25:52 | 00:00:00 | |
| OE5DRO-10 | 2026-09-01 00:26:05 | 48.20990 | 16.52142 | 74° | 58km/h | 5260m | 5.1m/s | 0°C | 0% | 0hPa | 2.9V | 00:00:00 | 00:00:00 | 00:00:00 | |
| PG1ADW-2 | 2026-09-01 00:26:02 | 48.20978 | 16.52077 | 73° | 58km/h | 5245m | 4.9m/s | -11.1°C | 17.2% | 0hPa | 2.9V | 00:00:00 | 00:00:00 | 00:00:00 | |
| OE3JTB-15 | 2026-09-01 00:25:58 | 48.20956 | 16.51995 | 69° | 57km/h | 5220m | 5.7m/s | -10.9°C | 16.6% | 0hPa | 2.9V | 00:00:00 | 00:00:00 | 00:00:00 | |
| PETON7-10 | 2026-09-01 00:25:57 | 48.20949 | 16.51970 | 71° | 58km/h | 5215m | 4.5m/s | -10.9°C | 17.5% | 0hPa | 2.9V | 00:00:00 | 00:00:00 | 00:00:00 | |
| PETON7-10 | 2026-09-01 00:25:42 | 48.20886 | 16.51660 | 74° | 55km/h | 5123m | 7.0m/s | -10.4°C | 23.1% | 0hPa | 2.9V | 00:00:00 | 00:00:00 | 00:00:00 | |
| OE3JTB-15 | 2026-09-01 00:25:29 | 48.20814 | 16.51417 | 63° | 58km/h | 5044m | 4.4m/s | -9.9°C | 24.5% | 0hPa | 2.9V | 00:00:00 | 00:25:09 | 00:00:00 | |
| PETON7-10 | 2026-09-01 00:25:27 | 48.20797 | 16.51375 | 57° | 58km/h | 5033m | 6.7m/s | -9.8°C | 24.2% | 0hPa | 2.9V | 00:00:00 | 00:25:07 | 00:00:00 | |
| PG1ADW-2 | 2026-09-01 00:25:22 | 48.20770 | 16.51280 | 78° | 58km/h | 5002m | 6.6m/s | -9.6°C | 24.4% | 0hPa | 2.9V | 00:00:00 | 00:00:00 | 00:00:00 | |
| PETON7-10 | 2026-09-01 00:25:12 | 48.20724 | 16.51062 | 58° | 60km/h | 4946m | 5.0m/s | -9.0°C | 22.9% | 0hPa | 2.9V | 00:00:00 | 00:00:00 | 08:30:00 | |
| OE5DRO-10 | 2026-09-01 00:25:04 | 48.20663 | 16.50891 | 77° | 64km/h | 4896m | 6.6m/s | 0°C | 0% | 0hPa | 2.9V | 00:00:00 | 00:00:00 | 00:00:00 | |
| PG1ADW-2 | 2026-09-01 00:25:02 | 48.20659 | 16.50869 | 77° | 62km/h | 4889m | 7.3m/s | -8.5°C | 22.5% | 0hPa | 2.9V | 00:00:00 | 00:00:00 | 00:00:00 | |
| OE3JTB-15 | 2026-09-01 00:25:00 | 48.20649 | 16.50822 | 68° | 60km/h | 4877m | 4.1m/s | -8.4°C | 22.4% | 0hPa | 2.9V | 00:00:00 | 00:00:00 | 00:00:00 | |
| S52SK | 2026-09-01 00:24:58 | 48.20642 | 16.50800 | 64° | 66km/h | 4873m | 4.6m/s | -8.4°C | 0% | 0hPa | 2.9V | 00:00:00 | 00:00:00 | 00:00:00 | |
| S52SK | 2026-09-01 00:24:53 | 48.20606 | 16.50680 | 75° | 68km/h | 4844m | 5.4m/s | -8.1°C | 0% | 0hPa | 2.9V | 00:00:00 | 00:00:00 | 00:00:00 | |
| PETON7-10 | 2026-09-01 00:24:42 | 48.20535 | 16.50436 | 59° | 57km/h | 4777m | 4.3m/s | -7.5°C | 21.0% | 0hPa | 2.9V | 00:00:00 | 00:24:22 | 00:00:00 | |
| OE3JTB-15 | 2026-09-01 00:24:32 | 48.20464 | 16.50237 | 65° | 60km/h | 4708m | 6.8m/s | -7.1°C | 20.8% | 0hPa | 2.9V | 00:00:00 | 00:00:00 | 00:00:00 | |
| PETON7-10 | 2026-09-01 00:24:27 | 48.20443 | 16.50156 | 79° | 58km/h | 4684m | 6.1m/s | -6.9°C | 20.5% | 0hPa | 2.9V | 00:00:00 | 00:00:00 | 00:00:00 | |
| PG1ADW-2 | 2026-09-01 00:24:22 | 48.20423 | 16.50036 | 71° | 60km/h | 4654m | 4.7m/s | -6.6°C | 20.3% | 0hPa | 2.9V | 00:00:00 | 00:24:02 | 00:00:00 | |
| PETON7-10 | 2026-09-01 00:24:12 | 48.20371 | 16.49839 | 67° | 60km/h | 4606m | 4.6m/s | -6.3°C | 20.9% | 0hPa | 2.9V | 00:00:00 | 00:00:00 | 00:00:00 | |
| OE3JTB-15 | 2026-09-01 00:24:02 | 48.20335 | 16.49606 | 71° | 58km/h | 4554m | 5.3m/s | -6.0°C | 25.0% | 0hPa | 2.9V | 00:00:00 | 00:23:42 | 00:00:00 | |
| Es werden nur die letzten 3500 von 3589 Frames angezeigt. GPX/KML und Diagramme bleiben verfügbar. | |||||||||||||||